<?xml version="1.0" encoding="UTF-8" standalone="no" ?>
<gpx xmlns="http://www.topografix.com/GPX/1/1" xmlns:xsi="http://www.w3.org/2001/XMLSchema-instance" xsi:schemaLocation="http://www.topografix.com/GPX/1/1 http://www.topografix.com/GPX/1/1/gpx.xsd" version="1.1" creator="VisuGPX - https://www.visugpx.com">
  <metadata>
    <name>ski Charmet de l'Aiguille Grand Moretan</name>
  </metadata>
  <trk>
    <name><![CDATA[ski Charmet de l'Aiguille Grand Moretan]]></name>
    <trkseg>
      <trkpt lat="45.28912" lon="6.21524">
        <ele>1170.1999511719</ele>
        <time>2020-02-08T07:45:20.000Z</time>
      </trkpt>
      <trkpt lat="45.28912" lon="6.21523">
        <ele>1170.1999511719</ele>
        <time>2020-02-08T07:45:31.000Z</time>
      </trkpt>
      <trkpt lat="45.28912" lon="6.21523">
        <ele>1170.4000244141</ele>
        <time>2020-02-08T07:45:45.000Z</time>
      </trkpt>
      <trkpt lat="45.28912" lon="6.21523">
        <ele>1169.8000488281</ele>
        <time>2020-02-08T07:45:58.000Z</time>
      </trkpt>
      <trkpt lat="45.28912" lon="6.21523">
        <ele>1169.4000244141</ele>
        <time>2020-02-08T07:46:06.000Z</time>
      </trkpt>
      <trkpt lat="45.28912" lon="6.21523">
        <ele>1169.1999511719</ele>
        <time>2020-02-08T07:46:10.000Z</time>
      </trkpt>
      <trkpt lat="45.28912" lon="6.21523">
        <ele>1170</ele>
        <time>2020-02-08T07:46:17.000Z</time>
      </trkpt>
      <trkpt lat="45.28911" lon="6.21524">
        <ele>1170</ele>
        <time>2020-02-08T07:46:24.000Z</time>
      </trkpt>
      <trkpt lat="45.28911" lon="6.21524">
        <ele>1169.5999755859</ele>
        <time>2020-02-08T07:46:33.000Z</time>
      </trkpt>
      <trkpt lat="45.2891" lon="6.21525">
        <ele>1169.8000488281</ele>
        <time>2020-02-08T07:46:42.000Z</time>
      </trkpt>
      <trkpt lat="45.2891" lon="6.21525">
        <ele>1169</ele>
        <time>2020-02-08T07:46:59.000Z</time>
      </trkpt>
      <trkpt lat="45.2891" lon="6.21525">
        <ele>1170.1999511719</ele>
        <time>2020-02-08T07:47:02.000Z</time>
      </trkpt>
      <trkpt lat="45.28911" lon="6.21526">
        <ele>1169.5999755859</ele>
        <time>2020-02-08T07:47:14.000Z</time>
      </trkpt>
      <trkpt lat="45.28912" lon="6.21526">
        <ele>1169.5999755859</ele>
        <time>2020-02-08T07:47:15.000Z</time>
      </trkpt>
      <trkpt lat="45.28914" lon="6.21529">
        <ele>1169.1999511719</ele>
        <time>2020-02-08T07:47:19.000Z</time>
      </trkpt>
      <trkpt lat="45.28914" lon="6.21529">
        <ele>1170.1999511719</ele>
        <time>2020-02-08T07:47:25.000Z</time>
      </trkpt>
      <trkpt lat="45.28914" lon="6.21529">
        <ele>1170.5999755859</ele>
        <time>2020-02-08T07:47:38.000Z</time>
      </trkpt>
      <trkpt lat="45.28914" lon="6.21529">
        <ele>1170.4000244141</ele>
        <time>2020-02-08T07:47:47.000Z</time>
      </trkpt>
      <trkpt lat="45.28914" lon="6.21529">
        <ele>1170.5999755859</ele>
        <time>2020-02-08T07:47:50.000Z</time>
      </trkpt>
      <trkpt lat="45.28914" lon="6.21529">
        <ele>1170</ele>
        <time>2020-02-08T07:48:00.000Z</time>
      </trkpt>
      <trkpt lat="45.28917" lon="6.21532">
        <ele>1171.4000244141</ele>
        <time>2020-02-08T07:48:07.000Z</time>
      </trkpt>
      <trkpt lat="45.28923" lon="6.21539">
        <ele>1171</ele>
        <time>2020-02-08T07:48:13.000Z</time>
      </trkpt>
      <trkpt lat="45.28929" lon="6.21545">
        <ele>1170.8000488281</ele>
        <time>2020-02-08T07:48:19.000Z</time>
      </trkpt>
      <trkpt lat="45.28936" lon="6.21552">
        <ele>1171</ele>
        <time>2020-02-08T07:48:26.000Z</time>
      </trkpt>
      <trkpt lat="45.28943" lon="6.21558">
        <ele>1171.1999511719</ele>
        <time>2020-02-08T07:48:32.000Z</time>
      </trkpt>
      <trkpt lat="45.28949" lon="6.21563">
        <ele>1171.1999511719</ele>
        <time>2020-02-08T07:48:37.000Z</time>
      </trkpt>
      <trkpt lat="45.28955" lon="6.21567">
        <ele>1170.8000488281</ele>
        <time>2020-02-08T07:48:42.000Z</time>
      </trkpt>
      <trkpt lat="45.28963" lon="6.21575">
        <ele>1170.8000488281</ele>
        <time>2020-02-08T07:48:48.000Z</time>
      </trkpt>
      <trkpt lat="45.28966" lon="6.2158">
        <ele>1170.4000244141</ele>
        <time>2020-02-08T07:48:51.000Z</time>
      </trkpt>
      <trkpt lat="45.28969" lon="6.21584">
        <ele>1169.8000488281</ele>
        <time>2020-02-08T07:48:54.000Z</time>
      </trkpt>
      <trkpt lat="45.28975" lon="6.21591">
        <ele>1169.4000244141</ele>
        <time>2020-02-08T07:49:00.000Z</time>
      </trkpt>
      <trkpt lat="45.28979" lon="6.21596">
        <ele>1169.4000244141</ele>
        <time>2020-02-08T07:49:04.000Z</time>
      </trkpt>
      <trkpt lat="45.28979" lon="6.21598">
        <ele>1169.4000244141</ele>
        <time>2020-02-08T07:49:05.000Z</time>
      </trkpt>
      <trkpt lat="45.2898" lon="6.21599">
        <ele>1169.4000244141</ele>
        <time>2020-02-08T07:49:06.000Z</time>
      </trkpt>
      <trkpt lat="45.28986" lon="6.21601">
        <ele>1169</ele>
        <time>2020-02-08T07:49:12.000Z</time>
      </trkpt>
      <trkpt lat="45.28992" lon="6.21601">
        <ele>1169.5999755859</ele>
        <time>2020-02-08T07:49:18.000Z</time>
      </trkpt>
      <trkpt lat="45.29002" lon="6.21602">
        <ele>1170.1999511719</ele>
        <time>2020-02-08T07:49:25.000Z</time>
      </trkpt>
      <trkpt lat="45.29003" lon="6.21603">
        <ele>1170.4000244141</ele>
        <time>2020-02-08T07:49:26.000Z</time>
      </trkpt>
      <trkpt lat="45.29009" lon="6.21609">
        <ele>1170.5999755859</ele>
        <time>2020-02-08T07:49:32.000Z</time>
      </trkpt>
      <trkpt lat="45.29013" lon="6.21613">
        <ele>1170.8000488281</ele>
        <time>2020-02-08T07:49:37.000Z</time>
      </trkpt>
      <trkpt lat="45.29016" lon="6.21616">
        <ele>1171.5999755859</ele>
        <time>2020-02-08T07:49:41.000Z</time>
      </trkpt>
      <trkpt lat="45.29017" lon="6.21618">
        <ele>1172.1999511719</ele>
        <time>2020-02-08T07:49:43.000Z</time>
      </trkpt>
      <trkpt lat="45.29019" lon="6.21619">
        <ele>1172.5999755859</ele>
        <time>2020-02-08T07:49:46.000Z</time>
      </trkpt>
      <trkpt lat="45.29021" lon="6.21621">
        <ele>1172.8000488281</ele>
        <time>2020-02-08T07:49:49.000Z</time>
      </trkpt>
      <trkpt lat="45.29025" lon="6.21623">
        <ele>1173.4000244141</ele>
        <time>2020-02-08T07:49:55.000Z</time>
      </trkpt>
      <trkpt lat="45.29028" lon="6.21628">
        <ele>1173.5999755859</ele>
        <time>2020-02-08T07:49:59.000Z</time>
      </trkpt>
      <trkpt lat="45.29028" lon="6.21629">
        <ele>1173.5999755859</ele>
        <time>2020-02-08T07:50:00.000Z</time>
      </trkpt>
      <trkpt lat="45.29033" lon="6.21634">
        <ele>1173.4000244141</ele>
        <time>2020-02-08T07:50:06.000Z</time>
      </trkpt>
      <trkpt lat="45.29037" lon="6.21635">
        <ele>1173.1999511719</ele>
        <time>2020-02-08T07:50:13.000Z</time>
      </trkpt>
      <trkpt lat="45.29039" lon="6.21638">
        <ele>1173.4000244141</ele>
        <time>2020-02-08T07:50:20.000Z</time>
      </trkpt>
      <trkpt lat="45.29043" lon="6.21646">
        <ele>1173.4000244141</ele>
        <time>2020-02-08T07:50:26.000Z</time>
      </trkpt>
      <trkpt lat="45.29044" lon="6.21649">
        <ele>1173.5999755859</ele>
        <time>2020-02-08T07:50:32.000Z</time>
      </trkpt>
      <trkpt lat="45.29044" lon="6.2165">
        <ele>1173.1999511719</ele>
        <time>2020-02-08T07:50:39.000Z</time>
      </trkpt>
      <trkpt lat="45.29044" lon="6.21649">
        <ele>1173</ele>
        <time>2020-02-08T07:50:45.000Z</time>
      </trkpt>
      <trkpt lat="45.29042" lon="6.21649">
        <ele>1173.1999511719</ele>
        <time>2020-02-08T07:50:47.000Z</time>
      </trkpt>
      <trkpt lat="45.29039" lon="6.21648">
        <ele>1173</ele>
        <time>2020-02-08T07:50:49.000Z</time>
      </trkpt>
      <trkpt lat="45.29038" lon="6.21646">
        <ele>1172.4000244141</ele>
        <time>2020-02-08T07:50:51.000Z</time>
      </trkpt>
      <trkpt lat="45.29036" lon="6.21645">
        <ele>1172.4000244141</ele>
        <time>2020-02-08T07:50:52.000Z</time>
      </trkpt>
      <trkpt lat="45.29034" lon="6.21643">
        <ele>1171.4000244141</ele>
        <time>2020-02-08T07:51:00.000Z</time>
      </trkpt>
      <trkpt lat="45.29033" lon="6.21642">
        <ele>1170.5999755859</ele>
        <time>2020-02-08T07:51:07.000Z</time>
      </trkpt>
      <trkpt lat="45.29033" lon="6.21642">
        <ele>1170.4000244141</ele>
        <time>2020-02-08T07:51:08.000Z</time>
      </trkpt>
      <trkpt lat="45.29033" lon="6.21642">
        <ele>1170</ele>
        <time>2020-02-08T07:51:16.000Z</time>
      </trkpt>
      <trkpt lat="45.29033" lon="6.21642">
        <ele>1169.4000244141</ele>
        <time>2020-02-08T07:51:21.000Z</time>
      </trkpt>
      <trkpt lat="45.29033" lon="6.21642">
        <ele>1169</ele>
        <time>2020-02-08T07:51:24.000Z</time>
      </trkpt>
      <trkpt lat="45.2903" lon="6.21644">
        <ele>1168.1999511719</ele>
        <time>2020-02-08T07:51:29.000Z</time>
      </trkpt>
      <trkpt lat="45.29029" lon="6.21644">
        <ele>1167.8000488281</ele>
        <time>2020-02-08T07:51:30.000Z</time>
      </trkpt>
      <trkpt lat="45.29029" lon="6.21644">
        <ele>1167</ele>
        <time>2020-02-08T07:51:33.000Z</time>
      </trkpt>
      <trkpt lat="45.29031" lon="6.21651">
        <ele>1166.5999755859</ele>
        <time>2020-02-08T07:51:37.000Z</time>
      </trkpt>
      <trkpt lat="45.29033" lon="6.21656">
        <ele>1165.8000488281</ele>
        <time>2020-02-08T07:51:42.000Z</time>
      </trkpt>
      <trkpt lat="45.29033" lon="6.21656">
        <ele>1164.8000488281</ele>
        <time>2020-02-08T07:51:48.000Z</time>
      </trkpt>
      <trkpt lat="45.29032" lon="6.21657">
        <ele>1164.1999511719</ele>
        <time>2020-02-08T07:51:51.000Z</time>
      </trkpt>
      <trkpt lat="45.29028" lon="6.21662">
        <ele>1163.8000488281</ele>
        <time>2020-02-08T07:51:55.000Z</time>
      </trkpt>
      <trkpt lat="45.29027" lon="6.21666">
        <ele>1163.5999755859</ele>
        <time>2020-02-08T07:51:57.000Z</time>
      </trkpt>
      <trkpt lat="45.29026" lon="6.21672">
        <ele>1162.5999755859</ele>
        <time>2020-02-08T07:52:01.000Z</time>
      </trkpt>
      <trkpt lat="45.29025" lon="6.21674">
        <ele>1162.1999511719</ele>
        <time>2020-02-08T07:52:02.000Z</time>
      </trkpt>
      <trkpt lat="45.29023" lon="6.21678">
        <ele>1161.4000244141</ele>
        <time>2020-02-08T07:52:04.000Z</time>
      </trkpt>
      <trkpt lat="45.29023" lon="6.21684">
        <ele>1161.1999511719</ele>
        <time>2020-02-08T07:52:06.000Z</time>
      </trkpt>
      <trkpt lat="45.29023" lon="6.21686">
        <ele>1160.1999511719</ele>
        <time>2020-02-08T07:52:09.000Z</time>
      </trkpt>
      <trkpt lat="45.29023" lon="6.21686">
        <ele>1159.5999755859</ele>
        <time>2020-02-08T07:52:10.000Z</time>
      </trkpt>
      <trkpt lat="45.29023" lon="6.21686">
        <ele>1159</ele>
        <time>2020-02-08T07:52:12.000Z</time>
      </trkpt>
      <trkpt lat="45.29018" lon="6.21686">
        <ele>1158.5999755859</ele>
        <time>2020-02-08T07:52:15.000Z</time>
      </trkpt>
      <trkpt lat="45.29013" lon="6.21686">
        <ele>1157.8000488281</ele>
        <time>2020-02-08T07:52:18.000Z</time>
      </trkpt>
      <trkpt lat="45.29009" lon="6.21684">
        <ele>1156.8000488281</ele>
        <time>2020-02-08T07:52:22.000Z</time>
      </trkpt>
      <trkpt lat="45.29009" lon="6.21684">
        <ele>1156.5999755859</ele>
        <time>2020-02-08T07:52:23.000Z</time>
      </trkpt>
      <trkpt lat="45.29009" lon="6.21684">
        <ele>1155.1999511719</ele>
        <time>2020-02-08T07:52:25.000Z</time>
      </trkpt>
      <trkpt lat="45.29009" lon="6.21684">
        <ele>1155.8000488281</ele>
        <time>2020-02-08T07:52:34.000Z</time>
      </trkpt>
      <trkpt lat="45.29009" lon="6.21684">
        <ele>1156.4000244141</ele>
        <time>2020-02-08T07:52:35.000Z</time>
      </trkpt>
      <trkpt lat="45.29009" lon="6.21684">
        <ele>1155.1999511719</ele>
        <time>2020-02-08T07:52:41.000Z</time>
      </trkpt>
      <trkpt lat="45.29007" lon="6.21685">
        <ele>1156.4000244141</ele>
        <time>2020-02-08T07:52:45.000Z</time>
      </trkpt>
      <trkpt lat="45.28999" lon="6.21684">
        <ele>1155.1999511719</ele>
        <time>2020-02-08T07:52:51.000Z</time>
      </trkpt>
      <trkpt lat="45.28997" lon="6.21685">
        <ele>1155</ele>
        <time>2020-02-08T07:52:52.000Z</time>
      </trkpt>
      <trkpt lat="45.28991" lon="6.21691">
        <ele>1154.1999511719</ele>
        <time>2020-02-08T07:52:57.000Z</time>
      </trkpt>
      <trkpt lat="45.28992" lon="6.21694">
        <ele>1154</ele>
        <time>2020-02-08T07:52:58.000Z</time>
      </trkpt>
      <trkpt lat="45.28992" lon="6.21696">
        <ele>1154</ele>
        <time>2020-02-08T07:52:59.000Z</time>
      </trkpt>
      <trkpt lat="45.28997" lon="6.21705">
        <ele>1153</ele>
        <time>2020-02-08T07:53:04.000Z</time>
      </trkpt>
      <trkpt lat="45.28997" lon="6.21706">
        <ele>1153</ele>
        <time>2020-02-08T07:53:05.000Z</time>
      </trkpt>
      <trkpt lat="45.29004" lon="6.21719">
        <ele>1152.1999511719</ele>
        <time>2020-02-08T07:53:12.000Z</time>
      </trkpt>
      <trkpt lat="45.29007" lon="6.21721">
        <ele>1151.8000488281</ele>
        <time>2020-02-08T07:53:14.000Z</time>
      </trkpt>
      <trkpt lat="45.29014" lon="6.21719">
        <ele>1151.4000244141</ele>
        <time>2020-02-08T07:53:17.000Z</time>
      </trkpt>
      <trkpt lat="45.29019" lon="6.21718">
        <ele>1150.8000488281</ele>
        <time>2020-02-08T07:53:21.000Z</time>
      </trkpt>
      <trkpt lat="45.29019" lon="6.21718">
        <ele>1150.5999755859</ele>
        <time>2020-02-08T07:53:22.000Z</time>
      </trkpt>
      <trkpt lat="45.29026" lon="6.21718">
        <ele>1149.8000488281</ele>
        <time>2020-02-08T07:53:28.000Z</time>
      </trkpt>
      <trkpt lat="45.29029" lon="6.21719">
        <ele>1148.8000488281</ele>
        <time>2020-02-08T07:53:33.000Z</time>
      </trkpt>
      <trkpt lat="45.29032" lon="6.21717">
        <ele>1148.5999755859</ele>
        <time>2020-02-08T07:53:35.000Z</time>
      </trkpt>
      <trkpt lat="45.29039" lon="6.21712">
        <ele>1148.8000488281</ele>
        <time>2020-02-08T07:53:42.000Z</time>
      </trkpt>
      <trkpt lat="45.29048" lon="6.21709">
        <ele>1149.1999511719</ele>
        <time>2020-02-08T07:53:46.000Z</time>
      </trkpt>
      <trkpt lat="45.29052" lon="6.21707">
        <ele>1149.8000488281</ele>
        <time>2020-02-08T07:53:49.000Z</time>
      </trkpt>
      <trkpt lat="45.2906" lon="6.21702">
        <ele>1150.4000244141</ele>
        <time>2020-02-08T07:53:53.000Z</time>
      </trkpt>
      <trkpt lat="45.29062" lon="6.217">
        <ele>1150.8000488281</ele>
        <time>2020-02-08T07:53:54.000Z</time>
      </trkpt>
      <trkpt lat="45.29067" lon="6.21696">
        <ele>1151.1999511719</ele>
        <time>2020-02-08T07:53:58.000Z</time>
      </trkpt>
      <trkpt lat="45.29075" lon="6.21693">
        <ele>1151.5999755859</ele>
        <time>2020-02-08T07:54:04.000Z</time>
      </trkpt>
      <trkpt lat="45.29082" lon="6.21686">
        <ele>1151.8000488281</ele>
        <time>2020-02-08T07:54:11.000Z</time>
      </trkpt>
      <trkpt lat="45.2909" lon="6.2168">
        <ele>1152.1999511719</ele>
        <time>2020-02-08T07:54:17.000Z</time>
      </trkpt>
      <trkpt lat="45.29093" lon="6.21674">
        <ele>1152.5999755859</ele>
        <time>2020-02-08T07:54:21.000Z</time>
      </trkpt>
      <trkpt lat="45.29094" lon="6.21672">
        <ele>1153</ele>
        <time>2020-02-08T07:54:23.000Z</time>
      </trkpt>
      <trkpt lat="45.29096" lon="6.2167">
        <ele>1154</ele>
        <time>2020-02-08T07:54:30.000Z</time>
      </trkpt>
      <trkpt lat="45.29097" lon="6.21667">
        <ele>1154.8000488281</ele>
        <time>2020-02-08T07:54:36.000Z</time>
      </trkpt>
      <trkpt lat="45.29098" lon="6.21664">
        <ele>1155</ele>
        <time>2020-02-08T07:54:38.000Z</time>
      </trkpt>
      <trkpt lat="45.291" lon="6.21659">
        <ele>1156.1999511719</ele>
        <time>2020-02-08T07:54:41.000Z</time>
      </trkpt>
      <trkpt lat="45.29102" lon="6.21655">
        <ele>1156.8000488281</ele>
        <time>2020-02-08T07:54:43.000Z</time>
      </trkpt>
      <trkpt lat="45.29104" lon="6.21652">
        <ele>1157.1999511719</ele>
        <time>2020-02-08T07:54:46.000Z</time>
      </trkpt>
      <trkpt lat="45.29106" lon="6.21649">
        <ele>1157.8000488281</ele>
        <time>2020-02-08T07:54:48.000Z</time>
      </trkpt>
      <trkpt lat="45.29109" lon="6.21647">
        <ele>1158.4000244141</ele>
        <time>2020-02-08T07:54:50.000Z</time>
      </trkpt>
      <trkpt lat="45.2911" lon="6.21646">
        <ele>1159.4000244141</ele>
        <time>2020-02-08T07:54:53.000Z</time>
      </trkpt>
      <trkpt lat="45.29112" lon="6.21644">
        <ele>1160</ele>
        <time>2020-02-08T07:54:55.000Z</time>
      </trkpt>
      <trkpt lat="45.29115" lon="6.21643">
        <ele>1160.4000244141</ele>
        <time>2020-02-08T07:54:58.000Z</time>
      </trkpt>
      <trkpt lat="45.29115" lon="6.21643">
        <ele>1161.4000244141</ele>
        <time>2020-02-08T07:55:03.000Z</time>
      </trkpt>
      <trkpt lat="45.29115" lon="6.21643">
        <ele>1161.5999755859</ele>
        <time>2020-02-08T07:55:10.000Z</time>
      </trkpt>
      <trkpt lat="45.29115" lon="6.21643">
        <ele>1161.5999755859</ele>
        <time>2020-02-08T07:55:15.000Z</time>
      </trkpt>
      <trkpt lat="45.29115" lon="6.21643">
        <ele>1160.5999755859</ele>
        <time>2020-02-08T07:55:23.000Z</time>
      </trkpt>
      <trkpt lat="45.29115" lon="6.21643">
        <ele>1159.5999755859</ele>
        <time>2020-02-08T07:55:26.000Z</time>
      </trkpt>
      <trkpt lat="45.29115" lon="6.21643">
        <ele>1159.8000488281</ele>
        <time>2020-02-08T07:55:27.000Z</time>
      </trkpt>
      <trkpt lat="45.29115" lon="6.21643">
        <ele>1161.8000488281</ele>
        <time>2020-02-08T07:55:30.000Z</time>
      </trkpt>
      <trkpt lat="45.29115" lon="6.21643">
        <ele>1163</ele>
        <time>2020-02-08T07:55:32.000Z</time>
      </trkpt>
      <trkpt lat="45.29116" lon="6.2164">
        <ele>1163.4000244141</ele>
        <time>2020-02-08T07:55:34.000Z</time>
      </trkpt>
      <trkpt lat="45.29118" lon="6.21632">
        <ele>1163</ele>
        <time>2020-02-08T07:55:39.000Z</time>
      </trkpt>
      <trkpt lat="45.29121" lon="6.21625">
        <ele>1164</ele>
        <time>2020-02-08T07:55:44.000Z</time>
      </trkpt>
      <trkpt lat="45.29121" lon="6.21625">
        <ele>1164.1999511719</ele>
        <time>2020-02-08T07:55:45.000Z</time>
      </trkpt>
      <trkpt lat="45.29123" lon="6.21618">
        <ele>1164.8000488281</ele>
        <time>2020-02-08T07:55:49.000Z</time>
      </trkpt>
      <trkpt lat="45.29125" lon="6.21613">
        <ele>1165.1999511719</ele>
        <time>2020-02-08T07:55:52.000Z</time>
      </trkpt>
      <trkpt lat="45.29127" lon="6.21608">
        <ele>1166.1999511719</ele>
        <time>2020-02-08T07:55:55.000Z</time>
      </trkpt>
      <trkpt lat="45.29127" lon="6.21607">
        <ele>1166.4000244141</ele>
        <time>2020-02-08T07:55:56.000Z</time>
      </trkpt>
      <trkpt lat="45.29128" lon="6.216">
        <ele>1167.5999755859</ele>
        <time>2020-02-08T07:56:01.000Z</time>
      </trkpt>
      <trkpt lat="45.2913" lon="6.21592">
        <ele>1168.5999755859</ele>
        <time>2020-02-08T07:56:07.000Z</time>
      </trkpt>
      <trkpt lat="45.29131" lon="6.21588">
        <ele>1169.5999755859</ele>
        <time>2020-02-08T07:56:11.000Z</time>
      </trkpt>
      <trkpt lat="45.29131" lon="6.21588">
        <ele>1169.8000488281</ele>
        <time>2020-02-08T07:56:12.000Z</time>
      </trkpt>
      <trkpt lat="45.29132" lon="6.21584">
        <ele>1170.8000488281</ele>
        <time>2020-02-08T07:56:16.000Z</time>
      </trkpt>
      <trkpt lat="45.29132" lon="6.21582">
        <ele>1171.1999511719</ele>
        <time>2020-02-08T07:56:18.000Z</time>
      </trkpt>
      <trkpt lat="45.29133" lon="6.21579">
        <ele>1172</ele>
        <time>2020-02-08T07:56:21.000Z</time>
      </trkpt>
      <trkpt lat="45.29136" lon="6.21575">
        <ele>1172.5999755859</ele>
        <time>2020-02-08T07:56:24.000Z</time>
      </trkpt>
      <trkpt lat="45.29137" lon="6.21573">
        <ele>1173</ele>
        <time>2020-02-08T07:56:26.000Z</time>
      </trkpt>
      <trkpt lat="45.29137" lon="6.21572">
        <ele>1174</ele>
        <time>2020-02-08T07:56:30.000Z</time>
      </trkpt>
      <trkpt lat="45.29139" lon="6.21568">
        <ele>1175.1999511719</ele>
        <time>2020-02-08T07:56:36.000Z</time>
      </trkpt>
      <trkpt lat="45.29141" lon="6.21563">
        <ele>1176.4000244141</ele>
        <time>2020-02-08T07:56:41.000Z</time>
      </trkpt>
      <trkpt lat="45.29142" lon="6.21561">
        <ele>1176.5999755859</ele>
        <time>2020-02-08T07:56:42.000Z</time>
      </trkpt>
      <trkpt lat="45.29143" lon="6.21558">
        <ele>1177.4000244141</ele>
        <time>2020-02-08T07:56:46.000Z</time>
      </trkpt>
      <trkpt lat="45.29143" lon="6.21557">
        <ele>1177.5999755859</ele>
        <time>2020-02-08T07:56:47.000Z</time>
      </trkpt>
      <trkpt lat="45.29145" lon="6.21555">
        <ele>1178.4000244141</ele>
        <time>2020-02-08T07:56:51.000Z</time>
      </trkpt>
      <trkpt lat="45.29146" lon="6.21553">
        <ele>1178.5999755859</ele>
        <time>2020-02-08T07:56:52.000Z</time>
      </trkpt>
      <trkpt lat="45.29149" lon="6.21548">
        <ele>1179.1999511719</ele>
        <time>2020-02-08T07:56:56.000Z</time>
      </trkpt>
      <trkpt lat="45.29149" lon="6.21548">
        <ele>1179.4000244141</ele>
        <time>2020-02-08T07:56:57.000Z</time>
      </trkpt>
      <trkpt lat="45.29151" lon="6.21545">
        <ele>1180.4000244141</ele>
        <time>2020-02-08T07:57:01.000Z</time>
      </trkpt>
      <trkpt lat="45.29151" lon="6.21544">
        <ele>1180.5999755859</ele>
        <time>2020-02-08T07:57:02.000Z</time>
      </trkpt>
      <trkpt lat="45.29152" lon="6.21543">
        <ele>1181</ele>
        <time>2020-02-08T07:57:05.000Z</time>
      </trkpt>
      <trkpt lat="45.29154" lon="6.21541">
        <ele>1181.5999755859</ele>
        <time>2020-02-08T07:57:08.000Z</time>
      </trkpt>
      <trkpt lat="45.29155" lon="6.2154">
        <ele>1182</ele>
        <time>2020-02-08T07:57:11.000Z</time>
      </trkpt>
      <trkpt lat="45.29157" lon="6.21537">
        <ele>1182.8000488281</ele>
        <time>2020-02-08T07:57:16.000Z</time>
      </trkpt>
      <trkpt lat="45.29157" lon="6.21536">
        <ele>1183</ele>
        <time>2020-02-08T07:57:17.000Z</time>
      </trkpt>
      <trkpt lat="45.29158" lon="6.21532">
        <ele>1183.8000488281</ele>
        <time>2020-02-08T07:57:23.000Z</time>
      </trkpt>
      <trkpt lat="45.29159" lon="6.21531">
        <ele>1184</ele>
        <time>2020-02-08T07:57:24.000Z</time>
      </trkpt>
      <trkpt lat="45.29159" lon="6.2153">
        <ele>1184.8000488281</ele>
        <time>2020-02-08T07:57:28.000Z</time>
      </trkpt>
      <trkpt lat="45.29159" lon="6.2153">
        <ele>1185</ele>
        <time>2020-02-08T07:57:29.000Z</time>
      </trkpt>
      <trkpt lat="45.2916" lon="6.21529">
        <ele>1185.5999755859</ele>
        <time>2020-02-08T07:57:33.000Z</time>
      </trkpt>
      <trkpt lat="45.29161" lon="6.21526">
        <ele>1186.1999511719</ele>
        <time>2020-02-08T07:57:37.000Z</time>
      </trkpt>
      <trkpt lat="45.29162" lon="6.21525">
        <ele>1186.8000488281</ele>
        <time>2020-02-08T07:57:39.000Z</time>
      </trkpt>
      <trkpt lat="45.29162" lon="6.21525">
        <ele>1187.1999511719</ele>
        <time>2020-02-08T07:57:42.000Z</time>
      </trkpt>
      <trkpt lat="45.29162" lon="6.21525">
        <ele>1188.4000244141</ele>
        <time>2020-02-08T07:57:47.000Z</time>
      </trkpt>
      <trkpt lat="45.29162" lon="6.21525">
        <ele>1189.4000244141</ele>
        <time>2020-02-08T07:57:53.000Z</time>
      </trkpt>
      <trkpt lat="45.29162" lon="6.21525">
        <ele>1189.5999755859</ele>
        <time>2020-02-08T07:57:54.000Z</time>
      </trkpt>
      <trkpt lat="45.29162" lon="6.21524">
        <ele>1190.8000488281</ele>
        <time>2020-02-08T07:58:00.000Z</time>
      </trkpt>
      <trkpt lat="45.29162" lon="6.21524">
        <ele>1191</ele>
        <time>2020-02-08T07:58:01.000Z</time>
      </trkpt>
      <trkpt lat="45.29162" lon="6.21524">
        <ele>1191.1999511719</ele>
        <time>2020-02-08T07:58:13.000Z</time>
      </trkpt>
      <trkpt lat="45.29162" lon="6.21524">
        <ele>1191.8000488281</ele>
        <time>2020-02-08T07:58:23.000Z</time>
      </trkpt>
      <trkpt lat="45.29162" lon="6.21524">
        <ele>1192</ele>
        <time>2020-02-08T07:58:24.000Z</time>
      </trkpt>
      <trkpt lat="45.29162" lon="6.21524">
        <ele>1191.1999511719</ele>
        <time>2020-02-08T07:58:36.000Z</time>
      </trkpt>
      <trkpt lat="45.29162" lon="6.21523">
        <ele>1191.5999755859</ele>
        <time>2020-02-08T07:58:43.000Z</time>
      </trkpt>
      <trkpt lat="45.29162" lon="6.21523">
        <ele>1192.8000488281</ele>
        <time>2020-02-08T07:58:48.000Z</time>
      </trkpt>
      <trkpt lat="45.29162" lon="6.21523">
        <ele>1193.1999511719</ele>
        <time>2020-02-08T07:58:49.000Z</time>
      </trkpt>
      <trkpt lat="45.29162" lon="6.21523">
        <ele>1194</ele>
        <time>2020-02-08T07:58:53.000Z</time>
      </trkpt>
      <trkpt lat="45.29162" lon="6.21523">
        <ele>1194.4000244141</ele>
        <time>2020-02-08T07:58:56.000Z</time>
      </trkpt>
      <trkpt lat="45.29162" lon="6.21523">
        <ele>1195</ele>
        <time>2020-02-08T07:58:58.000Z</time>
      </trkpt>
      <trkpt lat="45.29162" lon="6.21523">
        <ele>1195.8000488281</ele>
        <time>2020-02-08T07:59:02.000Z</time>
      </trkpt>
      <trkpt lat="45.29162" lon="6.21523">
        <ele>1196</ele>
        <time>2020-02-08T07:59:04.000Z</time>
      </trkpt>
      <trkpt lat="45.29164" lon="6.21516">
        <ele>1196.8000488281</ele>
        <time>2020-02-08T07:59:08.000Z</time>
      </trkpt>
      <trkpt lat="45.29164" lon="6.21513">
        <ele>1197.1999511719</ele>
        <time>2020-02-08T07:59:10.000Z</time>
      </trkpt>
      <trkpt lat="45.29164" lon="6.21509">
        <ele>1198.4000244141</ele>
        <time>2020-02-08T07:59:14.000Z</time>
      </trkpt>
      <trkpt lat="45.29168" lon="6.21502">
        <ele>1199.4000244141</ele>
        <time>2020-02-08T07:59:20.000Z</time>
      </trkpt>
      <trkpt lat="45.2917" lon="6.215">
        <ele>1199.5999755859</ele>
        <time>2020-02-08T07:59:21.000Z</time>
      </trkpt>
      <trkpt lat="45.29171" lon="6.21498">
        <ele>1200.1999511719</ele>
        <time>2020-02-08T07:59:24.000Z</time>
      </trkpt>
      <trkpt lat="45.29172" lon="6.21497">
        <ele>1200.4000244141</ele>
        <time>2020-02-08T07:59:25.000Z</time>
      </trkpt>
      <trkpt lat="45.29173" lon="6.21496">
        <ele>1200.5999755859</ele>
        <time>2020-02-08T07:59:26.000Z</time>
      </trkpt>
      <trkpt lat="45.29178" lon="6.21491">
        <ele>1201.5999755859</ele>
        <time>2020-02-08T07:59:32.000Z</time>
      </trkpt>
      <trkpt lat="45.29179" lon="6.21491">
        <ele>1201.8000488281</ele>
        <time>2020-02-08T07:59:33.000Z</time>
      </trkpt>
      <trkpt lat="45.29183" lon="6.21487">
        <ele>1202.5999755859</ele>
        <time>2020-02-08T07:59:37.000Z</time>
      </trkpt>
      <trkpt lat="45.29186" lon="6.21485">
        <ele>1203.5999755859</ele>
        <time>2020-02-08T07:59:42.000Z</time>
      </trkpt>
      <trkpt lat="45.29186" lon="6.21485">
        <ele>1203.8000488281</ele>
        <time>2020-02-08T07:59:43.000Z</time>
      </trkpt>
      <trkpt lat="45.29188" lon="6.21481">
        <ele>1204.5999755859</ele>
        <time>2020-02-08T07:59:50.000Z</time>
      </trkpt>
      <trkpt lat="45.29191" lon="6.21474">
        <ele>1205</ele>
        <time>2020-02-08T07:59:54.000Z</time>
      </trkpt>
      <trkpt lat="45.29191" lon="6.21474">
        <ele>1205.4000244141</ele>
        <time>2020-02-08T07:59:55.000Z</time>
      </trkpt>
      <trkpt lat="45.29191" lon="6.21474">
        <ele>1206</ele>
        <time>2020-02-08T07:59:58.000Z</time>
      </trkpt>
      <trkpt lat="45.29196" lon="6.21468">
        <ele>1206.8000488281</ele>
        <time>2020-02-08T08:00:02.000Z</time>
      </trkpt>
      <trkpt lat="45.29199" lon="6.21465">
        <ele>1207.1999511719</ele>
        <time>2020-02-08T08:00:03.000Z</time>
      </trkpt>
      <trkpt lat="45.29201" lon="6.21459">
        <ele>1208.1999511719</ele>
        <time>2020-02-08T08:00:08.000Z</time>
      </trkpt>
      <trkpt lat="45.29201" lon="6.21459">
        <ele>1208.8000488281</ele>
        <time>2020-02-08T08:00:11.000Z</time>
      </trkpt>
      <trkpt lat="45.29202" lon="6.21457">
        <ele>1209.1999511719</ele>
        <time>2020-02-08T08:00:13.000Z</time>
      </trkpt>
      <trkpt lat="45.29203" lon="6.21454">
        <ele>1210.1999511719</ele>
        <time>2020-02-08T08:00:19.000Z</time>
      </trkpt>
      <trkpt lat="45.29203" lon="6.21454">
        <ele>1210.4000244141</ele>
        <time>2020-02-08T08:00:20.000Z</time>
      </trkpt>
      <trkpt lat="45.29204" lon="6.21452">
        <ele>1211.4000244141</ele>
        <time>2020-02-08T08:00:25.000Z</time>
      </trkpt>
      <trkpt lat="45.29204" lon="6.21452">
        <ele>1211.8000488281</ele>
        <time>2020-02-08T08:00:27.000Z</time>
      </trkpt>
      <trkpt lat="45.29205" lon="6.2145">
        <ele>1212.5999755859</ele>
        <time>2020-02-08T08:00:33.000Z</time>
      </trkpt>
      <trkpt lat="45.29205" lon="6.2145">
        <ele>1212.8000488281</ele>
        <time>2020-02-08T08:00:34.000Z</time>
      </trkpt>
      <trkpt lat="45.29205" lon="6.2145">
        <ele>1213.5999755859</ele>
        <time>2020-02-08T08:00:40.000Z</time>
      </trkpt>
      <trkpt lat="45.29206" lon="6.21448">
        <ele>1214</ele>
        <time>2020-02-08T08:00:42.000Z</time>
      </trkpt>
      <trkpt lat="45.29206" lon="6.21448">
        <ele>1214.8000488281</ele>
        <time>2020-02-08T08:00:45.000Z</time>
      </trkpt>
      <trkpt lat="45.29206" lon="6.21448">
        <ele>1215.4000244141</ele>
        <time>2020-02-08T08:00:49.000Z</time>
      </trkpt>
      <trkpt lat="45.29206" lon="6.21448">
        <ele>1216.1999511719</ele>
        <time>2020-02-08T08:00:53.000Z</time>
      </trkpt>
      <trkpt lat="45.29206" lon="6.21448">
        <ele>1217.1999511719</ele>
        <time>2020-02-08T08:00:56.000Z</time>
      </trkpt>
      <trkpt lat="45.29206" lon="6.21448">
        <ele>1217.4000244141</ele>
        <time>2020-02-08T08:00:59.000Z</time>
      </trkpt>
      <trkpt lat="45.29206" lon="6.21448">
        <ele>1218.1999511719</ele>
        <time>2020-02-08T08:01:05.000Z</time>
      </trkpt>
      <trkpt lat="45.29207" lon="6.21447">
        <ele>1218.4000244141</ele>
        <time>2020-02-08T08:01:06.000Z</time>
      </trkpt>
      <trkpt lat="45.29211" lon="6.21441">
        <ele>1219.4000244141</ele>
        <time>2020-02-08T08:01:10.000Z</time>
      </trkpt>
      <trkpt lat="45.29214" lon="6.21437">
        <ele>1219.8000488281</ele>
        <time>2020-02-08T08:01:12.000Z</time>
      </trkpt>
      <trkpt lat="45.29214" lon="6.21437">
        <ele>1220.4000244141</ele>
        <time>2020-02-08T08:01:15.000Z</time>
      </trkpt>
      <trkpt lat="45.29214" lon="6.21436">
        <ele>1221.1999511719</ele>
        <time>2020-02-08T08:01:20.000Z</time>
      </trkpt>
      <trkpt lat="45.29214" lon="6.21436">
        <ele>1221.5999755859</ele>
        <time>2020-02-08T08:01:22.000Z</time>
      </trkpt>
      <trkpt lat="45.29216" lon="6.21433">
        <ele>1222.5999755859</ele>
        <time>2020-02-08T08:01:27.000Z</time>
      </trkpt>
      <trkpt lat="45.29216" lon="6.21433">
        <ele>1222.8000488281</ele>
        <time>2020-02-08T08:01:29.000Z</time>
      </trkpt>
      <trkpt lat="45.29219" lon="6.2143">
        <ele>1223.8000488281</ele>
        <time>2020-02-08T08:01:33.000Z</time>
      </trkpt>
      <trkpt lat="45.2922" lon="6.21428">
        <ele>1224</ele>
        <time>2020-02-08T08:01:34.000Z</time>
      </trkpt>
      <trkpt lat="45.29223" lon="6.21422">
        <ele>1225</ele>
        <time>2020-02-08T08:01:40.000Z</time>
      </trkpt>
      <trkpt lat="45.29227" lon="6.21416">
        <ele>1226.1999511719</ele>
        <time>2020-02-08T08:01:47.000Z</time>
      </trkpt>
      <trkpt lat="45.29228" lon="6.21414">
        <ele>1226.1999511719</ele>
        <time>2020-02-08T08:01:48.000Z</time>
      </trkpt>
      <trkpt lat="45.2923" lon="6.21411">
        <ele>1227.1999511719</ele>
        <time>2020-02-08T08:01:53.000Z</time>
      </trkpt>
      <trkpt lat="45.29233" lon="6.21406">
        <ele>1228.4000244141</ele>
        <time>2020-02-08T08:01:57.000Z</time>
      </trkpt>
      <trkpt lat="45.29232" lon="6.214">
        <ele>1229.4000244141</ele>
        <time>2020-02-08T08:02:04.000Z</time>
      </trkpt>
      <trkpt lat="45.29232" lon="6.214">
        <ele>1229.4000244141</ele>
        <time>2020-02-08T08:02:05.000Z</time>
      </trkpt>
      <trkpt lat="45.29232" lon="6.21398">
        <ele>1230.4000244141</ele>
        <time>2020-02-08T08:02:10.000Z</time>
      </trkpt>
      <trkpt lat="45.29236" lon="6.21393">
        <ele>1230.8000488281</ele>
        <time>2020-02-08T08:02:11.000Z</time>
      </trkpt>
      <trkpt lat="45.29238" lon="6.2139">
        <ele>1231.1999511719</ele>
        <time>2020-02-08T08:02:18.000Z</time>
      </trkpt>
      <trkpt lat="45.29238" lon="6.2139">
        <ele>1231.8000488281</ele>
        <time>2020-02-08T08:02:22.000Z</time>
      </trkpt>
      <trkpt lat="45.2924" lon="6.21387">
        <ele>1232.1999511719</ele>
        <time>2020-02-08T08:02:25.000Z</time>
      </trkpt>
      <trkpt lat="45.29241" lon="6.21383">
        <ele>1232.8000488281</ele>
        <time>2020-02-08T08:02:31.000Z</time>
      </trkpt>
      <trkpt lat="45.29241" lon="6.21381">
        <ele>1233</ele>
        <time>2020-02-08T08:02:32.000Z</time>
      </trkpt>
      <trkpt lat="45.29244" lon="6.21376">
        <ele>1233.8000488281</ele>
        <time>2020-02-08T08:02:37.000Z</time>
      </trkpt>
      <trkpt lat="45.29244" lon="6.21376">
        <ele>1234.1999511719</ele>
        <time>2020-02-08T08:02:38.000Z</time>
      </trkpt>
      <trkpt lat="45.29244" lon="6.21376">
        <ele>1234.8000488281</ele>
        <time>2020-02-08T08:02:48.000Z</time>
      </trkpt>
      <trkpt lat="45.29244" lon="6.21376">
        <ele>1233.5999755859</ele>
        <time>2020-02-08T08:03:00.000Z</time>
      </trkpt>
      <trkpt lat="45.29244" lon="6.21376">
        <ele>1235</ele>
        <time>2020-02-08T08:03:08.000Z</time>
      </trkpt>
      <trkpt lat="45.29244" lon="6.21376">
        <ele>1234.8000488281</ele>
        <time>2020-02-08T08:03:11.000Z</time>
      </trkpt>
      <trkpt lat="45.29244" lon="6.21376">
        <ele>1235.1999511719</ele>
        <time>2020-02-08T08:03:13.000Z</time>
      </trkpt>
      <trkpt lat="45.29246" lon="6.21372">
        <ele>1235.4000244141</ele>
        <time>2020-02-08T08:03:19.000Z</time>
      </trkpt>
      <trkpt lat="45.2925" lon="6.21367">
        <ele>1235</ele>
        <time>2020-02-08T08:03:24.000Z</time>
      </trkpt>
      <trkpt lat="45.29251" lon="6.21362">
        <ele>1235.8000488281</ele>
        <time>2020-02-08T08:03:29.000Z</time>
      </trkpt>
      <trkpt lat="45.29252" lon="6.2136">
        <ele>1236.4000244141</ele>
        <time>2020-02-08T08:03:31.000Z</time>
      </trkpt>
      <trkpt lat="45.29252" lon="6.2136">
        <ele>1237.5999755859</ele>
        <time>2020-02-08T08:03:35.000Z</time>
      </trkpt>
      <trkpt lat="45.29252" lon="6.21359">
        <ele>1237.8000488281</ele>
        <time>2020-02-08T08:03:36.000Z</time>
      </trkpt>
      <trkpt lat="45.29253" lon="6.21351">
        <ele>1239</ele>
        <time>2020-02-08T08:03:41.000Z</time>
      </trkpt>
      <trkpt lat="45.29253" lon="6.21351">
        <ele>1239.1999511719</ele>
        <time>2020-02-08T08:03:42.000Z</time>
      </trkpt>
      <trkpt lat="45.29254" lon="6.21345">
        <ele>1240</ele>
        <time>2020-02-08T08:03:46.000Z</time>
      </trkpt>
      <trkpt lat="45.29255" lon="6.21344">
        <ele>1240.4000244141</ele>
        <time>2020-02-08T08:03:48.000Z</time>
      </trkpt>
      <trkpt lat="45.29255" lon="6.21344">
        <ele>1241.1999511719</ele>
        <time>2020-02-08T08:03:53.000Z</time>
      </trkpt>
      <trkpt lat="45.29255" lon="6.21342">
        <ele>1242.4000244141</ele>
        <time>2020-02-08T08:03:56.000Z</time>
      </trkpt>
      <trkpt lat="45.29257" lon="6.21336">
        <ele>1243.1999511719</ele>
        <time>2020-02-08T08:04:03.000Z</time>
      </trkpt>
      <trkpt lat="45.29257" lon="6.21336">
        <ele>1243.4000244141</ele>
        <time>2020-02-08T08:04:04.000Z</time>
      </trkpt>
      <trkpt lat="45.29256" lon="6.21333">
        <ele>1244.4000244141</ele>
        <time>2020-02-08T08:04:09.000Z</time>
      </trkpt>
      <trkpt lat="45.29258" lon="6.21328">
        <ele>1245.1999511719</ele>
        <time>2020-02-08T08:04:12.000Z</time>
      </trkpt>
      <trkpt lat="45.2926" lon="6.21326">
        <ele>1245.5999755859</ele>
        <time>2020-02-08T08:04:14.000Z</time>
      </trkpt>
      <trkpt lat="45.29261" lon="6.21323">
        <ele>1246.4000244141</ele>
        <time>2020-02-08T08:04:18.000Z</time>
      </trkpt>
      <trkpt lat="45.29261" lon="6.21322">
        <ele>1246.8000488281</ele>
        <time>2020-02-08T08:04:19.000Z</time>
      </trkpt>
      <trkpt lat="45.29264" lon="6.21319">
        <ele>1247.8000488281</ele>
        <time>2020-02-08T08:04:24.000Z</time>
      </trkpt>
      <trkpt lat="45.29265" lon="6.21318">
        <ele>1248</ele>
        <time>2020-02-08T08:04:25.000Z</time>
      </trkpt>
      <trkpt lat="45.29268" lon="6.21314">
        <ele>1248.4000244141</ele>
        <time>2020-02-08T08:04:30.000Z</time>
      </trkpt>
      <trkpt lat="45.29272" lon="6.21308">
        <ele>1249.1999511719</ele>
        <time>2020-02-08T08:04:36.000Z</time>
      </trkpt>
      <trkpt lat="45.29274" lon="6.21304">
        <ele>1250</ele>
        <time>2020-02-08T08:04:41.000Z</time>
      </trkpt>
      <trkpt lat="45.29274" lon="6.21304">
        <ele>1250.1999511719</ele>
        <time>2020-02-08T08:04:42.000Z</time>
      </trkpt>
      <trkpt lat="45.29277" lon="6.21299">
        <ele>1251.1999511719</ele>
        <time>2020-02-08T08:04:47.000Z</time>
      </trkpt>
      <trkpt lat="45.29278" lon="6.21296">
        <ele>1251.4000244141</ele>
        <time>2020-02-08T08:04:48.000Z</time>
      </trkpt>
      <trkpt lat="45.29281" lon="6.21289">
        <ele>1252.1999511719</ele>
        <time>2020-02-08T08:04:53.000Z</time>
      </trkpt>
      <trkpt lat="45.29285" lon="6.21284">
        <ele>1253.4000244141</ele>
        <time>2020-02-08T08:04:59.000Z</time>
      </trkpt>
      <trkpt lat="45.29286" lon="6.21282">
        <ele>1254.5999755859</ele>
        <time>2020-02-08T08:05:04.000Z</time>
      </trkpt>
      <trkpt lat="45.29286" lon="6.21282">
        <ele>1254.8000488281</ele>
        <time>2020-02-08T08:05:05.000Z</time>
      </trkpt>
      <trkpt lat="45.29286" lon="6.21282">
        <ele>1255.5999755859</ele>
        <time>2020-02-08T08:05:08.000Z</time>
      </trkpt>
      <trkpt lat="45.29286" lon="6.21282">
        <ele>1256.4000244141</ele>
        <time>2020-02-08T08:05:11.000Z</time>
      </trkpt>
      <trkpt lat="45.29286" lon="6.21282">
        <ele>1256.8000488281</ele>
        <time>2020-02-08T08:05:13.000Z</time>
      </trkpt>
      <trkpt lat="45.29287" lon="6.21279">
        <ele>1257.5999755859</ele>
        <time>2020-02-08T08:05:17.000Z</time>
      </trkpt>
      <trkpt lat="45.29293" lon="6.21269">
        <ele>1257.1999511719</ele>
        <time>2020-02-08T08:05:22.000Z</time>
      </trkpt>
      <trkpt lat="45.29298" lon="6.21261">
        <ele>1257.5999755859</ele>
        <time>2020-02-08T08:05:28.000Z</time>
      </trkpt>
      <trkpt lat="45.29302" lon="6.21254">
        <ele>1258</ele>
        <time>2020-02-08T08:05:33.000Z</time>
      </trkpt>
      <trkpt lat="45.29305" lon="6.21245">
        <ele>1258.8000488281</ele>
        <time>2020-02-08T08:05:39.000Z</time>
      </trkpt>
      <trkpt lat="45.29307" lon="6.21241">
        <ele>1259</ele>
        <time>2020-02-08T08:05:41.000Z</time>
      </trkpt>
      <trkpt lat="45.29309" lon="6.21238">
        <ele>1259.5999755859</ele>
        <time>2020-02-08T08:05:45.000Z</time>
      </trkpt>
      <trkpt lat="45.29312" lon="6.21233">
        <ele>1260.1999511719</ele>
        <time>2020-02-08T08:05:48.000Z</time>
      </trkpt>
      <trkpt lat="45.29312" lon="6.21231">
        <ele>1260.5999755859</ele>
        <time>2020-02-08T08:05:50.000Z</time>
      </trkpt>
      <trkpt lat="45.29313" lon="6.21226">
        <ele>1261</ele>
        <time>2020-02-08T08:05:52.000Z</time>
      </trkpt>
      <trkpt lat="45.29313" lon="6.21226">
        <ele>1261.1999511719</ele>
        <time>2020-02-08T08:05:53.000Z</time>
      </trkpt>
      <trkpt lat="45.29314" lon="6.21222">
        <ele>1262</ele>
        <time>2020-02-08T08:05:55.000Z</time>
      </trkpt>
      <trkpt lat="45.29314" lon="6.21222">
        <ele>1262.1999511719</ele>
        <time>2020-02-08T08:05:56.000Z</time>
      </trkpt>
      <trkpt lat="45.29314" lon="6.21218">
        <ele>1263</ele>
        <time>2020-02-08T08:06:00.000Z</time>
      </trkpt>
      <trkpt lat="45.29314" lon="6.21217">
        <ele>1263.4000244141</ele>
        <time>2020-02-08T08:06:01.000Z</time>
      </trkpt>
      <trkpt lat="45.29313" lon="6.2121">
        <ele>1264.4000244141</ele>
        <time>2020-02-08T08:06:07.000Z</time>
      </trkpt>
      <trkpt lat="45.29313" lon="6.2121">
        <ele>1264.5999755859</ele>
        <time>2020-02-08T08:06:08.000Z</time>
      </trkpt>
      <trkpt lat="45.29313" lon="6.21203">
        <ele>1265.5999755859</ele>
        <time>2020-02-08T08:06:13.000Z</time>
      </trkpt>
      <trkpt lat="45.29316" lon="6.21195">
        <ele>1266.8000488281</ele>
        <time>2020-02-08T08:06:18.000Z</time>
      </trkpt>
      <trkpt lat="45.29318" lon="6.21187">
        <ele>1268</ele>
        <time>2020-02-08T08:06:24.000Z</time>
      </trkpt>
      <trkpt lat="45.2932" lon="6.21181">
        <ele>1269</ele>
        <time>2020-02-08T08:06:29.000Z</time>
      </trkpt>
      <trkpt lat="45.29323" lon="6.21173">
        <ele>1269.5999755859</ele>
        <time>2020-02-08T08:06:34.000Z</time>
      </trkpt>
      <trkpt lat="45.29325" lon="6.21169">
        <ele>1270</ele>
        <time>2020-02-08T08:06:37.000Z</time>
      </trkpt>
      <trkpt lat="45.29325" lon="6.21166">
        <ele>1270.4000244141</ele>
        <time>2020-02-08T08:06:39.000Z</time>
      </trkpt>
      <trkpt lat="45.29324" lon="6.21162">
        <ele>1271.1999511719</ele>
        <time>2020-02-08T08:06:43.000Z</time>
      </trkpt>
      <trkpt lat="45.29324" lon="6.21158">
        <ele>1271.5999755859</ele>
        <time>2020-02-08T08:06:45.000Z</time>
      </trkpt>
      <trkpt lat="45.29324" lon="6.21153">
        <ele>1272.4000244141</ele>
        <time>2020-02-08T08:06:51.000Z</time>
      </trkpt>
      <trkpt lat="45.29328" lon="6.21143">
        <ele>1273.4000244141</ele>
        <time>2020-02-08T08:06:57.000Z</time>
      </trkpt>
      <trkpt lat="45.29329" lon="6.21135">
        <ele>1274.4000244141</ele>
        <time>2020-02-08T08:07:03.000Z</time>
      </trkpt>
      <trkpt lat="45.2933" lon="6.21131">
        <ele>1275.5999755859</ele>
        <time>2020-02-08T08:07:07.000Z</time>
      </trkpt>
      <trkpt lat="45.29329" lon="6.2113">
        <ele>1276</ele>
        <time>2020-02-08T08:07:09.000Z</time>
      </trkpt>
      <trkpt lat="45.2933" lon="6.21124">
        <ele>1276.5999755859</ele>
        <time>2020-02-08T08:07:13.000Z</time>
      </trkpt>
      <trkpt lat="45.2933" lon="6.21123">
        <ele>1277.1999511719</ele>
        <time>2020-02-08T08:07:15.000Z</time>
      </trkpt>
      <trkpt lat="45.29331" lon="6.21119">
        <ele>1277.8000488281</ele>
        <time>2020-02-08T08:07:18.000Z</time>
      </trkpt>
      <trkpt lat="45.2933" lon="6.21116">
        <ele>1278.4000244141</ele>
        <time>2020-02-08T08:07:22.000Z</time>
      </trkpt>
      <trkpt lat="45.29329" lon="6.21114">
        <ele>1279</ele>
        <time>2020-02-08T08:07:24.000Z</time>
      </trkpt>
      <trkpt lat="45.29329" lon="6.21109">
        <ele>1280</ele>
        <time>2020-02-08T08:07:28.000Z</time>
      </trkpt>
      <trkpt lat="45.29329" lon="6.21106">
        <ele>1280.1999511719</ele>
        <time>2020-02-08T08:07:29.000Z</time>
      </trkpt>
      <trkpt lat="45.2933" lon="6.21102">
        <ele>1281</ele>
        <time>2020-02-08T08:07:32.000Z</time>
      </trkpt>
      <trkpt lat="45.2933" lon="6.211">
        <ele>1281.4000244141</ele>
        <time>2020-02-08T08:07:34.000Z</time>
      </trkpt>
      <trkpt lat="45.2933" lon="6.21096">
        <ele>1282</ele>
        <time>2020-02-08T08:07:40.000Z</time>
      </trkpt>
      <trkpt lat="45.2933" lon="6.21094">
        <ele>1282.1999511719</ele>
        <time>2020-02-08T08:07:41.000Z</time>
      </trkpt>
      <trkpt lat="45.2933" lon="6.21088">
        <ele>1283.1999511719</ele>
        <time>2020-02-08T08:07:46.000Z</time>
      </trkpt>
      <trkpt lat="45.29331" lon="6.21085">
        <ele>1283.5999755859</ele>
        <time>2020-02-08T08:07:47.000Z</time>
      </trkpt>
      <trkpt lat="45.29332" lon="6.21081">
        <ele>1284.4000244141</ele>
        <time>2020-02-08T08:07:51.000Z</time>
      </trkpt>
      <trkpt lat="45.29332" lon="6.2108">
        <ele>1284.5999755859</ele>
        <time>2020-02-08T08:07:52.000Z</time>
      </trkpt>
      <trkpt lat="45.29333" lon="6.21074">
        <ele>1285.5999755859</ele>
        <time>2020-02-08T08:07:57.000Z</time>
      </trkpt>
      <trkpt lat="45.29333" lon="6.21066">
        <ele>1286.5999755859</ele>
        <time>2020-02-08T08:08:02.000Z</time>
      </trkpt>
      <trkpt lat="45.29332" lon="6.21066">
        <ele>1286.8000488281</ele>
        <time>2020-02-08T08:08:03.000Z</time>
      </trkpt>
      <trkpt lat="45.29332" lon="6.21063">
        <ele>1287.5999755859</ele>
        <time>2020-02-08T08:08:07.000Z</time>
      </trkpt>
      <trkpt lat="45.29331" lon="6.21062">
        <ele>1287.8000488281</ele>
        <time>2020-02-08T08:08:08.000Z</time>
      </trkpt>
      <trkpt lat="45.2933" lon="6.2106">
        <ele>1288.8000488281</ele>
        <time>2020-02-08T08:08:13.000Z</time>
      </trkpt>
      <trkpt lat="45.2933" lon="6.21059">
        <ele>1289</ele>
        <time>2020-02-08T08:08:14.000Z</time>
      </trkpt>
      <trkpt lat="45.29332" lon="6.21055">
        <ele>1289.5999755859</ele>
        <time>2020-02-08T08:08:19.000Z</time>
      </trkpt>
      <trkpt lat="45.29332" lon="6.21055">
        <ele>1290</ele>
        <time>2020-02-08T08:08:21.000Z</time>
      </trkpt>
      <trkpt lat="45.29332" lon="6.21055">
        <ele>1291</ele>
        <time>2020-02-08T08:08:25.000Z</time>
      </trkpt>
      <trkpt lat="45.29332" lon="6.21055">
        <ele>1291.4000244141</ele>
        <time>2020-02-08T08:08:29.000Z</time>
      </trkpt>
      <trkpt lat="45.29332" lon="6.21055">
        <ele>1290.8000488281</ele>
        <time>2020-02-08T08:08:45.000Z</time>
      </trkpt>
      <trkpt lat="45.29332" lon="6.21054">
        <ele>1291.4000244141</ele>
        <time>2020-02-08T08:09:01.000Z</time>
      </trkpt>
      <trkpt lat="45.29332" lon="6.21054">
        <ele>1291</ele>
        <time>2020-02-08T08:09:17.000Z</time>
      </trkpt>
      <trkpt lat="45.29332" lon="6.21054">
        <ele>1291.4000244141</ele>
        <time>2020-02-08T08:09:33.000Z</time>
      </trkpt>
      <trkpt lat="45.29332" lon="6.21054">
        <ele>1291.4000244141</ele>
        <time>2020-02-08T08:09:46.000Z</time>
      </trkpt>
      <trkpt lat="45.29332" lon="6.21054">
        <ele>1291.8000488281</ele>
        <time>2020-02-08T08:09:56.000Z</time>
      </trkpt>
      <trkpt lat="45.29332" lon="6.21054">
        <ele>1291.4000244141</ele>
        <time>2020-02-08T08:10:08.000Z</time>
      </trkpt>
      <trkpt lat="45.29332" lon="6.21054">
        <ele>1291.4000244141</ele>
        <time>2020-02-08T08:10:22.000Z</time>
      </trkpt>
      <trkpt lat="45.29332" lon="6.21053">
        <ele>1291.5999755859</ele>
        <time>2020-02-08T08:10:28.000Z</time>
      </trkpt>
      <trkpt lat="45.29333" lon="6.21048">
        <ele>1292.1999511719</ele>
        <time>2020-02-08T08:10:31.000Z</time>
      </trkpt>
      <trkpt lat="45.29334" lon="6.21045">
        <ele>1292.5999755859</ele>
        <time>2020-02-08T08:10:33.000Z</time>
      </trkpt>
      <trkpt lat="45.29333" lon="6.2104">
        <ele>1293.4000244141</ele>
        <time>2020-02-08T08:10:37.000Z</time>
      </trkpt>
      <trkpt lat="45.29334" lon="6.21037">
        <ele>1293.8000488281</ele>
        <time>2020-02-08T08:10:39.000Z</time>
      </trkpt>
      <trkpt lat="45.29334" lon="6.21033">
        <ele>1294.5999755859</ele>
        <time>2020-02-08T08:10:42.000Z</time>
      </trkpt>
      <trkpt lat="45.29334" lon="6.21032">
        <ele>1295.4000244141</ele>
        <time>2020-02-08T08:10:44.000Z</time>
      </trkpt>
      <trkpt lat="45.29334" lon="6.21028">
        <ele>1295.8000488281</ele>
        <time>2020-02-08T08:10:46.000Z</time>
      </trkpt>
      <trkpt lat="45.29336" lon="6.21022">
        <ele>1296.8000488281</ele>
        <time>2020-02-08T08:10:50.000Z</time>
      </trkpt>
      <trkpt lat="45.29336" lon="6.21022">
        <ele>1297</ele>
        <time>2020-02-08T08:10:51.000Z</time>
      </trkpt>
      <trkpt lat="45.29336" lon="6.21022">
        <ele>1297.4000244141</ele>
        <time>2020-02-08T08:11:05.000Z</time>
      </trkpt>
      <trkpt lat="45.29336" lon="6.21022">
        <ele>1297.4000244141</ele>
        <time>2020-02-08T08:11:23.000Z</time>
      </trkpt>
      <trkpt lat="45.29336" lon="6.21021">
        <ele>1297.5999755859</ele>
        <time>2020-02-08T08:11:33.000Z</time>
      </trkpt>
      <trkpt lat="45.29336" lon="6.21021">
        <ele>1297.5999755859</ele>
        <time>2020-02-08T08:11:51.000Z</time>
      </trkpt>
      <trkpt lat="45.29336" lon="6.21021">
        <ele>1297.4000244141</ele>
        <time>2020-02-08T08:12:11.000Z</time>
      </trkpt>
      <trkpt lat="45.29336" lon="6.21021">
        <ele>1297.4000244141</ele>
        <time>2020-02-08T08:12:13.000Z</time>
      </trkpt>
      <trkpt lat="45.29336" lon="6.21021">
        <ele>1297.4000244141</ele>
        <time>2020-02-08T08:12:31.000Z</time>
      </trkpt>
      <trkpt lat="45.29336" lon="6.21021">
        <ele>1297.4000244141</ele>
        <time>2020-02-08T08:12:46.000Z</time>
      </trkpt>
      <trkpt lat="45.29337" lon="6.21022">
        <ele>1297.4000244141</ele>
        <time>2020-02-08T08:13:05.000Z</time>
      </trkpt>
      <trkpt lat="45.29337" lon="6.21022">
        <ele>1297.4000244141</ele>
        <time>2020-02-08T08:13:21.000Z</time>
      </trkpt>
      <trkpt lat="45.29337" lon="6.21022">
        <ele>1297.4000244141</ele>
        <time>2020-02-08T08:13:33.000Z</time>
      </trkpt>
      <trkpt lat="45.29337" lon="6.21022">
        <ele>1297.4000244141</ele>
        <time>2020-02-08T08:13:44.000Z</time>
      </trkpt>
      <trkpt lat="45.29337" lon="6.21022">
        <ele>1297.4000244141</ele>
        <time>2020-02-08T08:13:53.000Z</time>
      </trkpt>
      <trkpt lat="45.29337" lon="6.21021">
        <ele>1297.1999511719</ele>
        <time>2020-02-08T08:14:04.000Z</time>
      </trkpt>
      <trkpt lat="45.29339" lon="6.21015">
        <ele>1297.8000488281</ele>
        <time>2020-02-08T08:14:10.000Z</time>
      </trkpt>
      <trkpt lat="45.29339" lon="6.21015">
        <ele>1298</ele>
        <time>2020-02-08T08:14:11.000Z</time>
      </trkpt>
      <trkpt lat="45.2934" lon="6.21012">
        <ele>1298.5999755859</ele>
        <time>2020-02-08T08:14:15.000Z</time>
      </trkpt>
      <trkpt lat="45.2934" lon="6.21009">
        <ele>1299.1999511719</ele>
        <time>2020-02-08T08:14:18.000Z</time>
      </trkpt>
      <trkpt lat="45.29339" lon="6.21005">
        <ele>1300</ele>
        <time>2020-02-08T08:14:21.000Z</time>
      </trkpt>
      <trkpt lat="45.29339" lon="6.21004">
        <ele>1300.4000244141</ele>
        <time>2020-02-08T08:14:22.000Z</time>
      </trkpt>
      <trkpt lat="45.29342" lon="6.20997">
        <ele>1301.1999511719</ele>
        <time>2020-02-08T08:14:26.000Z</time>
      </trkpt>
      <trkpt lat="45.29343" lon="6.20997">
        <ele>1301.4000244141</ele>
        <time>2020-02-08T08:14:27.000Z</time>
      </trkpt>
      <trkpt lat="45.29343" lon="6.20991">
        <ele>1302.1999511719</ele>
        <time>2020-02-08T08:14:33.000Z</time>
      </trkpt>
      <trkpt lat="45.29343" lon="6.20989">
        <ele>1302.4000244141</ele>
        <time>2020-02-08T08:14:34.000Z</time>
      </trkpt>
      <trkpt lat="45.29343" lon="6.20987">
        <ele>1303.5999755859</ele>
        <time>2020-02-08T08:14:38.000Z</time>
      </trkpt>
      <trkpt lat="45.29344" lon="6.20985">
        <ele>1304</ele>
        <time>2020-02-08T08:14:40.000Z</time>
      </trkpt>
      <trkpt lat="45.29345" lon="6.20984">
        <ele>1304.5999755859</ele>
        <time>2020-02-08T08:14:42.000Z</time>
      </trkpt>
      <trkpt lat="45.29347" lon="6.20979">
        <ele>1305.5999755859</ele>
        <time>2020-02-08T08:14:45.000Z</time>
      </trkpt>
      <trkpt lat="45.29347" lon="6.2098">
        <ele>1305.8000488281</ele>
        <time>2020-02-08T08:14:46.000Z</time>
      </trkpt>
      <trkpt lat="45.29348" lon="6.20979">
        <ele>1306.4000244141</ele>
        <time>2020-02-08T08:14:51.000Z</time>
      </trkpt>
      <trkpt lat="45.29349" lon="6.20977">
        <ele>1306.8000488281</ele>
        <time>2020-02-08T08:14:55.000Z</time>
      </trkpt>
      <trkpt lat="45.29349" lon="6.20975">
        <ele>1307</ele>
        <time>2020-02-08T08:14:59.000Z</time>
      </trkpt>
      <trkpt lat="45.2935" lon="6.20973">
        <ele>1307.8000488281</ele>
        <time>2020-02-08T08:15:03.000Z</time>
      </trkpt>
      <trkpt lat="45.2935" lon="6.20973">
        <ele>1308</ele>
        <time>2020-02-08T08:15:04.000Z</time>
      </trkpt>
      <trkpt lat="45.29351" lon="6.2097">
        <ele>1309</ele>
        <time>2020-02-08T08:15:08.000Z</time>
      </trkpt>
      <trkpt lat="45.29351" lon="6.20967">
        <ele>1309.4000244141</ele>
        <time>2020-02-08T08:15:10.000Z</time>
      </trkpt>
      <trkpt lat="45.29351" lon="6.20965">
        <ele>1310.4000244141</ele>
        <time>2020-02-08T08:15:15.000Z</time>
      </trkpt>
      <trkpt lat="45.29349" lon="6.20964">
        <ele>1310.8000488281</ele>
        <time>2020-02-08T08:15:17.000Z</time>
      </trkpt>
      <trkpt lat="45.29347" lon="6.20963">
        <ele>1311.4000244141</ele>
        <time>2020-02-08T08:15:21.000Z</time>
      </trkpt>
      <trkpt lat="45.29347" lon="6.20961">
        <ele>1311.8000488281</ele>
        <time>2020-02-08T08:15:24.000Z</time>
      </trkpt>
      <trkpt lat="45.29347" lon="6.20955">
        <ele>1312.4000244141</ele>
        <time>2020-02-08T08:15:29.000Z</time>
      </trkpt>
      <trkpt lat="45.29347" lon="6.20955">
        <ele>1312.8000488281</ele>
        <time>2020-02-08T08:15:30.000Z</time>
      </trkpt>
      <trkpt lat="45.29347" lon="6.20955">
        <ele>1313.8000488281</ele>
        <time>2020-02-08T08:15:33.000Z</time>
      </trkpt>
      <trkpt lat="45.29348" lon="6.20951">
        <ele>1314.5999755859</ele>
        <time>2020-02-08T08:15:38.000Z</time>
      </trkpt>
      <trkpt lat="45.29349" lon="6.20948">
        <ele>1314.8000488281</ele>
        <time>2020-02-08T08:15:41.000Z</time>
      </trkpt>
      <trkpt lat="45.29349" lon="6.20943">
        <ele>1315.8000488281</ele>
        <time>2020-02-08T08:15:44.000Z</time>
      </trkpt>
      <trkpt lat="45.29349" lon="6.20943">
        <ele>1316</ele>
        <time>2020-02-08T08:15:45.000Z</time>
      </trkpt>
      <trkpt lat="45.29348" lon="6.20937">
        <ele>1317</ele>
        <time>2020-02-08T08:15:49.000Z</time>
      </trkpt>
      <trkpt lat="45.29348" lon="6.20937">
        <ele>1317.1999511719</ele>
        <time>2020-02-08T08:15:50.000Z</time>
      </trkpt>
      <trkpt lat="45.2935" lon="6.20931">
        <ele>1318.1999511719</ele>
        <time>2020-02-08T08:15:56.000Z</time>
      </trkpt>
      <trkpt lat="45.29351" lon="6.20925">
        <ele>1319.4000244141</ele>
        <time>2020-02-08T08:16:01.000Z</time>
      </trkpt>
      <trkpt lat="45.29351" lon="6.20922">
        <ele>1319.5999755859</ele>
        <time>2020-02-08T08:16:03.000Z</time>
      </trkpt>
      <trkpt lat="45.29349" lon="6.20918">
        <ele>1320.4000244141</ele>
        <time>2020-02-08T08:16:08.000Z</time>
      </trkpt>
      <trkpt lat="45.29349" lon="6.20917">
        <ele>1320.8000488281</ele>
        <time>2020-02-08T08:16:09.000Z</time>
      </trkpt>
      <trkpt lat="45.29349" lon="6.20906">
        <ele>1321.1999511719</ele>
        <time>2020-02-08T08:16:16.000Z</time>
      </trkpt>
      <trkpt lat="45.29349" lon="6.20905">
        <ele>1321.5999755859</ele>
        <time>2020-02-08T08:16:18.000Z</time>
      </trkpt>
      <trkpt lat="45.29351" lon="6.20901">
        <ele>1322.8000488281</ele>
        <time>2020-02-08T08:16:21.000Z</time>
      </trkpt>
      <trkpt lat="45.29352" lon="6.20901">
        <ele>1323.1999511719</ele>
        <time>2020-02-08T08:16:23.000Z</time>
      </trkpt>
      <trkpt lat="45.29356" lon="6.20897">
        <ele>1323.8000488281</ele>
        <time>2020-02-08T08:16:26.000Z</time>
      </trkpt>
      <trkpt lat="45.29357" lon="6.20895">
        <ele>1324</ele>
        <time>2020-02-08T08:16:28.000Z</time>
      </trkpt>
      <trkpt lat="45.29355" lon="6.2089">
        <ele>1324.8000488281</ele>
        <time>2020-02-08T08:16:34.000Z</time>
      </trkpt>
      <trkpt lat="45.29355" lon="6.2089">
        <ele>1325</ele>
        <time>2020-02-08T08:16:35.000Z</time>
      </trkpt>
      <trkpt lat="45.29356" lon="6.20884">
        <ele>1326</ele>
        <time>2020-02-08T08:16:39.000Z</time>
      </trkpt>
      <trkpt lat="45.29356" lon="6.20883">
        <ele>1326.1999511719</ele>
        <time>2020-02-08T08:16:40.000Z</time>
      </trkpt>
      <trkpt lat="45.2936" lon="6.20879">
        <ele>1327.1999511719</ele>
        <time>2020-02-08T08:16:45.000Z</time>
      </trkpt>
      <trkpt lat="45.29361" lon="6.20872">
        <ele>1328.1999511719</ele>
        <time>2020-02-08T08:16:51.000Z</time>
      </trkpt>
      <trkpt lat="45.2936" lon="6.20867">
        <ele>1329.4000244141</ele>
        <time>2020-02-08T08:16:56.000Z</time>
      </trkpt>
      <trkpt lat="45.2936" lon="6.20866">
        <ele>1329.8000488281</ele>
        <time>2020-02-08T08:16:58.000Z</time>
      </trkpt>
      <trkpt lat="45.29359" lon="6.2086">
        <ele>1330.4000244141</ele>
        <time>2020-02-08T08:17:00.000Z</time>
      </trkpt>
      <trkpt lat="45.29358" lon="6.20855">
        <ele>1331</ele>
        <time>2020-02-08T08:17:05.000Z</time>
      </trkpt>
      <trkpt lat="45.29359" lon="6.20854">
        <ele>1331.5999755859</ele>
        <time>2020-02-08T08:17:07.000Z</time>
      </trkpt>
      <trkpt lat="45.29361" lon="6.20851">
        <ele>1332.5999755859</ele>
        <time>2020-02-08T08:17:11.000Z</time>
      </trkpt>
      <trkpt lat="45.29362" lon="6.20847">
        <ele>1333.5999755859</ele>
        <time>2020-02-08T08:17:18.000Z</time>
      </trkpt>
      <trkpt lat="45.29363" lon="6.20842">
        <ele>1334.8000488281</ele>
        <time>2020-02-08T08:17:24.000Z</time>
      </trkpt>
      <trkpt lat="45.29364" lon="6.20839">
        <ele>1335.5999755859</ele>
        <time>2020-02-08T08:17:29.000Z</time>
      </trkpt>
      <trkpt lat="45.29365" lon="6.20836">
        <ele>1335.8000488281</ele>
        <time>2020-02-08T08:17:30.000Z</time>
      </trkpt>
      <trkpt lat="45.29366" lon="6.20831">
        <ele>1337</ele>
        <time>2020-02-08T08:17:34.000Z</time>
      </trkpt>
      <trkpt lat="45.29367" lon="6.20829">
        <ele>1337</ele>
        <time>2020-02-08T08:17:35.000Z</time>
      </trkpt>
      <trkpt lat="45.29371" lon="6.20825">
        <ele>1337.8000488281</ele>
        <time>2020-02-08T08:17:40.000Z</time>
      </trkpt>
      <trkpt lat="45.29372" lon="6.20822">
        <ele>1338</ele>
        <time>2020-02-08T08:17:42.000Z</time>
      </trkpt>
      <trkpt lat="45.29373" lon="6.20815">
        <ele>1338.4000244141</ele>
        <time>2020-02-08T08:17:47.000Z</time>
      </trkpt>
      <trkpt lat="45.29373" lon="6.20814">
        <ele>1339</ele>
        <time>2020-02-08T08:17:49.000Z</time>
      </trkpt>
      <trkpt lat="45.29372" lon="6.20809">
        <ele>1339.4000244141</ele>
        <time>2020-02-08T08:17:52.000Z</time>
      </trkpt>
      <trkpt lat="45.29371" lon="6.20806">
        <ele>1340</ele>
        <time>2020-02-08T08:17:54.000Z</time>
      </trkpt>
      <trkpt lat="45.29369" lon="6.20802">
        <ele>1340.8000488281</ele>
        <time>2020-02-08T08:17:58.000Z</time>
      </trkpt>
      <trkpt lat="45.29368" lon="6.20801">
        <ele>1341</ele>
        <time>2020-02-08T08:17:59.000Z</time>
      </trkpt>
      <trkpt lat="45.29364" lon="6.20794">
        <ele>1342</ele>
        <time>2020-02-08T08:18:05.000Z</time>
      </trkpt>
      <trkpt lat="45.29363" lon="6.20787">
        <ele>1343.1999511719</ele>
        <time>2020-02-08T08:18:11.000Z</time>
      </trkpt>
      <trkpt lat="45.29363" lon="6.20786">
        <ele>1343.5999755859</ele>
        <time>2020-02-08T08:18:12.000Z</time>
      </trkpt>
      <trkpt lat="45.29365" lon="6.2078">
        <ele>1344.4000244141</ele>
        <time>2020-02-08T08:18:17.000Z</time>
      </trkpt>
      <trkpt lat="45.29364" lon="6.20777">
        <ele>1345</ele>
        <time>2020-02-08T08:18:20.000Z</time>
      </trkpt>
      <trkpt lat="45.29363" lon="6.20774">
        <ele>1345.5999755859</ele>
        <time>2020-02-08T08:18:23.000Z</time>
      </trkpt>
      <trkpt lat="45.29364" lon="6.20771">
        <ele>1346</ele>
        <time>2020-02-08T08:18:25.000Z</time>
      </trkpt>
      <trkpt lat="45.29366" lon="6.20766">
        <ele>1346.5999755859</ele>
        <time>2020-02-08T08:18:29.000Z</time>
      </trkpt>
      <trkpt lat="45.29367" lon="6.20764">
        <ele>1347</ele>
        <time>2020-02-08T08:18:31.000Z</time>
      </trkpt>
      <trkpt lat="45.29363" lon="6.20758">
        <ele>1347.5999755859</ele>
        <time>2020-02-08T08:18:36.000Z</time>
      </trkpt>
      <trkpt lat="45.29363" lon="6.20757">
        <ele>1347.8000488281</ele>
        <time>2020-02-08T08:18:37.000Z</time>
      </trkpt>
      <trkpt lat="45.2936" lon="6.20751">
        <ele>1348.8000488281</ele>
        <time>2020-02-08T08:18:42.000Z</time>
      </trkpt>
      <trkpt lat="45.2936" lon="6.20745">
        <ele>1349.5999755859</ele>
        <time>2020-02-08T08:18:47.000Z</time>
      </trkpt>
      <trkpt lat="45.29359" lon="6.20743">
        <ele>1350</ele>
        <time>2020-02-08T08:18:49.000Z</time>
      </trkpt>
      <trkpt lat="45.29359" lon="6.20739">
        <ele>1350.4000244141</ele>
        <time>2020-02-08T08:18:52.000Z</time>
      </trkpt>
      <trkpt lat="45.29357" lon="6.20737">
        <ele>1351</ele>
        <time>2020-02-08T08:18:55.000Z</time>
      </trkpt>
      <trkpt lat="45.29356" lon="6.20734">
        <ele>1351.5999755859</ele>
        <time>2020-02-08T08:18:58.000Z</time>
      </trkpt>
      <trkpt lat="45.29355" lon="6.20731">
        <ele>1352.1999511719</ele>
        <time>2020-02-08T08:19:00.000Z</time>
      </trkpt>
      <trkpt lat="45.29353" lon="6.20726">
        <ele>1352.4000244141</ele>
        <time>2020-02-08T08:19:04.000Z</time>
      </trkpt>
      <trkpt lat="45.29353" lon="6.20719">
        <ele>1353.4000244141</ele>
        <time>2020-02-08T08:19:09.000Z</time>
      </trkpt>
      <trkpt lat="45.29353" lon="6.20717">
        <ele>1353.5999755859</ele>
        <time>2020-02-08T08:19:10.000Z</time>
      </trkpt>
      <trkpt lat="45.29354" lon="6.20712">
        <ele>1354</ele>
        <time>2020-02-08T08:19:13.000Z</time>
      </trkpt>
      <trkpt lat="45.29355" lon="6.20708">
        <ele>1354.1999511719</ele>
        <time>2020-02-08T08:19:15.000Z</time>
      </trkpt>
      <trkpt lat="45.29355" lon="6.20707">
        <ele>1354.4000244141</ele>
        <time>2020-02-08T08:19:16.000Z</time>
      </trkpt>
      <trkpt lat="45.29354" lon="6.20698">
        <ele>1354.4000244141</ele>
        <time>2020-02-08T08:19:22.000Z</time>
      </trkpt>
      <trkpt lat="45.29357" lon="6.20689">
        <ele>1354.4000244141</ele>
        <time>2020-02-08T08:19:28.000Z</time>
      </trkpt>
      <trkpt lat="45.29358" lon="6.20685">
        <ele>1355.1999511719</ele>
        <time>2020-02-08T08:19:33.000Z</time>
      </trkpt>
      <trkpt lat="45.29358" lon="6.20685">
        <ele>1355.1999511719</ele>
        <time>2020-02-08T08:19:41.000Z</time>
      </trkpt>
      <trkpt lat="45.29358" lon="6.20685">
        <ele>1355.1999511719</ele>
        <time>2020-02-08T08:19:53.000Z</time>
      </trkpt>
      <trkpt lat="45.29358" lon="6.20685">
        <ele>1355</ele>
        <time>2020-02-08T08:20:04.000Z</time>
      </trkpt>
      <trkpt lat="45.29358" lon="6.20684">
        <ele>1355.5999755859</ele>
        <time>2020-02-08T08:20:13.000Z</time>
      </trkpt>
      <trkpt lat="45.29358" lon="6.20683">
        <ele>1355.4000244141</ele>
        <time>2020-02-08T08:20:17.000Z</time>
      </trkpt>
      <trkpt lat="45.29361" lon="6.20675">
        <ele>1355.1999511719</ele>
        <time>2020-02-08T08:20:22.000Z</time>
      </trkpt>
      <trkpt lat="45.29362" lon="6.20668">
        <ele>1355.5999755859</ele>
        <time>2020-02-08T08:20:27.000Z</time>
      </trkpt>
      <trkpt lat="45.29364" lon="6.20664">
        <ele>1356</ele>
        <time>2020-02-08T08:20:31.000Z</time>
      </trkpt>
      <trkpt lat="45.29367" lon="6.20658">
        <ele>1355.8000488281</ele>
        <time>2020-02-08T08:20:37.000Z</time>
      </trkpt>
      <trkpt lat="45.29369" lon="6.20653">
        <ele>1355.8000488281</ele>
        <time>2020-02-08T08:20:44.000Z</time>
      </trkpt>
      <trkpt lat="45.29369" lon="6.20653">
        <ele>1355.5999755859</ele>
        <time>2020-02-08T08:20:57.000Z</time>
      </trkpt>
      <trkpt lat="45.29371" lon="6.20647">
        <ele>1355.8000488281</ele>
        <time>2020-02-08T08:21:08.000Z</time>
      </trkpt>
      <trkpt lat="45.29373" lon="6.20639">
        <ele>1356.1999511719</ele>
        <time>2020-02-08T08:21:13.000Z</time>
      </trkpt>
      <trkpt lat="45.29373" lon="6.20637">
        <ele>1356.4000244141</ele>
        <time>2020-02-08T08:21:14.000Z</time>
      </trkpt>
      <trkpt lat="45.29373" lon="6.20635">
        <ele>1356.5999755859</ele>
        <time>2020-02-08T08:21:15.000Z</time>
      </trkpt>
      <trkpt lat="45.29374" lon="6.20632">
        <ele>1356.8000488281</ele>
        <time>2020-02-08T08:21:17.000Z</time>
      </trkpt>
      <trkpt lat="45.29377" lon="6.20625">
        <ele>1357.5999755859</ele>
        <time>2020-02-08T08:21:22.000Z</time>
      </trkpt>
      <trkpt lat="45.29377" lon="6.20623">
        <ele>1357.8000488281</ele>
        <time>2020-02-08T08:21:23.000Z</time>
      </trkpt>
      <trkpt lat="45.29376" lon="6.20617">
        <ele>1358.5999755859</ele>
        <time>2020-02-08T08:21:27.000Z</time>
      </trkpt>
      <trkpt lat="45.29378" lon="6.2061">
        <ele>1359.8000488281</ele>
        <time>2020-02-08T08:21:32.000Z</time>
      </trkpt>
      <trkpt lat="45.29379" lon="6.20608">
        <ele>1360</ele>
        <time>2020-02-08T08:21:33.000Z</time>
      </trkpt>
      <trkpt lat="45.29385" lon="6.20601">
        <ele>1360.8000488281</ele>
        <time>2020-02-08T08:21:38.000Z</time>
      </trkpt>
      <trkpt lat="45.29386" lon="6.206">
        <ele>1360.8000488281</ele>
        <time>2020-02-08T08:21:39.000Z</time>
      </trkpt>
      <trkpt lat="45.29389" lon="6.20597">
        <ele>1361.1999511719</ele>
        <time>2020-02-08T08:21:41.000Z</time>
      </trkpt>
      <trkpt lat="45.2939" lon="6.20592">
        <ele>1361.5999755859</ele>
        <time>2020-02-08T08:21:44.000Z</time>
      </trkpt>
      <trkpt lat="45.29391" lon="6.20587">
        <ele>1361.8000488281</ele>
        <time>2020-02-08T08:21:47.000Z</time>
      </trkpt>
      <trkpt lat="45.29391" lon="6.20583">
        <ele>1362</ele>
        <time>2020-02-08T08:21:49.000Z</time>
      </trkpt>
      <trkpt lat="45.29391" lon="6.20575">
        <ele>1362.8000488281</ele>
        <time>2020-02-08T08:21:54.000Z</time>
      </trkpt>
      <trkpt lat="45.29391" lon="6.20573">
        <ele>1362.8000488281</ele>
        <time>2020-02-08T08:21:55.000Z</time>
      </trkpt>
      <trkpt lat="45.29391" lon="6.20567">
        <ele>1363.4000244141</ele>
        <time>2020-02-08T08:21:58.000Z</time>
      </trkpt>
      <trkpt lat="45.29392" lon="6.20561">
        <ele>1363.8000488281</ele>
        <time>2020-02-08T08:22:02.000Z</time>
      </trkpt>
      <trkpt lat="45.29392" lon="6.2056">
        <ele>1364</ele>
        <time>2020-02-08T08:22:03.000Z</time>
      </trkpt>
      <trkpt lat="45.29394" lon="6.20553">
        <ele>1364.5999755859</ele>
        <time>2020-02-08T08:22:08.000Z</time>
      </trkpt>
      <trkpt lat="45.29395" lon="6.2055">
        <ele>1365</ele>
        <time>2020-02-08T08:22:10.000Z</time>
      </trkpt>
      <trkpt lat="45.29397" lon="6.20545">
        <ele>1365.5999755859</ele>
        <time>2020-02-08T08:22:14.000Z</time>
      </trkpt>
      <trkpt lat="45.29401" lon="6.20541">
        <ele>1366.1999511719</ele>
        <time>2020-02-08T08:22:19.000Z</time>
      </trkpt>
      <trkpt lat="45.29403" lon="6.2054">
        <ele>1366.4000244141</ele>
        <time>2020-02-08T08:22:20.000Z</time>
      </trkpt>
      <trkpt lat="45.29406" lon="6.20539">
        <ele>1366.5999755859</ele>
        <time>2020-02-08T08:22:25.000Z</time>
      </trkpt>
      <trkpt lat="45.29411" lon="6.20539">
        <ele>1367.1999511719</ele>
        <time>2020-02-08T08:22:30.000Z</time>
      </trkpt>
      <trkpt lat="45.29414" lon="6.20542">
        <ele>1367.5999755859</ele>
        <time>2020-02-08T08:22:36.000Z</time>
      </trkpt>
      <trkpt lat="45.29416" lon="6.20544">
        <ele>1368.4000244141</ele>
        <time>2020-02-08T08:22:41.000Z</time>
      </trkpt>
      <trkpt lat="45.2942" lon="6.20542">
        <ele>1369.4000244141</ele>
        <time>2020-02-08T08:22:45.000Z</time>
      </trkpt>
      <trkpt lat="45.29421" lon="6.20542">
        <ele>1369.4000244141</ele>
        <time>2020-02-08T08:22:46.000Z</time>
      </trkpt>
      <trkpt lat="45.29422" lon="6.20541">
        <ele>1369.8000488281</ele>
        <time>2020-02-08T08:22:55.000Z</time>
      </trkpt>
      <trkpt lat="45.29422" lon="6.20541">
        <ele>1369.8000488281</ele>
        <time>2020-02-08T08:23:09.000Z</time>
      </trkpt>
      <trkpt lat="45.29422" lon="6.20541">
        <ele>1369.8000488281</ele>
        <time>2020-02-08T08:23:26.000Z</time>
      </trkpt>
      <trkpt lat="45.29422" lon="6.20541">
        <ele>1369.8000488281</ele>
        <time>2020-02-08T08:23:34.000Z</time>
      </trkpt>
      <trkpt lat="45.29426" lon="6.20537">
        <ele>1369.8000488281</ele>
        <time>2020-02-08T08:23:40.000Z</time>
      </trkpt>
      <trkpt lat="45.29427" lon="6.20536">
        <ele>1369.8000488281</ele>
        <time>2020-02-08T08:23:41.000Z</time>
      </trkpt>
      <trkpt lat="45.29429" lon="6.20535">
        <ele>1370.4000244141</ele>
        <time>2020-02-08T08:23:44.000Z</time>
      </trkpt>
      <trkpt lat="45.29429" lon="6.20534">
        <ele>1370.4000244141</ele>
        <time>2020-02-08T08:23:45.000Z</time>
      </trkpt>
      <trkpt lat="45.29433" lon="6.2053">
        <ele>1371.1999511719</ele>
        <time>2020-02-08T08:23:49.000Z</time>
      </trkpt>
      <trkpt lat="45.29434" lon="6.20527">
        <ele>1371.5999755859</ele>
        <time>2020-02-08T08:23:52.000Z</time>
      </trkpt>
      <trkpt lat="45.29433" lon="6.20525">
        <ele>1372</ele>
        <time>2020-02-08T08:23:55.000Z</time>
      </trkpt>
      <trkpt lat="45.29431" lon="6.20521">
        <ele>1372.4000244141</ele>
        <time>2020-02-08T08:23:58.000Z</time>
      </trkpt>
      <trkpt lat="45.29432" lon="6.20516">
        <ele>1372.5999755859</ele>
        <time>2020-02-08T08:24:01.000Z</time>
      </trkpt>
      <trkpt lat="45.29436" lon="6.20508">
        <ele>1373</ele>
        <time>2020-02-08T08:24:06.000Z</time>
      </trkpt>
      <trkpt lat="45.2944" lon="6.20501">
        <ele>1373.5999755859</ele>
        <time>2020-02-08T08:24:12.000Z</time>
      </trkpt>
      <trkpt lat="45.2944" lon="6.205">
        <ele>1373.8000488281</ele>
        <time>2020-02-08T08:24:13.000Z</time>
      </trkpt>
      <trkpt lat="45.2944" lon="6.20495">
        <ele>1374.4000244141</ele>
        <time>2020-02-08T08:24:18.000Z</time>
      </trkpt>
      <trkpt lat="45.29441" lon="6.20493">
        <ele>1374.8000488281</ele>
        <time>2020-02-08T08:24:20.000Z</time>
      </trkpt>
      <trkpt lat="45.2944" lon="6.20489">
        <ele>1375</ele>
        <time>2020-02-08T08:24:24.000Z</time>
      </trkpt>
      <trkpt lat="45.2944" lon="6.20486">
        <ele>1375.4000244141</ele>
        <time>2020-02-08T08:24:27.000Z</time>
      </trkpt>
      <trkpt lat="45.2944" lon="6.20483">
        <ele>1375.5999755859</ele>
        <time>2020-02-08T08:24:29.000Z</time>
      </trkpt>
      <trkpt lat="45.29439" lon="6.20482">
        <ele>1375.8000488281</ele>
        <time>2020-02-08T08:24:31.000Z</time>
      </trkpt>
      <trkpt lat="45.2944" lon="6.20476">
        <ele>1376.4000244141</ele>
        <time>2020-02-08T08:24:35.000Z</time>
      </trkpt>
      <trkpt lat="45.29442" lon="6.20467">
        <ele>1376.8000488281</ele>
        <time>2020-02-08T08:24:41.000Z</time>
      </trkpt>
      <trkpt lat="45.29442" lon="6.20465">
        <ele>1377</ele>
        <time>2020-02-08T08:24:42.000Z</time>
      </trkpt>
      <trkpt lat="45.29441" lon="6.20458">
        <ele>1378</ele>
        <time>2020-02-08T08:24:48.000Z</time>
      </trkpt>
      <trkpt lat="45.2944" lon="6.20455">
        <ele>1378.1999511719</ele>
        <time>2020-02-08T08:24:50.000Z</time>
      </trkpt>
      <trkpt lat="45.29439" lon="6.20451">
        <ele>1378.4000244141</ele>
        <time>2020-02-08T08:24:53.000Z</time>
      </trkpt>
      <trkpt lat="45.29439" lon="6.20444">
        <ele>1379</ele>
        <time>2020-02-08T08:24:59.000Z</time>
      </trkpt>
      <trkpt lat="45.2944" lon="6.2044">
        <ele>1379.1999511719</ele>
        <time>2020-02-08T08:25:01.000Z</time>
      </trkpt>
      <trkpt lat="45.29441" lon="6.20438">
        <ele>1379.8000488281</ele>
        <time>2020-02-08T08:25:04.000Z</time>
      </trkpt>
      <trkpt lat="45.29442" lon="6.20435">
        <ele>1380</ele>
        <time>2020-02-08T08:25:08.000Z</time>
      </trkpt>
      <trkpt lat="45.29443" lon="6.20433">
        <ele>1380</ele>
        <time>2020-02-08T08:25:09.000Z</time>
      </trkpt>
      <trkpt lat="45.29446" lon="6.2043">
        <ele>1380.5999755859</ele>
        <time>2020-02-08T08:25:12.000Z</time>
      </trkpt>
      <trkpt lat="45.29446" lon="6.20426">
        <ele>1381.1999511719</ele>
        <time>2020-02-08T08:25:15.000Z</time>
      </trkpt>
      <trkpt lat="45.29447" lon="6.20423">
        <ele>1381.1999511719</ele>
        <time>2020-02-08T08:25:17.000Z</time>
      </trkpt>
      <trkpt lat="45.29447" lon="6.20418">
        <ele>1381.5999755859</ele>
        <time>2020-02-08T08:25:22.000Z</time>
      </trkpt>
      <trkpt lat="45.29447" lon="6.20413">
        <ele>1382</ele>
        <time>2020-02-08T08:25:27.000Z</time>
      </trkpt>
      <trkpt lat="45.29447" lon="6.20411">
        <ele>1382.1999511719</ele>
        <time>2020-02-08T08:25:29.000Z</time>
      </trkpt>
      <trkpt lat="45.29448" lon="6.20408">
        <ele>1382.4000244141</ele>
        <time>2020-02-08T08:25:31.000Z</time>
      </trkpt>
      <trkpt lat="45.2945" lon="6.204">
        <ele>1382.8000488281</ele>
        <time>2020-02-08T08:25:36.000Z</time>
      </trkpt>
      <trkpt lat="45.29451" lon="6.20394">
        <ele>1383</ele>
        <time>2020-02-08T08:25:41.000Z</time>
      </trkpt>
      <trkpt lat="45.29452" lon="6.20392">
        <ele>1383.1999511719</ele>
        <time>2020-02-08T08:25:42.000Z</time>
      </trkpt>
      <trkpt lat="45.29453" lon="6.20388">
        <ele>1383.8000488281</ele>
        <time>2020-02-08T08:25:46.000Z</time>
      </trkpt>
      <trkpt lat="45.29453" lon="6.20383">
        <ele>1384.4000244141</ele>
        <time>2020-02-08T08:25:49.000Z</time>
      </trkpt>
      <trkpt lat="45.29454" lon="6.20378">
        <ele>1384.5999755859</ele>
        <time>2020-02-08T08:25:52.000Z</time>
      </trkpt>
      <trkpt lat="45.29454" lon="6.20372">
        <ele>1385.4000244141</ele>
        <time>2020-02-08T08:25:57.000Z</time>
      </trkpt>
      <trkpt lat="45.29454" lon="6.20364">
        <ele>1386.1999511719</ele>
        <time>2020-02-08T08:26:03.000Z</time>
      </trkpt>
      <trkpt lat="45.29455" lon="6.2036">
        <ele>1386.4000244141</ele>
        <time>2020-02-08T08:26:06.000Z</time>
      </trkpt>
      <trkpt lat="45.29456" lon="6.20358">
        <ele>1386.5999755859</ele>
        <time>2020-02-08T08:26:08.000Z</time>
      </trkpt>
      <trkpt lat="45.29457" lon="6.20349">
        <ele>1387</ele>
        <time>2020-02-08T08:26:14.000Z</time>
      </trkpt>
      <trkpt lat="45.29458" lon="6.20344">
        <ele>1387.4000244141</ele>
        <time>2020-02-08T08:26:18.000Z</time>
      </trkpt>
      <trkpt lat="45.29458" lon="6.20344">
        <ele>1387.5999755859</ele>
        <time>2020-02-08T08:26:19.000Z</time>
      </trkpt>
      <trkpt lat="45.29462" lon="6.20338">
        <ele>1388.4000244141</ele>
        <time>2020-02-08T08:26:24.000Z</time>
      </trkpt>
      <trkpt lat="45.29462" lon="6.20336">
        <ele>1388.4000244141</ele>
        <time>2020-02-08T08:26:25.000Z</time>
      </trkpt>
      <trkpt lat="45.29463" lon="6.20332">
        <ele>1389</ele>
        <time>2020-02-08T08:26:29.000Z</time>
      </trkpt>
      <trkpt lat="45.29463" lon="6.2033">
        <ele>1389.1999511719</ele>
        <time>2020-02-08T08:26:30.000Z</time>
      </trkpt>
      <trkpt lat="45.29465" lon="6.20327">
        <ele>1389.4000244141</ele>
        <time>2020-02-08T08:26:33.000Z</time>
      </trkpt>
      <trkpt lat="45.29465" lon="6.20326">
        <ele>1389.5999755859</ele>
        <time>2020-02-08T08:26:34.000Z</time>
      </trkpt>
      <trkpt lat="45.29466" lon="6.20319">
        <ele>1390.4000244141</ele>
        <time>2020-02-08T08:26:40.000Z</time>
      </trkpt>
      <trkpt lat="45.29466" lon="6.20318">
        <ele>1390.5999755859</ele>
        <time>2020-02-08T08:26:41.000Z</time>
      </trkpt>
      <trkpt lat="45.29466" lon="6.20312">
        <ele>1391</ele>
        <time>2020-02-08T08:26:45.000Z</time>
      </trkpt>
      <trkpt lat="45.29467" lon="6.20305">
        <ele>1391.4000244141</ele>
        <time>2020-02-08T08:26:50.000Z</time>
      </trkpt>
      <trkpt lat="45.29468" lon="6.20302">
        <ele>1391.8000488281</ele>
        <time>2020-02-08T08:26:52.000Z</time>
      </trkpt>
      <trkpt lat="45.29469" lon="6.20299">
        <ele>1392</ele>
        <time>2020-02-08T08:26:54.000Z</time>
      </trkpt>
      <trkpt lat="45.2947" lon="6.20294">
        <ele>1392.4000244141</ele>
        <time>2020-02-08T08:26:58.000Z</time>
      </trkpt>
      <trkpt lat="45.29471" lon="6.20289">
        <ele>1392.5999755859</ele>
        <time>2020-02-08T08:27:02.000Z</time>
      </trkpt>
      <trkpt lat="45.29471" lon="6.20287">
        <ele>1392.8000488281</ele>
        <time>2020-02-08T08:27:04.000Z</time>
      </trkpt>
      <trkpt lat="45.29472" lon="6.20285">
        <ele>1393.1999511719</ele>
        <time>2020-02-08T08:27:06.000Z</time>
      </trkpt>
      <trkpt lat="45.29473" lon="6.20279">
        <ele>1393.8000488281</ele>
        <time>2020-02-08T08:27:11.000Z</time>
      </trkpt>
      <trkpt lat="45.29474" lon="6.20277">
        <ele>1393.8000488281</ele>
        <time>2020-02-08T08:27:13.000Z</time>
      </trkpt>
      <trkpt lat="45.29476" lon="6.20273">
        <ele>1394.1999511719</ele>
        <time>2020-02-08T08:27:17.000Z</time>
      </trkpt>
      <trkpt lat="45.29477" lon="6.20269">
        <ele>1395</ele>
        <time>2020-02-08T08:27:22.000Z</time>
      </trkpt>
      <trkpt lat="45.29477" lon="6.20268">
        <ele>1395</ele>
        <time>2020-02-08T08:27:23.000Z</time>
      </trkpt>
      <trkpt lat="45.2948" lon="6.20262">
        <ele>1395.8000488281</ele>
        <time>2020-02-08T08:27:29.000Z</time>
      </trkpt>
      <trkpt lat="45.29481" lon="6.20261">
        <ele>1396</ele>
        <time>2020-02-08T08:27:30.000Z</time>
      </trkpt>
      <trkpt lat="45.29482" lon="6.20257">
        <ele>1396.5999755859</ele>
        <time>2020-02-08T08:27:34.000Z</time>
      </trkpt>
      <trkpt lat="45.29484" lon="6.20251">
        <ele>1397</ele>
        <time>2020-02-08T08:27:39.000Z</time>
      </trkpt>
      <trkpt lat="45.29484" lon="6.20247">
        <ele>1397.1999511719</ele>
        <time>2020-02-08T08:27:43.000Z</time>
      </trkpt>
      <trkpt lat="45.29485" lon="6.20242">
        <ele>1397.8000488281</ele>
        <time>2020-02-08T08:27:48.000Z</time>
      </trkpt>
      <trkpt lat="45.29485" lon="6.20238">
        <ele>1398</ele>
        <time>2020-02-08T08:27:51.000Z</time>
      </trkpt>
      <trkpt lat="45.29485" lon="6.20236">
        <ele>1398.1999511719</ele>
        <time>2020-02-08T08:27:53.000Z</time>
      </trkpt>
      <trkpt lat="45.29486" lon="6.2023">
        <ele>1398.5999755859</ele>
        <time>2020-02-08T08:27:57.000Z</time>
      </trkpt>
      <trkpt lat="45.29487" lon="6.20228">
        <ele>1399</ele>
        <time>2020-02-08T08:28:00.000Z</time>
      </trkpt>
      <trkpt lat="45.29488" lon="6.20224">
        <ele>1399.8000488281</ele>
        <time>2020-02-08T08:28:03.000Z</time>
      </trkpt>
      <trkpt lat="45.29489" lon="6.20223">
        <ele>1400.1999511719</ele>
        <time>2020-02-08T08:28:05.000Z</time>
      </trkpt>
      <trkpt lat="45.29489" lon="6.20221">
        <ele>1400.4000244141</ele>
        <time>2020-02-08T08:28:07.000Z</time>
      </trkpt>
      <trkpt lat="45.29493" lon="6.20217">
        <ele>1401</ele>
        <time>2020-02-08T08:28:12.000Z</time>
      </trkpt>
      <trkpt lat="45.29494" lon="6.20216">
        <ele>1401.4000244141</ele>
        <time>2020-02-08T08:28:14.000Z</time>
      </trkpt>
      <trkpt lat="45.29494" lon="6.20216">
        <ele>1401.4000244141</ele>
        <time>2020-02-08T08:28:16.000Z</time>
      </trkpt>
      <trkpt lat="45.29496" lon="6.20213">
        <ele>1402.4000244141</ele>
        <time>2020-02-08T08:28:20.000Z</time>
      </trkpt>
      <trkpt lat="45.29496" lon="6.20213">
        <ele>1403</ele>
        <time>2020-02-08T08:28:22.000Z</time>
      </trkpt>
      <trkpt lat="45.29498" lon="6.20211">
        <ele>1403.4000244141</ele>
        <time>2020-02-08T08:28:26.000Z</time>
      </trkpt>
      <trkpt lat="45.29501" lon="6.20206">
        <ele>1403.8000488281</ele>
        <time>2020-02-08T08:28:31.000Z</time>
      </trkpt>
      <trkpt lat="45.29501" lon="6.20203">
        <ele>1404.4000244141</ele>
        <time>2020-02-08T08:28:35.000Z</time>
      </trkpt>
      <trkpt lat="45.29501" lon="6.20202">
        <ele>1404.5999755859</ele>
        <time>2020-02-08T08:28:36.000Z</time>
      </trkpt>
      <trkpt lat="45.29501" lon="6.202">
        <ele>1404.5999755859</ele>
        <time>2020-02-08T08:28:39.000Z</time>
      </trkpt>
      <trkpt lat="45.29502" lon="6.20198">
        <ele>1405</ele>
        <time>2020-02-08T08:28:43.000Z</time>
      </trkpt>
      <trkpt lat="45.29502" lon="6.20197">
        <ele>1405.8000488281</ele>
        <time>2020-02-08T08:28:45.000Z</time>
      </trkpt>
      <trkpt lat="45.29505" lon="6.20191">
        <ele>1406.4000244141</ele>
        <time>2020-02-08T08:28:49.000Z</time>
      </trkpt>
      <trkpt lat="45.29506" lon="6.20188">
        <ele>1406.8000488281</ele>
        <time>2020-02-08T08:28:52.000Z</time>
      </trkpt>
      <trkpt lat="45.29507" lon="6.20186">
        <ele>1407.1999511719</ele>
        <time>2020-02-08T08:28:54.000Z</time>
      </trkpt>
      <trkpt lat="45.29508" lon="6.20182">
        <ele>1407.8000488281</ele>
        <time>2020-02-08T08:28:58.000Z</time>
      </trkpt>
      <trkpt lat="45.29508" lon="6.20181">
        <ele>1407.8000488281</ele>
        <time>2020-02-08T08:28:59.000Z</time>
      </trkpt>
      <trkpt lat="45.2951" lon="6.20178">
        <ele>1408.5999755859</ele>
        <time>2020-02-08T08:29:03.000Z</time>
      </trkpt>
      <trkpt lat="45.2951" lon="6.20175">
        <ele>1409</ele>
        <time>2020-02-08T08:29:07.000Z</time>
      </trkpt>
      <trkpt lat="45.2951" lon="6.2017">
        <ele>1409.4000244141</ele>
        <time>2020-02-08T08:29:11.000Z</time>
      </trkpt>
      <trkpt lat="45.2951" lon="6.20166">
        <ele>1409.5999755859</ele>
        <time>2020-02-08T08:29:16.000Z</time>
      </trkpt>
      <trkpt lat="45.2951" lon="6.20159">
        <ele>1410</ele>
        <time>2020-02-08T08:29:20.000Z</time>
      </trkpt>
      <trkpt lat="45.2951" lon="6.20159">
        <ele>1410.1999511719</ele>
        <time>2020-02-08T08:29:21.000Z</time>
      </trkpt>
      <trkpt lat="45.29512" lon="6.20156">
        <ele>1411</ele>
        <time>2020-02-08T08:29:25.000Z</time>
      </trkpt>
      <trkpt lat="45.29512" lon="6.20155">
        <ele>1411.1999511719</ele>
        <time>2020-02-08T08:29:26.000Z</time>
      </trkpt>
      <trkpt lat="45.29514" lon="6.20153">
        <ele>1412</ele>
        <time>2020-02-08T08:29:30.000Z</time>
      </trkpt>
      <trkpt lat="45.29515" lon="6.2015">
        <ele>1412.5999755859</ele>
        <time>2020-02-08T08:29:33.000Z</time>
      </trkpt>
      <trkpt lat="45.29516" lon="6.20148">
        <ele>1413</ele>
        <time>2020-02-08T08:29:35.000Z</time>
      </trkpt>
      <trkpt lat="45.29519" lon="6.20141">
        <ele>1413.5999755859</ele>
        <time>2020-02-08T08:29:41.000Z</time>
      </trkpt>
      <trkpt lat="45.29522" lon="6.20137">
        <ele>1414</ele>
        <time>2020-02-08T08:29:46.000Z</time>
      </trkpt>
      <trkpt lat="45.29524" lon="6.20133">
        <ele>1414.1999511719</ele>
        <time>2020-02-08T08:29:49.000Z</time>
      </trkpt>
      <trkpt lat="45.29525" lon="6.20128">
        <ele>1414.1999511719</ele>
        <time>2020-02-08T08:29:54.000Z</time>
      </trkpt>
      <trkpt lat="45.29527" lon="6.20124">
        <ele>1414.8000488281</ele>
        <time>2020-02-08T08:29:57.000Z</time>
      </trkpt>
      <trkpt lat="45.29529" lon="6.20122">
        <ele>1415.1999511719</ele>
        <time>2020-02-08T08:29:59.000Z</time>
      </trkpt>
      <trkpt lat="45.29529" lon="6.20121">
        <ele>1415.8000488281</ele>
        <time>2020-02-08T08:30:02.000Z</time>
      </trkpt>
      <trkpt lat="45.2953" lon="6.2012">
        <ele>1416.1999511719</ele>
        <time>2020-02-08T08:30:03.000Z</time>
      </trkpt>
      <trkpt lat="45.2953" lon="6.20118">
        <ele>1416.4000244141</ele>
        <time>2020-02-08T08:30:04.000Z</time>
      </trkpt>
      <trkpt lat="45.29531" lon="6.20115">
        <ele>1416.8000488281</ele>
        <time>2020-02-08T08:30:07.000Z</time>
      </trkpt>
      <trkpt lat="45.29531" lon="6.20114">
        <ele>1417</ele>
        <time>2020-02-08T08:30:08.000Z</time>
      </trkpt>
      <trkpt lat="45.29533" lon="6.20108">
        <ele>1417.5999755859</ele>
        <time>2020-02-08T08:30:13.000Z</time>
      </trkpt>
      <trkpt lat="45.29534" lon="6.20104">
        <ele>1418</ele>
        <time>2020-02-08T08:30:17.000Z</time>
      </trkpt>
      <trkpt lat="45.29534" lon="6.20102">
        <ele>1418</ele>
        <time>2020-02-08T08:30:18.000Z</time>
      </trkpt>
      <trkpt lat="45.29535" lon="6.20098">
        <ele>1418.8000488281</ele>
        <time>2020-02-08T08:30:22.000Z</time>
      </trkpt>
      <trkpt lat="45.29538" lon="6.20093">
        <ele>1419</ele>
        <time>2020-02-08T08:30:27.000Z</time>
      </trkpt>
      <trkpt lat="45.29539" lon="6.20091">
        <ele>1419.1999511719</ele>
        <time>2020-02-08T08:30:28.000Z</time>
      </trkpt>
      <trkpt lat="45.2954" lon="6.20087">
        <ele>1419.8000488281</ele>
        <time>2020-02-08T08:30:31.000Z</time>
      </trkpt>
      <trkpt lat="45.2954" lon="6.20085">
        <ele>1420.1999511719</ele>
        <time>2020-02-08T08:30:33.000Z</time>
      </trkpt>
      <trkpt lat="45.29541" lon="6.20082">
        <ele>1420.4000244141</ele>
        <time>2020-02-08T08:30:36.000Z</time>
      </trkpt>
      <trkpt lat="45.29541" lon="6.20077">
        <ele>1420.5999755859</ele>
        <time>2020-02-08T08:30:41.000Z</time>
      </trkpt>
      <trkpt lat="45.29542" lon="6.20072">
        <ele>1421.1999511719</ele>
        <time>2020-02-08T08:30:46.000Z</time>
      </trkpt>
      <trkpt lat="45.29543" lon="6.20067">
        <ele>1422.4000244141</ele>
        <time>2020-02-08T08:30:52.000Z</time>
      </trkpt>
      <trkpt lat="45.29543" lon="6.20066">
        <ele>1423</ele>
        <time>2020-02-08T08:30:58.000Z</time>
      </trkpt>
      <trkpt lat="45.29544" lon="6.20062">
        <ele>1423.4000244141</ele>
        <time>2020-02-08T08:31:05.000Z</time>
      </trkpt>
      <trkpt lat="45.29544" lon="6.20058">
        <ele>1423.5999755859</ele>
        <time>2020-02-08T08:31:08.000Z</time>
      </trkpt>
      <trkpt lat="45.29543" lon="6.20057">
        <ele>1424.1999511719</ele>
        <time>2020-02-08T08:31:09.000Z</time>
      </trkpt>
      <trkpt lat="45.29543" lon="6.20055">
        <ele>1424.4000244141</ele>
        <time>2020-02-08T08:31:11.000Z</time>
      </trkpt>
      <trkpt lat="45.29543" lon="6.20053">
        <ele>1424.5999755859</ele>
        <time>2020-02-08T08:31:13.000Z</time>
      </trkpt>
      <trkpt lat="45.29543" lon="6.20052">
        <ele>1425</ele>
        <time>2020-02-08T08:31:14.000Z</time>
      </trkpt>
      <trkpt lat="45.29543" lon="6.20049">
        <ele>1425.1999511719</ele>
        <time>2020-02-08T08:31:21.000Z</time>
      </trkpt>
      <trkpt lat="45.29542" lon="6.20044">
        <ele>1426.1999511719</ele>
        <time>2020-02-08T08:31:24.000Z</time>
      </trkpt>
      <trkpt lat="45.29541" lon="6.20042">
        <ele>1427</ele>
        <time>2020-02-08T08:31:26.000Z</time>
      </trkpt>
      <trkpt lat="45.29541" lon="6.2004">
        <ele>1427.1999511719</ele>
        <time>2020-02-08T08:31:27.000Z</time>
      </trkpt>
      <trkpt lat="45.2954" lon="6.20035">
        <ele>1427.4000244141</ele>
        <time>2020-02-08T08:31:32.000Z</time>
      </trkpt>
      <trkpt lat="45.29539" lon="6.20029">
        <ele>1428.4000244141</ele>
        <time>2020-02-08T08:31:37.000Z</time>
      </trkpt>
      <trkpt lat="45.2954" lon="6.20026">
        <ele>1429.1999511719</ele>
        <time>2020-02-08T08:31:41.000Z</time>
      </trkpt>
      <trkpt lat="45.2954" lon="6.20025">
        <ele>1429.4000244141</ele>
        <time>2020-02-08T08:31:42.000Z</time>
      </trkpt>
      <trkpt lat="45.2954" lon="6.20021">
        <ele>1430.1999511719</ele>
        <time>2020-02-08T08:31:46.000Z</time>
      </trkpt>
      <trkpt lat="45.29539" lon="6.20017">
        <ele>1430.5999755859</ele>
        <time>2020-02-08T08:31:49.000Z</time>
      </trkpt>
      <trkpt lat="45.29539" lon="6.20015">
        <ele>1431</ele>
        <time>2020-02-08T08:31:51.000Z</time>
      </trkpt>
      <trkpt lat="45.29541" lon="6.20013">
        <ele>1431.8000488281</ele>
        <time>2020-02-08T08:31:55.000Z</time>
      </trkpt>
      <trkpt lat="45.29543" lon="6.20012">
        <ele>1432.4000244141</ele>
        <time>2020-02-08T08:31:57.000Z</time>
      </trkpt>
      <trkpt lat="45.29544" lon="6.2001">
        <ele>1432.8000488281</ele>
        <time>2020-02-08T08:31:59.000Z</time>
      </trkpt>
      <trkpt lat="45.29545" lon="6.20008">
        <ele>1433.4000244141</ele>
        <time>2020-02-08T08:32:02.000Z</time>
      </trkpt>
      <trkpt lat="45.29548" lon="6.20006">
        <ele>1434</ele>
        <time>2020-02-08T08:32:05.000Z</time>
      </trkpt>
      <trkpt lat="45.29548" lon="6.20005">
        <ele>1434.4000244141</ele>
        <time>2020-02-08T08:32:07.000Z</time>
      </trkpt>
      <trkpt lat="45.29551" lon="6.20002">
        <ele>1435</ele>
        <time>2020-02-08T08:32:11.000Z</time>
      </trkpt>
      <trkpt lat="45.29552" lon="6.2">
        <ele>1435.5999755859</ele>
        <time>2020-02-08T08:32:13.000Z</time>
      </trkpt>
      <trkpt lat="45.29554" lon="6.19997">
        <ele>1436.1999511719</ele>
        <time>2020-02-08T08:32:17.000Z</time>
      </trkpt>
      <trkpt lat="45.29556" lon="6.19994">
        <ele>1437</ele>
        <time>2020-02-08T08:32:22.000Z</time>
      </trkpt>
      <trkpt lat="45.29557" lon="6.19993">
        <ele>1437.1999511719</ele>
        <time>2020-02-08T08:32:23.000Z</time>
      </trkpt>
      <trkpt lat="45.2956" lon="6.1999">
        <ele>1438.4000244141</ele>
        <time>2020-02-08T08:32:29.000Z</time>
      </trkpt>
      <trkpt lat="45.29563" lon="6.19988">
        <ele>1439.1999511719</ele>
        <time>2020-02-08T08:32:34.000Z</time>
      </trkpt>
      <trkpt lat="45.29564" lon="6.19987">
        <ele>1439.4000244141</ele>
        <time>2020-02-08T08:32:35.000Z</time>
      </trkpt>
      <trkpt lat="45.29564" lon="6.19986">
        <ele>1440.1999511719</ele>
        <time>2020-02-08T08:32:39.000Z</time>
      </trkpt>
      <trkpt lat="45.29565" lon="6.19985">
        <ele>1440.5999755859</ele>
        <time>2020-02-08T08:32:41.000Z</time>
      </trkpt>
      <trkpt lat="45.29567" lon="6.19982">
        <ele>1441.5999755859</ele>
        <time>2020-02-08T08:32:45.000Z</time>
      </trkpt>
      <trkpt lat="45.29568" lon="6.19981">
        <ele>1441.8000488281</ele>
        <time>2020-02-08T08:32:46.000Z</time>
      </trkpt>
      <trkpt lat="45.29569" lon="6.19978">
        <ele>1442.4000244141</ele>
        <time>2020-02-08T08:32:50.000Z</time>
      </trkpt>
      <trkpt lat="45.29569" lon="6.19977">
        <ele>1442.5999755859</ele>
        <time>2020-02-08T08:32:51.000Z</time>
      </trkpt>
      <trkpt lat="45.2957" lon="6.19974">
        <ele>1443.5999755859</ele>
        <time>2020-02-08T08:32:55.000Z</time>
      </trkpt>
      <trkpt lat="45.29571" lon="6.19972">
        <ele>1443.8000488281</ele>
        <time>2020-02-08T08:32:57.000Z</time>
      </trkpt>
      <trkpt lat="45.29573" lon="6.19968">
        <ele>1444.1999511719</ele>
        <time>2020-02-08T08:33:01.000Z</time>
      </trkpt>
      <trkpt lat="45.29573" lon="6.19967">
        <ele>1444.8000488281</ele>
        <time>2020-02-08T08:33:05.000Z</time>
      </trkpt>
      <trkpt lat="45.29574" lon="6.19962">
        <ele>1446</ele>
        <time>2020-02-08T08:33:10.000Z</time>
      </trkpt>
      <trkpt lat="45.29576" lon="6.19958">
        <ele>1446.8000488281</ele>
        <time>2020-02-08T08:33:14.000Z</time>
      </trkpt>
      <trkpt lat="45.29576" lon="6.19956">
        <ele>1447</ele>
        <time>2020-02-08T08:33:16.000Z</time>
      </trkpt>
      <trkpt lat="45.29576" lon="6.19955">
        <ele>1447.1999511719</ele>
        <time>2020-02-08T08:33:17.000Z</time>
      </trkpt>
      <trkpt lat="45.29576" lon="6.19953">
        <ele>1447.4000244141</ele>
        <time>2020-02-08T08:33:19.000Z</time>
      </trkpt>
      <trkpt lat="45.29576" lon="6.19948">
        <ele>1448</ele>
        <time>2020-02-08T08:33:23.000Z</time>
      </trkpt>
      <trkpt lat="45.29577" lon="6.19943">
        <ele>1449</ele>
        <time>2020-02-08T08:33:28.000Z</time>
      </trkpt>
      <trkpt lat="45.29577" lon="6.19938">
        <ele>1450</ele>
        <time>2020-02-08T08:33:33.000Z</time>
      </trkpt>
      <trkpt lat="45.29577" lon="6.19937">
        <ele>1450.1999511719</ele>
        <time>2020-02-08T08:33:34.000Z</time>
      </trkpt>
      <trkpt lat="45.29578" lon="6.19932">
        <ele>1451</ele>
        <time>2020-02-08T08:33:38.000Z</time>
      </trkpt>
      <trkpt lat="45.29579" lon="6.1993">
        <ele>1451.4000244141</ele>
        <time>2020-02-08T08:33:40.000Z</time>
      </trkpt>
      <trkpt lat="45.2958" lon="6.19925">
        <ele>1452.1999511719</ele>
        <time>2020-02-08T08:33:44.000Z</time>
      </trkpt>
      <trkpt lat="45.29581" lon="6.1992">
        <ele>1452.4000244141</ele>
        <time>2020-02-08T08:33:48.000Z</time>
      </trkpt>
      <trkpt lat="45.29583" lon="6.19915">
        <ele>1453.1999511719</ele>
        <time>2020-02-08T08:33:52.000Z</time>
      </trkpt>
      <trkpt lat="45.29583" lon="6.19914">
        <ele>1453.5999755859</ele>
        <time>2020-02-08T08:33:54.000Z</time>
      </trkpt>
      <trkpt lat="45.29583" lon="6.19913">
        <ele>1453.8000488281</ele>
        <time>2020-02-08T08:33:56.000Z</time>
      </trkpt>
      <trkpt lat="45.29583" lon="6.19913">
        <ele>1454.8000488281</ele>
        <time>2020-02-08T08:33:59.000Z</time>
      </trkpt>
      <trkpt lat="45.29583" lon="6.19914">
        <ele>1455.4000244141</ele>
        <time>2020-02-08T08:34:01.000Z</time>
      </trkpt>
      <trkpt lat="45.29585" lon="6.19915">
        <ele>1456</ele>
        <time>2020-02-08T08:34:03.000Z</time>
      </trkpt>
      <trkpt lat="45.29588" lon="6.19916">
        <ele>1456.8000488281</ele>
        <time>2020-02-08T08:34:09.000Z</time>
      </trkpt>
      <trkpt lat="45.29589" lon="6.19916">
        <ele>1457.1999511719</ele>
        <time>2020-02-08T08:34:11.000Z</time>
      </trkpt>
      <trkpt lat="45.29591" lon="6.19915">
        <ele>1457.8000488281</ele>
        <time>2020-02-08T08:34:14.000Z</time>
      </trkpt>
      <trkpt lat="45.29592" lon="6.19913">
        <ele>1458.1999511719</ele>
        <time>2020-02-08T08:34:16.000Z</time>
      </trkpt>
      <trkpt lat="45.29592" lon="6.19909">
        <ele>1459</ele>
        <time>2020-02-08T08:34:20.000Z</time>
      </trkpt>
      <trkpt lat="45.29592" lon="6.19907">
        <ele>1459.4000244141</ele>
        <time>2020-02-08T08:34:21.000Z</time>
      </trkpt>
      <trkpt lat="45.29592" lon="6.19905">
        <ele>1460</ele>
        <time>2020-02-08T08:34:24.000Z</time>
      </trkpt>
      <trkpt lat="45.29592" lon="6.19904">
        <ele>1460.5999755859</ele>
        <time>2020-02-08T08:34:27.000Z</time>
      </trkpt>
      <trkpt lat="45.29593" lon="6.19904">
        <ele>1460.8000488281</ele>
        <time>2020-02-08T08:34:28.000Z</time>
      </trkpt>
      <trkpt lat="45.29595" lon="6.19902">
        <ele>1461.5999755859</ele>
        <time>2020-02-08T08:34:33.000Z</time>
      </trkpt>
      <trkpt lat="45.29596" lon="6.199">
        <ele>1461.8000488281</ele>
        <time>2020-02-08T08:34:34.000Z</time>
      </trkpt>
      <trkpt lat="45.29598" lon="6.19897">
        <ele>1462.1999511719</ele>
        <time>2020-02-08T08:34:39.000Z</time>
      </trkpt>
      <trkpt lat="45.296" lon="6.19895">
        <ele>1462.8000488281</ele>
        <time>2020-02-08T08:34:42.000Z</time>
      </trkpt>
      <trkpt lat="45.29601" lon="6.19894">
        <ele>1463.1999511719</ele>
        <time>2020-02-08T08:34:44.000Z</time>
      </trkpt>
      <trkpt lat="45.29602" lon="6.19892">
        <ele>1464</ele>
        <time>2020-02-08T08:34:46.000Z</time>
      </trkpt>
      <trkpt lat="45.29604" lon="6.19889">
        <ele>1464.4000244141</ele>
        <time>2020-02-08T08:34:49.000Z</time>
      </trkpt>
      <trkpt lat="45.29605" lon="6.19886">
        <ele>1464.8000488281</ele>
        <time>2020-02-08T08:34:53.000Z</time>
      </trkpt>
      <trkpt lat="45.29605" lon="6.19886">
        <ele>1465</ele>
        <time>2020-02-08T08:34:54.000Z</time>
      </trkpt>
      <trkpt lat="45.29608" lon="6.19881">
        <ele>1465.5999755859</ele>
        <time>2020-02-08T08:34:58.000Z</time>
      </trkpt>
      <trkpt lat="45.29609" lon="6.19879">
        <ele>1466</ele>
        <time>2020-02-08T08:35:01.000Z</time>
      </trkpt>
      <trkpt lat="45.29609" lon="6.19878">
        <ele>1466.4000244141</ele>
        <time>2020-02-08T08:35:02.000Z</time>
      </trkpt>
      <trkpt lat="45.29609" lon="6.19877">
        <ele>1467.1999511719</ele>
        <time>2020-02-08T08:35:06.000Z</time>
      </trkpt>
      <trkpt lat="45.29609" lon="6.19876">
        <ele>1467.4000244141</ele>
        <time>2020-02-08T08:35:07.000Z</time>
      </trkpt>
      <trkpt lat="45.29609" lon="6.19872">
        <ele>1468.1999511719</ele>
        <time>2020-02-08T08:35:11.000Z</time>
      </trkpt>
      <trkpt lat="45.29609" lon="6.19872">
        <ele>1468.5999755859</ele>
        <time>2020-02-08T08:35:12.000Z</time>
      </trkpt>
      <trkpt lat="45.29609" lon="6.1987">
        <ele>1468.8000488281</ele>
        <time>2020-02-08T08:35:13.000Z</time>
      </trkpt>
      <trkpt lat="45.2961" lon="6.19868">
        <ele>1469.1999511719</ele>
        <time>2020-02-08T08:35:15.000Z</time>
      </trkpt>
      <trkpt lat="45.2961" lon="6.19867">
        <ele>1469.4000244141</ele>
        <time>2020-02-08T08:35:16.000Z</time>
      </trkpt>
      <trkpt lat="45.29613" lon="6.19863">
        <ele>1470</ele>
        <time>2020-02-08T08:35:21.000Z</time>
      </trkpt>
      <trkpt lat="45.29615" lon="6.19858">
        <ele>1470.4000244141</ele>
        <time>2020-02-08T08:35:24.000Z</time>
      </trkpt>
      <trkpt lat="45.29617" lon="6.19855">
        <ele>1471.1999511719</ele>
        <time>2020-02-08T08:35:28.000Z</time>
      </trkpt>
      <trkpt lat="45.29618" lon="6.19855">
        <ele>1471.5999755859</ele>
        <time>2020-02-08T08:35:30.000Z</time>
      </trkpt>
      <trkpt lat="45.29618" lon="6.19855">
        <ele>1472.8000488281</ele>
        <time>2020-02-08T08:35:34.000Z</time>
      </trkpt>
      <trkpt lat="45.29621" lon="6.19861">
        <ele>1473.5999755859</ele>
        <time>2020-02-08T08:35:41.000Z</time>
      </trkpt>
      <trkpt lat="45.29621" lon="6.19861">
        <ele>1473.8000488281</ele>
        <time>2020-02-08T08:35:43.000Z</time>
      </trkpt>
      <trkpt lat="45.29623" lon="6.19863">
        <ele>1474.8000488281</ele>
        <time>2020-02-08T08:35:47.000Z</time>
      </trkpt>
      <trkpt lat="45.29623" lon="6.19863">
        <ele>1475</ele>
        <time>2020-02-08T08:35:48.000Z</time>
      </trkpt>
      <trkpt lat="45.29624" lon="6.19862">
        <ele>1475.8000488281</ele>
        <time>2020-02-08T08:35:53.000Z</time>
      </trkpt>
      <trkpt lat="45.29625" lon="6.19861">
        <ele>1476.1999511719</ele>
        <time>2020-02-08T08:35:55.000Z</time>
      </trkpt>
      <trkpt lat="45.29627" lon="6.1986">
        <ele>1477.4000244141</ele>
        <time>2020-02-08T08:35:58.000Z</time>
      </trkpt>
      <trkpt lat="45.29627" lon="6.19859">
        <ele>1477.8000488281</ele>
        <time>2020-02-08T08:35:59.000Z</time>
      </trkpt>
      <trkpt lat="45.29628" lon="6.19855">
        <ele>1478.5999755859</ele>
        <time>2020-02-08T08:36:03.000Z</time>
      </trkpt>
      <trkpt lat="45.29629" lon="6.19854">
        <ele>1478.8000488281</ele>
        <time>2020-02-08T08:36:04.000Z</time>
      </trkpt>
      <trkpt lat="45.29631" lon="6.19852">
        <ele>1479.1999511719</ele>
        <time>2020-02-08T08:36:09.000Z</time>
      </trkpt>
      <trkpt lat="45.29632" lon="6.1985">
        <ele>1479.5999755859</ele>
        <time>2020-02-08T08:36:12.000Z</time>
      </trkpt>
      <trkpt lat="45.29633" lon="6.19849">
        <ele>1480.5999755859</ele>
        <time>2020-02-08T08:36:15.000Z</time>
      </trkpt>
      <trkpt lat="45.29634" lon="6.19847">
        <ele>1481.4000244141</ele>
        <time>2020-02-08T08:36:18.000Z</time>
      </trkpt>
      <trkpt lat="45.29634" lon="6.19846">
        <ele>1481.5999755859</ele>
        <time>2020-02-08T08:36:19.000Z</time>
      </trkpt>
      <trkpt lat="45.29639" lon="6.19842">
        <ele>1482.5999755859</ele>
        <time>2020-02-08T08:36:25.000Z</time>
      </trkpt>
      <trkpt lat="45.2964" lon="6.19842">
        <ele>1482.5999755859</ele>
        <time>2020-02-08T08:36:26.000Z</time>
      </trkpt>
      <trkpt lat="45.29642" lon="6.19841">
        <ele>1483.1999511719</ele>
        <time>2020-02-08T08:36:29.000Z</time>
      </trkpt>
      <trkpt lat="45.29642" lon="6.19838">
        <ele>1483.8000488281</ele>
        <time>2020-02-08T08:36:34.000Z</time>
      </trkpt>
      <trkpt lat="45.29643" lon="6.19836">
        <ele>1484</ele>
        <time>2020-02-08T08:36:35.000Z</time>
      </trkpt>
      <trkpt lat="45.29645" lon="6.19835">
        <ele>1484.8000488281</ele>
        <time>2020-02-08T08:36:39.000Z</time>
      </trkpt>
      <trkpt lat="45.29646" lon="6.19833">
        <ele>1485.5999755859</ele>
        <time>2020-02-08T08:36:44.000Z</time>
      </trkpt>
      <trkpt lat="45.29648" lon="6.19832">
        <ele>1485.8000488281</ele>
        <time>2020-02-08T08:36:46.000Z</time>
      </trkpt>
      <trkpt lat="45.2965" lon="6.19828">
        <ele>1486.4000244141</ele>
        <time>2020-02-08T08:36:50.000Z</time>
      </trkpt>
      <trkpt lat="45.29653" lon="6.19826">
        <ele>1486.8000488281</ele>
        <time>2020-02-08T08:36:53.000Z</time>
      </trkpt>
      <trkpt lat="45.29654" lon="6.19825">
        <ele>1487.1999511719</ele>
        <time>2020-02-08T08:36:54.000Z</time>
      </trkpt>
      <trkpt lat="45.29657" lon="6.19821">
        <ele>1488</ele>
        <time>2020-02-08T08:36:58.000Z</time>
      </trkpt>
      <trkpt lat="45.29657" lon="6.1982">
        <ele>1488</ele>
        <time>2020-02-08T08:36:59.000Z</time>
      </trkpt>
      <trkpt lat="45.29656" lon="6.19816">
        <ele>1489</ele>
        <time>2020-02-08T08:37:04.000Z</time>
      </trkpt>
      <trkpt lat="45.29656" lon="6.19815">
        <ele>1489.1999511719</ele>
        <time>2020-02-08T08:37:05.000Z</time>
      </trkpt>
      <trkpt lat="45.29655" lon="6.19814">
        <ele>1489.5999755859</ele>
        <time>2020-02-08T08:37:07.000Z</time>
      </trkpt>
      <trkpt lat="45.29654" lon="6.19813">
        <ele>1489.8000488281</ele>
        <time>2020-02-08T08:37:09.000Z</time>
      </trkpt>
      <trkpt lat="45.29654" lon="6.19812">
        <ele>1490</ele>
        <time>2020-02-08T08:37:10.000Z</time>
      </trkpt>
      <trkpt lat="45.29653" lon="6.1981">
        <ele>1490.4000244141</ele>
        <time>2020-02-08T08:37:13.000Z</time>
      </trkpt>
      <trkpt lat="45.29654" lon="6.19806">
        <ele>1490.8000488281</ele>
        <time>2020-02-08T08:37:16.000Z</time>
      </trkpt>
      <trkpt lat="45.29654" lon="6.19805">
        <ele>1491</ele>
        <time>2020-02-08T08:37:17.000Z</time>
      </trkpt>
      <trkpt lat="45.29655" lon="6.19804">
        <ele>1491.1999511719</ele>
        <time>2020-02-08T08:37:18.000Z</time>
      </trkpt>
      <trkpt lat="45.29656" lon="6.19803">
        <ele>1491.8000488281</ele>
        <time>2020-02-08T08:37:21.000Z</time>
      </trkpt>
      <trkpt lat="45.29657" lon="6.19801">
        <ele>1492.1999511719</ele>
        <time>2020-02-08T08:37:24.000Z</time>
      </trkpt>
      <trkpt lat="45.29658" lon="6.19798">
        <ele>1492.8000488281</ele>
        <time>2020-02-08T08:37:27.000Z</time>
      </trkpt>
      <trkpt lat="45.29659" lon="6.19796">
        <ele>1493.4000244141</ele>
        <time>2020-02-08T08:37:31.000Z</time>
      </trkpt>
      <trkpt lat="45.2966" lon="6.19792">
        <ele>1494.4000244141</ele>
        <time>2020-02-08T08:37:35.000Z</time>
      </trkpt>
      <trkpt lat="45.2966" lon="6.19791">
        <ele>1494.8000488281</ele>
        <time>2020-02-08T08:37:36.000Z</time>
      </trkpt>
      <trkpt lat="45.29661" lon="6.19788">
        <ele>1495.1999511719</ele>
        <time>2020-02-08T08:37:40.000Z</time>
      </trkpt>
      <trkpt lat="45.29661" lon="6.19787">
        <ele>1495.5999755859</ele>
        <time>2020-02-08T08:37:42.000Z</time>
      </trkpt>
      <trkpt lat="45.29661" lon="6.19783">
        <ele>1496.1999511719</ele>
        <time>2020-02-08T08:37:45.000Z</time>
      </trkpt>
      <trkpt lat="45.29661" lon="6.19781">
        <ele>1496.5999755859</ele>
        <time>2020-02-08T08:37:47.000Z</time>
      </trkpt>
      <trkpt lat="45.2966" lon="6.1978">
        <ele>1497.1999511719</ele>
        <time>2020-02-08T08:37:50.000Z</time>
      </trkpt>
      <trkpt lat="45.29659" lon="6.19776">
        <ele>1497.4000244141</ele>
        <time>2020-02-08T08:37:55.000Z</time>
      </trkpt>
      <trkpt lat="45.29659" lon="6.19776">
        <ele>1497.5999755859</ele>
        <time>2020-02-08T08:38:00.000Z</time>
      </trkpt>
      <trkpt lat="45.29659" lon="6.19776">
        <ele>1497.5999755859</ele>
        <time>2020-02-08T08:38:04.000Z</time>
      </trkpt>
      <trkpt lat="45.2966" lon="6.19772">
        <ele>1497.1999511719</ele>
        <time>2020-02-08T08:38:11.000Z</time>
      </trkpt>
      <trkpt lat="45.29663" lon="6.19767">
        <ele>1498.5999755859</ele>
        <time>2020-02-08T08:38:17.000Z</time>
      </trkpt>
      <trkpt lat="45.29664" lon="6.19766">
        <ele>1498.8000488281</ele>
        <time>2020-02-08T08:38:18.000Z</time>
      </trkpt>
      <trkpt lat="45.29666" lon="6.19763">
        <ele>1499.5999755859</ele>
        <time>2020-02-08T08:38:22.000Z</time>
      </trkpt>
      <trkpt lat="45.29667" lon="6.19762">
        <ele>1499.8000488281</ele>
        <time>2020-02-08T08:38:24.000Z</time>
      </trkpt>
      <trkpt lat="45.29668" lon="6.19761">
        <ele>1500</ele>
        <time>2020-02-08T08:38:26.000Z</time>
      </trkpt>
      <trkpt lat="45.29668" lon="6.19761">
        <ele>1500.8000488281</ele>
        <time>2020-02-08T08:38:31.000Z</time>
      </trkpt>
      <trkpt lat="45.29668" lon="6.19761">
        <ele>1501.1999511719</ele>
        <time>2020-02-08T08:38:37.000Z</time>
      </trkpt>
      <trkpt lat="45.29668" lon="6.19761">
        <ele>1500.8000488281</ele>
        <time>2020-02-08T08:38:46.000Z</time>
      </trkpt>
      <trkpt lat="45.29669" lon="6.1976">
        <ele>1501.1999511719</ele>
        <time>2020-02-08T08:38:52.000Z</time>
      </trkpt>
      <trkpt lat="45.29671" lon="6.19758">
        <ele>1502.1999511719</ele>
        <time>2020-02-08T08:38:55.000Z</time>
      </trkpt>
      <trkpt lat="45.29672" lon="6.19757">
        <ele>1502.4000244141</ele>
        <time>2020-02-08T08:38:56.000Z</time>
      </trkpt>
      <trkpt lat="45.29674" lon="6.19751">
        <ele>1503</ele>
        <time>2020-02-08T08:39:01.000Z</time>
      </trkpt>
      <trkpt lat="45.29675" lon="6.19745">
        <ele>1503.1999511719</ele>
        <time>2020-02-08T08:39:05.000Z</time>
      </trkpt>
      <trkpt lat="45.29676" lon="6.19743">
        <ele>1503.1999511719</ele>
        <time>2020-02-08T08:39:07.000Z</time>
      </trkpt>
      <trkpt lat="45.29678" lon="6.1974">
        <ele>1503.5999755859</ele>
        <time>2020-02-08T08:39:12.000Z</time>
      </trkpt>
      <trkpt lat="45.29679" lon="6.19738">
        <ele>1504.1999511719</ele>
        <time>2020-02-08T08:39:16.000Z</time>
      </trkpt>
      <trkpt lat="45.2968" lon="6.19737">
        <ele>1504.4000244141</ele>
        <time>2020-02-08T08:39:17.000Z</time>
      </trkpt>
      <trkpt lat="45.29683" lon="6.19734">
        <ele>1505</ele>
        <time>2020-02-08T08:39:22.000Z</time>
      </trkpt>
      <trkpt lat="45.29683" lon="6.19733">
        <ele>1505.1999511719</ele>
        <time>2020-02-08T08:39:23.000Z</time>
      </trkpt>
      <trkpt lat="45.29685" lon="6.19729">
        <ele>1506</ele>
        <time>2020-02-08T08:39:27.000Z</time>
      </trkpt>
      <trkpt lat="45.29685" lon="6.19727">
        <ele>1506.1999511719</ele>
        <time>2020-02-08T08:39:29.000Z</time>
      </trkpt>
      <trkpt lat="45.29685" lon="6.19725">
        <ele>1506.5999755859</ele>
        <time>2020-02-08T08:39:32.000Z</time>
      </trkpt>
      <trkpt lat="45.29687" lon="6.1972">
        <ele>1507.4000244141</ele>
        <time>2020-02-08T08:39:36.000Z</time>
      </trkpt>
      <trkpt lat="45.29687" lon="6.1972">
        <ele>1507.5999755859</ele>
        <time>2020-02-08T08:39:37.000Z</time>
      </trkpt>
      <trkpt lat="45.29688" lon="6.19718">
        <ele>1507.8000488281</ele>
        <time>2020-02-08T08:39:38.000Z</time>
      </trkpt>
      <trkpt lat="45.29689" lon="6.19714">
        <ele>1508.1999511719</ele>
        <time>2020-02-08T08:39:42.000Z</time>
      </trkpt>
      <trkpt lat="45.2969" lon="6.19713">
        <ele>1508.4000244141</ele>
        <time>2020-02-08T08:39:43.000Z</time>
      </trkpt>
      <trkpt lat="45.29693" lon="6.19707">
        <ele>1508.8000488281</ele>
        <time>2020-02-08T08:39:47.000Z</time>
      </trkpt>
      <trkpt lat="45.29693" lon="6.19702">
        <ele>1509.4000244141</ele>
        <time>2020-02-08T08:39:52.000Z</time>
      </trkpt>
      <trkpt lat="45.29694" lon="6.19701">
        <ele>1509.4000244141</ele>
        <time>2020-02-08T08:39:53.000Z</time>
      </trkpt>
      <trkpt lat="45.29695" lon="6.19696">
        <ele>1509.8000488281</ele>
        <time>2020-02-08T08:39:57.000Z</time>
      </trkpt>
      <trkpt lat="45.29696" lon="6.19694">
        <ele>1510.1999511719</ele>
        <time>2020-02-08T08:39:59.000Z</time>
      </trkpt>
      <trkpt lat="45.29696" lon="6.19692">
        <ele>1510.5999755859</ele>
        <time>2020-02-08T08:40:01.000Z</time>
      </trkpt>
      <trkpt lat="45.29697" lon="6.1969">
        <ele>1510.5999755859</ele>
        <time>2020-02-08T08:40:02.000Z</time>
      </trkpt>
      <trkpt lat="45.297" lon="6.19684">
        <ele>1511.4000244141</ele>
        <time>2020-02-08T08:40:08.000Z</time>
      </trkpt>
      <trkpt lat="45.29701" lon="6.19681">
        <ele>1511.4000244141</ele>
        <time>2020-02-08T08:40:10.000Z</time>
      </trkpt>
      <trkpt lat="45.29701" lon="6.1968">
        <ele>1511.5999755859</ele>
        <time>2020-02-08T08:40:11.000Z</time>
      </trkpt>
      <trkpt lat="45.29701" lon="6.1968">
        <ele>1511.8000488281</ele>
        <time>2020-02-08T08:40:13.000Z</time>
      </trkpt>
      <trkpt lat="45.29703" lon="6.19676">
        <ele>1512.5999755859</ele>
        <time>2020-02-08T08:40:17.000Z</time>
      </trkpt>
      <trkpt lat="45.29703" lon="6.19675">
        <ele>1512.8000488281</ele>
        <time>2020-02-08T08:40:18.000Z</time>
      </trkpt>
      <trkpt lat="45.29705" lon="6.19669">
        <ele>1512.5999755859</ele>
        <time>2020-02-08T08:40:23.000Z</time>
      </trkpt>
      <trkpt lat="45.29707" lon="6.19666">
        <ele>1512.8000488281</ele>
        <time>2020-02-08T08:40:28.000Z</time>
      </trkpt>
      <trkpt lat="45.2971" lon="6.19662">
        <ele>1513.8000488281</ele>
        <time>2020-02-08T08:40:33.000Z</time>
      </trkpt>
      <trkpt lat="45.29711" lon="6.19661">
        <ele>1513.8000488281</ele>
        <time>2020-02-08T08:40:34.000Z</time>
      </trkpt>
      <trkpt lat="45.29714" lon="6.19656">
        <ele>1514.4000244141</ele>
        <time>2020-02-08T08:40:39.000Z</time>
      </trkpt>
      <trkpt lat="45.29716" lon="6.19652">
        <ele>1514.8000488281</ele>
        <time>2020-02-08T08:40:43.000Z</time>
      </trkpt>
      <trkpt lat="45.29717" lon="6.19651">
        <ele>1515.1999511719</ele>
        <time>2020-02-08T08:40:44.000Z</time>
      </trkpt>
      <trkpt lat="45.29722" lon="6.19646">
        <ele>1516</ele>
        <time>2020-02-08T08:40:49.000Z</time>
      </trkpt>
      <trkpt lat="45.29727" lon="6.1964">
        <ele>1516.8000488281</ele>
        <time>2020-02-08T08:40:54.000Z</time>
      </trkpt>
      <trkpt lat="45.29728" lon="6.19637">
        <ele>1517</ele>
        <time>2020-02-08T08:40:57.000Z</time>
      </trkpt>
      <trkpt lat="45.29729" lon="6.19636">
        <ele>1517</ele>
        <time>2020-02-08T08:40:58.000Z</time>
      </trkpt>
      <trkpt lat="45.29729" lon="6.19634">
        <ele>1517.1999511719</ele>
        <time>2020-02-08T08:40:59.000Z</time>
      </trkpt>
      <trkpt lat="45.2973" lon="6.19633">
        <ele>1517.5999755859</ele>
        <time>2020-02-08T08:41:05.000Z</time>
      </trkpt>
      <trkpt lat="45.29732" lon="6.1963">
        <ele>1517.5999755859</ele>
        <time>2020-02-08T08:41:07.000Z</time>
      </trkpt>
      <trkpt lat="45.29732" lon="6.19629">
        <ele>1517.8000488281</ele>
        <time>2020-02-08T08:41:09.000Z</time>
      </trkpt>
      <trkpt lat="45.29735" lon="6.19625">
        <ele>1518.1999511719</ele>
        <time>2020-02-08T08:41:13.000Z</time>
      </trkpt>
      <trkpt lat="45.29737" lon="6.19624">
        <ele>1518.4000244141</ele>
        <time>2020-02-08T08:41:15.000Z</time>
      </trkpt>
      <trkpt lat="45.29743" lon="6.19616">
        <ele>1518.8000488281</ele>
        <time>2020-02-08T08:41:21.000Z</time>
      </trkpt>
      <trkpt lat="45.29756" lon="6.19622">
        <ele>1519</ele>
        <time>2020-02-08T08:41:27.000Z</time>
      </trkpt>
      <trkpt lat="45.2976" lon="6.19618">
        <ele>1519</ele>
        <time>2020-02-08T08:41:30.000Z</time>
      </trkpt>
      <trkpt lat="45.29762" lon="6.19616">
        <ele>1518.5999755859</ele>
        <time>2020-02-08T08:41:32.000Z</time>
      </trkpt>
      <trkpt lat="45.29763" lon="6.19613">
        <ele>1517.8000488281</ele>
        <time>2020-02-08T08:41:35.000Z</time>
      </trkpt>
      <trkpt lat="45.29763" lon="6.19612">
        <ele>1517.5999755859</ele>
        <time>2020-02-08T08:41:37.000Z</time>
      </trkpt>
      <trkpt lat="45.29763" lon="6.19608">
        <ele>1517.8000488281</ele>
        <time>2020-02-08T08:41:42.000Z</time>
      </trkpt>
      <trkpt lat="45.29765" lon="6.19602">
        <ele>1518.4000244141</ele>
        <time>2020-02-08T08:41:47.000Z</time>
      </trkpt>
      <trkpt lat="45.29765" lon="6.19593">
        <ele>1518.4000244141</ele>
        <time>2020-02-08T08:41:52.000Z</time>
      </trkpt>
      <trkpt lat="45.29768" lon="6.19589">
        <ele>1518.4000244141</ele>
        <time>2020-02-08T08:41:55.000Z</time>
      </trkpt>
      <trkpt lat="45.29769" lon="6.19587">
        <ele>1518</ele>
        <time>2020-02-08T08:41:57.000Z</time>
      </trkpt>
      <trkpt lat="45.29772" lon="6.19581">
        <ele>1518.4000244141</ele>
        <time>2020-02-08T08:42:03.000Z</time>
      </trkpt>
      <trkpt lat="45.29774" lon="6.19574">
        <ele>1518.8000488281</ele>
        <time>2020-02-08T08:42:09.000Z</time>
      </trkpt>
      <trkpt lat="45.29775" lon="6.19564">
        <ele>1519</ele>
        <time>2020-02-08T08:42:16.000Z</time>
      </trkpt>
      <trkpt lat="45.29779" lon="6.19559">
        <ele>1518.5999755859</ele>
        <time>2020-02-08T08:42:21.000Z</time>
      </trkpt>
      <trkpt lat="45.29783" lon="6.19554">
        <ele>1519.1999511719</ele>
        <time>2020-02-08T08:42:26.000Z</time>
      </trkpt>
      <trkpt lat="45.29788" lon="6.19547">
        <ele>1520</ele>
        <time>2020-02-08T08:42:31.000Z</time>
      </trkpt>
      <trkpt lat="45.29789" lon="6.19546">
        <ele>1520.1999511719</ele>
        <time>2020-02-08T08:42:32.000Z</time>
      </trkpt>
      <trkpt lat="45.29793" lon="6.19539">
        <ele>1520.8000488281</ele>
        <time>2020-02-08T08:42:36.000Z</time>
      </trkpt>
      <trkpt lat="45.29794" lon="6.19532">
        <ele>1521.1999511719</ele>
        <time>2020-02-08T08:42:41.000Z</time>
      </trkpt>
      <trkpt lat="45.29796" lon="6.19527">
        <ele>1521.1999511719</ele>
        <time>2020-02-08T08:42:45.000Z</time>
      </trkpt>
      <trkpt lat="45.29798" lon="6.19526">
        <ele>1521</ele>
        <time>2020-02-08T08:42:46.000Z</time>
      </trkpt>
      <trkpt lat="45.29803" lon="6.19518">
        <ele>1521.4000244141</ele>
        <time>2020-02-08T08:42:52.000Z</time>
      </trkpt>
      <trkpt lat="45.29804" lon="6.19517">
        <ele>1521.5999755859</ele>
        <time>2020-02-08T08:42:53.000Z</time>
      </trkpt>
      <trkpt lat="45.29806" lon="6.19514">
        <ele>1522.1999511719</ele>
        <time>2020-02-08T08:42:57.000Z</time>
      </trkpt>
      <trkpt lat="45.29806" lon="6.19513">
        <ele>1522.4000244141</ele>
        <time>2020-02-08T08:42:58.000Z</time>
      </trkpt>
      <trkpt lat="45.29809" lon="6.19509">
        <ele>1522.8000488281</ele>
        <time>2020-02-08T08:43:02.000Z</time>
      </trkpt>
      <trkpt lat="45.29812" lon="6.19506">
        <ele>1523</ele>
        <time>2020-02-08T08:43:05.000Z</time>
      </trkpt>
      <trkpt lat="45.29812" lon="6.19505">
        <ele>1523</ele>
        <time>2020-02-08T08:43:07.000Z</time>
      </trkpt>
      <trkpt lat="45.29815" lon="6.195">
        <ele>1523.4000244141</ele>
        <time>2020-02-08T08:43:11.000Z</time>
      </trkpt>
      <trkpt lat="45.29816" lon="6.19499">
        <ele>1523.4000244141</ele>
        <time>2020-02-08T08:43:12.000Z</time>
      </trkpt>
      <trkpt lat="45.29822" lon="6.19493">
        <ele>1524</ele>
        <time>2020-02-08T08:43:18.000Z</time>
      </trkpt>
      <trkpt lat="45.29825" lon="6.19489">
        <ele>1524.1999511719</ele>
        <time>2020-02-08T08:43:23.000Z</time>
      </trkpt>
      <trkpt lat="45.29831" lon="6.19481">
        <ele>1524</ele>
        <time>2020-02-08T08:43:29.000Z</time>
      </trkpt>
      <trkpt lat="45.29837" lon="6.19473">
        <ele>1523.5999755859</ele>
        <time>2020-02-08T08:43:35.000Z</time>
      </trkpt>
      <trkpt lat="45.29845" lon="6.19466">
        <ele>1523.1999511719</ele>
        <time>2020-02-08T08:43:40.000Z</time>
      </trkpt>
      <trkpt lat="45.29846" lon="6.19464">
        <ele>1523</ele>
        <time>2020-02-08T08:43:41.000Z</time>
      </trkpt>
      <trkpt lat="45.29848" lon="6.1946">
        <ele>1523</ele>
        <time>2020-02-08T08:43:45.000Z</time>
      </trkpt>
      <trkpt lat="45.29849" lon="6.19454">
        <ele>1523.1999511719</ele>
        <time>2020-02-08T08:43:50.000Z</time>
      </trkpt>
      <trkpt lat="45.29853" lon="6.1945">
        <ele>1523.1999511719</ele>
        <time>2020-02-08T08:43:55.000Z</time>
      </trkpt>
      <trkpt lat="45.29855" lon="6.19446">
        <ele>1523.8000488281</ele>
        <time>2020-02-08T08:43:59.000Z</time>
      </trkpt>
      <trkpt lat="45.29857" lon="6.19443">
        <ele>1524.1999511719</ele>
        <time>2020-02-08T08:44:03.000Z</time>
      </trkpt>
      <trkpt lat="45.29858" lon="6.19437">
        <ele>1524.1999511719</ele>
        <time>2020-02-08T08:44:10.000Z</time>
      </trkpt>
      <trkpt lat="45.29861" lon="6.19429">
        <ele>1523.8000488281</ele>
        <time>2020-02-08T08:44:17.000Z</time>
      </trkpt>
      <trkpt lat="45.29867" lon="6.19422">
        <ele>1523.5999755859</ele>
        <time>2020-02-08T08:44:23.000Z</time>
      </trkpt>
      <trkpt lat="45.29871" lon="6.19418">
        <ele>1524</ele>
        <time>2020-02-08T08:44:28.000Z</time>
      </trkpt>
      <trkpt lat="45.29874" lon="6.19412">
        <ele>1524.1999511719</ele>
        <time>2020-02-08T08:44:34.000Z</time>
      </trkpt>
      <trkpt lat="45.29877" lon="6.19405">
        <ele>1524</ele>
        <time>2020-02-08T08:44:40.000Z</time>
      </trkpt>
      <trkpt lat="45.29879" lon="6.19398">
        <ele>1524.1999511719</ele>
        <time>2020-02-08T08:44:45.000Z</time>
      </trkpt>
      <trkpt lat="45.29882" lon="6.19389">
        <ele>1524.4000244141</ele>
        <time>2020-02-08T08:44:51.000Z</time>
      </trkpt>
      <trkpt lat="45.29883" lon="6.19385">
        <ele>1524.8000488281</ele>
        <time>2020-02-08T08:44:55.000Z</time>
      </trkpt>
      <trkpt lat="45.29884" lon="6.1938">
        <ele>1524.8000488281</ele>
        <time>2020-02-08T08:45:00.000Z</time>
      </trkpt>
      <trkpt lat="45.29883" lon="6.19374">
        <ele>1524.5999755859</ele>
        <time>2020-02-08T08:45:06.000Z</time>
      </trkpt>
      <trkpt lat="45.29884" lon="6.19368">
        <ele>1524.8000488281</ele>
        <time>2020-02-08T08:45:11.000Z</time>
      </trkpt>
      <trkpt lat="45.29886" lon="6.19365">
        <ele>1524.5999755859</ele>
        <time>2020-02-08T08:45:13.000Z</time>
      </trkpt>
      <trkpt lat="45.29887" lon="6.19363">
        <ele>1524.5999755859</ele>
        <time>2020-02-08T08:45:15.000Z</time>
      </trkpt>
      <trkpt lat="45.29889" lon="6.19357">
        <ele>1525</ele>
        <time>2020-02-08T08:45:21.000Z</time>
      </trkpt>
      <trkpt lat="45.29889" lon="6.1935">
        <ele>1524.8000488281</ele>
        <time>2020-02-08T08:45:26.000Z</time>
      </trkpt>
      <trkpt lat="45.2989" lon="6.19345">
        <ele>1524.5999755859</ele>
        <time>2020-02-08T08:45:30.000Z</time>
      </trkpt>
      <trkpt lat="45.2989" lon="6.19344">
        <ele>1524.5999755859</ele>
        <time>2020-02-08T08:45:31.000Z</time>
      </trkpt>
      <trkpt lat="45.29891" lon="6.19337">
        <ele>1524.4000244141</ele>
        <time>2020-02-08T08:45:35.000Z</time>
      </trkpt>
      <trkpt lat="45.29893" lon="6.1933">
        <ele>1524.8000488281</ele>
        <time>2020-02-08T08:45:40.000Z</time>
      </trkpt>
      <trkpt lat="45.29896" lon="6.19322">
        <ele>1525.1999511719</ele>
        <time>2020-02-08T08:45:45.000Z</time>
      </trkpt>
      <trkpt lat="45.29896" lon="6.19318">
        <ele>1525.4000244141</ele>
        <time>2020-02-08T08:45:49.000Z</time>
      </trkpt>
      <trkpt lat="45.29896" lon="6.19317">
        <ele>1525.5999755859</ele>
        <time>2020-02-08T08:45:50.000Z</time>
      </trkpt>
      <trkpt lat="45.29896" lon="6.1931">
        <ele>1526</ele>
        <time>2020-02-08T08:45:55.000Z</time>
      </trkpt>
      <trkpt lat="45.29896" lon="6.19306">
        <ele>1526.8000488281</ele>
        <time>2020-02-08T08:45:58.000Z</time>
      </trkpt>
      <trkpt lat="45.29897" lon="6.19303">
        <ele>1527.4000244141</ele>
        <time>2020-02-08T08:46:00.000Z</time>
      </trkpt>
      <trkpt lat="45.29899" lon="6.19298">
        <ele>1527.5999755859</ele>
        <time>2020-02-08T08:46:05.000Z</time>
      </trkpt>
      <trkpt lat="45.29899" lon="6.19296">
        <ele>1527.8000488281</ele>
        <time>2020-02-08T08:46:06.000Z</time>
      </trkpt>
      <trkpt lat="45.29902" lon="6.1929">
        <ele>1528.5999755859</ele>
        <time>2020-02-08T08:46:11.000Z</time>
      </trkpt>
      <trkpt lat="45.29905" lon="6.19283">
        <ele>1528.8000488281</ele>
        <time>2020-02-08T08:46:16.000Z</time>
      </trkpt>
      <trkpt lat="45.29907" lon="6.19276">
        <ele>1529.1999511719</ele>
        <time>2020-02-08T08:46:22.000Z</time>
      </trkpt>
      <trkpt lat="45.2991" lon="6.19269">
        <ele>1529.8000488281</ele>
        <time>2020-02-08T08:46:28.000Z</time>
      </trkpt>
      <trkpt lat="45.29912" lon="6.19262">
        <ele>1530</ele>
        <time>2020-02-08T08:46:32.000Z</time>
      </trkpt>
      <trkpt lat="45.29912" lon="6.19259">
        <ele>1530.1999511719</ele>
        <time>2020-02-08T08:46:34.000Z</time>
      </trkpt>
      <trkpt lat="45.29915" lon="6.19254">
        <ele>1530.5999755859</ele>
        <time>2020-02-08T08:46:39.000Z</time>
      </trkpt>
      <trkpt lat="45.29918" lon="6.19249">
        <ele>1531</ele>
        <time>2020-02-08T08:46:43.000Z</time>
      </trkpt>
      <trkpt lat="45.29919" lon="6.19247">
        <ele>1531.4000244141</ele>
        <time>2020-02-08T08:46:45.000Z</time>
      </trkpt>
      <trkpt lat="45.2992" lon="6.19245">
        <ele>1531.4000244141</ele>
        <time>2020-02-08T08:46:46.000Z</time>
      </trkpt>
      <trkpt lat="45.29921" lon="6.19242">
        <ele>1531.8000488281</ele>
        <time>2020-02-08T08:46:48.000Z</time>
      </trkpt>
      <trkpt lat="45.29921" lon="6.19241">
        <ele>1532</ele>
        <time>2020-02-08T08:46:50.000Z</time>
      </trkpt>
      <trkpt lat="45.29923" lon="6.19237">
        <ele>1532.1999511719</ele>
        <time>2020-02-08T08:46:53.000Z</time>
      </trkpt>
      <trkpt lat="45.29925" lon="6.19235">
        <ele>1532.4000244141</ele>
        <time>2020-02-08T08:46:54.000Z</time>
      </trkpt>
      <trkpt lat="45.29925" lon="6.19234">
        <ele>1532.4000244141</ele>
        <time>2020-02-08T08:46:55.000Z</time>
      </trkpt>
      <trkpt lat="45.29926" lon="6.1923">
        <ele>1533</ele>
        <time>2020-02-08T08:47:00.000Z</time>
      </trkpt>
      <trkpt lat="45.29927" lon="6.19228">
        <ele>1533.1999511719</ele>
        <time>2020-02-08T08:47:01.000Z</time>
      </trkpt>
      <trkpt lat="45.29929" lon="6.19223">
        <ele>1533.8000488281</ele>
        <time>2020-02-08T08:47:04.000Z</time>
      </trkpt>
      <trkpt lat="45.2993" lon="6.19213">
        <ele>1533.8000488281</ele>
        <time>2020-02-08T08:47:10.000Z</time>
      </trkpt>
      <trkpt lat="45.29928" lon="6.19208">
        <ele>1534</ele>
        <time>2020-02-08T08:47:15.000Z</time>
      </trkpt>
      <trkpt lat="45.29928" lon="6.19205">
        <ele>1534.4000244141</ele>
        <time>2020-02-08T08:47:17.000Z</time>
      </trkpt>
      <trkpt lat="45.29927" lon="6.19202">
        <ele>1534.5999755859</ele>
        <time>2020-02-08T08:47:19.000Z</time>
      </trkpt>
      <trkpt lat="45.29928" lon="6.19199">
        <ele>1534.8000488281</ele>
        <time>2020-02-08T08:47:21.000Z</time>
      </trkpt>
      <trkpt lat="45.29928" lon="6.19197">
        <ele>1535</ele>
        <time>2020-02-08T08:47:23.000Z</time>
      </trkpt>
      <trkpt lat="45.29928" lon="6.19194">
        <ele>1535.4000244141</ele>
        <time>2020-02-08T08:47:26.000Z</time>
      </trkpt>
      <trkpt lat="45.29928" lon="6.19192">
        <ele>1535.8000488281</ele>
        <time>2020-02-08T08:47:28.000Z</time>
      </trkpt>
      <trkpt lat="45.29927" lon="6.19186">
        <ele>1536.5999755859</ele>
        <time>2020-02-08T08:47:33.000Z</time>
      </trkpt>
      <trkpt lat="45.29926" lon="6.19182">
        <ele>1537</ele>
        <time>2020-02-08T08:47:37.000Z</time>
      </trkpt>
      <trkpt lat="45.29926" lon="6.19175">
        <ele>1537.4000244141</ele>
        <time>2020-02-08T08:47:42.000Z</time>
      </trkpt>
      <trkpt lat="45.29927" lon="6.19173">
        <ele>1537.5999755859</ele>
        <time>2020-02-08T08:47:43.000Z</time>
      </trkpt>
      <trkpt lat="45.29927" lon="6.19172">
        <ele>1537.8000488281</ele>
        <time>2020-02-08T08:47:44.000Z</time>
      </trkpt>
      <trkpt lat="45.29928" lon="6.19172">
        <ele>1538</ele>
        <time>2020-02-08T08:47:46.000Z</time>
      </trkpt>
      <trkpt lat="45.29929" lon="6.19166">
        <ele>1538.8000488281</ele>
        <time>2020-02-08T08:47:50.000Z</time>
      </trkpt>
      <trkpt lat="45.2993" lon="6.19164">
        <ele>1539</ele>
        <time>2020-02-08T08:47:51.000Z</time>
      </trkpt>
      <trkpt lat="45.2993" lon="6.1916">
        <ele>1539.1999511719</ele>
        <time>2020-02-08T08:47:55.000Z</time>
      </trkpt>
      <trkpt lat="45.29931" lon="6.19154">
        <ele>1539.5999755859</ele>
        <time>2020-02-08T08:47:59.000Z</time>
      </trkpt>
      <trkpt lat="45.29931" lon="6.19154">
        <ele>1539.8000488281</ele>
        <time>2020-02-08T08:48:00.000Z</time>
      </trkpt>
      <trkpt lat="45.29931" lon="6.19153">
        <ele>1539.8000488281</ele>
        <time>2020-02-08T08:48:01.000Z</time>
      </trkpt>
      <trkpt lat="45.29934" lon="6.19148">
        <ele>1540.1999511719</ele>
        <time>2020-02-08T08:48:05.000Z</time>
      </trkpt>
      <trkpt lat="45.29937" lon="6.19142">
        <ele>1540.5999755859</ele>
        <time>2020-02-08T08:48:10.000Z</time>
      </trkpt>
      <trkpt lat="45.2994" lon="6.19135">
        <ele>1540.8000488281</ele>
        <time>2020-02-08T08:48:15.000Z</time>
      </trkpt>
      <trkpt lat="45.2994" lon="6.19131">
        <ele>1540.8000488281</ele>
        <time>2020-02-08T08:48:18.000Z</time>
      </trkpt>
      <trkpt lat="45.2994" lon="6.19131">
        <ele>1540.8000488281</ele>
        <time>2020-02-08T08:48:19.000Z</time>
      </trkpt>
      <trkpt lat="45.2994" lon="6.19129">
        <ele>1540.8000488281</ele>
        <time>2020-02-08T08:48:20.000Z</time>
      </trkpt>
      <trkpt lat="45.2994" lon="6.19129">
        <ele>1540.8000488281</ele>
        <time>2020-02-08T08:48:21.000Z</time>
      </trkpt>
      <trkpt lat="45.29941" lon="6.19125">
        <ele>1541.1999511719</ele>
        <time>2020-02-08T08:48:23.000Z</time>
      </trkpt>
      <trkpt lat="45.29944" lon="6.19119">
        <ele>1541.8000488281</ele>
        <time>2020-02-08T08:48:29.000Z</time>
      </trkpt>
      <trkpt lat="45.29944" lon="6.19116">
        <ele>1541.8000488281</ele>
        <time>2020-02-08T08:48:31.000Z</time>
      </trkpt>
      <trkpt lat="45.29945" lon="6.19115">
        <ele>1542</ele>
        <time>2020-02-08T08:48:34.000Z</time>
      </trkpt>
      <trkpt lat="45.29945" lon="6.19109">
        <ele>1542</ele>
        <time>2020-02-08T08:48:38.000Z</time>
      </trkpt>
      <trkpt lat="45.29944" lon="6.19109">
        <ele>1542</ele>
        <time>2020-02-08T08:48:39.000Z</time>
      </trkpt>
      <trkpt lat="45.29944" lon="6.19104">
        <ele>1542</ele>
        <time>2020-02-08T08:48:43.000Z</time>
      </trkpt>
      <trkpt lat="45.29946" lon="6.19098">
        <ele>1542</ele>
        <time>2020-02-08T08:48:48.000Z</time>
      </trkpt>
      <trkpt lat="45.29948" lon="6.19091">
        <ele>1542.4000244141</ele>
        <time>2020-02-08T08:48:53.000Z</time>
      </trkpt>
      <trkpt lat="45.29948" lon="6.19085">
        <ele>1542.8000488281</ele>
        <time>2020-02-08T08:48:59.000Z</time>
      </trkpt>
      <trkpt lat="45.29948" lon="6.19084">
        <ele>1543</ele>
        <time>2020-02-08T08:49:01.000Z</time>
      </trkpt>
      <trkpt lat="45.2995" lon="6.19079">
        <ele>1543.5999755859</ele>
        <time>2020-02-08T08:49:05.000Z</time>
      </trkpt>
      <trkpt lat="45.29952" lon="6.19074">
        <ele>1543.8000488281</ele>
        <time>2020-02-08T08:49:11.000Z</time>
      </trkpt>
      <trkpt lat="45.29953" lon="6.19069">
        <ele>1543.8000488281</ele>
        <time>2020-02-08T08:49:16.000Z</time>
      </trkpt>
      <trkpt lat="45.29954" lon="6.19066">
        <ele>1543.8000488281</ele>
        <time>2020-02-08T08:49:17.000Z</time>
      </trkpt>
      <trkpt lat="45.29955" lon="6.19063">
        <ele>1543.8000488281</ele>
        <time>2020-02-08T08:49:20.000Z</time>
      </trkpt>
      <trkpt lat="45.29953" lon="6.19058">
        <ele>1544</ele>
        <time>2020-02-08T08:49:25.000Z</time>
      </trkpt>
      <trkpt lat="45.29954" lon="6.19054">
        <ele>1544.8000488281</ele>
        <time>2020-02-08T08:49:31.000Z</time>
      </trkpt>
      <trkpt lat="45.29954" lon="6.19052">
        <ele>1545</ele>
        <time>2020-02-08T08:49:34.000Z</time>
      </trkpt>
      <trkpt lat="45.29955" lon="6.19048">
        <ele>1545.5999755859</ele>
        <time>2020-02-08T08:49:37.000Z</time>
      </trkpt>
      <trkpt lat="45.29956" lon="6.19044">
        <ele>1546.1999511719</ele>
        <time>2020-02-08T08:49:41.000Z</time>
      </trkpt>
      <trkpt lat="45.29956" lon="6.19042">
        <ele>1546.4000244141</ele>
        <time>2020-02-08T08:49:42.000Z</time>
      </trkpt>
      <trkpt lat="45.29956" lon="6.19039">
        <ele>1546.4000244141</ele>
        <time>2020-02-08T08:49:44.000Z</time>
      </trkpt>
      <trkpt lat="45.29957" lon="6.19039">
        <ele>1546.4000244141</ele>
        <time>2020-02-08T08:49:46.000Z</time>
      </trkpt>
      <trkpt lat="45.29959" lon="6.19033">
        <ele>1547</ele>
        <time>2020-02-08T08:49:51.000Z</time>
      </trkpt>
      <trkpt lat="45.2996" lon="6.19033">
        <ele>1547.1999511719</ele>
        <time>2020-02-08T08:49:52.000Z</time>
      </trkpt>
      <trkpt lat="45.29962" lon="6.19026">
        <ele>1548</ele>
        <time>2020-02-08T08:49:56.000Z</time>
      </trkpt>
      <trkpt lat="45.29964" lon="6.19023">
        <ele>1548.4000244141</ele>
        <time>2020-02-08T08:50:00.000Z</time>
      </trkpt>
      <trkpt lat="45.29965" lon="6.19022">
        <ele>1548.4000244141</ele>
        <time>2020-02-08T08:50:01.000Z</time>
      </trkpt>
      <trkpt lat="45.29967" lon="6.19018">
        <ele>1548.8000488281</ele>
        <time>2020-02-08T08:50:05.000Z</time>
      </trkpt>
      <trkpt lat="45.29968" lon="6.19016">
        <ele>1549</ele>
        <time>2020-02-08T08:50:06.000Z</time>
      </trkpt>
      <trkpt lat="45.2997" lon="6.19013">
        <ele>1549.4000244141</ele>
        <time>2020-02-08T08:50:09.000Z</time>
      </trkpt>
      <trkpt lat="45.29971" lon="6.19009">
        <ele>1549.5999755859</ele>
        <time>2020-02-08T08:50:14.000Z</time>
      </trkpt>
      <trkpt lat="45.29972" lon="6.19003">
        <ele>1550.1999511719</ele>
        <time>2020-02-08T08:50:19.000Z</time>
      </trkpt>
      <trkpt lat="45.29973" lon="6.19001">
        <ele>1550.4000244141</ele>
        <time>2020-02-08T08:50:20.000Z</time>
      </trkpt>
      <trkpt lat="45.29972" lon="6.18999">
        <ele>1550.4000244141</ele>
        <time>2020-02-08T08:50:23.000Z</time>
      </trkpt>
      <trkpt lat="45.29972" lon="6.18996">
        <ele>1550.4000244141</ele>
        <time>2020-02-08T08:50:25.000Z</time>
      </trkpt>
      <trkpt lat="45.29972" lon="6.18994">
        <ele>1550.1999511719</ele>
        <time>2020-02-08T08:50:28.000Z</time>
      </trkpt>
      <trkpt lat="45.29975" lon="6.1899">
        <ele>1550.5999755859</ele>
        <time>2020-02-08T08:50:32.000Z</time>
      </trkpt>
      <trkpt lat="45.29977" lon="6.18988">
        <ele>1550.8000488281</ele>
        <time>2020-02-08T08:50:34.000Z</time>
      </trkpt>
      <trkpt lat="45.29979" lon="6.18983">
        <ele>1551.1999511719</ele>
        <time>2020-02-08T08:50:39.000Z</time>
      </trkpt>
      <trkpt lat="45.29981" lon="6.18981">
        <ele>1551.4000244141</ele>
        <time>2020-02-08T08:50:41.000Z</time>
      </trkpt>
      <trkpt lat="45.29982" lon="6.18979">
        <ele>1551.5999755859</ele>
        <time>2020-02-08T08:50:43.000Z</time>
      </trkpt>
      <trkpt lat="45.29982" lon="6.18976">
        <ele>1552.4000244141</ele>
        <time>2020-02-08T08:50:48.000Z</time>
      </trkpt>
      <trkpt lat="45.29982" lon="6.18973">
        <ele>1552.5999755859</ele>
        <time>2020-02-08T08:50:50.000Z</time>
      </trkpt>
      <trkpt lat="45.29983" lon="6.18969">
        <ele>1552.5999755859</ele>
        <time>2020-02-08T08:50:54.000Z</time>
      </trkpt>
      <trkpt lat="45.29988" lon="6.18964">
        <ele>1553</ele>
        <time>2020-02-08T08:50:59.000Z</time>
      </trkpt>
      <trkpt lat="45.2999" lon="6.18962">
        <ele>1553.5999755859</ele>
        <time>2020-02-08T08:51:03.000Z</time>
      </trkpt>
      <trkpt lat="45.29992" lon="6.1896">
        <ele>1553.8000488281</ele>
        <time>2020-02-08T08:51:05.000Z</time>
      </trkpt>
      <trkpt lat="45.29992" lon="6.18959">
        <ele>1554.5999755859</ele>
        <time>2020-02-08T08:51:10.000Z</time>
      </trkpt>
      <trkpt lat="45.29993" lon="6.18957">
        <ele>1555.1999511719</ele>
        <time>2020-02-08T08:51:12.000Z</time>
      </trkpt>
      <trkpt lat="45.29995" lon="6.18956">
        <ele>1555.1999511719</ele>
        <time>2020-02-08T08:51:14.000Z</time>
      </trkpt>
      <trkpt lat="45.29996" lon="6.18955">
        <ele>1555.1999511719</ele>
        <time>2020-02-08T08:51:16.000Z</time>
      </trkpt>
      <trkpt lat="45.29999" lon="6.18951">
        <ele>1555.5999755859</ele>
        <time>2020-02-08T08:51:20.000Z</time>
      </trkpt>
      <trkpt lat="45.3" lon="6.18951">
        <ele>1555.8000488281</ele>
        <time>2020-02-08T08:51:21.000Z</time>
      </trkpt>
      <trkpt lat="45.30004" lon="6.18946">
        <ele>1556.5999755859</ele>
        <time>2020-02-08T08:51:26.000Z</time>
      </trkpt>
      <trkpt lat="45.30004" lon="6.18946">
        <ele>1556.8000488281</ele>
        <time>2020-02-08T08:51:27.000Z</time>
      </trkpt>
      <trkpt lat="45.30006" lon="6.18943">
        <ele>1557.4000244141</ele>
        <time>2020-02-08T08:51:31.000Z</time>
      </trkpt>
      <trkpt lat="45.30006" lon="6.18942">
        <ele>1558</ele>
        <time>2020-02-08T08:51:34.000Z</time>
      </trkpt>
      <trkpt lat="45.30007" lon="6.18939">
        <ele>1558.5999755859</ele>
        <time>2020-02-08T08:51:36.000Z</time>
      </trkpt>
      <trkpt lat="45.30009" lon="6.18936">
        <ele>1559</ele>
        <time>2020-02-08T08:51:40.000Z</time>
      </trkpt>
      <trkpt lat="45.3001" lon="6.18934">
        <ele>1559.1999511719</ele>
        <time>2020-02-08T08:51:41.000Z</time>
      </trkpt>
      <trkpt lat="45.30015" lon="6.1893">
        <ele>1559.8000488281</ele>
        <time>2020-02-08T08:51:46.000Z</time>
      </trkpt>
      <trkpt lat="45.30016" lon="6.18929">
        <ele>1560</ele>
        <time>2020-02-08T08:51:47.000Z</time>
      </trkpt>
      <trkpt lat="45.30017" lon="6.18925">
        <ele>1561</ele>
        <time>2020-02-08T08:51:51.000Z</time>
      </trkpt>
      <trkpt lat="45.30017" lon="6.18925">
        <ele>1561.1999511719</ele>
        <time>2020-02-08T08:51:52.000Z</time>
      </trkpt>
      <trkpt lat="45.30019" lon="6.18922">
        <ele>1561.5999755859</ele>
        <time>2020-02-08T08:51:55.000Z</time>
      </trkpt>
      <trkpt lat="45.30023" lon="6.18919">
        <ele>1562.1999511719</ele>
        <time>2020-02-08T08:51:59.000Z</time>
      </trkpt>
      <trkpt lat="45.30023" lon="6.18919">
        <ele>1562.5999755859</ele>
        <time>2020-02-08T08:52:01.000Z</time>
      </trkpt>
      <trkpt lat="45.30025" lon="6.18914">
        <ele>1563.4000244141</ele>
        <time>2020-02-08T08:52:04.000Z</time>
      </trkpt>
      <trkpt lat="45.30026" lon="6.18912">
        <ele>1564</ele>
        <time>2020-02-08T08:52:06.000Z</time>
      </trkpt>
      <trkpt lat="45.30024" lon="6.18906">
        <ele>1564.8000488281</ele>
        <time>2020-02-08T08:52:11.000Z</time>
      </trkpt>
      <trkpt lat="45.30023" lon="6.18902">
        <ele>1565.8000488281</ele>
        <time>2020-02-08T08:52:15.000Z</time>
      </trkpt>
      <trkpt lat="45.30022" lon="6.18897">
        <ele>1566.8000488281</ele>
        <time>2020-02-08T08:52:20.000Z</time>
      </trkpt>
      <trkpt lat="45.30023" lon="6.18895">
        <ele>1567</ele>
        <time>2020-02-08T08:52:21.000Z</time>
      </trkpt>
      <trkpt lat="45.30024" lon="6.18891">
        <ele>1568.1999511719</ele>
        <time>2020-02-08T08:52:26.000Z</time>
      </trkpt>
      <trkpt lat="45.30022" lon="6.18889">
        <ele>1568.8000488281</ele>
        <time>2020-02-08T08:52:30.000Z</time>
      </trkpt>
      <trkpt lat="45.30024" lon="6.18885">
        <ele>1569.1999511719</ele>
        <time>2020-02-08T08:52:33.000Z</time>
      </trkpt>
      <trkpt lat="45.30023" lon="6.18884">
        <ele>1569.4000244141</ele>
        <time>2020-02-08T08:52:36.000Z</time>
      </trkpt>
      <trkpt lat="45.3002" lon="6.18879">
        <ele>1570.1999511719</ele>
        <time>2020-02-08T08:52:40.000Z</time>
      </trkpt>
      <trkpt lat="45.3002" lon="6.18878">
        <ele>1570.8000488281</ele>
        <time>2020-02-08T08:52:42.000Z</time>
      </trkpt>
      <trkpt lat="45.3002" lon="6.18875">
        <ele>1571.4000244141</ele>
        <time>2020-02-08T08:52:44.000Z</time>
      </trkpt>
      <trkpt lat="45.30022" lon="6.18872">
        <ele>1571.8000488281</ele>
        <time>2020-02-08T08:52:47.000Z</time>
      </trkpt>
      <trkpt lat="45.30024" lon="6.1887">
        <ele>1572.4000244141</ele>
        <time>2020-02-08T08:52:50.000Z</time>
      </trkpt>
      <trkpt lat="45.30026" lon="6.18867">
        <ele>1572.5999755859</ele>
        <time>2020-02-08T08:52:52.000Z</time>
      </trkpt>
      <trkpt lat="45.30023" lon="6.18864">
        <ele>1573</ele>
        <time>2020-02-08T08:52:57.000Z</time>
      </trkpt>
      <trkpt lat="45.30021" lon="6.18861">
        <ele>1573.5999755859</ele>
        <time>2020-02-08T08:52:59.000Z</time>
      </trkpt>
      <trkpt lat="45.3002" lon="6.18859">
        <ele>1574</ele>
        <time>2020-02-08T08:53:02.000Z</time>
      </trkpt>
      <trkpt lat="45.3002" lon="6.18853">
        <ele>1574.5999755859</ele>
        <time>2020-02-08T08:53:06.000Z</time>
      </trkpt>
      <trkpt lat="45.30019" lon="6.18848">
        <ele>1575.1999511719</ele>
        <time>2020-02-08T08:53:11.000Z</time>
      </trkpt>
      <trkpt lat="45.30019" lon="6.18843">
        <ele>1575.8000488281</ele>
        <time>2020-02-08T08:53:14.000Z</time>
      </trkpt>
      <trkpt lat="45.30019" lon="6.18843">
        <ele>1576</ele>
        <time>2020-02-08T08:53:16.000Z</time>
      </trkpt>
      <trkpt lat="45.30021" lon="6.18839">
        <ele>1576.1999511719</ele>
        <time>2020-02-08T08:53:22.000Z</time>
      </trkpt>
      <trkpt lat="45.30023" lon="6.18836">
        <ele>1576.1999511719</ele>
        <time>2020-02-08T08:53:26.000Z</time>
      </trkpt>
      <trkpt lat="45.30026" lon="6.18832">
        <ele>1577</ele>
        <time>2020-02-08T08:53:29.000Z</time>
      </trkpt>
      <trkpt lat="45.30027" lon="6.18831">
        <ele>1577.4000244141</ele>
        <time>2020-02-08T08:53:31.000Z</time>
      </trkpt>
      <trkpt lat="45.30028" lon="6.18829">
        <ele>1578</ele>
        <time>2020-02-08T08:53:34.000Z</time>
      </trkpt>
      <trkpt lat="45.30029" lon="6.18827">
        <ele>1578.1999511719</ele>
        <time>2020-02-08T08:53:35.000Z</time>
      </trkpt>
      <trkpt lat="45.30029" lon="6.18825">
        <ele>1579.1999511719</ele>
        <time>2020-02-08T08:53:40.000Z</time>
      </trkpt>
      <trkpt lat="45.3003" lon="6.18823">
        <ele>1579.4000244141</ele>
        <time>2020-02-08T08:53:42.000Z</time>
      </trkpt>
      <trkpt lat="45.30034" lon="6.18819">
        <ele>1580</ele>
        <time>2020-02-08T08:53:46.000Z</time>
      </trkpt>
      <trkpt lat="45.30034" lon="6.18819">
        <ele>1580.1999511719</ele>
        <time>2020-02-08T08:53:47.000Z</time>
      </trkpt>
      <trkpt lat="45.30035" lon="6.18816">
        <ele>1580.8000488281</ele>
        <time>2020-02-08T08:53:51.000Z</time>
      </trkpt>
      <trkpt lat="45.30035" lon="6.18814">
        <ele>1581.4000244141</ele>
        <time>2020-02-08T08:53:54.000Z</time>
      </trkpt>
      <trkpt lat="45.30036" lon="6.18813">
        <ele>1581.5999755859</ele>
        <time>2020-02-08T08:53:55.000Z</time>
      </trkpt>
      <trkpt lat="45.30035" lon="6.18811">
        <ele>1582.1999511719</ele>
        <time>2020-02-08T08:53:59.000Z</time>
      </trkpt>
      <trkpt lat="45.30035" lon="6.1881">
        <ele>1582.5999755859</ele>
        <time>2020-02-08T08:54:01.000Z</time>
      </trkpt>
      <trkpt lat="45.30037" lon="6.18807">
        <ele>1583.1999511719</ele>
        <time>2020-02-08T08:54:04.000Z</time>
      </trkpt>
      <trkpt lat="45.30037" lon="6.18806">
        <ele>1583.5999755859</ele>
        <time>2020-02-08T08:54:07.000Z</time>
      </trkpt>
      <trkpt lat="45.30037" lon="6.18805">
        <ele>1584</ele>
        <time>2020-02-08T08:54:09.000Z</time>
      </trkpt>
      <trkpt lat="45.30038" lon="6.188">
        <ele>1584.8000488281</ele>
        <time>2020-02-08T08:54:14.000Z</time>
      </trkpt>
      <trkpt lat="45.3004" lon="6.188">
        <ele>1586</ele>
        <time>2020-02-08T08:54:20.000Z</time>
      </trkpt>
      <trkpt lat="45.30041" lon="6.18801">
        <ele>1586.4000244141</ele>
        <time>2020-02-08T08:54:22.000Z</time>
      </trkpt>
      <trkpt lat="45.30042" lon="6.18802">
        <ele>1587</ele>
        <time>2020-02-08T08:54:25.000Z</time>
      </trkpt>
      <trkpt lat="45.30043" lon="6.18803">
        <ele>1587.4000244141</ele>
        <time>2020-02-08T08:54:27.000Z</time>
      </trkpt>
      <trkpt lat="45.30046" lon="6.18806">
        <ele>1588.1999511719</ele>
        <time>2020-02-08T08:54:32.000Z</time>
      </trkpt>
      <trkpt lat="45.30048" lon="6.1881">
        <ele>1589.4000244141</ele>
        <time>2020-02-08T08:54:38.000Z</time>
      </trkpt>
      <trkpt lat="45.3005" lon="6.18812">
        <ele>1590.4000244141</ele>
        <time>2020-02-08T08:54:42.000Z</time>
      </trkpt>
      <trkpt lat="45.30052" lon="6.18812">
        <ele>1590.5999755859</ele>
        <time>2020-02-08T08:54:43.000Z</time>
      </trkpt>
      <trkpt lat="45.30052" lon="6.1881">
        <ele>1591.5999755859</ele>
        <time>2020-02-08T08:54:47.000Z</time>
      </trkpt>
      <trkpt lat="45.30052" lon="6.18809">
        <ele>1592.1999511719</ele>
        <time>2020-02-08T08:54:48.000Z</time>
      </trkpt>
      <trkpt lat="45.30052" lon="6.18807">
        <ele>1592.8000488281</ele>
        <time>2020-02-08T08:54:50.000Z</time>
      </trkpt>
      <trkpt lat="45.30054" lon="6.18802">
        <ele>1593.4000244141</ele>
        <time>2020-02-08T08:54:54.000Z</time>
      </trkpt>
      <trkpt lat="45.30055" lon="6.18801">
        <ele>1593.8000488281</ele>
        <time>2020-02-08T08:54:57.000Z</time>
      </trkpt>
      <trkpt lat="45.30055" lon="6.18801">
        <ele>1593.8000488281</ele>
        <time>2020-02-08T08:54:58.000Z</time>
      </trkpt>
      <trkpt lat="45.30058" lon="6.18795">
        <ele>1594.8000488281</ele>
        <time>2020-02-08T08:55:04.000Z</time>
      </trkpt>
      <trkpt lat="45.30058" lon="6.18793">
        <ele>1595.4000244141</ele>
        <time>2020-02-08T08:55:08.000Z</time>
      </trkpt>
      <trkpt lat="45.30059" lon="6.18791">
        <ele>1596</ele>
        <time>2020-02-08T08:55:11.000Z</time>
      </trkpt>
      <trkpt lat="45.30061" lon="6.18787">
        <ele>1596.5999755859</ele>
        <time>2020-02-08T08:55:15.000Z</time>
      </trkpt>
      <trkpt lat="45.30063" lon="6.18785">
        <ele>1596.8000488281</ele>
        <time>2020-02-08T08:55:16.000Z</time>
      </trkpt>
      <trkpt lat="45.30063" lon="6.18785">
        <ele>1597</ele>
        <time>2020-02-08T08:55:17.000Z</time>
      </trkpt>
      <trkpt lat="45.30064" lon="6.18784">
        <ele>1597.4000244141</ele>
        <time>2020-02-08T08:55:19.000Z</time>
      </trkpt>
      <trkpt lat="45.30064" lon="6.18783">
        <ele>1598</ele>
        <time>2020-02-08T08:55:23.000Z</time>
      </trkpt>
      <trkpt lat="45.30064" lon="6.18783">
        <ele>1598.1999511719</ele>
        <time>2020-02-08T08:55:24.000Z</time>
      </trkpt>
      <trkpt lat="45.30064" lon="6.18782">
        <ele>1599.4000244141</ele>
        <time>2020-02-08T08:55:28.000Z</time>
      </trkpt>
      <trkpt lat="45.30064" lon="6.18782">
        <ele>1599.8000488281</ele>
        <time>2020-02-08T08:55:29.000Z</time>
      </trkpt>
      <trkpt lat="45.30064" lon="6.18782">
        <ele>1600.4000244141</ele>
        <time>2020-02-08T08:55:33.000Z</time>
      </trkpt>
      <trkpt lat="45.30066" lon="6.18779">
        <ele>1600</ele>
        <time>2020-02-08T08:55:38.000Z</time>
      </trkpt>
      <trkpt lat="45.30067" lon="6.18776">
        <ele>1600.4000244141</ele>
        <time>2020-02-08T08:55:42.000Z</time>
      </trkpt>
      <trkpt lat="45.30066" lon="6.18773">
        <ele>1601.4000244141</ele>
        <time>2020-02-08T08:55:46.000Z</time>
      </trkpt>
      <trkpt lat="45.3007" lon="6.18768">
        <ele>1602.4000244141</ele>
        <time>2020-02-08T08:55:53.000Z</time>
      </trkpt>
      <trkpt lat="45.30071" lon="6.18766">
        <ele>1602.4000244141</ele>
        <time>2020-02-08T08:55:54.000Z</time>
      </trkpt>
      <trkpt lat="45.30071" lon="6.18765">
        <ele>1603.1999511719</ele>
        <time>2020-02-08T08:55:57.000Z</time>
      </trkpt>
      <trkpt lat="45.30072" lon="6.18764">
        <ele>1603.5999755859</ele>
        <time>2020-02-08T08:55:59.000Z</time>
      </trkpt>
      <trkpt lat="45.30072" lon="6.18762">
        <ele>1604</ele>
        <time>2020-02-08T08:56:02.000Z</time>
      </trkpt>
      <trkpt lat="45.30072" lon="6.18759">
        <ele>1604.1999511719</ele>
        <time>2020-02-08T08:56:03.000Z</time>
      </trkpt>
      <trkpt lat="45.30072" lon="6.18759">
        <ele>1604.4000244141</ele>
        <time>2020-02-08T08:56:05.000Z</time>
      </trkpt>
      <trkpt lat="45.30072" lon="6.18759">
        <ele>1604.5999755859</ele>
        <time>2020-02-08T08:56:06.000Z</time>
      </trkpt>
      <trkpt lat="45.30073" lon="6.18756">
        <ele>1605.5999755859</ele>
        <time>2020-02-08T08:56:11.000Z</time>
      </trkpt>
      <trkpt lat="45.30072" lon="6.18753">
        <ele>1606.8000488281</ele>
        <time>2020-02-08T08:56:16.000Z</time>
      </trkpt>
      <trkpt lat="45.30072" lon="6.18749">
        <ele>1607.1999511719</ele>
        <time>2020-02-08T08:56:19.000Z</time>
      </trkpt>
      <trkpt lat="45.30074" lon="6.18746">
        <ele>1608</ele>
        <time>2020-02-08T08:56:23.000Z</time>
      </trkpt>
      <trkpt lat="45.30074" lon="6.18745">
        <ele>1608.1999511719</ele>
        <time>2020-02-08T08:56:24.000Z</time>
      </trkpt>
      <trkpt lat="45.30072" lon="6.18739">
        <ele>1609</ele>
        <time>2020-02-08T08:56:29.000Z</time>
      </trkpt>
      <trkpt lat="45.30073" lon="6.18739">
        <ele>1609.1999511719</ele>
        <time>2020-02-08T08:56:30.000Z</time>
      </trkpt>
      <trkpt lat="45.30073" lon="6.18735">
        <ele>1610</ele>
        <time>2020-02-08T08:56:35.000Z</time>
      </trkpt>
      <trkpt lat="45.30073" lon="6.18732">
        <ele>1610.1999511719</ele>
        <time>2020-02-08T08:56:36.000Z</time>
      </trkpt>
      <trkpt lat="45.30074" lon="6.18728">
        <ele>1610.8000488281</ele>
        <time>2020-02-08T08:56:41.000Z</time>
      </trkpt>
      <trkpt lat="45.30074" lon="6.18727">
        <ele>1611</ele>
        <time>2020-02-08T08:56:43.000Z</time>
      </trkpt>
      <trkpt lat="45.30074" lon="6.18721">
        <ele>1611.5999755859</ele>
        <time>2020-02-08T08:56:47.000Z</time>
      </trkpt>
      <trkpt lat="45.30073" lon="6.1872">
        <ele>1612.1999511719</ele>
        <time>2020-02-08T08:56:48.000Z</time>
      </trkpt>
      <trkpt lat="45.30075" lon="6.18715">
        <ele>1613</ele>
        <time>2020-02-08T08:56:54.000Z</time>
      </trkpt>
      <trkpt lat="45.30076" lon="6.18714">
        <ele>1613.1999511719</ele>
        <time>2020-02-08T08:56:55.000Z</time>
      </trkpt>
      <trkpt lat="45.30076" lon="6.18711">
        <ele>1614.4000244141</ele>
        <time>2020-02-08T08:57:00.000Z</time>
      </trkpt>
      <trkpt lat="45.30076" lon="6.18709">
        <ele>1614.4000244141</ele>
        <time>2020-02-08T08:57:01.000Z</time>
      </trkpt>
      <trkpt lat="45.30077" lon="6.18704">
        <ele>1615.1999511719</ele>
        <time>2020-02-08T08:57:06.000Z</time>
      </trkpt>
      <trkpt lat="45.30078" lon="6.18702">
        <ele>1615.5999755859</ele>
        <time>2020-02-08T08:57:08.000Z</time>
      </trkpt>
      <trkpt lat="45.30079" lon="6.18701">
        <ele>1615.8000488281</ele>
        <time>2020-02-08T08:57:10.000Z</time>
      </trkpt>
      <trkpt lat="45.3008" lon="6.18698">
        <ele>1616.5999755859</ele>
        <time>2020-02-08T08:57:14.000Z</time>
      </trkpt>
      <trkpt lat="45.30081" lon="6.18696">
        <ele>1616.8000488281</ele>
        <time>2020-02-08T08:57:15.000Z</time>
      </trkpt>
      <trkpt lat="45.30081" lon="6.18693">
        <ele>1617.8000488281</ele>
        <time>2020-02-08T08:57:20.000Z</time>
      </trkpt>
      <trkpt lat="45.30083" lon="6.18686">
        <ele>1618.5999755859</ele>
        <time>2020-02-08T08:57:26.000Z</time>
      </trkpt>
      <trkpt lat="45.30083" lon="6.18684">
        <ele>1618.8000488281</ele>
        <time>2020-02-08T08:57:29.000Z</time>
      </trkpt>
      <trkpt lat="45.30084" lon="6.18682">
        <ele>1619</ele>
        <time>2020-02-08T08:57:31.000Z</time>
      </trkpt>
      <trkpt lat="45.30086" lon="6.18678">
        <ele>1620</ele>
        <time>2020-02-08T08:57:36.000Z</time>
      </trkpt>
      <trkpt lat="45.30086" lon="6.18676">
        <ele>1620</ele>
        <time>2020-02-08T08:57:37.000Z</time>
      </trkpt>
      <trkpt lat="45.30087" lon="6.18672">
        <ele>1620.8000488281</ele>
        <time>2020-02-08T08:57:43.000Z</time>
      </trkpt>
      <trkpt lat="45.30088" lon="6.1867">
        <ele>1621.1999511719</ele>
        <time>2020-02-08T08:57:45.000Z</time>
      </trkpt>
      <trkpt lat="45.3009" lon="6.18664">
        <ele>1622</ele>
        <time>2020-02-08T08:57:50.000Z</time>
      </trkpt>
      <trkpt lat="45.3009" lon="6.18662">
        <ele>1622.1999511719</ele>
        <time>2020-02-08T08:57:51.000Z</time>
      </trkpt>
      <trkpt lat="45.3009" lon="6.18662">
        <ele>1622.5999755859</ele>
        <time>2020-02-08T08:57:54.000Z</time>
      </trkpt>
      <trkpt lat="45.30092" lon="6.18656">
        <ele>1623</ele>
        <time>2020-02-08T08:57:59.000Z</time>
      </trkpt>
      <trkpt lat="45.30093" lon="6.18654">
        <ele>1623.1999511719</ele>
        <time>2020-02-08T08:58:00.000Z</time>
      </trkpt>
      <trkpt lat="45.30095" lon="6.1865">
        <ele>1624.1999511719</ele>
        <time>2020-02-08T08:58:04.000Z</time>
      </trkpt>
      <trkpt lat="45.30096" lon="6.1865">
        <ele>1624.4000244141</ele>
        <time>2020-02-08T08:58:05.000Z</time>
      </trkpt>
      <trkpt lat="45.30097" lon="6.18645">
        <ele>1624.8000488281</ele>
        <time>2020-02-08T08:58:10.000Z</time>
      </trkpt>
      <trkpt lat="45.30095" lon="6.18639">
        <ele>1625.4000244141</ele>
        <time>2020-02-08T08:58:15.000Z</time>
      </trkpt>
      <trkpt lat="45.30095" lon="6.18633">
        <ele>1626.5999755859</ele>
        <time>2020-02-08T08:58:21.000Z</time>
      </trkpt>
      <trkpt lat="45.30099" lon="6.1863">
        <ele>1627.8000488281</ele>
        <time>2020-02-08T08:58:27.000Z</time>
      </trkpt>
      <trkpt lat="45.30103" lon="6.18625">
        <ele>1628.1999511719</ele>
        <time>2020-02-08T08:58:32.000Z</time>
      </trkpt>
      <trkpt lat="45.30103" lon="6.18623">
        <ele>1628.8000488281</ele>
        <time>2020-02-08T08:58:35.000Z</time>
      </trkpt>
      <trkpt lat="45.30101" lon="6.18621">
        <ele>1629.4000244141</ele>
        <time>2020-02-08T08:58:37.000Z</time>
      </trkpt>
      <trkpt lat="45.30101" lon="6.18618">
        <ele>1629.8000488281</ele>
        <time>2020-02-08T08:58:40.000Z</time>
      </trkpt>
      <trkpt lat="45.30101" lon="6.18615">
        <ele>1630.4000244141</ele>
        <time>2020-02-08T08:58:43.000Z</time>
      </trkpt>
      <trkpt lat="45.30101" lon="6.1861">
        <ele>1631.1999511719</ele>
        <time>2020-02-08T08:58:48.000Z</time>
      </trkpt>
      <trkpt lat="45.30101" lon="6.18605">
        <ele>1631.8000488281</ele>
        <time>2020-02-08T08:58:53.000Z</time>
      </trkpt>
      <trkpt lat="45.30101" lon="6.18602">
        <ele>1632.1999511719</ele>
        <time>2020-02-08T08:58:55.000Z</time>
      </trkpt>
      <trkpt lat="45.30101" lon="6.18597">
        <ele>1632.8000488281</ele>
        <time>2020-02-08T08:58:59.000Z</time>
      </trkpt>
      <trkpt lat="45.30103" lon="6.18595">
        <ele>1633.1999511719</ele>
        <time>2020-02-08T08:59:02.000Z</time>
      </trkpt>
      <trkpt lat="45.30101" lon="6.18593">
        <ele>1633.8000488281</ele>
        <time>2020-02-08T08:59:05.000Z</time>
      </trkpt>
      <trkpt lat="45.30103" lon="6.18588">
        <ele>1634.1999511719</ele>
        <time>2020-02-08T08:59:09.000Z</time>
      </trkpt>
      <trkpt lat="45.30104" lon="6.18588">
        <ele>1634.4000244141</ele>
        <time>2020-02-08T08:59:10.000Z</time>
      </trkpt>
      <trkpt lat="45.30104" lon="6.18582">
        <ele>1635.4000244141</ele>
        <time>2020-02-08T08:59:16.000Z</time>
      </trkpt>
      <trkpt lat="45.30107" lon="6.18577">
        <ele>1636</ele>
        <time>2020-02-08T08:59:20.000Z</time>
      </trkpt>
      <trkpt lat="45.30107" lon="6.18573">
        <ele>1636.5999755859</ele>
        <time>2020-02-08T08:59:25.000Z</time>
      </trkpt>
      <trkpt lat="45.30107" lon="6.18572">
        <ele>1636.5999755859</ele>
        <time>2020-02-08T08:59:26.000Z</time>
      </trkpt>
      <trkpt lat="45.30108" lon="6.18566">
        <ele>1637.4000244141</ele>
        <time>2020-02-08T08:59:31.000Z</time>
      </trkpt>
      <trkpt lat="45.30107" lon="6.18566">
        <ele>1637.5999755859</ele>
        <time>2020-02-08T08:59:32.000Z</time>
      </trkpt>
      <trkpt lat="45.30105" lon="6.18563">
        <ele>1638.1999511719</ele>
        <time>2020-02-08T08:59:36.000Z</time>
      </trkpt>
      <trkpt lat="45.30105" lon="6.18559">
        <ele>1638.8000488281</ele>
        <time>2020-02-08T08:59:41.000Z</time>
      </trkpt>
      <trkpt lat="45.30104" lon="6.18558">
        <ele>1639</ele>
        <time>2020-02-08T08:59:42.000Z</time>
      </trkpt>
      <trkpt lat="45.30103" lon="6.18553">
        <ele>1639.8000488281</ele>
        <time>2020-02-08T08:59:47.000Z</time>
      </trkpt>
      <trkpt lat="45.30102" lon="6.18553">
        <ele>1639.8000488281</ele>
        <time>2020-02-08T08:59:48.000Z</time>
      </trkpt>
      <trkpt lat="45.30103" lon="6.18553">
        <ele>1640.8000488281</ele>
        <time>2020-02-08T08:59:52.000Z</time>
      </trkpt>
      <trkpt lat="45.30103" lon="6.18553">
        <ele>1640.8000488281</ele>
        <time>2020-02-08T08:59:53.000Z</time>
      </trkpt>
      <trkpt lat="45.30103" lon="6.18553">
        <ele>1641.4000244141</ele>
        <time>2020-02-08T09:00:06.000Z</time>
      </trkpt>
      <trkpt lat="45.30103" lon="6.18551">
        <ele>1641.1999511719</ele>
        <time>2020-02-08T09:00:17.000Z</time>
      </trkpt>
      <trkpt lat="45.30103" lon="6.18551">
        <ele>1642</ele>
        <time>2020-02-08T09:00:21.000Z</time>
      </trkpt>
      <trkpt lat="45.30103" lon="6.18551">
        <ele>1642.1999511719</ele>
        <time>2020-02-08T09:00:24.000Z</time>
      </trkpt>
      <trkpt lat="45.30103" lon="6.1855">
        <ele>1642.4000244141</ele>
        <time>2020-02-08T09:00:37.000Z</time>
      </trkpt>
      <trkpt lat="45.30103" lon="6.1855">
        <ele>1642.1999511719</ele>
        <time>2020-02-08T09:00:53.000Z</time>
      </trkpt>
      <trkpt lat="45.30102" lon="6.18549">
        <ele>1642.4000244141</ele>
        <time>2020-02-08T09:01:06.000Z</time>
      </trkpt>
      <trkpt lat="45.30102" lon="6.18549">
        <ele>1642.4000244141</ele>
        <time>2020-02-08T09:01:19.000Z</time>
      </trkpt>
      <trkpt lat="45.30102" lon="6.18549">
        <ele>1642.4000244141</ele>
        <time>2020-02-08T09:01:29.000Z</time>
      </trkpt>
      <trkpt lat="45.30102" lon="6.18549">
        <ele>1642.4000244141</ele>
        <time>2020-02-08T09:01:39.000Z</time>
      </trkpt>
      <trkpt lat="45.30103" lon="6.18549">
        <ele>1642.4000244141</ele>
        <time>2020-02-08T09:01:54.000Z</time>
      </trkpt>
      <trkpt lat="45.30103" lon="6.18549">
        <ele>1642.4000244141</ele>
        <time>2020-02-08T09:02:07.000Z</time>
      </trkpt>
      <trkpt lat="45.30103" lon="6.18549">
        <ele>1642.1999511719</ele>
        <time>2020-02-08T09:02:19.000Z</time>
      </trkpt>
      <trkpt lat="45.30102" lon="6.18548">
        <ele>1643</ele>
        <time>2020-02-08T09:02:26.000Z</time>
      </trkpt>
      <trkpt lat="45.30103" lon="6.18545">
        <ele>1643</ele>
        <time>2020-02-08T09:02:35.000Z</time>
      </trkpt>
      <trkpt lat="45.30105" lon="6.1854">
        <ele>1643.4000244141</ele>
        <time>2020-02-08T09:02:40.000Z</time>
      </trkpt>
      <trkpt lat="45.30107" lon="6.18537">
        <ele>1644</ele>
        <time>2020-02-08T09:02:43.000Z</time>
      </trkpt>
      <trkpt lat="45.30107" lon="6.18534">
        <ele>1644.4000244141</ele>
        <time>2020-02-08T09:02:46.000Z</time>
      </trkpt>
      <trkpt lat="45.30108" lon="6.18531">
        <ele>1645.1999511719</ele>
        <time>2020-02-08T09:02:50.000Z</time>
      </trkpt>
      <trkpt lat="45.3011" lon="6.18528">
        <ele>1646.1999511719</ele>
        <time>2020-02-08T09:02:56.000Z</time>
      </trkpt>
      <trkpt lat="45.30112" lon="6.18521">
        <ele>1647.1999511719</ele>
        <time>2020-02-08T09:03:02.000Z</time>
      </trkpt>
      <trkpt lat="45.30112" lon="6.18517">
        <ele>1647.8000488281</ele>
        <time>2020-02-08T09:03:05.000Z</time>
      </trkpt>
      <trkpt lat="45.30113" lon="6.18516">
        <ele>1648</ele>
        <time>2020-02-08T09:03:07.000Z</time>
      </trkpt>
      <trkpt lat="45.30113" lon="6.18515">
        <ele>1648.1999511719</ele>
        <time>2020-02-08T09:03:10.000Z</time>
      </trkpt>
      <trkpt lat="45.30113" lon="6.18511">
        <ele>1649.1999511719</ele>
        <time>2020-02-08T09:03:13.000Z</time>
      </trkpt>
      <trkpt lat="45.30113" lon="6.18511">
        <ele>1649.4000244141</ele>
        <time>2020-02-08T09:03:14.000Z</time>
      </trkpt>
      <trkpt lat="45.30112" lon="6.18507">
        <ele>1650.5999755859</ele>
        <time>2020-02-08T09:03:18.000Z</time>
      </trkpt>
      <trkpt lat="45.30112" lon="6.18507">
        <ele>1650.8000488281</ele>
        <time>2020-02-08T09:03:20.000Z</time>
      </trkpt>
      <trkpt lat="45.30114" lon="6.18502">
        <ele>1651.5999755859</ele>
        <time>2020-02-08T09:03:25.000Z</time>
      </trkpt>
      <trkpt lat="45.30118" lon="6.18497">
        <ele>1652.8000488281</ele>
        <time>2020-02-08T09:03:30.000Z</time>
      </trkpt>
      <trkpt lat="45.30119" lon="6.18497">
        <ele>1653</ele>
        <time>2020-02-08T09:03:32.000Z</time>
      </trkpt>
      <trkpt lat="45.30121" lon="6.18494">
        <ele>1653.8000488281</ele>
        <time>2020-02-08T09:03:36.000Z</time>
      </trkpt>
      <trkpt lat="45.30121" lon="6.18493">
        <ele>1654</ele>
        <time>2020-02-08T09:03:37.000Z</time>
      </trkpt>
      <trkpt lat="45.30122" lon="6.18488">
        <ele>1654.5999755859</ele>
        <time>2020-02-08T09:03:42.000Z</time>
      </trkpt>
      <trkpt lat="45.30121" lon="6.18486">
        <ele>1655</ele>
        <time>2020-02-08T09:03:44.000Z</time>
      </trkpt>
      <trkpt lat="45.3012" lon="6.18485">
        <ele>1656</ele>
        <time>2020-02-08T09:03:48.000Z</time>
      </trkpt>
      <trkpt lat="45.3012" lon="6.18485">
        <ele>1657</ele>
        <time>2020-02-08T09:03:53.000Z</time>
      </trkpt>
      <trkpt lat="45.3012" lon="6.18485">
        <ele>1657.1999511719</ele>
        <time>2020-02-08T09:03:54.000Z</time>
      </trkpt>
      <trkpt lat="45.30121" lon="6.18483">
        <ele>1658</ele>
        <time>2020-02-08T09:03:59.000Z</time>
      </trkpt>
      <trkpt lat="45.30121" lon="6.1848">
        <ele>1658.1999511719</ele>
        <time>2020-02-08T09:04:01.000Z</time>
      </trkpt>
      <trkpt lat="45.30121" lon="6.18475">
        <ele>1659.1999511719</ele>
        <time>2020-02-08T09:04:06.000Z</time>
      </trkpt>
      <trkpt lat="45.30121" lon="6.18474">
        <ele>1659.4000244141</ele>
        <time>2020-02-08T09:04:07.000Z</time>
      </trkpt>
      <trkpt lat="45.30123" lon="6.1847">
        <ele>1660.4000244141</ele>
        <time>2020-02-08T09:04:12.000Z</time>
      </trkpt>
      <trkpt lat="45.30123" lon="6.18467">
        <ele>1661.4000244141</ele>
        <time>2020-02-08T09:04:16.000Z</time>
      </trkpt>
      <trkpt lat="45.30123" lon="6.18465">
        <ele>1661.5999755859</ele>
        <time>2020-02-08T09:04:18.000Z</time>
      </trkpt>
      <trkpt lat="45.30124" lon="6.18463">
        <ele>1662.1999511719</ele>
        <time>2020-02-08T09:04:22.000Z</time>
      </trkpt>
      <trkpt lat="45.30126" lon="6.18462">
        <ele>1662.5999755859</ele>
        <time>2020-02-08T09:04:24.000Z</time>
      </trkpt>
      <trkpt lat="45.30129" lon="6.1846">
        <ele>1663</ele>
        <time>2020-02-08T09:04:27.000Z</time>
      </trkpt>
      <trkpt lat="45.30131" lon="6.18459">
        <ele>1663.5999755859</ele>
        <time>2020-02-08T09:04:32.000Z</time>
      </trkpt>
      <trkpt lat="45.30135" lon="6.18457">
        <ele>1664.8000488281</ele>
        <time>2020-02-08T09:04:37.000Z</time>
      </trkpt>
      <trkpt lat="45.30136" lon="6.18456">
        <ele>1665</ele>
        <time>2020-02-08T09:04:39.000Z</time>
      </trkpt>
      <trkpt lat="45.3014" lon="6.18454">
        <ele>1665.8000488281</ele>
        <time>2020-02-08T09:04:44.000Z</time>
      </trkpt>
      <trkpt lat="45.30141" lon="6.18453">
        <ele>1666</ele>
        <time>2020-02-08T09:04:45.000Z</time>
      </trkpt>
      <trkpt lat="45.30142" lon="6.1845">
        <ele>1667.1999511719</ele>
        <time>2020-02-08T09:04:49.000Z</time>
      </trkpt>
      <trkpt lat="45.30144" lon="6.18447">
        <ele>1668</ele>
        <time>2020-02-08T09:04:53.000Z</time>
      </trkpt>
      <trkpt lat="45.30145" lon="6.18445">
        <ele>1668.1999511719</ele>
        <time>2020-02-08T09:04:54.000Z</time>
      </trkpt>
      <trkpt lat="45.30144" lon="6.18442">
        <ele>1669.1999511719</ele>
        <time>2020-02-08T09:04:59.000Z</time>
      </trkpt>
      <trkpt lat="45.30144" lon="6.18442">
        <ele>1669.4000244141</ele>
        <time>2020-02-08T09:05:00.000Z</time>
      </trkpt>
      <trkpt lat="45.30144" lon="6.1844">
        <ele>1670</ele>
        <time>2020-02-08T09:05:04.000Z</time>
      </trkpt>
      <trkpt lat="45.30144" lon="6.18439">
        <ele>1670.4000244141</ele>
        <time>2020-02-08T09:05:06.000Z</time>
      </trkpt>
      <trkpt lat="45.30145" lon="6.18437">
        <ele>1671.4000244141</ele>
        <time>2020-02-08T09:05:10.000Z</time>
      </trkpt>
      <trkpt lat="45.30144" lon="6.18435">
        <ele>1673</ele>
        <time>2020-02-08T09:05:13.000Z</time>
      </trkpt>
      <trkpt lat="45.30144" lon="6.18434">
        <ele>1673.1999511719</ele>
        <time>2020-02-08T09:05:14.000Z</time>
      </trkpt>
      <trkpt lat="45.30144" lon="6.18431">
        <ele>1674</ele>
        <time>2020-02-08T09:05:18.000Z</time>
      </trkpt>
      <trkpt lat="45.30143" lon="6.1843">
        <ele>1674.1999511719</ele>
        <time>2020-02-08T09:05:19.000Z</time>
      </trkpt>
      <trkpt lat="45.30142" lon="6.18424">
        <ele>1675.1999511719</ele>
        <time>2020-02-08T09:05:24.000Z</time>
      </trkpt>
      <trkpt lat="45.30142" lon="6.18422">
        <ele>1675.5999755859</ele>
        <time>2020-02-08T09:05:26.000Z</time>
      </trkpt>
      <trkpt lat="45.30144" lon="6.18416">
        <ele>1676.1999511719</ele>
        <time>2020-02-08T09:05:31.000Z</time>
      </trkpt>
      <trkpt lat="45.30144" lon="6.18415">
        <ele>1677.1999511719</ele>
        <time>2020-02-08T09:05:37.000Z</time>
      </trkpt>
      <trkpt lat="45.30144" lon="6.18415">
        <ele>1677.4000244141</ele>
        <time>2020-02-08T09:05:38.000Z</time>
      </trkpt>
      <trkpt lat="45.30144" lon="6.18414">
        <ele>1677.8000488281</ele>
        <time>2020-02-08T09:05:51.000Z</time>
      </trkpt>
      <trkpt lat="45.30142" lon="6.18413">
        <ele>1677.5999755859</ele>
        <time>2020-02-08T09:05:56.000Z</time>
      </trkpt>
      <trkpt lat="45.30143" lon="6.18406">
        <ele>1678.5999755859</ele>
        <time>2020-02-08T09:06:01.000Z</time>
      </trkpt>
      <trkpt lat="45.30143" lon="6.18405">
        <ele>1678.8000488281</ele>
        <time>2020-02-08T09:06:02.000Z</time>
      </trkpt>
      <trkpt lat="45.30144" lon="6.18402">
        <ele>1679.8000488281</ele>
        <time>2020-02-08T09:06:06.000Z</time>
      </trkpt>
      <trkpt lat="45.30146" lon="6.18397">
        <ele>1680.8000488281</ele>
        <time>2020-02-08T09:06:11.000Z</time>
      </trkpt>
      <trkpt lat="45.30146" lon="6.18396">
        <ele>1681</ele>
        <time>2020-02-08T09:06:12.000Z</time>
      </trkpt>
      <trkpt lat="45.30148" lon="6.18388">
        <ele>1681.4000244141</ele>
        <time>2020-02-08T09:06:18.000Z</time>
      </trkpt>
      <trkpt lat="45.30148" lon="6.18386">
        <ele>1682</ele>
        <time>2020-02-08T09:06:20.000Z</time>
      </trkpt>
      <trkpt lat="45.30149" lon="6.18382">
        <ele>1682.5999755859</ele>
        <time>2020-02-08T09:06:23.000Z</time>
      </trkpt>
      <trkpt lat="45.3015" lon="6.18379">
        <ele>1683</ele>
        <time>2020-02-08T09:06:26.000Z</time>
      </trkpt>
      <trkpt lat="45.30149" lon="6.18376">
        <ele>1683.1999511719</ele>
        <time>2020-02-08T09:06:28.000Z</time>
      </trkpt>
      <trkpt lat="45.3015" lon="6.1837">
        <ele>1683.1999511719</ele>
        <time>2020-02-08T09:06:33.000Z</time>
      </trkpt>
      <trkpt lat="45.30149" lon="6.18365">
        <ele>1683.4000244141</ele>
        <time>2020-02-08T09:06:38.000Z</time>
      </trkpt>
      <trkpt lat="45.30151" lon="6.1836">
        <ele>1683.8000488281</ele>
        <time>2020-02-08T09:06:43.000Z</time>
      </trkpt>
      <trkpt lat="45.30151" lon="6.18357">
        <ele>1684</ele>
        <time>2020-02-08T09:06:47.000Z</time>
      </trkpt>
      <trkpt lat="45.30152" lon="6.18355">
        <ele>1684.5999755859</ele>
        <time>2020-02-08T09:06:49.000Z</time>
      </trkpt>
      <trkpt lat="45.30151" lon="6.18354">
        <ele>1685.1999511719</ele>
        <time>2020-02-08T09:06:52.000Z</time>
      </trkpt>
      <trkpt lat="45.30152" lon="6.18353">
        <ele>1685.4000244141</ele>
        <time>2020-02-08T09:06:53.000Z</time>
      </trkpt>
      <trkpt lat="45.30151" lon="6.18348">
        <ele>1686</ele>
        <time>2020-02-08T09:06:57.000Z</time>
      </trkpt>
      <trkpt lat="45.3015" lon="6.18347">
        <ele>1686.1999511719</ele>
        <time>2020-02-08T09:06:58.000Z</time>
      </trkpt>
      <trkpt lat="45.30149" lon="6.18346">
        <ele>1686.1999511719</ele>
        <time>2020-02-08T09:06:59.000Z</time>
      </trkpt>
      <trkpt lat="45.30148" lon="6.18342">
        <ele>1686.5999755859</ele>
        <time>2020-02-08T09:07:03.000Z</time>
      </trkpt>
      <trkpt lat="45.30149" lon="6.18335">
        <ele>1687.1999511719</ele>
        <time>2020-02-08T09:07:09.000Z</time>
      </trkpt>
      <trkpt lat="45.30151" lon="6.18329">
        <ele>1687.8000488281</ele>
        <time>2020-02-08T09:07:15.000Z</time>
      </trkpt>
      <trkpt lat="45.30148" lon="6.18326">
        <ele>1688.4000244141</ele>
        <time>2020-02-08T09:07:18.000Z</time>
      </trkpt>
      <trkpt lat="45.30147" lon="6.18324">
        <ele>1688.5999755859</ele>
        <time>2020-02-08T09:07:20.000Z</time>
      </trkpt>
      <trkpt lat="45.3015" lon="6.18321">
        <ele>1689</ele>
        <time>2020-02-08T09:07:24.000Z</time>
      </trkpt>
      <trkpt lat="45.3015" lon="6.18317">
        <ele>1689.5999755859</ele>
        <time>2020-02-08T09:07:27.000Z</time>
      </trkpt>
      <trkpt lat="45.30151" lon="6.18315">
        <ele>1690</ele>
        <time>2020-02-08T09:07:29.000Z</time>
      </trkpt>
      <trkpt lat="45.30151" lon="6.18311">
        <ele>1690.5999755859</ele>
        <time>2020-02-08T09:07:33.000Z</time>
      </trkpt>
      <trkpt lat="45.30153" lon="6.18304">
        <ele>1690.8000488281</ele>
        <time>2020-02-08T09:07:39.000Z</time>
      </trkpt>
      <trkpt lat="45.30155" lon="6.183">
        <ele>1691.1999511719</ele>
        <time>2020-02-08T09:07:43.000Z</time>
      </trkpt>
      <trkpt lat="45.30156" lon="6.18297">
        <ele>1691.5999755859</ele>
        <time>2020-02-08T09:07:46.000Z</time>
      </trkpt>
      <trkpt lat="45.30158" lon="6.18295">
        <ele>1692</ele>
        <time>2020-02-08T09:07:48.000Z</time>
      </trkpt>
      <trkpt lat="45.30159" lon="6.18292">
        <ele>1692.1999511719</ele>
        <time>2020-02-08T09:07:52.000Z</time>
      </trkpt>
      <trkpt lat="45.30161" lon="6.18288">
        <ele>1692.8000488281</ele>
        <time>2020-02-08T09:07:56.000Z</time>
      </trkpt>
      <trkpt lat="45.30163" lon="6.18285">
        <ele>1693.5999755859</ele>
        <time>2020-02-08T09:08:01.000Z</time>
      </trkpt>
      <trkpt lat="45.30163" lon="6.18285">
        <ele>1693.8000488281</ele>
        <time>2020-02-08T09:08:02.000Z</time>
      </trkpt>
      <trkpt lat="45.30164" lon="6.18284">
        <ele>1694.4000244141</ele>
        <time>2020-02-08T09:08:05.000Z</time>
      </trkpt>
      <trkpt lat="45.30165" lon="6.18283">
        <ele>1694.5999755859</ele>
        <time>2020-02-08T09:08:07.000Z</time>
      </trkpt>
      <trkpt lat="45.30166" lon="6.18281">
        <ele>1695</ele>
        <time>2020-02-08T09:08:09.000Z</time>
      </trkpt>
      <trkpt lat="45.30167" lon="6.18278">
        <ele>1695.5999755859</ele>
        <time>2020-02-08T09:08:12.000Z</time>
      </trkpt>
      <trkpt lat="45.30168" lon="6.18274">
        <ele>1696</ele>
        <time>2020-02-08T09:08:15.000Z</time>
      </trkpt>
      <trkpt lat="45.30168" lon="6.18271">
        <ele>1696.4000244141</ele>
        <time>2020-02-08T09:08:17.000Z</time>
      </trkpt>
      <trkpt lat="45.30171" lon="6.18266">
        <ele>1697</ele>
        <time>2020-02-08T09:08:21.000Z</time>
      </trkpt>
      <trkpt lat="45.30171" lon="6.18264">
        <ele>1697</ele>
        <time>2020-02-08T09:08:23.000Z</time>
      </trkpt>
      <trkpt lat="45.30171" lon="6.1826">
        <ele>1697.5999755859</ele>
        <time>2020-02-08T09:08:27.000Z</time>
      </trkpt>
      <trkpt lat="45.30173" lon="6.18259">
        <ele>1698.1999511719</ele>
        <time>2020-02-08T09:08:29.000Z</time>
      </trkpt>
      <trkpt lat="45.30174" lon="6.18257">
        <ele>1698.5999755859</ele>
        <time>2020-02-08T09:08:32.000Z</time>
      </trkpt>
      <trkpt lat="45.30176" lon="6.18254">
        <ele>1699.1999511719</ele>
        <time>2020-02-08T09:08:37.000Z</time>
      </trkpt>
      <trkpt lat="45.30176" lon="6.18253">
        <ele>1699.5999755859</ele>
        <time>2020-02-08T09:08:39.000Z</time>
      </trkpt>
      <trkpt lat="45.30178" lon="6.1825">
        <ele>1700.1999511719</ele>
        <time>2020-02-08T09:08:42.000Z</time>
      </trkpt>
      <trkpt lat="45.30178" lon="6.18245">
        <ele>1700.8000488281</ele>
        <time>2020-02-08T09:08:47.000Z</time>
      </trkpt>
      <trkpt lat="45.30178" lon="6.18241">
        <ele>1701.4000244141</ele>
        <time>2020-02-08T09:08:51.000Z</time>
      </trkpt>
      <trkpt lat="45.30178" lon="6.18241">
        <ele>1701.5999755859</ele>
        <time>2020-02-08T09:08:52.000Z</time>
      </trkpt>
      <trkpt lat="45.3018" lon="6.18236">
        <ele>1702.1999511719</ele>
        <time>2020-02-08T09:08:56.000Z</time>
      </trkpt>
      <trkpt lat="45.3018" lon="6.18236">
        <ele>1702.1999511719</ele>
        <time>2020-02-08T09:08:57.000Z</time>
      </trkpt>
      <trkpt lat="45.3018" lon="6.18233">
        <ele>1702.4000244141</ele>
        <time>2020-02-08T09:08:59.000Z</time>
      </trkpt>
      <trkpt lat="45.30182" lon="6.18232">
        <ele>1702.5999755859</ele>
        <time>2020-02-08T09:09:01.000Z</time>
      </trkpt>
      <trkpt lat="45.30182" lon="6.18231">
        <ele>1702.5999755859</ele>
        <time>2020-02-08T09:09:02.000Z</time>
      </trkpt>
      <trkpt lat="45.30185" lon="6.18227">
        <ele>1703.1999511719</ele>
        <time>2020-02-08T09:09:07.000Z</time>
      </trkpt>
      <trkpt lat="45.30185" lon="6.18226">
        <ele>1703.4000244141</ele>
        <time>2020-02-08T09:09:08.000Z</time>
      </trkpt>
      <trkpt lat="45.30186" lon="6.18223">
        <ele>1703.8000488281</ele>
        <time>2020-02-08T09:09:11.000Z</time>
      </trkpt>
      <trkpt lat="45.30185" lon="6.1822">
        <ele>1704.4000244141</ele>
        <time>2020-02-08T09:09:15.000Z</time>
      </trkpt>
      <trkpt lat="45.30186" lon="6.18219">
        <ele>1705</ele>
        <time>2020-02-08T09:09:17.000Z</time>
      </trkpt>
      <trkpt lat="45.30186" lon="6.18218">
        <ele>1705.1999511719</ele>
        <time>2020-02-08T09:09:18.000Z</time>
      </trkpt>
      <trkpt lat="45.30187" lon="6.18218">
        <ele>1705.5999755859</ele>
        <time>2020-02-08T09:09:20.000Z</time>
      </trkpt>
      <trkpt lat="45.30188" lon="6.18216">
        <ele>1706</ele>
        <time>2020-02-08T09:09:22.000Z</time>
      </trkpt>
      <trkpt lat="45.3019" lon="6.18214">
        <ele>1706.5999755859</ele>
        <time>2020-02-08T09:09:25.000Z</time>
      </trkpt>
      <trkpt lat="45.30191" lon="6.18213">
        <ele>1706.8000488281</ele>
        <time>2020-02-08T09:09:26.000Z</time>
      </trkpt>
      <trkpt lat="45.30192" lon="6.18212">
        <ele>1707.8000488281</ele>
        <time>2020-02-08T09:09:30.000Z</time>
      </trkpt>
      <trkpt lat="45.30194" lon="6.18212">
        <ele>1708.8000488281</ele>
        <time>2020-02-08T09:09:34.000Z</time>
      </trkpt>
      <trkpt lat="45.30195" lon="6.18209">
        <ele>1709.8000488281</ele>
        <time>2020-02-08T09:09:38.000Z</time>
      </trkpt>
      <trkpt lat="45.30195" lon="6.18209">
        <ele>1710</ele>
        <time>2020-02-08T09:09:39.000Z</time>
      </trkpt>
      <trkpt lat="45.30194" lon="6.18204">
        <ele>1711</ele>
        <time>2020-02-08T09:09:44.000Z</time>
      </trkpt>
      <trkpt lat="45.30194" lon="6.18203">
        <ele>1711</ele>
        <time>2020-02-08T09:09:45.000Z</time>
      </trkpt>
      <trkpt lat="45.30197" lon="6.18197">
        <ele>1711.5999755859</ele>
        <time>2020-02-08T09:09:50.000Z</time>
      </trkpt>
      <trkpt lat="45.30198" lon="6.18194">
        <ele>1712</ele>
        <time>2020-02-08T09:09:53.000Z</time>
      </trkpt>
      <trkpt lat="45.30199" lon="6.18193">
        <ele>1712.1999511719</ele>
        <time>2020-02-08T09:09:54.000Z</time>
      </trkpt>
      <trkpt lat="45.30199" lon="6.18192">
        <ele>1712.8000488281</ele>
        <time>2020-02-08T09:09:58.000Z</time>
      </trkpt>
      <trkpt lat="45.30199" lon="6.18191">
        <ele>1713</ele>
        <time>2020-02-08T09:09:59.000Z</time>
      </trkpt>
      <trkpt lat="45.30201" lon="6.18187">
        <ele>1713.5999755859</ele>
        <time>2020-02-08T09:10:03.000Z</time>
      </trkpt>
      <trkpt lat="45.30201" lon="6.18186">
        <ele>1713.8000488281</ele>
        <time>2020-02-08T09:10:04.000Z</time>
      </trkpt>
      <trkpt lat="45.30202" lon="6.18184">
        <ele>1714.1999511719</ele>
        <time>2020-02-08T09:10:06.000Z</time>
      </trkpt>
      <trkpt lat="45.30203" lon="6.18181">
        <ele>1714.5999755859</ele>
        <time>2020-02-08T09:10:09.000Z</time>
      </trkpt>
      <trkpt lat="45.30204" lon="6.18179">
        <ele>1715</ele>
        <time>2020-02-08T09:10:11.000Z</time>
      </trkpt>
      <trkpt lat="45.30206" lon="6.18178">
        <ele>1715.1999511719</ele>
        <time>2020-02-08T09:10:13.000Z</time>
      </trkpt>
      <trkpt lat="45.30207" lon="6.18176">
        <ele>1716</ele>
        <time>2020-02-08T09:10:18.000Z</time>
      </trkpt>
      <trkpt lat="45.30208" lon="6.18175">
        <ele>1716.1999511719</ele>
        <time>2020-02-08T09:10:19.000Z</time>
      </trkpt>
      <trkpt lat="45.30209" lon="6.1817">
        <ele>1717</ele>
        <time>2020-02-08T09:10:24.000Z</time>
      </trkpt>
      <trkpt lat="45.3021" lon="6.1817">
        <ele>1717.4000244141</ele>
        <time>2020-02-08T09:10:25.000Z</time>
      </trkpt>
      <trkpt lat="45.3021" lon="6.18168">
        <ele>1717.8000488281</ele>
        <time>2020-02-08T09:10:28.000Z</time>
      </trkpt>
      <trkpt lat="45.30212" lon="6.18167">
        <ele>1718.5999755859</ele>
        <time>2020-02-08T09:10:33.000Z</time>
      </trkpt>
      <trkpt lat="45.30212" lon="6.18167">
        <ele>1718.8000488281</ele>
        <time>2020-02-08T09:10:49.000Z</time>
      </trkpt>
      <trkpt lat="45.30212" lon="6.18167">
        <ele>1718.5999755859</ele>
        <time>2020-02-08T09:10:58.000Z</time>
      </trkpt>
      <trkpt lat="45.30212" lon="6.18167">
        <ele>1718.4000244141</ele>
        <time>2020-02-08T09:11:12.000Z</time>
      </trkpt>
      <trkpt lat="45.30212" lon="6.18167">
        <ele>1718.1999511719</ele>
        <time>2020-02-08T09:11:31.000Z</time>
      </trkpt>
      <trkpt lat="45.30212" lon="6.18167">
        <ele>1718.4000244141</ele>
        <time>2020-02-08T09:11:49.000Z</time>
      </trkpt>
      <trkpt lat="45.30211" lon="6.18168">
        <ele>1718.5999755859</ele>
        <time>2020-02-08T09:12:01.000Z</time>
      </trkpt>
      <trkpt lat="45.30211" lon="6.18168">
        <ele>1718.5999755859</ele>
        <time>2020-02-08T09:12:19.000Z</time>
      </trkpt>
      <trkpt lat="45.30211" lon="6.18167">
        <ele>1718.5999755859</ele>
        <time>2020-02-08T09:12:37.000Z</time>
      </trkpt>
      <trkpt lat="45.30211" lon="6.18164">
        <ele>1719.1999511719</ele>
        <time>2020-02-08T09:12:42.000Z</time>
      </trkpt>
      <trkpt lat="45.30213" lon="6.18162">
        <ele>1719.8000488281</ele>
        <time>2020-02-08T09:12:45.000Z</time>
      </trkpt>
      <trkpt lat="45.30214" lon="6.1816">
        <ele>1720</ele>
        <time>2020-02-08T09:12:47.000Z</time>
      </trkpt>
      <trkpt lat="45.30216" lon="6.18157">
        <ele>1720.1999511719</ele>
        <time>2020-02-08T09:12:51.000Z</time>
      </trkpt>
      <trkpt lat="45.30216" lon="6.18156">
        <ele>1720.8000488281</ele>
        <time>2020-02-08T09:12:54.000Z</time>
      </trkpt>
      <trkpt lat="45.30216" lon="6.18155">
        <ele>1721</ele>
        <time>2020-02-08T09:12:55.000Z</time>
      </trkpt>
      <trkpt lat="45.30218" lon="6.18152">
        <ele>1721.8000488281</ele>
        <time>2020-02-08T09:13:00.000Z</time>
      </trkpt>
      <trkpt lat="45.30219" lon="6.18151">
        <ele>1722</ele>
        <time>2020-02-08T09:13:02.000Z</time>
      </trkpt>
      <trkpt lat="45.30221" lon="6.1815">
        <ele>1722.1999511719</ele>
        <time>2020-02-08T09:13:05.000Z</time>
      </trkpt>
      <trkpt lat="45.30222" lon="6.18147">
        <ele>1723.1999511719</ele>
        <time>2020-02-08T09:13:09.000Z</time>
      </trkpt>
      <trkpt lat="45.30224" lon="6.18144">
        <ele>1724.1999511719</ele>
        <time>2020-02-08T09:13:13.000Z</time>
      </trkpt>
      <trkpt lat="45.30226" lon="6.18141">
        <ele>1724.8000488281</ele>
        <time>2020-02-08T09:13:19.000Z</time>
      </trkpt>
      <trkpt lat="45.30227" lon="6.1814">
        <ele>1725.1999511719</ele>
        <time>2020-02-08T09:13:21.000Z</time>
      </trkpt>
      <trkpt lat="45.30228" lon="6.18137">
        <ele>1726.4000244141</ele>
        <time>2020-02-08T09:13:26.000Z</time>
      </trkpt>
      <trkpt lat="45.30229" lon="6.18136">
        <ele>1726.5999755859</ele>
        <time>2020-02-08T09:13:27.000Z</time>
      </trkpt>
      <trkpt lat="45.3023" lon="6.18133">
        <ele>1727.4000244141</ele>
        <time>2020-02-08T09:13:32.000Z</time>
      </trkpt>
      <trkpt lat="45.3023" lon="6.18131">
        <ele>1727.8000488281</ele>
        <time>2020-02-08T09:13:35.000Z</time>
      </trkpt>
      <trkpt lat="45.3023" lon="6.18128">
        <ele>1728.5999755859</ele>
        <time>2020-02-08T09:13:39.000Z</time>
      </trkpt>
      <trkpt lat="45.3023" lon="6.18128">
        <ele>1728.8000488281</ele>
        <time>2020-02-08T09:13:41.000Z</time>
      </trkpt>
      <trkpt lat="45.3023" lon="6.18126">
        <ele>1729.5999755859</ele>
        <time>2020-02-08T09:13:47.000Z</time>
      </trkpt>
      <trkpt lat="45.3023" lon="6.18126">
        <ele>1730.5999755859</ele>
        <time>2020-02-08T09:13:52.000Z</time>
      </trkpt>
      <trkpt lat="45.3023" lon="6.18126">
        <ele>1730.8000488281</ele>
        <time>2020-02-08T09:14:00.000Z</time>
      </trkpt>
      <trkpt lat="45.30231" lon="6.18125">
        <ele>1731</ele>
        <time>2020-02-08T09:14:10.000Z</time>
      </trkpt>
      <trkpt lat="45.30232" lon="6.18124">
        <ele>1731.8000488281</ele>
        <time>2020-02-08T09:14:15.000Z</time>
      </trkpt>
      <trkpt lat="45.30235" lon="6.18123">
        <ele>1732.4000244141</ele>
        <time>2020-02-08T09:14:18.000Z</time>
      </trkpt>
      <trkpt lat="45.30236" lon="6.18122">
        <ele>1732.8000488281</ele>
        <time>2020-02-08T09:14:20.000Z</time>
      </trkpt>
      <trkpt lat="45.30236" lon="6.18121">
        <ele>1733.1999511719</ele>
        <time>2020-02-08T09:14:24.000Z</time>
      </trkpt>
      <trkpt lat="45.30237" lon="6.1812">
        <ele>1733.8000488281</ele>
        <time>2020-02-08T09:14:27.000Z</time>
      </trkpt>
      <trkpt lat="45.30239" lon="6.18119">
        <ele>1734.1999511719</ele>
        <time>2020-02-08T09:14:29.000Z</time>
      </trkpt>
      <trkpt lat="45.30239" lon="6.18117">
        <ele>1734.8000488281</ele>
        <time>2020-02-08T09:14:33.000Z</time>
      </trkpt>
      <trkpt lat="45.30239" lon="6.18115">
        <ele>1736</ele>
        <time>2020-02-08T09:14:37.000Z</time>
      </trkpt>
      <trkpt lat="45.30239" lon="6.18113">
        <ele>1736.1999511719</ele>
        <time>2020-02-08T09:14:38.000Z</time>
      </trkpt>
      <trkpt lat="45.30238" lon="6.18108">
        <ele>1736</ele>
        <time>2020-02-08T09:14:42.000Z</time>
      </trkpt>
      <trkpt lat="45.30238" lon="6.18105">
        <ele>1737.1999511719</ele>
        <time>2020-02-08T09:14:46.000Z</time>
      </trkpt>
      <trkpt lat="45.30238" lon="6.18105">
        <ele>1737.4000244141</ele>
        <time>2020-02-08T09:14:47.000Z</time>
      </trkpt>
      <trkpt lat="45.30238" lon="6.18102">
        <ele>1738.1999511719</ele>
        <time>2020-02-08T09:14:50.000Z</time>
      </trkpt>
      <trkpt lat="45.30238" lon="6.18099">
        <ele>1738.4000244141</ele>
        <time>2020-02-08T09:14:53.000Z</time>
      </trkpt>
      <trkpt lat="45.30237" lon="6.18098">
        <ele>1738.5999755859</ele>
        <time>2020-02-08T09:14:54.000Z</time>
      </trkpt>
      <trkpt lat="45.30236" lon="6.18095">
        <ele>1739</ele>
        <time>2020-02-08T09:14:57.000Z</time>
      </trkpt>
      <trkpt lat="45.30235" lon="6.18094">
        <ele>1739.1999511719</ele>
        <time>2020-02-08T09:15:02.000Z</time>
      </trkpt>
      <trkpt lat="45.30235" lon="6.18095">
        <ele>1739.4000244141</ele>
        <time>2020-02-08T09:15:03.000Z</time>
      </trkpt>
      <trkpt lat="45.30236" lon="6.18095">
        <ele>1739.8000488281</ele>
        <time>2020-02-08T09:15:04.000Z</time>
      </trkpt>
      <trkpt lat="45.30237" lon="6.18095">
        <ele>1740.8000488281</ele>
        <time>2020-02-08T09:15:06.000Z</time>
      </trkpt>
      <trkpt lat="45.30238" lon="6.18095">
        <ele>1741</ele>
        <time>2020-02-08T09:15:07.000Z</time>
      </trkpt>
      <trkpt lat="45.30242" lon="6.18096">
        <ele>1741.8000488281</ele>
        <time>2020-02-08T09:15:13.000Z</time>
      </trkpt>
      <trkpt lat="45.30245" lon="6.18098">
        <ele>1742.8000488281</ele>
        <time>2020-02-08T09:15:19.000Z</time>
      </trkpt>
      <trkpt lat="45.30245" lon="6.18098">
        <ele>1743</ele>
        <time>2020-02-08T09:15:20.000Z</time>
      </trkpt>
      <trkpt lat="45.30245" lon="6.18095">
        <ele>1743.8000488281</ele>
        <time>2020-02-08T09:15:26.000Z</time>
      </trkpt>
      <trkpt lat="45.30244" lon="6.18092">
        <ele>1743.8000488281</ele>
        <time>2020-02-08T09:15:29.000Z</time>
      </trkpt>
      <trkpt lat="45.30243" lon="6.18087">
        <ele>1745</ele>
        <time>2020-02-08T09:15:35.000Z</time>
      </trkpt>
      <trkpt lat="45.30244" lon="6.18086">
        <ele>1746.1999511719</ele>
        <time>2020-02-08T09:15:39.000Z</time>
      </trkpt>
      <trkpt lat="45.30244" lon="6.18085">
        <ele>1746.5999755859</ele>
        <time>2020-02-08T09:15:40.000Z</time>
      </trkpt>
      <trkpt lat="45.30244" lon="6.18085">
        <ele>1747.1999511719</ele>
        <time>2020-02-08T09:15:43.000Z</time>
      </trkpt>
      <trkpt lat="45.30244" lon="6.18081">
        <ele>1748</ele>
        <time>2020-02-08T09:15:47.000Z</time>
      </trkpt>
      <trkpt lat="45.30244" lon="6.1808">
        <ele>1748.4000244141</ele>
        <time>2020-02-08T09:15:49.000Z</time>
      </trkpt>
      <trkpt lat="45.30245" lon="6.18077">
        <ele>1749.4000244141</ele>
        <time>2020-02-08T09:15:53.000Z</time>
      </trkpt>
      <trkpt lat="45.30245" lon="6.18076">
        <ele>1749.4000244141</ele>
        <time>2020-02-08T09:15:54.000Z</time>
      </trkpt>
      <trkpt lat="45.30245" lon="6.18075">
        <ele>1749.8000488281</ele>
        <time>2020-02-08T09:15:59.000Z</time>
      </trkpt>
      <trkpt lat="45.30245" lon="6.18074">
        <ele>1750.4000244141</ele>
        <time>2020-02-08T09:16:01.000Z</time>
      </trkpt>
      <trkpt lat="45.30245" lon="6.18073">
        <ele>1751</ele>
        <time>2020-02-08T09:16:02.000Z</time>
      </trkpt>
      <trkpt lat="45.30246" lon="6.18073">
        <ele>1751</ele>
        <time>2020-02-08T09:16:03.000Z</time>
      </trkpt>
      <trkpt lat="45.30246" lon="6.18072">
        <ele>1751.1999511719</ele>
        <time>2020-02-08T09:16:04.000Z</time>
      </trkpt>
      <trkpt lat="45.30246" lon="6.18069">
        <ele>1751.5999755859</ele>
        <time>2020-02-08T09:16:07.000Z</time>
      </trkpt>
      <trkpt lat="45.30246" lon="6.18069">
        <ele>1751.8000488281</ele>
        <time>2020-02-08T09:16:08.000Z</time>
      </trkpt>
      <trkpt lat="45.30248" lon="6.18066">
        <ele>1752</ele>
        <time>2020-02-08T09:16:12.000Z</time>
      </trkpt>
      <trkpt lat="45.30248" lon="6.18063">
        <ele>1752.5999755859</ele>
        <time>2020-02-08T09:16:16.000Z</time>
      </trkpt>
      <trkpt lat="45.30248" lon="6.18062">
        <ele>1753.1999511719</ele>
        <time>2020-02-08T09:16:19.000Z</time>
      </trkpt>
      <trkpt lat="45.30248" lon="6.1806">
        <ele>1753.5999755859</ele>
        <time>2020-02-08T09:16:21.000Z</time>
      </trkpt>
      <trkpt lat="45.30248" lon="6.18057">
        <ele>1754.4000244141</ele>
        <time>2020-02-08T09:16:25.000Z</time>
      </trkpt>
      <trkpt lat="45.30248" lon="6.18054">
        <ele>1754.5999755859</ele>
        <time>2020-02-08T09:16:27.000Z</time>
      </trkpt>
      <trkpt lat="45.30248" lon="6.18052">
        <ele>1755.4000244141</ele>
        <time>2020-02-08T09:16:30.000Z</time>
      </trkpt>
      <trkpt lat="45.30247" lon="6.18049">
        <ele>1755.8000488281</ele>
        <time>2020-02-08T09:16:33.000Z</time>
      </trkpt>
      <trkpt lat="45.30248" lon="6.18046">
        <ele>1756.4000244141</ele>
        <time>2020-02-08T09:16:36.000Z</time>
      </trkpt>
      <trkpt lat="45.30248" lon="6.18045">
        <ele>1756.5999755859</ele>
        <time>2020-02-08T09:16:38.000Z</time>
      </trkpt>
      <trkpt lat="45.30249" lon="6.18044">
        <ele>1757.4000244141</ele>
        <time>2020-02-08T09:16:42.000Z</time>
      </trkpt>
      <trkpt lat="45.30249" lon="6.18044">
        <ele>1757.5999755859</ele>
        <time>2020-02-08T09:16:43.000Z</time>
      </trkpt>
      <trkpt lat="45.30249" lon="6.18041">
        <ele>1758.5999755859</ele>
        <time>2020-02-08T09:16:47.000Z</time>
      </trkpt>
      <trkpt lat="45.30251" lon="6.18039">
        <ele>1759.5999755859</ele>
        <time>2020-02-08T09:16:51.000Z</time>
      </trkpt>
      <trkpt lat="45.30251" lon="6.18039">
        <ele>1759.8000488281</ele>
        <time>2020-02-08T09:16:52.000Z</time>
      </trkpt>
      <trkpt lat="45.30251" lon="6.18038">
        <ele>1760.8000488281</ele>
        <time>2020-02-08T09:16:57.000Z</time>
      </trkpt>
      <trkpt lat="45.30252" lon="6.18035">
        <ele>1761</ele>
        <time>2020-02-08T09:17:00.000Z</time>
      </trkpt>
      <trkpt lat="45.30253" lon="6.18031">
        <ele>1761.1999511719</ele>
        <time>2020-02-08T09:17:03.000Z</time>
      </trkpt>
      <trkpt lat="45.30253" lon="6.18029">
        <ele>1761.5999755859</ele>
        <time>2020-02-08T09:17:05.000Z</time>
      </trkpt>
      <trkpt lat="45.30254" lon="6.18028">
        <ele>1761.8000488281</ele>
        <time>2020-02-08T09:17:09.000Z</time>
      </trkpt>
      <trkpt lat="45.30254" lon="6.18026">
        <ele>1761.8000488281</ele>
        <time>2020-02-08T09:17:10.000Z</time>
      </trkpt>
      <trkpt lat="45.30256" lon="6.18023">
        <ele>1763</ele>
        <time>2020-02-08T09:17:14.000Z</time>
      </trkpt>
      <trkpt lat="45.30258" lon="6.18021">
        <ele>1763.4000244141</ele>
        <time>2020-02-08T09:17:16.000Z</time>
      </trkpt>
      <trkpt lat="45.30258" lon="6.1802">
        <ele>1764</ele>
        <time>2020-02-08T09:17:18.000Z</time>
      </trkpt>
      <trkpt lat="45.30258" lon="6.18019">
        <ele>1764.4000244141</ele>
        <time>2020-02-08T09:17:20.000Z</time>
      </trkpt>
      <trkpt lat="45.30259" lon="6.18017">
        <ele>1765</ele>
        <time>2020-02-08T09:17:23.000Z</time>
      </trkpt>
      <trkpt lat="45.30259" lon="6.18016">
        <ele>1765.1999511719</ele>
        <time>2020-02-08T09:17:24.000Z</time>
      </trkpt>
      <trkpt lat="45.3026" lon="6.18013">
        <ele>1766</ele>
        <time>2020-02-08T09:17:28.000Z</time>
      </trkpt>
      <trkpt lat="45.30261" lon="6.18012">
        <ele>1766.5999755859</ele>
        <time>2020-02-08T09:17:30.000Z</time>
      </trkpt>
      <trkpt lat="45.30262" lon="6.18011">
        <ele>1766.8000488281</ele>
        <time>2020-02-08T09:17:31.000Z</time>
      </trkpt>
      <trkpt lat="45.30263" lon="6.18009">
        <ele>1767.1999511719</ele>
        <time>2020-02-08T09:17:33.000Z</time>
      </trkpt>
      <trkpt lat="45.30263" lon="6.18007">
        <ele>1767.5999755859</ele>
        <time>2020-02-08T09:17:35.000Z</time>
      </trkpt>
      <trkpt lat="45.30263" lon="6.18006">
        <ele>1767.8000488281</ele>
        <time>2020-02-08T09:17:36.000Z</time>
      </trkpt>
      <trkpt lat="45.30264" lon="6.18005">
        <ele>1768.4000244141</ele>
        <time>2020-02-08T09:17:38.000Z</time>
      </trkpt>
      <trkpt lat="45.30264" lon="6.18001">
        <ele>1769</ele>
        <time>2020-02-08T09:17:41.000Z</time>
      </trkpt>
      <trkpt lat="45.30265" lon="6.18">
        <ele>1769.4000244141</ele>
        <time>2020-02-08T09:17:43.000Z</time>
      </trkpt>
      <trkpt lat="45.30266" lon="6.17999">
        <ele>1769.5999755859</ele>
        <time>2020-02-08T09:17:45.000Z</time>
      </trkpt>
      <trkpt lat="45.30268" lon="6.17995">
        <ele>1770.4000244141</ele>
        <time>2020-02-08T09:17:51.000Z</time>
      </trkpt>
      <trkpt lat="45.30268" lon="6.17995">
        <ele>1770.5999755859</ele>
        <time>2020-02-08T09:17:52.000Z</time>
      </trkpt>
      <trkpt lat="45.30268" lon="6.17993">
        <ele>1771.5999755859</ele>
        <time>2020-02-08T09:17:55.000Z</time>
      </trkpt>
      <trkpt lat="45.30268" lon="6.17993">
        <ele>1772</ele>
        <time>2020-02-08T09:17:57.000Z</time>
      </trkpt>
      <trkpt lat="45.3027" lon="6.17992">
        <ele>1772.1999511719</ele>
        <time>2020-02-08T09:18:01.000Z</time>
      </trkpt>
      <trkpt lat="45.30271" lon="6.17993">
        <ele>1772.4000244141</ele>
        <time>2020-02-08T09:18:06.000Z</time>
      </trkpt>
      <trkpt lat="45.30271" lon="6.17993">
        <ele>1773</ele>
        <time>2020-02-08T09:18:08.000Z</time>
      </trkpt>
      <trkpt lat="45.30272" lon="6.17995">
        <ele>1773.8000488281</ele>
        <time>2020-02-08T09:18:11.000Z</time>
      </trkpt>
      <trkpt lat="45.30272" lon="6.17995">
        <ele>1774</ele>
        <time>2020-02-08T09:18:12.000Z</time>
      </trkpt>
      <trkpt lat="45.30272" lon="6.17996">
        <ele>1774.1999511719</ele>
        <time>2020-02-08T09:18:15.000Z</time>
      </trkpt>
      <trkpt lat="45.30275" lon="6.17999">
        <ele>1774.8000488281</ele>
        <time>2020-02-08T09:18:20.000Z</time>
      </trkpt>
      <trkpt lat="45.30278" lon="6.18">
        <ele>1775</ele>
        <time>2020-02-08T09:18:23.000Z</time>
      </trkpt>
      <trkpt lat="45.30279" lon="6.18001">
        <ele>1775</ele>
        <time>2020-02-08T09:18:24.000Z</time>
      </trkpt>
      <trkpt lat="45.30279" lon="6.18">
        <ele>1775.1999511719</ele>
        <time>2020-02-08T09:18:25.000Z</time>
      </trkpt>
      <trkpt lat="45.30282" lon="6.17999">
        <ele>1776.1999511719</ele>
        <time>2020-02-08T09:18:30.000Z</time>
      </trkpt>
      <trkpt lat="45.30284" lon="6.18">
        <ele>1777.5999755859</ele>
        <time>2020-02-08T09:18:34.000Z</time>
      </trkpt>
      <trkpt lat="45.30286" lon="6.18">
        <ele>1778.1999511719</ele>
        <time>2020-02-08T09:18:36.000Z</time>
      </trkpt>
      <trkpt lat="45.30287" lon="6.18001">
        <ele>1778.5999755859</ele>
        <time>2020-02-08T09:18:38.000Z</time>
      </trkpt>
      <trkpt lat="45.30288" lon="6.18004">
        <ele>1779.1999511719</ele>
        <time>2020-02-08T09:18:41.000Z</time>
      </trkpt>
      <trkpt lat="45.30288" lon="6.18006">
        <ele>1779.5999755859</ele>
        <time>2020-02-08T09:18:44.000Z</time>
      </trkpt>
      <trkpt lat="45.3029" lon="6.18006">
        <ele>1780.4000244141</ele>
        <time>2020-02-08T09:18:48.000Z</time>
      </trkpt>
      <trkpt lat="45.3029" lon="6.18006">
        <ele>1781</ele>
        <time>2020-02-08T09:18:50.000Z</time>
      </trkpt>
      <trkpt lat="45.30292" lon="6.18007">
        <ele>1781.5999755859</ele>
        <time>2020-02-08T09:18:53.000Z</time>
      </trkpt>
      <trkpt lat="45.30293" lon="6.18008">
        <ele>1782.1999511719</ele>
        <time>2020-02-08T09:18:56.000Z</time>
      </trkpt>
      <trkpt lat="45.30295" lon="6.18009">
        <ele>1783</ele>
        <time>2020-02-08T09:19:01.000Z</time>
      </trkpt>
      <trkpt lat="45.30296" lon="6.18009">
        <ele>1783.1999511719</ele>
        <time>2020-02-08T09:19:02.000Z</time>
      </trkpt>
      <trkpt lat="45.30298" lon="6.18007">
        <ele>1784.4000244141</ele>
        <time>2020-02-08T09:19:07.000Z</time>
      </trkpt>
      <trkpt lat="45.303" lon="6.18004">
        <ele>1785.1999511719</ele>
        <time>2020-02-08T09:19:10.000Z</time>
      </trkpt>
      <trkpt lat="45.303" lon="6.18003">
        <ele>1785.5999755859</ele>
        <time>2020-02-08T09:19:11.000Z</time>
      </trkpt>
      <trkpt lat="45.30301" lon="6.18001">
        <ele>1786</ele>
        <time>2020-02-08T09:19:13.000Z</time>
      </trkpt>
      <trkpt lat="45.30302" lon="6.18">
        <ele>1786.5999755859</ele>
        <time>2020-02-08T09:19:15.000Z</time>
      </trkpt>
      <trkpt lat="45.30301" lon="6.17998">
        <ele>1787.1999511719</ele>
        <time>2020-02-08T09:19:19.000Z</time>
      </trkpt>
      <trkpt lat="45.30302" lon="6.17996">
        <ele>1787.5999755859</ele>
        <time>2020-02-08T09:19:22.000Z</time>
      </trkpt>
      <trkpt lat="45.30302" lon="6.17995">
        <ele>1787.8000488281</ele>
        <time>2020-02-08T09:19:23.000Z</time>
      </trkpt>
      <trkpt lat="45.30302" lon="6.17991">
        <ele>1788.1999511719</ele>
        <time>2020-02-08T09:19:28.000Z</time>
      </trkpt>
      <trkpt lat="45.30302" lon="6.17989">
        <ele>1788.8000488281</ele>
        <time>2020-02-08T09:19:30.000Z</time>
      </trkpt>
      <trkpt lat="45.30302" lon="6.17985">
        <ele>1789.4000244141</ele>
        <time>2020-02-08T09:19:34.000Z</time>
      </trkpt>
      <trkpt lat="45.30302" lon="6.17983">
        <ele>1789.8000488281</ele>
        <time>2020-02-08T09:19:37.000Z</time>
      </trkpt>
      <trkpt lat="45.30303" lon="6.17981">
        <ele>1790.1999511719</ele>
        <time>2020-02-08T09:19:40.000Z</time>
      </trkpt>
      <trkpt lat="45.30305" lon="6.17978">
        <ele>1790.8000488281</ele>
        <time>2020-02-08T09:19:45.000Z</time>
      </trkpt>
      <trkpt lat="45.30305" lon="6.17977">
        <ele>1791</ele>
        <time>2020-02-08T09:19:46.000Z</time>
      </trkpt>
      <trkpt lat="45.30306" lon="6.17974">
        <ele>1792</ele>
        <time>2020-02-08T09:19:50.000Z</time>
      </trkpt>
      <trkpt lat="45.30306" lon="6.17974">
        <ele>1792.4000244141</ele>
        <time>2020-02-08T09:19:51.000Z</time>
      </trkpt>
      <trkpt lat="45.30307" lon="6.17971">
        <ele>1793.1999511719</ele>
        <time>2020-02-08T09:19:54.000Z</time>
      </trkpt>
      <trkpt lat="45.30308" lon="6.1797">
        <ele>1793.8000488281</ele>
        <time>2020-02-08T09:19:56.000Z</time>
      </trkpt>
      <trkpt lat="45.30307" lon="6.17965">
        <ele>1794.4000244141</ele>
        <time>2020-02-08T09:19:59.000Z</time>
      </trkpt>
      <trkpt lat="45.30308" lon="6.17963">
        <ele>1794.8000488281</ele>
        <time>2020-02-08T09:20:01.000Z</time>
      </trkpt>
      <trkpt lat="45.30308" lon="6.17959">
        <ele>1795.4000244141</ele>
        <time>2020-02-08T09:20:05.000Z</time>
      </trkpt>
      <trkpt lat="45.30309" lon="6.17959">
        <ele>1795.5999755859</ele>
        <time>2020-02-08T09:20:06.000Z</time>
      </trkpt>
      <trkpt lat="45.3031" lon="6.17957">
        <ele>1795.8000488281</ele>
        <time>2020-02-08T09:20:10.000Z</time>
      </trkpt>
      <trkpt lat="45.3031" lon="6.17953">
        <ele>1796.5999755859</ele>
        <time>2020-02-08T09:20:15.000Z</time>
      </trkpt>
      <trkpt lat="45.3031" lon="6.1795">
        <ele>1797.4000244141</ele>
        <time>2020-02-08T09:20:24.000Z</time>
      </trkpt>
      <trkpt lat="45.3031" lon="6.17947">
        <ele>1797.8000488281</ele>
        <time>2020-02-08T09:20:27.000Z</time>
      </trkpt>
      <trkpt lat="45.3031" lon="6.17946">
        <ele>1798.4000244141</ele>
        <time>2020-02-08T09:20:29.000Z</time>
      </trkpt>
      <trkpt lat="45.30311" lon="6.17942">
        <ele>1798.8000488281</ele>
        <time>2020-02-08T09:20:32.000Z</time>
      </trkpt>
      <trkpt lat="45.30311" lon="6.17942">
        <ele>1799</ele>
        <time>2020-02-08T09:20:33.000Z</time>
      </trkpt>
      <trkpt lat="45.30312" lon="6.17935">
        <ele>1800</ele>
        <time>2020-02-08T09:20:39.000Z</time>
      </trkpt>
      <trkpt lat="45.30314" lon="6.1793">
        <ele>1800.5999755859</ele>
        <time>2020-02-08T09:20:43.000Z</time>
      </trkpt>
      <trkpt lat="45.30314" lon="6.1793">
        <ele>1800.8000488281</ele>
        <time>2020-02-08T09:20:44.000Z</time>
      </trkpt>
      <trkpt lat="45.30314" lon="6.17928">
        <ele>1801</ele>
        <time>2020-02-08T09:20:46.000Z</time>
      </trkpt>
      <trkpt lat="45.30315" lon="6.17927">
        <ele>1801.4000244141</ele>
        <time>2020-02-08T09:20:49.000Z</time>
      </trkpt>
      <trkpt lat="45.30315" lon="6.17921">
        <ele>1802.1999511719</ele>
        <time>2020-02-08T09:20:54.000Z</time>
      </trkpt>
      <trkpt lat="45.30315" lon="6.17919">
        <ele>1802.4000244141</ele>
        <time>2020-02-08T09:20:56.000Z</time>
      </trkpt>
      <trkpt lat="45.30316" lon="6.17917">
        <ele>1803.1999511719</ele>
        <time>2020-02-08T09:21:00.000Z</time>
      </trkpt>
      <trkpt lat="45.30315" lon="6.17911">
        <ele>1804</ele>
        <time>2020-02-08T09:21:05.000Z</time>
      </trkpt>
      <trkpt lat="45.30313" lon="6.17907">
        <ele>1804.1999511719</ele>
        <time>2020-02-08T09:21:09.000Z</time>
      </trkpt>
      <trkpt lat="45.30313" lon="6.17907">
        <ele>1804.4000244141</ele>
        <time>2020-02-08T09:21:10.000Z</time>
      </trkpt>
      <trkpt lat="45.30312" lon="6.17901">
        <ele>1805.4000244141</ele>
        <time>2020-02-08T09:21:15.000Z</time>
      </trkpt>
      <trkpt lat="45.30312" lon="6.179">
        <ele>1805.4000244141</ele>
        <time>2020-02-08T09:21:16.000Z</time>
      </trkpt>
      <trkpt lat="45.30312" lon="6.17896">
        <ele>1806.5999755859</ele>
        <time>2020-02-08T09:21:20.000Z</time>
      </trkpt>
      <trkpt lat="45.30312" lon="6.17896">
        <ele>1806.8000488281</ele>
        <time>2020-02-08T09:21:21.000Z</time>
      </trkpt>
      <trkpt lat="45.30312" lon="6.17891">
        <ele>1807.4000244141</ele>
        <time>2020-02-08T09:21:26.000Z</time>
      </trkpt>
      <trkpt lat="45.30311" lon="6.17887">
        <ele>1807.8000488281</ele>
        <time>2020-02-08T09:21:29.000Z</time>
      </trkpt>
      <trkpt lat="45.30311" lon="6.17885">
        <ele>1809</ele>
        <time>2020-02-08T09:21:34.000Z</time>
      </trkpt>
      <trkpt lat="45.3031" lon="6.17883">
        <ele>1809.4000244141</ele>
        <time>2020-02-08T09:21:39.000Z</time>
      </trkpt>
      <trkpt lat="45.30311" lon="6.17881">
        <ele>1810</ele>
        <time>2020-02-08T09:21:43.000Z</time>
      </trkpt>
      <trkpt lat="45.30312" lon="6.17881">
        <ele>1810.8000488281</ele>
        <time>2020-02-08T09:21:47.000Z</time>
      </trkpt>
      <trkpt lat="45.30312" lon="6.17881">
        <ele>1811.1999511719</ele>
        <time>2020-02-08T09:21:55.000Z</time>
      </trkpt>
      <trkpt lat="45.30312" lon="6.17881">
        <ele>1811.4000244141</ele>
        <time>2020-02-08T09:22:08.000Z</time>
      </trkpt>
      <trkpt lat="45.30312" lon="6.17881">
        <ele>1811.8000488281</ele>
        <time>2020-02-08T09:22:14.000Z</time>
      </trkpt>
      <trkpt lat="45.30315" lon="6.1788">
        <ele>1812</ele>
        <time>2020-02-08T09:22:21.000Z</time>
      </trkpt>
      <trkpt lat="45.30317" lon="6.1788">
        <ele>1812.4000244141</ele>
        <time>2020-02-08T09:22:23.000Z</time>
      </trkpt>
      <trkpt lat="45.3032" lon="6.17881">
        <ele>1813.4000244141</ele>
        <time>2020-02-08T09:22:27.000Z</time>
      </trkpt>
      <trkpt lat="45.30321" lon="6.1788">
        <ele>1813.4000244141</ele>
        <time>2020-02-08T09:22:28.000Z</time>
      </trkpt>
      <trkpt lat="45.30327" lon="6.1788">
        <ele>1814.4000244141</ele>
        <time>2020-02-08T09:22:34.000Z</time>
      </trkpt>
      <trkpt lat="45.30328" lon="6.1788">
        <ele>1814.5999755859</ele>
        <time>2020-02-08T09:22:35.000Z</time>
      </trkpt>
      <trkpt lat="45.30329" lon="6.17879">
        <ele>1815</ele>
        <time>2020-02-08T09:22:37.000Z</time>
      </trkpt>
      <trkpt lat="45.30328" lon="6.17877">
        <ele>1815.1999511719</ele>
        <time>2020-02-08T09:22:39.000Z</time>
      </trkpt>
      <trkpt lat="45.30328" lon="6.17876">
        <ele>1815.4000244141</ele>
        <time>2020-02-08T09:22:40.000Z</time>
      </trkpt>
      <trkpt lat="45.30328" lon="6.17875">
        <ele>1815.8000488281</ele>
        <time>2020-02-08T09:22:41.000Z</time>
      </trkpt>
      <trkpt lat="45.30326" lon="6.17873">
        <ele>1816.8000488281</ele>
        <time>2020-02-08T09:22:45.000Z</time>
      </trkpt>
      <trkpt lat="45.30327" lon="6.17872">
        <ele>1817</ele>
        <time>2020-02-08T09:22:46.000Z</time>
      </trkpt>
      <trkpt lat="45.30327" lon="6.17871">
        <ele>1818</ele>
        <time>2020-02-08T09:22:50.000Z</time>
      </trkpt>
      <trkpt lat="45.30327" lon="6.1787">
        <ele>1818</ele>
        <time>2020-02-08T09:22:51.000Z</time>
      </trkpt>
      <trkpt lat="45.30327" lon="6.17864">
        <ele>1819</ele>
        <time>2020-02-08T09:22:57.000Z</time>
      </trkpt>
      <trkpt lat="45.30327" lon="6.1786">
        <ele>1820</ele>
        <time>2020-02-08T09:23:02.000Z</time>
      </trkpt>
      <trkpt lat="45.30327" lon="6.17859">
        <ele>1820.1999511719</ele>
        <time>2020-02-08T09:23:03.000Z</time>
      </trkpt>
      <trkpt lat="45.30328" lon="6.17857">
        <ele>1820.5999755859</ele>
        <time>2020-02-08T09:23:06.000Z</time>
      </trkpt>
      <trkpt lat="45.30328" lon="6.17855">
        <ele>1821.1999511719</ele>
        <time>2020-02-08T09:23:10.000Z</time>
      </trkpt>
      <trkpt lat="45.30327" lon="6.17854">
        <ele>1821.4000244141</ele>
        <time>2020-02-08T09:23:11.000Z</time>
      </trkpt>
      <trkpt lat="45.30325" lon="6.17851">
        <ele>1822.1999511719</ele>
        <time>2020-02-08T09:23:16.000Z</time>
      </trkpt>
      <trkpt lat="45.30325" lon="6.17851">
        <ele>1822.5999755859</ele>
        <time>2020-02-08T09:23:17.000Z</time>
      </trkpt>
      <trkpt lat="45.30325" lon="6.17851">
        <ele>1823.5999755859</ele>
        <time>2020-02-08T09:23:24.000Z</time>
      </trkpt>
      <trkpt lat="45.30325" lon="6.17851">
        <ele>1824</ele>
        <time>2020-02-08T09:23:26.000Z</time>
      </trkpt>
      <trkpt lat="45.30324" lon="6.17848">
        <ele>1824.4000244141</ele>
        <time>2020-02-08T09:23:32.000Z</time>
      </trkpt>
      <trkpt lat="45.30324" lon="6.17846">
        <ele>1824.5999755859</ele>
        <time>2020-02-08T09:23:35.000Z</time>
      </trkpt>
      <trkpt lat="45.30324" lon="6.17846">
        <ele>1825</ele>
        <time>2020-02-08T09:23:37.000Z</time>
      </trkpt>
      <trkpt lat="45.30324" lon="6.17846">
        <ele>1825.4000244141</ele>
        <time>2020-02-08T09:23:45.000Z</time>
      </trkpt>
      <trkpt lat="45.30324" lon="6.17846">
        <ele>1825.8000488281</ele>
        <time>2020-02-08T09:23:47.000Z</time>
      </trkpt>
      <trkpt lat="45.30325" lon="6.17846">
        <ele>1826.1999511719</ele>
        <time>2020-02-08T09:23:50.000Z</time>
      </trkpt>
      <trkpt lat="45.30327" lon="6.17846">
        <ele>1826.1999511719</ele>
        <time>2020-02-08T09:23:52.000Z</time>
      </trkpt>
      <trkpt lat="45.30328" lon="6.17847">
        <ele>1826.4000244141</ele>
        <time>2020-02-08T09:23:57.000Z</time>
      </trkpt>
      <trkpt lat="45.30332" lon="6.17848">
        <ele>1826.8000488281</ele>
        <time>2020-02-08T09:24:01.000Z</time>
      </trkpt>
      <trkpt lat="45.30334" lon="6.17849">
        <ele>1827.4000244141</ele>
        <time>2020-02-08T09:24:04.000Z</time>
      </trkpt>
      <trkpt lat="45.30336" lon="6.1785">
        <ele>1828</ele>
        <time>2020-02-08T09:24:07.000Z</time>
      </trkpt>
      <trkpt lat="45.30338" lon="6.17851">
        <ele>1828.1999511719</ele>
        <time>2020-02-08T09:24:10.000Z</time>
      </trkpt>
      <trkpt lat="45.30342" lon="6.17852">
        <ele>1829.1999511719</ele>
        <time>2020-02-08T09:24:16.000Z</time>
      </trkpt>
      <trkpt lat="45.30345" lon="6.17852">
        <ele>1830.4000244141</ele>
        <time>2020-02-08T09:24:21.000Z</time>
      </trkpt>
      <trkpt lat="45.30345" lon="6.17851">
        <ele>1830.5999755859</ele>
        <time>2020-02-08T09:24:23.000Z</time>
      </trkpt>
      <trkpt lat="45.30348" lon="6.17853">
        <ele>1831.4000244141</ele>
        <time>2020-02-08T09:24:27.000Z</time>
      </trkpt>
      <trkpt lat="45.3035" lon="6.17854">
        <ele>1831.8000488281</ele>
        <time>2020-02-08T09:24:30.000Z</time>
      </trkpt>
      <trkpt lat="45.30352" lon="6.17855">
        <ele>1832.4000244141</ele>
        <time>2020-02-08T09:24:33.000Z</time>
      </trkpt>
      <trkpt lat="45.30354" lon="6.17856">
        <ele>1833.1999511719</ele>
        <time>2020-02-08T09:24:38.000Z</time>
      </trkpt>
      <trkpt lat="45.30355" lon="6.17856">
        <ele>1833.5999755859</ele>
        <time>2020-02-08T09:24:40.000Z</time>
      </trkpt>
      <trkpt lat="45.30355" lon="6.17856">
        <ele>1834.1999511719</ele>
        <time>2020-02-08T09:24:43.000Z</time>
      </trkpt>
      <trkpt lat="45.30357" lon="6.17856">
        <ele>1834.5999755859</ele>
        <time>2020-02-08T09:24:46.000Z</time>
      </trkpt>
      <trkpt lat="45.30358" lon="6.17856">
        <ele>1835.4000244141</ele>
        <time>2020-02-08T09:24:50.000Z</time>
      </trkpt>
      <trkpt lat="45.3036" lon="6.17857">
        <ele>1835.8000488281</ele>
        <time>2020-02-08T09:24:53.000Z</time>
      </trkpt>
      <trkpt lat="45.30363" lon="6.17857">
        <ele>1836.4000244141</ele>
        <time>2020-02-08T09:24:57.000Z</time>
      </trkpt>
      <trkpt lat="45.30364" lon="6.17857">
        <ele>1837</ele>
        <time>2020-02-08T09:25:02.000Z</time>
      </trkpt>
      <trkpt lat="45.30364" lon="6.17857">
        <ele>1837.4000244141</ele>
        <time>2020-02-08T09:25:03.000Z</time>
      </trkpt>
      <trkpt lat="45.30366" lon="6.17857">
        <ele>1838</ele>
        <time>2020-02-08T09:25:07.000Z</time>
      </trkpt>
      <trkpt lat="45.30367" lon="6.17857">
        <ele>1838.1999511719</ele>
        <time>2020-02-08T09:25:09.000Z</time>
      </trkpt>
      <trkpt lat="45.30369" lon="6.17856">
        <ele>1839.4000244141</ele>
        <time>2020-02-08T09:25:14.000Z</time>
      </trkpt>
      <trkpt lat="45.3037" lon="6.17856">
        <ele>1839.5999755859</ele>
        <time>2020-02-08T09:25:16.000Z</time>
      </trkpt>
      <trkpt lat="45.30372" lon="6.17857">
        <ele>1840.1999511719</ele>
        <time>2020-02-08T09:25:21.000Z</time>
      </trkpt>
      <trkpt lat="45.30372" lon="6.17857">
        <ele>1840.4000244141</ele>
        <time>2020-02-08T09:25:22.000Z</time>
      </trkpt>
      <trkpt lat="45.30375" lon="6.17857">
        <ele>1840.8000488281</ele>
        <time>2020-02-08T09:25:29.000Z</time>
      </trkpt>
      <trkpt lat="45.30376" lon="6.17857">
        <ele>1841.4000244141</ele>
        <time>2020-02-08T09:25:33.000Z</time>
      </trkpt>
      <trkpt lat="45.30376" lon="6.17857">
        <ele>1841.8000488281</ele>
        <time>2020-02-08T09:25:35.000Z</time>
      </trkpt>
      <trkpt lat="45.30375" lon="6.17852">
        <ele>1842.1999511719</ele>
        <time>2020-02-08T09:25:40.000Z</time>
      </trkpt>
      <trkpt lat="45.30373" lon="6.1785">
        <ele>1842.5999755859</ele>
        <time>2020-02-08T09:25:42.000Z</time>
      </trkpt>
      <trkpt lat="45.30371" lon="6.17848">
        <ele>1842.8000488281</ele>
        <time>2020-02-08T09:25:43.000Z</time>
      </trkpt>
      <trkpt lat="45.3037" lon="6.17847">
        <ele>1843</ele>
        <time>2020-02-08T09:25:44.000Z</time>
      </trkpt>
      <trkpt lat="45.30368" lon="6.17845">
        <ele>1843.5999755859</ele>
        <time>2020-02-08T09:25:46.000Z</time>
      </trkpt>
      <trkpt lat="45.30366" lon="6.17843">
        <ele>1844</ele>
        <time>2020-02-08T09:25:48.000Z</time>
      </trkpt>
      <trkpt lat="45.30365" lon="6.17839">
        <ele>1844.5999755859</ele>
        <time>2020-02-08T09:25:52.000Z</time>
      </trkpt>
      <trkpt lat="45.30365" lon="6.17838">
        <ele>1844.5999755859</ele>
        <time>2020-02-08T09:25:53.000Z</time>
      </trkpt>
      <trkpt lat="45.30364" lon="6.17834">
        <ele>1845.8000488281</ele>
        <time>2020-02-08T09:25:59.000Z</time>
      </trkpt>
      <trkpt lat="45.30363" lon="6.17831">
        <ele>1846.8000488281</ele>
        <time>2020-02-08T09:26:03.000Z</time>
      </trkpt>
      <trkpt lat="45.30363" lon="6.1783">
        <ele>1847.1999511719</ele>
        <time>2020-02-08T09:26:05.000Z</time>
      </trkpt>
      <trkpt lat="45.30362" lon="6.17828">
        <ele>1847.8000488281</ele>
        <time>2020-02-08T09:26:08.000Z</time>
      </trkpt>
      <trkpt lat="45.30363" lon="6.17826">
        <ele>1848.1999511719</ele>
        <time>2020-02-08T09:26:10.000Z</time>
      </trkpt>
      <trkpt lat="45.30362" lon="6.17822">
        <ele>1848.5999755859</ele>
        <time>2020-02-08T09:26:13.000Z</time>
      </trkpt>
      <trkpt lat="45.30362" lon="6.17821">
        <ele>1848.8000488281</ele>
        <time>2020-02-08T09:26:15.000Z</time>
      </trkpt>
      <trkpt lat="45.30362" lon="6.1782">
        <ele>1849</ele>
        <time>2020-02-08T09:26:16.000Z</time>
      </trkpt>
      <trkpt lat="45.30363" lon="6.17819">
        <ele>1850.1999511719</ele>
        <time>2020-02-08T09:26:21.000Z</time>
      </trkpt>
      <trkpt lat="45.30364" lon="6.17817">
        <ele>1851.1999511719</ele>
        <time>2020-02-08T09:26:25.000Z</time>
      </trkpt>
      <trkpt lat="45.30364" lon="6.17816">
        <ele>1852</ele>
        <time>2020-02-08T09:26:28.000Z</time>
      </trkpt>
      <trkpt lat="45.30364" lon="6.17816">
        <ele>1852.1999511719</ele>
        <time>2020-02-08T09:26:30.000Z</time>
      </trkpt>
      <trkpt lat="45.30365" lon="6.17814">
        <ele>1852.5999755859</ele>
        <time>2020-02-08T09:26:34.000Z</time>
      </trkpt>
      <trkpt lat="45.30365" lon="6.17813">
        <ele>1853.1999511719</ele>
        <time>2020-02-08T09:26:37.000Z</time>
      </trkpt>
      <trkpt lat="45.30366" lon="6.17812">
        <ele>1854</ele>
        <time>2020-02-08T09:26:40.000Z</time>
      </trkpt>
      <trkpt lat="45.30365" lon="6.17811">
        <ele>1854.4000244141</ele>
        <time>2020-02-08T09:26:42.000Z</time>
      </trkpt>
      <trkpt lat="45.30365" lon="6.1781">
        <ele>1855</ele>
        <time>2020-02-08T09:26:46.000Z</time>
      </trkpt>
      <trkpt lat="45.30367" lon="6.1781">
        <ele>1855.5999755859</ele>
        <time>2020-02-08T09:26:51.000Z</time>
      </trkpt>
      <trkpt lat="45.3037" lon="6.17811">
        <ele>1856.4000244141</ele>
        <time>2020-02-08T09:26:55.000Z</time>
      </trkpt>
      <trkpt lat="45.30372" lon="6.17811">
        <ele>1856.5999755859</ele>
        <time>2020-02-08T09:26:58.000Z</time>
      </trkpt>
      <trkpt lat="45.30374" lon="6.17811">
        <ele>1857.4000244141</ele>
        <time>2020-02-08T09:27:02.000Z</time>
      </trkpt>
      <trkpt lat="45.30375" lon="6.17811">
        <ele>1857.8000488281</ele>
        <time>2020-02-08T09:27:04.000Z</time>
      </trkpt>
      <trkpt lat="45.30376" lon="6.17811">
        <ele>1858.5999755859</ele>
        <time>2020-02-08T09:27:08.000Z</time>
      </trkpt>
      <trkpt lat="45.30377" lon="6.17811">
        <ele>1858.8000488281</ele>
        <time>2020-02-08T09:27:10.000Z</time>
      </trkpt>
      <trkpt lat="45.30379" lon="6.17812">
        <ele>1860</ele>
        <time>2020-02-08T09:27:16.000Z</time>
      </trkpt>
      <trkpt lat="45.30382" lon="6.17813">
        <ele>1861</ele>
        <time>2020-02-08T09:27:24.000Z</time>
      </trkpt>
      <trkpt lat="45.30387" lon="6.17814">
        <ele>1862</ele>
        <time>2020-02-08T09:27:30.000Z</time>
      </trkpt>
      <trkpt lat="45.30388" lon="6.17814">
        <ele>1862.1999511719</ele>
        <time>2020-02-08T09:27:31.000Z</time>
      </trkpt>
      <trkpt lat="45.30391" lon="6.17814">
        <ele>1862.8000488281</ele>
        <time>2020-02-08T09:27:36.000Z</time>
      </trkpt>
      <trkpt lat="45.30393" lon="6.17814">
        <ele>1863.4000244141</ele>
        <time>2020-02-08T09:27:38.000Z</time>
      </trkpt>
      <trkpt lat="45.30394" lon="6.17814">
        <ele>1864.1999511719</ele>
        <time>2020-02-08T09:27:43.000Z</time>
      </trkpt>
      <trkpt lat="45.30394" lon="6.17813">
        <ele>1864.4000244141</ele>
        <time>2020-02-08T09:27:45.000Z</time>
      </trkpt>
      <trkpt lat="45.30395" lon="6.17812">
        <ele>1865</ele>
        <time>2020-02-08T09:27:47.000Z</time>
      </trkpt>
      <trkpt lat="45.30397" lon="6.17811">
        <ele>1865.4000244141</ele>
        <time>2020-02-08T09:27:50.000Z</time>
      </trkpt>
      <trkpt lat="45.30398" lon="6.17811">
        <ele>1865.5999755859</ele>
        <time>2020-02-08T09:27:52.000Z</time>
      </trkpt>
      <trkpt lat="45.304" lon="6.1781">
        <ele>1866.5999755859</ele>
        <time>2020-02-08T09:27:59.000Z</time>
      </trkpt>
      <trkpt lat="45.30401" lon="6.1781">
        <ele>1867</ele>
        <time>2020-02-08T09:28:05.000Z</time>
      </trkpt>
      <trkpt lat="45.30401" lon="6.1781">
        <ele>1867.5999755859</ele>
        <time>2020-02-08T09:28:12.000Z</time>
      </trkpt>
      <trkpt lat="45.30399" lon="6.17807">
        <ele>1867.8000488281</ele>
        <time>2020-02-08T09:28:17.000Z</time>
      </trkpt>
      <trkpt lat="45.30397" lon="6.17805">
        <ele>1868.4000244141</ele>
        <time>2020-02-08T09:28:19.000Z</time>
      </trkpt>
      <trkpt lat="45.30394" lon="6.17802">
        <ele>1868.8000488281</ele>
        <time>2020-02-08T09:28:21.000Z</time>
      </trkpt>
      <trkpt lat="45.30392" lon="6.17799">
        <ele>1869.4000244141</ele>
        <time>2020-02-08T09:28:24.000Z</time>
      </trkpt>
      <trkpt lat="45.30392" lon="6.17797">
        <ele>1869.8000488281</ele>
        <time>2020-02-08T09:28:26.000Z</time>
      </trkpt>
      <trkpt lat="45.30391" lon="6.17796">
        <ele>1870.5999755859</ele>
        <time>2020-02-08T09:28:29.000Z</time>
      </trkpt>
      <trkpt lat="45.30391" lon="6.17796">
        <ele>1871</ele>
        <time>2020-02-08T09:28:31.000Z</time>
      </trkpt>
      <trkpt lat="45.30392" lon="6.17792">
        <ele>1871.8000488281</ele>
        <time>2020-02-08T09:28:35.000Z</time>
      </trkpt>
      <trkpt lat="45.30392" lon="6.1779">
        <ele>1872.1999511719</ele>
        <time>2020-02-08T09:28:37.000Z</time>
      </trkpt>
      <trkpt lat="45.30393" lon="6.17787">
        <ele>1873.1999511719</ele>
        <time>2020-02-08T09:28:42.000Z</time>
      </trkpt>
      <trkpt lat="45.30393" lon="6.17782">
        <ele>1874</ele>
        <time>2020-02-08T09:28:47.000Z</time>
      </trkpt>
      <trkpt lat="45.30394" lon="6.17781">
        <ele>1874.4000244141</ele>
        <time>2020-02-08T09:28:48.000Z</time>
      </trkpt>
      <trkpt lat="45.30396" lon="6.17778">
        <ele>1875.4000244141</ele>
        <time>2020-02-08T09:28:52.000Z</time>
      </trkpt>
      <trkpt lat="45.30396" lon="6.17777">
        <ele>1875.8000488281</ele>
        <time>2020-02-08T09:28:53.000Z</time>
      </trkpt>
      <trkpt lat="45.30398" lon="6.17774">
        <ele>1876.5999755859</ele>
        <time>2020-02-08T09:28:58.000Z</time>
      </trkpt>
      <trkpt lat="45.30398" lon="6.17773">
        <ele>1876.8000488281</ele>
        <time>2020-02-08T09:28:59.000Z</time>
      </trkpt>
      <trkpt lat="45.30396" lon="6.17773">
        <ele>1878.1999511719</ele>
        <time>2020-02-08T09:29:03.000Z</time>
      </trkpt>
      <trkpt lat="45.30396" lon="6.17773">
        <ele>1878.4000244141</ele>
        <time>2020-02-08T09:29:04.000Z</time>
      </trkpt>
      <trkpt lat="45.30397" lon="6.17771">
        <ele>1879.1999511719</ele>
        <time>2020-02-08T09:29:07.000Z</time>
      </trkpt>
      <trkpt lat="45.30397" lon="6.1777">
        <ele>1879.4000244141</ele>
        <time>2020-02-08T09:29:08.000Z</time>
      </trkpt>
      <trkpt lat="45.30399" lon="6.17768">
        <ele>1880.1999511719</ele>
        <time>2020-02-08T09:29:13.000Z</time>
      </trkpt>
      <trkpt lat="45.30399" lon="6.17767">
        <ele>1880.1999511719</ele>
        <time>2020-02-08T09:29:14.000Z</time>
      </trkpt>
      <trkpt lat="45.30401" lon="6.17765">
        <ele>1881</ele>
        <time>2020-02-08T09:29:18.000Z</time>
      </trkpt>
      <trkpt lat="45.30401" lon="6.17763">
        <ele>1881.4000244141</ele>
        <time>2020-02-08T09:29:20.000Z</time>
      </trkpt>
      <trkpt lat="45.30401" lon="6.17758">
        <ele>1882.1999511719</ele>
        <time>2020-02-08T09:29:24.000Z</time>
      </trkpt>
      <trkpt lat="45.30402" lon="6.17757">
        <ele>1882.5999755859</ele>
        <time>2020-02-08T09:29:26.000Z</time>
      </trkpt>
      <trkpt lat="45.30404" lon="6.17754">
        <ele>1883.1999511719</ele>
        <time>2020-02-08T09:29:29.000Z</time>
      </trkpt>
      <trkpt lat="45.30404" lon="6.17753">
        <ele>1883.4000244141</ele>
        <time>2020-02-08T09:29:30.000Z</time>
      </trkpt>
      <trkpt lat="45.30405" lon="6.17752">
        <ele>1883.5999755859</ele>
        <time>2020-02-08T09:29:31.000Z</time>
      </trkpt>
      <trkpt lat="45.30406" lon="6.17751">
        <ele>1884.8000488281</ele>
        <time>2020-02-08T09:29:36.000Z</time>
      </trkpt>
      <trkpt lat="45.30408" lon="6.17749">
        <ele>1885.4000244141</ele>
        <time>2020-02-08T09:29:41.000Z</time>
      </trkpt>
      <trkpt lat="45.3041" lon="6.17745">
        <ele>1885.5999755859</ele>
        <time>2020-02-08T09:29:46.000Z</time>
      </trkpt>
      <trkpt lat="45.3041" lon="6.17745">
        <ele>1886</ele>
        <time>2020-02-08T09:29:47.000Z</time>
      </trkpt>
      <trkpt lat="45.30412" lon="6.17742">
        <ele>1886.5999755859</ele>
        <time>2020-02-08T09:29:55.000Z</time>
      </trkpt>
      <trkpt lat="45.30413" lon="6.17741">
        <ele>1887</ele>
        <time>2020-02-08T09:29:59.000Z</time>
      </trkpt>
      <trkpt lat="45.30413" lon="6.17741">
        <ele>1887.4000244141</ele>
        <time>2020-02-08T09:30:10.000Z</time>
      </trkpt>
      <trkpt lat="45.30413" lon="6.17741">
        <ele>1887.4000244141</ele>
        <time>2020-02-08T09:30:23.000Z</time>
      </trkpt>
      <trkpt lat="45.30413" lon="6.17738">
        <ele>1887.1999511719</ele>
        <time>2020-02-08T09:30:32.000Z</time>
      </trkpt>
      <trkpt lat="45.30414" lon="6.17733">
        <ele>1887.5999755859</ele>
        <time>2020-02-08T09:30:37.000Z</time>
      </trkpt>
      <trkpt lat="45.30414" lon="6.17732">
        <ele>1888</ele>
        <time>2020-02-08T09:30:39.000Z</time>
      </trkpt>
      <trkpt lat="45.30416" lon="6.1773">
        <ele>1888.4000244141</ele>
        <time>2020-02-08T09:30:42.000Z</time>
      </trkpt>
      <trkpt lat="45.30417" lon="6.17729">
        <ele>1889</ele>
        <time>2020-02-08T09:30:45.000Z</time>
      </trkpt>
      <trkpt lat="45.30417" lon="6.17728">
        <ele>1889.1999511719</ele>
        <time>2020-02-08T09:30:46.000Z</time>
      </trkpt>
      <trkpt lat="45.30419" lon="6.17722">
        <ele>1890.1999511719</ele>
        <time>2020-02-08T09:30:52.000Z</time>
      </trkpt>
      <trkpt lat="45.30421" lon="6.17721">
        <ele>1890.1999511719</ele>
        <time>2020-02-08T09:30:53.000Z</time>
      </trkpt>
      <trkpt lat="45.30422" lon="6.17717">
        <ele>1891</ele>
        <time>2020-02-08T09:30:58.000Z</time>
      </trkpt>
      <trkpt lat="45.30423" lon="6.17714">
        <ele>1891.1999511719</ele>
        <time>2020-02-08T09:31:00.000Z</time>
      </trkpt>
      <trkpt lat="45.30424" lon="6.17712">
        <ele>1891.8000488281</ele>
        <time>2020-02-08T09:31:03.000Z</time>
      </trkpt>
      <trkpt lat="45.30425" lon="6.17708">
        <ele>1892.4000244141</ele>
        <time>2020-02-08T09:31:07.000Z</time>
      </trkpt>
      <trkpt lat="45.30425" lon="6.17702">
        <ele>1892.8000488281</ele>
        <time>2020-02-08T09:31:12.000Z</time>
      </trkpt>
      <trkpt lat="45.30426" lon="6.177">
        <ele>1893.5999755859</ele>
        <time>2020-02-08T09:31:16.000Z</time>
      </trkpt>
      <trkpt lat="45.30426" lon="6.177">
        <ele>1893.5999755859</ele>
        <time>2020-02-08T09:31:17.000Z</time>
      </trkpt>
      <trkpt lat="45.30428" lon="6.17697">
        <ele>1894</ele>
        <time>2020-02-08T09:31:22.000Z</time>
      </trkpt>
      <trkpt lat="45.3043" lon="6.17694">
        <ele>1894.1999511719</ele>
        <time>2020-02-08T09:31:26.000Z</time>
      </trkpt>
      <trkpt lat="45.30432" lon="6.17692">
        <ele>1894.8000488281</ele>
        <time>2020-02-08T09:31:29.000Z</time>
      </trkpt>
      <trkpt lat="45.30434" lon="6.17689">
        <ele>1895.1999511719</ele>
        <time>2020-02-08T09:31:31.000Z</time>
      </trkpt>
      <trkpt lat="45.30435" lon="6.17687">
        <ele>1895.8000488281</ele>
        <time>2020-02-08T09:31:34.000Z</time>
      </trkpt>
      <trkpt lat="45.30436" lon="6.17685">
        <ele>1896.1999511719</ele>
        <time>2020-02-08T09:31:36.000Z</time>
      </trkpt>
      <trkpt lat="45.30436" lon="6.17682">
        <ele>1897</ele>
        <time>2020-02-08T09:31:39.000Z</time>
      </trkpt>
      <trkpt lat="45.30436" lon="6.17681">
        <ele>1897.4000244141</ele>
        <time>2020-02-08T09:31:40.000Z</time>
      </trkpt>
      <trkpt lat="45.30435" lon="6.17678">
        <ele>1897.5999755859</ele>
        <time>2020-02-08T09:31:42.000Z</time>
      </trkpt>
      <trkpt lat="45.30433" lon="6.17675">
        <ele>1898</ele>
        <time>2020-02-08T09:31:44.000Z</time>
      </trkpt>
      <trkpt lat="45.30432" lon="6.17674">
        <ele>1898.4000244141</ele>
        <time>2020-02-08T09:31:46.000Z</time>
      </trkpt>
      <trkpt lat="45.30432" lon="6.1767">
        <ele>1899.1999511719</ele>
        <time>2020-02-08T09:31:51.000Z</time>
      </trkpt>
      <trkpt lat="45.30435" lon="6.17666">
        <ele>1900.1999511719</ele>
        <time>2020-02-08T09:31:56.000Z</time>
      </trkpt>
      <trkpt lat="45.30435" lon="6.17665">
        <ele>1900.5999755859</ele>
        <time>2020-02-08T09:31:57.000Z</time>
      </trkpt>
      <trkpt lat="45.30435" lon="6.17665">
        <ele>1900.8000488281</ele>
        <time>2020-02-08T09:31:58.000Z</time>
      </trkpt>
      <trkpt lat="45.30437" lon="6.17663">
        <ele>1901.4000244141</ele>
        <time>2020-02-08T09:32:00.000Z</time>
      </trkpt>
      <trkpt lat="45.30438" lon="6.17662">
        <ele>1901.8000488281</ele>
        <time>2020-02-08T09:32:02.000Z</time>
      </trkpt>
      <trkpt lat="45.30439" lon="6.17661">
        <ele>1902.4000244141</ele>
        <time>2020-02-08T09:32:05.000Z</time>
      </trkpt>
      <trkpt lat="45.30441" lon="6.1766">
        <ele>1902.4000244141</ele>
        <time>2020-02-08T09:32:06.000Z</time>
      </trkpt>
      <trkpt lat="45.30441" lon="6.1766">
        <ele>1902.5999755859</ele>
        <time>2020-02-08T09:32:07.000Z</time>
      </trkpt>
      <trkpt lat="45.30443" lon="6.17657">
        <ele>1903</ele>
        <time>2020-02-08T09:32:12.000Z</time>
      </trkpt>
      <trkpt lat="45.30443" lon="6.17656">
        <ele>1903.4000244141</ele>
        <time>2020-02-08T09:32:14.000Z</time>
      </trkpt>
      <trkpt lat="45.30443" lon="6.17655">
        <ele>1903.5999755859</ele>
        <time>2020-02-08T09:32:16.000Z</time>
      </trkpt>
      <trkpt lat="45.30444" lon="6.17654">
        <ele>1904.4000244141</ele>
        <time>2020-02-08T09:32:20.000Z</time>
      </trkpt>
      <trkpt lat="45.30444" lon="6.17655">
        <ele>1904.4000244141</ele>
        <time>2020-02-08T09:32:21.000Z</time>
      </trkpt>
      <trkpt lat="45.30445" lon="6.17654">
        <ele>1905.1999511719</ele>
        <time>2020-02-08T09:32:25.000Z</time>
      </trkpt>
      <trkpt lat="45.30445" lon="6.17652">
        <ele>1905.8000488281</ele>
        <time>2020-02-08T09:32:28.000Z</time>
      </trkpt>
      <trkpt lat="45.30446" lon="6.17652">
        <ele>1906.5999755859</ele>
        <time>2020-02-08T09:32:32.000Z</time>
      </trkpt>
      <trkpt lat="45.30447" lon="6.17652">
        <ele>1906.8000488281</ele>
        <time>2020-02-08T09:32:34.000Z</time>
      </trkpt>
      <trkpt lat="45.30447" lon="6.17652">
        <ele>1907.5999755859</ele>
        <time>2020-02-08T09:32:38.000Z</time>
      </trkpt>
      <trkpt lat="45.30447" lon="6.17652">
        <ele>1907.8000488281</ele>
        <time>2020-02-08T09:32:40.000Z</time>
      </trkpt>
      <trkpt lat="45.30447" lon="6.17649">
        <ele>1907.8000488281</ele>
        <time>2020-02-08T09:32:46.000Z</time>
      </trkpt>
      <trkpt lat="45.30445" lon="6.17644">
        <ele>1907.5999755859</ele>
        <time>2020-02-08T09:32:50.000Z</time>
      </trkpt>
      <trkpt lat="45.30443" lon="6.17642">
        <ele>1909</ele>
        <time>2020-02-08T09:32:54.000Z</time>
      </trkpt>
      <trkpt lat="45.3044" lon="6.17637">
        <ele>1910</ele>
        <time>2020-02-08T09:32:59.000Z</time>
      </trkpt>
      <trkpt lat="45.30438" lon="6.17636">
        <ele>1911.1999511719</ele>
        <time>2020-02-08T09:33:04.000Z</time>
      </trkpt>
      <trkpt lat="45.30437" lon="6.17635">
        <ele>1911.5999755859</ele>
        <time>2020-02-08T09:33:06.000Z</time>
      </trkpt>
      <trkpt lat="45.30435" lon="6.17634">
        <ele>1912.1999511719</ele>
        <time>2020-02-08T09:33:10.000Z</time>
      </trkpt>
      <trkpt lat="45.30435" lon="6.17633">
        <ele>1912.4000244141</ele>
        <time>2020-02-08T09:33:11.000Z</time>
      </trkpt>
      <trkpt lat="45.30434" lon="6.17633">
        <ele>1912.4000244141</ele>
        <time>2020-02-08T09:33:12.000Z</time>
      </trkpt>
      <trkpt lat="45.30434" lon="6.17632">
        <ele>1913.5999755859</ele>
        <time>2020-02-08T09:33:16.000Z</time>
      </trkpt>
      <trkpt lat="45.30434" lon="6.17631">
        <ele>1913.8000488281</ele>
        <time>2020-02-08T09:33:17.000Z</time>
      </trkpt>
      <trkpt lat="45.30433" lon="6.17625">
        <ele>1914.5999755859</ele>
        <time>2020-02-08T09:33:22.000Z</time>
      </trkpt>
      <trkpt lat="45.30434" lon="6.17625">
        <ele>1914.8000488281</ele>
        <time>2020-02-08T09:33:23.000Z</time>
      </trkpt>
      <trkpt lat="45.30438" lon="6.17623">
        <ele>1915.4000244141</ele>
        <time>2020-02-08T09:33:26.000Z</time>
      </trkpt>
      <trkpt lat="45.30439" lon="6.17623">
        <ele>1915.8000488281</ele>
        <time>2020-02-08T09:33:28.000Z</time>
      </trkpt>
      <trkpt lat="45.3044" lon="6.17623">
        <ele>1916.8000488281</ele>
        <time>2020-02-08T09:33:34.000Z</time>
      </trkpt>
      <trkpt lat="45.3044" lon="6.17623">
        <ele>1917</ele>
        <time>2020-02-08T09:33:35.000Z</time>
      </trkpt>
      <trkpt lat="45.3044" lon="6.17623">
        <ele>1917.5999755859</ele>
        <time>2020-02-08T09:33:44.000Z</time>
      </trkpt>
      <trkpt lat="45.30442" lon="6.1762">
        <ele>1917.5999755859</ele>
        <time>2020-02-08T09:33:51.000Z</time>
      </trkpt>
      <trkpt lat="45.30442" lon="6.17619">
        <ele>1918</ele>
        <time>2020-02-08T09:33:54.000Z</time>
      </trkpt>
      <trkpt lat="45.30442" lon="6.17618">
        <ele>1918.1999511719</ele>
        <time>2020-02-08T09:33:55.000Z</time>
      </trkpt>
      <trkpt lat="45.3044" lon="6.17615">
        <ele>1919</ele>
        <time>2020-02-08T09:34:00.000Z</time>
      </trkpt>
      <trkpt lat="45.30439" lon="6.17613">
        <ele>1920.1999511719</ele>
        <time>2020-02-08T09:34:03.000Z</time>
      </trkpt>
      <trkpt lat="45.30438" lon="6.1761">
        <ele>1921</ele>
        <time>2020-02-08T09:34:06.000Z</time>
      </trkpt>
      <trkpt lat="45.30438" lon="6.17608">
        <ele>1921.1999511719</ele>
        <time>2020-02-08T09:34:07.000Z</time>
      </trkpt>
      <trkpt lat="45.30436" lon="6.17605">
        <ele>1922</ele>
        <time>2020-02-08T09:34:11.000Z</time>
      </trkpt>
      <trkpt lat="45.30436" lon="6.17603">
        <ele>1922.4000244141</ele>
        <time>2020-02-08T09:34:13.000Z</time>
      </trkpt>
      <trkpt lat="45.30437" lon="6.17602">
        <ele>1923</ele>
        <time>2020-02-08T09:34:16.000Z</time>
      </trkpt>
      <trkpt lat="45.30437" lon="6.17602">
        <ele>1923.5999755859</ele>
        <time>2020-02-08T09:34:18.000Z</time>
      </trkpt>
      <trkpt lat="45.30439" lon="6.176">
        <ele>1924.4000244141</ele>
        <time>2020-02-08T09:34:21.000Z</time>
      </trkpt>
      <trkpt lat="45.30439" lon="6.17598">
        <ele>1924.5999755859</ele>
        <time>2020-02-08T09:34:22.000Z</time>
      </trkpt>
      <trkpt lat="45.3044" lon="6.17597">
        <ele>1925.5999755859</ele>
        <time>2020-02-08T09:34:26.000Z</time>
      </trkpt>
      <trkpt lat="45.3044" lon="6.17597">
        <ele>1925.8000488281</ele>
        <time>2020-02-08T09:34:27.000Z</time>
      </trkpt>
      <trkpt lat="45.30442" lon="6.17595">
        <ele>1926.4000244141</ele>
        <time>2020-02-08T09:34:30.000Z</time>
      </trkpt>
      <trkpt lat="45.30443" lon="6.17593">
        <ele>1927</ele>
        <time>2020-02-08T09:34:33.000Z</time>
      </trkpt>
      <trkpt lat="45.30444" lon="6.17592">
        <ele>1927.5999755859</ele>
        <time>2020-02-08T09:34:35.000Z</time>
      </trkpt>
      <trkpt lat="45.30443" lon="6.17591">
        <ele>1928</ele>
        <time>2020-02-08T09:34:36.000Z</time>
      </trkpt>
      <trkpt lat="45.30445" lon="6.1759">
        <ele>1928.8000488281</ele>
        <time>2020-02-08T09:34:41.000Z</time>
      </trkpt>
      <trkpt lat="45.30446" lon="6.17589">
        <ele>1929.1999511719</ele>
        <time>2020-02-08T09:34:43.000Z</time>
      </trkpt>
      <trkpt lat="45.30446" lon="6.17588">
        <ele>1930</ele>
        <time>2020-02-08T09:34:45.000Z</time>
      </trkpt>
      <trkpt lat="45.30447" lon="6.17588">
        <ele>1930.1999511719</ele>
        <time>2020-02-08T09:34:46.000Z</time>
      </trkpt>
      <trkpt lat="45.3045" lon="6.17587">
        <ele>1931</ele>
        <time>2020-02-08T09:34:49.000Z</time>
      </trkpt>
      <trkpt lat="45.30451" lon="6.17586">
        <ele>1931.4000244141</ele>
        <time>2020-02-08T09:34:51.000Z</time>
      </trkpt>
      <trkpt lat="45.30452" lon="6.17585">
        <ele>1932.5999755859</ele>
        <time>2020-02-08T09:34:55.000Z</time>
      </trkpt>
      <trkpt lat="45.30453" lon="6.17582">
        <ele>1933.5999755859</ele>
        <time>2020-02-08T09:35:02.000Z</time>
      </trkpt>
      <trkpt lat="45.30453" lon="6.17581">
        <ele>1933.8000488281</ele>
        <time>2020-02-08T09:35:03.000Z</time>
      </trkpt>
      <trkpt lat="45.30456" lon="6.1758">
        <ele>1934.5999755859</ele>
        <time>2020-02-08T09:35:09.000Z</time>
      </trkpt>
      <trkpt lat="45.30457" lon="6.17579">
        <ele>1934.8000488281</ele>
        <time>2020-02-08T09:35:10.000Z</time>
      </trkpt>
      <trkpt lat="45.30457" lon="6.17576">
        <ele>1935.5999755859</ele>
        <time>2020-02-08T09:35:15.000Z</time>
      </trkpt>
      <trkpt lat="45.30455" lon="6.17574">
        <ele>1936</ele>
        <time>2020-02-08T09:35:16.000Z</time>
      </trkpt>
      <trkpt lat="45.30451" lon="6.17569">
        <ele>1937</ele>
        <time>2020-02-08T09:35:21.000Z</time>
      </trkpt>
      <trkpt lat="45.30452" lon="6.17569">
        <ele>1937</ele>
        <time>2020-02-08T09:35:22.000Z</time>
      </trkpt>
      <trkpt lat="45.30455" lon="6.17569">
        <ele>1937.1999511719</ele>
        <time>2020-02-08T09:35:24.000Z</time>
      </trkpt>
      <trkpt lat="45.30455" lon="6.17568">
        <ele>1937.4000244141</ele>
        <time>2020-02-08T09:35:25.000Z</time>
      </trkpt>
      <trkpt lat="45.30458" lon="6.17567">
        <ele>1938.1999511719</ele>
        <time>2020-02-08T09:35:31.000Z</time>
      </trkpt>
      <trkpt lat="45.3046" lon="6.17566">
        <ele>1938.8000488281</ele>
        <time>2020-02-08T09:35:36.000Z</time>
      </trkpt>
      <trkpt lat="45.30462" lon="6.17566">
        <ele>1939.4000244141</ele>
        <time>2020-02-08T09:35:40.000Z</time>
      </trkpt>
      <trkpt lat="45.30463" lon="6.17566">
        <ele>1940</ele>
        <time>2020-02-08T09:35:42.000Z</time>
      </trkpt>
      <trkpt lat="45.30463" lon="6.17565">
        <ele>1940.4000244141</ele>
        <time>2020-02-08T09:35:44.000Z</time>
      </trkpt>
      <trkpt lat="45.30464" lon="6.17565">
        <ele>1941</ele>
        <time>2020-02-08T09:35:47.000Z</time>
      </trkpt>
      <trkpt lat="45.30467" lon="6.17565">
        <ele>1941.5999755859</ele>
        <time>2020-02-08T09:35:50.000Z</time>
      </trkpt>
      <trkpt lat="45.30471" lon="6.17565">
        <ele>1942.1999511719</ele>
        <time>2020-02-08T09:35:54.000Z</time>
      </trkpt>
      <trkpt lat="45.30472" lon="6.17564">
        <ele>1942.8000488281</ele>
        <time>2020-02-08T09:35:58.000Z</time>
      </trkpt>
      <trkpt lat="45.30473" lon="6.17563">
        <ele>1943.1999511719</ele>
        <time>2020-02-08T09:36:00.000Z</time>
      </trkpt>
      <trkpt lat="45.30474" lon="6.17563">
        <ele>1943.8000488281</ele>
        <time>2020-02-08T09:36:02.000Z</time>
      </trkpt>
      <trkpt lat="45.30475" lon="6.17562">
        <ele>1944.8000488281</ele>
        <time>2020-02-08T09:36:06.000Z</time>
      </trkpt>
      <trkpt lat="45.30476" lon="6.17561">
        <ele>1944.8000488281</ele>
        <time>2020-02-08T09:36:08.000Z</time>
      </trkpt>
      <trkpt lat="45.3048" lon="6.1756">
        <ele>1945.4000244141</ele>
        <time>2020-02-08T09:36:10.000Z</time>
      </trkpt>
      <trkpt lat="45.30481" lon="6.1756">
        <ele>1946</ele>
        <time>2020-02-08T09:36:12.000Z</time>
      </trkpt>
      <trkpt lat="45.30482" lon="6.17559">
        <ele>1946.8000488281</ele>
        <time>2020-02-08T09:36:18.000Z</time>
      </trkpt>
      <trkpt lat="45.30482" lon="6.17559">
        <ele>1947</ele>
        <time>2020-02-08T09:36:23.000Z</time>
      </trkpt>
      <trkpt lat="45.30482" lon="6.17559">
        <ele>1946.5999755859</ele>
        <time>2020-02-08T09:36:29.000Z</time>
      </trkpt>
      <trkpt lat="45.30482" lon="6.17559">
        <ele>1945.8000488281</ele>
        <time>2020-02-08T09:36:33.000Z</time>
      </trkpt>
      <trkpt lat="45.30482" lon="6.17559">
        <ele>1947</ele>
        <time>2020-02-08T09:36:36.000Z</time>
      </trkpt>
      <trkpt lat="45.30482" lon="6.17559">
        <ele>1948</ele>
        <time>2020-02-08T09:36:38.000Z</time>
      </trkpt>
      <trkpt lat="45.30482" lon="6.17559">
        <ele>1948.4000244141</ele>
        <time>2020-02-08T09:36:39.000Z</time>
      </trkpt>
      <trkpt lat="45.30484" lon="6.17554">
        <ele>1947.8000488281</ele>
        <time>2020-02-08T09:36:44.000Z</time>
      </trkpt>
      <trkpt lat="45.30488" lon="6.17548">
        <ele>1948.5999755859</ele>
        <time>2020-02-08T09:36:49.000Z</time>
      </trkpt>
      <trkpt lat="45.3049" lon="6.17547">
        <ele>1949.1999511719</ele>
        <time>2020-02-08T09:36:51.000Z</time>
      </trkpt>
      <trkpt lat="45.30493" lon="6.17544">
        <ele>1950.4000244141</ele>
        <time>2020-02-08T09:36:55.000Z</time>
      </trkpt>
      <trkpt lat="45.30497" lon="6.17541">
        <ele>1951.5999755859</ele>
        <time>2020-02-08T09:37:00.000Z</time>
      </trkpt>
      <trkpt lat="45.30501" lon="6.17539">
        <ele>1952.5999755859</ele>
        <time>2020-02-08T09:37:07.000Z</time>
      </trkpt>
      <trkpt lat="45.30502" lon="6.17539">
        <ele>1952.8000488281</ele>
        <time>2020-02-08T09:37:08.000Z</time>
      </trkpt>
      <trkpt lat="45.30504" lon="6.17535">
        <ele>1953.8000488281</ele>
        <time>2020-02-08T09:37:13.000Z</time>
      </trkpt>
      <trkpt lat="45.30505" lon="6.17534">
        <ele>1954</ele>
        <time>2020-02-08T09:37:14.000Z</time>
      </trkpt>
      <trkpt lat="45.30506" lon="6.17533">
        <ele>1955</ele>
        <time>2020-02-08T09:37:17.000Z</time>
      </trkpt>
      <trkpt lat="45.30507" lon="6.17532">
        <ele>1955.1999511719</ele>
        <time>2020-02-08T09:37:18.000Z</time>
      </trkpt>
      <trkpt lat="45.3051" lon="6.1753">
        <ele>1956</ele>
        <time>2020-02-08T09:37:22.000Z</time>
      </trkpt>
      <trkpt lat="45.30511" lon="6.1753">
        <ele>1957</ele>
        <time>2020-02-08T09:37:26.000Z</time>
      </trkpt>
      <trkpt lat="45.30512" lon="6.1753">
        <ele>1957.1999511719</ele>
        <time>2020-02-08T09:37:27.000Z</time>
      </trkpt>
      <trkpt lat="45.30514" lon="6.17529">
        <ele>1958.1999511719</ele>
        <time>2020-02-08T09:37:30.000Z</time>
      </trkpt>
      <trkpt lat="45.30514" lon="6.17529">
        <ele>1958.4000244141</ele>
        <time>2020-02-08T09:37:31.000Z</time>
      </trkpt>
      <trkpt lat="45.30516" lon="6.17529">
        <ele>1958.8000488281</ele>
        <time>2020-02-08T09:37:34.000Z</time>
      </trkpt>
      <trkpt lat="45.30517" lon="6.17528">
        <ele>1959.4000244141</ele>
        <time>2020-02-08T09:37:38.000Z</time>
      </trkpt>
      <trkpt lat="45.30519" lon="6.17528">
        <ele>1960.4000244141</ele>
        <time>2020-02-08T09:37:42.000Z</time>
      </trkpt>
      <trkpt lat="45.30519" lon="6.17527">
        <ele>1960.5999755859</ele>
        <time>2020-02-08T09:37:43.000Z</time>
      </trkpt>
      <trkpt lat="45.3052" lon="6.17527">
        <ele>1961.8000488281</ele>
        <time>2020-02-08T09:37:49.000Z</time>
      </trkpt>
      <trkpt lat="45.30522" lon="6.17526">
        <ele>1963</ele>
        <time>2020-02-08T09:37:54.000Z</time>
      </trkpt>
      <trkpt lat="45.30522" lon="6.17527">
        <ele>1963.4000244141</ele>
        <time>2020-02-08T09:37:57.000Z</time>
      </trkpt>
      <trkpt lat="45.30522" lon="6.17527">
        <ele>1963.8000488281</ele>
        <time>2020-02-08T09:38:01.000Z</time>
      </trkpt>
      <trkpt lat="45.3052" lon="6.17523">
        <ele>1964</ele>
        <time>2020-02-08T09:38:05.000Z</time>
      </trkpt>
      <trkpt lat="45.30517" lon="6.17516">
        <ele>1964.8000488281</ele>
        <time>2020-02-08T09:38:11.000Z</time>
      </trkpt>
      <trkpt lat="45.30517" lon="6.17515">
        <ele>1965</ele>
        <time>2020-02-08T09:38:12.000Z</time>
      </trkpt>
      <trkpt lat="45.30517" lon="6.17514">
        <ele>1965.5999755859</ele>
        <time>2020-02-08T09:38:15.000Z</time>
      </trkpt>
      <trkpt lat="45.30516" lon="6.17512">
        <ele>1966</ele>
        <time>2020-02-08T09:38:17.000Z</time>
      </trkpt>
      <trkpt lat="45.30514" lon="6.17508">
        <ele>1966.5999755859</ele>
        <time>2020-02-08T09:38:20.000Z</time>
      </trkpt>
      <trkpt lat="45.30514" lon="6.17507">
        <ele>1967.1999511719</ele>
        <time>2020-02-08T09:38:23.000Z</time>
      </trkpt>
      <trkpt lat="45.30513" lon="6.17506">
        <ele>1967.5999755859</ele>
        <time>2020-02-08T09:38:26.000Z</time>
      </trkpt>
      <trkpt lat="45.30511" lon="6.17504">
        <ele>1968.4000244141</ele>
        <time>2020-02-08T09:38:30.000Z</time>
      </trkpt>
      <trkpt lat="45.30511" lon="6.17503">
        <ele>1968.5999755859</ele>
        <time>2020-02-08T09:38:31.000Z</time>
      </trkpt>
      <trkpt lat="45.30512" lon="6.17504">
        <ele>1969.1999511719</ele>
        <time>2020-02-08T09:38:36.000Z</time>
      </trkpt>
      <trkpt lat="45.30512" lon="6.17504">
        <ele>1969.4000244141</ele>
        <time>2020-02-08T09:38:37.000Z</time>
      </trkpt>
      <trkpt lat="45.30511" lon="6.17504">
        <ele>1970.4000244141</ele>
        <time>2020-02-08T09:38:43.000Z</time>
      </trkpt>
      <trkpt lat="45.30511" lon="6.17504">
        <ele>1970.4000244141</ele>
        <time>2020-02-08T09:38:51.000Z</time>
      </trkpt>
      <trkpt lat="45.30514" lon="6.17503">
        <ele>1970.1999511719</ele>
        <time>2020-02-08T09:38:58.000Z</time>
      </trkpt>
      <trkpt lat="45.30516" lon="6.17502">
        <ele>1970.4000244141</ele>
        <time>2020-02-08T09:39:02.000Z</time>
      </trkpt>
      <trkpt lat="45.30516" lon="6.17501">
        <ele>1970.5999755859</ele>
        <time>2020-02-08T09:39:03.000Z</time>
      </trkpt>
      <trkpt lat="45.3052" lon="6.17502">
        <ele>1971.4000244141</ele>
        <time>2020-02-08T09:39:07.000Z</time>
      </trkpt>
      <trkpt lat="45.3052" lon="6.17501">
        <ele>1971.5999755859</ele>
        <time>2020-02-08T09:39:08.000Z</time>
      </trkpt>
      <trkpt lat="45.30521" lon="6.175">
        <ele>1972.1999511719</ele>
        <time>2020-02-08T09:39:12.000Z</time>
      </trkpt>
      <trkpt lat="45.30522" lon="6.175">
        <ele>1972.8000488281</ele>
        <time>2020-02-08T09:39:15.000Z</time>
      </trkpt>
      <trkpt lat="45.30523" lon="6.175">
        <ele>1973.5999755859</ele>
        <time>2020-02-08T09:39:17.000Z</time>
      </trkpt>
      <trkpt lat="45.30524" lon="6.17501">
        <ele>1973.8000488281</ele>
        <time>2020-02-08T09:39:18.000Z</time>
      </trkpt>
      <trkpt lat="45.30526" lon="6.175">
        <ele>1974.1999511719</ele>
        <time>2020-02-08T09:39:20.000Z</time>
      </trkpt>
      <trkpt lat="45.30527" lon="6.17498">
        <ele>1974.4000244141</ele>
        <time>2020-02-08T09:39:21.000Z</time>
      </trkpt>
      <trkpt lat="45.30528" lon="6.17499">
        <ele>1975</ele>
        <time>2020-02-08T09:39:24.000Z</time>
      </trkpt>
      <trkpt lat="45.30528" lon="6.17499">
        <ele>1975.1999511719</ele>
        <time>2020-02-08T09:39:25.000Z</time>
      </trkpt>
      <trkpt lat="45.30528" lon="6.17497">
        <ele>1975.5999755859</ele>
        <time>2020-02-08T09:39:26.000Z</time>
      </trkpt>
      <trkpt lat="45.30529" lon="6.17496">
        <ele>1976.1999511719</ele>
        <time>2020-02-08T09:39:28.000Z</time>
      </trkpt>
      <trkpt lat="45.30529" lon="6.17496">
        <ele>1976.4000244141</ele>
        <time>2020-02-08T09:39:29.000Z</time>
      </trkpt>
      <trkpt lat="45.3053" lon="6.17494">
        <ele>1977.1999511719</ele>
        <time>2020-02-08T09:39:32.000Z</time>
      </trkpt>
      <trkpt lat="45.3053" lon="6.17493">
        <ele>1977.8000488281</ele>
        <time>2020-02-08T09:39:34.000Z</time>
      </trkpt>
      <trkpt lat="45.30529" lon="6.17491">
        <ele>1978.4000244141</ele>
        <time>2020-02-08T09:39:36.000Z</time>
      </trkpt>
      <trkpt lat="45.30529" lon="6.1749">
        <ele>1979</ele>
        <time>2020-02-08T09:39:39.000Z</time>
      </trkpt>
      <trkpt lat="45.30528" lon="6.17488">
        <ele>1979.4000244141</ele>
        <time>2020-02-08T09:39:40.000Z</time>
      </trkpt>
      <trkpt lat="45.30528" lon="6.17487">
        <ele>1980.1999511719</ele>
        <time>2020-02-08T09:39:44.000Z</time>
      </trkpt>
      <trkpt lat="45.30528" lon="6.17485">
        <ele>1980.5999755859</ele>
        <time>2020-02-08T09:39:47.000Z</time>
      </trkpt>
      <trkpt lat="45.30528" lon="6.17485">
        <ele>1981</ele>
        <time>2020-02-08T09:39:49.000Z</time>
      </trkpt>
      <trkpt lat="45.30529" lon="6.17485">
        <ele>1981.8000488281</ele>
        <time>2020-02-08T09:39:52.000Z</time>
      </trkpt>
      <trkpt lat="45.30533" lon="6.17484">
        <ele>1982.1999511719</ele>
        <time>2020-02-08T09:39:55.000Z</time>
      </trkpt>
      <trkpt lat="45.30534" lon="6.17484">
        <ele>1982.1999511719</ele>
        <time>2020-02-08T09:39:57.000Z</time>
      </trkpt>
      <trkpt lat="45.30536" lon="6.17483">
        <ele>1982.4000244141</ele>
        <time>2020-02-08T09:40:01.000Z</time>
      </trkpt>
      <trkpt lat="45.30537" lon="6.17482">
        <ele>1982.8000488281</ele>
        <time>2020-02-08T09:40:03.000Z</time>
      </trkpt>
      <trkpt lat="45.30539" lon="6.17479">
        <ele>1983.5999755859</ele>
        <time>2020-02-08T09:40:06.000Z</time>
      </trkpt>
      <trkpt lat="45.30539" lon="6.17479">
        <ele>1984</ele>
        <time>2020-02-08T09:40:08.000Z</time>
      </trkpt>
      <trkpt lat="45.30541" lon="6.17478">
        <ele>1984.8000488281</ele>
        <time>2020-02-08T09:40:12.000Z</time>
      </trkpt>
      <trkpt lat="45.30542" lon="6.17478">
        <ele>1985</ele>
        <time>2020-02-08T09:40:13.000Z</time>
      </trkpt>
      <trkpt lat="45.30544" lon="6.17478">
        <ele>1986</ele>
        <time>2020-02-08T09:40:17.000Z</time>
      </trkpt>
      <trkpt lat="45.30544" lon="6.17477">
        <ele>1986.1999511719</ele>
        <time>2020-02-08T09:40:18.000Z</time>
      </trkpt>
      <trkpt lat="45.30543" lon="6.17473">
        <ele>1987.1999511719</ele>
        <time>2020-02-08T09:40:23.000Z</time>
      </trkpt>
      <trkpt lat="45.30543" lon="6.17473">
        <ele>1987.4000244141</ele>
        <time>2020-02-08T09:40:24.000Z</time>
      </trkpt>
      <trkpt lat="45.30543" lon="6.1747">
        <ele>1988.1999511719</ele>
        <time>2020-02-08T09:40:28.000Z</time>
      </trkpt>
      <trkpt lat="45.30543" lon="6.17469">
        <ele>1988.4000244141</ele>
        <time>2020-02-08T09:40:29.000Z</time>
      </trkpt>
      <trkpt lat="45.30542" lon="6.17467">
        <ele>1988.5999755859</ele>
        <time>2020-02-08T09:40:30.000Z</time>
      </trkpt>
      <trkpt lat="45.30542" lon="6.17466">
        <ele>1989</ele>
        <time>2020-02-08T09:40:32.000Z</time>
      </trkpt>
      <trkpt lat="45.30541" lon="6.17466">
        <ele>1989.5999755859</ele>
        <time>2020-02-08T09:40:35.000Z</time>
      </trkpt>
      <trkpt lat="45.30541" lon="6.17466">
        <ele>1989.8000488281</ele>
        <time>2020-02-08T09:40:36.000Z</time>
      </trkpt>
      <trkpt lat="45.3054" lon="6.17462">
        <ele>1990.8000488281</ele>
        <time>2020-02-08T09:40:40.000Z</time>
      </trkpt>
      <trkpt lat="45.30539" lon="6.17461">
        <ele>1991.1999511719</ele>
        <time>2020-02-08T09:40:42.000Z</time>
      </trkpt>
      <trkpt lat="45.30538" lon="6.17459">
        <ele>1991.8000488281</ele>
        <time>2020-02-08T09:40:46.000Z</time>
      </trkpt>
      <trkpt lat="45.30539" lon="6.17454">
        <ele>1992.8000488281</ele>
        <time>2020-02-08T09:40:51.000Z</time>
      </trkpt>
      <trkpt lat="45.30539" lon="6.17453">
        <ele>1993.4000244141</ele>
        <time>2020-02-08T09:40:52.000Z</time>
      </trkpt>
      <trkpt lat="45.30539" lon="6.17451">
        <ele>1994</ele>
        <time>2020-02-08T09:40:54.000Z</time>
      </trkpt>
      <trkpt lat="45.30539" lon="6.17451">
        <ele>1994.1999511719</ele>
        <time>2020-02-08T09:40:55.000Z</time>
      </trkpt>
      <trkpt lat="45.30538" lon="6.17449">
        <ele>1994.4000244141</ele>
        <time>2020-02-08T09:40:57.000Z</time>
      </trkpt>
      <trkpt lat="45.30534" lon="6.17448">
        <ele>1994.8000488281</ele>
        <time>2020-02-08T09:41:00.000Z</time>
      </trkpt>
      <trkpt lat="45.30526" lon="6.17444">
        <ele>1994.5999755859</ele>
        <time>2020-02-08T09:41:08.000Z</time>
      </trkpt>
      <trkpt lat="45.30526" lon="6.17444">
        <ele>1993.5999755859</ele>
        <time>2020-02-08T09:41:21.000Z</time>
      </trkpt>
      <trkpt lat="45.30526" lon="6.17444">
        <ele>1993.1999511719</ele>
        <time>2020-02-08T09:41:22.000Z</time>
      </trkpt>
      <trkpt lat="45.30526" lon="6.17444">
        <ele>1994.4000244141</ele>
        <time>2020-02-08T09:41:28.000Z</time>
      </trkpt>
      <trkpt lat="45.30526" lon="6.17444">
        <ele>1995</ele>
        <time>2020-02-08T09:41:34.000Z</time>
      </trkpt>
      <trkpt lat="45.30526" lon="6.17444">
        <ele>1993.4000244141</ele>
        <time>2020-02-08T09:41:40.000Z</time>
      </trkpt>
      <trkpt lat="45.30526" lon="6.17444">
        <ele>1994.4000244141</ele>
        <time>2020-02-08T09:41:43.000Z</time>
      </trkpt>
      <trkpt lat="45.30527" lon="6.17446">
        <ele>1993.8000488281</ele>
        <time>2020-02-08T09:41:58.000Z</time>
      </trkpt>
      <trkpt lat="45.30527" lon="6.17446">
        <ele>1993.8000488281</ele>
        <time>2020-02-08T09:42:09.000Z</time>
      </trkpt>
      <trkpt lat="45.30527" lon="6.17446">
        <ele>1993.4000244141</ele>
        <time>2020-02-08T09:42:16.000Z</time>
      </trkpt>
      <trkpt lat="45.30527" lon="6.17446">
        <ele>1993.1999511719</ele>
        <time>2020-02-08T09:42:18.000Z</time>
      </trkpt>
      <trkpt lat="45.30527" lon="6.17446">
        <ele>1994.4000244141</ele>
        <time>2020-02-08T09:42:26.000Z</time>
      </trkpt>
      <trkpt lat="45.30528" lon="6.17447">
        <ele>1994.1999511719</ele>
        <time>2020-02-08T09:42:30.000Z</time>
      </trkpt>
      <trkpt lat="45.30528" lon="6.17447">
        <ele>1993.4000244141</ele>
        <time>2020-02-08T09:42:35.000Z</time>
      </trkpt>
      <trkpt lat="45.30528" lon="6.17447">
        <ele>1993.5999755859</ele>
        <time>2020-02-08T09:42:38.000Z</time>
      </trkpt>
      <trkpt lat="45.30528" lon="6.17447">
        <ele>1994</ele>
        <time>2020-02-08T09:42:56.000Z</time>
      </trkpt>
      <trkpt lat="45.30528" lon="6.17447">
        <ele>1994.4000244141</ele>
        <time>2020-02-08T09:43:05.000Z</time>
      </trkpt>
      <trkpt lat="45.30528" lon="6.17447">
        <ele>1993.8000488281</ele>
        <time>2020-02-08T09:43:10.000Z</time>
      </trkpt>
      <trkpt lat="45.30528" lon="6.17447">
        <ele>1994.1999511719</ele>
        <time>2020-02-08T09:43:24.000Z</time>
      </trkpt>
      <trkpt lat="45.30528" lon="6.17447">
        <ele>1994</ele>
        <time>2020-02-08T09:43:35.000Z</time>
      </trkpt>
      <trkpt lat="45.30528" lon="6.17447">
        <ele>1993.5999755859</ele>
        <time>2020-02-08T09:43:52.000Z</time>
      </trkpt>
      <trkpt lat="45.30528" lon="6.17447">
        <ele>1994</ele>
        <time>2020-02-08T09:44:07.000Z</time>
      </trkpt>
      <trkpt lat="45.30528" lon="6.17447">
        <ele>1993.8000488281</ele>
        <time>2020-02-08T09:44:20.000Z</time>
      </trkpt>
      <trkpt lat="45.30528" lon="6.17447">
        <ele>1994</ele>
        <time>2020-02-08T09:44:21.000Z</time>
      </trkpt>
      <trkpt lat="45.30528" lon="6.17447">
        <ele>1993.8000488281</ele>
        <time>2020-02-08T09:44:34.000Z</time>
      </trkpt>
      <trkpt lat="45.30528" lon="6.17446">
        <ele>1993.8000488281</ele>
        <time>2020-02-08T09:44:47.000Z</time>
      </trkpt>
      <trkpt lat="45.30528" lon="6.17446">
        <ele>1994</ele>
        <time>2020-02-08T09:45:00.000Z</time>
      </trkpt>
      <trkpt lat="45.30528" lon="6.17446">
        <ele>1994</ele>
        <time>2020-02-08T09:45:15.000Z</time>
      </trkpt>
      <trkpt lat="45.30528" lon="6.17446">
        <ele>1993.1999511719</ele>
        <time>2020-02-08T09:45:26.000Z</time>
      </trkpt>
      <trkpt lat="45.30528" lon="6.17446">
        <ele>1993.4000244141</ele>
        <time>2020-02-08T09:45:31.000Z</time>
      </trkpt>
      <trkpt lat="45.30528" lon="6.17446">
        <ele>1994.4000244141</ele>
        <time>2020-02-08T09:45:41.000Z</time>
      </trkpt>
      <trkpt lat="45.30528" lon="6.17446">
        <ele>1994.4000244141</ele>
        <time>2020-02-08T09:45:44.000Z</time>
      </trkpt>
      <trkpt lat="45.30529" lon="6.17446">
        <ele>1993.5999755859</ele>
        <time>2020-02-08T09:45:52.000Z</time>
      </trkpt>
      <trkpt lat="45.30529" lon="6.17446">
        <ele>1994.1999511719</ele>
        <time>2020-02-08T09:46:03.000Z</time>
      </trkpt>
      <trkpt lat="45.30529" lon="6.17446">
        <ele>1993.1999511719</ele>
        <time>2020-02-08T09:46:10.000Z</time>
      </trkpt>
      <trkpt lat="45.30529" lon="6.17446">
        <ele>1994.4000244141</ele>
        <time>2020-02-08T09:46:14.000Z</time>
      </trkpt>
      <trkpt lat="45.30529" lon="6.17446">
        <ele>1994.5999755859</ele>
        <time>2020-02-08T09:46:15.000Z</time>
      </trkpt>
      <trkpt lat="45.30529" lon="6.17446">
        <ele>1994</ele>
        <time>2020-02-08T09:46:29.000Z</time>
      </trkpt>
      <trkpt lat="45.30529" lon="6.17446">
        <ele>1994.4000244141</ele>
        <time>2020-02-08T09:46:44.000Z</time>
      </trkpt>
      <trkpt lat="45.30529" lon="6.17446">
        <ele>1993.8000488281</ele>
        <time>2020-02-08T09:46:57.000Z</time>
      </trkpt>
      <trkpt lat="45.30529" lon="6.17447">
        <ele>1994.1999511719</ele>
        <time>2020-02-08T09:47:08.000Z</time>
      </trkpt>
      <trkpt lat="45.30529" lon="6.17447">
        <ele>1994</ele>
        <time>2020-02-08T09:47:21.000Z</time>
      </trkpt>
      <trkpt lat="45.30529" lon="6.17447">
        <ele>1994.4000244141</ele>
        <time>2020-02-08T09:47:31.000Z</time>
      </trkpt>
      <trkpt lat="45.30529" lon="6.17447">
        <ele>1994</ele>
        <time>2020-02-08T09:47:42.000Z</time>
      </trkpt>
      <trkpt lat="45.3053" lon="6.17447">
        <ele>1994</ele>
        <time>2020-02-08T09:47:50.000Z</time>
      </trkpt>
      <trkpt lat="45.30532" lon="6.17449">
        <ele>1994</ele>
        <time>2020-02-08T09:48:02.000Z</time>
      </trkpt>
      <trkpt lat="45.30532" lon="6.17449">
        <ele>1994.5999755859</ele>
        <time>2020-02-08T09:48:07.000Z</time>
      </trkpt>
      <trkpt lat="45.30532" lon="6.17449">
        <ele>1994.1999511719</ele>
        <time>2020-02-08T09:48:26.000Z</time>
      </trkpt>
      <trkpt lat="45.30532" lon="6.17449">
        <ele>1993.5999755859</ele>
        <time>2020-02-08T09:48:38.000Z</time>
      </trkpt>
      <trkpt lat="45.30532" lon="6.17449">
        <ele>1992.5999755859</ele>
        <time>2020-02-08T09:48:39.000Z</time>
      </trkpt>
      <trkpt lat="45.30532" lon="6.17448">
        <ele>1991.5999755859</ele>
        <time>2020-02-08T09:48:42.000Z</time>
      </trkpt>
      <trkpt lat="45.30532" lon="6.17448">
        <ele>1992.8000488281</ele>
        <time>2020-02-08T09:48:44.000Z</time>
      </trkpt>
      <trkpt lat="45.30531" lon="6.17448">
        <ele>1993.8000488281</ele>
        <time>2020-02-08T09:48:46.000Z</time>
      </trkpt>
      <trkpt lat="45.30531" lon="6.17448">
        <ele>1995.4000244141</ele>
        <time>2020-02-08T09:48:48.000Z</time>
      </trkpt>
      <trkpt lat="45.30531" lon="6.17448">
        <ele>1995.8000488281</ele>
        <time>2020-02-08T09:48:49.000Z</time>
      </trkpt>
      <trkpt lat="45.30531" lon="6.17448">
        <ele>1994.5999755859</ele>
        <time>2020-02-08T09:48:53.000Z</time>
      </trkpt>
      <trkpt lat="45.30531" lon="6.17448">
        <ele>1994.4000244141</ele>
        <time>2020-02-08T09:48:56.000Z</time>
      </trkpt>
      <trkpt lat="45.30531" lon="6.17448">
        <ele>1994.1999511719</ele>
        <time>2020-02-08T09:49:01.000Z</time>
      </trkpt>
      <trkpt lat="45.30531" lon="6.17448">
        <ele>1993.5999755859</ele>
        <time>2020-02-08T09:49:13.000Z</time>
      </trkpt>
      <trkpt lat="45.30532" lon="6.17448">
        <ele>1994.4000244141</ele>
        <time>2020-02-08T09:49:28.000Z</time>
      </trkpt>
      <trkpt lat="45.30532" lon="6.17448">
        <ele>1994</ele>
        <time>2020-02-08T09:49:47.000Z</time>
      </trkpt>
      <trkpt lat="45.30532" lon="6.17448">
        <ele>1994.4000244141</ele>
        <time>2020-02-08T09:49:58.000Z</time>
      </trkpt>
      <trkpt lat="45.30533" lon="6.17447">
        <ele>1994.8000488281</ele>
        <time>2020-02-08T09:50:03.000Z</time>
      </trkpt>
      <trkpt lat="45.30537" lon="6.17444">
        <ele>1995</ele>
        <time>2020-02-08T09:50:11.000Z</time>
      </trkpt>
      <trkpt lat="45.30538" lon="6.17442">
        <ele>1995.5999755859</ele>
        <time>2020-02-08T09:50:16.000Z</time>
      </trkpt>
      <trkpt lat="45.30538" lon="6.17441">
        <ele>1995.8000488281</ele>
        <time>2020-02-08T09:50:17.000Z</time>
      </trkpt>
      <trkpt lat="45.30538" lon="6.17441">
        <ele>1996.4000244141</ele>
        <time>2020-02-08T09:50:25.000Z</time>
      </trkpt>
      <trkpt lat="45.30538" lon="6.17441">
        <ele>1996.1999511719</ele>
        <time>2020-02-08T09:50:42.000Z</time>
      </trkpt>
      <trkpt lat="45.30538" lon="6.17441">
        <ele>1996.1999511719</ele>
        <time>2020-02-08T09:50:54.000Z</time>
      </trkpt>
      <trkpt lat="45.30537" lon="6.1744">
        <ele>1996.4000244141</ele>
        <time>2020-02-08T09:51:06.000Z</time>
      </trkpt>
      <trkpt lat="45.3054" lon="6.17439">
        <ele>1996.1999511719</ele>
        <time>2020-02-08T09:51:16.000Z</time>
      </trkpt>
      <trkpt lat="45.3054" lon="6.17439">
        <ele>1996.5999755859</ele>
        <time>2020-02-08T09:51:22.000Z</time>
      </trkpt>
      <trkpt lat="45.3054" lon="6.17439">
        <ele>1996.8000488281</ele>
        <time>2020-02-08T09:51:28.000Z</time>
      </trkpt>
      <trkpt lat="45.3054" lon="6.17439">
        <ele>1996.5999755859</ele>
        <time>2020-02-08T09:51:42.000Z</time>
      </trkpt>
      <trkpt lat="45.30544" lon="6.1744">
        <ele>1996.8000488281</ele>
        <time>2020-02-08T09:51:54.000Z</time>
      </trkpt>
      <trkpt lat="45.30545" lon="6.17439">
        <ele>1997</ele>
        <time>2020-02-08T09:51:57.000Z</time>
      </trkpt>
      <trkpt lat="45.30548" lon="6.17439">
        <ele>1997.4000244141</ele>
        <time>2020-02-08T09:52:00.000Z</time>
      </trkpt>
      <trkpt lat="45.30549" lon="6.17439">
        <ele>1997.8000488281</ele>
        <time>2020-02-08T09:52:01.000Z</time>
      </trkpt>
      <trkpt lat="45.30551" lon="6.17437">
        <ele>1999.1999511719</ele>
        <time>2020-02-08T09:52:06.000Z</time>
      </trkpt>
      <trkpt lat="45.30553" lon="6.17435">
        <ele>2000</ele>
        <time>2020-02-08T09:52:09.000Z</time>
      </trkpt>
      <trkpt lat="45.30554" lon="6.17433">
        <ele>2000.4000244141</ele>
        <time>2020-02-08T09:52:11.000Z</time>
      </trkpt>
      <trkpt lat="45.30556" lon="6.17429">
        <ele>2001.1999511719</ele>
        <time>2020-02-08T09:52:16.000Z</time>
      </trkpt>
      <trkpt lat="45.30557" lon="6.17427">
        <ele>2001.4000244141</ele>
        <time>2020-02-08T09:52:18.000Z</time>
      </trkpt>
      <trkpt lat="45.30557" lon="6.17426">
        <ele>2001.8000488281</ele>
        <time>2020-02-08T09:52:21.000Z</time>
      </trkpt>
      <trkpt lat="45.30558" lon="6.17422">
        <ele>2002.5999755859</ele>
        <time>2020-02-08T09:52:25.000Z</time>
      </trkpt>
      <trkpt lat="45.30558" lon="6.17419">
        <ele>2003</ele>
        <time>2020-02-08T09:52:27.000Z</time>
      </trkpt>
      <trkpt lat="45.30558" lon="6.17418">
        <ele>2003.5999755859</ele>
        <time>2020-02-08T09:52:31.000Z</time>
      </trkpt>
      <trkpt lat="45.30558" lon="6.17412">
        <ele>2004.5999755859</ele>
        <time>2020-02-08T09:52:36.000Z</time>
      </trkpt>
      <trkpt lat="45.30558" lon="6.17411">
        <ele>2004.8000488281</ele>
        <time>2020-02-08T09:52:37.000Z</time>
      </trkpt>
      <trkpt lat="45.30558" lon="6.17411">
        <ele>2005</ele>
        <time>2020-02-08T09:52:38.000Z</time>
      </trkpt>
      <trkpt lat="45.30558" lon="6.17409">
        <ele>2005.1999511719</ele>
        <time>2020-02-08T09:52:40.000Z</time>
      </trkpt>
      <trkpt lat="45.30558" lon="6.17407">
        <ele>2005.8000488281</ele>
        <time>2020-02-08T09:52:43.000Z</time>
      </trkpt>
      <trkpt lat="45.30558" lon="6.17405">
        <ele>2006.1999511719</ele>
        <time>2020-02-08T09:52:45.000Z</time>
      </trkpt>
      <trkpt lat="45.30558" lon="6.17401">
        <ele>2006.8000488281</ele>
        <time>2020-02-08T09:52:48.000Z</time>
      </trkpt>
      <trkpt lat="45.30558" lon="6.17401">
        <ele>2007</ele>
        <time>2020-02-08T09:52:49.000Z</time>
      </trkpt>
      <trkpt lat="45.30558" lon="6.17397">
        <ele>2007.8000488281</ele>
        <time>2020-02-08T09:52:54.000Z</time>
      </trkpt>
      <trkpt lat="45.30558" lon="6.17397">
        <ele>2008</ele>
        <time>2020-02-08T09:52:55.000Z</time>
      </trkpt>
      <trkpt lat="45.3056" lon="6.17394">
        <ele>2008.5999755859</ele>
        <time>2020-02-08T09:52:58.000Z</time>
      </trkpt>
      <trkpt lat="45.3056" lon="6.17393">
        <ele>2008.5999755859</ele>
        <time>2020-02-08T09:52:59.000Z</time>
      </trkpt>
      <trkpt lat="45.3056" lon="6.1739">
        <ele>2009.4000244141</ele>
        <time>2020-02-08T09:53:02.000Z</time>
      </trkpt>
      <trkpt lat="45.3056" lon="6.17389">
        <ele>2009.4000244141</ele>
        <time>2020-02-08T09:53:03.000Z</time>
      </trkpt>
      <trkpt lat="45.3056" lon="6.17386">
        <ele>2010.4000244141</ele>
        <time>2020-02-08T09:53:07.000Z</time>
      </trkpt>
      <trkpt lat="45.3056" lon="6.17384">
        <ele>2010.5999755859</ele>
        <time>2020-02-08T09:53:08.000Z</time>
      </trkpt>
      <trkpt lat="45.3056" lon="6.17379">
        <ele>2011.1999511719</ele>
        <time>2020-02-08T09:53:12.000Z</time>
      </trkpt>
      <trkpt lat="45.3056" lon="6.17379">
        <ele>2011.4000244141</ele>
        <time>2020-02-08T09:53:13.000Z</time>
      </trkpt>
      <trkpt lat="45.3056" lon="6.17376">
        <ele>2012.1999511719</ele>
        <time>2020-02-08T09:53:16.000Z</time>
      </trkpt>
      <trkpt lat="45.30559" lon="6.17374">
        <ele>2012.8000488281</ele>
        <time>2020-02-08T09:53:18.000Z</time>
      </trkpt>
      <trkpt lat="45.30558" lon="6.1737">
        <ele>2013.1999511719</ele>
        <time>2020-02-08T09:53:21.000Z</time>
      </trkpt>
      <trkpt lat="45.30558" lon="6.17366">
        <ele>2013.8000488281</ele>
        <time>2020-02-08T09:53:24.000Z</time>
      </trkpt>
      <trkpt lat="45.30558" lon="6.17365">
        <ele>2013.8000488281</ele>
        <time>2020-02-08T09:53:25.000Z</time>
      </trkpt>
      <trkpt lat="45.30557" lon="6.1736">
        <ele>2014.8000488281</ele>
        <time>2020-02-08T09:53:30.000Z</time>
      </trkpt>
      <trkpt lat="45.30558" lon="6.17359">
        <ele>2015</ele>
        <time>2020-02-08T09:53:31.000Z</time>
      </trkpt>
      <trkpt lat="45.30558" lon="6.17357">
        <ele>2015.5999755859</ele>
        <time>2020-02-08T09:53:34.000Z</time>
      </trkpt>
      <trkpt lat="45.30558" lon="6.17353">
        <ele>2016.1999511719</ele>
        <time>2020-02-08T09:53:38.000Z</time>
      </trkpt>
      <trkpt lat="45.30559" lon="6.17352">
        <ele>2016.4000244141</ele>
        <time>2020-02-08T09:53:39.000Z</time>
      </trkpt>
      <trkpt lat="45.30558" lon="6.1735">
        <ele>2017.4000244141</ele>
        <time>2020-02-08T09:53:42.000Z</time>
      </trkpt>
      <trkpt lat="45.30557" lon="6.17349">
        <ele>2017.5999755859</ele>
        <time>2020-02-08T09:53:43.000Z</time>
      </trkpt>
      <trkpt lat="45.30558" lon="6.17345">
        <ele>2018.4000244141</ele>
        <time>2020-02-08T09:53:48.000Z</time>
      </trkpt>
      <trkpt lat="45.30559" lon="6.17344">
        <ele>2018.4000244141</ele>
        <time>2020-02-08T09:53:49.000Z</time>
      </trkpt>
      <trkpt lat="45.30559" lon="6.17343">
        <ele>2019</ele>
        <time>2020-02-08T09:53:52.000Z</time>
      </trkpt>
      <trkpt lat="45.30559" lon="6.17343">
        <ele>2019.5999755859</ele>
        <time>2020-02-08T09:53:54.000Z</time>
      </trkpt>
      <trkpt lat="45.3056" lon="6.17343">
        <ele>2020.4000244141</ele>
        <time>2020-02-08T09:53:57.000Z</time>
      </trkpt>
      <trkpt lat="45.30561" lon="6.17342">
        <ele>2020.5999755859</ele>
        <time>2020-02-08T09:53:59.000Z</time>
      </trkpt>
      <trkpt lat="45.30561" lon="6.17342">
        <ele>2021.1999511719</ele>
        <time>2020-02-08T09:54:02.000Z</time>
      </trkpt>
      <trkpt lat="45.30561" lon="6.17342">
        <ele>2021.8000488281</ele>
        <time>2020-02-08T09:54:05.000Z</time>
      </trkpt>
      <trkpt lat="45.30561" lon="6.17342">
        <ele>2021.5999755859</ele>
        <time>2020-02-08T09:54:16.000Z</time>
      </trkpt>
      <trkpt lat="45.30563" lon="6.17342">
        <ele>2021.5999755859</ele>
        <time>2020-02-08T09:54:25.000Z</time>
      </trkpt>
      <trkpt lat="45.30565" lon="6.1734">
        <ele>2022.1999511719</ele>
        <time>2020-02-08T09:54:30.000Z</time>
      </trkpt>
      <trkpt lat="45.3057" lon="6.17339">
        <ele>2022.8000488281</ele>
        <time>2020-02-08T09:54:34.000Z</time>
      </trkpt>
      <trkpt lat="45.30571" lon="6.17338">
        <ele>2023.1999511719</ele>
        <time>2020-02-08T09:54:36.000Z</time>
      </trkpt>
      <trkpt lat="45.30574" lon="6.17336">
        <ele>2023.8000488281</ele>
        <time>2020-02-08T09:54:41.000Z</time>
      </trkpt>
      <trkpt lat="45.30574" lon="6.17335">
        <ele>2024</ele>
        <time>2020-02-08T09:54:42.000Z</time>
      </trkpt>
      <trkpt lat="45.30579" lon="6.17334">
        <ele>2025</ele>
        <time>2020-02-08T09:54:47.000Z</time>
      </trkpt>
      <trkpt lat="45.3058" lon="6.17334">
        <ele>2025</ele>
        <time>2020-02-08T09:54:48.000Z</time>
      </trkpt>
      <trkpt lat="45.30583" lon="6.17331">
        <ele>2025.8000488281</ele>
        <time>2020-02-08T09:54:53.000Z</time>
      </trkpt>
      <trkpt lat="45.30583" lon="6.17331">
        <ele>2026.1999511719</ele>
        <time>2020-02-08T09:54:54.000Z</time>
      </trkpt>
      <trkpt lat="45.30585" lon="6.1733">
        <ele>2026.5999755859</ele>
        <time>2020-02-08T09:54:56.000Z</time>
      </trkpt>
      <trkpt lat="45.30586" lon="6.17329">
        <ele>2026.8000488281</ele>
        <time>2020-02-08T09:54:58.000Z</time>
      </trkpt>
      <trkpt lat="45.30587" lon="6.17329">
        <ele>2027.4000244141</ele>
        <time>2020-02-08T09:55:02.000Z</time>
      </trkpt>
      <trkpt lat="45.30588" lon="6.17328">
        <ele>2027.5999755859</ele>
        <time>2020-02-08T09:55:05.000Z</time>
      </trkpt>
      <trkpt lat="45.3059" lon="6.17325">
        <ele>2027.5999755859</ele>
        <time>2020-02-08T09:55:11.000Z</time>
      </trkpt>
      <trkpt lat="45.30593" lon="6.17322">
        <ele>2028.4000244141</ele>
        <time>2020-02-08T09:55:15.000Z</time>
      </trkpt>
      <trkpt lat="45.30594" lon="6.17322">
        <ele>2028.5999755859</ele>
        <time>2020-02-08T09:55:16.000Z</time>
      </trkpt>
      <trkpt lat="45.30596" lon="6.17319">
        <ele>2029.5999755859</ele>
        <time>2020-02-08T09:55:20.000Z</time>
      </trkpt>
      <trkpt lat="45.30598" lon="6.17319">
        <ele>2029.8000488281</ele>
        <time>2020-02-08T09:55:22.000Z</time>
      </trkpt>
      <trkpt lat="45.30602" lon="6.17319">
        <ele>2030.1999511719</ele>
        <time>2020-02-08T09:55:27.000Z</time>
      </trkpt>
      <trkpt lat="45.30604" lon="6.17318">
        <ele>2030.5999755859</ele>
        <time>2020-02-08T09:55:30.000Z</time>
      </trkpt>
      <trkpt lat="45.30607" lon="6.17316">
        <ele>2031.1999511719</ele>
        <time>2020-02-08T09:55:33.000Z</time>
      </trkpt>
      <trkpt lat="45.30609" lon="6.17315">
        <ele>2031.8000488281</ele>
        <time>2020-02-08T09:55:37.000Z</time>
      </trkpt>
      <trkpt lat="45.3061" lon="6.17313">
        <ele>2032</ele>
        <time>2020-02-08T09:55:39.000Z</time>
      </trkpt>
      <trkpt lat="45.30611" lon="6.17311">
        <ele>2032.4000244141</ele>
        <time>2020-02-08T09:55:41.000Z</time>
      </trkpt>
      <trkpt lat="45.30612" lon="6.1731">
        <ele>2032.8000488281</ele>
        <time>2020-02-08T09:55:43.000Z</time>
      </trkpt>
      <trkpt lat="45.30613" lon="6.17307">
        <ele>2033.4000244141</ele>
        <time>2020-02-08T09:55:46.000Z</time>
      </trkpt>
      <trkpt lat="45.30614" lon="6.17304">
        <ele>2033.5999755859</ele>
        <time>2020-02-08T09:55:48.000Z</time>
      </trkpt>
      <trkpt lat="45.30613" lon="6.17302">
        <ele>2033.8000488281</ele>
        <time>2020-02-08T09:55:50.000Z</time>
      </trkpt>
      <trkpt lat="45.30613" lon="6.17302">
        <ele>2034.4000244141</ele>
        <time>2020-02-08T09:55:52.000Z</time>
      </trkpt>
      <trkpt lat="45.30613" lon="6.173">
        <ele>2034.8000488281</ele>
        <time>2020-02-08T09:55:55.000Z</time>
      </trkpt>
      <trkpt lat="45.30612" lon="6.17299">
        <ele>2035</ele>
        <time>2020-02-08T09:55:57.000Z</time>
      </trkpt>
      <trkpt lat="45.30611" lon="6.17295">
        <ele>2035.4000244141</ele>
        <time>2020-02-08T09:56:01.000Z</time>
      </trkpt>
      <trkpt lat="45.30611" lon="6.17295">
        <ele>2036</ele>
        <time>2020-02-08T09:56:03.000Z</time>
      </trkpt>
      <trkpt lat="45.30611" lon="6.17293">
        <ele>2036.5999755859</ele>
        <time>2020-02-08T09:56:06.000Z</time>
      </trkpt>
      <trkpt lat="45.3061" lon="6.1729">
        <ele>2037</ele>
        <time>2020-02-08T09:56:09.000Z</time>
      </trkpt>
      <trkpt lat="45.30609" lon="6.17288">
        <ele>2037.5999755859</ele>
        <time>2020-02-08T09:56:11.000Z</time>
      </trkpt>
      <trkpt lat="45.30608" lon="6.17285">
        <ele>2038.4000244141</ele>
        <time>2020-02-08T09:56:14.000Z</time>
      </trkpt>
      <trkpt lat="45.30608" lon="6.17283">
        <ele>2039</ele>
        <time>2020-02-08T09:56:16.000Z</time>
      </trkpt>
      <trkpt lat="45.30607" lon="6.17279">
        <ele>2039.5999755859</ele>
        <time>2020-02-08T09:56:19.000Z</time>
      </trkpt>
      <trkpt lat="45.30605" lon="6.17278">
        <ele>2040.1999511719</ele>
        <time>2020-02-08T09:56:22.000Z</time>
      </trkpt>
      <trkpt lat="45.30605" lon="6.17277">
        <ele>2040.8000488281</ele>
        <time>2020-02-08T09:56:25.000Z</time>
      </trkpt>
      <trkpt lat="45.30603" lon="6.17274">
        <ele>2041.4000244141</ele>
        <time>2020-02-08T09:56:29.000Z</time>
      </trkpt>
      <trkpt lat="45.30603" lon="6.17272">
        <ele>2041.8000488281</ele>
        <time>2020-02-08T09:56:30.000Z</time>
      </trkpt>
      <trkpt lat="45.30603" lon="6.17269">
        <ele>2042.8000488281</ele>
        <time>2020-02-08T09:56:34.000Z</time>
      </trkpt>
      <trkpt lat="45.30603" lon="6.17268">
        <ele>2043</ele>
        <time>2020-02-08T09:56:35.000Z</time>
      </trkpt>
      <trkpt lat="45.30603" lon="6.17267">
        <ele>2043.8000488281</ele>
        <time>2020-02-08T09:56:38.000Z</time>
      </trkpt>
      <trkpt lat="45.30603" lon="6.17266">
        <ele>2044.1999511719</ele>
        <time>2020-02-08T09:56:40.000Z</time>
      </trkpt>
      <trkpt lat="45.30604" lon="6.1726">
        <ele>2045.1999511719</ele>
        <time>2020-02-08T09:56:45.000Z</time>
      </trkpt>
      <trkpt lat="45.30603" lon="6.17258">
        <ele>2046</ele>
        <time>2020-02-08T09:56:49.000Z</time>
      </trkpt>
      <trkpt lat="45.30604" lon="6.17258">
        <ele>2046.4000244141</ele>
        <time>2020-02-08T09:56:51.000Z</time>
      </trkpt>
      <trkpt lat="45.30604" lon="6.17255">
        <ele>2047.1999511719</ele>
        <time>2020-02-08T09:56:54.000Z</time>
      </trkpt>
      <trkpt lat="45.30603" lon="6.17254">
        <ele>2047.4000244141</ele>
        <time>2020-02-08T09:56:55.000Z</time>
      </trkpt>
      <trkpt lat="45.30603" lon="6.1725">
        <ele>2048</ele>
        <time>2020-02-08T09:56:59.000Z</time>
      </trkpt>
      <trkpt lat="45.30602" lon="6.17247">
        <ele>2048.6000976562</ele>
        <time>2020-02-08T09:57:02.000Z</time>
      </trkpt>
      <trkpt lat="45.30602" lon="6.17246">
        <ele>2048.8000488281</ele>
        <time>2020-02-08T09:57:03.000Z</time>
      </trkpt>
      <trkpt lat="45.30601" lon="6.17242">
        <ele>2049.6000976562</ele>
        <time>2020-02-08T09:57:07.000Z</time>
      </trkpt>
      <trkpt lat="45.30602" lon="6.17241">
        <ele>2049.8000488281</ele>
        <time>2020-02-08T09:57:08.000Z</time>
      </trkpt>
      <trkpt lat="45.30602" lon="6.17237">
        <ele>2050.3999023438</ele>
        <time>2020-02-08T09:57:11.000Z</time>
      </trkpt>
      <trkpt lat="45.30602" lon="6.17236">
        <ele>2050.3999023438</ele>
        <time>2020-02-08T09:57:12.000Z</time>
      </trkpt>
      <trkpt lat="45.30601" lon="6.17232">
        <ele>2050.8000488281</ele>
        <time>2020-02-08T09:57:16.000Z</time>
      </trkpt>
      <trkpt lat="45.30601" lon="6.1723">
        <ele>2051</ele>
        <time>2020-02-08T09:57:18.000Z</time>
      </trkpt>
      <trkpt lat="45.306" lon="6.17224">
        <ele>2051</ele>
        <time>2020-02-08T09:57:23.000Z</time>
      </trkpt>
      <trkpt lat="45.30599" lon="6.17219">
        <ele>2051.3999023438</ele>
        <time>2020-02-08T09:57:28.000Z</time>
      </trkpt>
      <trkpt lat="45.306" lon="6.17217">
        <ele>2051.8000488281</ele>
        <time>2020-02-08T09:57:30.000Z</time>
      </trkpt>
      <trkpt lat="45.306" lon="6.17216">
        <ele>2052</ele>
        <time>2020-02-08T09:57:31.000Z</time>
      </trkpt>
      <trkpt lat="45.306" lon="6.17214">
        <ele>2052.1999511719</ele>
        <time>2020-02-08T09:57:33.000Z</time>
      </trkpt>
      <trkpt lat="45.306" lon="6.17208">
        <ele>2053</ele>
        <time>2020-02-08T09:57:37.000Z</time>
      </trkpt>
      <trkpt lat="45.30599" lon="6.17207">
        <ele>2053.1999511719</ele>
        <time>2020-02-08T09:57:38.000Z</time>
      </trkpt>
      <trkpt lat="45.306" lon="6.17201">
        <ele>2054.1999511719</ele>
        <time>2020-02-08T09:57:43.000Z</time>
      </trkpt>
      <trkpt lat="45.30601" lon="6.17196">
        <ele>2055.1999511719</ele>
        <time>2020-02-08T09:57:48.000Z</time>
      </trkpt>
      <trkpt lat="45.30602" lon="6.17192">
        <ele>2056.1999511719</ele>
        <time>2020-02-08T09:57:53.000Z</time>
      </trkpt>
      <trkpt lat="45.30602" lon="6.17191">
        <ele>2056.3999023438</ele>
        <time>2020-02-08T09:57:54.000Z</time>
      </trkpt>
      <trkpt lat="45.30604" lon="6.17186">
        <ele>2057</ele>
        <time>2020-02-08T09:57:58.000Z</time>
      </trkpt>
      <trkpt lat="45.30604" lon="6.17183">
        <ele>2057.3999023438</ele>
        <time>2020-02-08T09:58:00.000Z</time>
      </trkpt>
      <trkpt lat="45.30604" lon="6.17179">
        <ele>2058</ele>
        <time>2020-02-08T09:58:03.000Z</time>
      </trkpt>
      <trkpt lat="45.30604" lon="6.17177">
        <ele>2059</ele>
        <time>2020-02-08T09:58:06.000Z</time>
      </trkpt>
      <trkpt lat="45.30605" lon="6.17175">
        <ele>2059.3999023438</ele>
        <time>2020-02-08T09:58:08.000Z</time>
      </trkpt>
      <trkpt lat="45.30604" lon="6.17174">
        <ele>2060</ele>
        <time>2020-02-08T09:58:10.000Z</time>
      </trkpt>
      <trkpt lat="45.30605" lon="6.17171">
        <ele>2060.3999023438</ele>
        <time>2020-02-08T09:58:12.000Z</time>
      </trkpt>
      <trkpt lat="45.30606" lon="6.17167">
        <ele>2061.1999511719</ele>
        <time>2020-02-08T09:58:16.000Z</time>
      </trkpt>
      <trkpt lat="45.30606" lon="6.17166">
        <ele>2061.3999023438</ele>
        <time>2020-02-08T09:58:17.000Z</time>
      </trkpt>
      <trkpt lat="45.30607" lon="6.17162">
        <ele>2062.3999023438</ele>
        <time>2020-02-08T09:58:21.000Z</time>
      </trkpt>
      <trkpt lat="45.30607" lon="6.17162">
        <ele>2062.3999023438</ele>
        <time>2020-02-08T09:58:22.000Z</time>
      </trkpt>
      <trkpt lat="45.30607" lon="6.17158">
        <ele>2063.3999023438</ele>
        <time>2020-02-08T09:58:27.000Z</time>
      </trkpt>
      <trkpt lat="45.30608" lon="6.17157">
        <ele>2063.6000976562</ele>
        <time>2020-02-08T09:58:28.000Z</time>
      </trkpt>
      <trkpt lat="45.30609" lon="6.17153">
        <ele>2064.3999023438</ele>
        <time>2020-02-08T09:58:32.000Z</time>
      </trkpt>
      <trkpt lat="45.30609" lon="6.17153">
        <ele>2064.6000976562</ele>
        <time>2020-02-08T09:58:33.000Z</time>
      </trkpt>
      <trkpt lat="45.3061" lon="6.1715">
        <ele>2065.1999511719</ele>
        <time>2020-02-08T09:58:36.000Z</time>
      </trkpt>
      <trkpt lat="45.30611" lon="6.17148">
        <ele>2065.8000488281</ele>
        <time>2020-02-08T09:58:39.000Z</time>
      </trkpt>
      <trkpt lat="45.30611" lon="6.17147">
        <ele>2066</ele>
        <time>2020-02-08T09:58:40.000Z</time>
      </trkpt>
      <trkpt lat="45.30613" lon="6.17144">
        <ele>2066.6000976562</ele>
        <time>2020-02-08T09:58:44.000Z</time>
      </trkpt>
      <trkpt lat="45.30613" lon="6.17142">
        <ele>2067</ele>
        <time>2020-02-08T09:58:46.000Z</time>
      </trkpt>
      <trkpt lat="45.30614" lon="6.1714">
        <ele>2067.1999511719</ele>
        <time>2020-02-08T09:58:48.000Z</time>
      </trkpt>
      <trkpt lat="45.30616" lon="6.17135">
        <ele>2068</ele>
        <time>2020-02-08T09:58:52.000Z</time>
      </trkpt>
      <trkpt lat="45.30616" lon="6.17134">
        <ele>2068.1999511719</ele>
        <time>2020-02-08T09:58:53.000Z</time>
      </trkpt>
      <trkpt lat="45.30617" lon="6.1713">
        <ele>2069.1999511719</ele>
        <time>2020-02-08T09:58:57.000Z</time>
      </trkpt>
      <trkpt lat="45.30618" lon="6.17123">
        <ele>2070.3999023438</ele>
        <time>2020-02-08T09:59:02.000Z</time>
      </trkpt>
      <trkpt lat="45.30619" lon="6.17119">
        <ele>2070.8000488281</ele>
        <time>2020-02-08T09:59:06.000Z</time>
      </trkpt>
      <trkpt lat="45.30619" lon="6.17118">
        <ele>2071</ele>
        <time>2020-02-08T09:59:07.000Z</time>
      </trkpt>
      <trkpt lat="45.3062" lon="6.17115">
        <ele>2071.6000976562</ele>
        <time>2020-02-08T09:59:10.000Z</time>
      </trkpt>
      <trkpt lat="45.30621" lon="6.17111">
        <ele>2072.1999511719</ele>
        <time>2020-02-08T09:59:13.000Z</time>
      </trkpt>
      <trkpt lat="45.3062" lon="6.17108">
        <ele>2072.6000976562</ele>
        <time>2020-02-08T09:59:16.000Z</time>
      </trkpt>
      <trkpt lat="45.30621" lon="6.17107">
        <ele>2072.8000488281</ele>
        <time>2020-02-08T09:59:17.000Z</time>
      </trkpt>
      <trkpt lat="45.3062" lon="6.17103">
        <ele>2073.8000488281</ele>
        <time>2020-02-08T09:59:21.000Z</time>
      </trkpt>
      <trkpt lat="45.30621" lon="6.17098">
        <ele>2074.6000976562</ele>
        <time>2020-02-08T09:59:26.000Z</time>
      </trkpt>
      <trkpt lat="45.3062" lon="6.17095">
        <ele>2074.8000488281</ele>
        <time>2020-02-08T09:59:28.000Z</time>
      </trkpt>
      <trkpt lat="45.3062" lon="6.17092">
        <ele>2075.3999023438</ele>
        <time>2020-02-08T09:59:31.000Z</time>
      </trkpt>
      <trkpt lat="45.30621" lon="6.17089">
        <ele>2076</ele>
        <time>2020-02-08T09:59:34.000Z</time>
      </trkpt>
      <trkpt lat="45.30623" lon="6.17085">
        <ele>2076.6000976562</ele>
        <time>2020-02-08T09:59:38.000Z</time>
      </trkpt>
      <trkpt lat="45.30623" lon="6.17084">
        <ele>2077</ele>
        <time>2020-02-08T09:59:40.000Z</time>
      </trkpt>
      <trkpt lat="45.30623" lon="6.17082">
        <ele>2077.8000488281</ele>
        <time>2020-02-08T09:59:43.000Z</time>
      </trkpt>
      <trkpt lat="45.30623" lon="6.1708">
        <ele>2078</ele>
        <time>2020-02-08T09:59:44.000Z</time>
      </trkpt>
      <trkpt lat="45.30625" lon="6.17077">
        <ele>2078.8000488281</ele>
        <time>2020-02-08T09:59:48.000Z</time>
      </trkpt>
      <trkpt lat="45.30626" lon="6.17074">
        <ele>2079.1999511719</ele>
        <time>2020-02-08T09:59:51.000Z</time>
      </trkpt>
      <trkpt lat="45.30626" lon="6.17072">
        <ele>2079.6000976562</ele>
        <time>2020-02-08T09:59:53.000Z</time>
      </trkpt>
      <trkpt lat="45.30627" lon="6.17069">
        <ele>2080.3999023438</ele>
        <time>2020-02-08T09:59:56.000Z</time>
      </trkpt>
      <trkpt lat="45.30629" lon="6.17065">
        <ele>2081</ele>
        <time>2020-02-08T09:59:59.000Z</time>
      </trkpt>
      <trkpt lat="45.3063" lon="6.17062">
        <ele>2081.6000976562</ele>
        <time>2020-02-08T10:00:02.000Z</time>
      </trkpt>
      <trkpt lat="45.30629" lon="6.1706">
        <ele>2081.6000976562</ele>
        <time>2020-02-08T10:00:03.000Z</time>
      </trkpt>
      <trkpt lat="45.30629" lon="6.17056">
        <ele>2082.6000976562</ele>
        <time>2020-02-08T10:00:06.000Z</time>
      </trkpt>
      <trkpt lat="45.3063" lon="6.17055">
        <ele>2082.8000488281</ele>
        <time>2020-02-08T10:00:07.000Z</time>
      </trkpt>
      <trkpt lat="45.30631" lon="6.17051">
        <ele>2083.3999023438</ele>
        <time>2020-02-08T10:00:11.000Z</time>
      </trkpt>
      <trkpt lat="45.30631" lon="6.1705">
        <ele>2083.6000976562</ele>
        <time>2020-02-08T10:00:12.000Z</time>
      </trkpt>
      <trkpt lat="45.30631" lon="6.17048">
        <ele>2083.8000488281</ele>
        <time>2020-02-08T10:00:13.000Z</time>
      </trkpt>
      <trkpt lat="45.30631" lon="6.17045">
        <ele>2084.6000976562</ele>
        <time>2020-02-08T10:00:17.000Z</time>
      </trkpt>
      <trkpt lat="45.30631" lon="6.17044">
        <ele>2084.8000488281</ele>
        <time>2020-02-08T10:00:18.000Z</time>
      </trkpt>
      <trkpt lat="45.30633" lon="6.1704">
        <ele>2085.8000488281</ele>
        <time>2020-02-08T10:00:23.000Z</time>
      </trkpt>
      <trkpt lat="45.30633" lon="6.17038">
        <ele>2086</ele>
        <time>2020-02-08T10:00:24.000Z</time>
      </trkpt>
      <trkpt lat="45.30635" lon="6.17035">
        <ele>2086.8000488281</ele>
        <time>2020-02-08T10:00:27.000Z</time>
      </trkpt>
      <trkpt lat="45.30636" lon="6.17033">
        <ele>2087.1999511719</ele>
        <time>2020-02-08T10:00:29.000Z</time>
      </trkpt>
      <trkpt lat="45.30637" lon="6.1703">
        <ele>2088</ele>
        <time>2020-02-08T10:00:32.000Z</time>
      </trkpt>
      <trkpt lat="45.30638" lon="6.17028">
        <ele>2088.1999511719</ele>
        <time>2020-02-08T10:00:34.000Z</time>
      </trkpt>
      <trkpt lat="45.3064" lon="6.17025">
        <ele>2088.6000976562</ele>
        <time>2020-02-08T10:00:37.000Z</time>
      </trkpt>
      <trkpt lat="45.30643" lon="6.17019">
        <ele>2089.3999023438</ele>
        <time>2020-02-08T10:00:42.000Z</time>
      </trkpt>
      <trkpt lat="45.30644" lon="6.17013">
        <ele>2090.1999511719</ele>
        <time>2020-02-08T10:00:47.000Z</time>
      </trkpt>
      <trkpt lat="45.30644" lon="6.17011">
        <ele>2090.3999023438</ele>
        <time>2020-02-08T10:00:49.000Z</time>
      </trkpt>
      <trkpt lat="45.30646" lon="6.17008">
        <ele>2091</ele>
        <time>2020-02-08T10:00:52.000Z</time>
      </trkpt>
      <trkpt lat="45.30647" lon="6.17004">
        <ele>2091.6000976562</ele>
        <time>2020-02-08T10:00:55.000Z</time>
      </trkpt>
      <trkpt lat="45.30648" lon="6.17003">
        <ele>2091.8000488281</ele>
        <time>2020-02-08T10:00:56.000Z</time>
      </trkpt>
      <trkpt lat="45.30648" lon="6.16997">
        <ele>2092.8000488281</ele>
        <time>2020-02-08T10:01:01.000Z</time>
      </trkpt>
      <trkpt lat="45.30649" lon="6.16993">
        <ele>2093.3999023438</ele>
        <time>2020-02-08T10:01:05.000Z</time>
      </trkpt>
      <trkpt lat="45.30649" lon="6.16991">
        <ele>2093.6000976562</ele>
        <time>2020-02-08T10:01:06.000Z</time>
      </trkpt>
      <trkpt lat="45.30649" lon="6.16991">
        <ele>2093.8000488281</ele>
        <time>2020-02-08T10:01:07.000Z</time>
      </trkpt>
      <trkpt lat="45.30649" lon="6.16989">
        <ele>2094.1999511719</ele>
        <time>2020-02-08T10:01:09.000Z</time>
      </trkpt>
      <trkpt lat="45.30649" lon="6.16989">
        <ele>2094.6000976562</ele>
        <time>2020-02-08T10:01:11.000Z</time>
      </trkpt>
      <trkpt lat="45.3065" lon="6.16987">
        <ele>2095</ele>
        <time>2020-02-08T10:01:13.000Z</time>
      </trkpt>
      <trkpt lat="45.3065" lon="6.16985">
        <ele>2095.1999511719</ele>
        <time>2020-02-08T10:01:14.000Z</time>
      </trkpt>
      <trkpt lat="45.30651" lon="6.16981">
        <ele>2096.1999511719</ele>
        <time>2020-02-08T10:01:18.000Z</time>
      </trkpt>
      <trkpt lat="45.30651" lon="6.1698">
        <ele>2096.3999023438</ele>
        <time>2020-02-08T10:01:19.000Z</time>
      </trkpt>
      <trkpt lat="45.30651" lon="6.16978">
        <ele>2096.6000976562</ele>
        <time>2020-02-08T10:01:20.000Z</time>
      </trkpt>
      <trkpt lat="45.30653" lon="6.16975">
        <ele>2097.1999511719</ele>
        <time>2020-02-08T10:01:23.000Z</time>
      </trkpt>
      <trkpt lat="45.30654" lon="6.1697">
        <ele>2098.1999511719</ele>
        <time>2020-02-08T10:01:28.000Z</time>
      </trkpt>
      <trkpt lat="45.30655" lon="6.16964">
        <ele>2099</ele>
        <time>2020-02-08T10:01:33.000Z</time>
      </trkpt>
      <trkpt lat="45.30655" lon="6.16963">
        <ele>2099.3999023438</ele>
        <time>2020-02-08T10:01:34.000Z</time>
      </trkpt>
      <trkpt lat="45.30657" lon="6.16958">
        <ele>2100.1999511719</ele>
        <time>2020-02-08T10:01:38.000Z</time>
      </trkpt>
      <trkpt lat="45.30658" lon="6.16956">
        <ele>2100.3999023438</ele>
        <time>2020-02-08T10:01:39.000Z</time>
      </trkpt>
      <trkpt lat="45.3066" lon="6.16953">
        <ele>2101.1999511719</ele>
        <time>2020-02-08T10:01:43.000Z</time>
      </trkpt>
      <trkpt lat="45.3066" lon="6.16953">
        <ele>2101.6000976562</ele>
        <time>2020-02-08T10:01:44.000Z</time>
      </trkpt>
      <trkpt lat="45.3066" lon="6.1695">
        <ele>2102.6000976562</ele>
        <time>2020-02-08T10:01:48.000Z</time>
      </trkpt>
      <trkpt lat="45.3066" lon="6.16949">
        <ele>2103</ele>
        <time>2020-02-08T10:01:49.000Z</time>
      </trkpt>
      <trkpt lat="45.3066" lon="6.16947">
        <ele>2103.6000976562</ele>
        <time>2020-02-08T10:01:52.000Z</time>
      </trkpt>
      <trkpt lat="45.3066" lon="6.16947">
        <ele>2103.8000488281</ele>
        <time>2020-02-08T10:01:53.000Z</time>
      </trkpt>
      <trkpt lat="45.3066" lon="6.16947">
        <ele>2104</ele>
        <time>2020-02-08T10:01:54.000Z</time>
      </trkpt>
      <trkpt lat="45.3066" lon="6.16945">
        <ele>2105</ele>
        <time>2020-02-08T10:01:57.000Z</time>
      </trkpt>
      <trkpt lat="45.30661" lon="6.16944">
        <ele>2105.3999023438</ele>
        <time>2020-02-08T10:01:59.000Z</time>
      </trkpt>
      <trkpt lat="45.30662" lon="6.16943">
        <ele>2106</ele>
        <time>2020-02-08T10:02:02.000Z</time>
      </trkpt>
      <trkpt lat="45.30662" lon="6.16941">
        <ele>2106.3999023438</ele>
        <time>2020-02-08T10:02:04.000Z</time>
      </trkpt>
      <trkpt lat="45.30663" lon="6.1694">
        <ele>2107.3999023438</ele>
        <time>2020-02-08T10:02:07.000Z</time>
      </trkpt>
      <trkpt lat="45.30664" lon="6.16938">
        <ele>2107.8000488281</ele>
        <time>2020-02-08T10:02:09.000Z</time>
      </trkpt>
      <trkpt lat="45.30665" lon="6.16936">
        <ele>2108.6000976562</ele>
        <time>2020-02-08T10:02:12.000Z</time>
      </trkpt>
      <trkpt lat="45.30665" lon="6.16936">
        <ele>2109.1999511719</ele>
        <time>2020-02-08T10:02:14.000Z</time>
      </trkpt>
      <trkpt lat="45.30665" lon="6.16934">
        <ele>2109.3999023438</ele>
        <time>2020-02-08T10:02:22.000Z</time>
      </trkpt>
      <trkpt lat="45.30666" lon="6.16933">
        <ele>2109.6000976562</ele>
        <time>2020-02-08T10:02:23.000Z</time>
      </trkpt>
      <trkpt lat="45.30669" lon="6.16929">
        <ele>2110.6000976562</ele>
        <time>2020-02-08T10:02:28.000Z</time>
      </trkpt>
      <trkpt lat="45.3067" lon="6.16925">
        <ele>2111.8000488281</ele>
        <time>2020-02-08T10:02:33.000Z</time>
      </trkpt>
      <trkpt lat="45.30671" lon="6.16923">
        <ele>2112.6000976562</ele>
        <time>2020-02-08T10:02:38.000Z</time>
      </trkpt>
      <trkpt lat="45.30671" lon="6.16922">
        <ele>2112.8000488281</ele>
        <time>2020-02-08T10:02:39.000Z</time>
      </trkpt>
      <trkpt lat="45.30674" lon="6.16921">
        <ele>2113.6000976562</ele>
        <time>2020-02-08T10:02:43.000Z</time>
      </trkpt>
      <trkpt lat="45.30676" lon="6.1692">
        <ele>2114</ele>
        <time>2020-02-08T10:02:45.000Z</time>
      </trkpt>
      <trkpt lat="45.30679" lon="6.16918">
        <ele>2115</ele>
        <time>2020-02-08T10:02:49.000Z</time>
      </trkpt>
      <trkpt lat="45.30679" lon="6.16917">
        <ele>2115.1999511719</ele>
        <time>2020-02-08T10:02:50.000Z</time>
      </trkpt>
      <trkpt lat="45.3068" lon="6.16914">
        <ele>2116.3999023438</ele>
        <time>2020-02-08T10:02:55.000Z</time>
      </trkpt>
      <trkpt lat="45.30683" lon="6.16913">
        <ele>2117.3999023438</ele>
        <time>2020-02-08T10:03:03.000Z</time>
      </trkpt>
      <trkpt lat="45.30684" lon="6.16913">
        <ele>2117.6000976562</ele>
        <time>2020-02-08T10:03:04.000Z</time>
      </trkpt>
      <trkpt lat="45.30685" lon="6.16912">
        <ele>2118.3999023438</ele>
        <time>2020-02-08T10:03:08.000Z</time>
      </trkpt>
      <trkpt lat="45.30685" lon="6.16912">
        <ele>2118.6000976562</ele>
        <time>2020-02-08T10:03:09.000Z</time>
      </trkpt>
      <trkpt lat="45.30688" lon="6.16912">
        <ele>2119.6000976562</ele>
        <time>2020-02-08T10:03:14.000Z</time>
      </trkpt>
      <trkpt lat="45.30688" lon="6.16911">
        <ele>2119.8000488281</ele>
        <time>2020-02-08T10:03:15.000Z</time>
      </trkpt>
      <trkpt lat="45.30689" lon="6.1691">
        <ele>2121</ele>
        <time>2020-02-08T10:03:19.000Z</time>
      </trkpt>
      <trkpt lat="45.30689" lon="6.16909">
        <ele>2121.3999023438</ele>
        <time>2020-02-08T10:03:21.000Z</time>
      </trkpt>
      <trkpt lat="45.30692" lon="6.16906">
        <ele>2122.1999511719</ele>
        <time>2020-02-08T10:03:25.000Z</time>
      </trkpt>
      <trkpt lat="45.30692" lon="6.16905">
        <ele>2122.3999023438</ele>
        <time>2020-02-08T10:03:26.000Z</time>
      </trkpt>
      <trkpt lat="45.30692" lon="6.16901">
        <ele>2123.1999511719</ele>
        <time>2020-02-08T10:03:31.000Z</time>
      </trkpt>
      <trkpt lat="45.30692" lon="6.169">
        <ele>2123.6000976562</ele>
        <time>2020-02-08T10:03:33.000Z</time>
      </trkpt>
      <trkpt lat="45.30695" lon="6.16897">
        <ele>2124.1999511719</ele>
        <time>2020-02-08T10:03:38.000Z</time>
      </trkpt>
      <trkpt lat="45.30698" lon="6.16896">
        <ele>2125.8000488281</ele>
        <time>2020-02-08T10:03:43.000Z</time>
      </trkpt>
      <trkpt lat="45.30698" lon="6.16896">
        <ele>2126</ele>
        <time>2020-02-08T10:03:44.000Z</time>
      </trkpt>
      <trkpt lat="45.30702" lon="6.16894">
        <ele>2126.8000488281</ele>
        <time>2020-02-08T10:03:49.000Z</time>
      </trkpt>
      <trkpt lat="45.30703" lon="6.16892">
        <ele>2128</ele>
        <time>2020-02-08T10:03:55.000Z</time>
      </trkpt>
      <trkpt lat="45.30705" lon="6.16887">
        <ele>2129</ele>
        <time>2020-02-08T10:04:00.000Z</time>
      </trkpt>
      <trkpt lat="45.30705" lon="6.16886">
        <ele>2129.3999023438</ele>
        <time>2020-02-08T10:04:02.000Z</time>
      </trkpt>
      <trkpt lat="45.30705" lon="6.16883">
        <ele>2130</ele>
        <time>2020-02-08T10:04:05.000Z</time>
      </trkpt>
      <trkpt lat="45.30707" lon="6.1688">
        <ele>2130.8000488281</ele>
        <time>2020-02-08T10:04:08.000Z</time>
      </trkpt>
      <trkpt lat="45.30707" lon="6.1688">
        <ele>2131</ele>
        <time>2020-02-08T10:04:09.000Z</time>
      </trkpt>
      <trkpt lat="45.30709" lon="6.16875">
        <ele>2132.1999511719</ele>
        <time>2020-02-08T10:04:14.000Z</time>
      </trkpt>
      <trkpt lat="45.30709" lon="6.1687">
        <ele>2133.1999511719</ele>
        <time>2020-02-08T10:04:18.000Z</time>
      </trkpt>
      <trkpt lat="45.30709" lon="6.16868">
        <ele>2133.6000976562</ele>
        <time>2020-02-08T10:04:20.000Z</time>
      </trkpt>
      <trkpt lat="45.30711" lon="6.16866">
        <ele>2134.3999023438</ele>
        <time>2020-02-08T10:04:23.000Z</time>
      </trkpt>
      <trkpt lat="45.30711" lon="6.16865">
        <ele>2135.1999511719</ele>
        <time>2020-02-08T10:04:26.000Z</time>
      </trkpt>
      <trkpt lat="45.30711" lon="6.16865">
        <ele>2135.6000976562</ele>
        <time>2020-02-08T10:04:28.000Z</time>
      </trkpt>
      <trkpt lat="45.30712" lon="6.16863">
        <ele>2136.6000976562</ele>
        <time>2020-02-08T10:04:31.000Z</time>
      </trkpt>
      <trkpt lat="45.30715" lon="6.1686">
        <ele>2137.8000488281</ele>
        <time>2020-02-08T10:04:36.000Z</time>
      </trkpt>
      <trkpt lat="45.30718" lon="6.16857">
        <ele>2139</ele>
        <time>2020-02-08T10:04:41.000Z</time>
      </trkpt>
      <trkpt lat="45.30719" lon="6.16855">
        <ele>2140.1999511719</ele>
        <time>2020-02-08T10:04:46.000Z</time>
      </trkpt>
      <trkpt lat="45.30721" lon="6.16854">
        <ele>2141.1999511719</ele>
        <time>2020-02-08T10:04:50.000Z</time>
      </trkpt>
      <trkpt lat="45.30722" lon="6.16854">
        <ele>2141.6000976562</ele>
        <time>2020-02-08T10:04:52.000Z</time>
      </trkpt>
      <trkpt lat="45.30724" lon="6.16853">
        <ele>2142.3999023438</ele>
        <time>2020-02-08T10:04:55.000Z</time>
      </trkpt>
      <trkpt lat="45.30726" lon="6.16852">
        <ele>2143</ele>
        <time>2020-02-08T10:04:58.000Z</time>
      </trkpt>
      <trkpt lat="45.30728" lon="6.1685">
        <ele>2143.3999023438</ele>
        <time>2020-02-08T10:05:02.000Z</time>
      </trkpt>
      <trkpt lat="45.30728" lon="6.1685">
        <ele>2143.6000976562</ele>
        <time>2020-02-08T10:05:03.000Z</time>
      </trkpt>
      <trkpt lat="45.30728" lon="6.16849">
        <ele>2144.6000976562</ele>
        <time>2020-02-08T10:05:09.000Z</time>
      </trkpt>
      <trkpt lat="45.30728" lon="6.16849">
        <ele>2144.8000488281</ele>
        <time>2020-02-08T10:05:11.000Z</time>
      </trkpt>
      <trkpt lat="45.30726" lon="6.16845">
        <ele>2145.1999511719</ele>
        <time>2020-02-08T10:05:15.000Z</time>
      </trkpt>
      <trkpt lat="45.30725" lon="6.16843">
        <ele>2145.6000976562</ele>
        <time>2020-02-08T10:05:19.000Z</time>
      </trkpt>
      <trkpt lat="45.30724" lon="6.16839">
        <ele>2146.3999023438</ele>
        <time>2020-02-08T10:05:23.000Z</time>
      </trkpt>
      <trkpt lat="45.30724" lon="6.16838">
        <ele>2146.6000976562</ele>
        <time>2020-02-08T10:05:24.000Z</time>
      </trkpt>
      <trkpt lat="45.30724" lon="6.16838">
        <ele>2146.8000488281</ele>
        <time>2020-02-08T10:05:25.000Z</time>
      </trkpt>
      <trkpt lat="45.30723" lon="6.16837">
        <ele>2147.3999023438</ele>
        <time>2020-02-08T10:05:27.000Z</time>
      </trkpt>
      <trkpt lat="45.30722" lon="6.16835">
        <ele>2147.8000488281</ele>
        <time>2020-02-08T10:05:28.000Z</time>
      </trkpt>
      <trkpt lat="45.30721" lon="6.16833">
        <ele>2148.1999511719</ele>
        <time>2020-02-08T10:05:31.000Z</time>
      </trkpt>
      <trkpt lat="45.3072" lon="6.16831">
        <ele>2148.8000488281</ele>
        <time>2020-02-08T10:05:33.000Z</time>
      </trkpt>
      <trkpt lat="45.30718" lon="6.16828">
        <ele>2149.1999511719</ele>
        <time>2020-02-08T10:05:36.000Z</time>
      </trkpt>
      <trkpt lat="45.30718" lon="6.16827">
        <ele>2150</ele>
        <time>2020-02-08T10:05:42.000Z</time>
      </trkpt>
      <trkpt lat="45.30719" lon="6.16824">
        <ele>2151</ele>
        <time>2020-02-08T10:05:44.000Z</time>
      </trkpt>
      <trkpt lat="45.30722" lon="6.16821">
        <ele>2151.6000976562</ele>
        <time>2020-02-08T10:05:48.000Z</time>
      </trkpt>
      <trkpt lat="45.30725" lon="6.16821">
        <ele>2152.1999511719</ele>
        <time>2020-02-08T10:05:52.000Z</time>
      </trkpt>
      <trkpt lat="45.30727" lon="6.1682">
        <ele>2152.6000976562</ele>
        <time>2020-02-08T10:05:54.000Z</time>
      </trkpt>
      <trkpt lat="45.3073" lon="6.16821">
        <ele>2153.1999511719</ele>
        <time>2020-02-08T10:05:57.000Z</time>
      </trkpt>
      <trkpt lat="45.30732" lon="6.1682">
        <ele>2154</ele>
        <time>2020-02-08T10:06:00.000Z</time>
      </trkpt>
      <trkpt lat="45.30733" lon="6.1682">
        <ele>2154.3999023438</ele>
        <time>2020-02-08T10:06:02.000Z</time>
      </trkpt>
      <trkpt lat="45.30733" lon="6.1682">
        <ele>2155.8000488281</ele>
        <time>2020-02-08T10:06:07.000Z</time>
      </trkpt>
      <trkpt lat="45.30733" lon="6.1682">
        <ele>2156</ele>
        <time>2020-02-08T10:06:08.000Z</time>
      </trkpt>
      <trkpt lat="45.30732" lon="6.16819">
        <ele>2155.8000488281</ele>
        <time>2020-02-08T10:06:14.000Z</time>
      </trkpt>
      <trkpt lat="45.30731" lon="6.16815">
        <ele>2156.3999023438</ele>
        <time>2020-02-08T10:06:18.000Z</time>
      </trkpt>
      <trkpt lat="45.3073" lon="6.16811">
        <ele>2157</ele>
        <time>2020-02-08T10:06:22.000Z</time>
      </trkpt>
      <trkpt lat="45.3073" lon="6.16811">
        <ele>2157.1999511719</ele>
        <time>2020-02-08T10:06:23.000Z</time>
      </trkpt>
      <trkpt lat="45.30729" lon="6.1681">
        <ele>2158</ele>
        <time>2020-02-08T10:06:28.000Z</time>
      </trkpt>
      <trkpt lat="45.30727" lon="6.16806">
        <ele>2159</ele>
        <time>2020-02-08T10:06:32.000Z</time>
      </trkpt>
      <trkpt lat="45.30726" lon="6.16805">
        <ele>2159.3999023438</ele>
        <time>2020-02-08T10:06:33.000Z</time>
      </trkpt>
      <trkpt lat="45.30724" lon="6.16803">
        <ele>2160</ele>
        <time>2020-02-08T10:06:37.000Z</time>
      </trkpt>
      <trkpt lat="45.30723" lon="6.16802">
        <ele>2160.1999511719</ele>
        <time>2020-02-08T10:06:38.000Z</time>
      </trkpt>
      <trkpt lat="45.3072" lon="6.168">
        <ele>2161.1999511719</ele>
        <time>2020-02-08T10:06:42.000Z</time>
      </trkpt>
      <trkpt lat="45.30719" lon="6.16801">
        <ele>2161.3999023438</ele>
        <time>2020-02-08T10:06:44.000Z</time>
      </trkpt>
      <trkpt lat="45.30717" lon="6.16801">
        <ele>2161.8000488281</ele>
        <time>2020-02-08T10:06:46.000Z</time>
      </trkpt>
      <trkpt lat="45.30716" lon="6.168">
        <ele>2162.1999511719</ele>
        <time>2020-02-08T10:06:48.000Z</time>
      </trkpt>
      <trkpt lat="45.30715" lon="6.16801">
        <ele>2162.3999023438</ele>
        <time>2020-02-08T10:06:49.000Z</time>
      </trkpt>
      <trkpt lat="45.30712" lon="6.16801">
        <ele>2162.6000976562</ele>
        <time>2020-02-08T10:06:51.000Z</time>
      </trkpt>
      <trkpt lat="45.30711" lon="6.16801">
        <ele>2163</ele>
        <time>2020-02-08T10:06:52.000Z</time>
      </trkpt>
      <trkpt lat="45.3071" lon="6.16801">
        <ele>2163.3999023438</ele>
        <time>2020-02-08T10:06:54.000Z</time>
      </trkpt>
      <trkpt lat="45.30709" lon="6.168">
        <ele>2164</ele>
        <time>2020-02-08T10:06:57.000Z</time>
      </trkpt>
      <trkpt lat="45.30708" lon="6.16801">
        <ele>2164.3999023438</ele>
        <time>2020-02-08T10:06:59.000Z</time>
      </trkpt>
      <trkpt lat="45.30705" lon="6.16801">
        <ele>2165</ele>
        <time>2020-02-08T10:07:02.000Z</time>
      </trkpt>
      <trkpt lat="45.30703" lon="6.168">
        <ele>2165.3999023438</ele>
        <time>2020-02-08T10:07:04.000Z</time>
      </trkpt>
      <trkpt lat="45.30702" lon="6.16798">
        <ele>2165.8000488281</ele>
        <time>2020-02-08T10:07:07.000Z</time>
      </trkpt>
      <trkpt lat="45.30697" lon="6.16798">
        <ele>2166.3999023438</ele>
        <time>2020-02-08T10:07:12.000Z</time>
      </trkpt>
      <trkpt lat="45.30696" lon="6.16797">
        <ele>2166.6000976562</ele>
        <time>2020-02-08T10:07:13.000Z</time>
      </trkpt>
      <trkpt lat="45.30693" lon="6.16795">
        <ele>2167.6000976562</ele>
        <time>2020-02-08T10:07:18.000Z</time>
      </trkpt>
      <trkpt lat="45.30691" lon="6.16793">
        <ele>2168.8000488281</ele>
        <time>2020-02-08T10:07:22.000Z</time>
      </trkpt>
      <trkpt lat="45.30689" lon="6.16789">
        <ele>2169.8000488281</ele>
        <time>2020-02-08T10:07:27.000Z</time>
      </trkpt>
      <trkpt lat="45.30688" lon="6.16785">
        <ele>2170.3999023438</ele>
        <time>2020-02-08T10:07:31.000Z</time>
      </trkpt>
      <trkpt lat="45.30689" lon="6.16784">
        <ele>2171</ele>
        <time>2020-02-08T10:07:33.000Z</time>
      </trkpt>
      <trkpt lat="45.30688" lon="6.16781">
        <ele>2171.6000976562</ele>
        <time>2020-02-08T10:07:36.000Z</time>
      </trkpt>
      <trkpt lat="45.30687" lon="6.1678">
        <ele>2172.1999511719</ele>
        <time>2020-02-08T10:07:38.000Z</time>
      </trkpt>
      <trkpt lat="45.30687" lon="6.1678">
        <ele>2173</ele>
        <time>2020-02-08T10:07:42.000Z</time>
      </trkpt>
      <trkpt lat="45.30687" lon="6.1678">
        <ele>2173</ele>
        <time>2020-02-08T10:07:50.000Z</time>
      </trkpt>
      <trkpt lat="45.30687" lon="6.16775">
        <ele>2173.3999023438</ele>
        <time>2020-02-08T10:07:53.000Z</time>
      </trkpt>
      <trkpt lat="45.30687" lon="6.16774">
        <ele>2173.6000976562</ele>
        <time>2020-02-08T10:07:54.000Z</time>
      </trkpt>
      <trkpt lat="45.30688" lon="6.16768">
        <ele>2174.3999023438</ele>
        <time>2020-02-08T10:07:59.000Z</time>
      </trkpt>
      <trkpt lat="45.30688" lon="6.16766">
        <ele>2174.6000976562</ele>
        <time>2020-02-08T10:08:00.000Z</time>
      </trkpt>
      <trkpt lat="45.30687" lon="6.16759">
        <ele>2175.6000976562</ele>
        <time>2020-02-08T10:08:04.000Z</time>
      </trkpt>
      <trkpt lat="45.30688" lon="6.16756">
        <ele>2176.8000488281</ele>
        <time>2020-02-08T10:08:08.000Z</time>
      </trkpt>
      <trkpt lat="45.30688" lon="6.16754">
        <ele>2177</ele>
        <time>2020-02-08T10:08:09.000Z</time>
      </trkpt>
      <trkpt lat="45.30689" lon="6.16748">
        <ele>2177.8000488281</ele>
        <time>2020-02-08T10:08:14.000Z</time>
      </trkpt>
      <trkpt lat="45.30689" lon="6.16743">
        <ele>2179</ele>
        <time>2020-02-08T10:08:19.000Z</time>
      </trkpt>
      <trkpt lat="45.30689" lon="6.16741">
        <ele>2179.1999511719</ele>
        <time>2020-02-08T10:08:20.000Z</time>
      </trkpt>
      <trkpt lat="45.30688" lon="6.16739">
        <ele>2179.8000488281</ele>
        <time>2020-02-08T10:08:23.000Z</time>
      </trkpt>
      <trkpt lat="45.30689" lon="6.16737">
        <ele>2180</ele>
        <time>2020-02-08T10:08:25.000Z</time>
      </trkpt>
      <trkpt lat="45.30688" lon="6.16734">
        <ele>2180.6000976562</ele>
        <time>2020-02-08T10:08:28.000Z</time>
      </trkpt>
      <trkpt lat="45.30689" lon="6.1673">
        <ele>2181.3999023438</ele>
        <time>2020-02-08T10:08:31.000Z</time>
      </trkpt>
      <trkpt lat="45.30689" lon="6.16729">
        <ele>2181.8000488281</ele>
        <time>2020-02-08T10:08:33.000Z</time>
      </trkpt>
      <trkpt lat="45.30689" lon="6.16727">
        <ele>2182.6000976562</ele>
        <time>2020-02-08T10:08:36.000Z</time>
      </trkpt>
      <trkpt lat="45.30689" lon="6.16724">
        <ele>2182.8000488281</ele>
        <time>2020-02-08T10:08:38.000Z</time>
      </trkpt>
      <trkpt lat="45.30688" lon="6.16719">
        <ele>2183.6000976562</ele>
        <time>2020-02-08T10:08:43.000Z</time>
      </trkpt>
      <trkpt lat="45.30687" lon="6.16714">
        <ele>2184.1999511719</ele>
        <time>2020-02-08T10:08:48.000Z</time>
      </trkpt>
      <trkpt lat="45.30687" lon="6.16711">
        <ele>2184.6000976562</ele>
        <time>2020-02-08T10:08:50.000Z</time>
      </trkpt>
      <trkpt lat="45.30686" lon="6.16708">
        <ele>2185</ele>
        <time>2020-02-08T10:08:52.000Z</time>
      </trkpt>
      <trkpt lat="45.30686" lon="6.16708">
        <ele>2185.1999511719</ele>
        <time>2020-02-08T10:08:53.000Z</time>
      </trkpt>
      <trkpt lat="45.30685" lon="6.16704">
        <ele>2185.6000976562</ele>
        <time>2020-02-08T10:08:57.000Z</time>
      </trkpt>
      <trkpt lat="45.30684" lon="6.16703">
        <ele>2185.8000488281</ele>
        <time>2020-02-08T10:08:58.000Z</time>
      </trkpt>
      <trkpt lat="45.30684" lon="6.16699">
        <ele>2186.1999511719</ele>
        <time>2020-02-08T10:09:01.000Z</time>
      </trkpt>
      <trkpt lat="45.30682" lon="6.16697">
        <ele>2186.8000488281</ele>
        <time>2020-02-08T10:09:03.000Z</time>
      </trkpt>
      <trkpt lat="45.30683" lon="6.16693">
        <ele>2187.6000976562</ele>
        <time>2020-02-08T10:09:08.000Z</time>
      </trkpt>
      <trkpt lat="45.30683" lon="6.16691">
        <ele>2188</ele>
        <time>2020-02-08T10:09:09.000Z</time>
      </trkpt>
      <trkpt lat="45.30682" lon="6.16689">
        <ele>2188.6000976562</ele>
        <time>2020-02-08T10:09:12.000Z</time>
      </trkpt>
      <trkpt lat="45.30682" lon="6.16687">
        <ele>2189</ele>
        <time>2020-02-08T10:09:14.000Z</time>
      </trkpt>
      <trkpt lat="45.30683" lon="6.16684">
        <ele>2189.6000976562</ele>
        <time>2020-02-08T10:09:17.000Z</time>
      </trkpt>
      <trkpt lat="45.30683" lon="6.16682">
        <ele>2190.3999023438</ele>
        <time>2020-02-08T10:09:19.000Z</time>
      </trkpt>
      <trkpt lat="45.30684" lon="6.16681">
        <ele>2190.8000488281</ele>
        <time>2020-02-08T10:09:21.000Z</time>
      </trkpt>
      <trkpt lat="45.30684" lon="6.16681">
        <ele>2191.6000976562</ele>
        <time>2020-02-08T10:09:24.000Z</time>
      </trkpt>
      <trkpt lat="45.30684" lon="6.16679">
        <ele>2192</ele>
        <time>2020-02-08T10:09:27.000Z</time>
      </trkpt>
      <trkpt lat="45.30685" lon="6.16677">
        <ele>2192.6000976562</ele>
        <time>2020-02-08T10:09:31.000Z</time>
      </trkpt>
      <trkpt lat="45.30685" lon="6.16677">
        <ele>2192.8000488281</ele>
        <time>2020-02-08T10:09:32.000Z</time>
      </trkpt>
      <trkpt lat="45.30687" lon="6.16674">
        <ele>2193.8000488281</ele>
        <time>2020-02-08T10:09:36.000Z</time>
      </trkpt>
      <trkpt lat="45.30687" lon="6.16673">
        <ele>2194.1999511719</ele>
        <time>2020-02-08T10:09:37.000Z</time>
      </trkpt>
      <trkpt lat="45.30687" lon="6.16672">
        <ele>2195</ele>
        <time>2020-02-08T10:09:40.000Z</time>
      </trkpt>
      <trkpt lat="45.30687" lon="6.16672">
        <ele>2195.1999511719</ele>
        <time>2020-02-08T10:09:41.000Z</time>
      </trkpt>
      <trkpt lat="45.30688" lon="6.16669">
        <ele>2196.1999511719</ele>
        <time>2020-02-08T10:09:44.000Z</time>
      </trkpt>
      <trkpt lat="45.30688" lon="6.16668">
        <ele>2196.3999023438</ele>
        <time>2020-02-08T10:09:45.000Z</time>
      </trkpt>
      <trkpt lat="45.30689" lon="6.16664">
        <ele>2197.1999511719</ele>
        <time>2020-02-08T10:09:49.000Z</time>
      </trkpt>
      <trkpt lat="45.30689" lon="6.16662">
        <ele>2197.6000976562</ele>
        <time>2020-02-08T10:09:50.000Z</time>
      </trkpt>
      <trkpt lat="45.30691" lon="6.16658">
        <ele>2198.6000976562</ele>
        <time>2020-02-08T10:09:54.000Z</time>
      </trkpt>
      <trkpt lat="45.30691" lon="6.16657">
        <ele>2198.8000488281</ele>
        <time>2020-02-08T10:09:55.000Z</time>
      </trkpt>
      <trkpt lat="45.30692" lon="6.16653">
        <ele>2199.8000488281</ele>
        <time>2020-02-08T10:09:58.000Z</time>
      </trkpt>
      <trkpt lat="45.30693" lon="6.16652">
        <ele>2200.1999511719</ele>
        <time>2020-02-08T10:10:00.000Z</time>
      </trkpt>
      <trkpt lat="45.30693" lon="6.16651">
        <ele>2200.8000488281</ele>
        <time>2020-02-08T10:10:02.000Z</time>
      </trkpt>
      <trkpt lat="45.30696" lon="6.16646">
        <ele>2201.8000488281</ele>
        <time>2020-02-08T10:10:06.000Z</time>
      </trkpt>
      <trkpt lat="45.30696" lon="6.16644">
        <ele>2203</ele>
        <time>2020-02-08T10:10:09.000Z</time>
      </trkpt>
      <trkpt lat="45.30697" lon="6.16643">
        <ele>2203.1999511719</ele>
        <time>2020-02-08T10:10:10.000Z</time>
      </trkpt>
      <trkpt lat="45.30698" lon="6.16639">
        <ele>2204.1999511719</ele>
        <time>2020-02-08T10:10:14.000Z</time>
      </trkpt>
      <trkpt lat="45.30698" lon="6.16637">
        <ele>2204.3999023438</ele>
        <time>2020-02-08T10:10:15.000Z</time>
      </trkpt>
      <trkpt lat="45.307" lon="6.16636">
        <ele>2205.3999023438</ele>
        <time>2020-02-08T10:10:19.000Z</time>
      </trkpt>
      <trkpt lat="45.307" lon="6.16636">
        <ele>2205.6000976562</ele>
        <time>2020-02-08T10:10:20.000Z</time>
      </trkpt>
      <trkpt lat="45.307" lon="6.16636">
        <ele>2206.3999023438</ele>
        <time>2020-02-08T10:10:33.000Z</time>
      </trkpt>
      <trkpt lat="45.307" lon="6.16636">
        <ele>2206</ele>
        <time>2020-02-08T10:10:43.000Z</time>
      </trkpt>
      <trkpt lat="45.307" lon="6.16636">
        <ele>2206</ele>
        <time>2020-02-08T10:11:06.000Z</time>
      </trkpt>
      <trkpt lat="45.30701" lon="6.16635">
        <ele>2205.8000488281</ele>
        <time>2020-02-08T10:11:13.000Z</time>
      </trkpt>
      <trkpt lat="45.30702" lon="6.16629">
        <ele>2206.1999511719</ele>
        <time>2020-02-08T10:11:18.000Z</time>
      </trkpt>
      <trkpt lat="45.30703" lon="6.16627">
        <ele>2206.8000488281</ele>
        <time>2020-02-08T10:11:20.000Z</time>
      </trkpt>
      <trkpt lat="45.30705" lon="6.16624">
        <ele>2207.6000976562</ele>
        <time>2020-02-08T10:11:23.000Z</time>
      </trkpt>
      <trkpt lat="45.30706" lon="6.16622">
        <ele>2208</ele>
        <time>2020-02-08T10:11:25.000Z</time>
      </trkpt>
      <trkpt lat="45.30707" lon="6.16619">
        <ele>2208.3999023438</ele>
        <time>2020-02-08T10:11:27.000Z</time>
      </trkpt>
      <trkpt lat="45.30708" lon="6.16615">
        <ele>2209.1999511719</ele>
        <time>2020-02-08T10:11:30.000Z</time>
      </trkpt>
      <trkpt lat="45.30709" lon="6.16613">
        <ele>2209.6000976562</ele>
        <time>2020-02-08T10:11:32.000Z</time>
      </trkpt>
      <trkpt lat="45.3071" lon="6.16611">
        <ele>2210.1999511719</ele>
        <time>2020-02-08T10:11:35.000Z</time>
      </trkpt>
      <trkpt lat="45.30711" lon="6.1661">
        <ele>2210.3999023438</ele>
        <time>2020-02-08T10:11:36.000Z</time>
      </trkpt>
      <trkpt lat="45.30712" lon="6.16605">
        <ele>2211.3999023438</ele>
        <time>2020-02-08T10:11:40.000Z</time>
      </trkpt>
      <trkpt lat="45.30714" lon="6.16601">
        <ele>2212.3999023438</ele>
        <time>2020-02-08T10:11:44.000Z</time>
      </trkpt>
      <trkpt lat="45.30714" lon="6.16596">
        <ele>2213.1999511719</ele>
        <time>2020-02-08T10:11:47.000Z</time>
      </trkpt>
      <trkpt lat="45.30715" lon="6.16595">
        <ele>2213.3999023438</ele>
        <time>2020-02-08T10:11:49.000Z</time>
      </trkpt>
      <trkpt lat="45.30715" lon="6.16593">
        <ele>2213.3999023438</ele>
        <time>2020-02-08T10:11:50.000Z</time>
      </trkpt>
      <trkpt lat="45.30716" lon="6.1659">
        <ele>2214</ele>
        <time>2020-02-08T10:11:53.000Z</time>
      </trkpt>
      <trkpt lat="45.30717" lon="6.16589">
        <ele>2214.6000976562</ele>
        <time>2020-02-08T10:11:55.000Z</time>
      </trkpt>
      <trkpt lat="45.30718" lon="6.16587">
        <ele>2215</ele>
        <time>2020-02-08T10:11:57.000Z</time>
      </trkpt>
      <trkpt lat="45.30721" lon="6.16581">
        <ele>2215.3999023438</ele>
        <time>2020-02-08T10:12:01.000Z</time>
      </trkpt>
      <trkpt lat="45.30721" lon="6.1658">
        <ele>2215.6000976562</ele>
        <time>2020-02-08T10:12:02.000Z</time>
      </trkpt>
      <trkpt lat="45.30722" lon="6.16576">
        <ele>2216.3999023438</ele>
        <time>2020-02-08T10:12:06.000Z</time>
      </trkpt>
      <trkpt lat="45.30722" lon="6.16574">
        <ele>2217</ele>
        <time>2020-02-08T10:12:08.000Z</time>
      </trkpt>
      <trkpt lat="45.30723" lon="6.16573">
        <ele>2217.8000488281</ele>
        <time>2020-02-08T10:12:11.000Z</time>
      </trkpt>
      <trkpt lat="45.30724" lon="6.16572">
        <ele>2218</ele>
        <time>2020-02-08T10:12:12.000Z</time>
      </trkpt>
      <trkpt lat="45.30724" lon="6.16571">
        <ele>2218.1999511719</ele>
        <time>2020-02-08T10:12:13.000Z</time>
      </trkpt>
      <trkpt lat="45.30724" lon="6.16571">
        <ele>2218.3999023438</ele>
        <time>2020-02-08T10:12:14.000Z</time>
      </trkpt>
      <trkpt lat="45.30725" lon="6.16567">
        <ele>2219.1999511719</ele>
        <time>2020-02-08T10:12:18.000Z</time>
      </trkpt>
      <trkpt lat="45.30727" lon="6.16561">
        <ele>2220.3999023438</ele>
        <time>2020-02-08T10:12:23.000Z</time>
      </trkpt>
      <trkpt lat="45.30727" lon="6.16557">
        <ele>2221.1999511719</ele>
        <time>2020-02-08T10:12:27.000Z</time>
      </trkpt>
      <trkpt lat="45.30727" lon="6.16556">
        <ele>2221.3999023438</ele>
        <time>2020-02-08T10:12:28.000Z</time>
      </trkpt>
      <trkpt lat="45.30729" lon="6.16553">
        <ele>2222.6000976562</ele>
        <time>2020-02-08T10:12:32.000Z</time>
      </trkpt>
      <trkpt lat="45.3073" lon="6.16549">
        <ele>2223.6000976562</ele>
        <time>2020-02-08T10:12:37.000Z</time>
      </trkpt>
      <trkpt lat="45.3073" lon="6.16548">
        <ele>2223.8000488281</ele>
        <time>2020-02-08T10:12:38.000Z</time>
      </trkpt>
      <trkpt lat="45.30731" lon="6.16542">
        <ele>2224.6000976562</ele>
        <time>2020-02-08T10:12:42.000Z</time>
      </trkpt>
      <trkpt lat="45.30731" lon="6.16542">
        <ele>2224.8000488281</ele>
        <time>2020-02-08T10:12:43.000Z</time>
      </trkpt>
      <trkpt lat="45.30731" lon="6.16538">
        <ele>2225.3999023438</ele>
        <time>2020-02-08T10:12:46.000Z</time>
      </trkpt>
      <trkpt lat="45.30732" lon="6.16536">
        <ele>2226</ele>
        <time>2020-02-08T10:12:49.000Z</time>
      </trkpt>
      <trkpt lat="45.30732" lon="6.16535">
        <ele>2226.1999511719</ele>
        <time>2020-02-08T10:12:50.000Z</time>
      </trkpt>
      <trkpt lat="45.30733" lon="6.16531">
        <ele>2227.1999511719</ele>
        <time>2020-02-08T10:12:54.000Z</time>
      </trkpt>
      <trkpt lat="45.30733" lon="6.16531">
        <ele>2227.3999023438</ele>
        <time>2020-02-08T10:12:55.000Z</time>
      </trkpt>
      <trkpt lat="45.30733" lon="6.16528">
        <ele>2228.3999023438</ele>
        <time>2020-02-08T10:12:58.000Z</time>
      </trkpt>
      <trkpt lat="45.30733" lon="6.16526">
        <ele>2228.6000976562</ele>
        <time>2020-02-08T10:13:00.000Z</time>
      </trkpt>
      <trkpt lat="45.30733" lon="6.16523">
        <ele>2229.3999023438</ele>
        <time>2020-02-08T10:13:04.000Z</time>
      </trkpt>
      <trkpt lat="45.30734" lon="6.16518">
        <ele>2230.3999023438</ele>
        <time>2020-02-08T10:13:08.000Z</time>
      </trkpt>
      <trkpt lat="45.30734" lon="6.16517">
        <ele>2230.6000976562</ele>
        <time>2020-02-08T10:13:09.000Z</time>
      </trkpt>
      <trkpt lat="45.30734" lon="6.16515">
        <ele>2231.3999023438</ele>
        <time>2020-02-08T10:13:12.000Z</time>
      </trkpt>
      <trkpt lat="45.30735" lon="6.16513">
        <ele>2231.6000976562</ele>
        <time>2020-02-08T10:13:14.000Z</time>
      </trkpt>
      <trkpt lat="45.30735" lon="6.1651">
        <ele>2232.1999511719</ele>
        <time>2020-02-08T10:13:17.000Z</time>
      </trkpt>
      <trkpt lat="45.30735" lon="6.16508">
        <ele>2232.6000976562</ele>
        <time>2020-02-08T10:13:19.000Z</time>
      </trkpt>
      <trkpt lat="45.30735" lon="6.16507">
        <ele>2233.1999511719</ele>
        <time>2020-02-08T10:13:21.000Z</time>
      </trkpt>
      <trkpt lat="45.30735" lon="6.16503">
        <ele>2233.8000488281</ele>
        <time>2020-02-08T10:13:26.000Z</time>
      </trkpt>
      <trkpt lat="45.30736" lon="6.16499">
        <ele>2234.3999023438</ele>
        <time>2020-02-08T10:13:29.000Z</time>
      </trkpt>
      <trkpt lat="45.30736" lon="6.16498">
        <ele>2234.8000488281</ele>
        <time>2020-02-08T10:13:30.000Z</time>
      </trkpt>
      <trkpt lat="45.30735" lon="6.16497">
        <ele>2235</ele>
        <time>2020-02-08T10:13:31.000Z</time>
      </trkpt>
      <trkpt lat="45.30734" lon="6.16492">
        <ele>2235.8000488281</ele>
        <time>2020-02-08T10:13:35.000Z</time>
      </trkpt>
      <trkpt lat="45.30734" lon="6.16492">
        <ele>2236</ele>
        <time>2020-02-08T10:13:36.000Z</time>
      </trkpt>
      <trkpt lat="45.30734" lon="6.16489">
        <ele>2236.8000488281</ele>
        <time>2020-02-08T10:13:40.000Z</time>
      </trkpt>
      <trkpt lat="45.30734" lon="6.16489">
        <ele>2237.1999511719</ele>
        <time>2020-02-08T10:13:41.000Z</time>
      </trkpt>
      <trkpt lat="45.30735" lon="6.16488">
        <ele>2237.3999023438</ele>
        <time>2020-02-08T10:13:42.000Z</time>
      </trkpt>
      <trkpt lat="45.30735" lon="6.16488">
        <ele>2238.1999511719</ele>
        <time>2020-02-08T10:13:45.000Z</time>
      </trkpt>
      <trkpt lat="45.30739" lon="6.16484">
        <ele>2239.3999023438</ele>
        <time>2020-02-08T10:13:51.000Z</time>
      </trkpt>
      <trkpt lat="45.30743" lon="6.16483">
        <ele>2240.6000976562</ele>
        <time>2020-02-08T10:13:56.000Z</time>
      </trkpt>
      <trkpt lat="45.30747" lon="6.16481">
        <ele>2241.6000976562</ele>
        <time>2020-02-08T10:14:01.000Z</time>
      </trkpt>
      <trkpt lat="45.30751" lon="6.1648">
        <ele>2242.6000976562</ele>
        <time>2020-02-08T10:14:07.000Z</time>
      </trkpt>
      <trkpt lat="45.30755" lon="6.1648">
        <ele>2243.6000976562</ele>
        <time>2020-02-08T10:14:11.000Z</time>
      </trkpt>
      <trkpt lat="45.30756" lon="6.16479">
        <ele>2244</ele>
        <time>2020-02-08T10:14:13.000Z</time>
      </trkpt>
      <trkpt lat="45.30758" lon="6.16477">
        <ele>2244.8000488281</ele>
        <time>2020-02-08T10:14:16.000Z</time>
      </trkpt>
      <trkpt lat="45.30759" lon="6.16476">
        <ele>2245.6000976562</ele>
        <time>2020-02-08T10:14:19.000Z</time>
      </trkpt>
      <trkpt lat="45.30761" lon="6.16475">
        <ele>2246</ele>
        <time>2020-02-08T10:14:21.000Z</time>
      </trkpt>
      <trkpt lat="45.30764" lon="6.16474">
        <ele>2246.8000488281</ele>
        <time>2020-02-08T10:14:24.000Z</time>
      </trkpt>
      <trkpt lat="45.30766" lon="6.16473">
        <ele>2247.1999511719</ele>
        <time>2020-02-08T10:14:26.000Z</time>
      </trkpt>
      <trkpt lat="45.30765" lon="6.1647">
        <ele>2248.3999023438</ele>
        <time>2020-02-08T10:14:31.000Z</time>
      </trkpt>
      <trkpt lat="45.30765" lon="6.16468">
        <ele>2248.6000976562</ele>
        <time>2020-02-08T10:14:32.000Z</time>
      </trkpt>
      <trkpt lat="45.30765" lon="6.16467">
        <ele>2249.6000976562</ele>
        <time>2020-02-08T10:14:34.000Z</time>
      </trkpt>
      <trkpt lat="45.30764" lon="6.16465">
        <ele>2250</ele>
        <time>2020-02-08T10:14:36.000Z</time>
      </trkpt>
      <trkpt lat="45.30762" lon="6.16462">
        <ele>2250.6000976562</ele>
        <time>2020-02-08T10:14:39.000Z</time>
      </trkpt>
      <trkpt lat="45.30762" lon="6.16459">
        <ele>2251.1999511719</ele>
        <time>2020-02-08T10:14:42.000Z</time>
      </trkpt>
      <trkpt lat="45.30762" lon="6.16458">
        <ele>2251.3999023438</ele>
        <time>2020-02-08T10:14:43.000Z</time>
      </trkpt>
      <trkpt lat="45.30763" lon="6.16458">
        <ele>2251.8000488281</ele>
        <time>2020-02-08T10:14:45.000Z</time>
      </trkpt>
      <trkpt lat="45.30763" lon="6.16458">
        <ele>2252</ele>
        <time>2020-02-08T10:14:46.000Z</time>
      </trkpt>
      <trkpt lat="45.30764" lon="6.16456">
        <ele>2253</ele>
        <time>2020-02-08T10:14:49.000Z</time>
      </trkpt>
      <trkpt lat="45.30765" lon="6.16453">
        <ele>2253.8000488281</ele>
        <time>2020-02-08T10:14:53.000Z</time>
      </trkpt>
      <trkpt lat="45.30766" lon="6.16451">
        <ele>2254</ele>
        <time>2020-02-08T10:14:54.000Z</time>
      </trkpt>
      <trkpt lat="45.30766" lon="6.16449">
        <ele>2255</ele>
        <time>2020-02-08T10:14:57.000Z</time>
      </trkpt>
      <trkpt lat="45.30766" lon="6.16449">
        <ele>2255.1999511719</ele>
        <time>2020-02-08T10:14:58.000Z</time>
      </trkpt>
      <trkpt lat="45.30766" lon="6.16447">
        <ele>2256</ele>
        <time>2020-02-08T10:15:01.000Z</time>
      </trkpt>
      <trkpt lat="45.30766" lon="6.16447">
        <ele>2256.3999023438</ele>
        <time>2020-02-08T10:15:02.000Z</time>
      </trkpt>
      <trkpt lat="45.30766" lon="6.16447">
        <ele>2257.3999023438</ele>
        <time>2020-02-08T10:15:10.000Z</time>
      </trkpt>
      <trkpt lat="45.30766" lon="6.16445">
        <ele>2257.6000976562</ele>
        <time>2020-02-08T10:15:12.000Z</time>
      </trkpt>
      <trkpt lat="45.30767" lon="6.16441">
        <ele>2258.3999023438</ele>
        <time>2020-02-08T10:15:17.000Z</time>
      </trkpt>
      <trkpt lat="45.30768" lon="6.1644">
        <ele>2258.3999023438</ele>
        <time>2020-02-08T10:15:18.000Z</time>
      </trkpt>
      <trkpt lat="45.30769" lon="6.16438">
        <ele>2259</ele>
        <time>2020-02-08T10:15:21.000Z</time>
      </trkpt>
      <trkpt lat="45.3077" lon="6.16436">
        <ele>2259.6000976562</ele>
        <time>2020-02-08T10:15:23.000Z</time>
      </trkpt>
      <trkpt lat="45.3077" lon="6.16433">
        <ele>2260.1999511719</ele>
        <time>2020-02-08T10:15:26.000Z</time>
      </trkpt>
      <trkpt lat="45.30771" lon="6.16431">
        <ele>2260.8000488281</ele>
        <time>2020-02-08T10:15:28.000Z</time>
      </trkpt>
      <trkpt lat="45.30771" lon="6.1643">
        <ele>2261.6000976562</ele>
        <time>2020-02-08T10:15:31.000Z</time>
      </trkpt>
      <trkpt lat="45.30771" lon="6.16429">
        <ele>2261.8000488281</ele>
        <time>2020-02-08T10:15:32.000Z</time>
      </trkpt>
      <trkpt lat="45.30775" lon="6.16428">
        <ele>2262.6000976562</ele>
        <time>2020-02-08T10:15:36.000Z</time>
      </trkpt>
      <trkpt lat="45.30775" lon="6.16428">
        <ele>2263</ele>
        <time>2020-02-08T10:15:37.000Z</time>
      </trkpt>
      <trkpt lat="45.30777" lon="6.16428">
        <ele>2263.8000488281</ele>
        <time>2020-02-08T10:15:41.000Z</time>
      </trkpt>
      <trkpt lat="45.30777" lon="6.16427">
        <ele>2264.1999511719</ele>
        <time>2020-02-08T10:15:42.000Z</time>
      </trkpt>
      <trkpt lat="45.3078" lon="6.16426">
        <ele>2265.1999511719</ele>
        <time>2020-02-08T10:15:46.000Z</time>
      </trkpt>
      <trkpt lat="45.30783" lon="6.16426">
        <ele>2266.3999023438</ele>
        <time>2020-02-08T10:15:51.000Z</time>
      </trkpt>
      <trkpt lat="45.30784" lon="6.16425">
        <ele>2266.6000976562</ele>
        <time>2020-02-08T10:15:52.000Z</time>
      </trkpt>
      <trkpt lat="45.30784" lon="6.16423">
        <ele>2267.3999023438</ele>
        <time>2020-02-08T10:15:56.000Z</time>
      </trkpt>
      <trkpt lat="45.30784" lon="6.16421">
        <ele>2267.6000976562</ele>
        <time>2020-02-08T10:15:57.000Z</time>
      </trkpt>
      <trkpt lat="45.30784" lon="6.16416">
        <ele>2268.3999023438</ele>
        <time>2020-02-08T10:16:01.000Z</time>
      </trkpt>
      <trkpt lat="45.30785" lon="6.16409">
        <ele>2269.3999023438</ele>
        <time>2020-02-08T10:16:06.000Z</time>
      </trkpt>
      <trkpt lat="45.30785" lon="6.16408">
        <ele>2269.6000976562</ele>
        <time>2020-02-08T10:16:07.000Z</time>
      </trkpt>
      <trkpt lat="45.30785" lon="6.16404">
        <ele>2270.8000488281</ele>
        <time>2020-02-08T10:16:11.000Z</time>
      </trkpt>
      <trkpt lat="45.30784" lon="6.16401">
        <ele>2271.8000488281</ele>
        <time>2020-02-08T10:16:15.000Z</time>
      </trkpt>
      <trkpt lat="45.30785" lon="6.164">
        <ele>2272</ele>
        <time>2020-02-08T10:16:16.000Z</time>
      </trkpt>
      <trkpt lat="45.30786" lon="6.16397">
        <ele>2273</ele>
        <time>2020-02-08T10:16:20.000Z</time>
      </trkpt>
      <trkpt lat="45.30786" lon="6.16395">
        <ele>2273.3999023438</ele>
        <time>2020-02-08T10:16:22.000Z</time>
      </trkpt>
      <trkpt lat="45.30785" lon="6.16393">
        <ele>2274</ele>
        <time>2020-02-08T10:16:25.000Z</time>
      </trkpt>
      <trkpt lat="45.30786" lon="6.1639">
        <ele>2274.6000976562</ele>
        <time>2020-02-08T10:16:28.000Z</time>
      </trkpt>
      <trkpt lat="45.30787" lon="6.1639">
        <ele>2275.1999511719</ele>
        <time>2020-02-08T10:16:30.000Z</time>
      </trkpt>
      <trkpt lat="45.30787" lon="6.1639">
        <ele>2276.1999511719</ele>
        <time>2020-02-08T10:16:34.000Z</time>
      </trkpt>
      <trkpt lat="45.30787" lon="6.1639">
        <ele>2276.1999511719</ele>
        <time>2020-02-08T10:16:35.000Z</time>
      </trkpt>
      <trkpt lat="45.3079" lon="6.1639">
        <ele>2276.8000488281</ele>
        <time>2020-02-08T10:16:42.000Z</time>
      </trkpt>
      <trkpt lat="45.30792" lon="6.16389">
        <ele>2277.1999511719</ele>
        <time>2020-02-08T10:16:45.000Z</time>
      </trkpt>
      <trkpt lat="45.30795" lon="6.1639">
        <ele>2278</ele>
        <time>2020-02-08T10:16:48.000Z</time>
      </trkpt>
      <trkpt lat="45.30796" lon="6.1639">
        <ele>2278.3999023438</ele>
        <time>2020-02-08T10:16:50.000Z</time>
      </trkpt>
      <trkpt lat="45.30799" lon="6.16389">
        <ele>2279.1999511719</ele>
        <time>2020-02-08T10:16:54.000Z</time>
      </trkpt>
      <trkpt lat="45.308" lon="6.16388">
        <ele>2279.6000976562</ele>
        <time>2020-02-08T10:16:56.000Z</time>
      </trkpt>
      <trkpt lat="45.30801" lon="6.16385">
        <ele>2280.8000488281</ele>
        <time>2020-02-08T10:17:01.000Z</time>
      </trkpt>
      <trkpt lat="45.30802" lon="6.16384">
        <ele>2281.1999511719</ele>
        <time>2020-02-08T10:17:02.000Z</time>
      </trkpt>
      <trkpt lat="45.30802" lon="6.1638">
        <ele>2282</ele>
        <time>2020-02-08T10:17:05.000Z</time>
      </trkpt>
      <trkpt lat="45.30802" lon="6.16378">
        <ele>2282</ele>
        <time>2020-02-08T10:17:06.000Z</time>
      </trkpt>
      <trkpt lat="45.30802" lon="6.16378">
        <ele>2282.1999511719</ele>
        <time>2020-02-08T10:17:07.000Z</time>
      </trkpt>
      <trkpt lat="45.30801" lon="6.16374">
        <ele>2283</ele>
        <time>2020-02-08T10:17:10.000Z</time>
      </trkpt>
      <trkpt lat="45.30801" lon="6.16372">
        <ele>2283.3999023438</ele>
        <time>2020-02-08T10:17:12.000Z</time>
      </trkpt>
      <trkpt lat="45.30801" lon="6.16369">
        <ele>2283.8000488281</ele>
        <time>2020-02-08T10:17:14.000Z</time>
      </trkpt>
      <trkpt lat="45.30801" lon="6.16368">
        <ele>2284</ele>
        <time>2020-02-08T10:17:15.000Z</time>
      </trkpt>
      <trkpt lat="45.308" lon="6.16366">
        <ele>2284.1999511719</ele>
        <time>2020-02-08T10:17:17.000Z</time>
      </trkpt>
      <trkpt lat="45.30801" lon="6.16363">
        <ele>2285.1999511719</ele>
        <time>2020-02-08T10:17:21.000Z</time>
      </trkpt>
      <trkpt lat="45.30801" lon="6.16361">
        <ele>2285.6000976562</ele>
        <time>2020-02-08T10:17:22.000Z</time>
      </trkpt>
      <trkpt lat="45.30801" lon="6.16358">
        <ele>2286.3999023438</ele>
        <time>2020-02-08T10:17:26.000Z</time>
      </trkpt>
      <trkpt lat="45.30802" lon="6.16355">
        <ele>2287.1999511719</ele>
        <time>2020-02-08T10:17:31.000Z</time>
      </trkpt>
      <trkpt lat="45.30802" lon="6.16354">
        <ele>2287.3999023438</ele>
        <time>2020-02-08T10:17:32.000Z</time>
      </trkpt>
      <trkpt lat="45.30802" lon="6.16352">
        <ele>2287.6000976562</ele>
        <time>2020-02-08T10:17:33.000Z</time>
      </trkpt>
      <trkpt lat="45.30802" lon="6.16351">
        <ele>2288.1999511719</ele>
        <time>2020-02-08T10:17:35.000Z</time>
      </trkpt>
      <trkpt lat="45.30802" lon="6.16349">
        <ele>2288.8000488281</ele>
        <time>2020-02-08T10:17:37.000Z</time>
      </trkpt>
      <trkpt lat="45.30801" lon="6.16348">
        <ele>2289</ele>
        <time>2020-02-08T10:17:38.000Z</time>
      </trkpt>
      <trkpt lat="45.308" lon="6.16344">
        <ele>2289.6000976562</ele>
        <time>2020-02-08T10:17:41.000Z</time>
      </trkpt>
      <trkpt lat="45.308" lon="6.16344">
        <ele>2289.8000488281</ele>
        <time>2020-02-08T10:17:42.000Z</time>
      </trkpt>
      <trkpt lat="45.308" lon="6.16342">
        <ele>2290.3999023438</ele>
        <time>2020-02-08T10:17:45.000Z</time>
      </trkpt>
      <trkpt lat="45.30798" lon="6.16341">
        <ele>2290.8000488281</ele>
        <time>2020-02-08T10:17:47.000Z</time>
      </trkpt>
      <trkpt lat="45.30798" lon="6.16338">
        <ele>2291.1999511719</ele>
        <time>2020-02-08T10:17:49.000Z</time>
      </trkpt>
      <trkpt lat="45.30797" lon="6.16337">
        <ele>2291.8000488281</ele>
        <time>2020-02-08T10:17:52.000Z</time>
      </trkpt>
      <trkpt lat="45.30797" lon="6.16336">
        <ele>2292</ele>
        <time>2020-02-08T10:17:53.000Z</time>
      </trkpt>
      <trkpt lat="45.30796" lon="6.16331">
        <ele>2293</ele>
        <time>2020-02-08T10:17:58.000Z</time>
      </trkpt>
      <trkpt lat="45.30795" lon="6.16327">
        <ele>2293.8000488281</ele>
        <time>2020-02-08T10:18:03.000Z</time>
      </trkpt>
      <trkpt lat="45.30796" lon="6.16326">
        <ele>2294</ele>
        <time>2020-02-08T10:18:05.000Z</time>
      </trkpt>
      <trkpt lat="45.308" lon="6.16325">
        <ele>2295.3999023438</ele>
        <time>2020-02-08T10:18:09.000Z</time>
      </trkpt>
      <trkpt lat="45.30805" lon="6.16323">
        <ele>2296.3999023438</ele>
        <time>2020-02-08T10:18:15.000Z</time>
      </trkpt>
      <trkpt lat="45.30805" lon="6.16324">
        <ele>2296.6000976562</ele>
        <time>2020-02-08T10:18:16.000Z</time>
      </trkpt>
      <trkpt lat="45.30808" lon="6.16323">
        <ele>2297.3999023438</ele>
        <time>2020-02-08T10:18:21.000Z</time>
      </trkpt>
      <trkpt lat="45.30808" lon="6.16323">
        <ele>2297.6000976562</ele>
        <time>2020-02-08T10:18:22.000Z</time>
      </trkpt>
      <trkpt lat="45.30811" lon="6.16323">
        <ele>2298.6000976562</ele>
        <time>2020-02-08T10:18:28.000Z</time>
      </trkpt>
      <trkpt lat="45.30808" lon="6.16319">
        <ele>2299.8000488281</ele>
        <time>2020-02-08T10:18:33.000Z</time>
      </trkpt>
      <trkpt lat="45.30807" lon="6.16315">
        <ele>2301</ele>
        <time>2020-02-08T10:18:38.000Z</time>
      </trkpt>
      <trkpt lat="45.30805" lon="6.1631">
        <ele>2302</ele>
        <time>2020-02-08T10:18:44.000Z</time>
      </trkpt>
      <trkpt lat="45.30805" lon="6.16307">
        <ele>2302.8000488281</ele>
        <time>2020-02-08T10:18:48.000Z</time>
      </trkpt>
      <trkpt lat="45.30805" lon="6.16305">
        <ele>2303.1999511719</ele>
        <time>2020-02-08T10:18:50.000Z</time>
      </trkpt>
      <trkpt lat="45.30803" lon="6.16303">
        <ele>2303.8000488281</ele>
        <time>2020-02-08T10:18:53.000Z</time>
      </trkpt>
      <trkpt lat="45.30802" lon="6.16301">
        <ele>2304.1999511719</ele>
        <time>2020-02-08T10:18:56.000Z</time>
      </trkpt>
      <trkpt lat="45.30801" lon="6.16299">
        <ele>2304.6000976562</ele>
        <time>2020-02-08T10:18:57.000Z</time>
      </trkpt>
      <trkpt lat="45.308" lon="6.16298">
        <ele>2305.1999511719</ele>
        <time>2020-02-08T10:19:00.000Z</time>
      </trkpt>
      <trkpt lat="45.30799" lon="6.16296">
        <ele>2305.8000488281</ele>
        <time>2020-02-08T10:19:02.000Z</time>
      </trkpt>
      <trkpt lat="45.30799" lon="6.16296">
        <ele>2306.1999511719</ele>
        <time>2020-02-08T10:19:07.000Z</time>
      </trkpt>
      <trkpt lat="45.30799" lon="6.16296">
        <ele>2306.3999023438</ele>
        <time>2020-02-08T10:19:08.000Z</time>
      </trkpt>
      <trkpt lat="45.30801" lon="6.16295">
        <ele>2307.3999023438</ele>
        <time>2020-02-08T10:19:11.000Z</time>
      </trkpt>
      <trkpt lat="45.30803" lon="6.16294">
        <ele>2307.3999023438</ele>
        <time>2020-02-08T10:19:14.000Z</time>
      </trkpt>
      <trkpt lat="45.30812" lon="6.16294">
        <ele>2308.1999511719</ele>
        <time>2020-02-08T10:19:20.000Z</time>
      </trkpt>
      <trkpt lat="45.30812" lon="6.16294">
        <ele>2308.6000976562</ele>
        <time>2020-02-08T10:19:21.000Z</time>
      </trkpt>
      <trkpt lat="45.30816" lon="6.16295">
        <ele>2309.8000488281</ele>
        <time>2020-02-08T10:19:26.000Z</time>
      </trkpt>
      <trkpt lat="45.30816" lon="6.16295">
        <ele>2310</ele>
        <time>2020-02-08T10:19:27.000Z</time>
      </trkpt>
      <trkpt lat="45.3082" lon="6.16295">
        <ele>2311</ele>
        <time>2020-02-08T10:19:32.000Z</time>
      </trkpt>
      <trkpt lat="45.30816" lon="6.16291">
        <ele>2312</ele>
        <time>2020-02-08T10:19:39.000Z</time>
      </trkpt>
      <trkpt lat="45.30816" lon="6.16291">
        <ele>2312</ele>
        <time>2020-02-08T10:19:40.000Z</time>
      </trkpt>
      <trkpt lat="45.30816" lon="6.16285">
        <ele>2313</ele>
        <time>2020-02-08T10:19:45.000Z</time>
      </trkpt>
      <trkpt lat="45.30815" lon="6.1628">
        <ele>2314</ele>
        <time>2020-02-08T10:19:50.000Z</time>
      </trkpt>
      <trkpt lat="45.30812" lon="6.16275">
        <ele>2315</ele>
        <time>2020-02-08T10:19:55.000Z</time>
      </trkpt>
      <trkpt lat="45.30812" lon="6.16274">
        <ele>2315.1999511719</ele>
        <time>2020-02-08T10:19:56.000Z</time>
      </trkpt>
      <trkpt lat="45.30813" lon="6.16272">
        <ele>2316.3999023438</ele>
        <time>2020-02-08T10:20:00.000Z</time>
      </trkpt>
      <trkpt lat="45.30815" lon="6.16273">
        <ele>2317.3999023438</ele>
        <time>2020-02-08T10:20:04.000Z</time>
      </trkpt>
      <trkpt lat="45.30816" lon="6.16272">
        <ele>2318.1999511719</ele>
        <time>2020-02-08T10:20:07.000Z</time>
      </trkpt>
      <trkpt lat="45.30817" lon="6.16272">
        <ele>2318.3999023438</ele>
        <time>2020-02-08T10:20:08.000Z</time>
      </trkpt>
      <trkpt lat="45.3082" lon="6.16273">
        <ele>2319</ele>
        <time>2020-02-08T10:20:12.000Z</time>
      </trkpt>
      <trkpt lat="45.30822" lon="6.16274">
        <ele>2319.6000976562</ele>
        <time>2020-02-08T10:20:15.000Z</time>
      </trkpt>
      <trkpt lat="45.30824" lon="6.16274">
        <ele>2320.3999023438</ele>
        <time>2020-02-08T10:20:18.000Z</time>
      </trkpt>
      <trkpt lat="45.30825" lon="6.16275">
        <ele>2320.8000488281</ele>
        <time>2020-02-08T10:20:20.000Z</time>
      </trkpt>
      <trkpt lat="45.30828" lon="6.16276">
        <ele>2321.3999023438</ele>
        <time>2020-02-08T10:20:23.000Z</time>
      </trkpt>
      <trkpt lat="45.30828" lon="6.16276">
        <ele>2321.8000488281</ele>
        <time>2020-02-08T10:20:25.000Z</time>
      </trkpt>
      <trkpt lat="45.30828" lon="6.16275">
        <ele>2322.3999023438</ele>
        <time>2020-02-08T10:20:29.000Z</time>
      </trkpt>
      <trkpt lat="45.30828" lon="6.16273">
        <ele>2323</ele>
        <time>2020-02-08T10:20:34.000Z</time>
      </trkpt>
      <trkpt lat="45.30827" lon="6.1627">
        <ele>2323.6000976562</ele>
        <time>2020-02-08T10:20:36.000Z</time>
      </trkpt>
      <trkpt lat="45.30827" lon="6.16269">
        <ele>2323.8000488281</ele>
        <time>2020-02-08T10:20:37.000Z</time>
      </trkpt>
      <trkpt lat="45.30826" lon="6.16265">
        <ele>2324</ele>
        <time>2020-02-08T10:20:41.000Z</time>
      </trkpt>
      <trkpt lat="45.30826" lon="6.16262">
        <ele>2324.3999023438</ele>
        <time>2020-02-08T10:20:43.000Z</time>
      </trkpt>
      <trkpt lat="45.30824" lon="6.16257">
        <ele>2325.1999511719</ele>
        <time>2020-02-08T10:20:48.000Z</time>
      </trkpt>
      <trkpt lat="45.30823" lon="6.16252">
        <ele>2326.3999023438</ele>
        <time>2020-02-08T10:20:53.000Z</time>
      </trkpt>
      <trkpt lat="45.30823" lon="6.16251">
        <ele>2326.6000976562</ele>
        <time>2020-02-08T10:20:54.000Z</time>
      </trkpt>
      <trkpt lat="45.30822" lon="6.16247">
        <ele>2327.6000976562</ele>
        <time>2020-02-08T10:20:58.000Z</time>
      </trkpt>
      <trkpt lat="45.30822" lon="6.16246">
        <ele>2328.3999023438</ele>
        <time>2020-02-08T10:21:02.000Z</time>
      </trkpt>
      <trkpt lat="45.30822" lon="6.16246">
        <ele>2328.6000976562</ele>
        <time>2020-02-08T10:21:03.000Z</time>
      </trkpt>
      <trkpt lat="45.30825" lon="6.16246">
        <ele>2329.8000488281</ele>
        <time>2020-02-08T10:21:08.000Z</time>
      </trkpt>
      <trkpt lat="45.30826" lon="6.16246">
        <ele>2330</ele>
        <time>2020-02-08T10:21:09.000Z</time>
      </trkpt>
      <trkpt lat="45.30829" lon="6.16247">
        <ele>2330.8000488281</ele>
        <time>2020-02-08T10:21:15.000Z</time>
      </trkpt>
      <trkpt lat="45.30833" lon="6.16249">
        <ele>2332</ele>
        <time>2020-02-08T10:21:21.000Z</time>
      </trkpt>
      <trkpt lat="45.30835" lon="6.1625">
        <ele>2333</ele>
        <time>2020-02-08T10:21:26.000Z</time>
      </trkpt>
      <trkpt lat="45.30835" lon="6.1625">
        <ele>2333.8000488281</ele>
        <time>2020-02-08T10:21:29.000Z</time>
      </trkpt>
      <trkpt lat="45.30835" lon="6.16247">
        <ele>2334</ele>
        <time>2020-02-08T10:21:34.000Z</time>
      </trkpt>
      <trkpt lat="45.30836" lon="6.16244">
        <ele>2334.1999511719</ele>
        <time>2020-02-08T10:21:36.000Z</time>
      </trkpt>
      <trkpt lat="45.30836" lon="6.16243">
        <ele>2335.1999511719</ele>
        <time>2020-02-08T10:21:40.000Z</time>
      </trkpt>
      <trkpt lat="45.30834" lon="6.16238">
        <ele>2336.1999511719</ele>
        <time>2020-02-08T10:21:46.000Z</time>
      </trkpt>
      <trkpt lat="45.30834" lon="6.16234">
        <ele>2337.3999023438</ele>
        <time>2020-02-08T10:21:50.000Z</time>
      </trkpt>
      <trkpt lat="45.30833" lon="6.16233">
        <ele>2337.6000976562</ele>
        <time>2020-02-08T10:21:52.000Z</time>
      </trkpt>
      <trkpt lat="45.30833" lon="6.16229">
        <ele>2338.3999023438</ele>
        <time>2020-02-08T10:21:56.000Z</time>
      </trkpt>
      <trkpt lat="45.30832" lon="6.16228">
        <ele>2339.3999023438</ele>
        <time>2020-02-08T10:22:00.000Z</time>
      </trkpt>
      <trkpt lat="45.30832" lon="6.16228">
        <ele>2339.6000976562</ele>
        <time>2020-02-08T10:22:01.000Z</time>
      </trkpt>
      <trkpt lat="45.30833" lon="6.16227">
        <ele>2340.8000488281</ele>
        <time>2020-02-08T10:22:07.000Z</time>
      </trkpt>
      <trkpt lat="45.30837" lon="6.16226">
        <ele>2341.8000488281</ele>
        <time>2020-02-08T10:22:14.000Z</time>
      </trkpt>
      <trkpt lat="45.30838" lon="6.16227">
        <ele>2341.8000488281</ele>
        <time>2020-02-08T10:22:15.000Z</time>
      </trkpt>
      <trkpt lat="45.3084" lon="6.16226">
        <ele>2342.3999023438</ele>
        <time>2020-02-08T10:22:19.000Z</time>
      </trkpt>
      <trkpt lat="45.30841" lon="6.16226">
        <ele>2343</ele>
        <time>2020-02-08T10:22:21.000Z</time>
      </trkpt>
      <trkpt lat="45.30843" lon="6.16226">
        <ele>2343.6000976562</ele>
        <time>2020-02-08T10:22:24.000Z</time>
      </trkpt>
      <trkpt lat="45.30844" lon="6.16227">
        <ele>2344.1999511719</ele>
        <time>2020-02-08T10:22:26.000Z</time>
      </trkpt>
      <trkpt lat="45.30844" lon="6.16226">
        <ele>2345.1999511719</ele>
        <time>2020-02-08T10:22:31.000Z</time>
      </trkpt>
      <trkpt lat="45.30844" lon="6.16226">
        <ele>2346</ele>
        <time>2020-02-08T10:22:34.000Z</time>
      </trkpt>
      <trkpt lat="45.30844" lon="6.16226">
        <ele>2346.3999023438</ele>
        <time>2020-02-08T10:22:36.000Z</time>
      </trkpt>
      <trkpt lat="45.30846" lon="6.16223">
        <ele>2346.6000976562</ele>
        <time>2020-02-08T10:22:41.000Z</time>
      </trkpt>
      <trkpt lat="45.30847" lon="6.1622">
        <ele>2347.3999023438</ele>
        <time>2020-02-08T10:22:44.000Z</time>
      </trkpt>
      <trkpt lat="45.30847" lon="6.16217">
        <ele>2348</ele>
        <time>2020-02-08T10:22:46.000Z</time>
      </trkpt>
      <trkpt lat="45.30847" lon="6.16214">
        <ele>2348.3999023438</ele>
        <time>2020-02-08T10:22:49.000Z</time>
      </trkpt>
      <trkpt lat="45.30847" lon="6.1621">
        <ele>2349.1999511719</ele>
        <time>2020-02-08T10:22:52.000Z</time>
      </trkpt>
      <trkpt lat="45.30847" lon="6.16209">
        <ele>2349.6000976562</ele>
        <time>2020-02-08T10:22:54.000Z</time>
      </trkpt>
      <trkpt lat="45.30848" lon="6.16204">
        <ele>2350.3999023438</ele>
        <time>2020-02-08T10:22:58.000Z</time>
      </trkpt>
      <trkpt lat="45.30848" lon="6.16204">
        <ele>2350.8000488281</ele>
        <time>2020-02-08T10:22:59.000Z</time>
      </trkpt>
      <trkpt lat="45.30847" lon="6.162">
        <ele>2351.3999023438</ele>
        <time>2020-02-08T10:23:03.000Z</time>
      </trkpt>
      <trkpt lat="45.30846" lon="6.162">
        <ele>2351.8000488281</ele>
        <time>2020-02-08T10:23:04.000Z</time>
      </trkpt>
      <trkpt lat="45.30844" lon="6.16196">
        <ele>2352.8000488281</ele>
        <time>2020-02-08T10:23:09.000Z</time>
      </trkpt>
      <trkpt lat="45.30844" lon="6.16195">
        <ele>2353</ele>
        <time>2020-02-08T10:23:10.000Z</time>
      </trkpt>
      <trkpt lat="45.30843" lon="6.1619">
        <ele>2354.1999511719</ele>
        <time>2020-02-08T10:23:15.000Z</time>
      </trkpt>
      <trkpt lat="45.30842" lon="6.16188">
        <ele>2355.1999511719</ele>
        <time>2020-02-08T10:23:20.000Z</time>
      </trkpt>
      <trkpt lat="45.30843" lon="6.16187">
        <ele>2355.6000976562</ele>
        <time>2020-02-08T10:23:21.000Z</time>
      </trkpt>
      <trkpt lat="45.30843" lon="6.16187">
        <ele>2356.3999023438</ele>
        <time>2020-02-08T10:23:23.000Z</time>
      </trkpt>
      <trkpt lat="45.30843" lon="6.16187">
        <ele>2356.6000976562</ele>
        <time>2020-02-08T10:23:33.000Z</time>
      </trkpt>
      <trkpt lat="45.30843" lon="6.16186">
        <ele>2356.3999023438</ele>
        <time>2020-02-08T10:23:44.000Z</time>
      </trkpt>
      <trkpt lat="45.30842" lon="6.16185">
        <ele>2357.1999511719</ele>
        <time>2020-02-08T10:23:49.000Z</time>
      </trkpt>
      <trkpt lat="45.30842" lon="6.16185">
        <ele>2357.6000976562</ele>
        <time>2020-02-08T10:23:52.000Z</time>
      </trkpt>
      <trkpt lat="45.30842" lon="6.16185">
        <ele>2358</ele>
        <time>2020-02-08T10:23:58.000Z</time>
      </trkpt>
      <trkpt lat="45.30842" lon="6.16185">
        <ele>2358</ele>
        <time>2020-02-08T10:24:14.000Z</time>
      </trkpt>
      <trkpt lat="45.30842" lon="6.16185">
        <ele>2357.6000976562</ele>
        <time>2020-02-08T10:24:23.000Z</time>
      </trkpt>
      <trkpt lat="45.30843" lon="6.16185">
        <ele>2357.8000488281</ele>
        <time>2020-02-08T10:24:32.000Z</time>
      </trkpt>
      <trkpt lat="45.30842" lon="6.16186">
        <ele>2357.8000488281</ele>
        <time>2020-02-08T10:24:34.000Z</time>
      </trkpt>
      <trkpt lat="45.30842" lon="6.16186">
        <ele>2357.3999023438</ele>
        <time>2020-02-08T10:24:37.000Z</time>
      </trkpt>
      <trkpt lat="45.30842" lon="6.16186">
        <ele>2357</ele>
        <time>2020-02-08T10:24:49.000Z</time>
      </trkpt>
      <trkpt lat="45.30842" lon="6.16186">
        <ele>2356.8000488281</ele>
        <time>2020-02-08T10:25:00.000Z</time>
      </trkpt>
      <trkpt lat="45.30842" lon="6.16186">
        <ele>2357</ele>
        <time>2020-02-08T10:25:16.000Z</time>
      </trkpt>
      <trkpt lat="45.30842" lon="6.16186">
        <ele>2356.8000488281</ele>
        <time>2020-02-08T10:25:29.000Z</time>
      </trkpt>
      <trkpt lat="45.30842" lon="6.16186">
        <ele>2357</ele>
        <time>2020-02-08T10:25:47.000Z</time>
      </trkpt>
      <trkpt lat="45.30842" lon="6.16186">
        <ele>2357.1999511719</ele>
        <time>2020-02-08T10:26:01.000Z</time>
      </trkpt>
      <trkpt lat="45.30842" lon="6.16186">
        <ele>2357.3999023438</ele>
        <time>2020-02-08T10:26:06.000Z</time>
      </trkpt>
      <trkpt lat="45.30842" lon="6.16186">
        <ele>2356.6000976562</ele>
        <time>2020-02-08T10:26:12.000Z</time>
      </trkpt>
      <trkpt lat="45.30842" lon="6.16186">
        <ele>2356.8000488281</ele>
        <time>2020-02-08T10:26:18.000Z</time>
      </trkpt>
      <trkpt lat="45.30842" lon="6.16186">
        <ele>2355.8000488281</ele>
        <time>2020-02-08T10:26:26.000Z</time>
      </trkpt>
      <trkpt lat="45.30842" lon="6.16186">
        <ele>2357.1999511719</ele>
        <time>2020-02-08T10:26:39.000Z</time>
      </trkpt>
      <trkpt lat="45.30842" lon="6.16186">
        <ele>2357</ele>
        <time>2020-02-08T10:26:52.000Z</time>
      </trkpt>
      <trkpt lat="45.30842" lon="6.16186">
        <ele>2357</ele>
        <time>2020-02-08T10:27:06.000Z</time>
      </trkpt>
      <trkpt lat="45.30842" lon="6.16186">
        <ele>2357</ele>
        <time>2020-02-08T10:27:26.000Z</time>
      </trkpt>
      <trkpt lat="45.30842" lon="6.16186">
        <ele>2356.8000488281</ele>
        <time>2020-02-08T10:27:40.000Z</time>
      </trkpt>
      <trkpt lat="45.30842" lon="6.16186">
        <ele>2356</ele>
        <time>2020-02-08T10:27:50.000Z</time>
      </trkpt>
      <trkpt lat="45.30842" lon="6.16186">
        <ele>2356.8000488281</ele>
        <time>2020-02-08T10:28:03.000Z</time>
      </trkpt>
      <trkpt lat="45.30842" lon="6.16186">
        <ele>2356.3999023438</ele>
        <time>2020-02-08T10:28:21.000Z</time>
      </trkpt>
      <trkpt lat="45.30842" lon="6.16186">
        <ele>2357.6000976562</ele>
        <time>2020-02-08T10:28:31.000Z</time>
      </trkpt>
      <trkpt lat="45.30842" lon="6.16186">
        <ele>2357.3999023438</ele>
        <time>2020-02-08T10:28:32.000Z</time>
      </trkpt>
      <trkpt lat="45.30842" lon="6.16186">
        <ele>2357</ele>
        <time>2020-02-08T10:28:40.000Z</time>
      </trkpt>
      <trkpt lat="45.30842" lon="6.16186">
        <ele>2356.6000976562</ele>
        <time>2020-02-08T10:28:55.000Z</time>
      </trkpt>
      <trkpt lat="45.30842" lon="6.16186">
        <ele>2356.8000488281</ele>
        <time>2020-02-08T10:29:10.000Z</time>
      </trkpt>
      <trkpt lat="45.30841" lon="6.16186">
        <ele>2356.8000488281</ele>
        <time>2020-02-08T10:29:20.000Z</time>
      </trkpt>
      <trkpt lat="45.30841" lon="6.16186">
        <ele>2356.8000488281</ele>
        <time>2020-02-08T10:29:33.000Z</time>
      </trkpt>
      <trkpt lat="45.30841" lon="6.16186">
        <ele>2356.8000488281</ele>
        <time>2020-02-08T10:29:49.000Z</time>
      </trkpt>
      <trkpt lat="45.3084" lon="6.16188">
        <ele>2356.8000488281</ele>
        <time>2020-02-08T10:30:00.000Z</time>
      </trkpt>
      <trkpt lat="45.3084" lon="6.16188">
        <ele>2356.8000488281</ele>
        <time>2020-02-08T10:30:08.000Z</time>
      </trkpt>
      <trkpt lat="45.3084" lon="6.16188">
        <ele>2356.6000976562</ele>
        <time>2020-02-08T10:30:22.000Z</time>
      </trkpt>
      <trkpt lat="45.3084" lon="6.16188">
        <ele>2356.6000976562</ele>
        <time>2020-02-08T10:30:29.000Z</time>
      </trkpt>
      <trkpt lat="45.3084" lon="6.16188">
        <ele>2356.6000976562</ele>
        <time>2020-02-08T10:30:41.000Z</time>
      </trkpt>
      <trkpt lat="45.3084" lon="6.16187">
        <ele>2356.3999023438</ele>
        <time>2020-02-08T10:30:43.000Z</time>
      </trkpt>
      <trkpt lat="45.3084" lon="6.16187">
        <ele>2356.6000976562</ele>
        <time>2020-02-08T10:30:54.000Z</time>
      </trkpt>
      <trkpt lat="45.3084" lon="6.16187">
        <ele>2356.8000488281</ele>
        <time>2020-02-08T10:31:01.000Z</time>
      </trkpt>
      <trkpt lat="45.3084" lon="6.16187">
        <ele>2356.6000976562</ele>
        <time>2020-02-08T10:31:17.000Z</time>
      </trkpt>
      <trkpt lat="45.3084" lon="6.16187">
        <ele>2356.6000976562</ele>
        <time>2020-02-08T10:31:34.000Z</time>
      </trkpt>
      <trkpt lat="45.3084" lon="6.16187">
        <ele>2356.6000976562</ele>
        <time>2020-02-08T10:31:52.000Z</time>
      </trkpt>
      <trkpt lat="45.30841" lon="6.16186">
        <ele>2356.6000976562</ele>
        <time>2020-02-08T10:32:08.000Z</time>
      </trkpt>
      <trkpt lat="45.30841" lon="6.16186">
        <ele>2356.6000976562</ele>
        <time>2020-02-08T10:32:25.000Z</time>
      </trkpt>
      <trkpt lat="45.30841" lon="6.16186">
        <ele>2356.8000488281</ele>
        <time>2020-02-08T10:32:39.000Z</time>
      </trkpt>
      <trkpt lat="45.30841" lon="6.16186">
        <ele>2356.8000488281</ele>
        <time>2020-02-08T10:32:55.000Z</time>
      </trkpt>
      <trkpt lat="45.30841" lon="6.16186">
        <ele>2356.8000488281</ele>
        <time>2020-02-08T10:33:07.000Z</time>
      </trkpt>
      <trkpt lat="45.30841" lon="6.16186">
        <ele>2356.8000488281</ele>
        <time>2020-02-08T10:33:21.000Z</time>
      </trkpt>
      <trkpt lat="45.30841" lon="6.16187">
        <ele>2356.8000488281</ele>
        <time>2020-02-08T10:33:41.000Z</time>
      </trkpt>
      <trkpt lat="45.30841" lon="6.16187">
        <ele>2356.8000488281</ele>
        <time>2020-02-08T10:33:55.000Z</time>
      </trkpt>
      <trkpt lat="45.30841" lon="6.16187">
        <ele>2356.8000488281</ele>
        <time>2020-02-08T10:34:06.000Z</time>
      </trkpt>
      <trkpt lat="45.30841" lon="6.16187">
        <ele>2356.6000976562</ele>
        <time>2020-02-08T10:34:17.000Z</time>
      </trkpt>
      <trkpt lat="45.30841" lon="6.16187">
        <ele>2357.1999511719</ele>
        <time>2020-02-08T10:34:30.000Z</time>
      </trkpt>
      <trkpt lat="45.30841" lon="6.16187">
        <ele>2357</ele>
        <time>2020-02-08T10:34:49.000Z</time>
      </trkpt>
      <trkpt lat="45.30841" lon="6.16187">
        <ele>2357</ele>
        <time>2020-02-08T10:35:03.000Z</time>
      </trkpt>
      <trkpt lat="45.30841" lon="6.16187">
        <ele>2356.8000488281</ele>
        <time>2020-02-08T10:35:16.000Z</time>
      </trkpt>
      <trkpt lat="45.30841" lon="6.16187">
        <ele>2356.8000488281</ele>
        <time>2020-02-08T10:35:34.000Z</time>
      </trkpt>
      <trkpt lat="45.30841" lon="6.16187">
        <ele>2357</ele>
        <time>2020-02-08T10:35:47.000Z</time>
      </trkpt>
      <trkpt lat="45.30841" lon="6.16187">
        <ele>2356.8000488281</ele>
        <time>2020-02-08T10:36:02.000Z</time>
      </trkpt>
      <trkpt lat="45.3084" lon="6.16188">
        <ele>2356.8000488281</ele>
        <time>2020-02-08T10:36:19.000Z</time>
      </trkpt>
      <trkpt lat="45.3084" lon="6.16188">
        <ele>2357</ele>
        <time>2020-02-08T10:36:35.000Z</time>
      </trkpt>
      <trkpt lat="45.3084" lon="6.16189">
        <ele>2356.8000488281</ele>
        <time>2020-02-08T10:36:55.000Z</time>
      </trkpt>
      <trkpt lat="45.3084" lon="6.16189">
        <ele>2356.6000976562</ele>
        <time>2020-02-08T10:37:11.000Z</time>
      </trkpt>
      <trkpt lat="45.3084" lon="6.16189">
        <ele>2356.8000488281</ele>
        <time>2020-02-08T10:37:27.000Z</time>
      </trkpt>
      <trkpt lat="45.30839" lon="6.16188">
        <ele>2356.6000976562</ele>
        <time>2020-02-08T10:37:42.000Z</time>
      </trkpt>
      <trkpt lat="45.30839" lon="6.16188">
        <ele>2356.8000488281</ele>
        <time>2020-02-08T10:37:58.000Z</time>
      </trkpt>
      <trkpt lat="45.30839" lon="6.16188">
        <ele>2355.3999023438</ele>
        <time>2020-02-08T10:38:11.000Z</time>
      </trkpt>
      <trkpt lat="45.30839" lon="6.16188">
        <ele>2355.1999511719</ele>
        <time>2020-02-08T10:38:13.000Z</time>
      </trkpt>
      <trkpt lat="45.30839" lon="6.16187">
        <ele>2356.3999023438</ele>
        <time>2020-02-08T10:38:16.000Z</time>
      </trkpt>
      <trkpt lat="45.30839" lon="6.16187">
        <ele>2356.6000976562</ele>
        <time>2020-02-08T10:38:17.000Z</time>
      </trkpt>
      <trkpt lat="45.30839" lon="6.16187">
        <ele>2356.3999023438</ele>
        <time>2020-02-08T10:38:31.000Z</time>
      </trkpt>
      <trkpt lat="45.30839" lon="6.16187">
        <ele>2356.3999023438</ele>
        <time>2020-02-08T10:38:48.000Z</time>
      </trkpt>
      <trkpt lat="45.3084" lon="6.16185">
        <ele>2356.3999023438</ele>
        <time>2020-02-08T10:39:09.000Z</time>
      </trkpt>
      <trkpt lat="45.3084" lon="6.16185">
        <ele>2356.3999023438</ele>
        <time>2020-02-08T10:39:26.000Z</time>
      </trkpt>
      <trkpt lat="45.3084" lon="6.16185">
        <ele>2356.1999511719</ele>
        <time>2020-02-08T10:39:45.000Z</time>
      </trkpt>
      <trkpt lat="45.3084" lon="6.16185">
        <ele>2356</ele>
        <time>2020-02-08T10:40:05.000Z</time>
      </trkpt>
      <trkpt lat="45.3084" lon="6.16185">
        <ele>2356.1999511719</ele>
        <time>2020-02-08T10:40:18.000Z</time>
      </trkpt>
      <trkpt lat="45.3084" lon="6.16185">
        <ele>2356.1999511719</ele>
        <time>2020-02-08T10:40:36.000Z</time>
      </trkpt>
      <trkpt lat="45.3084" lon="6.16185">
        <ele>2356.1999511719</ele>
        <time>2020-02-08T10:40:54.000Z</time>
      </trkpt>
      <trkpt lat="45.3084" lon="6.16185">
        <ele>2356</ele>
        <time>2020-02-08T10:41:10.000Z</time>
      </trkpt>
      <trkpt lat="45.3084" lon="6.16185">
        <ele>2356</ele>
        <time>2020-02-08T10:41:31.000Z</time>
      </trkpt>
      <trkpt lat="45.3084" lon="6.16184">
        <ele>2356</ele>
        <time>2020-02-08T10:41:49.000Z</time>
      </trkpt>
      <trkpt lat="45.3084" lon="6.16184">
        <ele>2356.1999511719</ele>
        <time>2020-02-08T10:42:04.000Z</time>
      </trkpt>
      <trkpt lat="45.3084" lon="6.16183">
        <ele>2356</ele>
        <time>2020-02-08T10:42:15.000Z</time>
      </trkpt>
      <trkpt lat="45.3084" lon="6.16183">
        <ele>2356.1999511719</ele>
        <time>2020-02-08T10:42:32.000Z</time>
      </trkpt>
      <trkpt lat="45.3084" lon="6.16183">
        <ele>2356.3999023438</ele>
        <time>2020-02-08T10:42:42.000Z</time>
      </trkpt>
      <trkpt lat="45.3084" lon="6.16183">
        <ele>2356.1999511719</ele>
        <time>2020-02-08T10:42:56.000Z</time>
      </trkpt>
      <trkpt lat="45.3084" lon="6.16183">
        <ele>2356.3999023438</ele>
        <time>2020-02-08T10:43:10.000Z</time>
      </trkpt>
      <trkpt lat="45.3084" lon="6.16183">
        <ele>2356.6000976562</ele>
        <time>2020-02-08T10:43:24.000Z</time>
      </trkpt>
      <trkpt lat="45.3084" lon="6.16183">
        <ele>2356.3999023438</ele>
        <time>2020-02-08T10:43:35.000Z</time>
      </trkpt>
      <trkpt lat="45.3084" lon="6.16183">
        <ele>2356.3999023438</ele>
        <time>2020-02-08T10:43:47.000Z</time>
      </trkpt>
      <trkpt lat="45.30841" lon="6.16183">
        <ele>2356.6000976562</ele>
        <time>2020-02-08T10:43:56.000Z</time>
      </trkpt>
      <trkpt lat="45.30841" lon="6.16183">
        <ele>2356.6000976562</ele>
        <time>2020-02-08T10:44:10.000Z</time>
      </trkpt>
      <trkpt lat="45.30841" lon="6.16183">
        <ele>2356.6000976562</ele>
        <time>2020-02-08T10:44:28.000Z</time>
      </trkpt>
      <trkpt lat="45.30841" lon="6.16183">
        <ele>2356.6000976562</ele>
        <time>2020-02-08T10:44:42.000Z</time>
      </trkpt>
      <trkpt lat="45.30841" lon="6.16183">
        <ele>2356.6000976562</ele>
        <time>2020-02-08T10:44:55.000Z</time>
      </trkpt>
      <trkpt lat="45.30841" lon="6.16183">
        <ele>2356.3999023438</ele>
        <time>2020-02-08T10:45:12.000Z</time>
      </trkpt>
      <trkpt lat="45.30841" lon="6.16183">
        <ele>2356.3999023438</ele>
        <time>2020-02-08T10:45:28.000Z</time>
      </trkpt>
      <trkpt lat="45.30841" lon="6.16184">
        <ele>2356.3999023438</ele>
        <time>2020-02-08T10:45:41.000Z</time>
      </trkpt>
      <trkpt lat="45.30843" lon="6.16183">
        <ele>2356.3999023438</ele>
        <time>2020-02-08T10:45:49.000Z</time>
      </trkpt>
      <trkpt lat="45.30844" lon="6.16181">
        <ele>2356.1999511719</ele>
        <time>2020-02-08T10:45:51.000Z</time>
      </trkpt>
      <trkpt lat="45.30845" lon="6.1618">
        <ele>2356.3999023438</ele>
        <time>2020-02-08T10:45:53.000Z</time>
      </trkpt>
      <trkpt lat="45.30848" lon="6.16175">
        <ele>2357</ele>
        <time>2020-02-08T10:45:56.000Z</time>
      </trkpt>
      <trkpt lat="45.30848" lon="6.16173">
        <ele>2357.3999023438</ele>
        <time>2020-02-08T10:45:58.000Z</time>
      </trkpt>
      <trkpt lat="45.30848" lon="6.16172">
        <ele>2357.3999023438</ele>
        <time>2020-02-08T10:45:59.000Z</time>
      </trkpt>
      <trkpt lat="45.3085" lon="6.16167">
        <ele>2358.6000976562</ele>
        <time>2020-02-08T10:46:04.000Z</time>
      </trkpt>
      <trkpt lat="45.30851" lon="6.16161">
        <ele>2359.8000488281</ele>
        <time>2020-02-08T10:46:10.000Z</time>
      </trkpt>
      <trkpt lat="45.30851" lon="6.16157">
        <ele>2360.8000488281</ele>
        <time>2020-02-08T10:46:15.000Z</time>
      </trkpt>
      <trkpt lat="45.30851" lon="6.16156">
        <ele>2361</ele>
        <time>2020-02-08T10:46:16.000Z</time>
      </trkpt>
      <trkpt lat="45.30851" lon="6.16152">
        <ele>2361.8000488281</ele>
        <time>2020-02-08T10:46:19.000Z</time>
      </trkpt>
      <trkpt lat="45.30853" lon="6.16149">
        <ele>2362</ele>
        <time>2020-02-08T10:46:22.000Z</time>
      </trkpt>
      <trkpt lat="45.30854" lon="6.16146">
        <ele>2362.8000488281</ele>
        <time>2020-02-08T10:46:26.000Z</time>
      </trkpt>
      <trkpt lat="45.30854" lon="6.16144">
        <ele>2363.1999511719</ele>
        <time>2020-02-08T10:46:28.000Z</time>
      </trkpt>
      <trkpt lat="45.30854" lon="6.16143">
        <ele>2363.3999023438</ele>
        <time>2020-02-08T10:46:29.000Z</time>
      </trkpt>
      <trkpt lat="45.30855" lon="6.16139">
        <ele>2364</ele>
        <time>2020-02-08T10:46:33.000Z</time>
      </trkpt>
      <trkpt lat="45.30856" lon="6.16135">
        <ele>2364.8000488281</ele>
        <time>2020-02-08T10:46:38.000Z</time>
      </trkpt>
      <trkpt lat="45.30857" lon="6.16134">
        <ele>2365</ele>
        <time>2020-02-08T10:46:39.000Z</time>
      </trkpt>
      <trkpt lat="45.30857" lon="6.16133">
        <ele>2365.1999511719</ele>
        <time>2020-02-08T10:46:40.000Z</time>
      </trkpt>
      <trkpt lat="45.30857" lon="6.16131">
        <ele>2365.6000976562</ele>
        <time>2020-02-08T10:46:42.000Z</time>
      </trkpt>
      <trkpt lat="45.30857" lon="6.1613">
        <ele>2366</ele>
        <time>2020-02-08T10:46:44.000Z</time>
      </trkpt>
      <trkpt lat="45.30857" lon="6.16127">
        <ele>2366.1999511719</ele>
        <time>2020-02-08T10:46:47.000Z</time>
      </trkpt>
      <trkpt lat="45.30857" lon="6.16126">
        <ele>2366.3999023438</ele>
        <time>2020-02-08T10:46:48.000Z</time>
      </trkpt>
      <trkpt lat="45.30858" lon="6.16118">
        <ele>2367.1999511719</ele>
        <time>2020-02-08T10:46:53.000Z</time>
      </trkpt>
      <trkpt lat="45.30859" lon="6.16112">
        <ele>2368.1999511719</ele>
        <time>2020-02-08T10:46:58.000Z</time>
      </trkpt>
      <trkpt lat="45.30859" lon="6.16111">
        <ele>2368.8000488281</ele>
        <time>2020-02-08T10:47:00.000Z</time>
      </trkpt>
      <trkpt lat="45.30859" lon="6.16108">
        <ele>2369.3999023438</ele>
        <time>2020-02-08T10:47:03.000Z</time>
      </trkpt>
      <trkpt lat="45.30859" lon="6.16105">
        <ele>2369.8000488281</ele>
        <time>2020-02-08T10:47:06.000Z</time>
      </trkpt>
      <trkpt lat="45.30859" lon="6.16103">
        <ele>2370.3999023438</ele>
        <time>2020-02-08T10:47:11.000Z</time>
      </trkpt>
      <trkpt lat="45.30859" lon="6.16097">
        <ele>2371.3999023438</ele>
        <time>2020-02-08T10:47:17.000Z</time>
      </trkpt>
      <trkpt lat="45.30859" lon="6.16092">
        <ele>2372.1999511719</ele>
        <time>2020-02-08T10:47:22.000Z</time>
      </trkpt>
      <trkpt lat="45.30859" lon="6.16091">
        <ele>2372.3999023438</ele>
        <time>2020-02-08T10:47:23.000Z</time>
      </trkpt>
      <trkpt lat="45.30859" lon="6.16091">
        <ele>2372.3999023438</ele>
        <time>2020-02-08T10:47:24.000Z</time>
      </trkpt>
      <trkpt lat="45.30858" lon="6.16088">
        <ele>2372.6000976562</ele>
        <time>2020-02-08T10:47:26.000Z</time>
      </trkpt>
      <trkpt lat="45.30858" lon="6.16084">
        <ele>2373.1999511719</ele>
        <time>2020-02-08T10:47:29.000Z</time>
      </trkpt>
      <trkpt lat="45.30858" lon="6.16081">
        <ele>2373.6000976562</ele>
        <time>2020-02-08T10:47:32.000Z</time>
      </trkpt>
      <trkpt lat="45.30858" lon="6.16079">
        <ele>2373.8000488281</ele>
        <time>2020-02-08T10:47:33.000Z</time>
      </trkpt>
      <trkpt lat="45.30858" lon="6.16075">
        <ele>2374.6000976562</ele>
        <time>2020-02-08T10:47:37.000Z</time>
      </trkpt>
      <trkpt lat="45.30859" lon="6.16072">
        <ele>2375</ele>
        <time>2020-02-08T10:47:39.000Z</time>
      </trkpt>
      <trkpt lat="45.30859" lon="6.16067">
        <ele>2375.3999023438</ele>
        <time>2020-02-08T10:47:45.000Z</time>
      </trkpt>
      <trkpt lat="45.3086" lon="6.16065">
        <ele>2375.8000488281</ele>
        <time>2020-02-08T10:47:47.000Z</time>
      </trkpt>
      <trkpt lat="45.30859" lon="6.16062">
        <ele>2376.6000976562</ele>
        <time>2020-02-08T10:47:50.000Z</time>
      </trkpt>
      <trkpt lat="45.3086" lon="6.16061">
        <ele>2376.8000488281</ele>
        <time>2020-02-08T10:47:51.000Z</time>
      </trkpt>
      <trkpt lat="45.30861" lon="6.16057">
        <ele>2377</ele>
        <time>2020-02-08T10:47:55.000Z</time>
      </trkpt>
      <trkpt lat="45.30861" lon="6.16052">
        <ele>2377.6000976562</ele>
        <time>2020-02-08T10:47:59.000Z</time>
      </trkpt>
      <trkpt lat="45.30861" lon="6.16051">
        <ele>2377.8000488281</ele>
        <time>2020-02-08T10:48:00.000Z</time>
      </trkpt>
      <trkpt lat="45.30862" lon="6.16046">
        <ele>2378.8000488281</ele>
        <time>2020-02-08T10:48:05.000Z</time>
      </trkpt>
      <trkpt lat="45.30862" lon="6.16044">
        <ele>2379</ele>
        <time>2020-02-08T10:48:07.000Z</time>
      </trkpt>
      <trkpt lat="45.30862" lon="6.16041">
        <ele>2379.3999023438</ele>
        <time>2020-02-08T10:48:10.000Z</time>
      </trkpt>
      <trkpt lat="45.30862" lon="6.16039">
        <ele>2380</ele>
        <time>2020-02-08T10:48:12.000Z</time>
      </trkpt>
      <trkpt lat="45.30862" lon="6.16037">
        <ele>2380.3999023438</ele>
        <time>2020-02-08T10:48:15.000Z</time>
      </trkpt>
      <trkpt lat="45.30861" lon="6.16035">
        <ele>2380.6000976562</ele>
        <time>2020-02-08T10:48:17.000Z</time>
      </trkpt>
      <trkpt lat="45.3086" lon="6.16031">
        <ele>2381</ele>
        <time>2020-02-08T10:48:20.000Z</time>
      </trkpt>
      <trkpt lat="45.3086" lon="6.1603">
        <ele>2381.1999511719</ele>
        <time>2020-02-08T10:48:21.000Z</time>
      </trkpt>
      <trkpt lat="45.3086" lon="6.16025">
        <ele>2381.8000488281</ele>
        <time>2020-02-08T10:48:25.000Z</time>
      </trkpt>
      <trkpt lat="45.30859" lon="6.16019">
        <ele>2382</ele>
        <time>2020-02-08T10:48:30.000Z</time>
      </trkpt>
      <trkpt lat="45.30858" lon="6.16018">
        <ele>2382.1999511719</ele>
        <time>2020-02-08T10:48:31.000Z</time>
      </trkpt>
      <trkpt lat="45.30857" lon="6.16016">
        <ele>2382.6000976562</ele>
        <time>2020-02-08T10:48:34.000Z</time>
      </trkpt>
      <trkpt lat="45.30856" lon="6.16012">
        <ele>2383</ele>
        <time>2020-02-08T10:48:38.000Z</time>
      </trkpt>
      <trkpt lat="45.30855" lon="6.1601">
        <ele>2383.3999023438</ele>
        <time>2020-02-08T10:48:40.000Z</time>
      </trkpt>
      <trkpt lat="45.30853" lon="6.16004">
        <ele>2384</ele>
        <time>2020-02-08T10:48:46.000Z</time>
      </trkpt>
      <trkpt lat="45.30851" lon="6.16">
        <ele>2384.6000976562</ele>
        <time>2020-02-08T10:48:49.000Z</time>
      </trkpt>
      <trkpt lat="45.30851" lon="6.15997">
        <ele>2384.8000488281</ele>
        <time>2020-02-08T10:48:51.000Z</time>
      </trkpt>
      <trkpt lat="45.30851" lon="6.15996">
        <ele>2384.8000488281</ele>
        <time>2020-02-08T10:48:52.000Z</time>
      </trkpt>
      <trkpt lat="45.30849" lon="6.15993">
        <ele>2385</ele>
        <time>2020-02-08T10:48:56.000Z</time>
      </trkpt>
      <trkpt lat="45.30848" lon="6.15988">
        <ele>2386</ele>
        <time>2020-02-08T10:49:00.000Z</time>
      </trkpt>
      <trkpt lat="45.30847" lon="6.15986">
        <ele>2386.1999511719</ele>
        <time>2020-02-08T10:49:01.000Z</time>
      </trkpt>
      <trkpt lat="45.30846" lon="6.15982">
        <ele>2386.6000976562</ele>
        <time>2020-02-08T10:49:06.000Z</time>
      </trkpt>
      <trkpt lat="45.30846" lon="6.15982">
        <ele>2387</ele>
        <time>2020-02-08T10:49:07.000Z</time>
      </trkpt>
      <trkpt lat="45.30843" lon="6.15978">
        <ele>2387.6000976562</ele>
        <time>2020-02-08T10:49:11.000Z</time>
      </trkpt>
      <trkpt lat="45.30842" lon="6.15973">
        <ele>2388</ele>
        <time>2020-02-08T10:49:15.000Z</time>
      </trkpt>
      <trkpt lat="45.3084" lon="6.15967">
        <ele>2389.1999511719</ele>
        <time>2020-02-08T10:49:20.000Z</time>
      </trkpt>
      <trkpt lat="45.30838" lon="6.15964">
        <ele>2390</ele>
        <time>2020-02-08T10:49:25.000Z</time>
      </trkpt>
      <trkpt lat="45.30837" lon="6.15962">
        <ele>2390.1999511719</ele>
        <time>2020-02-08T10:49:27.000Z</time>
      </trkpt>
      <trkpt lat="45.30837" lon="6.15961">
        <ele>2391</ele>
        <time>2020-02-08T10:49:31.000Z</time>
      </trkpt>
      <trkpt lat="45.30835" lon="6.15958">
        <ele>2391.3999023438</ele>
        <time>2020-02-08T10:49:34.000Z</time>
      </trkpt>
      <trkpt lat="45.30835" lon="6.15958">
        <ele>2391.6000976562</ele>
        <time>2020-02-08T10:49:35.000Z</time>
      </trkpt>
      <trkpt lat="45.30833" lon="6.15956">
        <ele>2392.1999511719</ele>
        <time>2020-02-08T10:49:39.000Z</time>
      </trkpt>
      <trkpt lat="45.30832" lon="6.15955">
        <ele>2392.3999023438</ele>
        <time>2020-02-08T10:49:40.000Z</time>
      </trkpt>
      <trkpt lat="45.3083" lon="6.15952">
        <ele>2393.3999023438</ele>
        <time>2020-02-08T10:49:43.000Z</time>
      </trkpt>
      <trkpt lat="45.3083" lon="6.15951">
        <ele>2393.8000488281</ele>
        <time>2020-02-08T10:49:44.000Z</time>
      </trkpt>
      <trkpt lat="45.30829" lon="6.1595">
        <ele>2394.8000488281</ele>
        <time>2020-02-08T10:49:49.000Z</time>
      </trkpt>
      <trkpt lat="45.30829" lon="6.1595">
        <ele>2394.8000488281</ele>
        <time>2020-02-08T10:49:50.000Z</time>
      </trkpt>
      <trkpt lat="45.30825" lon="6.15944">
        <ele>2395.6000976562</ele>
        <time>2020-02-08T10:49:55.000Z</time>
      </trkpt>
      <trkpt lat="45.30824" lon="6.15943">
        <ele>2395.8000488281</ele>
        <time>2020-02-08T10:49:57.000Z</time>
      </trkpt>
      <trkpt lat="45.30823" lon="6.15941">
        <ele>2396.1999511719</ele>
        <time>2020-02-08T10:49:59.000Z</time>
      </trkpt>
      <trkpt lat="45.3082" lon="6.15937">
        <ele>2397</ele>
        <time>2020-02-08T10:50:04.000Z</time>
      </trkpt>
      <trkpt lat="45.30818" lon="6.15932">
        <ele>2397.8000488281</ele>
        <time>2020-02-08T10:50:10.000Z</time>
      </trkpt>
      <trkpt lat="45.30817" lon="6.15929">
        <ele>2398.1999511719</ele>
        <time>2020-02-08T10:50:12.000Z</time>
      </trkpt>
      <trkpt lat="45.30816" lon="6.15927">
        <ele>2398.1999511719</ele>
        <time>2020-02-08T10:50:14.000Z</time>
      </trkpt>
      <trkpt lat="45.30814" lon="6.15923">
        <ele>2398.6000976562</ele>
        <time>2020-02-08T10:50:19.000Z</time>
      </trkpt>
      <trkpt lat="45.30812" lon="6.15916">
        <ele>2399</ele>
        <time>2020-02-08T10:50:24.000Z</time>
      </trkpt>
      <trkpt lat="45.30811" lon="6.15915">
        <ele>2399.1999511719</ele>
        <time>2020-02-08T10:50:25.000Z</time>
      </trkpt>
      <trkpt lat="45.3081" lon="6.15912">
        <ele>2399.6000976562</ele>
        <time>2020-02-08T10:50:30.000Z</time>
      </trkpt>
      <trkpt lat="45.30808" lon="6.15907">
        <ele>2400</ele>
        <time>2020-02-08T10:50:35.000Z</time>
      </trkpt>
      <trkpt lat="45.30808" lon="6.15906">
        <ele>2400.3999023438</ele>
        <time>2020-02-08T10:50:36.000Z</time>
      </trkpt>
      <trkpt lat="45.30808" lon="6.15905">
        <ele>2400.6000976562</ele>
        <time>2020-02-08T10:50:38.000Z</time>
      </trkpt>
      <trkpt lat="45.30808" lon="6.15903">
        <ele>2400.8000488281</ele>
        <time>2020-02-08T10:50:40.000Z</time>
      </trkpt>
      <trkpt lat="45.30806" lon="6.159">
        <ele>2401.3999023438</ele>
        <time>2020-02-08T10:50:45.000Z</time>
      </trkpt>
      <trkpt lat="45.30805" lon="6.15899">
        <ele>2401.3999023438</ele>
        <time>2020-02-08T10:50:46.000Z</time>
      </trkpt>
      <trkpt lat="45.30802" lon="6.15894">
        <ele>2402.3999023438</ele>
        <time>2020-02-08T10:50:52.000Z</time>
      </trkpt>
      <trkpt lat="45.308" lon="6.15891">
        <ele>2403</ele>
        <time>2020-02-08T10:50:56.000Z</time>
      </trkpt>
      <trkpt lat="45.30799" lon="6.15889">
        <ele>2403.6000976562</ele>
        <time>2020-02-08T10:51:00.000Z</time>
      </trkpt>
      <trkpt lat="45.30799" lon="6.15888">
        <ele>2403.6000976562</ele>
        <time>2020-02-08T10:51:01.000Z</time>
      </trkpt>
      <trkpt lat="45.30796" lon="6.15883">
        <ele>2404.3999023438</ele>
        <time>2020-02-08T10:51:06.000Z</time>
      </trkpt>
      <trkpt lat="45.30795" lon="6.15883">
        <ele>2404.6000976562</ele>
        <time>2020-02-08T10:51:07.000Z</time>
      </trkpt>
      <trkpt lat="45.30795" lon="6.15883">
        <ele>2405.3999023438</ele>
        <time>2020-02-08T10:51:13.000Z</time>
      </trkpt>
      <trkpt lat="45.30793" lon="6.15877">
        <ele>2405.1999511719</ele>
        <time>2020-02-08T10:51:17.000Z</time>
      </trkpt>
      <trkpt lat="45.3079" lon="6.15873">
        <ele>2405.8000488281</ele>
        <time>2020-02-08T10:51:22.000Z</time>
      </trkpt>
      <trkpt lat="45.30789" lon="6.15872">
        <ele>2406.1999511719</ele>
        <time>2020-02-08T10:51:23.000Z</time>
      </trkpt>
      <trkpt lat="45.30788" lon="6.15869">
        <ele>2407</ele>
        <time>2020-02-08T10:51:26.000Z</time>
      </trkpt>
      <trkpt lat="45.30787" lon="6.15868">
        <ele>2407.1999511719</ele>
        <time>2020-02-08T10:51:27.000Z</time>
      </trkpt>
      <trkpt lat="45.30784" lon="6.15863">
        <ele>2408</ele>
        <time>2020-02-08T10:51:32.000Z</time>
      </trkpt>
      <trkpt lat="45.30784" lon="6.15862">
        <ele>2408.1999511719</ele>
        <time>2020-02-08T10:51:33.000Z</time>
      </trkpt>
      <trkpt lat="45.30779" lon="6.1586">
        <ele>2408.8000488281</ele>
        <time>2020-02-08T10:51:38.000Z</time>
      </trkpt>
      <trkpt lat="45.30776" lon="6.15857">
        <ele>2409.1999511719</ele>
        <time>2020-02-08T10:51:42.000Z</time>
      </trkpt>
      <trkpt lat="45.30775" lon="6.15857">
        <ele>2409.3999023438</ele>
        <time>2020-02-08T10:51:43.000Z</time>
      </trkpt>
      <trkpt lat="45.3077" lon="6.15854">
        <ele>2410</ele>
        <time>2020-02-08T10:51:49.000Z</time>
      </trkpt>
      <trkpt lat="45.30768" lon="6.15851">
        <ele>2410.1999511719</ele>
        <time>2020-02-08T10:51:52.000Z</time>
      </trkpt>
      <trkpt lat="45.30771" lon="6.15851">
        <ele>2410.6000976562</ele>
        <time>2020-02-08T10:51:54.000Z</time>
      </trkpt>
      <trkpt lat="45.30772" lon="6.15849">
        <ele>2411.3999023438</ele>
        <time>2020-02-08T10:51:58.000Z</time>
      </trkpt>
      <trkpt lat="45.30772" lon="6.15848">
        <ele>2411.6000976562</ele>
        <time>2020-02-08T10:51:59.000Z</time>
      </trkpt>
      <trkpt lat="45.30771" lon="6.15844">
        <ele>2412</ele>
        <time>2020-02-08T10:52:03.000Z</time>
      </trkpt>
      <trkpt lat="45.3077" lon="6.15843">
        <ele>2412.3999023438</ele>
        <time>2020-02-08T10:52:08.000Z</time>
      </trkpt>
      <trkpt lat="45.30769" lon="6.15842">
        <ele>2412.8000488281</ele>
        <time>2020-02-08T10:52:20.000Z</time>
      </trkpt>
      <trkpt lat="45.30765" lon="6.15834">
        <ele>2412.8000488281</ele>
        <time>2020-02-08T10:52:26.000Z</time>
      </trkpt>
      <trkpt lat="45.30765" lon="6.15831">
        <ele>2413.3999023438</ele>
        <time>2020-02-08T10:52:30.000Z</time>
      </trkpt>
      <trkpt lat="45.30765" lon="6.15829">
        <ele>2413.6000976562</ele>
        <time>2020-02-08T10:52:31.000Z</time>
      </trkpt>
      <trkpt lat="45.30764" lon="6.15825">
        <ele>2413.8000488281</ele>
        <time>2020-02-08T10:52:37.000Z</time>
      </trkpt>
      <trkpt lat="45.30772" lon="6.1582">
        <ele>2413.8000488281</ele>
        <time>2020-02-08T10:52:42.000Z</time>
      </trkpt>
      <trkpt lat="45.30778" lon="6.15818">
        <ele>2414.6000976562</ele>
        <time>2020-02-08T10:52:46.000Z</time>
      </trkpt>
      <trkpt lat="45.30784" lon="6.15817">
        <ele>2414.8000488281</ele>
        <time>2020-02-08T10:52:51.000Z</time>
      </trkpt>
      <trkpt lat="45.3079" lon="6.15812">
        <ele>2415.1999511719</ele>
        <time>2020-02-08T10:52:56.000Z</time>
      </trkpt>
      <trkpt lat="45.30796" lon="6.15809">
        <ele>2415.6000976562</ele>
        <time>2020-02-08T10:53:01.000Z</time>
      </trkpt>
      <trkpt lat="45.30799" lon="6.15804">
        <ele>2416.1999511719</ele>
        <time>2020-02-08T10:53:06.000Z</time>
      </trkpt>
      <trkpt lat="45.30798" lon="6.15801">
        <ele>2416.6000976562</ele>
        <time>2020-02-08T10:53:10.000Z</time>
      </trkpt>
      <trkpt lat="45.30795" lon="6.15799">
        <ele>2417</ele>
        <time>2020-02-08T10:53:12.000Z</time>
      </trkpt>
      <trkpt lat="45.30795" lon="6.15795">
        <ele>2417.8000488281</ele>
        <time>2020-02-08T10:53:18.000Z</time>
      </trkpt>
      <trkpt lat="45.30796" lon="6.15793">
        <ele>2418.6000976562</ele>
        <time>2020-02-08T10:53:22.000Z</time>
      </trkpt>
      <trkpt lat="45.30796" lon="6.15793">
        <ele>2418.8000488281</ele>
        <time>2020-02-08T10:53:23.000Z</time>
      </trkpt>
      <trkpt lat="45.30796" lon="6.15793">
        <ele>2419.3999023438</ele>
        <time>2020-02-08T10:53:37.000Z</time>
      </trkpt>
      <trkpt lat="45.30794" lon="6.1579">
        <ele>2419.1999511719</ele>
        <time>2020-02-08T10:53:41.000Z</time>
      </trkpt>
      <trkpt lat="45.3079" lon="6.15785">
        <ele>2420</ele>
        <time>2020-02-08T10:53:45.000Z</time>
      </trkpt>
      <trkpt lat="45.30789" lon="6.15784">
        <ele>2420.1999511719</ele>
        <time>2020-02-08T10:53:46.000Z</time>
      </trkpt>
      <trkpt lat="45.3078" lon="6.15781">
        <ele>2421.1999511719</ele>
        <time>2020-02-08T10:53:51.000Z</time>
      </trkpt>
      <trkpt lat="45.30783" lon="6.15778">
        <ele>2421.6000976562</ele>
        <time>2020-02-08T10:54:04.000Z</time>
      </trkpt>
      <trkpt lat="45.30783" lon="6.15775">
        <ele>2421.6000976562</ele>
        <time>2020-02-08T10:54:12.000Z</time>
      </trkpt>
      <trkpt lat="45.30781" lon="6.15772">
        <ele>2422.3999023438</ele>
        <time>2020-02-08T10:54:17.000Z</time>
      </trkpt>
      <trkpt lat="45.3078" lon="6.15771">
        <ele>2422.3999023438</ele>
        <time>2020-02-08T10:54:18.000Z</time>
      </trkpt>
      <trkpt lat="45.30776" lon="6.15766">
        <ele>2423.6000976562</ele>
        <time>2020-02-08T10:54:24.000Z</time>
      </trkpt>
      <trkpt lat="45.30775" lon="6.15764">
        <ele>2424.6000976562</ele>
        <time>2020-02-08T10:54:28.000Z</time>
      </trkpt>
      <trkpt lat="45.30777" lon="6.15762">
        <ele>2425</ele>
        <time>2020-02-08T10:54:30.000Z</time>
      </trkpt>
      <trkpt lat="45.30783" lon="6.15759">
        <ele>2425.8000488281</ele>
        <time>2020-02-08T10:54:34.000Z</time>
      </trkpt>
      <trkpt lat="45.30783" lon="6.15758">
        <ele>2426</ele>
        <time>2020-02-08T10:54:35.000Z</time>
      </trkpt>
      <trkpt lat="45.30782" lon="6.15757">
        <ele>2427</ele>
        <time>2020-02-08T10:54:39.000Z</time>
      </trkpt>
      <trkpt lat="45.30782" lon="6.15757">
        <ele>2427.3999023438</ele>
        <time>2020-02-08T10:54:41.000Z</time>
      </trkpt>
      <trkpt lat="45.30782" lon="6.15757">
        <ele>2428</ele>
        <time>2020-02-08T10:54:44.000Z</time>
      </trkpt>
      <trkpt lat="45.30782" lon="6.15756">
        <ele>2428.3999023438</ele>
        <time>2020-02-08T10:54:47.000Z</time>
      </trkpt>
      <trkpt lat="45.30782" lon="6.15756">
        <ele>2429.1999511719</ele>
        <time>2020-02-08T10:54:50.000Z</time>
      </trkpt>
      <trkpt lat="45.30782" lon="6.15756">
        <ele>2430.1999511719</ele>
        <time>2020-02-08T10:54:56.000Z</time>
      </trkpt>
      <trkpt lat="45.30782" lon="6.15756">
        <ele>2430.1999511719</ele>
        <time>2020-02-08T10:54:57.000Z</time>
      </trkpt>
      <trkpt lat="45.30782" lon="6.15756">
        <ele>2431.1999511719</ele>
        <time>2020-02-08T10:55:02.000Z</time>
      </trkpt>
      <trkpt lat="45.30781" lon="6.15756">
        <ele>2432</ele>
        <time>2020-02-08T10:55:06.000Z</time>
      </trkpt>
      <trkpt lat="45.30781" lon="6.15756">
        <ele>2432.3999023438</ele>
        <time>2020-02-08T10:55:08.000Z</time>
      </trkpt>
      <trkpt lat="45.30781" lon="6.15756">
        <ele>2433.1999511719</ele>
        <time>2020-02-08T10:55:13.000Z</time>
      </trkpt>
      <trkpt lat="45.30781" lon="6.15756">
        <ele>2433.6000976562</ele>
        <time>2020-02-08T10:55:15.000Z</time>
      </trkpt>
      <trkpt lat="45.30781" lon="6.15756">
        <ele>2434.3999023438</ele>
        <time>2020-02-08T10:55:20.000Z</time>
      </trkpt>
      <trkpt lat="45.3078" lon="6.15755">
        <ele>2434.8000488281</ele>
        <time>2020-02-08T10:55:22.000Z</time>
      </trkpt>
      <trkpt lat="45.30778" lon="6.15753">
        <ele>2435.8000488281</ele>
        <time>2020-02-08T10:55:26.000Z</time>
      </trkpt>
      <trkpt lat="45.30777" lon="6.15752">
        <ele>2436</ele>
        <time>2020-02-08T10:55:27.000Z</time>
      </trkpt>
      <trkpt lat="45.30775" lon="6.15752">
        <ele>2436.8000488281</ele>
        <time>2020-02-08T10:55:33.000Z</time>
      </trkpt>
      <trkpt lat="45.30775" lon="6.15752">
        <ele>2437</ele>
        <time>2020-02-08T10:55:34.000Z</time>
      </trkpt>
      <trkpt lat="45.30766" lon="6.15753">
        <ele>2437.8000488281</ele>
        <time>2020-02-08T10:55:39.000Z</time>
      </trkpt>
      <trkpt lat="45.30763" lon="6.15753">
        <ele>2438</ele>
        <time>2020-02-08T10:55:47.000Z</time>
      </trkpt>
      <trkpt lat="45.30763" lon="6.15753">
        <ele>2438.1999511719</ele>
        <time>2020-02-08T10:55:50.000Z</time>
      </trkpt>
      <trkpt lat="45.30763" lon="6.15753">
        <ele>2438.6000976562</ele>
        <time>2020-02-08T10:55:53.000Z</time>
      </trkpt>
      <trkpt lat="45.30763" lon="6.15753">
        <ele>2439</ele>
        <time>2020-02-08T10:55:55.000Z</time>
      </trkpt>
      <trkpt lat="45.30763" lon="6.15753">
        <ele>2440</ele>
        <time>2020-02-08T10:56:00.000Z</time>
      </trkpt>
      <trkpt lat="45.30763" lon="6.15753">
        <ele>2440.8000488281</ele>
        <time>2020-02-08T10:56:03.000Z</time>
      </trkpt>
      <trkpt lat="45.30763" lon="6.15753">
        <ele>2441.1999511719</ele>
        <time>2020-02-08T10:56:05.000Z</time>
      </trkpt>
      <trkpt lat="45.30763" lon="6.15753">
        <ele>2442.1999511719</ele>
        <time>2020-02-08T10:56:10.000Z</time>
      </trkpt>
      <trkpt lat="45.30763" lon="6.15753">
        <ele>2442.3999023438</ele>
        <time>2020-02-08T10:56:11.000Z</time>
      </trkpt>
      <trkpt lat="45.30762" lon="6.15751">
        <ele>2443.1999511719</ele>
        <time>2020-02-08T10:56:17.000Z</time>
      </trkpt>
      <trkpt lat="45.30762" lon="6.15751">
        <ele>2443.3999023438</ele>
        <time>2020-02-08T10:56:18.000Z</time>
      </trkpt>
      <trkpt lat="45.30759" lon="6.15747">
        <ele>2444.1999511719</ele>
        <time>2020-02-08T10:56:23.000Z</time>
      </trkpt>
      <trkpt lat="45.30759" lon="6.15747">
        <ele>2444.3999023438</ele>
        <time>2020-02-08T10:56:24.000Z</time>
      </trkpt>
      <trkpt lat="45.30759" lon="6.15747">
        <ele>2445.3999023438</ele>
        <time>2020-02-08T10:56:29.000Z</time>
      </trkpt>
      <trkpt lat="45.30759" lon="6.15747">
        <ele>2446.3999023438</ele>
        <time>2020-02-08T10:56:33.000Z</time>
      </trkpt>
      <trkpt lat="45.30759" lon="6.15747">
        <ele>2446.1999511719</ele>
        <time>2020-02-08T10:56:42.000Z</time>
      </trkpt>
      <trkpt lat="45.30751" lon="6.15745">
        <ele>2447.6000976562</ele>
        <time>2020-02-08T10:56:47.000Z</time>
      </trkpt>
      <trkpt lat="45.30748" lon="6.15744">
        <ele>2447.8000488281</ele>
        <time>2020-02-08T10:56:48.000Z</time>
      </trkpt>
      <trkpt lat="45.3074" lon="6.15741">
        <ele>2448.8000488281</ele>
        <time>2020-02-08T10:56:52.000Z</time>
      </trkpt>
      <trkpt lat="45.3074" lon="6.15741">
        <ele>2449</ele>
        <time>2020-02-08T10:56:54.000Z</time>
      </trkpt>
      <trkpt lat="45.30738" lon="6.1574">
        <ele>2449.8000488281</ele>
        <time>2020-02-08T10:56:59.000Z</time>
      </trkpt>
      <trkpt lat="45.30738" lon="6.1574">
        <ele>2450.6000976562</ele>
        <time>2020-02-08T10:57:01.000Z</time>
      </trkpt>
      <trkpt lat="45.30735" lon="6.15738">
        <ele>2451</ele>
        <time>2020-02-08T10:57:03.000Z</time>
      </trkpt>
      <trkpt lat="45.3073" lon="6.15736">
        <ele>2451.3999023438</ele>
        <time>2020-02-08T10:57:07.000Z</time>
      </trkpt>
      <trkpt lat="45.30721" lon="6.15733">
        <ele>2452</ele>
        <time>2020-02-08T10:57:12.000Z</time>
      </trkpt>
      <trkpt lat="45.30717" lon="6.15732">
        <ele>2452.3999023438</ele>
        <time>2020-02-08T10:57:14.000Z</time>
      </trkpt>
      <trkpt lat="45.30716" lon="6.15732">
        <ele>2453.1999511719</ele>
        <time>2020-02-08T10:57:20.000Z</time>
      </trkpt>
      <trkpt lat="45.30714" lon="6.15731">
        <ele>2453.6000976562</ele>
        <time>2020-02-08T10:57:22.000Z</time>
      </trkpt>
      <trkpt lat="45.30711" lon="6.15731">
        <ele>2454.1999511719</ele>
        <time>2020-02-08T10:57:25.000Z</time>
      </trkpt>
      <trkpt lat="45.30703" lon="6.1573">
        <ele>2455</ele>
        <time>2020-02-08T10:57:30.000Z</time>
      </trkpt>
      <trkpt lat="45.30703" lon="6.1573">
        <ele>2455</ele>
        <time>2020-02-08T10:57:31.000Z</time>
      </trkpt>
      <trkpt lat="45.30703" lon="6.1573">
        <ele>2455.1999511719</ele>
        <time>2020-02-08T10:57:35.000Z</time>
      </trkpt>
      <trkpt lat="45.30698" lon="6.15728">
        <ele>2456.1999511719</ele>
        <time>2020-02-08T10:57:41.000Z</time>
      </trkpt>
      <trkpt lat="45.30698" lon="6.15728">
        <ele>2456.1999511719</ele>
        <time>2020-02-08T10:57:42.000Z</time>
      </trkpt>
      <trkpt lat="45.30697" lon="6.15726">
        <ele>2457.1999511719</ele>
        <time>2020-02-08T10:57:49.000Z</time>
      </trkpt>
      <trkpt lat="45.30695" lon="6.15724">
        <ele>2457.1999511719</ele>
        <time>2020-02-08T10:57:51.000Z</time>
      </trkpt>
      <trkpt lat="45.30696" lon="6.15724">
        <ele>2457.1999511719</ele>
        <time>2020-02-08T10:57:53.000Z</time>
      </trkpt>
      <trkpt lat="45.30694" lon="6.15722">
        <ele>2457.8000488281</ele>
        <time>2020-02-08T10:57:57.000Z</time>
      </trkpt>
      <trkpt lat="45.30694" lon="6.15721">
        <ele>2458.1999511719</ele>
        <time>2020-02-08T10:58:01.000Z</time>
      </trkpt>
      <trkpt lat="45.30693" lon="6.15721">
        <ele>2458.3999023438</ele>
        <time>2020-02-08T10:58:02.000Z</time>
      </trkpt>
      <trkpt lat="45.3069" lon="6.15718">
        <ele>2458.8000488281</ele>
        <time>2020-02-08T10:58:05.000Z</time>
      </trkpt>
      <trkpt lat="45.30689" lon="6.15716">
        <ele>2459.3999023438</ele>
        <time>2020-02-08T10:58:09.000Z</time>
      </trkpt>
      <trkpt lat="45.30686" lon="6.15712">
        <ele>2460.6000976562</ele>
        <time>2020-02-08T10:58:13.000Z</time>
      </trkpt>
      <trkpt lat="45.30686" lon="6.15711">
        <ele>2461</ele>
        <time>2020-02-08T10:58:15.000Z</time>
      </trkpt>
      <trkpt lat="45.30686" lon="6.15709">
        <ele>2461.6000976562</ele>
        <time>2020-02-08T10:58:20.000Z</time>
      </trkpt>
      <trkpt lat="45.30686" lon="6.15706">
        <ele>2462.3999023438</ele>
        <time>2020-02-08T10:58:25.000Z</time>
      </trkpt>
      <trkpt lat="45.30687" lon="6.15704">
        <ele>2462.8000488281</ele>
        <time>2020-02-08T10:58:29.000Z</time>
      </trkpt>
      <trkpt lat="45.30687" lon="6.15703">
        <ele>2462.8000488281</ele>
        <time>2020-02-08T10:58:30.000Z</time>
      </trkpt>
      <trkpt lat="45.30687" lon="6.157">
        <ele>2464</ele>
        <time>2020-02-08T10:58:36.000Z</time>
      </trkpt>
      <trkpt lat="45.30687" lon="6.157">
        <ele>2464.6000976562</ele>
        <time>2020-02-08T10:58:50.000Z</time>
      </trkpt>
      <trkpt lat="45.30687" lon="6.157">
        <ele>2464.6000976562</ele>
        <time>2020-02-08T10:58:56.000Z</time>
      </trkpt>
      <trkpt lat="45.30687" lon="6.157">
        <ele>2465.1999511719</ele>
        <time>2020-02-08T10:58:58.000Z</time>
      </trkpt>
      <trkpt lat="45.30686" lon="6.15695">
        <ele>2465.8000488281</ele>
        <time>2020-02-08T10:59:01.000Z</time>
      </trkpt>
      <trkpt lat="45.30686" lon="6.15691">
        <ele>2466.1999511719</ele>
        <time>2020-02-08T10:59:04.000Z</time>
      </trkpt>
      <trkpt lat="45.30687" lon="6.15689">
        <ele>2466.6000976562</ele>
        <time>2020-02-08T10:59:07.000Z</time>
      </trkpt>
      <trkpt lat="45.30688" lon="6.15686">
        <ele>2467.1999511719</ele>
        <time>2020-02-08T10:59:11.000Z</time>
      </trkpt>
      <trkpt lat="45.30689" lon="6.15686">
        <ele>2467.1999511719</ele>
        <time>2020-02-08T10:59:12.000Z</time>
      </trkpt>
      <trkpt lat="45.3069" lon="6.15684">
        <ele>2467.8000488281</ele>
        <time>2020-02-08T10:59:16.000Z</time>
      </trkpt>
      <trkpt lat="45.30691" lon="6.15681">
        <ele>2468.3999023438</ele>
        <time>2020-02-08T10:59:21.000Z</time>
      </trkpt>
      <trkpt lat="45.30692" lon="6.15679">
        <ele>2469.1999511719</ele>
        <time>2020-02-08T10:59:25.000Z</time>
      </trkpt>
      <trkpt lat="45.30693" lon="6.15678">
        <ele>2469.6000976562</ele>
        <time>2020-02-08T10:59:26.000Z</time>
      </trkpt>
      <trkpt lat="45.30695" lon="6.15677">
        <ele>2470</ele>
        <time>2020-02-08T10:59:29.000Z</time>
      </trkpt>
      <trkpt lat="45.30695" lon="6.15674">
        <ele>2470.1999511719</ele>
        <time>2020-02-08T10:59:33.000Z</time>
      </trkpt>
      <trkpt lat="45.30696" lon="6.15672">
        <ele>2470.6000976562</ele>
        <time>2020-02-08T10:59:36.000Z</time>
      </trkpt>
      <trkpt lat="45.30698" lon="6.15671">
        <ele>2471</ele>
        <time>2020-02-08T10:59:38.000Z</time>
      </trkpt>
      <trkpt lat="45.30698" lon="6.15666">
        <ele>2471.6000976562</ele>
        <time>2020-02-08T10:59:42.000Z</time>
      </trkpt>
      <trkpt lat="45.30698" lon="6.15666">
        <ele>2471.8000488281</ele>
        <time>2020-02-08T10:59:43.000Z</time>
      </trkpt>
      <trkpt lat="45.307" lon="6.15663">
        <ele>2473.1999511719</ele>
        <time>2020-02-08T10:59:48.000Z</time>
      </trkpt>
      <trkpt lat="45.30702" lon="6.15659">
        <ele>2473.8000488281</ele>
        <time>2020-02-08T10:59:55.000Z</time>
      </trkpt>
      <trkpt lat="45.30702" lon="6.15659">
        <ele>2474.1999511719</ele>
        <time>2020-02-08T10:59:57.000Z</time>
      </trkpt>
      <trkpt lat="45.30703" lon="6.15658">
        <ele>2474.6000976562</ele>
        <time>2020-02-08T10:59:59.000Z</time>
      </trkpt>
      <trkpt lat="45.30703" lon="6.15658">
        <ele>2475.1999511719</ele>
        <time>2020-02-08T11:00:02.000Z</time>
      </trkpt>
      <trkpt lat="45.30703" lon="6.15658">
        <ele>2475.1999511719</ele>
        <time>2020-02-08T11:00:03.000Z</time>
      </trkpt>
      <trkpt lat="45.30704" lon="6.15655">
        <ele>2475.8000488281</ele>
        <time>2020-02-08T11:00:08.000Z</time>
      </trkpt>
      <trkpt lat="45.30704" lon="6.15655">
        <ele>2476.3999023438</ele>
        <time>2020-02-08T11:00:11.000Z</time>
      </trkpt>
      <trkpt lat="45.30704" lon="6.15655">
        <ele>2476.8000488281</ele>
        <time>2020-02-08T11:00:19.000Z</time>
      </trkpt>
      <trkpt lat="45.30704" lon="6.15655">
        <ele>2476.6000976562</ele>
        <time>2020-02-08T11:00:25.000Z</time>
      </trkpt>
      <trkpt lat="45.30704" lon="6.15655">
        <ele>2477.3999023438</ele>
        <time>2020-02-08T11:00:29.000Z</time>
      </trkpt>
      <trkpt lat="45.30703" lon="6.15652">
        <ele>2477.6000976562</ele>
        <time>2020-02-08T11:00:34.000Z</time>
      </trkpt>
      <trkpt lat="45.30703" lon="6.15651">
        <ele>2478.3999023438</ele>
        <time>2020-02-08T11:00:37.000Z</time>
      </trkpt>
      <trkpt lat="45.30701" lon="6.15649">
        <ele>2479.3999023438</ele>
        <time>2020-02-08T11:00:42.000Z</time>
      </trkpt>
      <trkpt lat="45.30701" lon="6.15649">
        <ele>2479.6000976562</ele>
        <time>2020-02-08T11:00:43.000Z</time>
      </trkpt>
      <trkpt lat="45.30698" lon="6.15646">
        <ele>2480.3999023438</ele>
        <time>2020-02-08T11:00:50.000Z</time>
      </trkpt>
      <trkpt lat="45.30698" lon="6.15646">
        <ele>2480.6000976562</ele>
        <time>2020-02-08T11:00:51.000Z</time>
      </trkpt>
      <trkpt lat="45.30697" lon="6.15644">
        <ele>2481.6000976562</ele>
        <time>2020-02-08T11:00:57.000Z</time>
      </trkpt>
      <trkpt lat="45.30695" lon="6.15643">
        <ele>2482.8000488281</ele>
        <time>2020-02-08T11:01:02.000Z</time>
      </trkpt>
      <trkpt lat="45.30692" lon="6.15642">
        <ele>2483.1999511719</ele>
        <time>2020-02-08T11:01:04.000Z</time>
      </trkpt>
      <trkpt lat="45.30689" lon="6.1564">
        <ele>2484</ele>
        <time>2020-02-08T11:01:10.000Z</time>
      </trkpt>
      <trkpt lat="45.30689" lon="6.1564">
        <ele>2484.3999023438</ele>
        <time>2020-02-08T11:01:11.000Z</time>
      </trkpt>
      <trkpt lat="45.30689" lon="6.1564">
        <ele>2485.1999511719</ele>
        <time>2020-02-08T11:01:17.000Z</time>
      </trkpt>
      <trkpt lat="45.30689" lon="6.1564">
        <ele>2485.6000976562</ele>
        <time>2020-02-08T11:01:22.000Z</time>
      </trkpt>
      <trkpt lat="45.30689" lon="6.1564">
        <ele>2486</ele>
        <time>2020-02-08T11:01:29.000Z</time>
      </trkpt>
      <trkpt lat="45.30688" lon="6.1564">
        <ele>2486.1999511719</ele>
        <time>2020-02-08T11:01:30.000Z</time>
      </trkpt>
      <trkpt lat="45.30688" lon="6.1564">
        <ele>2487</ele>
        <time>2020-02-08T11:01:35.000Z</time>
      </trkpt>
      <trkpt lat="45.30688" lon="6.1564">
        <ele>2487.3999023438</ele>
        <time>2020-02-08T11:01:36.000Z</time>
      </trkpt>
      <trkpt lat="45.30688" lon="6.1564">
        <ele>2488.3999023438</ele>
        <time>2020-02-08T11:01:41.000Z</time>
      </trkpt>
      <trkpt lat="45.30688" lon="6.1564">
        <ele>2489.1999511719</ele>
        <time>2020-02-08T11:01:45.000Z</time>
      </trkpt>
      <trkpt lat="45.30688" lon="6.1564">
        <ele>2489.6000976562</ele>
        <time>2020-02-08T11:01:48.000Z</time>
      </trkpt>
      <trkpt lat="45.30688" lon="6.1564">
        <ele>2490.8000488281</ele>
        <time>2020-02-08T11:01:52.000Z</time>
      </trkpt>
      <trkpt lat="45.30688" lon="6.1564">
        <ele>2491</ele>
        <time>2020-02-08T11:01:54.000Z</time>
      </trkpt>
      <trkpt lat="45.30686" lon="6.1564">
        <ele>2491.8000488281</ele>
        <time>2020-02-08T11:01:57.000Z</time>
      </trkpt>
      <trkpt lat="45.30682" lon="6.1564">
        <ele>2492.3999023438</ele>
        <time>2020-02-08T11:02:02.000Z</time>
      </trkpt>
      <trkpt lat="45.30678" lon="6.1564">
        <ele>2492.8000488281</ele>
        <time>2020-02-08T11:02:05.000Z</time>
      </trkpt>
      <trkpt lat="45.30678" lon="6.1564">
        <ele>2493.3999023438</ele>
        <time>2020-02-08T11:02:08.000Z</time>
      </trkpt>
      <trkpt lat="45.30671" lon="6.15639">
        <ele>2493.8000488281</ele>
        <time>2020-02-08T11:02:20.000Z</time>
      </trkpt>
      <trkpt lat="45.30668" lon="6.15639">
        <ele>2494</ele>
        <time>2020-02-08T11:02:22.000Z</time>
      </trkpt>
      <trkpt lat="45.3066" lon="6.15638">
        <ele>2495</ele>
        <time>2020-02-08T11:02:28.000Z</time>
      </trkpt>
      <trkpt lat="45.30659" lon="6.15638">
        <ele>2495.1999511719</ele>
        <time>2020-02-08T11:02:29.000Z</time>
      </trkpt>
      <trkpt lat="45.30653" lon="6.15638">
        <ele>2496.1999511719</ele>
        <time>2020-02-08T11:02:37.000Z</time>
      </trkpt>
      <trkpt lat="45.30653" lon="6.15638">
        <ele>2496.6000976562</ele>
        <time>2020-02-08T11:02:39.000Z</time>
      </trkpt>
      <trkpt lat="45.30653" lon="6.15638">
        <ele>2496.8000488281</ele>
        <time>2020-02-08T11:02:59.000Z</time>
      </trkpt>
      <trkpt lat="45.30653" lon="6.15638">
        <ele>2496.8000488281</ele>
        <time>2020-02-08T11:03:00.000Z</time>
      </trkpt>
      <trkpt lat="45.30653" lon="6.15638">
        <ele>2496.8000488281</ele>
        <time>2020-02-08T11:03:10.000Z</time>
      </trkpt>
      <trkpt lat="45.30651" lon="6.15638">
        <ele>2497.3999023438</ele>
        <time>2020-02-08T11:03:13.000Z</time>
      </trkpt>
      <trkpt lat="45.30647" lon="6.15637">
        <ele>2498</ele>
        <time>2020-02-08T11:03:19.000Z</time>
      </trkpt>
      <trkpt lat="45.30644" lon="6.15637">
        <ele>2497.8000488281</ele>
        <time>2020-02-08T11:03:26.000Z</time>
      </trkpt>
      <trkpt lat="45.30644" lon="6.15637">
        <ele>2498.3999023438</ele>
        <time>2020-02-08T11:03:28.000Z</time>
      </trkpt>
      <trkpt lat="45.30644" lon="6.15637">
        <ele>2499.6000976562</ele>
        <time>2020-02-08T11:03:31.000Z</time>
      </trkpt>
      <trkpt lat="45.30645" lon="6.15637">
        <ele>2499.3999023438</ele>
        <time>2020-02-08T11:03:34.000Z</time>
      </trkpt>
      <trkpt lat="45.30644" lon="6.15635">
        <ele>2498.8000488281</ele>
        <time>2020-02-08T11:03:39.000Z</time>
      </trkpt>
      <trkpt lat="45.30649" lon="6.15634">
        <ele>2499.6000976562</ele>
        <time>2020-02-08T11:03:45.000Z</time>
      </trkpt>
      <trkpt lat="45.3065" lon="6.15631">
        <ele>2500.6000976562</ele>
        <time>2020-02-08T11:03:51.000Z</time>
      </trkpt>
      <trkpt lat="45.3065" lon="6.15631">
        <ele>2500.6000976562</ele>
        <time>2020-02-08T11:03:52.000Z</time>
      </trkpt>
      <trkpt lat="45.3065" lon="6.1563">
        <ele>2501.1999511719</ele>
        <time>2020-02-08T11:03:56.000Z</time>
      </trkpt>
      <trkpt lat="45.3065" lon="6.15629">
        <ele>2501.8000488281</ele>
        <time>2020-02-08T11:03:59.000Z</time>
      </trkpt>
      <trkpt lat="45.30649" lon="6.15627">
        <ele>2502</ele>
        <time>2020-02-08T11:04:01.000Z</time>
      </trkpt>
      <trkpt lat="45.3065" lon="6.15626">
        <ele>2502.3999023438</ele>
        <time>2020-02-08T11:04:05.000Z</time>
      </trkpt>
      <trkpt lat="45.3065" lon="6.15625">
        <ele>2502.8000488281</ele>
        <time>2020-02-08T11:04:08.000Z</time>
      </trkpt>
      <trkpt lat="45.30651" lon="6.15624">
        <ele>2503.1999511719</ele>
        <time>2020-02-08T11:04:10.000Z</time>
      </trkpt>
      <trkpt lat="45.30651" lon="6.15624">
        <ele>2503.8000488281</ele>
        <time>2020-02-08T11:04:14.000Z</time>
      </trkpt>
      <trkpt lat="45.30651" lon="6.15624">
        <ele>2503.8000488281</ele>
        <time>2020-02-08T11:04:23.000Z</time>
      </trkpt>
      <trkpt lat="45.30651" lon="6.15622">
        <ele>2504.1999511719</ele>
        <time>2020-02-08T11:04:28.000Z</time>
      </trkpt>
      <trkpt lat="45.30651" lon="6.1562">
        <ele>2505</ele>
        <time>2020-02-08T11:04:32.000Z</time>
      </trkpt>
      <trkpt lat="45.30651" lon="6.15619">
        <ele>2505</ele>
        <time>2020-02-08T11:04:33.000Z</time>
      </trkpt>
      <trkpt lat="45.30653" lon="6.15617">
        <ele>2505.6000976562</ele>
        <time>2020-02-08T11:04:38.000Z</time>
      </trkpt>
      <trkpt lat="45.30653" lon="6.15616">
        <ele>2506</ele>
        <time>2020-02-08T11:04:40.000Z</time>
      </trkpt>
      <trkpt lat="45.30653" lon="6.15615">
        <ele>2506.3999023438</ele>
        <time>2020-02-08T11:04:43.000Z</time>
      </trkpt>
      <trkpt lat="45.30654" lon="6.15615">
        <ele>2507</ele>
        <time>2020-02-08T11:04:46.000Z</time>
      </trkpt>
      <trkpt lat="45.30657" lon="6.15613">
        <ele>2507.1999511719</ele>
        <time>2020-02-08T11:04:49.000Z</time>
      </trkpt>
      <trkpt lat="45.30666" lon="6.15607">
        <ele>2507.8000488281</ele>
        <time>2020-02-08T11:04:54.000Z</time>
      </trkpt>
      <trkpt lat="45.30666" lon="6.15607">
        <ele>2508.1999511719</ele>
        <time>2020-02-08T11:04:57.000Z</time>
      </trkpt>
      <trkpt lat="45.30666" lon="6.15607">
        <ele>2508.6000976562</ele>
        <time>2020-02-08T11:05:07.000Z</time>
      </trkpt>
      <trkpt lat="45.30666" lon="6.15607">
        <ele>2508.6000976562</ele>
        <time>2020-02-08T11:05:22.000Z</time>
      </trkpt>
      <trkpt lat="45.30666" lon="6.15607">
        <ele>2509.1999511719</ele>
        <time>2020-02-08T11:05:29.000Z</time>
      </trkpt>
      <trkpt lat="45.30665" lon="6.15606">
        <ele>2509.3999023438</ele>
        <time>2020-02-08T11:05:31.000Z</time>
      </trkpt>
      <trkpt lat="45.30665" lon="6.15606">
        <ele>2509.8000488281</ele>
        <time>2020-02-08T11:05:35.000Z</time>
      </trkpt>
      <trkpt lat="45.30664" lon="6.15605">
        <ele>2509.6000976562</ele>
        <time>2020-02-08T11:05:42.000Z</time>
      </trkpt>
      <trkpt lat="45.30662" lon="6.15604">
        <ele>2510.6000976562</ele>
        <time>2020-02-08T11:05:49.000Z</time>
      </trkpt>
      <trkpt lat="45.30655" lon="6.156">
        <ele>2511.3999023438</ele>
        <time>2020-02-08T11:05:56.000Z</time>
      </trkpt>
      <trkpt lat="45.30655" lon="6.156">
        <ele>2511.6000976562</ele>
        <time>2020-02-08T11:05:57.000Z</time>
      </trkpt>
      <trkpt lat="45.30651" lon="6.15598">
        <ele>2512.6000976562</ele>
        <time>2020-02-08T11:06:06.000Z</time>
      </trkpt>
      <trkpt lat="45.30645" lon="6.15597">
        <ele>2513.6000976562</ele>
        <time>2020-02-08T11:06:14.000Z</time>
      </trkpt>
      <trkpt lat="45.30645" lon="6.15597">
        <ele>2513.8000488281</ele>
        <time>2020-02-08T11:06:17.000Z</time>
      </trkpt>
      <trkpt lat="45.30644" lon="6.15597">
        <ele>2514.8000488281</ele>
        <time>2020-02-08T11:06:24.000Z</time>
      </trkpt>
      <trkpt lat="45.30644" lon="6.15597">
        <ele>2515</ele>
        <time>2020-02-08T11:06:25.000Z</time>
      </trkpt>
      <trkpt lat="45.30644" lon="6.15597">
        <ele>2515.6000976562</ele>
        <time>2020-02-08T11:06:36.000Z</time>
      </trkpt>
      <trkpt lat="45.30644" lon="6.15597">
        <ele>2515.1999511719</ele>
        <time>2020-02-08T11:06:49.000Z</time>
      </trkpt>
      <trkpt lat="45.30642" lon="6.15597">
        <ele>2515.8000488281</ele>
        <time>2020-02-08T11:06:53.000Z</time>
      </trkpt>
      <trkpt lat="45.3064" lon="6.15598">
        <ele>2516.6000976562</ele>
        <time>2020-02-08T11:06:58.000Z</time>
      </trkpt>
      <trkpt lat="45.30637" lon="6.15598">
        <ele>2517</ele>
        <time>2020-02-08T11:07:01.000Z</time>
      </trkpt>
      <trkpt lat="45.30636" lon="6.15598">
        <ele>2518.1999511719</ele>
        <time>2020-02-08T11:07:04.000Z</time>
      </trkpt>
      <trkpt lat="45.30636" lon="6.15598">
        <ele>2518.6000976562</ele>
        <time>2020-02-08T11:07:07.000Z</time>
      </trkpt>
      <trkpt lat="45.30633" lon="6.15597">
        <ele>2519.1999511719</ele>
        <time>2020-02-08T11:07:12.000Z</time>
      </trkpt>
      <trkpt lat="45.30633" lon="6.15597">
        <ele>2519.3999023438</ele>
        <time>2020-02-08T11:07:13.000Z</time>
      </trkpt>
      <trkpt lat="45.30631" lon="6.15598">
        <ele>2520</ele>
        <time>2020-02-08T11:07:16.000Z</time>
      </trkpt>
      <trkpt lat="45.30627" lon="6.15597">
        <ele>2520.1999511719</ele>
        <time>2020-02-08T11:07:23.000Z</time>
      </trkpt>
      <trkpt lat="45.30626" lon="6.15596">
        <ele>2520.6000976562</ele>
        <time>2020-02-08T11:07:24.000Z</time>
      </trkpt>
      <trkpt lat="45.30626" lon="6.15596">
        <ele>2522</ele>
        <time>2020-02-08T11:07:26.000Z</time>
      </trkpt>
      <trkpt lat="45.3063" lon="6.15596">
        <ele>2521.8000488281</ele>
        <time>2020-02-08T11:07:30.000Z</time>
      </trkpt>
      <trkpt lat="45.30633" lon="6.15597">
        <ele>2521.3999023438</ele>
        <time>2020-02-08T11:07:34.000Z</time>
      </trkpt>
      <trkpt lat="45.30636" lon="6.15595">
        <ele>2522.1999511719</ele>
        <time>2020-02-08T11:07:40.000Z</time>
      </trkpt>
      <trkpt lat="45.30637" lon="6.15593">
        <ele>2522.8000488281</ele>
        <time>2020-02-08T11:07:45.000Z</time>
      </trkpt>
      <trkpt lat="45.30638" lon="6.15593">
        <ele>2523</ele>
        <time>2020-02-08T11:07:47.000Z</time>
      </trkpt>
      <trkpt lat="45.30638" lon="6.15592">
        <ele>2523.1999511719</ele>
        <time>2020-02-08T11:07:49.000Z</time>
      </trkpt>
      <trkpt lat="45.30638" lon="6.15591">
        <ele>2524.1999511719</ele>
        <time>2020-02-08T11:07:53.000Z</time>
      </trkpt>
      <trkpt lat="45.30638" lon="6.15591">
        <ele>2524.3999023438</ele>
        <time>2020-02-08T11:07:55.000Z</time>
      </trkpt>
      <trkpt lat="45.3064" lon="6.15588">
        <ele>2525.1999511719</ele>
        <time>2020-02-08T11:08:00.000Z</time>
      </trkpt>
      <trkpt lat="45.30642" lon="6.15585">
        <ele>2525.8000488281</ele>
        <time>2020-02-08T11:08:05.000Z</time>
      </trkpt>
      <trkpt lat="45.30652" lon="6.15587">
        <ele>2526.1999511719</ele>
        <time>2020-02-08T11:08:07.000Z</time>
      </trkpt>
      <trkpt lat="45.30667" lon="6.15587">
        <ele>2526.1999511719</ele>
        <time>2020-02-08T11:08:19.000Z</time>
      </trkpt>
      <trkpt lat="45.30667" lon="6.15587">
        <ele>2526.1999511719</ele>
        <time>2020-02-08T11:08:33.000Z</time>
      </trkpt>
      <trkpt lat="45.30668" lon="6.15585">
        <ele>2526.6000976562</ele>
        <time>2020-02-08T11:08:40.000Z</time>
      </trkpt>
      <trkpt lat="45.30668" lon="6.15584">
        <ele>2527.1999511719</ele>
        <time>2020-02-08T11:08:46.000Z</time>
      </trkpt>
      <trkpt lat="45.30668" lon="6.15584">
        <ele>2527.1999511719</ele>
        <time>2020-02-08T11:08:56.000Z</time>
      </trkpt>
      <trkpt lat="45.30668" lon="6.15584">
        <ele>2527.1999511719</ele>
        <time>2020-02-08T11:09:05.000Z</time>
      </trkpt>
      <trkpt lat="45.30668" lon="6.15584">
        <ele>2528.3999023438</ele>
        <time>2020-02-08T11:09:10.000Z</time>
      </trkpt>
      <trkpt lat="45.30668" lon="6.15584">
        <ele>2528</ele>
        <time>2020-02-08T11:09:16.000Z</time>
      </trkpt>
      <trkpt lat="45.30668" lon="6.15584">
        <ele>2529</ele>
        <time>2020-02-08T11:09:25.000Z</time>
      </trkpt>
      <trkpt lat="45.30668" lon="6.15584">
        <ele>2529.6000976562</ele>
        <time>2020-02-08T11:09:29.000Z</time>
      </trkpt>
      <trkpt lat="45.30668" lon="6.15584">
        <ele>2530</ele>
        <time>2020-02-08T11:09:35.000Z</time>
      </trkpt>
      <trkpt lat="45.30663" lon="6.15583">
        <ele>2530</ele>
        <time>2020-02-08T11:09:45.000Z</time>
      </trkpt>
      <trkpt lat="45.30663" lon="6.15583">
        <ele>2530.6000976562</ele>
        <time>2020-02-08T11:09:48.000Z</time>
      </trkpt>
      <trkpt lat="45.30659" lon="6.15583">
        <ele>2531.6000976562</ele>
        <time>2020-02-08T11:09:53.000Z</time>
      </trkpt>
      <trkpt lat="45.30659" lon="6.15583">
        <ele>2531.6000976562</ele>
        <time>2020-02-08T11:09:54.000Z</time>
      </trkpt>
      <trkpt lat="45.30654" lon="6.15583">
        <ele>2532.1999511719</ele>
        <time>2020-02-08T11:09:59.000Z</time>
      </trkpt>
      <trkpt lat="45.30651" lon="6.15584">
        <ele>2532.6000976562</ele>
        <time>2020-02-08T11:10:02.000Z</time>
      </trkpt>
      <trkpt lat="45.30649" lon="6.15584">
        <ele>2533.6000976562</ele>
        <time>2020-02-08T11:10:06.000Z</time>
      </trkpt>
      <trkpt lat="45.30649" lon="6.15584">
        <ele>2533.6000976562</ele>
        <time>2020-02-08T11:10:07.000Z</time>
      </trkpt>
      <trkpt lat="45.30647" lon="6.15584">
        <ele>2534.6000976562</ele>
        <time>2020-02-08T11:10:14.000Z</time>
      </trkpt>
      <trkpt lat="45.30647" lon="6.15584">
        <ele>2533.8000488281</ele>
        <time>2020-02-08T11:10:23.000Z</time>
      </trkpt>
      <trkpt lat="45.30647" lon="6.15584">
        <ele>2534.8000488281</ele>
        <time>2020-02-08T11:10:26.000Z</time>
      </trkpt>
      <trkpt lat="45.30647" lon="6.15583">
        <ele>2535.8000488281</ele>
        <time>2020-02-08T11:10:28.000Z</time>
      </trkpt>
      <trkpt lat="45.30647" lon="6.15583">
        <ele>2536</ele>
        <time>2020-02-08T11:10:30.000Z</time>
      </trkpt>
      <trkpt lat="45.30647" lon="6.1558">
        <ele>2535.3999023438</ele>
        <time>2020-02-08T11:10:36.000Z</time>
      </trkpt>
      <trkpt lat="45.30648" lon="6.15579">
        <ele>2536.3999023438</ele>
        <time>2020-02-08T11:10:46.000Z</time>
      </trkpt>
      <trkpt lat="45.30648" lon="6.15578">
        <ele>2536.3999023438</ele>
        <time>2020-02-08T11:10:50.000Z</time>
      </trkpt>
      <trkpt lat="45.30649" lon="6.15576">
        <ele>2537</ele>
        <time>2020-02-08T11:10:53.000Z</time>
      </trkpt>
      <trkpt lat="45.30649" lon="6.15575">
        <ele>2537.1999511719</ele>
        <time>2020-02-08T11:10:54.000Z</time>
      </trkpt>
      <trkpt lat="45.30652" lon="6.15574">
        <ele>2537.8000488281</ele>
        <time>2020-02-08T11:11:00.000Z</time>
      </trkpt>
      <trkpt lat="45.30653" lon="6.15574">
        <ele>2538</ele>
        <time>2020-02-08T11:11:02.000Z</time>
      </trkpt>
      <trkpt lat="45.30653" lon="6.15574">
        <ele>2538.3999023438</ele>
        <time>2020-02-08T11:11:07.000Z</time>
      </trkpt>
      <trkpt lat="45.30653" lon="6.15574">
        <ele>2538.3999023438</ele>
        <time>2020-02-08T11:11:13.000Z</time>
      </trkpt>
      <trkpt lat="45.30653" lon="6.15574">
        <ele>2538.3999023438</ele>
        <time>2020-02-08T11:11:22.000Z</time>
      </trkpt>
      <trkpt lat="45.30653" lon="6.15574">
        <ele>2538.1999511719</ele>
        <time>2020-02-08T11:11:33.000Z</time>
      </trkpt>
      <trkpt lat="45.30653" lon="6.15574">
        <ele>2538.6000976562</ele>
        <time>2020-02-08T11:11:44.000Z</time>
      </trkpt>
      <trkpt lat="45.30653" lon="6.15573">
        <ele>2539.1999511719</ele>
        <time>2020-02-08T11:11:52.000Z</time>
      </trkpt>
      <trkpt lat="45.30653" lon="6.15573">
        <ele>2539.8000488281</ele>
        <time>2020-02-08T11:11:57.000Z</time>
      </trkpt>
      <trkpt lat="45.30653" lon="6.15573">
        <ele>2540.6000976562</ele>
        <time>2020-02-08T11:12:01.000Z</time>
      </trkpt>
      <trkpt lat="45.30649" lon="6.15574">
        <ele>2540.8000488281</ele>
        <time>2020-02-08T11:12:05.000Z</time>
      </trkpt>
      <trkpt lat="45.30646" lon="6.15574">
        <ele>2541.1999511719</ele>
        <time>2020-02-08T11:12:12.000Z</time>
      </trkpt>
      <trkpt lat="45.30645" lon="6.15575">
        <ele>2541.6000976562</ele>
        <time>2020-02-08T11:12:16.000Z</time>
      </trkpt>
      <trkpt lat="45.30645" lon="6.15575">
        <ele>2542.3999023438</ele>
        <time>2020-02-08T11:12:21.000Z</time>
      </trkpt>
      <trkpt lat="45.30645" lon="6.15575">
        <ele>2543</ele>
        <time>2020-02-08T11:12:23.000Z</time>
      </trkpt>
      <trkpt lat="45.30645" lon="6.15574">
        <ele>2543</ele>
        <time>2020-02-08T11:12:27.000Z</time>
      </trkpt>
      <trkpt lat="45.30647" lon="6.15574">
        <ele>2544</ele>
        <time>2020-02-08T11:12:33.000Z</time>
      </trkpt>
      <trkpt lat="45.30648" lon="6.15574">
        <ele>2543.3999023438</ele>
        <time>2020-02-08T11:12:38.000Z</time>
      </trkpt>
      <trkpt lat="45.30648" lon="6.15574">
        <ele>2543.3999023438</ele>
        <time>2020-02-08T11:12:53.000Z</time>
      </trkpt>
      <trkpt lat="45.30648" lon="6.15574">
        <ele>2543.6000976562</ele>
        <time>2020-02-08T11:12:59.000Z</time>
      </trkpt>
      <trkpt lat="45.3065" lon="6.15573">
        <ele>2544.1999511719</ele>
        <time>2020-02-08T11:13:04.000Z</time>
      </trkpt>
      <trkpt lat="45.30656" lon="6.15568">
        <ele>2544.6000976562</ele>
        <time>2020-02-08T11:13:09.000Z</time>
      </trkpt>
      <trkpt lat="45.30658" lon="6.15567">
        <ele>2545</ele>
        <time>2020-02-08T11:13:12.000Z</time>
      </trkpt>
      <trkpt lat="45.30658" lon="6.15566">
        <ele>2545.3999023438</ele>
        <time>2020-02-08T11:13:14.000Z</time>
      </trkpt>
      <trkpt lat="45.30659" lon="6.15566">
        <ele>2546.1999511719</ele>
        <time>2020-02-08T11:13:19.000Z</time>
      </trkpt>
      <trkpt lat="45.30655" lon="6.15566">
        <ele>2546.6000976562</ele>
        <time>2020-02-08T11:13:27.000Z</time>
      </trkpt>
      <trkpt lat="45.30653" lon="6.15566">
        <ele>2547</ele>
        <time>2020-02-08T11:13:34.000Z</time>
      </trkpt>
      <trkpt lat="45.30652" lon="6.15566">
        <ele>2547.6000976562</ele>
        <time>2020-02-08T11:13:41.000Z</time>
      </trkpt>
      <trkpt lat="45.30649" lon="6.15567">
        <ele>2548.3999023438</ele>
        <time>2020-02-08T11:13:49.000Z</time>
      </trkpt>
      <trkpt lat="45.30648" lon="6.15567">
        <ele>2548.6000976562</ele>
        <time>2020-02-08T11:13:50.000Z</time>
      </trkpt>
      <trkpt lat="45.30642" lon="6.15567">
        <ele>2549.3999023438</ele>
        <time>2020-02-08T11:13:58.000Z</time>
      </trkpt>
      <trkpt lat="45.30639" lon="6.15568">
        <ele>2549.8000488281</ele>
        <time>2020-02-08T11:14:00.000Z</time>
      </trkpt>
      <trkpt lat="45.30635" lon="6.15568">
        <ele>2550.1999511719</ele>
        <time>2020-02-08T11:14:03.000Z</time>
      </trkpt>
      <trkpt lat="45.30633" lon="6.15569">
        <ele>2550.6000976562</ele>
        <time>2020-02-08T11:14:05.000Z</time>
      </trkpt>
      <trkpt lat="45.30632" lon="6.1557">
        <ele>2550.8000488281</ele>
        <time>2020-02-08T11:14:06.000Z</time>
      </trkpt>
      <trkpt lat="45.30626" lon="6.15572">
        <ele>2551.3999023438</ele>
        <time>2020-02-08T11:14:12.000Z</time>
      </trkpt>
      <trkpt lat="45.30626" lon="6.15572">
        <ele>2552</ele>
        <time>2020-02-08T11:14:14.000Z</time>
      </trkpt>
      <trkpt lat="45.30625" lon="6.15572">
        <ele>2551.8000488281</ele>
        <time>2020-02-08T11:14:20.000Z</time>
      </trkpt>
      <trkpt lat="45.30638" lon="6.15573">
        <ele>2553.3999023438</ele>
        <time>2020-02-08T11:14:24.000Z</time>
      </trkpt>
      <trkpt lat="45.30638" lon="6.15573">
        <ele>2553.8000488281</ele>
        <time>2020-02-08T11:14:28.000Z</time>
      </trkpt>
      <trkpt lat="45.30641" lon="6.15573">
        <ele>2552.6000976562</ele>
        <time>2020-02-08T11:14:38.000Z</time>
      </trkpt>
      <trkpt lat="45.30641" lon="6.1557">
        <ele>2553.3999023438</ele>
        <time>2020-02-08T11:14:44.000Z</time>
      </trkpt>
      <trkpt lat="45.30642" lon="6.15569">
        <ele>2553.8000488281</ele>
        <time>2020-02-08T11:14:48.000Z</time>
      </trkpt>
      <trkpt lat="45.30649" lon="6.15567">
        <ele>2554.6000976562</ele>
        <time>2020-02-08T11:14:52.000Z</time>
      </trkpt>
      <trkpt lat="45.30652" lon="6.15565">
        <ele>2555.3999023438</ele>
        <time>2020-02-08T11:14:58.000Z</time>
      </trkpt>
      <trkpt lat="45.30654" lon="6.15564">
        <ele>2555.6000976562</ele>
        <time>2020-02-08T11:15:00.000Z</time>
      </trkpt>
      <trkpt lat="45.30663" lon="6.15563">
        <ele>2556.3999023438</ele>
        <time>2020-02-08T11:15:03.000Z</time>
      </trkpt>
      <trkpt lat="45.30668" lon="6.15563">
        <ele>2556.6000976562</ele>
        <time>2020-02-08T11:15:06.000Z</time>
      </trkpt>
      <trkpt lat="45.30669" lon="6.15563">
        <ele>2557.3999023438</ele>
        <time>2020-02-08T11:15:10.000Z</time>
      </trkpt>
      <trkpt lat="45.30669" lon="6.15563">
        <ele>2557.3999023438</ele>
        <time>2020-02-08T11:15:22.000Z</time>
      </trkpt>
      <trkpt lat="45.30668" lon="6.15563">
        <ele>2557.6000976562</ele>
        <time>2020-02-08T11:15:32.000Z</time>
      </trkpt>
      <trkpt lat="45.30668" lon="6.15563">
        <ele>2558.8000488281</ele>
        <time>2020-02-08T11:15:37.000Z</time>
      </trkpt>
      <trkpt lat="45.30668" lon="6.15563">
        <ele>2558.8000488281</ele>
        <time>2020-02-08T11:15:40.000Z</time>
      </trkpt>
      <trkpt lat="45.30665" lon="6.15564">
        <ele>2559</ele>
        <time>2020-02-08T11:15:47.000Z</time>
      </trkpt>
      <trkpt lat="45.30663" lon="6.15564">
        <ele>2559.8000488281</ele>
        <time>2020-02-08T11:15:50.000Z</time>
      </trkpt>
      <trkpt lat="45.30659" lon="6.15565">
        <ele>2560.8000488281</ele>
        <time>2020-02-08T11:15:56.000Z</time>
      </trkpt>
      <trkpt lat="45.30654" lon="6.1557">
        <ele>2561.6000976562</ele>
        <time>2020-02-08T11:16:05.000Z</time>
      </trkpt>
      <trkpt lat="45.30653" lon="6.1557">
        <ele>2561.8000488281</ele>
        <time>2020-02-08T11:16:07.000Z</time>
      </trkpt>
      <trkpt lat="45.30652" lon="6.15572">
        <ele>2562.6000976562</ele>
        <time>2020-02-08T11:16:12.000Z</time>
      </trkpt>
      <trkpt lat="45.30652" lon="6.15572">
        <ele>2563</ele>
        <time>2020-02-08T11:16:15.000Z</time>
      </trkpt>
      <trkpt lat="45.30652" lon="6.15572">
        <ele>2563</ele>
        <time>2020-02-08T11:16:32.000Z</time>
      </trkpt>
      <trkpt lat="45.30652" lon="6.15572">
        <ele>2563</ele>
        <time>2020-02-08T11:16:49.000Z</time>
      </trkpt>
      <trkpt lat="45.30649" lon="6.15575">
        <ele>2563.1999511719</ele>
        <time>2020-02-08T11:16:56.000Z</time>
      </trkpt>
      <trkpt lat="45.30649" lon="6.15575">
        <ele>2564.6000976562</ele>
        <time>2020-02-08T11:17:01.000Z</time>
      </trkpt>
      <trkpt lat="45.30649" lon="6.15575">
        <ele>2565.6000976562</ele>
        <time>2020-02-08T11:17:03.000Z</time>
      </trkpt>
      <trkpt lat="45.30649" lon="6.15575">
        <ele>2565.1999511719</ele>
        <time>2020-02-08T11:17:05.000Z</time>
      </trkpt>
      <trkpt lat="45.3065" lon="6.15573">
        <ele>2564.3999023438</ele>
        <time>2020-02-08T11:17:07.000Z</time>
      </trkpt>
      <trkpt lat="45.3065" lon="6.15572">
        <ele>2564</ele>
        <time>2020-02-08T11:17:11.000Z</time>
      </trkpt>
      <trkpt lat="45.30651" lon="6.15569">
        <ele>2564.1999511719</ele>
        <time>2020-02-08T11:17:16.000Z</time>
      </trkpt>
      <trkpt lat="45.30651" lon="6.15566">
        <ele>2564.8000488281</ele>
        <time>2020-02-08T11:17:21.000Z</time>
      </trkpt>
      <trkpt lat="45.30657" lon="6.15565">
        <ele>2565.1999511719</ele>
        <time>2020-02-08T11:17:23.000Z</time>
      </trkpt>
      <trkpt lat="45.30657" lon="6.15565">
        <ele>2565.3999023438</ele>
        <time>2020-02-08T11:17:25.000Z</time>
      </trkpt>
      <trkpt lat="45.30657" lon="6.15565">
        <ele>2565.6000976562</ele>
        <time>2020-02-08T11:17:26.000Z</time>
      </trkpt>
      <trkpt lat="45.30657" lon="6.15562">
        <ele>2566.3999023438</ele>
        <time>2020-02-08T11:17:31.000Z</time>
      </trkpt>
      <trkpt lat="45.30657" lon="6.15561">
        <ele>2566.6000976562</ele>
        <time>2020-02-08T11:17:33.000Z</time>
      </trkpt>
      <trkpt lat="45.30657" lon="6.15561">
        <ele>2567.1999511719</ele>
        <time>2020-02-08T11:17:37.000Z</time>
      </trkpt>
      <trkpt lat="45.30657" lon="6.1556">
        <ele>2567.3999023438</ele>
        <time>2020-02-08T11:17:52.000Z</time>
      </trkpt>
      <trkpt lat="45.30657" lon="6.1556">
        <ele>2567.6000976562</ele>
        <time>2020-02-08T11:17:57.000Z</time>
      </trkpt>
      <trkpt lat="45.30659" lon="6.1556">
        <ele>2567.6000976562</ele>
        <time>2020-02-08T11:18:03.000Z</time>
      </trkpt>
      <trkpt lat="45.30666" lon="6.15557">
        <ele>2567.8000488281</ele>
        <time>2020-02-08T11:18:08.000Z</time>
      </trkpt>
      <trkpt lat="45.30667" lon="6.15555">
        <ele>2568.3999023438</ele>
        <time>2020-02-08T11:18:17.000Z</time>
      </trkpt>
      <trkpt lat="45.30667" lon="6.15555">
        <ele>2568.6000976562</ele>
        <time>2020-02-08T11:18:28.000Z</time>
      </trkpt>
      <trkpt lat="45.30667" lon="6.15555">
        <ele>2568.8000488281</ele>
        <time>2020-02-08T11:18:29.000Z</time>
      </trkpt>
      <trkpt lat="45.30664" lon="6.15555">
        <ele>2569.8000488281</ele>
        <time>2020-02-08T11:18:35.000Z</time>
      </trkpt>
      <trkpt lat="45.30663" lon="6.15555">
        <ele>2570</ele>
        <time>2020-02-08T11:18:36.000Z</time>
      </trkpt>
      <trkpt lat="45.30658" lon="6.15555">
        <ele>2571</ele>
        <time>2020-02-08T11:18:42.000Z</time>
      </trkpt>
      <trkpt lat="45.30657" lon="6.15555">
        <ele>2571.3999023438</ele>
        <time>2020-02-08T11:18:44.000Z</time>
      </trkpt>
      <trkpt lat="45.30655" lon="6.15556">
        <ele>2572</ele>
        <time>2020-02-08T11:18:53.000Z</time>
      </trkpt>
      <trkpt lat="45.30655" lon="6.15556">
        <ele>2572.3999023438</ele>
        <time>2020-02-08T11:19:09.000Z</time>
      </trkpt>
      <trkpt lat="45.30654" lon="6.15556">
        <ele>2572.6000976562</ele>
        <time>2020-02-08T11:19:16.000Z</time>
      </trkpt>
      <trkpt lat="45.30651" lon="6.15558">
        <ele>2572.3999023438</ele>
        <time>2020-02-08T11:19:23.000Z</time>
      </trkpt>
      <trkpt lat="45.30651" lon="6.15558">
        <ele>2573</ele>
        <time>2020-02-08T11:19:26.000Z</time>
      </trkpt>
      <trkpt lat="45.3065" lon="6.15557">
        <ele>2574</ele>
        <time>2020-02-08T11:19:28.000Z</time>
      </trkpt>
      <trkpt lat="45.30651" lon="6.15557">
        <ele>2574.1999511719</ele>
        <time>2020-02-08T11:19:30.000Z</time>
      </trkpt>
      <trkpt lat="45.30649" lon="6.15558">
        <ele>2573</ele>
        <time>2020-02-08T11:19:37.000Z</time>
      </trkpt>
      <trkpt lat="45.30649" lon="6.15558">
        <ele>2573</ele>
        <time>2020-02-08T11:19:39.000Z</time>
      </trkpt>
      <trkpt lat="45.30649" lon="6.15558">
        <ele>2573.3999023438</ele>
        <time>2020-02-08T11:19:53.000Z</time>
      </trkpt>
      <trkpt lat="45.30649" lon="6.15558">
        <ele>2574</ele>
        <time>2020-02-08T11:20:09.000Z</time>
      </trkpt>
      <trkpt lat="45.30649" lon="6.15558">
        <ele>2573.6000976562</ele>
        <time>2020-02-08T11:20:14.000Z</time>
      </trkpt>
      <trkpt lat="45.30649" lon="6.15558">
        <ele>2573</ele>
        <time>2020-02-08T11:20:18.000Z</time>
      </trkpt>
      <trkpt lat="45.30649" lon="6.15558">
        <ele>2572.8000488281</ele>
        <time>2020-02-08T11:20:29.000Z</time>
      </trkpt>
      <trkpt lat="45.30649" lon="6.15558">
        <ele>2573</ele>
        <time>2020-02-08T11:20:42.000Z</time>
      </trkpt>
      <trkpt lat="45.30649" lon="6.15558">
        <ele>2573</ele>
        <time>2020-02-08T11:20:55.000Z</time>
      </trkpt>
      <trkpt lat="45.30649" lon="6.15558">
        <ele>2573</ele>
        <time>2020-02-08T11:21:12.000Z</time>
      </trkpt>
      <trkpt lat="45.30649" lon="6.15558">
        <ele>2573</ele>
        <time>2020-02-08T11:21:30.000Z</time>
      </trkpt>
      <trkpt lat="45.30649" lon="6.15558">
        <ele>2572.6000976562</ele>
        <time>2020-02-08T11:21:40.000Z</time>
      </trkpt>
      <trkpt lat="45.30649" lon="6.15558">
        <ele>2573</ele>
        <time>2020-02-08T11:21:53.000Z</time>
      </trkpt>
      <trkpt lat="45.30649" lon="6.15558">
        <ele>2573.1999511719</ele>
        <time>2020-02-08T11:22:06.000Z</time>
      </trkpt>
      <trkpt lat="45.30649" lon="6.15558">
        <ele>2573</ele>
        <time>2020-02-08T11:22:20.000Z</time>
      </trkpt>
      <trkpt lat="45.30649" lon="6.15558">
        <ele>2573</ele>
        <time>2020-02-08T11:22:32.000Z</time>
      </trkpt>
      <trkpt lat="45.30649" lon="6.15558">
        <ele>2573</ele>
        <time>2020-02-08T11:22:44.000Z</time>
      </trkpt>
      <trkpt lat="45.30648" lon="6.15558">
        <ele>2572.8000488281</ele>
        <time>2020-02-08T11:23:02.000Z</time>
      </trkpt>
      <trkpt lat="45.30648" lon="6.15558">
        <ele>2572.8000488281</ele>
        <time>2020-02-08T11:23:16.000Z</time>
      </trkpt>
      <trkpt lat="45.30648" lon="6.15558">
        <ele>2573.1999511719</ele>
        <time>2020-02-08T11:23:33.000Z</time>
      </trkpt>
      <trkpt lat="45.30648" lon="6.15558">
        <ele>2573</ele>
        <time>2020-02-08T11:23:42.000Z</time>
      </trkpt>
      <trkpt lat="45.30648" lon="6.15558">
        <ele>2573</ele>
        <time>2020-02-08T11:23:57.000Z</time>
      </trkpt>
      <trkpt lat="45.30648" lon="6.15558">
        <ele>2572.6000976562</ele>
        <time>2020-02-08T11:24:09.000Z</time>
      </trkpt>
      <trkpt lat="45.30648" lon="6.15558">
        <ele>2572.6000976562</ele>
        <time>2020-02-08T11:24:24.000Z</time>
      </trkpt>
      <trkpt lat="45.30648" lon="6.15558">
        <ele>2572.6000976562</ele>
        <time>2020-02-08T11:24:34.000Z</time>
      </trkpt>
      <trkpt lat="45.30648" lon="6.15558">
        <ele>2573.8000488281</ele>
        <time>2020-02-08T11:24:49.000Z</time>
      </trkpt>
      <trkpt lat="45.30648" lon="6.15558">
        <ele>2574.1999511719</ele>
        <time>2020-02-08T11:24:55.000Z</time>
      </trkpt>
      <trkpt lat="45.30648" lon="6.15558">
        <ele>2574</ele>
        <time>2020-02-08T11:24:59.000Z</time>
      </trkpt>
      <trkpt lat="45.30648" lon="6.15558">
        <ele>2573</ele>
        <time>2020-02-08T11:25:02.000Z</time>
      </trkpt>
      <trkpt lat="45.30648" lon="6.15558">
        <ele>2572.6000976562</ele>
        <time>2020-02-08T11:25:14.000Z</time>
      </trkpt>
      <trkpt lat="45.30648" lon="6.15558">
        <ele>2572.8000488281</ele>
        <time>2020-02-08T11:25:30.000Z</time>
      </trkpt>
      <trkpt lat="45.30648" lon="6.15558">
        <ele>2573</ele>
        <time>2020-02-08T11:25:41.000Z</time>
      </trkpt>
      <trkpt lat="45.30648" lon="6.15558">
        <ele>2573.6000976562</ele>
        <time>2020-02-08T11:25:54.000Z</time>
      </trkpt>
      <trkpt lat="45.30649" lon="6.15557">
        <ele>2573.8000488281</ele>
        <time>2020-02-08T11:26:08.000Z</time>
      </trkpt>
      <trkpt lat="45.30641" lon="6.15563">
        <ele>2573.3999023438</ele>
        <time>2020-02-08T11:26:21.000Z</time>
      </trkpt>
      <trkpt lat="45.30627" lon="6.15561">
        <ele>2573.6000976562</ele>
        <time>2020-02-08T11:26:35.000Z</time>
      </trkpt>
      <trkpt lat="45.30621" lon="6.15555">
        <ele>2573.3999023438</ele>
        <time>2020-02-08T11:26:49.000Z</time>
      </trkpt>
      <trkpt lat="45.30618" lon="6.15551">
        <ele>2573.3999023438</ele>
        <time>2020-02-08T11:27:07.000Z</time>
      </trkpt>
      <trkpt lat="45.30611" lon="6.15551">
        <ele>2573.3999023438</ele>
        <time>2020-02-08T11:27:20.000Z</time>
      </trkpt>
      <trkpt lat="45.30606" lon="6.15553">
        <ele>2573.6000976562</ele>
        <time>2020-02-08T11:27:36.000Z</time>
      </trkpt>
      <trkpt lat="45.30606" lon="6.15553">
        <ele>2573</ele>
        <time>2020-02-08T11:27:45.000Z</time>
      </trkpt>
      <trkpt lat="45.30606" lon="6.15553">
        <ele>2573.3999023438</ele>
        <time>2020-02-08T11:27:55.000Z</time>
      </trkpt>
      <trkpt lat="45.30606" lon="6.15553">
        <ele>2573</ele>
        <time>2020-02-08T11:28:04.000Z</time>
      </trkpt>
      <trkpt lat="45.30605" lon="6.15553">
        <ele>2573.1999511719</ele>
        <time>2020-02-08T11:28:19.000Z</time>
      </trkpt>
      <trkpt lat="45.30605" lon="6.15553">
        <ele>2573</ele>
        <time>2020-02-08T11:28:30.000Z</time>
      </trkpt>
      <trkpt lat="45.30605" lon="6.15553">
        <ele>2573.1999511719</ele>
        <time>2020-02-08T11:28:43.000Z</time>
      </trkpt>
      <trkpt lat="45.30605" lon="6.15553">
        <ele>2573.1999511719</ele>
        <time>2020-02-08T11:28:56.000Z</time>
      </trkpt>
      <trkpt lat="45.30606" lon="6.15553">
        <ele>2573.1999511719</ele>
        <time>2020-02-08T11:29:07.000Z</time>
      </trkpt>
      <trkpt lat="45.30606" lon="6.15553">
        <ele>2573.3999023438</ele>
        <time>2020-02-08T11:29:15.000Z</time>
      </trkpt>
      <trkpt lat="45.30606" lon="6.15553">
        <ele>2573.1999511719</ele>
        <time>2020-02-08T11:29:25.000Z</time>
      </trkpt>
      <trkpt lat="45.30605" lon="6.15553">
        <ele>2573.1999511719</ele>
        <time>2020-02-08T11:29:42.000Z</time>
      </trkpt>
      <trkpt lat="45.30605" lon="6.15553">
        <ele>2573</ele>
        <time>2020-02-08T11:30:00.000Z</time>
      </trkpt>
      <trkpt lat="45.30605" lon="6.15553">
        <ele>2573</ele>
        <time>2020-02-08T11:30:15.000Z</time>
      </trkpt>
      <trkpt lat="45.30605" lon="6.15553">
        <ele>2573</ele>
        <time>2020-02-08T11:30:33.000Z</time>
      </trkpt>
      <trkpt lat="45.30606" lon="6.15553">
        <ele>2573.1999511719</ele>
        <time>2020-02-08T11:30:57.000Z</time>
      </trkpt>
      <trkpt lat="45.30606" lon="6.15553">
        <ele>2573</ele>
        <time>2020-02-08T11:31:12.000Z</time>
      </trkpt>
      <trkpt lat="45.30606" lon="6.15553">
        <ele>2573.8000488281</ele>
        <time>2020-02-08T11:31:21.000Z</time>
      </trkpt>
      <trkpt lat="45.30606" lon="6.15553">
        <ele>2574.1999511719</ele>
        <time>2020-02-08T11:31:26.000Z</time>
      </trkpt>
      <trkpt lat="45.30606" lon="6.15553">
        <ele>2574.6000976562</ele>
        <time>2020-02-08T11:31:34.000Z</time>
      </trkpt>
      <trkpt lat="45.30606" lon="6.15554">
        <ele>2574.3999023438</ele>
        <time>2020-02-08T11:31:49.000Z</time>
      </trkpt>
      <trkpt lat="45.3062" lon="6.15552">
        <ele>2575</ele>
        <time>2020-02-08T11:31:57.000Z</time>
      </trkpt>
      <trkpt lat="45.30629" lon="6.1555">
        <ele>2574.6000976562</ele>
        <time>2020-02-08T11:32:03.000Z</time>
      </trkpt>
      <trkpt lat="45.30629" lon="6.1555">
        <ele>2575.1999511719</ele>
        <time>2020-02-08T11:32:08.000Z</time>
      </trkpt>
      <trkpt lat="45.30631" lon="6.15549">
        <ele>2575.1999511719</ele>
        <time>2020-02-08T11:32:12.000Z</time>
      </trkpt>
      <trkpt lat="45.30629" lon="6.15547">
        <ele>2575.8000488281</ele>
        <time>2020-02-08T11:32:16.000Z</time>
      </trkpt>
      <trkpt lat="45.30628" lon="6.15547">
        <ele>2576.3999023438</ele>
        <time>2020-02-08T11:32:18.000Z</time>
      </trkpt>
      <trkpt lat="45.30627" lon="6.15546">
        <ele>2576.6000976562</ele>
        <time>2020-02-08T11:32:19.000Z</time>
      </trkpt>
      <trkpt lat="45.30627" lon="6.15546">
        <ele>2577.3999023438</ele>
        <time>2020-02-08T11:32:22.000Z</time>
      </trkpt>
      <trkpt lat="45.30627" lon="6.15546">
        <ele>2578.1999511719</ele>
        <time>2020-02-08T11:32:28.000Z</time>
      </trkpt>
      <trkpt lat="45.30627" lon="6.15546">
        <ele>2578.3999023438</ele>
        <time>2020-02-08T11:32:30.000Z</time>
      </trkpt>
      <trkpt lat="45.30626" lon="6.15546">
        <ele>2579.1999511719</ele>
        <time>2020-02-08T11:32:36.000Z</time>
      </trkpt>
      <trkpt lat="45.30626" lon="6.15546">
        <ele>2579.6000976562</ele>
        <time>2020-02-08T11:32:39.000Z</time>
      </trkpt>
      <trkpt lat="45.30626" lon="6.15546">
        <ele>2580.1999511719</ele>
        <time>2020-02-08T11:32:45.000Z</time>
      </trkpt>
      <trkpt lat="45.30623" lon="6.15547">
        <ele>2580.6000976562</ele>
        <time>2020-02-08T11:32:51.000Z</time>
      </trkpt>
      <trkpt lat="45.30621" lon="6.15546">
        <ele>2580.8000488281</ele>
        <time>2020-02-08T11:32:55.000Z</time>
      </trkpt>
      <trkpt lat="45.30618" lon="6.15547">
        <ele>2581.6000976562</ele>
        <time>2020-02-08T11:33:00.000Z</time>
      </trkpt>
      <trkpt lat="45.30614" lon="6.15547">
        <ele>2582.1999511719</ele>
        <time>2020-02-08T11:33:07.000Z</time>
      </trkpt>
      <trkpt lat="45.30612" lon="6.15545">
        <ele>2582.6000976562</ele>
        <time>2020-02-08T11:33:13.000Z</time>
      </trkpt>
      <trkpt lat="45.30612" lon="6.15545">
        <ele>2583.6000976562</ele>
        <time>2020-02-08T11:33:18.000Z</time>
      </trkpt>
      <trkpt lat="45.30612" lon="6.15545">
        <ele>2584.3999023438</ele>
        <time>2020-02-08T11:33:21.000Z</time>
      </trkpt>
      <trkpt lat="45.30615" lon="6.15544">
        <ele>2584.8000488281</ele>
        <time>2020-02-08T11:33:23.000Z</time>
      </trkpt>
      <trkpt lat="45.30615" lon="6.15544">
        <ele>2585.8000488281</ele>
        <time>2020-02-08T11:33:29.000Z</time>
      </trkpt>
      <trkpt lat="45.30615" lon="6.15544">
        <ele>2585.8000488281</ele>
        <time>2020-02-08T11:33:30.000Z</time>
      </trkpt>
      <trkpt lat="45.30615" lon="6.15544">
        <ele>2586.8000488281</ele>
        <time>2020-02-08T11:33:38.000Z</time>
      </trkpt>
      <trkpt lat="45.30613" lon="6.15543">
        <ele>2587</ele>
        <time>2020-02-08T11:33:46.000Z</time>
      </trkpt>
      <trkpt lat="45.30612" lon="6.15543">
        <ele>2587.3999023438</ele>
        <time>2020-02-08T11:33:47.000Z</time>
      </trkpt>
      <trkpt lat="45.30608" lon="6.15542">
        <ele>2588</ele>
        <time>2020-02-08T11:33:51.000Z</time>
      </trkpt>
      <trkpt lat="45.30604" lon="6.1554">
        <ele>2588.1999511719</ele>
        <time>2020-02-08T11:33:55.000Z</time>
      </trkpt>
      <trkpt lat="45.30601" lon="6.15539">
        <ele>2589.1999511719</ele>
        <time>2020-02-08T11:33:59.000Z</time>
      </trkpt>
      <trkpt lat="45.30599" lon="6.15538">
        <ele>2589.8000488281</ele>
        <time>2020-02-08T11:34:03.000Z</time>
      </trkpt>
      <trkpt lat="45.30598" lon="6.15538">
        <ele>2590.1999511719</ele>
        <time>2020-02-08T11:34:06.000Z</time>
      </trkpt>
      <trkpt lat="45.30593" lon="6.15538">
        <ele>2591</ele>
        <time>2020-02-08T11:34:12.000Z</time>
      </trkpt>
      <trkpt lat="45.30593" lon="6.15537">
        <ele>2591.1999511719</ele>
        <time>2020-02-08T11:34:14.000Z</time>
      </trkpt>
      <trkpt lat="45.3059" lon="6.15537">
        <ele>2592.3999023438</ele>
        <time>2020-02-08T11:34:20.000Z</time>
      </trkpt>
      <trkpt lat="45.3059" lon="6.15537">
        <ele>2592.6000976562</ele>
        <time>2020-02-08T11:34:21.000Z</time>
      </trkpt>
      <trkpt lat="45.30589" lon="6.15537">
        <ele>2593.3999023438</ele>
        <time>2020-02-08T11:34:31.000Z</time>
      </trkpt>
      <trkpt lat="45.30589" lon="6.15537">
        <ele>2593.6000976562</ele>
        <time>2020-02-08T11:34:32.000Z</time>
      </trkpt>
      <trkpt lat="45.30589" lon="6.15537">
        <ele>2594.6000976562</ele>
        <time>2020-02-08T11:34:36.000Z</time>
      </trkpt>
      <trkpt lat="45.30587" lon="6.15537">
        <ele>2595.3999023438</ele>
        <time>2020-02-08T11:34:40.000Z</time>
      </trkpt>
      <trkpt lat="45.30586" lon="6.15536">
        <ele>2595.8000488281</ele>
        <time>2020-02-08T11:34:42.000Z</time>
      </trkpt>
      <trkpt lat="45.30585" lon="6.15536">
        <ele>2596.8000488281</ele>
        <time>2020-02-08T11:34:48.000Z</time>
      </trkpt>
      <trkpt lat="45.30584" lon="6.15535">
        <ele>2597</ele>
        <time>2020-02-08T11:34:49.000Z</time>
      </trkpt>
      <trkpt lat="45.30584" lon="6.15535">
        <ele>2598</ele>
        <time>2020-02-08T11:34:56.000Z</time>
      </trkpt>
      <trkpt lat="45.30584" lon="6.15535">
        <ele>2599</ele>
        <time>2020-02-08T11:35:03.000Z</time>
      </trkpt>
      <trkpt lat="45.30584" lon="6.15535">
        <ele>2599.3999023438</ele>
        <time>2020-02-08T11:35:07.000Z</time>
      </trkpt>
      <trkpt lat="45.30584" lon="6.15533">
        <ele>2599.1999511719</ele>
        <time>2020-02-08T11:35:18.000Z</time>
      </trkpt>
      <trkpt lat="45.30583" lon="6.15532">
        <ele>2600.1999511719</ele>
        <time>2020-02-08T11:35:22.000Z</time>
      </trkpt>
      <trkpt lat="45.30582" lon="6.15532">
        <ele>2601</ele>
        <time>2020-02-08T11:35:26.000Z</time>
      </trkpt>
      <trkpt lat="45.30582" lon="6.15532">
        <ele>2601.1999511719</ele>
        <time>2020-02-08T11:35:28.000Z</time>
      </trkpt>
      <trkpt lat="45.3058" lon="6.15532">
        <ele>2602</ele>
        <time>2020-02-08T11:35:36.000Z</time>
      </trkpt>
      <trkpt lat="45.30579" lon="6.15532">
        <ele>2602.3999023438</ele>
        <time>2020-02-08T11:35:38.000Z</time>
      </trkpt>
      <trkpt lat="45.30578" lon="6.15531">
        <ele>2603</ele>
        <time>2020-02-08T11:35:42.000Z</time>
      </trkpt>
      <trkpt lat="45.30577" lon="6.1553">
        <ele>2603.3999023438</ele>
        <time>2020-02-08T11:35:45.000Z</time>
      </trkpt>
      <trkpt lat="45.30577" lon="6.1553">
        <ele>2603.6000976562</ele>
        <time>2020-02-08T11:35:48.000Z</time>
      </trkpt>
      <trkpt lat="45.30577" lon="6.1553">
        <ele>2604.6000976562</ele>
        <time>2020-02-08T11:35:54.000Z</time>
      </trkpt>
      <trkpt lat="45.30577" lon="6.1553">
        <ele>2605.1999511719</ele>
        <time>2020-02-08T11:35:59.000Z</time>
      </trkpt>
      <trkpt lat="45.30577" lon="6.1553">
        <ele>2605.6000976562</ele>
        <time>2020-02-08T11:36:00.000Z</time>
      </trkpt>
      <trkpt lat="45.30577" lon="6.1553">
        <ele>2605.6000976562</ele>
        <time>2020-02-08T11:36:10.000Z</time>
      </trkpt>
      <trkpt lat="45.30574" lon="6.15528">
        <ele>2607</ele>
        <time>2020-02-08T11:36:16.000Z</time>
      </trkpt>
      <trkpt lat="45.30573" lon="6.15527">
        <ele>2607.1999511719</ele>
        <time>2020-02-08T11:36:17.000Z</time>
      </trkpt>
      <trkpt lat="45.30573" lon="6.15525">
        <ele>2608</ele>
        <time>2020-02-08T11:36:23.000Z</time>
      </trkpt>
      <trkpt lat="45.30573" lon="6.15524">
        <ele>2608.3999023438</ele>
        <time>2020-02-08T11:36:26.000Z</time>
      </trkpt>
      <trkpt lat="45.30572" lon="6.15523">
        <ele>2609</ele>
        <time>2020-02-08T11:36:31.000Z</time>
      </trkpt>
      <trkpt lat="45.30572" lon="6.15523">
        <ele>2609.1999511719</ele>
        <time>2020-02-08T11:36:32.000Z</time>
      </trkpt>
      <trkpt lat="45.30572" lon="6.15523">
        <ele>2610.1999511719</ele>
        <time>2020-02-08T11:36:43.000Z</time>
      </trkpt>
      <trkpt lat="45.30571" lon="6.15523">
        <ele>2610.8000488281</ele>
        <time>2020-02-08T11:36:50.000Z</time>
      </trkpt>
      <trkpt lat="45.30571" lon="6.15522">
        <ele>2611.1999511719</ele>
        <time>2020-02-08T11:36:57.000Z</time>
      </trkpt>
      <trkpt lat="45.30571" lon="6.1552">
        <ele>2612.3999023438</ele>
        <time>2020-02-08T11:37:02.000Z</time>
      </trkpt>
      <trkpt lat="45.30571" lon="6.1552">
        <ele>2612.6000976562</ele>
        <time>2020-02-08T11:37:03.000Z</time>
      </trkpt>
      <trkpt lat="45.30571" lon="6.15519">
        <ele>2613.3999023438</ele>
        <time>2020-02-08T11:37:09.000Z</time>
      </trkpt>
      <trkpt lat="45.30571" lon="6.15519">
        <ele>2614</ele>
        <time>2020-02-08T11:37:12.000Z</time>
      </trkpt>
      <trkpt lat="45.30571" lon="6.15519">
        <ele>2614.3999023438</ele>
        <time>2020-02-08T11:37:15.000Z</time>
      </trkpt>
      <trkpt lat="45.30571" lon="6.15519">
        <ele>2614.8000488281</ele>
        <time>2020-02-08T11:37:19.000Z</time>
      </trkpt>
      <trkpt lat="45.30571" lon="6.15519">
        <ele>2615.6000976562</ele>
        <time>2020-02-08T11:37:24.000Z</time>
      </trkpt>
      <trkpt lat="45.30571" lon="6.15516">
        <ele>2615.8000488281</ele>
        <time>2020-02-08T11:37:28.000Z</time>
      </trkpt>
      <trkpt lat="45.30573" lon="6.15515">
        <ele>2616.6000976562</ele>
        <time>2020-02-08T11:37:35.000Z</time>
      </trkpt>
      <trkpt lat="45.30573" lon="6.15515">
        <ele>2616.6000976562</ele>
        <time>2020-02-08T11:37:36.000Z</time>
      </trkpt>
      <trkpt lat="45.30571" lon="6.15514">
        <ele>2617.3999023438</ele>
        <time>2020-02-08T11:37:45.000Z</time>
      </trkpt>
      <trkpt lat="45.30571" lon="6.15514">
        <ele>2617.8000488281</ele>
        <time>2020-02-08T11:37:47.000Z</time>
      </trkpt>
      <trkpt lat="45.30571" lon="6.15514">
        <ele>2618</ele>
        <time>2020-02-08T11:37:52.000Z</time>
      </trkpt>
      <trkpt lat="45.30571" lon="6.15513">
        <ele>2618.6000976562</ele>
        <time>2020-02-08T11:38:00.000Z</time>
      </trkpt>
      <trkpt lat="45.30571" lon="6.15513">
        <ele>2618.8000488281</ele>
        <time>2020-02-08T11:38:01.000Z</time>
      </trkpt>
      <trkpt lat="45.30571" lon="6.15513">
        <ele>2619.3999023438</ele>
        <time>2020-02-08T11:38:08.000Z</time>
      </trkpt>
      <trkpt lat="45.30571" lon="6.15513">
        <ele>2619.8000488281</ele>
        <time>2020-02-08T11:38:12.000Z</time>
      </trkpt>
      <trkpt lat="45.30566" lon="6.15512">
        <ele>2620.8000488281</ele>
        <time>2020-02-08T11:38:16.000Z</time>
      </trkpt>
      <trkpt lat="45.30566" lon="6.15512">
        <ele>2621</ele>
        <time>2020-02-08T11:38:17.000Z</time>
      </trkpt>
      <trkpt lat="45.30565" lon="6.15511">
        <ele>2621.8000488281</ele>
        <time>2020-02-08T11:38:23.000Z</time>
      </trkpt>
      <trkpt lat="45.30565" lon="6.15511">
        <ele>2622</ele>
        <time>2020-02-08T11:38:24.000Z</time>
      </trkpt>
      <trkpt lat="45.30565" lon="6.15511">
        <ele>2623</ele>
        <time>2020-02-08T11:38:34.000Z</time>
      </trkpt>
      <trkpt lat="45.30565" lon="6.15511">
        <ele>2623</ele>
        <time>2020-02-08T11:38:35.000Z</time>
      </trkpt>
      <trkpt lat="45.30565" lon="6.15511">
        <ele>2623.6000976562</ele>
        <time>2020-02-08T11:38:41.000Z</time>
      </trkpt>
      <trkpt lat="45.30565" lon="6.15511">
        <ele>2623.6000976562</ele>
        <time>2020-02-08T11:38:42.000Z</time>
      </trkpt>
      <trkpt lat="45.30565" lon="6.15511">
        <ele>2624</ele>
        <time>2020-02-08T11:38:49.000Z</time>
      </trkpt>
      <trkpt lat="45.30565" lon="6.15511">
        <ele>2624.3999023438</ele>
        <time>2020-02-08T11:38:53.000Z</time>
      </trkpt>
      <trkpt lat="45.30565" lon="6.15511">
        <ele>2625.1999511719</ele>
        <time>2020-02-08T11:39:00.000Z</time>
      </trkpt>
      <trkpt lat="45.30565" lon="6.15511">
        <ele>2625</ele>
        <time>2020-02-08T11:39:01.000Z</time>
      </trkpt>
      <trkpt lat="45.30565" lon="6.15511">
        <ele>2626</ele>
        <time>2020-02-08T11:39:10.000Z</time>
      </trkpt>
      <trkpt lat="45.30565" lon="6.15511">
        <ele>2626.1999511719</ele>
        <time>2020-02-08T11:39:15.000Z</time>
      </trkpt>
      <trkpt lat="45.30565" lon="6.15511">
        <ele>2626.6000976562</ele>
        <time>2020-02-08T11:39:19.000Z</time>
      </trkpt>
      <trkpt lat="45.30565" lon="6.15511">
        <ele>2627.1999511719</ele>
        <time>2020-02-08T11:39:23.000Z</time>
      </trkpt>
      <trkpt lat="45.30564" lon="6.1551">
        <ele>2627.6000976562</ele>
        <time>2020-02-08T11:39:28.000Z</time>
      </trkpt>
      <trkpt lat="45.30563" lon="6.1551">
        <ele>2628</ele>
        <time>2020-02-08T11:39:34.000Z</time>
      </trkpt>
      <trkpt lat="45.30563" lon="6.1551">
        <ele>2628.3999023438</ele>
        <time>2020-02-08T11:39:37.000Z</time>
      </trkpt>
      <trkpt lat="45.30563" lon="6.15509">
        <ele>2629.1999511719</ele>
        <time>2020-02-08T11:39:43.000Z</time>
      </trkpt>
      <trkpt lat="45.30563" lon="6.15509">
        <ele>2629.6000976562</ele>
        <time>2020-02-08T11:39:45.000Z</time>
      </trkpt>
      <trkpt lat="45.30563" lon="6.15509">
        <ele>2630.6000976562</ele>
        <time>2020-02-08T11:39:51.000Z</time>
      </trkpt>
      <trkpt lat="45.30563" lon="6.15509">
        <ele>2630.8000488281</ele>
        <time>2020-02-08T11:39:52.000Z</time>
      </trkpt>
      <trkpt lat="45.30562" lon="6.15508">
        <ele>2631</ele>
        <time>2020-02-08T11:40:01.000Z</time>
      </trkpt>
      <trkpt lat="45.30562" lon="6.15508">
        <ele>2631.8000488281</ele>
        <time>2020-02-08T11:40:13.000Z</time>
      </trkpt>
      <trkpt lat="45.30562" lon="6.15508">
        <ele>2631.8000488281</ele>
        <time>2020-02-08T11:40:14.000Z</time>
      </trkpt>
      <trkpt lat="45.30561" lon="6.15507">
        <ele>2632</ele>
        <time>2020-02-08T11:40:23.000Z</time>
      </trkpt>
      <trkpt lat="45.3056" lon="6.15506">
        <ele>2632.8000488281</ele>
        <time>2020-02-08T11:40:31.000Z</time>
      </trkpt>
      <trkpt lat="45.3056" lon="6.15506">
        <ele>2633</ele>
        <time>2020-02-08T11:40:32.000Z</time>
      </trkpt>
      <trkpt lat="45.3056" lon="6.15506">
        <ele>2634</ele>
        <time>2020-02-08T11:40:40.000Z</time>
      </trkpt>
      <trkpt lat="45.3056" lon="6.15506">
        <ele>2635</ele>
        <time>2020-02-08T11:40:48.000Z</time>
      </trkpt>
      <trkpt lat="45.3056" lon="6.15506">
        <ele>2635</ele>
        <time>2020-02-08T11:40:50.000Z</time>
      </trkpt>
      <trkpt lat="45.3056" lon="6.15506">
        <ele>2635</ele>
        <time>2020-02-08T11:40:59.000Z</time>
      </trkpt>
      <trkpt lat="45.3056" lon="6.15506">
        <ele>2635.6000976562</ele>
        <time>2020-02-08T11:41:08.000Z</time>
      </trkpt>
      <trkpt lat="45.30559" lon="6.15504">
        <ele>2636</ele>
        <time>2020-02-08T11:41:15.000Z</time>
      </trkpt>
      <trkpt lat="45.30559" lon="6.15504">
        <ele>2636.1999511719</ele>
        <time>2020-02-08T11:41:16.000Z</time>
      </trkpt>
      <trkpt lat="45.30558" lon="6.15504">
        <ele>2637.1999511719</ele>
        <time>2020-02-08T11:41:21.000Z</time>
      </trkpt>
      <trkpt lat="45.30557" lon="6.15503">
        <ele>2637.3999023438</ele>
        <time>2020-02-08T11:41:24.000Z</time>
      </trkpt>
      <trkpt lat="45.30552" lon="6.155">
        <ele>2638.6000976562</ele>
        <time>2020-02-08T11:41:32.000Z</time>
      </trkpt>
      <trkpt lat="45.30552" lon="6.155">
        <ele>2638.8000488281</ele>
        <time>2020-02-08T11:41:33.000Z</time>
      </trkpt>
      <trkpt lat="45.30552" lon="6.15499">
        <ele>2639.3999023438</ele>
        <time>2020-02-08T11:41:42.000Z</time>
      </trkpt>
      <trkpt lat="45.30552" lon="6.15499">
        <ele>2639.6000976562</ele>
        <time>2020-02-08T11:41:43.000Z</time>
      </trkpt>
      <trkpt lat="45.30552" lon="6.15499">
        <ele>2639.6000976562</ele>
        <time>2020-02-08T11:41:51.000Z</time>
      </trkpt>
      <trkpt lat="45.30552" lon="6.15498">
        <ele>2640.1999511719</ele>
        <time>2020-02-08T11:41:59.000Z</time>
      </trkpt>
      <trkpt lat="45.30552" lon="6.15498">
        <ele>2640.8000488281</ele>
        <time>2020-02-08T11:42:02.000Z</time>
      </trkpt>
      <trkpt lat="45.30552" lon="6.15498">
        <ele>2641</ele>
        <time>2020-02-08T11:42:14.000Z</time>
      </trkpt>
      <trkpt lat="45.30552" lon="6.15498">
        <ele>2641.1999511719</ele>
        <time>2020-02-08T11:42:30.000Z</time>
      </trkpt>
      <trkpt lat="45.3055" lon="6.15497">
        <ele>2641.1999511719</ele>
        <time>2020-02-08T11:42:41.000Z</time>
      </trkpt>
      <trkpt lat="45.3055" lon="6.15497">
        <ele>2641.6000976562</ele>
        <time>2020-02-08T11:42:49.000Z</time>
      </trkpt>
      <trkpt lat="45.3055" lon="6.15497">
        <ele>2641.8000488281</ele>
        <time>2020-02-08T11:42:50.000Z</time>
      </trkpt>
      <trkpt lat="45.30549" lon="6.15496">
        <ele>2642.3999023438</ele>
        <time>2020-02-08T11:42:58.000Z</time>
      </trkpt>
      <trkpt lat="45.30549" lon="6.15495">
        <ele>2642.8000488281</ele>
        <time>2020-02-08T11:43:02.000Z</time>
      </trkpt>
      <trkpt lat="45.30549" lon="6.15495">
        <ele>2643.6000976562</ele>
        <time>2020-02-08T11:43:05.000Z</time>
      </trkpt>
      <trkpt lat="45.30549" lon="6.15495">
        <ele>2643.8000488281</ele>
        <time>2020-02-08T11:43:07.000Z</time>
      </trkpt>
      <trkpt lat="45.30548" lon="6.15494">
        <ele>2644.1999511719</ele>
        <time>2020-02-08T11:43:12.000Z</time>
      </trkpt>
      <trkpt lat="45.30548" lon="6.15494">
        <ele>2644.8000488281</ele>
        <time>2020-02-08T11:43:17.000Z</time>
      </trkpt>
      <trkpt lat="45.30548" lon="6.15494">
        <ele>2645.1999511719</ele>
        <time>2020-02-08T11:43:20.000Z</time>
      </trkpt>
      <trkpt lat="45.30548" lon="6.15494">
        <ele>2645.8000488281</ele>
        <time>2020-02-08T11:43:28.000Z</time>
      </trkpt>
      <trkpt lat="45.30548" lon="6.15494">
        <ele>2646.1999511719</ele>
        <time>2020-02-08T11:43:35.000Z</time>
      </trkpt>
      <trkpt lat="45.30548" lon="6.15494">
        <ele>2647</ele>
        <time>2020-02-08T11:43:44.000Z</time>
      </trkpt>
      <trkpt lat="45.30546" lon="6.15494">
        <ele>2647.6000976562</ele>
        <time>2020-02-08T11:43:52.000Z</time>
      </trkpt>
      <trkpt lat="45.30546" lon="6.15494">
        <ele>2648</ele>
        <time>2020-02-08T11:43:53.000Z</time>
      </trkpt>
      <trkpt lat="45.30546" lon="6.15494">
        <ele>2648.1999511719</ele>
        <time>2020-02-08T11:44:00.000Z</time>
      </trkpt>
      <trkpt lat="45.30546" lon="6.15494">
        <ele>2649</ele>
        <time>2020-02-08T11:44:07.000Z</time>
      </trkpt>
      <trkpt lat="45.30546" lon="6.15494">
        <ele>2649.1999511719</ele>
        <time>2020-02-08T11:44:09.000Z</time>
      </trkpt>
      <trkpt lat="45.30546" lon="6.15494">
        <ele>2650.1999511719</ele>
        <time>2020-02-08T11:44:18.000Z</time>
      </trkpt>
      <trkpt lat="45.30546" lon="6.15494">
        <ele>2650.3999023438</ele>
        <time>2020-02-08T11:44:20.000Z</time>
      </trkpt>
      <trkpt lat="45.30546" lon="6.15494">
        <ele>2650.8000488281</ele>
        <time>2020-02-08T11:44:34.000Z</time>
      </trkpt>
      <trkpt lat="45.30546" lon="6.15493">
        <ele>2650.8000488281</ele>
        <time>2020-02-08T11:44:49.000Z</time>
      </trkpt>
      <trkpt lat="45.30546" lon="6.15493">
        <ele>2651.1999511719</ele>
        <time>2020-02-08T11:44:57.000Z</time>
      </trkpt>
      <trkpt lat="45.30546" lon="6.15493">
        <ele>2651.3999023438</ele>
        <time>2020-02-08T11:44:59.000Z</time>
      </trkpt>
      <trkpt lat="45.30543" lon="6.15493">
        <ele>2652.1999511719</ele>
        <time>2020-02-08T11:45:02.000Z</time>
      </trkpt>
      <trkpt lat="45.3054" lon="6.15491">
        <ele>2653</ele>
        <time>2020-02-08T11:45:07.000Z</time>
      </trkpt>
      <trkpt lat="45.3054" lon="6.15491">
        <ele>2653.3999023438</ele>
        <time>2020-02-08T11:45:09.000Z</time>
      </trkpt>
      <trkpt lat="45.3054" lon="6.15491">
        <ele>2654.1999511719</ele>
        <time>2020-02-08T11:45:18.000Z</time>
      </trkpt>
      <trkpt lat="45.3054" lon="6.15491">
        <ele>2654.3999023438</ele>
        <time>2020-02-08T11:45:19.000Z</time>
      </trkpt>
      <trkpt lat="45.3054" lon="6.15491">
        <ele>2654.6000976562</ele>
        <time>2020-02-08T11:45:33.000Z</time>
      </trkpt>
      <trkpt lat="45.3054" lon="6.15491">
        <ele>2655.6000976562</ele>
        <time>2020-02-08T11:45:38.000Z</time>
      </trkpt>
      <trkpt lat="45.3054" lon="6.15491">
        <ele>2656.1999511719</ele>
        <time>2020-02-08T11:45:41.000Z</time>
      </trkpt>
      <trkpt lat="45.30541" lon="6.15491">
        <ele>2656.6000976562</ele>
        <time>2020-02-08T11:45:45.000Z</time>
      </trkpt>
      <trkpt lat="45.30541" lon="6.15491">
        <ele>2656.8000488281</ele>
        <time>2020-02-08T11:45:53.000Z</time>
      </trkpt>
      <trkpt lat="45.30541" lon="6.15491">
        <ele>2657.6000976562</ele>
        <time>2020-02-08T11:45:59.000Z</time>
      </trkpt>
      <trkpt lat="45.30541" lon="6.15491">
        <ele>2658.1999511719</ele>
        <time>2020-02-08T11:46:02.000Z</time>
      </trkpt>
      <trkpt lat="45.30541" lon="6.15491">
        <ele>2658.8000488281</ele>
        <time>2020-02-08T11:46:07.000Z</time>
      </trkpt>
      <trkpt lat="45.30541" lon="6.15491">
        <ele>2659.3999023438</ele>
        <time>2020-02-08T11:46:15.000Z</time>
      </trkpt>
      <trkpt lat="45.3054" lon="6.15491">
        <ele>2659.3999023438</ele>
        <time>2020-02-08T11:46:33.000Z</time>
      </trkpt>
      <trkpt lat="45.3054" lon="6.15491">
        <ele>2659.8000488281</ele>
        <time>2020-02-08T11:46:39.000Z</time>
      </trkpt>
      <trkpt lat="45.30536" lon="6.15491">
        <ele>2660.3999023438</ele>
        <time>2020-02-08T11:46:44.000Z</time>
      </trkpt>
      <trkpt lat="45.30526" lon="6.15489">
        <ele>2660.8000488281</ele>
        <time>2020-02-08T11:46:48.000Z</time>
      </trkpt>
      <trkpt lat="45.30526" lon="6.15489">
        <ele>2661.1999511719</ele>
        <time>2020-02-08T11:46:51.000Z</time>
      </trkpt>
      <trkpt lat="45.30526" lon="6.15489">
        <ele>2662</ele>
        <time>2020-02-08T11:46:54.000Z</time>
      </trkpt>
      <trkpt lat="45.30525" lon="6.15489">
        <ele>2662</ele>
        <time>2020-02-08T11:47:04.000Z</time>
      </trkpt>
      <trkpt lat="45.30523" lon="6.15488">
        <ele>2663</ele>
        <time>2020-02-08T11:47:12.000Z</time>
      </trkpt>
      <trkpt lat="45.30523" lon="6.15488">
        <ele>2663.1999511719</ele>
        <time>2020-02-08T11:47:13.000Z</time>
      </trkpt>
      <trkpt lat="45.30523" lon="6.15488">
        <ele>2664.3999023438</ele>
        <time>2020-02-08T11:47:21.000Z</time>
      </trkpt>
      <trkpt lat="45.30523" lon="6.15488">
        <ele>2664.3999023438</ele>
        <time>2020-02-08T11:47:22.000Z</time>
      </trkpt>
      <trkpt lat="45.30523" lon="6.15488">
        <ele>2665.1999511719</ele>
        <time>2020-02-08T11:47:41.000Z</time>
      </trkpt>
      <trkpt lat="45.30522" lon="6.15488">
        <ele>2665.6000976562</ele>
        <time>2020-02-08T11:47:47.000Z</time>
      </trkpt>
      <trkpt lat="45.30521" lon="6.15486">
        <ele>2666.1999511719</ele>
        <time>2020-02-08T11:47:49.000Z</time>
      </trkpt>
      <trkpt lat="45.30521" lon="6.15486">
        <ele>2666.6000976562</ele>
        <time>2020-02-08T11:47:51.000Z</time>
      </trkpt>
      <trkpt lat="45.3052" lon="6.15486">
        <ele>2666.8000488281</ele>
        <time>2020-02-08T11:47:58.000Z</time>
      </trkpt>
      <trkpt lat="45.30519" lon="6.15485">
        <ele>2667.6000976562</ele>
        <time>2020-02-08T11:48:05.000Z</time>
      </trkpt>
      <trkpt lat="45.30519" lon="6.15485">
        <ele>2667.8000488281</ele>
        <time>2020-02-08T11:48:06.000Z</time>
      </trkpt>
      <trkpt lat="45.30519" lon="6.15485">
        <ele>2668</ele>
        <time>2020-02-08T11:48:16.000Z</time>
      </trkpt>
      <trkpt lat="45.30519" lon="6.15485">
        <ele>2668.8000488281</ele>
        <time>2020-02-08T11:48:18.000Z</time>
      </trkpt>
      <trkpt lat="45.30518" lon="6.15485">
        <ele>2669.1999511719</ele>
        <time>2020-02-08T11:48:28.000Z</time>
      </trkpt>
      <trkpt lat="45.30518" lon="6.15485">
        <ele>2669.3999023438</ele>
        <time>2020-02-08T11:48:38.000Z</time>
      </trkpt>
      <trkpt lat="45.30517" lon="6.15484">
        <ele>2669.6000976562</ele>
        <time>2020-02-08T11:48:48.000Z</time>
      </trkpt>
      <trkpt lat="45.30517" lon="6.15484">
        <ele>2669.8000488281</ele>
        <time>2020-02-08T11:48:50.000Z</time>
      </trkpt>
      <trkpt lat="45.30516" lon="6.15483">
        <ele>2670.8000488281</ele>
        <time>2020-02-08T11:48:53.000Z</time>
      </trkpt>
      <trkpt lat="45.30516" lon="6.15483">
        <ele>2671</ele>
        <time>2020-02-08T11:48:56.000Z</time>
      </trkpt>
      <trkpt lat="45.30515" lon="6.15481">
        <ele>2671.1999511719</ele>
        <time>2020-02-08T11:49:01.000Z</time>
      </trkpt>
      <trkpt lat="45.30515" lon="6.15481">
        <ele>2672</ele>
        <time>2020-02-08T11:49:06.000Z</time>
      </trkpt>
      <trkpt lat="45.30515" lon="6.15481">
        <ele>2672.3999023438</ele>
        <time>2020-02-08T11:49:11.000Z</time>
      </trkpt>
      <trkpt lat="45.30514" lon="6.1548">
        <ele>2673</ele>
        <time>2020-02-08T11:49:17.000Z</time>
      </trkpt>
      <trkpt lat="45.30514" lon="6.15479">
        <ele>2673</ele>
        <time>2020-02-08T11:49:18.000Z</time>
      </trkpt>
      <trkpt lat="45.30513" lon="6.15478">
        <ele>2673.8000488281</ele>
        <time>2020-02-08T11:49:23.000Z</time>
      </trkpt>
      <trkpt lat="45.30513" lon="6.15478">
        <ele>2674.1999511719</ele>
        <time>2020-02-08T11:49:25.000Z</time>
      </trkpt>
      <trkpt lat="45.30513" lon="6.15478">
        <ele>2674.8000488281</ele>
        <time>2020-02-08T11:49:31.000Z</time>
      </trkpt>
      <trkpt lat="45.30513" lon="6.15478">
        <ele>2675.1999511719</ele>
        <time>2020-02-08T11:49:36.000Z</time>
      </trkpt>
      <trkpt lat="45.30513" lon="6.15477">
        <ele>2675.6000976562</ele>
        <time>2020-02-08T11:49:39.000Z</time>
      </trkpt>
      <trkpt lat="45.30512" lon="6.15477">
        <ele>2676</ele>
        <time>2020-02-08T11:49:44.000Z</time>
      </trkpt>
      <trkpt lat="45.30512" lon="6.15477">
        <ele>2676.1999511719</ele>
        <time>2020-02-08T11:49:47.000Z</time>
      </trkpt>
      <trkpt lat="45.30512" lon="6.15476">
        <ele>2676.8000488281</ele>
        <time>2020-02-08T11:49:51.000Z</time>
      </trkpt>
      <trkpt lat="45.30511" lon="6.15475">
        <ele>2677.3999023438</ele>
        <time>2020-02-08T11:49:59.000Z</time>
      </trkpt>
      <trkpt lat="45.30511" lon="6.15475">
        <ele>2677.6000976562</ele>
        <time>2020-02-08T11:50:00.000Z</time>
      </trkpt>
      <trkpt lat="45.30511" lon="6.15475">
        <ele>2678</ele>
        <time>2020-02-08T11:50:16.000Z</time>
      </trkpt>
      <trkpt lat="45.30511" lon="6.15475">
        <ele>2678.1999511719</ele>
        <time>2020-02-08T11:50:26.000Z</time>
      </trkpt>
      <trkpt lat="45.30511" lon="6.15475">
        <ele>2678.6000976562</ele>
        <time>2020-02-08T11:50:28.000Z</time>
      </trkpt>
      <trkpt lat="45.3051" lon="6.15475">
        <ele>2678.3999023438</ele>
        <time>2020-02-08T11:50:35.000Z</time>
      </trkpt>
      <trkpt lat="45.3051" lon="6.15475">
        <ele>2679.1999511719</ele>
        <time>2020-02-08T11:50:43.000Z</time>
      </trkpt>
      <trkpt lat="45.3051" lon="6.15475">
        <ele>2679.6000976562</ele>
        <time>2020-02-08T11:50:46.000Z</time>
      </trkpt>
      <trkpt lat="45.3051" lon="6.15475">
        <ele>2680.3999023438</ele>
        <time>2020-02-08T11:50:52.000Z</time>
      </trkpt>
      <trkpt lat="45.3051" lon="6.15475">
        <ele>2680.6000976562</ele>
        <time>2020-02-08T11:50:56.000Z</time>
      </trkpt>
      <trkpt lat="45.3051" lon="6.15475">
        <ele>2681.3999023438</ele>
        <time>2020-02-08T11:51:02.000Z</time>
      </trkpt>
      <trkpt lat="45.3051" lon="6.15475">
        <ele>2681.8000488281</ele>
        <time>2020-02-08T11:51:06.000Z</time>
      </trkpt>
      <trkpt lat="45.3051" lon="6.15475">
        <ele>2682.1999511719</ele>
        <time>2020-02-08T11:51:11.000Z</time>
      </trkpt>
      <trkpt lat="45.30509" lon="6.15474">
        <ele>2682.8000488281</ele>
        <time>2020-02-08T11:51:18.000Z</time>
      </trkpt>
      <trkpt lat="45.30509" lon="6.15474">
        <ele>2682.8000488281</ele>
        <time>2020-02-08T11:51:21.000Z</time>
      </trkpt>
      <trkpt lat="45.30509" lon="6.15474">
        <ele>2683.6000976562</ele>
        <time>2020-02-08T11:51:27.000Z</time>
      </trkpt>
      <trkpt lat="45.30509" lon="6.15474">
        <ele>2683.8000488281</ele>
        <time>2020-02-08T11:51:30.000Z</time>
      </trkpt>
      <trkpt lat="45.30509" lon="6.15474">
        <ele>2683.8000488281</ele>
        <time>2020-02-08T11:51:35.000Z</time>
      </trkpt>
      <trkpt lat="45.30509" lon="6.15474">
        <ele>2684.3999023438</ele>
        <time>2020-02-08T11:51:42.000Z</time>
      </trkpt>
      <trkpt lat="45.30508" lon="6.15473">
        <ele>2684.8000488281</ele>
        <time>2020-02-08T11:51:46.000Z</time>
      </trkpt>
      <trkpt lat="45.30508" lon="6.15473">
        <ele>2685</ele>
        <time>2020-02-08T11:51:48.000Z</time>
      </trkpt>
      <trkpt lat="45.30507" lon="6.15472">
        <ele>2686</ele>
        <time>2020-02-08T11:51:54.000Z</time>
      </trkpt>
      <trkpt lat="45.30506" lon="6.15472">
        <ele>2686.8000488281</ele>
        <time>2020-02-08T11:52:02.000Z</time>
      </trkpt>
      <trkpt lat="45.30506" lon="6.15472">
        <ele>2687</ele>
        <time>2020-02-08T11:52:04.000Z</time>
      </trkpt>
      <trkpt lat="45.30506" lon="6.15472">
        <ele>2687.8000488281</ele>
        <time>2020-02-08T11:52:11.000Z</time>
      </trkpt>
      <trkpt lat="45.30506" lon="6.15472">
        <ele>2688.3999023438</ele>
        <time>2020-02-08T11:52:19.000Z</time>
      </trkpt>
      <trkpt lat="45.30506" lon="6.15472">
        <ele>2688.3999023438</ele>
        <time>2020-02-08T11:52:24.000Z</time>
      </trkpt>
      <trkpt lat="45.30505" lon="6.15471">
        <ele>2689.1999511719</ele>
        <time>2020-02-08T11:52:32.000Z</time>
      </trkpt>
      <trkpt lat="45.30504" lon="6.1547">
        <ele>2689.1999511719</ele>
        <time>2020-02-08T11:52:38.000Z</time>
      </trkpt>
      <trkpt lat="45.30504" lon="6.1547">
        <ele>2689.3999023438</ele>
        <time>2020-02-08T11:52:40.000Z</time>
      </trkpt>
      <trkpt lat="45.30502" lon="6.15469">
        <ele>2690.1999511719</ele>
        <time>2020-02-08T11:52:44.000Z</time>
      </trkpt>
      <trkpt lat="45.305" lon="6.15467">
        <ele>2690.3999023438</ele>
        <time>2020-02-08T11:52:48.000Z</time>
      </trkpt>
      <trkpt lat="45.30499" lon="6.15466">
        <ele>2690.8000488281</ele>
        <time>2020-02-08T11:52:50.000Z</time>
      </trkpt>
      <trkpt lat="45.30499" lon="6.15466">
        <ele>2691.3999023438</ele>
        <time>2020-02-08T11:52:54.000Z</time>
      </trkpt>
      <trkpt lat="45.30499" lon="6.15466">
        <ele>2691.8000488281</ele>
        <time>2020-02-08T11:52:57.000Z</time>
      </trkpt>
      <trkpt lat="45.30499" lon="6.15465">
        <ele>2692.3999023438</ele>
        <time>2020-02-08T11:53:02.000Z</time>
      </trkpt>
      <trkpt lat="45.30498" lon="6.15465">
        <ele>2692.6000976562</ele>
        <time>2020-02-08T11:53:04.000Z</time>
      </trkpt>
      <trkpt lat="45.30497" lon="6.15464">
        <ele>2693.3999023438</ele>
        <time>2020-02-08T11:53:10.000Z</time>
      </trkpt>
      <trkpt lat="45.30496" lon="6.15463">
        <ele>2694.1999511719</ele>
        <time>2020-02-08T11:53:15.000Z</time>
      </trkpt>
      <trkpt lat="45.30496" lon="6.15463">
        <ele>2694.6000976562</ele>
        <time>2020-02-08T11:53:18.000Z</time>
      </trkpt>
      <trkpt lat="45.30496" lon="6.15463">
        <ele>2694.8000488281</ele>
        <time>2020-02-08T11:53:21.000Z</time>
      </trkpt>
      <trkpt lat="45.30496" lon="6.15463">
        <ele>2695.1999511719</ele>
        <time>2020-02-08T11:53:28.000Z</time>
      </trkpt>
      <trkpt lat="45.30496" lon="6.15463">
        <ele>2695.8000488281</ele>
        <time>2020-02-08T11:53:31.000Z</time>
      </trkpt>
      <trkpt lat="45.30496" lon="6.15463">
        <ele>2696.6000976562</ele>
        <time>2020-02-08T11:53:39.000Z</time>
      </trkpt>
      <trkpt lat="45.30496" lon="6.15463">
        <ele>2696.3999023438</ele>
        <time>2020-02-08T11:53:51.000Z</time>
      </trkpt>
      <trkpt lat="45.30496" lon="6.15463">
        <ele>2696.8000488281</ele>
        <time>2020-02-08T11:54:01.000Z</time>
      </trkpt>
      <trkpt lat="45.30496" lon="6.15463">
        <ele>2697</ele>
        <time>2020-02-08T11:54:07.000Z</time>
      </trkpt>
      <trkpt lat="45.30494" lon="6.15461">
        <ele>2697.6000976562</ele>
        <time>2020-02-08T11:54:16.000Z</time>
      </trkpt>
      <trkpt lat="45.30494" lon="6.15461">
        <ele>2698</ele>
        <time>2020-02-08T11:54:18.000Z</time>
      </trkpt>
      <trkpt lat="45.30494" lon="6.15461">
        <ele>2699</ele>
        <time>2020-02-08T11:54:23.000Z</time>
      </trkpt>
      <trkpt lat="45.30494" lon="6.15461">
        <ele>2699.1999511719</ele>
        <time>2020-02-08T11:54:24.000Z</time>
      </trkpt>
      <trkpt lat="45.30493" lon="6.1546">
        <ele>2700</ele>
        <time>2020-02-08T11:54:40.000Z</time>
      </trkpt>
      <trkpt lat="45.30493" lon="6.1546">
        <ele>2700.1999511719</ele>
        <time>2020-02-08T11:54:43.000Z</time>
      </trkpt>
      <trkpt lat="45.30493" lon="6.1546">
        <ele>2700.6000976562</ele>
        <time>2020-02-08T11:54:46.000Z</time>
      </trkpt>
      <trkpt lat="45.30493" lon="6.1546">
        <ele>2701.3999023438</ele>
        <time>2020-02-08T11:54:51.000Z</time>
      </trkpt>
      <trkpt lat="45.30491" lon="6.15459">
        <ele>2701.8000488281</ele>
        <time>2020-02-08T11:54:54.000Z</time>
      </trkpt>
      <trkpt lat="45.3049" lon="6.15458">
        <ele>2702.3999023438</ele>
        <time>2020-02-08T11:54:58.000Z</time>
      </trkpt>
      <trkpt lat="45.3049" lon="6.15458">
        <ele>2702.8000488281</ele>
        <time>2020-02-08T11:55:01.000Z</time>
      </trkpt>
      <trkpt lat="45.3049" lon="6.15458">
        <ele>2703.6000976562</ele>
        <time>2020-02-08T11:55:07.000Z</time>
      </trkpt>
      <trkpt lat="45.3049" lon="6.15458">
        <ele>2703.8000488281</ele>
        <time>2020-02-08T11:55:10.000Z</time>
      </trkpt>
      <trkpt lat="45.3049" lon="6.15458">
        <ele>2704.1999511719</ele>
        <time>2020-02-08T11:55:23.000Z</time>
      </trkpt>
      <trkpt lat="45.3049" lon="6.15458">
        <ele>2704.6000976562</ele>
        <time>2020-02-08T11:55:31.000Z</time>
      </trkpt>
      <trkpt lat="45.3049" lon="6.15458">
        <ele>2705.1999511719</ele>
        <time>2020-02-08T11:55:33.000Z</time>
      </trkpt>
      <trkpt lat="45.3049" lon="6.15458">
        <ele>2705.8000488281</ele>
        <time>2020-02-08T11:55:36.000Z</time>
      </trkpt>
      <trkpt lat="45.30489" lon="6.15457">
        <ele>2706</ele>
        <time>2020-02-08T11:55:41.000Z</time>
      </trkpt>
      <trkpt lat="45.30489" lon="6.15457">
        <ele>2706.8000488281</ele>
        <time>2020-02-08T11:55:46.000Z</time>
      </trkpt>
      <trkpt lat="45.30488" lon="6.15456">
        <ele>2707.3999023438</ele>
        <time>2020-02-08T11:55:51.000Z</time>
      </trkpt>
      <trkpt lat="45.30488" lon="6.15456">
        <ele>2708</ele>
        <time>2020-02-08T11:56:00.000Z</time>
      </trkpt>
      <trkpt lat="45.30488" lon="6.15456">
        <ele>2708.3999023438</ele>
        <time>2020-02-08T11:56:04.000Z</time>
      </trkpt>
      <trkpt lat="45.30488" lon="6.15456">
        <ele>2708.3999023438</ele>
        <time>2020-02-08T11:56:20.000Z</time>
      </trkpt>
      <trkpt lat="45.30487" lon="6.15456">
        <ele>2708.3999023438</ele>
        <time>2020-02-08T11:56:36.000Z</time>
      </trkpt>
      <trkpt lat="45.30486" lon="6.15456">
        <ele>2708.8000488281</ele>
        <time>2020-02-08T11:56:49.000Z</time>
      </trkpt>
      <trkpt lat="45.30486" lon="6.15456">
        <ele>2709</ele>
        <time>2020-02-08T11:56:51.000Z</time>
      </trkpt>
      <trkpt lat="45.30486" lon="6.15456">
        <ele>2710.1999511719</ele>
        <time>2020-02-08T11:57:02.000Z</time>
      </trkpt>
      <trkpt lat="45.30486" lon="6.15456">
        <ele>2710.1999511719</ele>
        <time>2020-02-08T11:57:19.000Z</time>
      </trkpt>
      <trkpt lat="45.30486" lon="6.15455">
        <ele>2710.1999511719</ele>
        <time>2020-02-08T11:57:33.000Z</time>
      </trkpt>
      <trkpt lat="45.30485" lon="6.15454">
        <ele>2711.1999511719</ele>
        <time>2020-02-08T11:57:40.000Z</time>
      </trkpt>
      <trkpt lat="45.30485" lon="6.15454">
        <ele>2711.1999511719</ele>
        <time>2020-02-08T11:57:41.000Z</time>
      </trkpt>
      <trkpt lat="45.30485" lon="6.15454">
        <ele>2712.3999023438</ele>
        <time>2020-02-08T11:57:48.000Z</time>
      </trkpt>
      <trkpt lat="45.30484" lon="6.15454">
        <ele>2712.8000488281</ele>
        <time>2020-02-08T11:57:51.000Z</time>
      </trkpt>
      <trkpt lat="45.30484" lon="6.15454">
        <ele>2713.8000488281</ele>
        <time>2020-02-08T11:57:55.000Z</time>
      </trkpt>
      <trkpt lat="45.30484" lon="6.15454">
        <ele>2714</ele>
        <time>2020-02-08T11:58:00.000Z</time>
      </trkpt>
      <trkpt lat="45.30482" lon="6.15452">
        <ele>2714.8000488281</ele>
        <time>2020-02-08T11:58:08.000Z</time>
      </trkpt>
      <trkpt lat="45.30482" lon="6.15452">
        <ele>2715.3999023438</ele>
        <time>2020-02-08T11:58:22.000Z</time>
      </trkpt>
      <trkpt lat="45.3048" lon="6.1545">
        <ele>2715.8000488281</ele>
        <time>2020-02-08T11:58:30.000Z</time>
      </trkpt>
      <trkpt lat="45.3048" lon="6.1545">
        <ele>2716</ele>
        <time>2020-02-08T11:58:32.000Z</time>
      </trkpt>
      <trkpt lat="45.30479" lon="6.15449">
        <ele>2717</ele>
        <time>2020-02-08T11:58:39.000Z</time>
      </trkpt>
      <trkpt lat="45.30479" lon="6.15449">
        <ele>2717</ele>
        <time>2020-02-08T11:58:40.000Z</time>
      </trkpt>
      <trkpt lat="45.30478" lon="6.1545">
        <ele>2718</ele>
        <time>2020-02-08T11:58:47.000Z</time>
      </trkpt>
      <trkpt lat="45.30477" lon="6.15449">
        <ele>2718.1999511719</ele>
        <time>2020-02-08T11:58:48.000Z</time>
      </trkpt>
      <trkpt lat="45.30477" lon="6.15449">
        <ele>2719</ele>
        <time>2020-02-08T11:58:55.000Z</time>
      </trkpt>
      <trkpt lat="45.30477" lon="6.15449">
        <ele>2719.3999023438</ele>
        <time>2020-02-08T11:58:58.000Z</time>
      </trkpt>
      <trkpt lat="45.30477" lon="6.15449">
        <ele>2720</ele>
        <time>2020-02-08T11:59:06.000Z</time>
      </trkpt>
      <trkpt lat="45.30477" lon="6.15449">
        <ele>2720.3999023438</ele>
        <time>2020-02-08T11:59:07.000Z</time>
      </trkpt>
      <trkpt lat="45.30477" lon="6.15449">
        <ele>2721</ele>
        <time>2020-02-08T11:59:16.000Z</time>
      </trkpt>
      <trkpt lat="45.30477" lon="6.15449">
        <ele>2721.3999023438</ele>
        <time>2020-02-08T11:59:22.000Z</time>
      </trkpt>
      <trkpt lat="45.30477" lon="6.15449">
        <ele>2721.6000976562</ele>
        <time>2020-02-08T11:59:25.000Z</time>
      </trkpt>
      <trkpt lat="45.30476" lon="6.1545">
        <ele>2722.3999023438</ele>
        <time>2020-02-08T11:59:34.000Z</time>
      </trkpt>
      <trkpt lat="45.30476" lon="6.1545">
        <ele>2722.3999023438</ele>
        <time>2020-02-08T11:59:35.000Z</time>
      </trkpt>
      <trkpt lat="45.30474" lon="6.1545">
        <ele>2723.6000976562</ele>
        <time>2020-02-08T11:59:45.000Z</time>
      </trkpt>
      <trkpt lat="45.30474" lon="6.1545">
        <ele>2724.1999511719</ele>
        <time>2020-02-08T11:59:46.000Z</time>
      </trkpt>
      <trkpt lat="45.3047" lon="6.15452">
        <ele>2724.6000976562</ele>
        <time>2020-02-08T11:59:47.000Z</time>
      </trkpt>
      <trkpt lat="45.3047" lon="6.15452">
        <ele>2724.3999023438</ele>
        <time>2020-02-08T11:59:54.000Z</time>
      </trkpt>
      <trkpt lat="45.30466" lon="6.15453">
        <ele>2725</ele>
        <time>2020-02-08T12:00:03.000Z</time>
      </trkpt>
      <trkpt lat="45.30466" lon="6.15453">
        <ele>2725.6000976562</ele>
        <time>2020-02-08T12:00:10.000Z</time>
      </trkpt>
      <trkpt lat="45.30463" lon="6.15455">
        <ele>2726</ele>
        <time>2020-02-08T12:00:13.000Z</time>
      </trkpt>
      <trkpt lat="45.30461" lon="6.15455">
        <ele>2726.3999023438</ele>
        <time>2020-02-08T12:00:19.000Z</time>
      </trkpt>
      <trkpt lat="45.3046" lon="6.15455">
        <ele>2726.8000488281</ele>
        <time>2020-02-08T12:00:22.000Z</time>
      </trkpt>
      <trkpt lat="45.30459" lon="6.15455">
        <ele>2726.6000976562</ele>
        <time>2020-02-08T12:00:25.000Z</time>
      </trkpt>
      <trkpt lat="45.30457" lon="6.15455">
        <ele>2727.6000976562</ele>
        <time>2020-02-08T12:00:33.000Z</time>
      </trkpt>
      <trkpt lat="45.30457" lon="6.15455">
        <ele>2727.8000488281</ele>
        <time>2020-02-08T12:00:34.000Z</time>
      </trkpt>
      <trkpt lat="45.30456" lon="6.15456">
        <ele>2728</ele>
        <time>2020-02-08T12:00:41.000Z</time>
      </trkpt>
      <trkpt lat="45.30455" lon="6.15456">
        <ele>2729</ele>
        <time>2020-02-08T12:00:48.000Z</time>
      </trkpt>
      <trkpt lat="45.30454" lon="6.15456">
        <ele>2729.6000976562</ele>
        <time>2020-02-08T12:00:55.000Z</time>
      </trkpt>
      <trkpt lat="45.30454" lon="6.15456">
        <ele>2730</ele>
        <time>2020-02-08T12:00:59.000Z</time>
      </trkpt>
      <trkpt lat="45.30453" lon="6.15456">
        <ele>2730.3999023438</ele>
        <time>2020-02-08T12:01:01.000Z</time>
      </trkpt>
      <trkpt lat="45.30452" lon="6.15456">
        <ele>2731.1999511719</ele>
        <time>2020-02-08T12:01:07.000Z</time>
      </trkpt>
      <trkpt lat="45.30452" lon="6.15456">
        <ele>2731.1999511719</ele>
        <time>2020-02-08T12:01:08.000Z</time>
      </trkpt>
      <trkpt lat="45.30452" lon="6.15456">
        <ele>2731.8000488281</ele>
        <time>2020-02-08T12:01:14.000Z</time>
      </trkpt>
      <trkpt lat="45.30452" lon="6.15456">
        <ele>2732.1999511719</ele>
        <time>2020-02-08T12:01:18.000Z</time>
      </trkpt>
      <trkpt lat="45.30452" lon="6.15456">
        <ele>2732.8000488281</ele>
        <time>2020-02-08T12:01:26.000Z</time>
      </trkpt>
      <trkpt lat="45.30452" lon="6.15456">
        <ele>2733</ele>
        <time>2020-02-08T12:01:37.000Z</time>
      </trkpt>
      <trkpt lat="45.30451" lon="6.15456">
        <ele>2733.1999511719</ele>
        <time>2020-02-08T12:01:43.000Z</time>
      </trkpt>
      <trkpt lat="45.30451" lon="6.15456">
        <ele>2733.1999511719</ele>
        <time>2020-02-08T12:01:44.000Z</time>
      </trkpt>
      <trkpt lat="45.30449" lon="6.15456">
        <ele>2733.3999023438</ele>
        <time>2020-02-08T12:01:49.000Z</time>
      </trkpt>
      <trkpt lat="45.30447" lon="6.15456">
        <ele>2734.3999023438</ele>
        <time>2020-02-08T12:01:55.000Z</time>
      </trkpt>
      <trkpt lat="45.30446" lon="6.15456">
        <ele>2734.8000488281</ele>
        <time>2020-02-08T12:01:57.000Z</time>
      </trkpt>
      <trkpt lat="45.30446" lon="6.15456">
        <ele>2735.3999023438</ele>
        <time>2020-02-08T12:02:01.000Z</time>
      </trkpt>
      <trkpt lat="45.30445" lon="6.15456">
        <ele>2736.3999023438</ele>
        <time>2020-02-08T12:02:06.000Z</time>
      </trkpt>
      <trkpt lat="45.30445" lon="6.15456">
        <ele>2736.3999023438</ele>
        <time>2020-02-08T12:02:07.000Z</time>
      </trkpt>
      <trkpt lat="45.30445" lon="6.15456">
        <ele>2737</ele>
        <time>2020-02-08T12:02:13.000Z</time>
      </trkpt>
      <trkpt lat="45.30444" lon="6.15456">
        <ele>2737.6000976562</ele>
        <time>2020-02-08T12:02:16.000Z</time>
      </trkpt>
      <trkpt lat="45.30444" lon="6.15456">
        <ele>2737.6000976562</ele>
        <time>2020-02-08T12:02:17.000Z</time>
      </trkpt>
      <trkpt lat="45.30444" lon="6.15456">
        <ele>2738.3999023438</ele>
        <time>2020-02-08T12:02:35.000Z</time>
      </trkpt>
      <trkpt lat="45.30444" lon="6.15456">
        <ele>2738.6000976562</ele>
        <time>2020-02-08T12:02:44.000Z</time>
      </trkpt>
      <trkpt lat="45.30443" lon="6.15455">
        <ele>2738.6000976562</ele>
        <time>2020-02-08T12:02:45.000Z</time>
      </trkpt>
      <trkpt lat="45.30442" lon="6.15454">
        <ele>2739.3999023438</ele>
        <time>2020-02-08T12:02:50.000Z</time>
      </trkpt>
      <trkpt lat="45.30442" lon="6.15454">
        <ele>2739.6000976562</ele>
        <time>2020-02-08T12:02:51.000Z</time>
      </trkpt>
      <trkpt lat="45.30442" lon="6.15454">
        <ele>2740.6000976562</ele>
        <time>2020-02-08T12:02:56.000Z</time>
      </trkpt>
      <trkpt lat="45.30442" lon="6.15454">
        <ele>2741.6000976562</ele>
        <time>2020-02-08T12:03:01.000Z</time>
      </trkpt>
      <trkpt lat="45.30442" lon="6.15454">
        <ele>2741.8000488281</ele>
        <time>2020-02-08T12:03:02.000Z</time>
      </trkpt>
      <trkpt lat="45.30442" lon="6.15454">
        <ele>2742.8000488281</ele>
        <time>2020-02-08T12:03:07.000Z</time>
      </trkpt>
      <trkpt lat="45.30442" lon="6.15454">
        <ele>2743.3999023438</ele>
        <time>2020-02-08T12:03:09.000Z</time>
      </trkpt>
      <trkpt lat="45.30442" lon="6.15454">
        <ele>2743.8000488281</ele>
        <time>2020-02-08T12:03:14.000Z</time>
      </trkpt>
      <trkpt lat="45.30442" lon="6.15454">
        <ele>2744.1999511719</ele>
        <time>2020-02-08T12:03:19.000Z</time>
      </trkpt>
      <trkpt lat="45.30441" lon="6.15455">
        <ele>2744.3999023438</ele>
        <time>2020-02-08T12:03:37.000Z</time>
      </trkpt>
      <trkpt lat="45.30441" lon="6.15455">
        <ele>2744.6000976562</ele>
        <time>2020-02-08T12:03:50.000Z</time>
      </trkpt>
      <trkpt lat="45.30441" lon="6.15455">
        <ele>2744.3999023438</ele>
        <time>2020-02-08T12:04:06.000Z</time>
      </trkpt>
      <trkpt lat="45.3044" lon="6.15455">
        <ele>2744.3999023438</ele>
        <time>2020-02-08T12:04:24.000Z</time>
      </trkpt>
      <trkpt lat="45.3044" lon="6.15455">
        <ele>2744.3999023438</ele>
        <time>2020-02-08T12:04:34.000Z</time>
      </trkpt>
      <trkpt lat="45.30439" lon="6.15456">
        <ele>2744.3999023438</ele>
        <time>2020-02-08T12:04:53.000Z</time>
      </trkpt>
      <trkpt lat="45.30438" lon="6.15455">
        <ele>2745</ele>
        <time>2020-02-08T12:04:58.000Z</time>
      </trkpt>
      <trkpt lat="45.30438" lon="6.15455">
        <ele>2745.3999023438</ele>
        <time>2020-02-08T12:05:00.000Z</time>
      </trkpt>
      <trkpt lat="45.30438" lon="6.15455">
        <ele>2745.6000976562</ele>
        <time>2020-02-08T12:05:01.000Z</time>
      </trkpt>
      <trkpt lat="45.30437" lon="6.15455">
        <ele>2746.1999511719</ele>
        <time>2020-02-08T12:05:05.000Z</time>
      </trkpt>
      <trkpt lat="45.30436" lon="6.15454">
        <ele>2747</ele>
        <time>2020-02-08T12:05:11.000Z</time>
      </trkpt>
      <trkpt lat="45.30436" lon="6.15454">
        <ele>2747.1999511719</ele>
        <time>2020-02-08T12:05:12.000Z</time>
      </trkpt>
      <trkpt lat="45.30435" lon="6.15454">
        <ele>2748.1999511719</ele>
        <time>2020-02-08T12:05:19.000Z</time>
      </trkpt>
      <trkpt lat="45.30435" lon="6.15454">
        <ele>2748.1999511719</ele>
        <time>2020-02-08T12:05:20.000Z</time>
      </trkpt>
      <trkpt lat="45.30435" lon="6.15454">
        <ele>2749.3999023438</ele>
        <time>2020-02-08T12:05:23.000Z</time>
      </trkpt>
      <trkpt lat="45.30433" lon="6.15453">
        <ele>2749.8000488281</ele>
        <time>2020-02-08T12:05:30.000Z</time>
      </trkpt>
      <trkpt lat="45.30432" lon="6.15453">
        <ele>2750.3999023438</ele>
        <time>2020-02-08T12:05:33.000Z</time>
      </trkpt>
      <trkpt lat="45.30432" lon="6.15453">
        <ele>2750.6000976562</ele>
        <time>2020-02-08T12:05:34.000Z</time>
      </trkpt>
      <trkpt lat="45.30431" lon="6.15453">
        <ele>2751.6000976562</ele>
        <time>2020-02-08T12:05:40.000Z</time>
      </trkpt>
      <trkpt lat="45.30431" lon="6.15453">
        <ele>2751.8000488281</ele>
        <time>2020-02-08T12:05:41.000Z</time>
      </trkpt>
      <trkpt lat="45.3043" lon="6.15452">
        <ele>2752.6000976562</ele>
        <time>2020-02-08T12:05:50.000Z</time>
      </trkpt>
      <trkpt lat="45.3043" lon="6.15452">
        <ele>2752.8000488281</ele>
        <time>2020-02-08T12:05:54.000Z</time>
      </trkpt>
      <trkpt lat="45.30428" lon="6.1545">
        <ele>2753.3999023438</ele>
        <time>2020-02-08T12:06:01.000Z</time>
      </trkpt>
      <trkpt lat="45.30428" lon="6.1545">
        <ele>2753.8000488281</ele>
        <time>2020-02-08T12:06:05.000Z</time>
      </trkpt>
      <trkpt lat="45.30429" lon="6.15451">
        <ele>2754.3999023438</ele>
        <time>2020-02-08T12:06:09.000Z</time>
      </trkpt>
      <trkpt lat="45.30429" lon="6.15451">
        <ele>2754.8000488281</ele>
        <time>2020-02-08T12:06:11.000Z</time>
      </trkpt>
      <trkpt lat="45.30428" lon="6.1545">
        <ele>2755.3999023438</ele>
        <time>2020-02-08T12:06:15.000Z</time>
      </trkpt>
      <trkpt lat="45.30428" lon="6.1545">
        <ele>2755.8000488281</ele>
        <time>2020-02-08T12:06:19.000Z</time>
      </trkpt>
      <trkpt lat="45.30428" lon="6.15449">
        <ele>2756.3999023438</ele>
        <time>2020-02-08T12:06:21.000Z</time>
      </trkpt>
      <trkpt lat="45.30427" lon="6.15449">
        <ele>2756.8000488281</ele>
        <time>2020-02-08T12:06:24.000Z</time>
      </trkpt>
      <trkpt lat="45.30427" lon="6.15449">
        <ele>2757.1999511719</ele>
        <time>2020-02-08T12:06:27.000Z</time>
      </trkpt>
      <trkpt lat="45.30427" lon="6.15448">
        <ele>2758</ele>
        <time>2020-02-08T12:06:32.000Z</time>
      </trkpt>
      <trkpt lat="45.30427" lon="6.15448">
        <ele>2758.1999511719</ele>
        <time>2020-02-08T12:06:34.000Z</time>
      </trkpt>
      <trkpt lat="45.30426" lon="6.15447">
        <ele>2759</ele>
        <time>2020-02-08T12:06:41.000Z</time>
      </trkpt>
      <trkpt lat="45.30426" lon="6.15447">
        <ele>2759.1999511719</ele>
        <time>2020-02-08T12:06:42.000Z</time>
      </trkpt>
      <trkpt lat="45.30426" lon="6.15446">
        <ele>2759.3999023438</ele>
        <time>2020-02-08T12:06:50.000Z</time>
      </trkpt>
      <trkpt lat="45.30425" lon="6.15445">
        <ele>2760</ele>
        <time>2020-02-08T12:06:55.000Z</time>
      </trkpt>
      <trkpt lat="45.30425" lon="6.15445">
        <ele>2760.1999511719</ele>
        <time>2020-02-08T12:06:57.000Z</time>
      </trkpt>
      <trkpt lat="45.30425" lon="6.15444">
        <ele>2761</ele>
        <time>2020-02-08T12:07:02.000Z</time>
      </trkpt>
      <trkpt lat="45.30425" lon="6.15444">
        <ele>2761.1999511719</ele>
        <time>2020-02-08T12:07:03.000Z</time>
      </trkpt>
      <trkpt lat="45.30425" lon="6.15444">
        <ele>2761.1999511719</ele>
        <time>2020-02-08T12:07:13.000Z</time>
      </trkpt>
      <trkpt lat="45.30425" lon="6.15444">
        <ele>2761.1999511719</ele>
        <time>2020-02-08T12:07:33.000Z</time>
      </trkpt>
      <trkpt lat="45.30425" lon="6.15443">
        <ele>2761.1999511719</ele>
        <time>2020-02-08T12:07:50.000Z</time>
      </trkpt>
      <trkpt lat="45.30425" lon="6.15443">
        <ele>2761</ele>
        <time>2020-02-08T12:08:06.000Z</time>
      </trkpt>
      <trkpt lat="45.30425" lon="6.15444">
        <ele>2761.1999511719</ele>
        <time>2020-02-08T12:08:24.000Z</time>
      </trkpt>
      <trkpt lat="45.30425" lon="6.15444">
        <ele>2761</ele>
        <time>2020-02-08T12:08:33.000Z</time>
      </trkpt>
      <trkpt lat="45.30426" lon="6.15443">
        <ele>2760.6000976562</ele>
        <time>2020-02-08T12:08:42.000Z</time>
      </trkpt>
      <trkpt lat="45.30426" lon="6.15445">
        <ele>2760.1999511719</ele>
        <time>2020-02-08T12:08:50.000Z</time>
      </trkpt>
      <trkpt lat="45.30427" lon="6.15445">
        <ele>2759.8000488281</ele>
        <time>2020-02-08T12:08:52.000Z</time>
      </trkpt>
      <trkpt lat="45.30427" lon="6.15445">
        <ele>2759</ele>
        <time>2020-02-08T12:08:57.000Z</time>
      </trkpt>
      <trkpt lat="45.30427" lon="6.15445">
        <ele>2758.8000488281</ele>
        <time>2020-02-08T12:08:58.000Z</time>
      </trkpt>
      <trkpt lat="45.30427" lon="6.15445">
        <ele>2758.6000976562</ele>
        <time>2020-02-08T12:09:13.000Z</time>
      </trkpt>
      <trkpt lat="45.30429" lon="6.15446">
        <ele>2757.6000976562</ele>
        <time>2020-02-08T12:09:21.000Z</time>
      </trkpt>
      <trkpt lat="45.3043" lon="6.15448">
        <ele>2757</ele>
        <time>2020-02-08T12:09:26.000Z</time>
      </trkpt>
      <trkpt lat="45.3043" lon="6.15448">
        <ele>2756.6000976562</ele>
        <time>2020-02-08T12:09:27.000Z</time>
      </trkpt>
      <trkpt lat="45.3043" lon="6.15448">
        <ele>2755.1999511719</ele>
        <time>2020-02-08T12:09:32.000Z</time>
      </trkpt>
      <trkpt lat="45.3043" lon="6.15448">
        <ele>2755</ele>
        <time>2020-02-08T12:09:33.000Z</time>
      </trkpt>
      <trkpt lat="45.30431" lon="6.15448">
        <ele>2754.3999023438</ele>
        <time>2020-02-08T12:09:38.000Z</time>
      </trkpt>
      <trkpt lat="45.30433" lon="6.15449">
        <ele>2754.1999511719</ele>
        <time>2020-02-08T12:09:41.000Z</time>
      </trkpt>
      <trkpt lat="45.30434" lon="6.1545">
        <ele>2753.3999023438</ele>
        <time>2020-02-08T12:09:43.000Z</time>
      </trkpt>
      <trkpt lat="45.30435" lon="6.1545">
        <ele>2752.8000488281</ele>
        <time>2020-02-08T12:09:45.000Z</time>
      </trkpt>
      <trkpt lat="45.30435" lon="6.1545">
        <ele>2751.3999023438</ele>
        <time>2020-02-08T12:09:49.000Z</time>
      </trkpt>
      <trkpt lat="45.30435" lon="6.1545">
        <ele>2751</ele>
        <time>2020-02-08T12:09:53.000Z</time>
      </trkpt>
      <trkpt lat="45.30435" lon="6.1545">
        <ele>2750.3999023438</ele>
        <time>2020-02-08T12:10:00.000Z</time>
      </trkpt>
      <trkpt lat="45.30435" lon="6.1545">
        <ele>2750.1999511719</ele>
        <time>2020-02-08T12:10:01.000Z</time>
      </trkpt>
      <trkpt lat="45.30435" lon="6.15451">
        <ele>2749.3999023438</ele>
        <time>2020-02-08T12:10:05.000Z</time>
      </trkpt>
      <trkpt lat="45.30437" lon="6.15452">
        <ele>2748.3999023438</ele>
        <time>2020-02-08T12:10:09.000Z</time>
      </trkpt>
      <trkpt lat="45.30437" lon="6.15452">
        <ele>2748.1999511719</ele>
        <time>2020-02-08T12:10:10.000Z</time>
      </trkpt>
      <trkpt lat="45.30437" lon="6.15452">
        <ele>2747.1999511719</ele>
        <time>2020-02-08T12:10:16.000Z</time>
      </trkpt>
      <trkpt lat="45.30437" lon="6.15452">
        <ele>2746.8000488281</ele>
        <time>2020-02-08T12:10:23.000Z</time>
      </trkpt>
      <trkpt lat="45.30437" lon="6.15452">
        <ele>2747.1999511719</ele>
        <time>2020-02-08T12:10:35.000Z</time>
      </trkpt>
      <trkpt lat="45.30437" lon="6.15452">
        <ele>2747</ele>
        <time>2020-02-08T12:10:50.000Z</time>
      </trkpt>
      <trkpt lat="45.30437" lon="6.15452">
        <ele>2747.1999511719</ele>
        <time>2020-02-08T12:11:08.000Z</time>
      </trkpt>
      <trkpt lat="45.30438" lon="6.15452">
        <ele>2747.1999511719</ele>
        <time>2020-02-08T12:11:17.000Z</time>
      </trkpt>
      <trkpt lat="45.30439" lon="6.15452">
        <ele>2746.3999023438</ele>
        <time>2020-02-08T12:11:26.000Z</time>
      </trkpt>
      <trkpt lat="45.30439" lon="6.15452">
        <ele>2746.1999511719</ele>
        <time>2020-02-08T12:11:29.000Z</time>
      </trkpt>
      <trkpt lat="45.3044" lon="6.15453">
        <ele>2746</ele>
        <time>2020-02-08T12:11:30.000Z</time>
      </trkpt>
      <trkpt lat="45.3044" lon="6.15453">
        <ele>2745.3999023438</ele>
        <time>2020-02-08T12:11:32.000Z</time>
      </trkpt>
      <trkpt lat="45.3044" lon="6.15453">
        <ele>2745.1999511719</ele>
        <time>2020-02-08T12:11:34.000Z</time>
      </trkpt>
      <trkpt lat="45.3044" lon="6.15454">
        <ele>2744.6000976562</ele>
        <time>2020-02-08T12:11:38.000Z</time>
      </trkpt>
      <trkpt lat="45.3044" lon="6.15455">
        <ele>2744</ele>
        <time>2020-02-08T12:11:42.000Z</time>
      </trkpt>
      <trkpt lat="45.3044" lon="6.15455">
        <ele>2743.8000488281</ele>
        <time>2020-02-08T12:11:45.000Z</time>
      </trkpt>
      <trkpt lat="45.30442" lon="6.15455">
        <ele>2744.1999511719</ele>
        <time>2020-02-08T12:11:52.000Z</time>
      </trkpt>
      <trkpt lat="45.30442" lon="6.15455">
        <ele>2742.8000488281</ele>
        <time>2020-02-08T12:11:56.000Z</time>
      </trkpt>
      <trkpt lat="45.30443" lon="6.15455">
        <ele>2741.6000976562</ele>
        <time>2020-02-08T12:11:59.000Z</time>
      </trkpt>
      <trkpt lat="45.30446" lon="6.15456">
        <ele>2740.6000976562</ele>
        <time>2020-02-08T12:12:03.000Z</time>
      </trkpt>
      <trkpt lat="45.30447" lon="6.15456">
        <ele>2740</ele>
        <time>2020-02-08T12:12:05.000Z</time>
      </trkpt>
      <trkpt lat="45.30446" lon="6.15456">
        <ele>2739.6000976562</ele>
        <time>2020-02-08T12:12:06.000Z</time>
      </trkpt>
      <trkpt lat="45.30448" lon="6.15456">
        <ele>2738.6000976562</ele>
        <time>2020-02-08T12:12:09.000Z</time>
      </trkpt>
      <trkpt lat="45.30448" lon="6.15456">
        <ele>2738.1999511719</ele>
        <time>2020-02-08T12:12:10.000Z</time>
      </trkpt>
      <trkpt lat="45.30449" lon="6.15457">
        <ele>2737.1999511719</ele>
        <time>2020-02-08T12:12:15.000Z</time>
      </trkpt>
      <trkpt lat="45.3045" lon="6.15457">
        <ele>2735.8000488281</ele>
        <time>2020-02-08T12:12:20.000Z</time>
      </trkpt>
      <trkpt lat="45.3045" lon="6.15457">
        <ele>2735.3999023438</ele>
        <time>2020-02-08T12:12:21.000Z</time>
      </trkpt>
      <trkpt lat="45.3045" lon="6.15457">
        <ele>2735.1999511719</ele>
        <time>2020-02-08T12:12:28.000Z</time>
      </trkpt>
      <trkpt lat="45.30452" lon="6.15458">
        <ele>2734.6000976562</ele>
        <time>2020-02-08T12:12:32.000Z</time>
      </trkpt>
      <trkpt lat="45.30452" lon="6.15458">
        <ele>2734.3999023438</ele>
        <time>2020-02-08T12:12:33.000Z</time>
      </trkpt>
      <trkpt lat="45.30452" lon="6.15458">
        <ele>2733.6000976562</ele>
        <time>2020-02-08T12:12:36.000Z</time>
      </trkpt>
      <trkpt lat="45.30452" lon="6.15458">
        <ele>2732.6000976562</ele>
        <time>2020-02-08T12:12:41.000Z</time>
      </trkpt>
      <trkpt lat="45.30452" lon="6.15458">
        <ele>2732.1999511719</ele>
        <time>2020-02-08T12:12:42.000Z</time>
      </trkpt>
      <trkpt lat="45.30452" lon="6.15458">
        <ele>2732.1999511719</ele>
        <time>2020-02-08T12:12:54.000Z</time>
      </trkpt>
      <trkpt lat="45.30452" lon="6.15458">
        <ele>2731.8000488281</ele>
        <time>2020-02-08T12:13:11.000Z</time>
      </trkpt>
      <trkpt lat="45.30452" lon="6.15458">
        <ele>2731.8000488281</ele>
        <time>2020-02-08T12:13:24.000Z</time>
      </trkpt>
      <trkpt lat="45.30452" lon="6.15458">
        <ele>2731.6000976562</ele>
        <time>2020-02-08T12:13:39.000Z</time>
      </trkpt>
      <trkpt lat="45.30452" lon="6.15458">
        <ele>2733</ele>
        <time>2020-02-08T12:13:58.000Z</time>
      </trkpt>
      <trkpt lat="45.30453" lon="6.15459">
        <ele>2732.6000976562</ele>
        <time>2020-02-08T12:14:13.000Z</time>
      </trkpt>
      <trkpt lat="45.30453" lon="6.15459">
        <ele>2732.1999511719</ele>
        <time>2020-02-08T12:14:26.000Z</time>
      </trkpt>
      <trkpt lat="45.30453" lon="6.15459">
        <ele>2732.1999511719</ele>
        <time>2020-02-08T12:14:50.000Z</time>
      </trkpt>
      <trkpt lat="45.30453" lon="6.15459">
        <ele>2732</ele>
        <time>2020-02-08T12:15:11.000Z</time>
      </trkpt>
      <trkpt lat="45.30454" lon="6.15459">
        <ele>2732.3999023438</ele>
        <time>2020-02-08T12:15:34.000Z</time>
      </trkpt>
      <trkpt lat="45.30454" lon="6.15459">
        <ele>2732.3999023438</ele>
        <time>2020-02-08T12:15:55.000Z</time>
      </trkpt>
      <trkpt lat="45.30454" lon="6.15459">
        <ele>2732.3999023438</ele>
        <time>2020-02-08T12:16:07.000Z</time>
      </trkpt>
      <trkpt lat="45.30454" lon="6.15459">
        <ele>2732.6000976562</ele>
        <time>2020-02-08T12:16:28.000Z</time>
      </trkpt>
      <trkpt lat="45.30454" lon="6.15459">
        <ele>2732.6000976562</ele>
        <time>2020-02-08T12:16:49.000Z</time>
      </trkpt>
      <trkpt lat="45.30454" lon="6.15459">
        <ele>2732.8000488281</ele>
        <time>2020-02-08T12:17:07.000Z</time>
      </trkpt>
      <trkpt lat="45.30455" lon="6.15459">
        <ele>2732.3999023438</ele>
        <time>2020-02-08T12:17:25.000Z</time>
      </trkpt>
      <trkpt lat="45.30455" lon="6.15459">
        <ele>2732.8000488281</ele>
        <time>2020-02-08T12:17:39.000Z</time>
      </trkpt>
      <trkpt lat="45.30455" lon="6.15459">
        <ele>2732.6000976562</ele>
        <time>2020-02-08T12:17:58.000Z</time>
      </trkpt>
      <trkpt lat="45.30455" lon="6.1546">
        <ele>2732.6000976562</ele>
        <time>2020-02-08T12:18:17.000Z</time>
      </trkpt>
      <trkpt lat="45.30455" lon="6.1546">
        <ele>2732</ele>
        <time>2020-02-08T12:18:27.000Z</time>
      </trkpt>
      <trkpt lat="45.30455" lon="6.1546">
        <ele>2733.1999511719</ele>
        <time>2020-02-08T12:18:37.000Z</time>
      </trkpt>
      <trkpt lat="45.30455" lon="6.15459">
        <ele>2734</ele>
        <time>2020-02-08T12:18:41.000Z</time>
      </trkpt>
      <trkpt lat="45.30455" lon="6.15459">
        <ele>2733</ele>
        <time>2020-02-08T12:19:01.000Z</time>
      </trkpt>
      <trkpt lat="45.30455" lon="6.15459">
        <ele>2732.8000488281</ele>
        <time>2020-02-08T12:19:12.000Z</time>
      </trkpt>
      <trkpt lat="45.30455" lon="6.15459">
        <ele>2732.6000976562</ele>
        <time>2020-02-08T12:19:24.000Z</time>
      </trkpt>
      <trkpt lat="45.30455" lon="6.15459">
        <ele>2732.3999023438</ele>
        <time>2020-02-08T12:19:42.000Z</time>
      </trkpt>
      <trkpt lat="45.30456" lon="6.15459">
        <ele>2732</ele>
        <time>2020-02-08T12:19:58.000Z</time>
      </trkpt>
      <trkpt lat="45.30456" lon="6.15459">
        <ele>2732.1999511719</ele>
        <time>2020-02-08T12:20:15.000Z</time>
      </trkpt>
      <trkpt lat="45.30456" lon="6.15459">
        <ele>2733.1999511719</ele>
        <time>2020-02-08T12:20:18.000Z</time>
      </trkpt>
      <trkpt lat="45.30456" lon="6.15459">
        <ele>2734.1999511719</ele>
        <time>2020-02-08T12:20:22.000Z</time>
      </trkpt>
      <trkpt lat="45.30455" lon="6.1546">
        <ele>2733.1999511719</ele>
        <time>2020-02-08T12:20:28.000Z</time>
      </trkpt>
      <trkpt lat="45.30455" lon="6.1546">
        <ele>2731.6000976562</ele>
        <time>2020-02-08T12:20:33.000Z</time>
      </trkpt>
      <trkpt lat="45.30455" lon="6.1546">
        <ele>2732.3999023438</ele>
        <time>2020-02-08T12:20:37.000Z</time>
      </trkpt>
      <trkpt lat="45.30455" lon="6.1546">
        <ele>2733.6000976562</ele>
        <time>2020-02-08T12:20:38.000Z</time>
      </trkpt>
      <trkpt lat="45.30455" lon="6.1546">
        <ele>2733.6000976562</ele>
        <time>2020-02-08T12:20:52.000Z</time>
      </trkpt>
      <trkpt lat="45.30455" lon="6.1546">
        <ele>2733.1999511719</ele>
        <time>2020-02-08T12:21:08.000Z</time>
      </trkpt>
      <trkpt lat="45.30455" lon="6.1546">
        <ele>2733.1999511719</ele>
        <time>2020-02-08T12:21:27.000Z</time>
      </trkpt>
      <trkpt lat="45.30455" lon="6.1546">
        <ele>2733</ele>
        <time>2020-02-08T12:21:42.000Z</time>
      </trkpt>
      <trkpt lat="45.30455" lon="6.1546">
        <ele>2733</ele>
        <time>2020-02-08T12:21:59.000Z</time>
      </trkpt>
      <trkpt lat="45.30455" lon="6.1546">
        <ele>2732.8000488281</ele>
        <time>2020-02-08T12:22:13.000Z</time>
      </trkpt>
      <trkpt lat="45.30455" lon="6.1546">
        <ele>2733</ele>
        <time>2020-02-08T12:22:20.000Z</time>
      </trkpt>
      <trkpt lat="45.30455" lon="6.1546">
        <ele>2732.6000976562</ele>
        <time>2020-02-08T12:22:32.000Z</time>
      </trkpt>
      <trkpt lat="45.30455" lon="6.1546">
        <ele>2732.3999023438</ele>
        <time>2020-02-08T12:22:49.000Z</time>
      </trkpt>
      <trkpt lat="45.30455" lon="6.1546">
        <ele>2732.3999023438</ele>
        <time>2020-02-08T12:23:03.000Z</time>
      </trkpt>
      <trkpt lat="45.30455" lon="6.1546">
        <ele>2733</ele>
        <time>2020-02-08T12:23:12.000Z</time>
      </trkpt>
      <trkpt lat="45.30455" lon="6.1546">
        <ele>2733</ele>
        <time>2020-02-08T12:23:27.000Z</time>
      </trkpt>
      <trkpt lat="45.30455" lon="6.1546">
        <ele>2733</ele>
        <time>2020-02-08T12:23:40.000Z</time>
      </trkpt>
      <trkpt lat="45.30455" lon="6.1546">
        <ele>2733.1999511719</ele>
        <time>2020-02-08T12:23:51.000Z</time>
      </trkpt>
      <trkpt lat="45.30455" lon="6.1546">
        <ele>2733.1999511719</ele>
        <time>2020-02-08T12:24:04.000Z</time>
      </trkpt>
      <trkpt lat="45.30455" lon="6.15461">
        <ele>2733</ele>
        <time>2020-02-08T12:24:16.000Z</time>
      </trkpt>
      <trkpt lat="45.30455" lon="6.15461">
        <ele>2733.1999511719</ele>
        <time>2020-02-08T12:24:31.000Z</time>
      </trkpt>
      <trkpt lat="45.30455" lon="6.15461">
        <ele>2733.1999511719</ele>
        <time>2020-02-08T12:24:43.000Z</time>
      </trkpt>
      <trkpt lat="45.30455" lon="6.15461">
        <ele>2733</ele>
        <time>2020-02-08T12:24:54.000Z</time>
      </trkpt>
      <trkpt lat="45.30455" lon="6.15461">
        <ele>2733</ele>
        <time>2020-02-08T12:25:05.000Z</time>
      </trkpt>
      <trkpt lat="45.30455" lon="6.15461">
        <ele>2733</ele>
        <time>2020-02-08T12:25:16.000Z</time>
      </trkpt>
      <trkpt lat="45.30455" lon="6.15461">
        <ele>2732.8000488281</ele>
        <time>2020-02-08T12:25:32.000Z</time>
      </trkpt>
      <trkpt lat="45.30455" lon="6.15461">
        <ele>2732.8000488281</ele>
        <time>2020-02-08T12:25:42.000Z</time>
      </trkpt>
      <trkpt lat="45.30455" lon="6.15461">
        <ele>2733</ele>
        <time>2020-02-08T12:25:54.000Z</time>
      </trkpt>
      <trkpt lat="45.30456" lon="6.15461">
        <ele>2733</ele>
        <time>2020-02-08T12:26:02.000Z</time>
      </trkpt>
      <trkpt lat="45.30455" lon="6.1546">
        <ele>2733</ele>
        <time>2020-02-08T12:26:10.000Z</time>
      </trkpt>
      <trkpt lat="45.30455" lon="6.1546">
        <ele>2732.8000488281</ele>
        <time>2020-02-08T12:26:19.000Z</time>
      </trkpt>
      <trkpt lat="45.30455" lon="6.1546">
        <ele>2733.6000976562</ele>
        <time>2020-02-08T12:26:32.000Z</time>
      </trkpt>
      <trkpt lat="45.30455" lon="6.1546">
        <ele>2733.6000976562</ele>
        <time>2020-02-08T12:26:34.000Z</time>
      </trkpt>
      <trkpt lat="45.30455" lon="6.1546">
        <ele>2732.6000976562</ele>
        <time>2020-02-08T12:26:45.000Z</time>
      </trkpt>
      <trkpt lat="45.30455" lon="6.1546">
        <ele>2732.3999023438</ele>
        <time>2020-02-08T12:26:47.000Z</time>
      </trkpt>
      <trkpt lat="45.30455" lon="6.1546">
        <ele>2733.8000488281</ele>
        <time>2020-02-08T12:26:54.000Z</time>
      </trkpt>
      <trkpt lat="45.30455" lon="6.1546">
        <ele>2733</ele>
        <time>2020-02-08T12:27:02.000Z</time>
      </trkpt>
      <trkpt lat="45.30455" lon="6.1546">
        <ele>2733.8000488281</ele>
        <time>2020-02-08T12:27:13.000Z</time>
      </trkpt>
      <trkpt lat="45.30455" lon="6.1546">
        <ele>2732.8000488281</ele>
        <time>2020-02-08T12:27:25.000Z</time>
      </trkpt>
      <trkpt lat="45.30455" lon="6.1546">
        <ele>2732.6000976562</ele>
        <time>2020-02-08T12:27:28.000Z</time>
      </trkpt>
      <trkpt lat="45.30455" lon="6.15459">
        <ele>2732.6000976562</ele>
        <time>2020-02-08T12:27:47.000Z</time>
      </trkpt>
      <trkpt lat="45.30455" lon="6.15459">
        <ele>2732.8000488281</ele>
        <time>2020-02-08T12:28:02.000Z</time>
      </trkpt>
      <trkpt lat="45.30455" lon="6.1546">
        <ele>2732.8000488281</ele>
        <time>2020-02-08T12:28:16.000Z</time>
      </trkpt>
      <trkpt lat="45.30455" lon="6.1546">
        <ele>2732.8000488281</ele>
        <time>2020-02-08T12:28:21.000Z</time>
      </trkpt>
      <trkpt lat="45.30455" lon="6.1546">
        <ele>2732.8000488281</ele>
        <time>2020-02-08T12:28:32.000Z</time>
      </trkpt>
      <trkpt lat="45.30455" lon="6.1546">
        <ele>2733.8000488281</ele>
        <time>2020-02-08T12:28:43.000Z</time>
      </trkpt>
      <trkpt lat="45.30455" lon="6.1546">
        <ele>2733.8000488281</ele>
        <time>2020-02-08T12:28:44.000Z</time>
      </trkpt>
      <trkpt lat="45.30455" lon="6.1546">
        <ele>2734.1999511719</ele>
        <time>2020-02-08T12:28:52.000Z</time>
      </trkpt>
      <trkpt lat="45.30456" lon="6.1546">
        <ele>2733.1999511719</ele>
        <time>2020-02-08T12:29:04.000Z</time>
      </trkpt>
      <trkpt lat="45.30456" lon="6.1546">
        <ele>2733</ele>
        <time>2020-02-08T12:29:17.000Z</time>
      </trkpt>
      <trkpt lat="45.30456" lon="6.1546">
        <ele>2732.8000488281</ele>
        <time>2020-02-08T12:29:31.000Z</time>
      </trkpt>
      <trkpt lat="45.30456" lon="6.1546">
        <ele>2732.8000488281</ele>
        <time>2020-02-08T12:29:47.000Z</time>
      </trkpt>
      <trkpt lat="45.30456" lon="6.1546">
        <ele>2733</ele>
        <time>2020-02-08T12:29:58.000Z</time>
      </trkpt>
      <trkpt lat="45.30456" lon="6.1546">
        <ele>2732.8000488281</ele>
        <time>2020-02-08T12:30:12.000Z</time>
      </trkpt>
      <trkpt lat="45.30456" lon="6.1546">
        <ele>2733</ele>
        <time>2020-02-08T12:30:26.000Z</time>
      </trkpt>
      <trkpt lat="45.30458" lon="6.15461">
        <ele>2732.6000976562</ele>
        <time>2020-02-08T12:30:35.000Z</time>
      </trkpt>
      <trkpt lat="45.30464" lon="6.15468">
        <ele>2732.1999511719</ele>
        <time>2020-02-08T12:30:38.000Z</time>
      </trkpt>
      <trkpt lat="45.30466" lon="6.15466">
        <ele>2731.6000976562</ele>
        <time>2020-02-08T12:30:39.000Z</time>
      </trkpt>
      <trkpt lat="45.30469" lon="6.15465">
        <ele>2730.6000976562</ele>
        <time>2020-02-08T12:30:41.000Z</time>
      </trkpt>
      <trkpt lat="45.30469" lon="6.15468">
        <ele>2730</ele>
        <time>2020-02-08T12:30:42.000Z</time>
      </trkpt>
      <trkpt lat="45.30471" lon="6.15471">
        <ele>2728.6000976562</ele>
        <time>2020-02-08T12:30:43.000Z</time>
      </trkpt>
      <trkpt lat="45.30474" lon="6.15471">
        <ele>2726.6000976562</ele>
        <time>2020-02-08T12:30:44.000Z</time>
      </trkpt>
      <trkpt lat="45.30476" lon="6.15468">
        <ele>2724.6000976562</ele>
        <time>2020-02-08T12:30:45.000Z</time>
      </trkpt>
      <trkpt lat="45.30479" lon="6.15465">
        <ele>2721.6000976562</ele>
        <time>2020-02-08T12:30:46.000Z</time>
      </trkpt>
      <trkpt lat="45.3048" lon="6.15468">
        <ele>2720.6000976562</ele>
        <time>2020-02-08T12:30:47.000Z</time>
      </trkpt>
      <trkpt lat="45.30481" lon="6.15471">
        <ele>2719.1999511719</ele>
        <time>2020-02-08T12:30:48.000Z</time>
      </trkpt>
      <trkpt lat="45.30485" lon="6.15474">
        <ele>2717.1999511719</ele>
        <time>2020-02-08T12:30:49.000Z</time>
      </trkpt>
      <trkpt lat="45.30488" lon="6.15471">
        <ele>2714.8000488281</ele>
        <time>2020-02-08T12:30:50.000Z</time>
      </trkpt>
      <trkpt lat="45.30491" lon="6.15471">
        <ele>2713</ele>
        <time>2020-02-08T12:30:51.000Z</time>
      </trkpt>
      <trkpt lat="45.30492" lon="6.15474">
        <ele>2711.3999023438</ele>
        <time>2020-02-08T12:30:52.000Z</time>
      </trkpt>
      <trkpt lat="45.30495" lon="6.15479">
        <ele>2709.3999023438</ele>
        <time>2020-02-08T12:30:53.000Z</time>
      </trkpt>
      <trkpt lat="45.305" lon="6.15479">
        <ele>2706.8000488281</ele>
        <time>2020-02-08T12:30:54.000Z</time>
      </trkpt>
      <trkpt lat="45.30504" lon="6.15476">
        <ele>2704</ele>
        <time>2020-02-08T12:30:55.000Z</time>
      </trkpt>
      <trkpt lat="45.30506" lon="6.15472">
        <ele>2701.8000488281</ele>
        <time>2020-02-08T12:30:56.000Z</time>
      </trkpt>
      <trkpt lat="45.30506" lon="6.1547">
        <ele>2700</ele>
        <time>2020-02-08T12:30:57.000Z</time>
      </trkpt>
      <trkpt lat="45.30505" lon="6.1547">
        <ele>2698.1999511719</ele>
        <time>2020-02-08T12:30:58.000Z</time>
      </trkpt>
      <trkpt lat="45.30504" lon="6.1547">
        <ele>2695.8000488281</ele>
        <time>2020-02-08T12:30:59.000Z</time>
      </trkpt>
      <trkpt lat="45.30504" lon="6.1547">
        <ele>2693.3999023438</ele>
        <time>2020-02-08T12:31:00.000Z</time>
      </trkpt>
      <trkpt lat="45.30505" lon="6.1547">
        <ele>2691.6000976562</ele>
        <time>2020-02-08T12:31:01.000Z</time>
      </trkpt>
      <trkpt lat="45.30506" lon="6.15474">
        <ele>2690.1999511719</ele>
        <time>2020-02-08T12:31:02.000Z</time>
      </trkpt>
      <trkpt lat="45.30508" lon="6.15482">
        <ele>2688.3999023438</ele>
        <time>2020-02-08T12:31:04.000Z</time>
      </trkpt>
      <trkpt lat="45.30511" lon="6.15482">
        <ele>2687.6000976562</ele>
        <time>2020-02-08T12:31:05.000Z</time>
      </trkpt>
      <trkpt lat="45.30516" lon="6.15479">
        <ele>2686.6000976562</ele>
        <time>2020-02-08T12:31:06.000Z</time>
      </trkpt>
      <trkpt lat="45.3052" lon="6.15476">
        <ele>2685.8000488281</ele>
        <time>2020-02-08T12:31:07.000Z</time>
      </trkpt>
      <trkpt lat="45.30523" lon="6.15475">
        <ele>2685.1999511719</ele>
        <time>2020-02-08T12:31:08.000Z</time>
      </trkpt>
      <trkpt lat="45.30524" lon="6.15477">
        <ele>2684.1999511719</ele>
        <time>2020-02-08T12:31:09.000Z</time>
      </trkpt>
      <trkpt lat="45.30525" lon="6.15482">
        <ele>2680.3999023438</ele>
        <time>2020-02-08T12:31:10.000Z</time>
      </trkpt>
      <trkpt lat="45.30528" lon="6.15485">
        <ele>2678</ele>
        <time>2020-02-08T12:31:11.000Z</time>
      </trkpt>
      <trkpt lat="45.30531" lon="6.15484">
        <ele>2675.8000488281</ele>
        <time>2020-02-08T12:31:12.000Z</time>
      </trkpt>
      <trkpt lat="45.30533" lon="6.15484">
        <ele>2674</ele>
        <time>2020-02-08T12:31:13.000Z</time>
      </trkpt>
      <trkpt lat="45.30535" lon="6.15485">
        <ele>2672.6000976562</ele>
        <time>2020-02-08T12:31:14.000Z</time>
      </trkpt>
      <trkpt lat="45.30534" lon="6.15489">
        <ele>2671.1999511719</ele>
        <time>2020-02-08T12:31:15.000Z</time>
      </trkpt>
      <trkpt lat="45.30535" lon="6.15492">
        <ele>2669.1999511719</ele>
        <time>2020-02-08T12:31:16.000Z</time>
      </trkpt>
      <trkpt lat="45.30537" lon="6.15494">
        <ele>2666.6000976562</ele>
        <time>2020-02-08T12:31:17.000Z</time>
      </trkpt>
      <trkpt lat="45.30539" lon="6.15495">
        <ele>2664.3999023438</ele>
        <time>2020-02-08T12:31:18.000Z</time>
      </trkpt>
      <trkpt lat="45.3054" lon="6.15499">
        <ele>2662.8000488281</ele>
        <time>2020-02-08T12:31:19.000Z</time>
      </trkpt>
      <trkpt lat="45.30539" lon="6.15502">
        <ele>2661.6000976562</ele>
        <time>2020-02-08T12:31:20.000Z</time>
      </trkpt>
      <trkpt lat="45.30539" lon="6.15506">
        <ele>2660</ele>
        <time>2020-02-08T12:31:21.000Z</time>
      </trkpt>
      <trkpt lat="45.30541" lon="6.15507">
        <ele>2657.8000488281</ele>
        <time>2020-02-08T12:31:22.000Z</time>
      </trkpt>
      <trkpt lat="45.30543" lon="6.15506">
        <ele>2655.6000976562</ele>
        <time>2020-02-08T12:31:23.000Z</time>
      </trkpt>
      <trkpt lat="45.30545" lon="6.15505">
        <ele>2654</ele>
        <time>2020-02-08T12:31:24.000Z</time>
      </trkpt>
      <trkpt lat="45.30545" lon="6.15505">
        <ele>2652.8000488281</ele>
        <time>2020-02-08T12:31:25.000Z</time>
      </trkpt>
      <trkpt lat="45.30545" lon="6.15504">
        <ele>2651.6000976562</ele>
        <time>2020-02-08T12:31:26.000Z</time>
      </trkpt>
      <trkpt lat="45.30544" lon="6.15504">
        <ele>2650</ele>
        <time>2020-02-08T12:31:27.000Z</time>
      </trkpt>
      <trkpt lat="45.30544" lon="6.15504">
        <ele>2648.3999023438</ele>
        <time>2020-02-08T12:31:28.000Z</time>
      </trkpt>
      <trkpt lat="45.30544" lon="6.15506">
        <ele>2646.8000488281</ele>
        <time>2020-02-08T12:31:29.000Z</time>
      </trkpt>
      <trkpt lat="45.30545" lon="6.15508">
        <ele>2645.8000488281</ele>
        <time>2020-02-08T12:31:30.000Z</time>
      </trkpt>
      <trkpt lat="45.30549" lon="6.1551">
        <ele>2644.1999511719</ele>
        <time>2020-02-08T12:31:32.000Z</time>
      </trkpt>
      <trkpt lat="45.30551" lon="6.1551">
        <ele>2643.3999023438</ele>
        <time>2020-02-08T12:31:33.000Z</time>
      </trkpt>
      <trkpt lat="45.30552" lon="6.15511">
        <ele>2642.3999023438</ele>
        <time>2020-02-08T12:31:34.000Z</time>
      </trkpt>
      <trkpt lat="45.30552" lon="6.15517">
        <ele>2640.8000488281</ele>
        <time>2020-02-08T12:31:36.000Z</time>
      </trkpt>
      <trkpt lat="45.30553" lon="6.15519">
        <ele>2639.1999511719</ele>
        <time>2020-02-08T12:31:37.000Z</time>
      </trkpt>
      <trkpt lat="45.30556" lon="6.15519">
        <ele>2637.3999023438</ele>
        <time>2020-02-08T12:31:38.000Z</time>
      </trkpt>
      <trkpt lat="45.30559" lon="6.15518">
        <ele>2636.3999023438</ele>
        <time>2020-02-08T12:31:39.000Z</time>
      </trkpt>
      <trkpt lat="45.3056" lon="6.15517">
        <ele>2635.6000976562</ele>
        <time>2020-02-08T12:31:40.000Z</time>
      </trkpt>
      <trkpt lat="45.3056" lon="6.15517">
        <ele>2635</ele>
        <time>2020-02-08T12:31:41.000Z</time>
      </trkpt>
      <trkpt lat="45.30561" lon="6.15516">
        <ele>2633.1999511719</ele>
        <time>2020-02-08T12:31:43.000Z</time>
      </trkpt>
      <trkpt lat="45.30561" lon="6.15516">
        <ele>2632</ele>
        <time>2020-02-08T12:31:44.000Z</time>
      </trkpt>
      <trkpt lat="45.30561" lon="6.15517">
        <ele>2630.6000976562</ele>
        <time>2020-02-08T12:31:46.000Z</time>
      </trkpt>
      <trkpt lat="45.3056" lon="6.15521">
        <ele>2629.8000488281</ele>
        <time>2020-02-08T12:31:48.000Z</time>
      </trkpt>
      <trkpt lat="45.3056" lon="6.15521">
        <ele>2629.3999023438</ele>
        <time>2020-02-08T12:31:49.000Z</time>
      </trkpt>
      <trkpt lat="45.30561" lon="6.15521">
        <ele>2628.8000488281</ele>
        <time>2020-02-08T12:31:50.000Z</time>
      </trkpt>
      <trkpt lat="45.30562" lon="6.15521">
        <ele>2628.3999023438</ele>
        <time>2020-02-08T12:31:51.000Z</time>
      </trkpt>
      <trkpt lat="45.30563" lon="6.15521">
        <ele>2628</ele>
        <time>2020-02-08T12:31:52.000Z</time>
      </trkpt>
      <trkpt lat="45.30565" lon="6.15524">
        <ele>2627</ele>
        <time>2020-02-08T12:31:55.000Z</time>
      </trkpt>
      <trkpt lat="45.30565" lon="6.15527">
        <ele>2625.1999511719</ele>
        <time>2020-02-08T12:31:57.000Z</time>
      </trkpt>
      <trkpt lat="45.30565" lon="6.15527">
        <ele>2623</ele>
        <time>2020-02-08T12:31:58.000Z</time>
      </trkpt>
      <trkpt lat="45.30567" lon="6.15532">
        <ele>2621.6000976562</ele>
        <time>2020-02-08T12:32:00.000Z</time>
      </trkpt>
      <trkpt lat="45.30567" lon="6.15536">
        <ele>2621.1999511719</ele>
        <time>2020-02-08T12:32:01.000Z</time>
      </trkpt>
      <trkpt lat="45.3057" lon="6.15543">
        <ele>2620.1999511719</ele>
        <time>2020-02-08T12:32:04.000Z</time>
      </trkpt>
      <trkpt lat="45.30574" lon="6.15541">
        <ele>2618.8000488281</ele>
        <time>2020-02-08T12:32:06.000Z</time>
      </trkpt>
      <trkpt lat="45.30574" lon="6.15541">
        <ele>2617.8000488281</ele>
        <time>2020-02-08T12:32:08.000Z</time>
      </trkpt>
      <trkpt lat="45.30573" lon="6.15541">
        <ele>2615.8000488281</ele>
        <time>2020-02-08T12:32:10.000Z</time>
      </trkpt>
      <trkpt lat="45.30573" lon="6.15541">
        <ele>2614.6000976562</ele>
        <time>2020-02-08T12:32:11.000Z</time>
      </trkpt>
      <trkpt lat="45.30573" lon="6.15541">
        <ele>2613.1999511719</ele>
        <time>2020-02-08T12:32:13.000Z</time>
      </trkpt>
      <trkpt lat="45.30575" lon="6.15538">
        <ele>2612.3999023438</ele>
        <time>2020-02-08T12:32:20.000Z</time>
      </trkpt>
      <trkpt lat="45.30578" lon="6.15543">
        <ele>2611.8000488281</ele>
        <time>2020-02-08T12:32:22.000Z</time>
      </trkpt>
      <trkpt lat="45.30578" lon="6.15544">
        <ele>2611.3999023438</ele>
        <time>2020-02-08T12:32:23.000Z</time>
      </trkpt>
      <trkpt lat="45.30578" lon="6.15544">
        <ele>2610.6000976562</ele>
        <time>2020-02-08T12:32:24.000Z</time>
      </trkpt>
      <trkpt lat="45.3058" lon="6.15544">
        <ele>2609.8000488281</ele>
        <time>2020-02-08T12:32:25.000Z</time>
      </trkpt>
      <trkpt lat="45.30583" lon="6.15541">
        <ele>2609</ele>
        <time>2020-02-08T12:32:26.000Z</time>
      </trkpt>
      <trkpt lat="45.30587" lon="6.1554">
        <ele>2607.8000488281</ele>
        <time>2020-02-08T12:32:29.000Z</time>
      </trkpt>
      <trkpt lat="45.30587" lon="6.15547">
        <ele>2605.8000488281</ele>
        <time>2020-02-08T12:32:31.000Z</time>
      </trkpt>
      <trkpt lat="45.30588" lon="6.15547">
        <ele>2604.3999023438</ele>
        <time>2020-02-08T12:32:32.000Z</time>
      </trkpt>
      <trkpt lat="45.30588" lon="6.15547">
        <ele>2602.6000976562</ele>
        <time>2020-02-08T12:32:33.000Z</time>
      </trkpt>
      <trkpt lat="45.30591" lon="6.15545">
        <ele>2601.1999511719</ele>
        <time>2020-02-08T12:32:34.000Z</time>
      </trkpt>
      <trkpt lat="45.30593" lon="6.15543">
        <ele>2600.3999023438</ele>
        <time>2020-02-08T12:32:35.000Z</time>
      </trkpt>
      <trkpt lat="45.30593" lon="6.15542">
        <ele>2599.6000976562</ele>
        <time>2020-02-08T12:32:36.000Z</time>
      </trkpt>
      <trkpt lat="45.30595" lon="6.15543">
        <ele>2599.1999511719</ele>
        <time>2020-02-08T12:32:37.000Z</time>
      </trkpt>
      <trkpt lat="45.30596" lon="6.15547">
        <ele>2598.6000976562</ele>
        <time>2020-02-08T12:32:38.000Z</time>
      </trkpt>
      <trkpt lat="45.30599" lon="6.15551">
        <ele>2596.1999511719</ele>
        <time>2020-02-08T12:32:40.000Z</time>
      </trkpt>
      <trkpt lat="45.30602" lon="6.1555">
        <ele>2594.3999023438</ele>
        <time>2020-02-08T12:32:41.000Z</time>
      </trkpt>
      <trkpt lat="45.30604" lon="6.15547">
        <ele>2592.8000488281</ele>
        <time>2020-02-08T12:32:42.000Z</time>
      </trkpt>
      <trkpt lat="45.30607" lon="6.15543">
        <ele>2591.6000976562</ele>
        <time>2020-02-08T12:32:43.000Z</time>
      </trkpt>
      <trkpt lat="45.3061" lon="6.1554">
        <ele>2591</ele>
        <time>2020-02-08T12:32:44.000Z</time>
      </trkpt>
      <trkpt lat="45.30612" lon="6.15538">
        <ele>2590.1999511719</ele>
        <time>2020-02-08T12:32:45.000Z</time>
      </trkpt>
      <trkpt lat="45.30613" lon="6.15537">
        <ele>2587</ele>
        <time>2020-02-08T12:32:46.000Z</time>
      </trkpt>
      <trkpt lat="45.30614" lon="6.15537">
        <ele>2585.1999511719</ele>
        <time>2020-02-08T12:32:47.000Z</time>
      </trkpt>
      <trkpt lat="45.30613" lon="6.15536">
        <ele>2583.6000976562</ele>
        <time>2020-02-08T12:32:48.000Z</time>
      </trkpt>
      <trkpt lat="45.30614" lon="6.15536">
        <ele>2582.1999511719</ele>
        <time>2020-02-08T12:32:49.000Z</time>
      </trkpt>
      <trkpt lat="45.30613" lon="6.15535">
        <ele>2580.8000488281</ele>
        <time>2020-02-08T12:32:51.000Z</time>
      </trkpt>
      <trkpt lat="45.30612" lon="6.15538">
        <ele>2580.3999023438</ele>
        <time>2020-02-08T12:32:52.000Z</time>
      </trkpt>
      <trkpt lat="45.30611" lon="6.15538">
        <ele>2579.6000976562</ele>
        <time>2020-02-08T12:32:54.000Z</time>
      </trkpt>
      <trkpt lat="45.3061" lon="6.15538">
        <ele>2579.1999511719</ele>
        <time>2020-02-08T12:32:55.000Z</time>
      </trkpt>
      <trkpt lat="45.30609" lon="6.15539">
        <ele>2578.6000976562</ele>
        <time>2020-02-08T12:32:56.000Z</time>
      </trkpt>
      <trkpt lat="45.30607" lon="6.1554">
        <ele>2577.6000976562</ele>
        <time>2020-02-08T12:33:09.000Z</time>
      </trkpt>
      <trkpt lat="45.30607" lon="6.1554">
        <ele>2577.6000976562</ele>
        <time>2020-02-08T12:33:10.000Z</time>
      </trkpt>
      <trkpt lat="45.30607" lon="6.1554">
        <ele>2577.8000488281</ele>
        <time>2020-02-08T12:33:23.000Z</time>
      </trkpt>
      <trkpt lat="45.30607" lon="6.15539">
        <ele>2577.8000488281</ele>
        <time>2020-02-08T12:33:39.000Z</time>
      </trkpt>
      <trkpt lat="45.30607" lon="6.15539">
        <ele>2577.8000488281</ele>
        <time>2020-02-08T12:33:55.000Z</time>
      </trkpt>
      <trkpt lat="45.30607" lon="6.15541">
        <ele>2577.8000488281</ele>
        <time>2020-02-08T12:34:06.000Z</time>
      </trkpt>
      <trkpt lat="45.30613" lon="6.15543">
        <ele>2577.8000488281</ele>
        <time>2020-02-08T12:34:08.000Z</time>
      </trkpt>
      <trkpt lat="45.30616" lon="6.15553">
        <ele>2577.1999511719</ele>
        <time>2020-02-08T12:34:11.000Z</time>
      </trkpt>
      <trkpt lat="45.30619" lon="6.15557">
        <ele>2576.1999511719</ele>
        <time>2020-02-08T12:34:12.000Z</time>
      </trkpt>
      <trkpt lat="45.30623" lon="6.15558">
        <ele>2574.8000488281</ele>
        <time>2020-02-08T12:34:13.000Z</time>
      </trkpt>
      <trkpt lat="45.30628" lon="6.15557">
        <ele>2573.1999511719</ele>
        <time>2020-02-08T12:34:14.000Z</time>
      </trkpt>
      <trkpt lat="45.30632" lon="6.15558">
        <ele>2571.8000488281</ele>
        <time>2020-02-08T12:34:15.000Z</time>
      </trkpt>
      <trkpt lat="45.30633" lon="6.15562">
        <ele>2570.6000976562</ele>
        <time>2020-02-08T12:34:16.000Z</time>
      </trkpt>
      <trkpt lat="45.30632" lon="6.15566">
        <ele>2569.1999511719</ele>
        <time>2020-02-08T12:34:17.000Z</time>
      </trkpt>
      <trkpt lat="45.30632" lon="6.1557">
        <ele>2566.8000488281</ele>
        <time>2020-02-08T12:34:18.000Z</time>
      </trkpt>
      <trkpt lat="45.30635" lon="6.15571">
        <ele>2564</ele>
        <time>2020-02-08T12:34:19.000Z</time>
      </trkpt>
      <trkpt lat="45.30638" lon="6.15569">
        <ele>2561.6000976562</ele>
        <time>2020-02-08T12:34:20.000Z</time>
      </trkpt>
      <trkpt lat="45.30641" lon="6.15572">
        <ele>2560.1999511719</ele>
        <time>2020-02-08T12:34:21.000Z</time>
      </trkpt>
      <trkpt lat="45.30641" lon="6.15577">
        <ele>2557.8000488281</ele>
        <time>2020-02-08T12:34:22.000Z</time>
      </trkpt>
      <trkpt lat="45.30639" lon="6.15581">
        <ele>2555.6000976562</ele>
        <time>2020-02-08T12:34:23.000Z</time>
      </trkpt>
      <trkpt lat="45.3064" lon="6.15586">
        <ele>2553.1999511719</ele>
        <time>2020-02-08T12:34:24.000Z</time>
      </trkpt>
      <trkpt lat="45.30643" lon="6.15587">
        <ele>2550.8000488281</ele>
        <time>2020-02-08T12:34:25.000Z</time>
      </trkpt>
      <trkpt lat="45.30645" lon="6.15587">
        <ele>2549</ele>
        <time>2020-02-08T12:34:26.000Z</time>
      </trkpt>
      <trkpt lat="45.30648" lon="6.1559">
        <ele>2547.8000488281</ele>
        <time>2020-02-08T12:34:27.000Z</time>
      </trkpt>
      <trkpt lat="45.30647" lon="6.15594">
        <ele>2546.6000976562</ele>
        <time>2020-02-08T12:34:28.000Z</time>
      </trkpt>
      <trkpt lat="45.30646" lon="6.15599">
        <ele>2544.6000976562</ele>
        <time>2020-02-08T12:34:29.000Z</time>
      </trkpt>
      <trkpt lat="45.30647" lon="6.15602">
        <ele>2542.1999511719</ele>
        <time>2020-02-08T12:34:30.000Z</time>
      </trkpt>
      <trkpt lat="45.30649" lon="6.15604">
        <ele>2539.6000976562</ele>
        <time>2020-02-08T12:34:31.000Z</time>
      </trkpt>
      <trkpt lat="45.30651" lon="6.15604">
        <ele>2537.6000976562</ele>
        <time>2020-02-08T12:34:32.000Z</time>
      </trkpt>
      <trkpt lat="45.30654" lon="6.15601">
        <ele>2536.1999511719</ele>
        <time>2020-02-08T12:34:33.000Z</time>
      </trkpt>
      <trkpt lat="45.30659" lon="6.15602">
        <ele>2534.8000488281</ele>
        <time>2020-02-08T12:34:34.000Z</time>
      </trkpt>
      <trkpt lat="45.30662" lon="6.15605">
        <ele>2533.1999511719</ele>
        <time>2020-02-08T12:34:35.000Z</time>
      </trkpt>
      <trkpt lat="45.3066" lon="6.1561">
        <ele>2531</ele>
        <time>2020-02-08T12:34:36.000Z</time>
      </trkpt>
      <trkpt lat="45.30659" lon="6.15616">
        <ele>2528.8000488281</ele>
        <time>2020-02-08T12:34:37.000Z</time>
      </trkpt>
      <trkpt lat="45.3066" lon="6.1562">
        <ele>2526.6000976562</ele>
        <time>2020-02-08T12:34:38.000Z</time>
      </trkpt>
      <trkpt lat="45.30663" lon="6.15622">
        <ele>2524.6000976562</ele>
        <time>2020-02-08T12:34:39.000Z</time>
      </trkpt>
      <trkpt lat="45.30667" lon="6.15622">
        <ele>2523.1999511719</ele>
        <time>2020-02-08T12:34:40.000Z</time>
      </trkpt>
      <trkpt lat="45.30671" lon="6.15626">
        <ele>2521.8000488281</ele>
        <time>2020-02-08T12:34:41.000Z</time>
      </trkpt>
      <trkpt lat="45.30672" lon="6.15632">
        <ele>2520.3999023438</ele>
        <time>2020-02-08T12:34:42.000Z</time>
      </trkpt>
      <trkpt lat="45.30674" lon="6.15637">
        <ele>2518.3999023438</ele>
        <time>2020-02-08T12:34:43.000Z</time>
      </trkpt>
      <trkpt lat="45.30679" lon="6.1564">
        <ele>2516</ele>
        <time>2020-02-08T12:34:44.000Z</time>
      </trkpt>
      <trkpt lat="45.30683" lon="6.15644">
        <ele>2513.3999023438</ele>
        <time>2020-02-08T12:34:45.000Z</time>
      </trkpt>
      <trkpt lat="45.30687" lon="6.15649">
        <ele>2510</ele>
        <time>2020-02-08T12:34:46.000Z</time>
      </trkpt>
      <trkpt lat="45.30686" lon="6.15658">
        <ele>2508</ele>
        <time>2020-02-08T12:34:47.000Z</time>
      </trkpt>
      <trkpt lat="45.30688" lon="6.15665">
        <ele>2505.3999023438</ele>
        <time>2020-02-08T12:34:48.000Z</time>
      </trkpt>
      <trkpt lat="45.30692" lon="6.15668">
        <ele>2502.6000976562</ele>
        <time>2020-02-08T12:34:49.000Z</time>
      </trkpt>
      <trkpt lat="45.30696" lon="6.15667">
        <ele>2500.6000976562</ele>
        <time>2020-02-08T12:34:50.000Z</time>
      </trkpt>
      <trkpt lat="45.30697" lon="6.15666">
        <ele>2498.8000488281</ele>
        <time>2020-02-08T12:34:51.000Z</time>
      </trkpt>
      <trkpt lat="45.30697" lon="6.15664">
        <ele>2497</ele>
        <time>2020-02-08T12:34:52.000Z</time>
      </trkpt>
      <trkpt lat="45.30697" lon="6.15664">
        <ele>2494.6000976562</ele>
        <time>2020-02-08T12:34:53.000Z</time>
      </trkpt>
      <trkpt lat="45.30697" lon="6.15664">
        <ele>2492.3999023438</ele>
        <time>2020-02-08T12:34:54.000Z</time>
      </trkpt>
      <trkpt lat="45.30697" lon="6.15664">
        <ele>2490.8000488281</ele>
        <time>2020-02-08T12:34:55.000Z</time>
      </trkpt>
      <trkpt lat="45.30697" lon="6.15664">
        <ele>2489.8000488281</ele>
        <time>2020-02-08T12:34:56.000Z</time>
      </trkpt>
      <trkpt lat="45.30697" lon="6.15664">
        <ele>2488.6000976562</ele>
        <time>2020-02-08T12:34:59.000Z</time>
      </trkpt>
      <trkpt lat="45.30697" lon="6.15664">
        <ele>2488.3999023438</ele>
        <time>2020-02-08T12:35:01.000Z</time>
      </trkpt>
      <trkpt lat="45.30697" lon="6.15664">
        <ele>2488.1999511719</ele>
        <time>2020-02-08T12:35:17.000Z</time>
      </trkpt>
      <trkpt lat="45.30698" lon="6.15664">
        <ele>2488.1999511719</ele>
        <time>2020-02-08T12:35:19.000Z</time>
      </trkpt>
      <trkpt lat="45.30702" lon="6.15663">
        <ele>2488.1999511719</ele>
        <time>2020-02-08T12:35:23.000Z</time>
      </trkpt>
      <trkpt lat="45.30702" lon="6.15663">
        <ele>2487.3999023438</ele>
        <time>2020-02-08T12:35:26.000Z</time>
      </trkpt>
      <trkpt lat="45.30702" lon="6.15663">
        <ele>2486.3999023438</ele>
        <time>2020-02-08T12:35:31.000Z</time>
      </trkpt>
      <trkpt lat="45.30702" lon="6.15663">
        <ele>2486.3999023438</ele>
        <time>2020-02-08T12:35:36.000Z</time>
      </trkpt>
      <trkpt lat="45.30706" lon="6.15667">
        <ele>2486.1999511719</ele>
        <time>2020-02-08T12:35:40.000Z</time>
      </trkpt>
      <trkpt lat="45.30702" lon="6.15676">
        <ele>2486</ele>
        <time>2020-02-08T12:35:42.000Z</time>
      </trkpt>
      <trkpt lat="45.30705" lon="6.15681">
        <ele>2485.1999511719</ele>
        <time>2020-02-08T12:35:43.000Z</time>
      </trkpt>
      <trkpt lat="45.30705" lon="6.15687">
        <ele>2484.3999023438</ele>
        <time>2020-02-08T12:35:44.000Z</time>
      </trkpt>
      <trkpt lat="45.30703" lon="6.15692">
        <ele>2483.8000488281</ele>
        <time>2020-02-08T12:35:45.000Z</time>
      </trkpt>
      <trkpt lat="45.30702" lon="6.15698">
        <ele>2483.3999023438</ele>
        <time>2020-02-08T12:35:46.000Z</time>
      </trkpt>
      <trkpt lat="45.30704" lon="6.15703">
        <ele>2482.1999511719</ele>
        <time>2020-02-08T12:35:47.000Z</time>
      </trkpt>
      <trkpt lat="45.30708" lon="6.15705">
        <ele>2480.3999023438</ele>
        <time>2020-02-08T12:35:48.000Z</time>
      </trkpt>
      <trkpt lat="45.30711" lon="6.15707">
        <ele>2478.6000976562</ele>
        <time>2020-02-08T12:35:49.000Z</time>
      </trkpt>
      <trkpt lat="45.30711" lon="6.15712">
        <ele>2477.1999511719</ele>
        <time>2020-02-08T12:35:50.000Z</time>
      </trkpt>
      <trkpt lat="45.30709" lon="6.15717">
        <ele>2475.8000488281</ele>
        <time>2020-02-08T12:35:51.000Z</time>
      </trkpt>
      <trkpt lat="45.3071" lon="6.15724">
        <ele>2473.8000488281</ele>
        <time>2020-02-08T12:35:52.000Z</time>
      </trkpt>
      <trkpt lat="45.30714" lon="6.15728">
        <ele>2471.6000976562</ele>
        <time>2020-02-08T12:35:53.000Z</time>
      </trkpt>
      <trkpt lat="45.30718" lon="6.15732">
        <ele>2469.6000976562</ele>
        <time>2020-02-08T12:35:54.000Z</time>
      </trkpt>
      <trkpt lat="45.30718" lon="6.15738">
        <ele>2468</ele>
        <time>2020-02-08T12:35:55.000Z</time>
      </trkpt>
      <trkpt lat="45.30717" lon="6.15745">
        <ele>2466.3999023438</ele>
        <time>2020-02-08T12:35:56.000Z</time>
      </trkpt>
      <trkpt lat="45.30718" lon="6.15752">
        <ele>2464.1999511719</ele>
        <time>2020-02-08T12:35:57.000Z</time>
      </trkpt>
      <trkpt lat="45.30723" lon="6.15754">
        <ele>2461.3999023438</ele>
        <time>2020-02-08T12:35:58.000Z</time>
      </trkpt>
      <trkpt lat="45.30728" lon="6.15754">
        <ele>2457</ele>
        <time>2020-02-08T12:35:59.000Z</time>
      </trkpt>
      <trkpt lat="45.30731" lon="6.15757">
        <ele>2455.6000976562</ele>
        <time>2020-02-08T12:36:00.000Z</time>
      </trkpt>
      <trkpt lat="45.30731" lon="6.15763">
        <ele>2453.6000976562</ele>
        <time>2020-02-08T12:36:01.000Z</time>
      </trkpt>
      <trkpt lat="45.3073" lon="6.15771">
        <ele>2451.1999511719</ele>
        <time>2020-02-08T12:36:02.000Z</time>
      </trkpt>
      <trkpt lat="45.30734" lon="6.15775">
        <ele>2448.8000488281</ele>
        <time>2020-02-08T12:36:03.000Z</time>
      </trkpt>
      <trkpt lat="45.30739" lon="6.15777">
        <ele>2446.8000488281</ele>
        <time>2020-02-08T12:36:04.000Z</time>
      </trkpt>
      <trkpt lat="45.30742" lon="6.15783">
        <ele>2445.1999511719</ele>
        <time>2020-02-08T12:36:05.000Z</time>
      </trkpt>
      <trkpt lat="45.30742" lon="6.15789">
        <ele>2444</ele>
        <time>2020-02-08T12:36:06.000Z</time>
      </trkpt>
      <trkpt lat="45.30738" lon="6.15793">
        <ele>2442.1999511719</ele>
        <time>2020-02-08T12:36:07.000Z</time>
      </trkpt>
      <trkpt lat="45.30735" lon="6.15797">
        <ele>2440</ele>
        <time>2020-02-08T12:36:08.000Z</time>
      </trkpt>
      <trkpt lat="45.30736" lon="6.158">
        <ele>2437.8000488281</ele>
        <time>2020-02-08T12:36:09.000Z</time>
      </trkpt>
      <trkpt lat="45.3074" lon="6.15803">
        <ele>2436</ele>
        <time>2020-02-08T12:36:10.000Z</time>
      </trkpt>
      <trkpt lat="45.30744" lon="6.15806">
        <ele>2434.6000976562</ele>
        <time>2020-02-08T12:36:11.000Z</time>
      </trkpt>
      <trkpt lat="45.30746" lon="6.1581">
        <ele>2433.6000976562</ele>
        <time>2020-02-08T12:36:12.000Z</time>
      </trkpt>
      <trkpt lat="45.30745" lon="6.15816">
        <ele>2432.3999023438</ele>
        <time>2020-02-08T12:36:13.000Z</time>
      </trkpt>
      <trkpt lat="45.30748" lon="6.15822">
        <ele>2430.6000976562</ele>
        <time>2020-02-08T12:36:14.000Z</time>
      </trkpt>
      <trkpt lat="45.30748" lon="6.15828">
        <ele>2428.8000488281</ele>
        <time>2020-02-08T12:36:15.000Z</time>
      </trkpt>
      <trkpt lat="45.30748" lon="6.15836">
        <ele>2427.1999511719</ele>
        <time>2020-02-08T12:36:16.000Z</time>
      </trkpt>
      <trkpt lat="45.30751" lon="6.15842">
        <ele>2425.8000488281</ele>
        <time>2020-02-08T12:36:17.000Z</time>
      </trkpt>
      <trkpt lat="45.3075" lon="6.15847">
        <ele>2424.3999023438</ele>
        <time>2020-02-08T12:36:18.000Z</time>
      </trkpt>
      <trkpt lat="45.30749" lon="6.15854">
        <ele>2422.8000488281</ele>
        <time>2020-02-08T12:36:19.000Z</time>
      </trkpt>
      <trkpt lat="45.30752" lon="6.1586">
        <ele>2421</ele>
        <time>2020-02-08T12:36:20.000Z</time>
      </trkpt>
      <trkpt lat="45.30751" lon="6.15865">
        <ele>2419.1999511719</ele>
        <time>2020-02-08T12:36:21.000Z</time>
      </trkpt>
      <trkpt lat="45.3075" lon="6.15873">
        <ele>2417.6000976562</ele>
        <time>2020-02-08T12:36:22.000Z</time>
      </trkpt>
      <trkpt lat="45.30752" lon="6.15879">
        <ele>2414.8000488281</ele>
        <time>2020-02-08T12:36:23.000Z</time>
      </trkpt>
      <trkpt lat="45.30751" lon="6.15885">
        <ele>2413.1999511719</ele>
        <time>2020-02-08T12:36:24.000Z</time>
      </trkpt>
      <trkpt lat="45.30752" lon="6.15894">
        <ele>2411.3999023438</ele>
        <time>2020-02-08T12:36:25.000Z</time>
      </trkpt>
      <trkpt lat="45.30754" lon="6.15901">
        <ele>2409.6000976562</ele>
        <time>2020-02-08T12:36:26.000Z</time>
      </trkpt>
      <trkpt lat="45.30754" lon="6.1591">
        <ele>2407.8000488281</ele>
        <time>2020-02-08T12:36:27.000Z</time>
      </trkpt>
      <trkpt lat="45.30758" lon="6.15918">
        <ele>2405.8000488281</ele>
        <time>2020-02-08T12:36:28.000Z</time>
      </trkpt>
      <trkpt lat="45.30764" lon="6.15924">
        <ele>2404</ele>
        <time>2020-02-08T12:36:29.000Z</time>
      </trkpt>
      <trkpt lat="45.30769" lon="6.1593">
        <ele>2402</ele>
        <time>2020-02-08T12:36:30.000Z</time>
      </trkpt>
      <trkpt lat="45.30773" lon="6.15934">
        <ele>2400.3999023438</ele>
        <time>2020-02-08T12:36:31.000Z</time>
      </trkpt>
      <trkpt lat="45.30776" lon="6.15936">
        <ele>2398.8000488281</ele>
        <time>2020-02-08T12:36:32.000Z</time>
      </trkpt>
      <trkpt lat="45.30778" lon="6.15936">
        <ele>2397.1999511719</ele>
        <time>2020-02-08T12:36:33.000Z</time>
      </trkpt>
      <trkpt lat="45.30778" lon="6.15936">
        <ele>2395.8000488281</ele>
        <time>2020-02-08T12:36:34.000Z</time>
      </trkpt>
      <trkpt lat="45.30778" lon="6.15936">
        <ele>2394.6000976562</ele>
        <time>2020-02-08T12:36:35.000Z</time>
      </trkpt>
      <trkpt lat="45.30778" lon="6.15935">
        <ele>2393.6000976562</ele>
        <time>2020-02-08T12:36:37.000Z</time>
      </trkpt>
      <trkpt lat="45.30778" lon="6.15934">
        <ele>2393.3999023438</ele>
        <time>2020-02-08T12:36:38.000Z</time>
      </trkpt>
      <trkpt lat="45.30778" lon="6.15934">
        <ele>2393</ele>
        <time>2020-02-08T12:36:50.000Z</time>
      </trkpt>
      <trkpt lat="45.30778" lon="6.15934">
        <ele>2393</ele>
        <time>2020-02-08T12:37:02.000Z</time>
      </trkpt>
      <trkpt lat="45.30779" lon="6.15934">
        <ele>2393</ele>
        <time>2020-02-08T12:37:06.000Z</time>
      </trkpt>
      <trkpt lat="45.30783" lon="6.15939">
        <ele>2393</ele>
        <time>2020-02-08T12:37:08.000Z</time>
      </trkpt>
      <trkpt lat="45.30792" lon="6.15949">
        <ele>2392.3999023438</ele>
        <time>2020-02-08T12:37:11.000Z</time>
      </trkpt>
      <trkpt lat="45.30795" lon="6.15952">
        <ele>2392</ele>
        <time>2020-02-08T12:37:12.000Z</time>
      </trkpt>
      <trkpt lat="45.30801" lon="6.1596">
        <ele>2391.1999511719</ele>
        <time>2020-02-08T12:37:15.000Z</time>
      </trkpt>
      <trkpt lat="45.30804" lon="6.15968">
        <ele>2390.1999511719</ele>
        <time>2020-02-08T12:37:18.000Z</time>
      </trkpt>
      <trkpt lat="45.30805" lon="6.1597">
        <ele>2390</ele>
        <time>2020-02-08T12:37:19.000Z</time>
      </trkpt>
      <trkpt lat="45.3081" lon="6.15982">
        <ele>2389</ele>
        <time>2020-02-08T12:37:24.000Z</time>
      </trkpt>
      <trkpt lat="45.30811" lon="6.15984">
        <ele>2388.8000488281</ele>
        <time>2020-02-08T12:37:25.000Z</time>
      </trkpt>
      <trkpt lat="45.30818" lon="6.16002">
        <ele>2388</ele>
        <time>2020-02-08T12:37:30.000Z</time>
      </trkpt>
      <trkpt lat="45.3082" lon="6.16007">
        <ele>2387.8000488281</ele>
        <time>2020-02-08T12:37:31.000Z</time>
      </trkpt>
      <trkpt lat="45.30826" lon="6.16016">
        <ele>2387.1999511719</ele>
        <time>2020-02-08T12:37:33.000Z</time>
      </trkpt>
      <trkpt lat="45.30829" lon="6.16019">
        <ele>2387</ele>
        <time>2020-02-08T12:37:34.000Z</time>
      </trkpt>
      <trkpt lat="45.30832" lon="6.16024">
        <ele>2386.3999023438</ele>
        <time>2020-02-08T12:37:35.000Z</time>
      </trkpt>
      <trkpt lat="45.3084" lon="6.16036">
        <ele>2385.3999023438</ele>
        <time>2020-02-08T12:37:38.000Z</time>
      </trkpt>
      <trkpt lat="45.3084" lon="6.16042">
        <ele>2385</ele>
        <time>2020-02-08T12:37:39.000Z</time>
      </trkpt>
      <trkpt lat="45.30842" lon="6.16056">
        <ele>2384.3999023438</ele>
        <time>2020-02-08T12:37:41.000Z</time>
      </trkpt>
      <trkpt lat="45.30845" lon="6.16063">
        <ele>2384</ele>
        <time>2020-02-08T12:37:42.000Z</time>
      </trkpt>
      <trkpt lat="45.30848" lon="6.1607">
        <ele>2383.6000976562</ele>
        <time>2020-02-08T12:37:43.000Z</time>
      </trkpt>
      <trkpt lat="45.30851" lon="6.16077">
        <ele>2383.1999511719</ele>
        <time>2020-02-08T12:37:44.000Z</time>
      </trkpt>
      <trkpt lat="45.30855" lon="6.16084">
        <ele>2382.6000976562</ele>
        <time>2020-02-08T12:37:45.000Z</time>
      </trkpt>
      <trkpt lat="45.30861" lon="6.16096">
        <ele>2381</ele>
        <time>2020-02-08T12:37:47.000Z</time>
      </trkpt>
      <trkpt lat="45.30863" lon="6.16098">
        <ele>2380.1999511719</ele>
        <time>2020-02-08T12:37:48.000Z</time>
      </trkpt>
      <trkpt lat="45.30863" lon="6.16099">
        <ele>2379.1999511719</ele>
        <time>2020-02-08T12:37:49.000Z</time>
      </trkpt>
      <trkpt lat="45.30864" lon="6.16099">
        <ele>2378</ele>
        <time>2020-02-08T12:37:51.000Z</time>
      </trkpt>
      <trkpt lat="45.30864" lon="6.16098">
        <ele>2377.1999511719</ele>
        <time>2020-02-08T12:37:57.000Z</time>
      </trkpt>
      <trkpt lat="45.30863" lon="6.16097">
        <ele>2377.1999511719</ele>
        <time>2020-02-08T12:38:04.000Z</time>
      </trkpt>
      <trkpt lat="45.30863" lon="6.16097">
        <ele>2377</ele>
        <time>2020-02-08T12:38:06.000Z</time>
      </trkpt>
      <trkpt lat="45.30863" lon="6.16097">
        <ele>2377</ele>
        <time>2020-02-08T12:38:18.000Z</time>
      </trkpt>
      <trkpt lat="45.30863" lon="6.16097">
        <ele>2376.8000488281</ele>
        <time>2020-02-08T12:38:29.000Z</time>
      </trkpt>
      <trkpt lat="45.30863" lon="6.16096">
        <ele>2376.8000488281</ele>
        <time>2020-02-08T12:38:47.000Z</time>
      </trkpt>
      <trkpt lat="45.30863" lon="6.16096">
        <ele>2377</ele>
        <time>2020-02-08T12:38:59.000Z</time>
      </trkpt>
      <trkpt lat="45.30863" lon="6.16096">
        <ele>2377.1999511719</ele>
        <time>2020-02-08T12:39:17.000Z</time>
      </trkpt>
      <trkpt lat="45.30863" lon="6.16095">
        <ele>2376.8000488281</ele>
        <time>2020-02-08T12:39:36.000Z</time>
      </trkpt>
      <trkpt lat="45.30863" lon="6.16095">
        <ele>2376</ele>
        <time>2020-02-08T12:39:45.000Z</time>
      </trkpt>
      <trkpt lat="45.30863" lon="6.16095">
        <ele>2375.8000488281</ele>
        <time>2020-02-08T12:39:49.000Z</time>
      </trkpt>
      <trkpt lat="45.30863" lon="6.16095">
        <ele>2377.1999511719</ele>
        <time>2020-02-08T12:39:52.000Z</time>
      </trkpt>
      <trkpt lat="45.30864" lon="6.16093">
        <ele>2376.8000488281</ele>
        <time>2020-02-08T12:40:00.000Z</time>
      </trkpt>
      <trkpt lat="45.30864" lon="6.16093">
        <ele>2376.6000976562</ele>
        <time>2020-02-08T12:40:10.000Z</time>
      </trkpt>
      <trkpt lat="45.30864" lon="6.16093">
        <ele>2377</ele>
        <time>2020-02-08T12:40:19.000Z</time>
      </trkpt>
      <trkpt lat="45.30864" lon="6.16093">
        <ele>2376.8000488281</ele>
        <time>2020-02-08T12:40:30.000Z</time>
      </trkpt>
      <trkpt lat="45.30863" lon="6.16094">
        <ele>2376.6000976562</ele>
        <time>2020-02-08T12:40:43.000Z</time>
      </trkpt>
      <trkpt lat="45.30863" lon="6.16094">
        <ele>2376.6000976562</ele>
        <time>2020-02-08T12:40:59.000Z</time>
      </trkpt>
      <trkpt lat="45.30863" lon="6.16094">
        <ele>2376.8000488281</ele>
        <time>2020-02-08T12:41:13.000Z</time>
      </trkpt>
      <trkpt lat="45.30863" lon="6.16094">
        <ele>2376.1999511719</ele>
        <time>2020-02-08T12:41:21.000Z</time>
      </trkpt>
      <trkpt lat="45.30863" lon="6.16094">
        <ele>2376.6000976562</ele>
        <time>2020-02-08T12:41:24.000Z</time>
      </trkpt>
      <trkpt lat="45.30863" lon="6.16094">
        <ele>2377.1999511719</ele>
        <time>2020-02-08T12:41:27.000Z</time>
      </trkpt>
      <trkpt lat="45.30863" lon="6.16094">
        <ele>2376.6000976562</ele>
        <time>2020-02-08T12:41:32.000Z</time>
      </trkpt>
      <trkpt lat="45.30863" lon="6.16094">
        <ele>2376.6000976562</ele>
        <time>2020-02-08T12:41:45.000Z</time>
      </trkpt>
      <trkpt lat="45.30863" lon="6.16094">
        <ele>2376.6000976562</ele>
        <time>2020-02-08T12:41:55.000Z</time>
      </trkpt>
      <trkpt lat="45.30863" lon="6.16093">
        <ele>2376.6000976562</ele>
        <time>2020-02-08T12:42:08.000Z</time>
      </trkpt>
      <trkpt lat="45.30863" lon="6.16093">
        <ele>2376.6000976562</ele>
        <time>2020-02-08T12:42:17.000Z</time>
      </trkpt>
      <trkpt lat="45.30863" lon="6.16093">
        <ele>2376.6000976562</ele>
        <time>2020-02-08T12:42:28.000Z</time>
      </trkpt>
      <trkpt lat="45.30863" lon="6.16093">
        <ele>2376.6000976562</ele>
        <time>2020-02-08T12:42:42.000Z</time>
      </trkpt>
      <trkpt lat="45.30863" lon="6.16093">
        <ele>2376.6000976562</ele>
        <time>2020-02-08T12:42:56.000Z</time>
      </trkpt>
      <trkpt lat="45.30863" lon="6.16093">
        <ele>2376.6000976562</ele>
        <time>2020-02-08T12:43:10.000Z</time>
      </trkpt>
      <trkpt lat="45.30862" lon="6.16091">
        <ele>2376.6000976562</ele>
        <time>2020-02-08T12:43:24.000Z</time>
      </trkpt>
      <trkpt lat="45.30862" lon="6.16091">
        <ele>2377</ele>
        <time>2020-02-08T12:43:37.000Z</time>
      </trkpt>
      <trkpt lat="45.30862" lon="6.16091">
        <ele>2376.8000488281</ele>
        <time>2020-02-08T12:43:50.000Z</time>
      </trkpt>
      <trkpt lat="45.30862" lon="6.16092">
        <ele>2376.8000488281</ele>
        <time>2020-02-08T12:44:05.000Z</time>
      </trkpt>
      <trkpt lat="45.30862" lon="6.16092">
        <ele>2377</ele>
        <time>2020-02-08T12:44:22.000Z</time>
      </trkpt>
      <trkpt lat="45.30862" lon="6.16092">
        <ele>2377</ele>
        <time>2020-02-08T12:44:35.000Z</time>
      </trkpt>
      <trkpt lat="45.30862" lon="6.16092">
        <ele>2377</ele>
        <time>2020-02-08T12:44:36.000Z</time>
      </trkpt>
      <trkpt lat="45.30862" lon="6.16091">
        <ele>2377</ele>
        <time>2020-02-08T12:44:43.000Z</time>
      </trkpt>
      <trkpt lat="45.30862" lon="6.16091">
        <ele>2376.3999023438</ele>
        <time>2020-02-08T12:44:53.000Z</time>
      </trkpt>
      <trkpt lat="45.30862" lon="6.16091">
        <ele>2377</ele>
        <time>2020-02-08T12:45:02.000Z</time>
      </trkpt>
      <trkpt lat="45.30862" lon="6.16091">
        <ele>2376.8000488281</ele>
        <time>2020-02-08T12:45:11.000Z</time>
      </trkpt>
      <trkpt lat="45.30862" lon="6.16091">
        <ele>2377.8000488281</ele>
        <time>2020-02-08T12:45:24.000Z</time>
      </trkpt>
      <trkpt lat="45.30862" lon="6.16091">
        <ele>2377.6000976562</ele>
        <time>2020-02-08T12:45:38.000Z</time>
      </trkpt>
      <trkpt lat="45.30862" lon="6.16091">
        <ele>2376.8000488281</ele>
        <time>2020-02-08T12:45:49.000Z</time>
      </trkpt>
      <trkpt lat="45.30862" lon="6.16092">
        <ele>2377</ele>
        <time>2020-02-08T12:46:03.000Z</time>
      </trkpt>
      <trkpt lat="45.30862" lon="6.16092">
        <ele>2376.8000488281</ele>
        <time>2020-02-08T12:46:15.000Z</time>
      </trkpt>
      <trkpt lat="45.30862" lon="6.16092">
        <ele>2376.8000488281</ele>
        <time>2020-02-08T12:46:28.000Z</time>
      </trkpt>
      <trkpt lat="45.30861" lon="6.16092">
        <ele>2377</ele>
        <time>2020-02-08T12:46:43.000Z</time>
      </trkpt>
      <trkpt lat="45.30861" lon="6.16092">
        <ele>2376.8000488281</ele>
        <time>2020-02-08T12:47:02.000Z</time>
      </trkpt>
      <trkpt lat="45.30861" lon="6.16092">
        <ele>2376.6000976562</ele>
        <time>2020-02-08T12:47:17.000Z</time>
      </trkpt>
      <trkpt lat="45.30861" lon="6.16092">
        <ele>2376.6000976562</ele>
        <time>2020-02-08T12:47:30.000Z</time>
      </trkpt>
      <trkpt lat="45.30861" lon="6.16092">
        <ele>2376.6000976562</ele>
        <time>2020-02-08T12:47:40.000Z</time>
      </trkpt>
      <trkpt lat="45.30861" lon="6.16092">
        <ele>2376.3999023438</ele>
        <time>2020-02-08T12:47:49.000Z</time>
      </trkpt>
      <trkpt lat="45.30861" lon="6.16092">
        <ele>2376.6000976562</ele>
        <time>2020-02-08T12:48:00.000Z</time>
      </trkpt>
      <trkpt lat="45.30861" lon="6.16092">
        <ele>2376.3999023438</ele>
        <time>2020-02-08T12:48:09.000Z</time>
      </trkpt>
      <trkpt lat="45.30861" lon="6.16092">
        <ele>2376.6000976562</ele>
        <time>2020-02-08T12:48:14.000Z</time>
      </trkpt>
      <trkpt lat="45.30861" lon="6.16092">
        <ele>2376.3999023438</ele>
        <time>2020-02-08T12:48:24.000Z</time>
      </trkpt>
      <trkpt lat="45.30861" lon="6.16092">
        <ele>2376.3999023438</ele>
        <time>2020-02-08T12:48:38.000Z</time>
      </trkpt>
      <trkpt lat="45.30861" lon="6.16093">
        <ele>2376.3999023438</ele>
        <time>2020-02-08T12:48:46.000Z</time>
      </trkpt>
      <trkpt lat="45.30861" lon="6.16093">
        <ele>2376.3999023438</ele>
        <time>2020-02-08T12:48:59.000Z</time>
      </trkpt>
      <trkpt lat="45.30861" lon="6.16093">
        <ele>2376</ele>
        <time>2020-02-08T12:49:02.000Z</time>
      </trkpt>
      <trkpt lat="45.30861" lon="6.16093">
        <ele>2375.3999023438</ele>
        <time>2020-02-08T12:49:09.000Z</time>
      </trkpt>
      <trkpt lat="45.30861" lon="6.16093">
        <ele>2377.3999023438</ele>
        <time>2020-02-08T12:49:15.000Z</time>
      </trkpt>
      <trkpt lat="45.30861" lon="6.16093">
        <ele>2377.8000488281</ele>
        <time>2020-02-08T12:49:22.000Z</time>
      </trkpt>
      <trkpt lat="45.30861" lon="6.16093">
        <ele>2376.8000488281</ele>
        <time>2020-02-08T12:49:34.000Z</time>
      </trkpt>
      <trkpt lat="45.30861" lon="6.16093">
        <ele>2377.1999511719</ele>
        <time>2020-02-08T12:49:46.000Z</time>
      </trkpt>
      <trkpt lat="45.30861" lon="6.16093">
        <ele>2376.3999023438</ele>
        <time>2020-02-08T12:49:51.000Z</time>
      </trkpt>
      <trkpt lat="45.30861" lon="6.16093">
        <ele>2377.3999023438</ele>
        <time>2020-02-08T12:49:56.000Z</time>
      </trkpt>
      <trkpt lat="45.30861" lon="6.16093">
        <ele>2377</ele>
        <time>2020-02-08T12:50:05.000Z</time>
      </trkpt>
      <trkpt lat="45.30861" lon="6.16093">
        <ele>2376.3999023438</ele>
        <time>2020-02-08T12:50:19.000Z</time>
      </trkpt>
      <trkpt lat="45.30861" lon="6.16093">
        <ele>2377</ele>
        <time>2020-02-08T12:50:29.000Z</time>
      </trkpt>
      <trkpt lat="45.3086" lon="6.16093">
        <ele>2377.1999511719</ele>
        <time>2020-02-08T12:50:44.000Z</time>
      </trkpt>
      <trkpt lat="45.3086" lon="6.16093">
        <ele>2377</ele>
        <time>2020-02-08T12:50:56.000Z</time>
      </trkpt>
      <trkpt lat="45.3086" lon="6.16093">
        <ele>2377</ele>
        <time>2020-02-08T12:51:11.000Z</time>
      </trkpt>
      <trkpt lat="45.3086" lon="6.16093">
        <ele>2377</ele>
        <time>2020-02-08T12:51:27.000Z</time>
      </trkpt>
      <trkpt lat="45.3086" lon="6.16093">
        <ele>2377</ele>
        <time>2020-02-08T12:51:41.000Z</time>
      </trkpt>
      <trkpt lat="45.3086" lon="6.16093">
        <ele>2377</ele>
        <time>2020-02-08T12:51:55.000Z</time>
      </trkpt>
      <trkpt lat="45.3086" lon="6.16093">
        <ele>2377</ele>
        <time>2020-02-08T12:52:07.000Z</time>
      </trkpt>
      <trkpt lat="45.30861" lon="6.16091">
        <ele>2376.8000488281</ele>
        <time>2020-02-08T12:52:12.000Z</time>
      </trkpt>
      <trkpt lat="45.30862" lon="6.16089">
        <ele>2378.1999511719</ele>
        <time>2020-02-08T12:52:17.000Z</time>
      </trkpt>
      <trkpt lat="45.30863" lon="6.16089">
        <ele>2378.3999023438</ele>
        <time>2020-02-08T12:52:18.000Z</time>
      </trkpt>
      <trkpt lat="45.30865" lon="6.16083">
        <ele>2379</ele>
        <time>2020-02-08T12:52:21.000Z</time>
      </trkpt>
      <trkpt lat="45.30866" lon="6.1608">
        <ele>2379.8000488281</ele>
        <time>2020-02-08T12:52:25.000Z</time>
      </trkpt>
      <trkpt lat="45.30867" lon="6.16079">
        <ele>2380.3999023438</ele>
        <time>2020-02-08T12:52:27.000Z</time>
      </trkpt>
      <trkpt lat="45.30867" lon="6.16075">
        <ele>2380.8000488281</ele>
        <time>2020-02-08T12:52:29.000Z</time>
      </trkpt>
      <trkpt lat="45.30868" lon="6.16073">
        <ele>2380.8000488281</ele>
        <time>2020-02-08T12:52:30.000Z</time>
      </trkpt>
      <trkpt lat="45.30869" lon="6.16071">
        <ele>2381.1999511719</ele>
        <time>2020-02-08T12:52:34.000Z</time>
      </trkpt>
      <trkpt lat="45.30869" lon="6.1607">
        <ele>2382</ele>
        <time>2020-02-08T12:52:37.000Z</time>
      </trkpt>
      <trkpt lat="45.30869" lon="6.16069">
        <ele>2382.6000976562</ele>
        <time>2020-02-08T12:52:42.000Z</time>
      </trkpt>
      <trkpt lat="45.30869" lon="6.16069">
        <ele>2382.3999023438</ele>
        <time>2020-02-08T12:52:44.000Z</time>
      </trkpt>
      <trkpt lat="45.3087" lon="6.16064">
        <ele>2382.6000976562</ele>
        <time>2020-02-08T12:52:48.000Z</time>
      </trkpt>
      <trkpt lat="45.3087" lon="6.16063">
        <ele>2383.3999023438</ele>
        <time>2020-02-08T12:52:49.000Z</time>
      </trkpt>
      <trkpt lat="45.30871" lon="6.16059">
        <ele>2383.8000488281</ele>
        <time>2020-02-08T12:52:53.000Z</time>
      </trkpt>
      <trkpt lat="45.30871" lon="6.16056">
        <ele>2384.3999023438</ele>
        <time>2020-02-08T12:52:57.000Z</time>
      </trkpt>
      <trkpt lat="45.30872" lon="6.16055">
        <ele>2384.8000488281</ele>
        <time>2020-02-08T12:52:58.000Z</time>
      </trkpt>
      <trkpt lat="45.30872" lon="6.16054">
        <ele>2385.6000976562</ele>
        <time>2020-02-08T12:53:01.000Z</time>
      </trkpt>
      <trkpt lat="45.30872" lon="6.16054">
        <ele>2386</ele>
        <time>2020-02-08T12:53:06.000Z</time>
      </trkpt>
      <trkpt lat="45.30872" lon="6.16054">
        <ele>2386</ele>
        <time>2020-02-08T12:53:24.000Z</time>
      </trkpt>
      <trkpt lat="45.30872" lon="6.16054">
        <ele>2385.8000488281</ele>
        <time>2020-02-08T12:53:35.000Z</time>
      </trkpt>
      <trkpt lat="45.30872" lon="6.16054">
        <ele>2386.3999023438</ele>
        <time>2020-02-08T12:53:42.000Z</time>
      </trkpt>
      <trkpt lat="45.30873" lon="6.16053">
        <ele>2386.6000976562</ele>
        <time>2020-02-08T12:53:43.000Z</time>
      </trkpt>
      <trkpt lat="45.30872" lon="6.16054">
        <ele>2387</ele>
        <time>2020-02-08T12:53:47.000Z</time>
      </trkpt>
      <trkpt lat="45.30872" lon="6.16052">
        <ele>2387.6000976562</ele>
        <time>2020-02-08T12:53:51.000Z</time>
      </trkpt>
      <trkpt lat="45.30874" lon="6.1605">
        <ele>2388.1999511719</ele>
        <time>2020-02-08T12:53:53.000Z</time>
      </trkpt>
      <trkpt lat="45.30874" lon="6.1605">
        <ele>2388.8000488281</ele>
        <time>2020-02-08T12:53:55.000Z</time>
      </trkpt>
      <trkpt lat="45.30874" lon="6.16049">
        <ele>2389.3999023438</ele>
        <time>2020-02-08T12:53:58.000Z</time>
      </trkpt>
      <trkpt lat="45.30874" lon="6.16047">
        <ele>2389.8000488281</ele>
        <time>2020-02-08T12:54:00.000Z</time>
      </trkpt>
      <trkpt lat="45.30875" lon="6.16046">
        <ele>2390.3999023438</ele>
        <time>2020-02-08T12:54:02.000Z</time>
      </trkpt>
      <trkpt lat="45.30875" lon="6.16044">
        <ele>2391</ele>
        <time>2020-02-08T12:54:05.000Z</time>
      </trkpt>
      <trkpt lat="45.30875" lon="6.16043">
        <ele>2391.1999511719</ele>
        <time>2020-02-08T12:54:07.000Z</time>
      </trkpt>
      <trkpt lat="45.30876" lon="6.16042">
        <ele>2391.3999023438</ele>
        <time>2020-02-08T12:54:08.000Z</time>
      </trkpt>
      <trkpt lat="45.30876" lon="6.1604">
        <ele>2392</ele>
        <time>2020-02-08T12:54:11.000Z</time>
      </trkpt>
      <trkpt lat="45.30876" lon="6.16039">
        <ele>2392.3999023438</ele>
        <time>2020-02-08T12:54:12.000Z</time>
      </trkpt>
      <trkpt lat="45.30877" lon="6.16037">
        <ele>2393</ele>
        <time>2020-02-08T12:54:17.000Z</time>
      </trkpt>
      <trkpt lat="45.30877" lon="6.16036">
        <ele>2393.1999511719</ele>
        <time>2020-02-08T12:54:18.000Z</time>
      </trkpt>
      <trkpt lat="45.30877" lon="6.16035">
        <ele>2394</ele>
        <time>2020-02-08T12:54:21.000Z</time>
      </trkpt>
      <trkpt lat="45.30877" lon="6.16035">
        <ele>2394.1999511719</ele>
        <time>2020-02-08T12:54:24.000Z</time>
      </trkpt>
      <trkpt lat="45.30877" lon="6.16035">
        <ele>2394.8000488281</ele>
        <time>2020-02-08T12:54:26.000Z</time>
      </trkpt>
      <trkpt lat="45.30877" lon="6.16035">
        <ele>2395.3999023438</ele>
        <time>2020-02-08T12:54:34.000Z</time>
      </trkpt>
      <trkpt lat="45.30877" lon="6.16035">
        <ele>2395.6000976562</ele>
        <time>2020-02-08T12:54:35.000Z</time>
      </trkpt>
      <trkpt lat="45.30877" lon="6.16035">
        <ele>2395.6000976562</ele>
        <time>2020-02-08T12:54:44.000Z</time>
      </trkpt>
      <trkpt lat="45.30878" lon="6.1603">
        <ele>2396.3999023438</ele>
        <time>2020-02-08T12:54:51.000Z</time>
      </trkpt>
      <trkpt lat="45.30877" lon="6.16029">
        <ele>2397.6000976562</ele>
        <time>2020-02-08T12:54:56.000Z</time>
      </trkpt>
      <trkpt lat="45.30877" lon="6.16029">
        <ele>2398.1999511719</ele>
        <time>2020-02-08T12:55:12.000Z</time>
      </trkpt>
      <trkpt lat="45.30879" lon="6.16022">
        <ele>2398.8000488281</ele>
        <time>2020-02-08T12:55:18.000Z</time>
      </trkpt>
      <trkpt lat="45.3088" lon="6.16019">
        <ele>2399.8000488281</ele>
        <time>2020-02-08T12:55:23.000Z</time>
      </trkpt>
      <trkpt lat="45.3088" lon="6.16017">
        <ele>2400</ele>
        <time>2020-02-08T12:55:24.000Z</time>
      </trkpt>
      <trkpt lat="45.30881" lon="6.16014">
        <ele>2400.1999511719</ele>
        <time>2020-02-08T12:55:27.000Z</time>
      </trkpt>
      <trkpt lat="45.30881" lon="6.16009">
        <ele>2401</ele>
        <time>2020-02-08T12:55:30.000Z</time>
      </trkpt>
      <trkpt lat="45.30881" lon="6.16009">
        <ele>2401.1999511719</ele>
        <time>2020-02-08T12:55:31.000Z</time>
      </trkpt>
      <trkpt lat="45.30882" lon="6.16008">
        <ele>2402.1999511719</ele>
        <time>2020-02-08T12:55:35.000Z</time>
      </trkpt>
      <trkpt lat="45.30882" lon="6.16006">
        <ele>2402.3999023438</ele>
        <time>2020-02-08T12:55:36.000Z</time>
      </trkpt>
      <trkpt lat="45.30882" lon="6.15996">
        <ele>2403.1999511719</ele>
        <time>2020-02-08T12:55:40.000Z</time>
      </trkpt>
      <trkpt lat="45.30883" lon="6.15994">
        <ele>2403.6000976562</ele>
        <time>2020-02-08T12:55:42.000Z</time>
      </trkpt>
      <trkpt lat="45.30884" lon="6.15993">
        <ele>2404.3999023438</ele>
        <time>2020-02-08T12:55:45.000Z</time>
      </trkpt>
      <trkpt lat="45.30884" lon="6.15993">
        <ele>2404.6000976562</ele>
        <time>2020-02-08T12:55:46.000Z</time>
      </trkpt>
      <trkpt lat="45.30884" lon="6.15993">
        <ele>2405.6000976562</ele>
        <time>2020-02-08T12:55:49.000Z</time>
      </trkpt>
      <trkpt lat="45.30884" lon="6.15993">
        <ele>2406.1999511719</ele>
        <time>2020-02-08T12:55:51.000Z</time>
      </trkpt>
      <trkpt lat="45.30884" lon="6.15993">
        <ele>2406.6000976562</ele>
        <time>2020-02-08T12:55:53.000Z</time>
      </trkpt>
      <trkpt lat="45.30885" lon="6.15994">
        <ele>2407</ele>
        <time>2020-02-08T12:55:58.000Z</time>
      </trkpt>
      <trkpt lat="45.30884" lon="6.15993">
        <ele>2407.6000976562</ele>
        <time>2020-02-08T12:56:01.000Z</time>
      </trkpt>
      <trkpt lat="45.30884" lon="6.15993">
        <ele>2408.3999023438</ele>
        <time>2020-02-08T12:56:04.000Z</time>
      </trkpt>
      <trkpt lat="45.30887" lon="6.15995">
        <ele>2408.8000488281</ele>
        <time>2020-02-08T12:56:06.000Z</time>
      </trkpt>
      <trkpt lat="45.30887" lon="6.15994">
        <ele>2409.3999023438</ele>
        <time>2020-02-08T12:56:10.000Z</time>
      </trkpt>
      <trkpt lat="45.30887" lon="6.15994">
        <ele>2409.8000488281</ele>
        <time>2020-02-08T12:56:13.000Z</time>
      </trkpt>
      <trkpt lat="45.30887" lon="6.15994">
        <ele>2410</ele>
        <time>2020-02-08T12:56:21.000Z</time>
      </trkpt>
      <trkpt lat="45.30886" lon="6.1599">
        <ele>2410</ele>
        <time>2020-02-08T12:56:30.000Z</time>
      </trkpt>
      <trkpt lat="45.30898" lon="6.15979">
        <ele>2409.3999023438</ele>
        <time>2020-02-08T12:56:42.000Z</time>
      </trkpt>
      <trkpt lat="45.30898" lon="6.15982">
        <ele>2409.3999023438</ele>
        <time>2020-02-08T12:56:48.000Z</time>
      </trkpt>
      <trkpt lat="45.30898" lon="6.15986">
        <ele>2410.3999023438</ele>
        <time>2020-02-08T12:56:53.000Z</time>
      </trkpt>
      <trkpt lat="45.30898" lon="6.15989">
        <ele>2411</ele>
        <time>2020-02-08T12:56:58.000Z</time>
      </trkpt>
      <trkpt lat="45.30898" lon="6.1599">
        <ele>2411</ele>
        <time>2020-02-08T12:56:59.000Z</time>
      </trkpt>
      <trkpt lat="45.30898" lon="6.15993">
        <ele>2412</ele>
        <time>2020-02-08T12:57:04.000Z</time>
      </trkpt>
      <trkpt lat="45.30898" lon="6.15994">
        <ele>2412.1999511719</ele>
        <time>2020-02-08T12:57:05.000Z</time>
      </trkpt>
      <trkpt lat="45.30899" lon="6.15998">
        <ele>2413</ele>
        <time>2020-02-08T12:57:10.000Z</time>
      </trkpt>
      <trkpt lat="45.30899" lon="6.15998">
        <ele>2413.1999511719</ele>
        <time>2020-02-08T12:57:11.000Z</time>
      </trkpt>
      <trkpt lat="45.30903" lon="6.16002">
        <ele>2414.1999511719</ele>
        <time>2020-02-08T12:57:17.000Z</time>
      </trkpt>
      <trkpt lat="45.30904" lon="6.16006">
        <ele>2415.3999023438</ele>
        <time>2020-02-08T12:57:23.000Z</time>
      </trkpt>
      <trkpt lat="45.30905" lon="6.16012">
        <ele>2416.6000976562</ele>
        <time>2020-02-08T12:57:29.000Z</time>
      </trkpt>
      <trkpt lat="45.30905" lon="6.16014">
        <ele>2416.8000488281</ele>
        <time>2020-02-08T12:57:30.000Z</time>
      </trkpt>
      <trkpt lat="45.30906" lon="6.16016">
        <ele>2417.8000488281</ele>
        <time>2020-02-08T12:57:34.000Z</time>
      </trkpt>
      <trkpt lat="45.30907" lon="6.16017">
        <ele>2418</ele>
        <time>2020-02-08T12:57:35.000Z</time>
      </trkpt>
      <trkpt lat="45.30908" lon="6.16017">
        <ele>2418.8000488281</ele>
        <time>2020-02-08T12:57:37.000Z</time>
      </trkpt>
      <trkpt lat="45.3091" lon="6.16015">
        <ele>2419.3999023438</ele>
        <time>2020-02-08T12:57:42.000Z</time>
      </trkpt>
      <trkpt lat="45.30913" lon="6.16018">
        <ele>2419.1999511719</ele>
        <time>2020-02-08T12:57:49.000Z</time>
      </trkpt>
      <trkpt lat="45.30913" lon="6.16023">
        <ele>2420</ele>
        <time>2020-02-08T12:57:54.000Z</time>
      </trkpt>
      <trkpt lat="45.30914" lon="6.16025">
        <ele>2420.1999511719</ele>
        <time>2020-02-08T12:57:55.000Z</time>
      </trkpt>
      <trkpt lat="45.30915" lon="6.1603">
        <ele>2421.1999511719</ele>
        <time>2020-02-08T12:58:01.000Z</time>
      </trkpt>
      <trkpt lat="45.30915" lon="6.16031">
        <ele>2421.3999023438</ele>
        <time>2020-02-08T12:58:02.000Z</time>
      </trkpt>
      <trkpt lat="45.30915" lon="6.16037">
        <ele>2422.1999511719</ele>
        <time>2020-02-08T12:58:08.000Z</time>
      </trkpt>
      <trkpt lat="45.30915" lon="6.16039">
        <ele>2423.3999023438</ele>
        <time>2020-02-08T12:58:14.000Z</time>
      </trkpt>
      <trkpt lat="45.30917" lon="6.16043">
        <ele>2424.3999023438</ele>
        <time>2020-02-08T12:58:19.000Z</time>
      </trkpt>
      <trkpt lat="45.30918" lon="6.16044">
        <ele>2424.6000976562</ele>
        <time>2020-02-08T12:58:20.000Z</time>
      </trkpt>
      <trkpt lat="45.30919" lon="6.16047">
        <ele>2425.3999023438</ele>
        <time>2020-02-08T12:58:24.000Z</time>
      </trkpt>
      <trkpt lat="45.30919" lon="6.16047">
        <ele>2426</ele>
        <time>2020-02-08T12:58:26.000Z</time>
      </trkpt>
      <trkpt lat="45.3092" lon="6.16048">
        <ele>2426.3999023438</ele>
        <time>2020-02-08T12:58:29.000Z</time>
      </trkpt>
      <trkpt lat="45.30922" lon="6.16049">
        <ele>2426.8000488281</ele>
        <time>2020-02-08T12:58:31.000Z</time>
      </trkpt>
      <trkpt lat="45.30925" lon="6.16052">
        <ele>2427.6000976562</ele>
        <time>2020-02-08T12:58:38.000Z</time>
      </trkpt>
      <trkpt lat="45.30925" lon="6.16053">
        <ele>2428.6000976562</ele>
        <time>2020-02-08T12:58:44.000Z</time>
      </trkpt>
      <trkpt lat="45.30925" lon="6.16053">
        <ele>2429.8000488281</ele>
        <time>2020-02-08T12:58:48.000Z</time>
      </trkpt>
      <trkpt lat="45.30925" lon="6.16053">
        <ele>2430.3999023438</ele>
        <time>2020-02-08T12:58:50.000Z</time>
      </trkpt>
      <trkpt lat="45.30925" lon="6.16053">
        <ele>2431</ele>
        <time>2020-02-08T12:58:55.000Z</time>
      </trkpt>
      <trkpt lat="45.30925" lon="6.16053">
        <ele>2431.1999511719</ele>
        <time>2020-02-08T12:58:58.000Z</time>
      </trkpt>
      <trkpt lat="45.30927" lon="6.16056">
        <ele>2431</ele>
        <time>2020-02-08T12:59:04.000Z</time>
      </trkpt>
      <trkpt lat="45.30927" lon="6.16056">
        <ele>2432.1999511719</ele>
        <time>2020-02-08T12:59:10.000Z</time>
      </trkpt>
      <trkpt lat="45.30927" lon="6.16056">
        <ele>2433.1999511719</ele>
        <time>2020-02-08T12:59:13.000Z</time>
      </trkpt>
      <trkpt lat="45.30927" lon="6.16056">
        <ele>2434.1999511719</ele>
        <time>2020-02-08T12:59:17.000Z</time>
      </trkpt>
      <trkpt lat="45.30927" lon="6.16056">
        <ele>2434.3999023438</ele>
        <time>2020-02-08T12:59:19.000Z</time>
      </trkpt>
      <trkpt lat="45.30927" lon="6.16056">
        <ele>2435.1999511719</ele>
        <time>2020-02-08T12:59:24.000Z</time>
      </trkpt>
      <trkpt lat="45.30927" lon="6.16056">
        <ele>2435.3999023438</ele>
        <time>2020-02-08T12:59:26.000Z</time>
      </trkpt>
      <trkpt lat="45.30927" lon="6.16056">
        <ele>2436.3999023438</ele>
        <time>2020-02-08T12:59:31.000Z</time>
      </trkpt>
      <trkpt lat="45.30927" lon="6.16056">
        <ele>2436.6000976562</ele>
        <time>2020-02-08T12:59:32.000Z</time>
      </trkpt>
      <trkpt lat="45.30927" lon="6.16056">
        <ele>2436.3999023438</ele>
        <time>2020-02-08T12:59:42.000Z</time>
      </trkpt>
      <trkpt lat="45.30935" lon="6.16057">
        <ele>2437</ele>
        <time>2020-02-08T12:59:47.000Z</time>
      </trkpt>
      <trkpt lat="45.30939" lon="6.16059">
        <ele>2437.6000976562</ele>
        <time>2020-02-08T12:59:50.000Z</time>
      </trkpt>
      <trkpt lat="45.3094" lon="6.16059">
        <ele>2438.1999511719</ele>
        <time>2020-02-08T12:59:54.000Z</time>
      </trkpt>
      <trkpt lat="45.30943" lon="6.16057">
        <ele>2438.6000976562</ele>
        <time>2020-02-08T12:59:57.000Z</time>
      </trkpt>
      <trkpt lat="45.30943" lon="6.16058">
        <ele>2438.8000488281</ele>
        <time>2020-02-08T12:59:58.000Z</time>
      </trkpt>
      <trkpt lat="45.30945" lon="6.16056">
        <ele>2439.6000976562</ele>
        <time>2020-02-08T13:00:04.000Z</time>
      </trkpt>
      <trkpt lat="45.30945" lon="6.16056">
        <ele>2440</ele>
        <time>2020-02-08T13:00:11.000Z</time>
      </trkpt>
      <trkpt lat="45.30945" lon="6.16056">
        <ele>2440.6000976562</ele>
        <time>2020-02-08T13:00:15.000Z</time>
      </trkpt>
      <trkpt lat="45.30945" lon="6.16056">
        <ele>2440.1999511719</ele>
        <time>2020-02-08T13:00:23.000Z</time>
      </trkpt>
      <trkpt lat="45.30945" lon="6.16056">
        <ele>2439.8000488281</ele>
        <time>2020-02-08T13:00:35.000Z</time>
      </trkpt>
      <trkpt lat="45.30945" lon="6.16056">
        <ele>2440.1999511719</ele>
        <time>2020-02-08T13:00:50.000Z</time>
      </trkpt>
      <trkpt lat="45.30945" lon="6.16056">
        <ele>2440.1999511719</ele>
        <time>2020-02-08T13:01:02.000Z</time>
      </trkpt>
      <trkpt lat="45.30945" lon="6.16056">
        <ele>2440.1999511719</ele>
        <time>2020-02-08T13:01:11.000Z</time>
      </trkpt>
      <trkpt lat="45.30945" lon="6.16056">
        <ele>2440</ele>
        <time>2020-02-08T13:01:21.000Z</time>
      </trkpt>
      <trkpt lat="45.30945" lon="6.16056">
        <ele>2440</ele>
        <time>2020-02-08T13:01:22.000Z</time>
      </trkpt>
      <trkpt lat="45.30945" lon="6.16056">
        <ele>2439.3999023438</ele>
        <time>2020-02-08T13:01:37.000Z</time>
      </trkpt>
      <trkpt lat="45.30945" lon="6.16056">
        <ele>2439</ele>
        <time>2020-02-08T13:01:45.000Z</time>
      </trkpt>
      <trkpt lat="45.30945" lon="6.16056">
        <ele>2439.6000976562</ele>
        <time>2020-02-08T13:01:55.000Z</time>
      </trkpt>
      <trkpt lat="45.30945" lon="6.16056">
        <ele>2440</ele>
        <time>2020-02-08T13:01:59.000Z</time>
      </trkpt>
      <trkpt lat="45.30945" lon="6.16056">
        <ele>2439.6000976562</ele>
        <time>2020-02-08T13:02:06.000Z</time>
      </trkpt>
      <trkpt lat="45.30946" lon="6.16056">
        <ele>2439.6000976562</ele>
        <time>2020-02-08T13:02:14.000Z</time>
      </trkpt>
      <trkpt lat="45.30946" lon="6.16056">
        <ele>2440.3999023438</ele>
        <time>2020-02-08T13:02:28.000Z</time>
      </trkpt>
      <trkpt lat="45.30946" lon="6.16056">
        <ele>2439.6000976562</ele>
        <time>2020-02-08T13:02:39.000Z</time>
      </trkpt>
      <trkpt lat="45.30946" lon="6.16056">
        <ele>2439.6000976562</ele>
        <time>2020-02-08T13:02:48.000Z</time>
      </trkpt>
      <trkpt lat="45.30946" lon="6.16056">
        <ele>2439.3999023438</ele>
        <time>2020-02-08T13:02:56.000Z</time>
      </trkpt>
      <trkpt lat="45.30946" lon="6.16056">
        <ele>2440.1999511719</ele>
        <time>2020-02-08T13:03:08.000Z</time>
      </trkpt>
      <trkpt lat="45.30946" lon="6.16056">
        <ele>2439.8000488281</ele>
        <time>2020-02-08T13:03:15.000Z</time>
      </trkpt>
      <trkpt lat="45.30946" lon="6.16056">
        <ele>2439.6000976562</ele>
        <time>2020-02-08T13:03:19.000Z</time>
      </trkpt>
      <trkpt lat="45.30946" lon="6.16061">
        <ele>2439.6000976562</ele>
        <time>2020-02-08T13:03:27.000Z</time>
      </trkpt>
      <trkpt lat="45.30948" lon="6.16064">
        <ele>2440.6000976562</ele>
        <time>2020-02-08T13:03:33.000Z</time>
      </trkpt>
      <trkpt lat="45.3095" lon="6.16065">
        <ele>2441.1999511719</ele>
        <time>2020-02-08T13:03:35.000Z</time>
      </trkpt>
      <trkpt lat="45.3095" lon="6.16067">
        <ele>2442.1999511719</ele>
        <time>2020-02-08T13:03:39.000Z</time>
      </trkpt>
      <trkpt lat="45.30951" lon="6.16067">
        <ele>2442.3999023438</ele>
        <time>2020-02-08T13:03:40.000Z</time>
      </trkpt>
      <trkpt lat="45.30951" lon="6.16067">
        <ele>2443.3999023438</ele>
        <time>2020-02-08T13:03:45.000Z</time>
      </trkpt>
      <trkpt lat="45.30951" lon="6.16067">
        <ele>2443.6000976562</ele>
        <time>2020-02-08T13:03:46.000Z</time>
      </trkpt>
      <trkpt lat="45.30951" lon="6.16067">
        <ele>2444.3999023438</ele>
        <time>2020-02-08T13:03:50.000Z</time>
      </trkpt>
      <trkpt lat="45.30951" lon="6.16067">
        <ele>2445.6000976562</ele>
        <time>2020-02-08T13:03:53.000Z</time>
      </trkpt>
      <trkpt lat="45.30951" lon="6.16067">
        <ele>2445.6000976562</ele>
        <time>2020-02-08T13:04:00.000Z</time>
      </trkpt>
      <trkpt lat="45.30951" lon="6.16067">
        <ele>2446.8000488281</ele>
        <time>2020-02-08T13:04:03.000Z</time>
      </trkpt>
      <trkpt lat="45.30951" lon="6.16067">
        <ele>2447.8000488281</ele>
        <time>2020-02-08T13:04:08.000Z</time>
      </trkpt>
      <trkpt lat="45.30951" lon="6.16067">
        <ele>2448.8000488281</ele>
        <time>2020-02-08T13:04:11.000Z</time>
      </trkpt>
      <trkpt lat="45.30951" lon="6.16067">
        <ele>2448.8000488281</ele>
        <time>2020-02-08T13:04:18.000Z</time>
      </trkpt>
      <trkpt lat="45.30953" lon="6.16068">
        <ele>2448.8000488281</ele>
        <time>2020-02-08T13:04:23.000Z</time>
      </trkpt>
      <trkpt lat="45.30958" lon="6.16067">
        <ele>2449.8000488281</ele>
        <time>2020-02-08T13:04:30.000Z</time>
      </trkpt>
      <trkpt lat="45.30959" lon="6.16066">
        <ele>2450</ele>
        <time>2020-02-08T13:04:31.000Z</time>
      </trkpt>
      <trkpt lat="45.30961" lon="6.16065">
        <ele>2450</ele>
        <time>2020-02-08T13:04:34.000Z</time>
      </trkpt>
      <trkpt lat="45.30963" lon="6.16065">
        <ele>2450.6000976562</ele>
        <time>2020-02-08T13:04:39.000Z</time>
      </trkpt>
      <trkpt lat="45.30963" lon="6.16064">
        <ele>2451</ele>
        <time>2020-02-08T13:04:40.000Z</time>
      </trkpt>
      <trkpt lat="45.30964" lon="6.16063">
        <ele>2451.6000976562</ele>
        <time>2020-02-08T13:04:43.000Z</time>
      </trkpt>
      <trkpt lat="45.30965" lon="6.16061">
        <ele>2452</ele>
        <time>2020-02-08T13:04:47.000Z</time>
      </trkpt>
      <trkpt lat="45.30966" lon="6.1606">
        <ele>2452.1999511719</ele>
        <time>2020-02-08T13:04:48.000Z</time>
      </trkpt>
      <trkpt lat="45.30966" lon="6.16058">
        <ele>2453.3999023438</ele>
        <time>2020-02-08T13:04:52.000Z</time>
      </trkpt>
      <trkpt lat="45.30967" lon="6.16057">
        <ele>2454.3999023438</ele>
        <time>2020-02-08T13:04:56.000Z</time>
      </trkpt>
      <trkpt lat="45.30968" lon="6.16055">
        <ele>2454.8000488281</ele>
        <time>2020-02-08T13:04:58.000Z</time>
      </trkpt>
      <trkpt lat="45.30968" lon="6.16055">
        <ele>2455</ele>
        <time>2020-02-08T13:05:01.000Z</time>
      </trkpt>
      <trkpt lat="45.30968" lon="6.16054">
        <ele>2455</ele>
        <time>2020-02-08T13:05:03.000Z</time>
      </trkpt>
      <trkpt lat="45.30968" lon="6.16054">
        <ele>2455.6000976562</ele>
        <time>2020-02-08T13:05:06.000Z</time>
      </trkpt>
      <trkpt lat="45.30968" lon="6.16054">
        <ele>2456.3999023438</ele>
        <time>2020-02-08T13:05:10.000Z</time>
      </trkpt>
      <trkpt lat="45.30968" lon="6.16051">
        <ele>2456.6000976562</ele>
        <time>2020-02-08T13:05:13.000Z</time>
      </trkpt>
      <trkpt lat="45.30968" lon="6.16049">
        <ele>2457.1999511719</ele>
        <time>2020-02-08T13:05:16.000Z</time>
      </trkpt>
      <trkpt lat="45.30968" lon="6.16049">
        <ele>2457.1999511719</ele>
        <time>2020-02-08T13:05:27.000Z</time>
      </trkpt>
      <trkpt lat="45.30968" lon="6.16049">
        <ele>2458</ele>
        <time>2020-02-08T13:05:29.000Z</time>
      </trkpt>
      <trkpt lat="45.30968" lon="6.16049">
        <ele>2457.8000488281</ele>
        <time>2020-02-08T13:05:36.000Z</time>
      </trkpt>
      <trkpt lat="45.30969" lon="6.16045">
        <ele>2458</ele>
        <time>2020-02-08T13:05:40.000Z</time>
      </trkpt>
      <trkpt lat="45.3097" lon="6.16041">
        <ele>2458.3999023438</ele>
        <time>2020-02-08T13:05:43.000Z</time>
      </trkpt>
      <trkpt lat="45.3097" lon="6.16037">
        <ele>2458.3999023438</ele>
        <time>2020-02-08T13:05:45.000Z</time>
      </trkpt>
      <trkpt lat="45.3097" lon="6.16033">
        <ele>2459</ele>
        <time>2020-02-08T13:05:48.000Z</time>
      </trkpt>
      <trkpt lat="45.30971" lon="6.16032">
        <ele>2459.1999511719</ele>
        <time>2020-02-08T13:05:49.000Z</time>
      </trkpt>
      <trkpt lat="45.30971" lon="6.16031">
        <ele>2459.3999023438</ele>
        <time>2020-02-08T13:05:50.000Z</time>
      </trkpt>
      <trkpt lat="45.30973" lon="6.16027">
        <ele>2459.8000488281</ele>
        <time>2020-02-08T13:05:53.000Z</time>
      </trkpt>
      <trkpt lat="45.30973" lon="6.16025">
        <ele>2460</ele>
        <time>2020-02-08T13:05:55.000Z</time>
      </trkpt>
      <trkpt lat="45.30973" lon="6.16025">
        <ele>2460.3999023438</ele>
        <time>2020-02-08T13:05:56.000Z</time>
      </trkpt>
      <trkpt lat="45.30973" lon="6.16025">
        <ele>2460.6000976562</ele>
        <time>2020-02-08T13:05:57.000Z</time>
      </trkpt>
      <trkpt lat="45.30972" lon="6.16024">
        <ele>2460.8000488281</ele>
        <time>2020-02-08T13:05:58.000Z</time>
      </trkpt>
      <trkpt lat="45.30973" lon="6.16021">
        <ele>2461.6000976562</ele>
        <time>2020-02-08T13:06:02.000Z</time>
      </trkpt>
      <trkpt lat="45.30973" lon="6.16019">
        <ele>2462.8000488281</ele>
        <time>2020-02-08T13:06:06.000Z</time>
      </trkpt>
      <trkpt lat="45.30973" lon="6.16017">
        <ele>2463.6000976562</ele>
        <time>2020-02-08T13:06:10.000Z</time>
      </trkpt>
      <trkpt lat="45.30973" lon="6.16017">
        <ele>2464</ele>
        <time>2020-02-08T13:06:15.000Z</time>
      </trkpt>
      <trkpt lat="45.30974" lon="6.16016">
        <ele>2464.3999023438</ele>
        <time>2020-02-08T13:06:17.000Z</time>
      </trkpt>
      <trkpt lat="45.30974" lon="6.16011">
        <ele>2465</ele>
        <time>2020-02-08T13:06:20.000Z</time>
      </trkpt>
      <trkpt lat="45.30974" lon="6.1601">
        <ele>2465.1999511719</ele>
        <time>2020-02-08T13:06:21.000Z</time>
      </trkpt>
      <trkpt lat="45.30974" lon="6.16004">
        <ele>2465.6000976562</ele>
        <time>2020-02-08T13:06:27.000Z</time>
      </trkpt>
      <trkpt lat="45.30973" lon="6.16003">
        <ele>2466.1999511719</ele>
        <time>2020-02-08T13:06:30.000Z</time>
      </trkpt>
      <trkpt lat="45.30972" lon="6.16">
        <ele>2466.6000976562</ele>
        <time>2020-02-08T13:06:33.000Z</time>
      </trkpt>
      <trkpt lat="45.30972" lon="6.16">
        <ele>2467.6000976562</ele>
        <time>2020-02-08T13:06:36.000Z</time>
      </trkpt>
      <trkpt lat="45.30972" lon="6.16">
        <ele>2467.8000488281</ele>
        <time>2020-02-08T13:06:37.000Z</time>
      </trkpt>
      <trkpt lat="45.30972" lon="6.15999">
        <ele>2468.1999511719</ele>
        <time>2020-02-08T13:06:39.000Z</time>
      </trkpt>
      <trkpt lat="45.30972" lon="6.15998">
        <ele>2468.3999023438</ele>
        <time>2020-02-08T13:06:45.000Z</time>
      </trkpt>
      <trkpt lat="45.30972" lon="6.15997">
        <ele>2468.6000976562</ele>
        <time>2020-02-08T13:06:47.000Z</time>
      </trkpt>
      <trkpt lat="45.30971" lon="6.15994">
        <ele>2469.8000488281</ele>
        <time>2020-02-08T13:06:51.000Z</time>
      </trkpt>
      <trkpt lat="45.30971" lon="6.15994">
        <ele>2469.8000488281</ele>
        <time>2020-02-08T13:06:56.000Z</time>
      </trkpt>
      <trkpt lat="45.30971" lon="6.15994">
        <ele>2469.6000976562</ele>
        <time>2020-02-08T13:06:57.000Z</time>
      </trkpt>
      <trkpt lat="45.30971" lon="6.15994">
        <ele>2470.8000488281</ele>
        <time>2020-02-08T13:07:00.000Z</time>
      </trkpt>
      <trkpt lat="45.30971" lon="6.15994">
        <ele>2472</ele>
        <time>2020-02-08T13:07:03.000Z</time>
      </trkpt>
      <trkpt lat="45.30971" lon="6.15994">
        <ele>2472</ele>
        <time>2020-02-08T13:07:04.000Z</time>
      </trkpt>
      <trkpt lat="45.30971" lon="6.15994">
        <ele>2470.8000488281</ele>
        <time>2020-02-08T13:07:08.000Z</time>
      </trkpt>
      <trkpt lat="45.30971" lon="6.15994">
        <ele>2470.1999511719</ele>
        <time>2020-02-08T13:07:15.000Z</time>
      </trkpt>
      <trkpt lat="45.30971" lon="6.15994">
        <ele>2470.1999511719</ele>
        <time>2020-02-08T13:07:21.000Z</time>
      </trkpt>
      <trkpt lat="45.30971" lon="6.15994">
        <ele>2471</ele>
        <time>2020-02-08T13:07:31.000Z</time>
      </trkpt>
      <trkpt lat="45.30971" lon="6.15995">
        <ele>2471</ele>
        <time>2020-02-08T13:07:37.000Z</time>
      </trkpt>
      <trkpt lat="45.30973" lon="6.15997">
        <ele>2471.8000488281</ele>
        <time>2020-02-08T13:07:41.000Z</time>
      </trkpt>
      <trkpt lat="45.30973" lon="6.15998">
        <ele>2472.3999023438</ele>
        <time>2020-02-08T13:07:43.000Z</time>
      </trkpt>
      <trkpt lat="45.30973" lon="6.15998">
        <ele>2473</ele>
        <time>2020-02-08T13:07:45.000Z</time>
      </trkpt>
      <trkpt lat="45.30973" lon="6.15998">
        <ele>2473</ele>
        <time>2020-02-08T13:07:52.000Z</time>
      </trkpt>
      <trkpt lat="45.30973" lon="6.15998">
        <ele>2473.3999023438</ele>
        <time>2020-02-08T13:08:01.000Z</time>
      </trkpt>
      <trkpt lat="45.30973" lon="6.15998">
        <ele>2474</ele>
        <time>2020-02-08T13:08:09.000Z</time>
      </trkpt>
      <trkpt lat="45.30973" lon="6.15998">
        <ele>2474.1999511719</ele>
        <time>2020-02-08T13:08:11.000Z</time>
      </trkpt>
      <trkpt lat="45.30974" lon="6.16">
        <ele>2474</ele>
        <time>2020-02-08T13:08:16.000Z</time>
      </trkpt>
      <trkpt lat="45.30975" lon="6.15999">
        <ele>2475</ele>
        <time>2020-02-08T13:08:27.000Z</time>
      </trkpt>
      <trkpt lat="45.30976" lon="6.15997">
        <ele>2475.1999511719</ele>
        <time>2020-02-08T13:08:34.000Z</time>
      </trkpt>
      <trkpt lat="45.30978" lon="6.15994">
        <ele>2476</ele>
        <time>2020-02-08T13:08:41.000Z</time>
      </trkpt>
      <trkpt lat="45.30978" lon="6.15992">
        <ele>2476.1999511719</ele>
        <time>2020-02-08T13:08:45.000Z</time>
      </trkpt>
      <trkpt lat="45.30978" lon="6.15992">
        <ele>2476.3999023438</ele>
        <time>2020-02-08T13:08:46.000Z</time>
      </trkpt>
      <trkpt lat="45.30978" lon="6.1599">
        <ele>2477</ele>
        <time>2020-02-08T13:08:54.000Z</time>
      </trkpt>
      <trkpt lat="45.30978" lon="6.1599">
        <ele>2477.1999511719</ele>
        <time>2020-02-08T13:08:55.000Z</time>
      </trkpt>
      <trkpt lat="45.30978" lon="6.15988">
        <ele>2478</ele>
        <time>2020-02-08T13:08:59.000Z</time>
      </trkpt>
      <trkpt lat="45.30978" lon="6.15987">
        <ele>2478.3999023438</ele>
        <time>2020-02-08T13:09:01.000Z</time>
      </trkpt>
      <trkpt lat="45.30978" lon="6.15986">
        <ele>2478.6000976562</ele>
        <time>2020-02-08T13:09:03.000Z</time>
      </trkpt>
      <trkpt lat="45.30977" lon="6.15982">
        <ele>2478.6000976562</ele>
        <time>2020-02-08T13:09:07.000Z</time>
      </trkpt>
      <trkpt lat="45.30975" lon="6.15978">
        <ele>2479.1999511719</ele>
        <time>2020-02-08T13:09:11.000Z</time>
      </trkpt>
      <trkpt lat="45.30975" lon="6.15977">
        <ele>2479.6000976562</ele>
        <time>2020-02-08T13:09:12.000Z</time>
      </trkpt>
      <trkpt lat="45.30974" lon="6.15975">
        <ele>2480.1999511719</ele>
        <time>2020-02-08T13:09:15.000Z</time>
      </trkpt>
      <trkpt lat="45.30973" lon="6.15974">
        <ele>2480.1999511719</ele>
        <time>2020-02-08T13:09:16.000Z</time>
      </trkpt>
      <trkpt lat="45.30972" lon="6.15972">
        <ele>2480.8000488281</ele>
        <time>2020-02-08T13:09:19.000Z</time>
      </trkpt>
      <trkpt lat="45.30971" lon="6.15971">
        <ele>2481</ele>
        <time>2020-02-08T13:09:20.000Z</time>
      </trkpt>
      <trkpt lat="45.30971" lon="6.1597">
        <ele>2481.6000976562</ele>
        <time>2020-02-08T13:09:27.000Z</time>
      </trkpt>
      <trkpt lat="45.30971" lon="6.1597">
        <ele>2481.8000488281</ele>
        <time>2020-02-08T13:09:29.000Z</time>
      </trkpt>
      <trkpt lat="45.30971" lon="6.15969">
        <ele>2482.3999023438</ele>
        <time>2020-02-08T13:09:36.000Z</time>
      </trkpt>
      <trkpt lat="45.30971" lon="6.15966">
        <ele>2482.8000488281</ele>
        <time>2020-02-08T13:09:41.000Z</time>
      </trkpt>
      <trkpt lat="45.3097" lon="6.15964">
        <ele>2482.8000488281</ele>
        <time>2020-02-08T13:09:43.000Z</time>
      </trkpt>
      <trkpt lat="45.30969" lon="6.15961">
        <ele>2483.3999023438</ele>
        <time>2020-02-08T13:09:46.000Z</time>
      </trkpt>
      <trkpt lat="45.30969" lon="6.15959">
        <ele>2484</ele>
        <time>2020-02-08T13:09:49.000Z</time>
      </trkpt>
      <trkpt lat="45.30969" lon="6.15956">
        <ele>2484.6000976562</ele>
        <time>2020-02-08T13:09:52.000Z</time>
      </trkpt>
      <trkpt lat="45.3097" lon="6.15952">
        <ele>2485</ele>
        <time>2020-02-08T13:09:55.000Z</time>
      </trkpt>
      <trkpt lat="45.30971" lon="6.1595">
        <ele>2485.6000976562</ele>
        <time>2020-02-08T13:09:58.000Z</time>
      </trkpt>
      <trkpt lat="45.30971" lon="6.15947">
        <ele>2486.1999511719</ele>
        <time>2020-02-08T13:10:01.000Z</time>
      </trkpt>
      <trkpt lat="45.30971" lon="6.15946">
        <ele>2486.6000976562</ele>
        <time>2020-02-08T13:10:02.000Z</time>
      </trkpt>
      <trkpt lat="45.30971" lon="6.15944">
        <ele>2487</ele>
        <time>2020-02-08T13:10:05.000Z</time>
      </trkpt>
      <trkpt lat="45.3097" lon="6.15943">
        <ele>2487</ele>
        <time>2020-02-08T13:10:06.000Z</time>
      </trkpt>
      <trkpt lat="45.3097" lon="6.15943">
        <ele>2487.1999511719</ele>
        <time>2020-02-08T13:10:07.000Z</time>
      </trkpt>
      <trkpt lat="45.3097" lon="6.15938">
        <ele>2488</ele>
        <time>2020-02-08T13:10:13.000Z</time>
      </trkpt>
      <trkpt lat="45.30971" lon="6.15936">
        <ele>2488.3999023438</ele>
        <time>2020-02-08T13:10:15.000Z</time>
      </trkpt>
      <trkpt lat="45.30972" lon="6.15934">
        <ele>2489</ele>
        <time>2020-02-08T13:10:18.000Z</time>
      </trkpt>
      <trkpt lat="45.30972" lon="6.15931">
        <ele>2489.6000976562</ele>
        <time>2020-02-08T13:10:21.000Z</time>
      </trkpt>
      <trkpt lat="45.30973" lon="6.1593">
        <ele>2490</ele>
        <time>2020-02-08T13:10:23.000Z</time>
      </trkpt>
      <trkpt lat="45.30973" lon="6.15929">
        <ele>2490.1999511719</ele>
        <time>2020-02-08T13:10:25.000Z</time>
      </trkpt>
      <trkpt lat="45.30974" lon="6.15929">
        <ele>2490.3999023438</ele>
        <time>2020-02-08T13:10:27.000Z</time>
      </trkpt>
      <trkpt lat="45.30974" lon="6.15929">
        <ele>2490.6000976562</ele>
        <time>2020-02-08T13:10:32.000Z</time>
      </trkpt>
      <trkpt lat="45.30974" lon="6.15929">
        <ele>2491</ele>
        <time>2020-02-08T13:10:40.000Z</time>
      </trkpt>
      <trkpt lat="45.30975" lon="6.15927">
        <ele>2490.8000488281</ele>
        <time>2020-02-08T13:10:49.000Z</time>
      </trkpt>
      <trkpt lat="45.30976" lon="6.15927">
        <ele>2491.6000976562</ele>
        <time>2020-02-08T13:10:54.000Z</time>
      </trkpt>
      <trkpt lat="45.30977" lon="6.15928">
        <ele>2491.8000488281</ele>
        <time>2020-02-08T13:10:55.000Z</time>
      </trkpt>
      <trkpt lat="45.30977" lon="6.15932">
        <ele>2492.3999023438</ele>
        <time>2020-02-08T13:11:00.000Z</time>
      </trkpt>
      <trkpt lat="45.30977" lon="6.15933">
        <ele>2493</ele>
        <time>2020-02-08T13:11:05.000Z</time>
      </trkpt>
      <trkpt lat="45.30977" lon="6.15933">
        <ele>2493.3999023438</ele>
        <time>2020-02-08T13:11:19.000Z</time>
      </trkpt>
      <trkpt lat="45.30978" lon="6.15935">
        <ele>2493.3999023438</ele>
        <time>2020-02-08T13:11:28.000Z</time>
      </trkpt>
      <trkpt lat="45.30978" lon="6.15937">
        <ele>2494</ele>
        <time>2020-02-08T13:11:33.000Z</time>
      </trkpt>
      <trkpt lat="45.30978" lon="6.15937">
        <ele>2494.3999023438</ele>
        <time>2020-02-08T13:11:34.000Z</time>
      </trkpt>
      <trkpt lat="45.30979" lon="6.15939">
        <ele>2495.1999511719</ele>
        <time>2020-02-08T13:11:37.000Z</time>
      </trkpt>
      <trkpt lat="45.3098" lon="6.15939">
        <ele>2496.1999511719</ele>
        <time>2020-02-08T13:11:40.000Z</time>
      </trkpt>
      <trkpt lat="45.3098" lon="6.15939">
        <ele>2496.3999023438</ele>
        <time>2020-02-08T13:11:41.000Z</time>
      </trkpt>
      <trkpt lat="45.3098" lon="6.1594">
        <ele>2496.6000976562</ele>
        <time>2020-02-08T13:11:47.000Z</time>
      </trkpt>
      <trkpt lat="45.30982" lon="6.15943">
        <ele>2497.3999023438</ele>
        <time>2020-02-08T13:11:52.000Z</time>
      </trkpt>
      <trkpt lat="45.30983" lon="6.15944">
        <ele>2497.6000976562</ele>
        <time>2020-02-08T13:11:54.000Z</time>
      </trkpt>
      <trkpt lat="45.30985" lon="6.15945">
        <ele>2498.6000976562</ele>
        <time>2020-02-08T13:11:59.000Z</time>
      </trkpt>
      <trkpt lat="45.30985" lon="6.15946">
        <ele>2499</ele>
        <time>2020-02-08T13:12:01.000Z</time>
      </trkpt>
      <trkpt lat="45.30986" lon="6.15947">
        <ele>2499.6000976562</ele>
        <time>2020-02-08T13:12:02.000Z</time>
      </trkpt>
      <trkpt lat="45.30988" lon="6.15948">
        <ele>2500.6000976562</ele>
        <time>2020-02-08T13:12:09.000Z</time>
      </trkpt>
      <trkpt lat="45.30989" lon="6.15948">
        <ele>2501.8000488281</ele>
        <time>2020-02-08T13:12:15.000Z</time>
      </trkpt>
      <trkpt lat="45.30989" lon="6.15948">
        <ele>2502</ele>
        <time>2020-02-08T13:12:16.000Z</time>
      </trkpt>
      <trkpt lat="45.30989" lon="6.15949">
        <ele>2502.8000488281</ele>
        <time>2020-02-08T13:12:18.000Z</time>
      </trkpt>
      <trkpt lat="45.3099" lon="6.15949">
        <ele>2503.1999511719</ele>
        <time>2020-02-08T13:12:25.000Z</time>
      </trkpt>
      <trkpt lat="45.3099" lon="6.15949">
        <ele>2503.8000488281</ele>
        <time>2020-02-08T13:12:32.000Z</time>
      </trkpt>
      <trkpt lat="45.3099" lon="6.15949">
        <ele>2503.8000488281</ele>
        <time>2020-02-08T13:12:33.000Z</time>
      </trkpt>
      <trkpt lat="45.30992" lon="6.15951">
        <ele>2503.6000976562</ele>
        <time>2020-02-08T13:12:42.000Z</time>
      </trkpt>
      <trkpt lat="45.30994" lon="6.15954">
        <ele>2503.8000488281</ele>
        <time>2020-02-08T13:12:45.000Z</time>
      </trkpt>
      <trkpt lat="45.30995" lon="6.15955">
        <ele>2504.1999511719</ele>
        <time>2020-02-08T13:12:48.000Z</time>
      </trkpt>
      <trkpt lat="45.30996" lon="6.15957">
        <ele>2505</ele>
        <time>2020-02-08T13:12:50.000Z</time>
      </trkpt>
      <trkpt lat="45.30999" lon="6.15959">
        <ele>2506</ele>
        <time>2020-02-08T13:12:55.000Z</time>
      </trkpt>
      <trkpt lat="45.30999" lon="6.1596">
        <ele>2506.1999511719</ele>
        <time>2020-02-08T13:12:56.000Z</time>
      </trkpt>
      <trkpt lat="45.31001" lon="6.15962">
        <ele>2507</ele>
        <time>2020-02-08T13:13:01.000Z</time>
      </trkpt>
      <trkpt lat="45.31001" lon="6.15962">
        <ele>2507</ele>
        <time>2020-02-08T13:13:02.000Z</time>
      </trkpt>
      <trkpt lat="45.31003" lon="6.15965">
        <ele>2507.8000488281</ele>
        <time>2020-02-08T13:13:07.000Z</time>
      </trkpt>
      <trkpt lat="45.31004" lon="6.15965">
        <ele>2508.1999511719</ele>
        <time>2020-02-08T13:13:09.000Z</time>
      </trkpt>
      <trkpt lat="45.31006" lon="6.15967">
        <ele>2509.1999511719</ele>
        <time>2020-02-08T13:13:13.000Z</time>
      </trkpt>
      <trkpt lat="45.31007" lon="6.15967">
        <ele>2509.6000976562</ele>
        <time>2020-02-08T13:13:14.000Z</time>
      </trkpt>
      <trkpt lat="45.31012" lon="6.15969">
        <ele>2510.8000488281</ele>
        <time>2020-02-08T13:13:20.000Z</time>
      </trkpt>
      <trkpt lat="45.31013" lon="6.1597">
        <ele>2511</ele>
        <time>2020-02-08T13:13:21.000Z</time>
      </trkpt>
      <trkpt lat="45.31016" lon="6.15971">
        <ele>2512</ele>
        <time>2020-02-08T13:13:26.000Z</time>
      </trkpt>
      <trkpt lat="45.31017" lon="6.15971">
        <ele>2512.3999023438</ele>
        <time>2020-02-08T13:13:28.000Z</time>
      </trkpt>
      <trkpt lat="45.31018" lon="6.15971">
        <ele>2513</ele>
        <time>2020-02-08T13:13:30.000Z</time>
      </trkpt>
      <trkpt lat="45.3102" lon="6.15971">
        <ele>2514.1999511719</ele>
        <time>2020-02-08T13:13:34.000Z</time>
      </trkpt>
      <trkpt lat="45.31021" lon="6.1597">
        <ele>2514.6000976562</ele>
        <time>2020-02-08T13:13:36.000Z</time>
      </trkpt>
      <trkpt lat="45.31021" lon="6.1597">
        <ele>2515.1999511719</ele>
        <time>2020-02-08T13:13:38.000Z</time>
      </trkpt>
      <trkpt lat="45.31023" lon="6.1597">
        <ele>2515.1999511719</ele>
        <time>2020-02-08T13:13:48.000Z</time>
      </trkpt>
      <trkpt lat="45.31027" lon="6.15971">
        <ele>2516.1999511719</ele>
        <time>2020-02-08T13:13:54.000Z</time>
      </trkpt>
      <trkpt lat="45.31029" lon="6.15971">
        <ele>2517.3999023438</ele>
        <time>2020-02-08T13:13:59.000Z</time>
      </trkpt>
      <trkpt lat="45.3103" lon="6.15971">
        <ele>2517.6000976562</ele>
        <time>2020-02-08T13:14:00.000Z</time>
      </trkpt>
      <trkpt lat="45.31031" lon="6.15972">
        <ele>2518.3999023438</ele>
        <time>2020-02-08T13:14:02.000Z</time>
      </trkpt>
      <trkpt lat="45.31033" lon="6.15971">
        <ele>2519.6000976562</ele>
        <time>2020-02-08T13:14:08.000Z</time>
      </trkpt>
      <trkpt lat="45.31036" lon="6.1597">
        <ele>2520.6000976562</ele>
        <time>2020-02-08T13:14:12.000Z</time>
      </trkpt>
      <trkpt lat="45.31036" lon="6.15971">
        <ele>2521.1999511719</ele>
        <time>2020-02-08T13:14:14.000Z</time>
      </trkpt>
      <trkpt lat="45.31037" lon="6.15971">
        <ele>2521.6000976562</ele>
        <time>2020-02-08T13:14:16.000Z</time>
      </trkpt>
      <trkpt lat="45.3104" lon="6.15971">
        <ele>2522.1999511719</ele>
        <time>2020-02-08T13:14:21.000Z</time>
      </trkpt>
      <trkpt lat="45.31041" lon="6.15972">
        <ele>2522.8000488281</ele>
        <time>2020-02-08T13:14:24.000Z</time>
      </trkpt>
      <trkpt lat="45.31041" lon="6.15972">
        <ele>2524</ele>
        <time>2020-02-08T13:14:27.000Z</time>
      </trkpt>
      <trkpt lat="45.31041" lon="6.15972">
        <ele>2524</ele>
        <time>2020-02-08T13:14:28.000Z</time>
      </trkpt>
      <trkpt lat="45.31043" lon="6.15972">
        <ele>2524</ele>
        <time>2020-02-08T13:14:38.000Z</time>
      </trkpt>
      <trkpt lat="45.31046" lon="6.15972">
        <ele>2524.6000976562</ele>
        <time>2020-02-08T13:14:43.000Z</time>
      </trkpt>
      <trkpt lat="45.31046" lon="6.15973">
        <ele>2525</ele>
        <time>2020-02-08T13:14:45.000Z</time>
      </trkpt>
      <trkpt lat="45.31048" lon="6.15973">
        <ele>2525.8000488281</ele>
        <time>2020-02-08T13:14:48.000Z</time>
      </trkpt>
      <trkpt lat="45.31049" lon="6.15973">
        <ele>2526.3999023438</ele>
        <time>2020-02-08T13:14:50.000Z</time>
      </trkpt>
      <trkpt lat="45.31051" lon="6.15973">
        <ele>2527</ele>
        <time>2020-02-08T13:14:54.000Z</time>
      </trkpt>
      <trkpt lat="45.31051" lon="6.15974">
        <ele>2527.3999023438</ele>
        <time>2020-02-08T13:14:56.000Z</time>
      </trkpt>
      <trkpt lat="45.31053" lon="6.15974">
        <ele>2528.6000976562</ele>
        <time>2020-02-08T13:15:01.000Z</time>
      </trkpt>
      <trkpt lat="45.31054" lon="6.15974">
        <ele>2529</ele>
        <time>2020-02-08T13:15:02.000Z</time>
      </trkpt>
      <trkpt lat="45.31055" lon="6.15974">
        <ele>2529.6000976562</ele>
        <time>2020-02-08T13:15:06.000Z</time>
      </trkpt>
      <trkpt lat="45.31056" lon="6.15975">
        <ele>2530</ele>
        <time>2020-02-08T13:15:08.000Z</time>
      </trkpt>
      <trkpt lat="45.31057" lon="6.15976">
        <ele>2531</ele>
        <time>2020-02-08T13:15:14.000Z</time>
      </trkpt>
      <trkpt lat="45.31057" lon="6.15976">
        <ele>2531.6000976562</ele>
        <time>2020-02-08T13:15:17.000Z</time>
      </trkpt>
      <trkpt lat="45.31057" lon="6.15976">
        <ele>2532</ele>
        <time>2020-02-08T13:15:36.000Z</time>
      </trkpt>
      <trkpt lat="45.31057" lon="6.15976">
        <ele>2532</ele>
        <time>2020-02-08T13:15:55.000Z</time>
      </trkpt>
      <trkpt lat="45.31057" lon="6.15976">
        <ele>2532</ele>
        <time>2020-02-08T13:15:56.000Z</time>
      </trkpt>
      <trkpt lat="45.3106" lon="6.15977">
        <ele>2532</ele>
        <time>2020-02-08T13:16:01.000Z</time>
      </trkpt>
      <trkpt lat="45.31065" lon="6.1598">
        <ele>2533.1999511719</ele>
        <time>2020-02-08T13:16:07.000Z</time>
      </trkpt>
      <trkpt lat="45.31067" lon="6.1598">
        <ele>2534.1999511719</ele>
        <time>2020-02-08T13:16:11.000Z</time>
      </trkpt>
      <trkpt lat="45.3107" lon="6.1598">
        <ele>2535</ele>
        <time>2020-02-08T13:16:14.000Z</time>
      </trkpt>
      <trkpt lat="45.31071" lon="6.15981">
        <ele>2535.3999023438</ele>
        <time>2020-02-08T13:16:16.000Z</time>
      </trkpt>
      <trkpt lat="45.31073" lon="6.1598">
        <ele>2536</ele>
        <time>2020-02-08T13:16:19.000Z</time>
      </trkpt>
      <trkpt lat="45.31074" lon="6.1598">
        <ele>2536.6000976562</ele>
        <time>2020-02-08T13:16:21.000Z</time>
      </trkpt>
      <trkpt lat="45.31076" lon="6.15979">
        <ele>2537.6000976562</ele>
        <time>2020-02-08T13:16:25.000Z</time>
      </trkpt>
      <trkpt lat="45.31077" lon="6.15979">
        <ele>2537.8000488281</ele>
        <time>2020-02-08T13:16:26.000Z</time>
      </trkpt>
      <trkpt lat="45.31078" lon="6.15979">
        <ele>2538.8000488281</ele>
        <time>2020-02-08T13:16:31.000Z</time>
      </trkpt>
      <trkpt lat="45.31078" lon="6.15979">
        <ele>2539.1999511719</ele>
        <time>2020-02-08T13:16:32.000Z</time>
      </trkpt>
      <trkpt lat="45.3108" lon="6.15979">
        <ele>2540.3999023438</ele>
        <time>2020-02-08T13:16:36.000Z</time>
      </trkpt>
      <trkpt lat="45.31081" lon="6.15978">
        <ele>2541</ele>
        <time>2020-02-08T13:16:41.000Z</time>
      </trkpt>
      <trkpt lat="45.31081" lon="6.15978">
        <ele>2541.3999023438</ele>
        <time>2020-02-08T13:16:43.000Z</time>
      </trkpt>
      <trkpt lat="45.31081" lon="6.15978">
        <ele>2542.1999511719</ele>
        <time>2020-02-08T13:16:53.000Z</time>
      </trkpt>
      <trkpt lat="45.31082" lon="6.15977">
        <ele>2542.1999511719</ele>
        <time>2020-02-08T13:16:56.000Z</time>
      </trkpt>
      <trkpt lat="45.31083" lon="6.15977">
        <ele>2542.3999023438</ele>
        <time>2020-02-08T13:16:57.000Z</time>
      </trkpt>
      <trkpt lat="45.31085" lon="6.15975">
        <ele>2543</ele>
        <time>2020-02-08T13:17:01.000Z</time>
      </trkpt>
      <trkpt lat="45.31086" lon="6.15974">
        <ele>2543.3999023438</ele>
        <time>2020-02-08T13:17:03.000Z</time>
      </trkpt>
      <trkpt lat="45.31088" lon="6.15971">
        <ele>2543.8000488281</ele>
        <time>2020-02-08T13:17:05.000Z</time>
      </trkpt>
      <trkpt lat="45.31089" lon="6.1597">
        <ele>2544</ele>
        <time>2020-02-08T13:17:07.000Z</time>
      </trkpt>
      <trkpt lat="45.31091" lon="6.15968">
        <ele>2544.3999023438</ele>
        <time>2020-02-08T13:17:09.000Z</time>
      </trkpt>
      <trkpt lat="45.31092" lon="6.15966">
        <ele>2545.1999511719</ele>
        <time>2020-02-08T13:17:12.000Z</time>
      </trkpt>
      <trkpt lat="45.31092" lon="6.15966">
        <ele>2545.3999023438</ele>
        <time>2020-02-08T13:17:13.000Z</time>
      </trkpt>
      <trkpt lat="45.31093" lon="6.15964">
        <ele>2546.1999511719</ele>
        <time>2020-02-08T13:17:16.000Z</time>
      </trkpt>
      <trkpt lat="45.31093" lon="6.15963">
        <ele>2546.6000976562</ele>
        <time>2020-02-08T13:17:18.000Z</time>
      </trkpt>
      <trkpt lat="45.31095" lon="6.15961">
        <ele>2547.1999511719</ele>
        <time>2020-02-08T13:17:22.000Z</time>
      </trkpt>
      <trkpt lat="45.31095" lon="6.15961">
        <ele>2547.6000976562</ele>
        <time>2020-02-08T13:17:23.000Z</time>
      </trkpt>
      <trkpt lat="45.31097" lon="6.15957">
        <ele>2548.1999511719</ele>
        <time>2020-02-08T13:17:27.000Z</time>
      </trkpt>
      <trkpt lat="45.31099" lon="6.15955">
        <ele>2548.6000976562</ele>
        <time>2020-02-08T13:17:30.000Z</time>
      </trkpt>
      <trkpt lat="45.31099" lon="6.15955">
        <ele>2548.8000488281</ele>
        <time>2020-02-08T13:17:31.000Z</time>
      </trkpt>
      <trkpt lat="45.31099" lon="6.15954">
        <ele>2549</ele>
        <time>2020-02-08T13:17:32.000Z</time>
      </trkpt>
      <trkpt lat="45.311" lon="6.15953">
        <ele>2549.6000976562</ele>
        <time>2020-02-08T13:17:35.000Z</time>
      </trkpt>
      <trkpt lat="45.311" lon="6.15952">
        <ele>2550</ele>
        <time>2020-02-08T13:17:37.000Z</time>
      </trkpt>
      <trkpt lat="45.31101" lon="6.15949">
        <ele>2550.8000488281</ele>
        <time>2020-02-08T13:17:40.000Z</time>
      </trkpt>
      <trkpt lat="45.31101" lon="6.15947">
        <ele>2551.3999023438</ele>
        <time>2020-02-08T13:17:43.000Z</time>
      </trkpt>
      <trkpt lat="45.31101" lon="6.15946">
        <ele>2552</ele>
        <time>2020-02-08T13:17:46.000Z</time>
      </trkpt>
      <trkpt lat="45.31102" lon="6.15946">
        <ele>2552.3999023438</ele>
        <time>2020-02-08T13:17:49.000Z</time>
      </trkpt>
      <trkpt lat="45.31103" lon="6.15943">
        <ele>2553</ele>
        <time>2020-02-08T13:17:53.000Z</time>
      </trkpt>
      <trkpt lat="45.31104" lon="6.15941">
        <ele>2553.1999511719</ele>
        <time>2020-02-08T13:17:54.000Z</time>
      </trkpt>
      <trkpt lat="45.31105" lon="6.15939">
        <ele>2554</ele>
        <time>2020-02-08T13:17:58.000Z</time>
      </trkpt>
      <trkpt lat="45.31105" lon="6.15938">
        <ele>2554.1999511719</ele>
        <time>2020-02-08T13:17:59.000Z</time>
      </trkpt>
      <trkpt lat="45.31106" lon="6.15936">
        <ele>2555.1999511719</ele>
        <time>2020-02-08T13:18:03.000Z</time>
      </trkpt>
      <trkpt lat="45.31106" lon="6.15936">
        <ele>2555.3999023438</ele>
        <time>2020-02-08T13:18:07.000Z</time>
      </trkpt>
      <trkpt lat="45.31106" lon="6.15936">
        <ele>2556.3999023438</ele>
        <time>2020-02-08T13:18:14.000Z</time>
      </trkpt>
      <trkpt lat="45.31106" lon="6.15936">
        <ele>2556.3999023438</ele>
        <time>2020-02-08T13:18:15.000Z</time>
      </trkpt>
      <trkpt lat="45.31106" lon="6.15936">
        <ele>2556.3999023438</ele>
        <time>2020-02-08T13:18:32.000Z</time>
      </trkpt>
      <trkpt lat="45.31106" lon="6.15936">
        <ele>2556.6000976562</ele>
        <time>2020-02-08T13:18:49.000Z</time>
      </trkpt>
      <trkpt lat="45.31106" lon="6.15936">
        <ele>2556.1999511719</ele>
        <time>2020-02-08T13:19:04.000Z</time>
      </trkpt>
      <trkpt lat="45.31106" lon="6.15936">
        <ele>2556.3999023438</ele>
        <time>2020-02-08T13:19:21.000Z</time>
      </trkpt>
      <trkpt lat="45.31106" lon="6.15936">
        <ele>2556.6000976562</ele>
        <time>2020-02-08T13:19:40.000Z</time>
      </trkpt>
      <trkpt lat="45.31106" lon="6.15936">
        <ele>2556.6000976562</ele>
        <time>2020-02-08T13:19:55.000Z</time>
      </trkpt>
      <trkpt lat="45.31106" lon="6.15936">
        <ele>2556</ele>
        <time>2020-02-08T13:20:08.000Z</time>
      </trkpt>
      <trkpt lat="45.31106" lon="6.15936">
        <ele>2556</ele>
        <time>2020-02-08T13:20:10.000Z</time>
      </trkpt>
      <trkpt lat="45.31106" lon="6.15936">
        <ele>2556.3999023438</ele>
        <time>2020-02-08T13:20:25.000Z</time>
      </trkpt>
      <trkpt lat="45.31106" lon="6.15936">
        <ele>2556.1999511719</ele>
        <time>2020-02-08T13:20:44.000Z</time>
      </trkpt>
      <trkpt lat="45.31106" lon="6.15936">
        <ele>2556.1999511719</ele>
        <time>2020-02-08T13:21:00.000Z</time>
      </trkpt>
      <trkpt lat="45.31106" lon="6.15936">
        <ele>2556.3999023438</ele>
        <time>2020-02-08T13:21:20.000Z</time>
      </trkpt>
      <trkpt lat="45.31106" lon="6.15935">
        <ele>2556.3999023438</ele>
        <time>2020-02-08T13:21:36.000Z</time>
      </trkpt>
      <trkpt lat="45.31106" lon="6.15935">
        <ele>2556.1999511719</ele>
        <time>2020-02-08T13:21:44.000Z</time>
      </trkpt>
      <trkpt lat="45.31106" lon="6.15935">
        <ele>2556.6000976562</ele>
        <time>2020-02-08T13:22:01.000Z</time>
      </trkpt>
      <trkpt lat="45.31106" lon="6.15935">
        <ele>2557.1999511719</ele>
        <time>2020-02-08T13:22:11.000Z</time>
      </trkpt>
      <trkpt lat="45.31106" lon="6.15933">
        <ele>2557.1999511719</ele>
        <time>2020-02-08T13:22:20.000Z</time>
      </trkpt>
      <trkpt lat="45.31107" lon="6.1593">
        <ele>2557.6000976562</ele>
        <time>2020-02-08T13:22:23.000Z</time>
      </trkpt>
      <trkpt lat="45.31108" lon="6.15929">
        <ele>2558.1999511719</ele>
        <time>2020-02-08T13:22:25.000Z</time>
      </trkpt>
      <trkpt lat="45.31109" lon="6.15927">
        <ele>2558.8000488281</ele>
        <time>2020-02-08T13:22:27.000Z</time>
      </trkpt>
      <trkpt lat="45.3111" lon="6.15924">
        <ele>2559.1999511719</ele>
        <time>2020-02-08T13:22:30.000Z</time>
      </trkpt>
      <trkpt lat="45.3111" lon="6.15922">
        <ele>2559.8000488281</ele>
        <time>2020-02-08T13:22:32.000Z</time>
      </trkpt>
      <trkpt lat="45.31112" lon="6.1592">
        <ele>2560.3999023438</ele>
        <time>2020-02-08T13:22:35.000Z</time>
      </trkpt>
      <trkpt lat="45.31112" lon="6.15918">
        <ele>2560.8000488281</ele>
        <time>2020-02-08T13:22:38.000Z</time>
      </trkpt>
      <trkpt lat="45.31114" lon="6.15917">
        <ele>2561.6000976562</ele>
        <time>2020-02-08T13:22:41.000Z</time>
      </trkpt>
      <trkpt lat="45.31114" lon="6.15916">
        <ele>2562</ele>
        <time>2020-02-08T13:22:44.000Z</time>
      </trkpt>
      <trkpt lat="45.31115" lon="6.15914">
        <ele>2562.3999023438</ele>
        <time>2020-02-08T13:22:47.000Z</time>
      </trkpt>
      <trkpt lat="45.31117" lon="6.1591">
        <ele>2563.1999511719</ele>
        <time>2020-02-08T13:22:51.000Z</time>
      </trkpt>
      <trkpt lat="45.31118" lon="6.15906">
        <ele>2563.8000488281</ele>
        <time>2020-02-08T13:22:54.000Z</time>
      </trkpt>
      <trkpt lat="45.31119" lon="6.15905">
        <ele>2564.1999511719</ele>
        <time>2020-02-08T13:22:56.000Z</time>
      </trkpt>
      <trkpt lat="45.31119" lon="6.15905">
        <ele>2564.6000976562</ele>
        <time>2020-02-08T13:22:59.000Z</time>
      </trkpt>
      <trkpt lat="45.31119" lon="6.15904">
        <ele>2565.1999511719</ele>
        <time>2020-02-08T13:23:04.000Z</time>
      </trkpt>
      <trkpt lat="45.3112" lon="6.15904">
        <ele>2565.1999511719</ele>
        <time>2020-02-08T13:23:05.000Z</time>
      </trkpt>
      <trkpt lat="45.3112" lon="6.15903">
        <ele>2565.3999023438</ele>
        <time>2020-02-08T13:23:07.000Z</time>
      </trkpt>
      <trkpt lat="45.3112" lon="6.15906">
        <ele>2566.1999511719</ele>
        <time>2020-02-08T13:23:14.000Z</time>
      </trkpt>
      <trkpt lat="45.3112" lon="6.15907">
        <ele>2566.3999023438</ele>
        <time>2020-02-08T13:23:16.000Z</time>
      </trkpt>
      <trkpt lat="45.3112" lon="6.15908">
        <ele>2566.6000976562</ele>
        <time>2020-02-08T13:23:19.000Z</time>
      </trkpt>
      <trkpt lat="45.31122" lon="6.15909">
        <ele>2567.6000976562</ele>
        <time>2020-02-08T13:23:24.000Z</time>
      </trkpt>
      <trkpt lat="45.31122" lon="6.15908">
        <ele>2567.8000488281</ele>
        <time>2020-02-08T13:23:25.000Z</time>
      </trkpt>
      <trkpt lat="45.31123" lon="6.15909">
        <ele>2568.6000976562</ele>
        <time>2020-02-08T13:23:29.000Z</time>
      </trkpt>
      <trkpt lat="45.31123" lon="6.1591">
        <ele>2568.6000976562</ele>
        <time>2020-02-08T13:23:30.000Z</time>
      </trkpt>
      <trkpt lat="45.31125" lon="6.15912">
        <ele>2569.8000488281</ele>
        <time>2020-02-08T13:23:36.000Z</time>
      </trkpt>
      <trkpt lat="45.31125" lon="6.15913">
        <ele>2570.8000488281</ele>
        <time>2020-02-08T13:23:40.000Z</time>
      </trkpt>
      <trkpt lat="45.31126" lon="6.15916">
        <ele>2571</ele>
        <time>2020-02-08T13:23:43.000Z</time>
      </trkpt>
      <trkpt lat="45.31128" lon="6.15918">
        <ele>2572</ele>
        <time>2020-02-08T13:23:49.000Z</time>
      </trkpt>
      <trkpt lat="45.31129" lon="6.1592">
        <ele>2573</ele>
        <time>2020-02-08T13:23:54.000Z</time>
      </trkpt>
      <trkpt lat="45.3113" lon="6.15923">
        <ele>2573.8000488281</ele>
        <time>2020-02-08T13:23:59.000Z</time>
      </trkpt>
      <trkpt lat="45.31132" lon="6.15924">
        <ele>2574.1999511719</ele>
        <time>2020-02-08T13:24:02.000Z</time>
      </trkpt>
      <trkpt lat="45.31133" lon="6.15926">
        <ele>2574.8000488281</ele>
        <time>2020-02-08T13:24:05.000Z</time>
      </trkpt>
      <trkpt lat="45.31133" lon="6.15927">
        <ele>2575.1999511719</ele>
        <time>2020-02-08T13:24:07.000Z</time>
      </trkpt>
      <trkpt lat="45.31133" lon="6.15929">
        <ele>2575.8000488281</ele>
        <time>2020-02-08T13:24:11.000Z</time>
      </trkpt>
      <trkpt lat="45.31134" lon="6.1593">
        <ele>2576.3999023438</ele>
        <time>2020-02-08T13:24:13.000Z</time>
      </trkpt>
      <trkpt lat="45.31134" lon="6.15934">
        <ele>2577</ele>
        <time>2020-02-08T13:24:18.000Z</time>
      </trkpt>
      <trkpt lat="45.31134" lon="6.15936">
        <ele>2577.3999023438</ele>
        <time>2020-02-08T13:24:21.000Z</time>
      </trkpt>
      <trkpt lat="45.31134" lon="6.15936">
        <ele>2577.8000488281</ele>
        <time>2020-02-08T13:24:23.000Z</time>
      </trkpt>
      <trkpt lat="45.31136" lon="6.15942">
        <ele>2578.3999023438</ele>
        <time>2020-02-08T13:24:29.000Z</time>
      </trkpt>
      <trkpt lat="45.31136" lon="6.15942">
        <ele>2578.6000976562</ele>
        <time>2020-02-08T13:24:30.000Z</time>
      </trkpt>
      <trkpt lat="45.31136" lon="6.15942">
        <ele>2579.3999023438</ele>
        <time>2020-02-08T13:24:44.000Z</time>
      </trkpt>
      <trkpt lat="45.31138" lon="6.15944">
        <ele>2579.8000488281</ele>
        <time>2020-02-08T13:24:51.000Z</time>
      </trkpt>
      <trkpt lat="45.31138" lon="6.15944">
        <ele>2580.1999511719</ele>
        <time>2020-02-08T13:24:52.000Z</time>
      </trkpt>
      <trkpt lat="45.31139" lon="6.15941">
        <ele>2580.1999511719</ele>
        <time>2020-02-08T13:24:58.000Z</time>
      </trkpt>
      <trkpt lat="45.31141" lon="6.15939">
        <ele>2581</ele>
        <time>2020-02-08T13:25:03.000Z</time>
      </trkpt>
      <trkpt lat="45.31143" lon="6.15937">
        <ele>2582.1999511719</ele>
        <time>2020-02-08T13:25:08.000Z</time>
      </trkpt>
      <trkpt lat="45.31143" lon="6.15936">
        <ele>2582.3999023438</ele>
        <time>2020-02-08T13:25:09.000Z</time>
      </trkpt>
      <trkpt lat="45.31144" lon="6.15935">
        <ele>2583.1999511719</ele>
        <time>2020-02-08T13:25:13.000Z</time>
      </trkpt>
      <trkpt lat="45.31144" lon="6.15935">
        <ele>2584.1999511719</ele>
        <time>2020-02-08T13:25:25.000Z</time>
      </trkpt>
      <trkpt lat="45.31145" lon="6.15934">
        <ele>2584.3999023438</ele>
        <time>2020-02-08T13:25:31.000Z</time>
      </trkpt>
      <trkpt lat="45.31145" lon="6.15933">
        <ele>2584.6000976562</ele>
        <time>2020-02-08T13:25:34.000Z</time>
      </trkpt>
      <trkpt lat="45.31145" lon="6.15933">
        <ele>2584.6000976562</ele>
        <time>2020-02-08T13:25:37.000Z</time>
      </trkpt>
      <trkpt lat="45.31145" lon="6.15933">
        <ele>2585.1999511719</ele>
        <time>2020-02-08T13:25:48.000Z</time>
      </trkpt>
      <trkpt lat="45.31145" lon="6.15932">
        <ele>2585.1999511719</ele>
        <time>2020-02-08T13:26:03.000Z</time>
      </trkpt>
      <trkpt lat="45.31145" lon="6.15931">
        <ele>2585.3999023438</ele>
        <time>2020-02-08T13:26:06.000Z</time>
      </trkpt>
      <trkpt lat="45.31145" lon="6.15931">
        <ele>2585.8000488281</ele>
        <time>2020-02-08T13:26:12.000Z</time>
      </trkpt>
      <trkpt lat="45.31147" lon="6.15924">
        <ele>2586</ele>
        <time>2020-02-08T13:26:19.000Z</time>
      </trkpt>
      <trkpt lat="45.31148" lon="6.15922">
        <ele>2586.6000976562</ele>
        <time>2020-02-08T13:26:24.000Z</time>
      </trkpt>
      <trkpt lat="45.31148" lon="6.15921">
        <ele>2586.8000488281</ele>
        <time>2020-02-08T13:26:26.000Z</time>
      </trkpt>
      <trkpt lat="45.31149" lon="6.1592">
        <ele>2587.6000976562</ele>
        <time>2020-02-08T13:26:29.000Z</time>
      </trkpt>
      <trkpt lat="45.31149" lon="6.15919">
        <ele>2588</ele>
        <time>2020-02-08T13:26:31.000Z</time>
      </trkpt>
      <trkpt lat="45.3115" lon="6.15916">
        <ele>2588.1999511719</ele>
        <time>2020-02-08T13:26:38.000Z</time>
      </trkpt>
      <trkpt lat="45.3115" lon="6.15916">
        <ele>2588.8000488281</ele>
        <time>2020-02-08T13:26:41.000Z</time>
      </trkpt>
      <trkpt lat="45.3115" lon="6.15915">
        <ele>2589</ele>
        <time>2020-02-08T13:26:48.000Z</time>
      </trkpt>
      <trkpt lat="45.3115" lon="6.15914">
        <ele>2589.6000976562</ele>
        <time>2020-02-08T13:26:57.000Z</time>
      </trkpt>
      <trkpt lat="45.3115" lon="6.15913">
        <ele>2589.8000488281</ele>
        <time>2020-02-08T13:27:01.000Z</time>
      </trkpt>
      <trkpt lat="45.31151" lon="6.15912">
        <ele>2590</ele>
        <time>2020-02-08T13:27:04.000Z</time>
      </trkpt>
      <trkpt lat="45.31152" lon="6.15907">
        <ele>2590.3999023438</ele>
        <time>2020-02-08T13:27:09.000Z</time>
      </trkpt>
      <trkpt lat="45.31152" lon="6.15907">
        <ele>2590.8000488281</ele>
        <time>2020-02-08T13:27:12.000Z</time>
      </trkpt>
      <trkpt lat="45.31152" lon="6.15907">
        <ele>2590.6000976562</ele>
        <time>2020-02-08T13:27:15.000Z</time>
      </trkpt>
      <trkpt lat="45.31152" lon="6.15907">
        <ele>2592.1999511719</ele>
        <time>2020-02-08T13:27:18.000Z</time>
      </trkpt>
      <trkpt lat="45.31152" lon="6.15907">
        <ele>2592</ele>
        <time>2020-02-08T13:27:25.000Z</time>
      </trkpt>
      <trkpt lat="45.31152" lon="6.15907">
        <ele>2591.8000488281</ele>
        <time>2020-02-08T13:27:40.000Z</time>
      </trkpt>
      <trkpt lat="45.31153" lon="6.15907">
        <ele>2591.6000976562</ele>
        <time>2020-02-08T13:27:45.000Z</time>
      </trkpt>
      <trkpt lat="45.31153" lon="6.15906">
        <ele>2592.3999023438</ele>
        <time>2020-02-08T13:27:53.000Z</time>
      </trkpt>
      <trkpt lat="45.31153" lon="6.15905">
        <ele>2593.1999511719</ele>
        <time>2020-02-08T13:28:00.000Z</time>
      </trkpt>
      <trkpt lat="45.31154" lon="6.15902">
        <ele>2594.3999023438</ele>
        <time>2020-02-08T13:28:04.000Z</time>
      </trkpt>
      <trkpt lat="45.31155" lon="6.15901">
        <ele>2594.8000488281</ele>
        <time>2020-02-08T13:28:07.000Z</time>
      </trkpt>
      <trkpt lat="45.31157" lon="6.15897">
        <ele>2595.6000976562</ele>
        <time>2020-02-08T13:28:12.000Z</time>
      </trkpt>
      <trkpt lat="45.31157" lon="6.15893">
        <ele>2596.6000976562</ele>
        <time>2020-02-08T13:28:17.000Z</time>
      </trkpt>
      <trkpt lat="45.31158" lon="6.15892">
        <ele>2597</ele>
        <time>2020-02-08T13:28:20.000Z</time>
      </trkpt>
      <trkpt lat="45.31159" lon="6.15889">
        <ele>2597.8000488281</ele>
        <time>2020-02-08T13:28:24.000Z</time>
      </trkpt>
      <trkpt lat="45.31159" lon="6.15888">
        <ele>2598.1999511719</ele>
        <time>2020-02-08T13:28:26.000Z</time>
      </trkpt>
      <trkpt lat="45.31159" lon="6.15888">
        <ele>2598.8000488281</ele>
        <time>2020-02-08T13:28:32.000Z</time>
      </trkpt>
      <trkpt lat="45.31159" lon="6.15888">
        <ele>2599.1999511719</ele>
        <time>2020-02-08T13:28:33.000Z</time>
      </trkpt>
      <trkpt lat="45.31159" lon="6.15888">
        <ele>2599.8000488281</ele>
        <time>2020-02-08T13:28:34.000Z</time>
      </trkpt>
      <trkpt lat="45.31159" lon="6.15888">
        <ele>2599.8000488281</ele>
        <time>2020-02-08T13:28:45.000Z</time>
      </trkpt>
      <trkpt lat="45.31159" lon="6.15888">
        <ele>2600</ele>
        <time>2020-02-08T13:28:58.000Z</time>
      </trkpt>
      <trkpt lat="45.31159" lon="6.15887">
        <ele>2600</ele>
        <time>2020-02-08T13:29:04.000Z</time>
      </trkpt>
      <trkpt lat="45.3116" lon="6.15884">
        <ele>2600.3999023438</ele>
        <time>2020-02-08T13:29:10.000Z</time>
      </trkpt>
      <trkpt lat="45.3116" lon="6.15882">
        <ele>2601</ele>
        <time>2020-02-08T13:29:14.000Z</time>
      </trkpt>
      <trkpt lat="45.3116" lon="6.15882">
        <ele>2601.3999023438</ele>
        <time>2020-02-08T13:29:17.000Z</time>
      </trkpt>
      <trkpt lat="45.3116" lon="6.1588">
        <ele>2602</ele>
        <time>2020-02-08T13:29:23.000Z</time>
      </trkpt>
      <trkpt lat="45.31159" lon="6.15876">
        <ele>2602.6000976562</ele>
        <time>2020-02-08T13:29:25.000Z</time>
      </trkpt>
      <trkpt lat="45.31159" lon="6.15873">
        <ele>2603</ele>
        <time>2020-02-08T13:29:28.000Z</time>
      </trkpt>
      <trkpt lat="45.3116" lon="6.15871">
        <ele>2603.1999511719</ele>
        <time>2020-02-08T13:29:30.000Z</time>
      </trkpt>
      <trkpt lat="45.3116" lon="6.15869">
        <ele>2603.3999023438</ele>
        <time>2020-02-08T13:29:33.000Z</time>
      </trkpt>
      <trkpt lat="45.3116" lon="6.15864">
        <ele>2604.3999023438</ele>
        <time>2020-02-08T13:29:38.000Z</time>
      </trkpt>
      <trkpt lat="45.3116" lon="6.15862">
        <ele>2605.1999511719</ele>
        <time>2020-02-08T13:29:41.000Z</time>
      </trkpt>
      <trkpt lat="45.3116" lon="6.15862">
        <ele>2605.3999023438</ele>
        <time>2020-02-08T13:29:42.000Z</time>
      </trkpt>
      <trkpt lat="45.3116" lon="6.15856">
        <ele>2606.1999511719</ele>
        <time>2020-02-08T13:29:47.000Z</time>
      </trkpt>
      <trkpt lat="45.3116" lon="6.15855">
        <ele>2606.3999023438</ele>
        <time>2020-02-08T13:29:49.000Z</time>
      </trkpt>
      <trkpt lat="45.31161" lon="6.15852">
        <ele>2606.8000488281</ele>
        <time>2020-02-08T13:29:52.000Z</time>
      </trkpt>
      <trkpt lat="45.31161" lon="6.15846">
        <ele>2607.6000976562</ele>
        <time>2020-02-08T13:29:57.000Z</time>
      </trkpt>
      <trkpt lat="45.31161" lon="6.15845">
        <ele>2607.8000488281</ele>
        <time>2020-02-08T13:29:58.000Z</time>
      </trkpt>
      <trkpt lat="45.3116" lon="6.15844">
        <ele>2608.8000488281</ele>
        <time>2020-02-08T13:30:02.000Z</time>
      </trkpt>
      <trkpt lat="45.3116" lon="6.15843">
        <ele>2609.1999511719</ele>
        <time>2020-02-08T13:30:04.000Z</time>
      </trkpt>
      <trkpt lat="45.31162" lon="6.15841">
        <ele>2609.3999023438</ele>
        <time>2020-02-08T13:30:05.000Z</time>
      </trkpt>
      <trkpt lat="45.31162" lon="6.15841">
        <ele>2609.8000488281</ele>
        <time>2020-02-08T13:30:08.000Z</time>
      </trkpt>
      <trkpt lat="45.31162" lon="6.15841">
        <ele>2610.6000976562</ele>
        <time>2020-02-08T13:30:21.000Z</time>
      </trkpt>
      <trkpt lat="45.31162" lon="6.1584">
        <ele>2610.8000488281</ele>
        <time>2020-02-08T13:30:23.000Z</time>
      </trkpt>
      <trkpt lat="45.31162" lon="6.1584">
        <ele>2610.8000488281</ele>
        <time>2020-02-08T13:30:24.000Z</time>
      </trkpt>
      <trkpt lat="45.31162" lon="6.15838">
        <ele>2611.1999511719</ele>
        <time>2020-02-08T13:30:26.000Z</time>
      </trkpt>
      <trkpt lat="45.31163" lon="6.15832">
        <ele>2611.1999511719</ele>
        <time>2020-02-08T13:30:30.000Z</time>
      </trkpt>
      <trkpt lat="45.31164" lon="6.15827">
        <ele>2611.8000488281</ele>
        <time>2020-02-08T13:30:35.000Z</time>
      </trkpt>
      <trkpt lat="45.31164" lon="6.15826">
        <ele>2612</ele>
        <time>2020-02-08T13:30:36.000Z</time>
      </trkpt>
      <trkpt lat="45.31164" lon="6.15822">
        <ele>2612.6000976562</ele>
        <time>2020-02-08T13:30:40.000Z</time>
      </trkpt>
      <trkpt lat="45.31165" lon="6.15821">
        <ele>2613</ele>
        <time>2020-02-08T13:30:43.000Z</time>
      </trkpt>
      <trkpt lat="45.31165" lon="6.1582">
        <ele>2613.1999511719</ele>
        <time>2020-02-08T13:30:44.000Z</time>
      </trkpt>
      <trkpt lat="45.31165" lon="6.15817">
        <ele>2614</ele>
        <time>2020-02-08T13:30:49.000Z</time>
      </trkpt>
      <trkpt lat="45.31166" lon="6.15814">
        <ele>2615</ele>
        <time>2020-02-08T13:30:55.000Z</time>
      </trkpt>
      <trkpt lat="45.31166" lon="6.15814">
        <ele>2615.1999511719</ele>
        <time>2020-02-08T13:30:56.000Z</time>
      </trkpt>
      <trkpt lat="45.31166" lon="6.15814">
        <ele>2616.1999511719</ele>
        <time>2020-02-08T13:31:04.000Z</time>
      </trkpt>
      <trkpt lat="45.31167" lon="6.15816">
        <ele>2615.8000488281</ele>
        <time>2020-02-08T13:31:15.000Z</time>
      </trkpt>
      <trkpt lat="45.31168" lon="6.15821">
        <ele>2616.3999023438</ele>
        <time>2020-02-08T13:31:22.000Z</time>
      </trkpt>
      <trkpt lat="45.31169" lon="6.15826">
        <ele>2617.1999511719</ele>
        <time>2020-02-08T13:31:27.000Z</time>
      </trkpt>
      <trkpt lat="45.31169" lon="6.15826">
        <ele>2617.3999023438</ele>
        <time>2020-02-08T13:31:28.000Z</time>
      </trkpt>
      <trkpt lat="45.3117" lon="6.15827">
        <ele>2618.3999023438</ele>
        <time>2020-02-08T13:31:33.000Z</time>
      </trkpt>
      <trkpt lat="45.31172" lon="6.1583">
        <ele>2619</ele>
        <time>2020-02-08T13:31:38.000Z</time>
      </trkpt>
      <trkpt lat="45.31172" lon="6.15831">
        <ele>2619.3999023438</ele>
        <time>2020-02-08T13:31:40.000Z</time>
      </trkpt>
      <trkpt lat="45.31174" lon="6.15833">
        <ele>2620.1999511719</ele>
        <time>2020-02-08T13:31:44.000Z</time>
      </trkpt>
      <trkpt lat="45.31175" lon="6.15833">
        <ele>2620.6000976562</ele>
        <time>2020-02-08T13:31:46.000Z</time>
      </trkpt>
      <trkpt lat="45.31176" lon="6.15834">
        <ele>2621.1999511719</ele>
        <time>2020-02-08T13:31:49.000Z</time>
      </trkpt>
      <trkpt lat="45.31176" lon="6.15835">
        <ele>2621.6000976562</ele>
        <time>2020-02-08T13:31:51.000Z</time>
      </trkpt>
      <trkpt lat="45.31177" lon="6.15837">
        <ele>2622.1999511719</ele>
        <time>2020-02-08T13:31:54.000Z</time>
      </trkpt>
      <trkpt lat="45.31178" lon="6.15838">
        <ele>2622.8000488281</ele>
        <time>2020-02-08T13:31:57.000Z</time>
      </trkpt>
      <trkpt lat="45.31178" lon="6.15839">
        <ele>2623</ele>
        <time>2020-02-08T13:31:58.000Z</time>
      </trkpt>
      <trkpt lat="45.31179" lon="6.15841">
        <ele>2623.6000976562</ele>
        <time>2020-02-08T13:32:02.000Z</time>
      </trkpt>
      <trkpt lat="45.3118" lon="6.15842">
        <ele>2623.8000488281</ele>
        <time>2020-02-08T13:32:04.000Z</time>
      </trkpt>
      <trkpt lat="45.31181" lon="6.15843">
        <ele>2624.3999023438</ele>
        <time>2020-02-08T13:32:07.000Z</time>
      </trkpt>
      <trkpt lat="45.31182" lon="6.15844">
        <ele>2625</ele>
        <time>2020-02-08T13:32:09.000Z</time>
      </trkpt>
      <trkpt lat="45.31184" lon="6.15847">
        <ele>2625.8000488281</ele>
        <time>2020-02-08T13:32:14.000Z</time>
      </trkpt>
      <trkpt lat="45.31185" lon="6.15849">
        <ele>2626</ele>
        <time>2020-02-08T13:32:16.000Z</time>
      </trkpt>
      <trkpt lat="45.31185" lon="6.15853">
        <ele>2627.1999511719</ele>
        <time>2020-02-08T13:32:22.000Z</time>
      </trkpt>
      <trkpt lat="45.31186" lon="6.15853">
        <ele>2628.1999511719</ele>
        <time>2020-02-08T13:32:28.000Z</time>
      </trkpt>
      <trkpt lat="45.31186" lon="6.15853">
        <ele>2628.1999511719</ele>
        <time>2020-02-08T13:32:32.000Z</time>
      </trkpt>
      <trkpt lat="45.31186" lon="6.15853">
        <ele>2628.3999023438</ele>
        <time>2020-02-08T13:32:42.000Z</time>
      </trkpt>
      <trkpt lat="45.31186" lon="6.15853">
        <ele>2628.8000488281</ele>
        <time>2020-02-08T13:32:52.000Z</time>
      </trkpt>
      <trkpt lat="45.31187" lon="6.15853">
        <ele>2628.8000488281</ele>
        <time>2020-02-08T13:32:58.000Z</time>
      </trkpt>
      <trkpt lat="45.31187" lon="6.15853">
        <ele>2629.3999023438</ele>
        <time>2020-02-08T13:33:00.000Z</time>
      </trkpt>
      <trkpt lat="45.3119" lon="6.15851">
        <ele>2629.8000488281</ele>
        <time>2020-02-08T13:33:05.000Z</time>
      </trkpt>
      <trkpt lat="45.31191" lon="6.15848">
        <ele>2630.1999511719</ele>
        <time>2020-02-08T13:33:08.000Z</time>
      </trkpt>
      <trkpt lat="45.31192" lon="6.15848">
        <ele>2630.3999023438</ele>
        <time>2020-02-08T13:33:09.000Z</time>
      </trkpt>
      <trkpt lat="45.31192" lon="6.15846">
        <ele>2631</ele>
        <time>2020-02-08T13:33:11.000Z</time>
      </trkpt>
      <trkpt lat="45.31193" lon="6.15845">
        <ele>2631.3999023438</ele>
        <time>2020-02-08T13:33:13.000Z</time>
      </trkpt>
      <trkpt lat="45.31193" lon="6.15841">
        <ele>2632.1999511719</ele>
        <time>2020-02-08T13:33:18.000Z</time>
      </trkpt>
      <trkpt lat="45.31193" lon="6.15838">
        <ele>2632.6000976562</ele>
        <time>2020-02-08T13:33:21.000Z</time>
      </trkpt>
      <trkpt lat="45.31194" lon="6.15836">
        <ele>2632.8000488281</ele>
        <time>2020-02-08T13:33:23.000Z</time>
      </trkpt>
      <trkpt lat="45.31194" lon="6.15835">
        <ele>2633.6000976562</ele>
        <time>2020-02-08T13:33:26.000Z</time>
      </trkpt>
      <trkpt lat="45.31194" lon="6.15835">
        <ele>2633.8000488281</ele>
        <time>2020-02-08T13:33:27.000Z</time>
      </trkpt>
      <trkpt lat="45.31194" lon="6.15835">
        <ele>2634.6000976562</ele>
        <time>2020-02-08T13:33:38.000Z</time>
      </trkpt>
      <trkpt lat="45.31194" lon="6.15834">
        <ele>2634.3999023438</ele>
        <time>2020-02-08T13:33:44.000Z</time>
      </trkpt>
      <trkpt lat="45.31194" lon="6.15834">
        <ele>2634.6000976562</ele>
        <time>2020-02-08T13:33:46.000Z</time>
      </trkpt>
      <trkpt lat="45.31195" lon="6.15834">
        <ele>2636</ele>
        <time>2020-02-08T13:33:49.000Z</time>
      </trkpt>
      <trkpt lat="45.31195" lon="6.15834">
        <ele>2636.1999511719</ele>
        <time>2020-02-08T13:33:51.000Z</time>
      </trkpt>
      <trkpt lat="45.31195" lon="6.15835">
        <ele>2635.3999023438</ele>
        <time>2020-02-08T13:33:56.000Z</time>
      </trkpt>
      <trkpt lat="45.31197" lon="6.15839">
        <ele>2635.8000488281</ele>
        <time>2020-02-08T13:34:02.000Z</time>
      </trkpt>
      <trkpt lat="45.31199" lon="6.15842">
        <ele>2637</ele>
        <time>2020-02-08T13:34:08.000Z</time>
      </trkpt>
      <trkpt lat="45.31199" lon="6.15843">
        <ele>2637.8000488281</ele>
        <time>2020-02-08T13:34:13.000Z</time>
      </trkpt>
      <trkpt lat="45.312" lon="6.15844">
        <ele>2638.1999511719</ele>
        <time>2020-02-08T13:34:15.000Z</time>
      </trkpt>
      <trkpt lat="45.312" lon="6.15846">
        <ele>2639.1999511719</ele>
        <time>2020-02-08T13:34:20.000Z</time>
      </trkpt>
      <trkpt lat="45.31201" lon="6.15848">
        <ele>2639.6000976562</ele>
        <time>2020-02-08T13:34:34.000Z</time>
      </trkpt>
      <trkpt lat="45.31202" lon="6.15852">
        <ele>2640.3999023438</ele>
        <time>2020-02-08T13:34:39.000Z</time>
      </trkpt>
      <trkpt lat="45.31202" lon="6.15853">
        <ele>2640.6000976562</ele>
        <time>2020-02-08T13:34:40.000Z</time>
      </trkpt>
      <trkpt lat="45.31203" lon="6.15853">
        <ele>2641.3999023438</ele>
        <time>2020-02-08T13:34:44.000Z</time>
      </trkpt>
      <trkpt lat="45.31203" lon="6.15853">
        <ele>2641.8000488281</ele>
        <time>2020-02-08T13:34:46.000Z</time>
      </trkpt>
      <trkpt lat="45.31204" lon="6.15851">
        <ele>2642</ele>
        <time>2020-02-08T13:34:53.000Z</time>
      </trkpt>
      <trkpt lat="45.31205" lon="6.15849">
        <ele>2642.6000976562</ele>
        <time>2020-02-08T13:34:55.000Z</time>
      </trkpt>
      <trkpt lat="45.31207" lon="6.15846">
        <ele>2643.1999511719</ele>
        <time>2020-02-08T13:34:59.000Z</time>
      </trkpt>
      <trkpt lat="45.31208" lon="6.15845">
        <ele>2643.6000976562</ele>
        <time>2020-02-08T13:35:01.000Z</time>
      </trkpt>
      <trkpt lat="45.31209" lon="6.15843">
        <ele>2644.1999511719</ele>
        <time>2020-02-08T13:35:04.000Z</time>
      </trkpt>
      <trkpt lat="45.31211" lon="6.15841">
        <ele>2644.6000976562</ele>
        <time>2020-02-08T13:35:07.000Z</time>
      </trkpt>
      <trkpt lat="45.31211" lon="6.1584">
        <ele>2645</ele>
        <time>2020-02-08T13:35:09.000Z</time>
      </trkpt>
      <trkpt lat="45.31214" lon="6.15836">
        <ele>2645.8000488281</ele>
        <time>2020-02-08T13:35:14.000Z</time>
      </trkpt>
      <trkpt lat="45.31214" lon="6.15834">
        <ele>2646.8000488281</ele>
        <time>2020-02-08T13:35:18.000Z</time>
      </trkpt>
      <trkpt lat="45.31216" lon="6.15831">
        <ele>2647.3999023438</ele>
        <time>2020-02-08T13:35:21.000Z</time>
      </trkpt>
      <trkpt lat="45.31218" lon="6.15828">
        <ele>2648</ele>
        <time>2020-02-08T13:35:25.000Z</time>
      </trkpt>
      <trkpt lat="45.31218" lon="6.15828">
        <ele>2648.1999511719</ele>
        <time>2020-02-08T13:35:26.000Z</time>
      </trkpt>
      <trkpt lat="45.3122" lon="6.15825">
        <ele>2648.3999023438</ele>
        <time>2020-02-08T13:35:31.000Z</time>
      </trkpt>
      <trkpt lat="45.31221" lon="6.15823">
        <ele>2649.1999511719</ele>
        <time>2020-02-08T13:35:35.000Z</time>
      </trkpt>
      <trkpt lat="45.31222" lon="6.15822">
        <ele>2649.6000976562</ele>
        <time>2020-02-08T13:35:38.000Z</time>
      </trkpt>
      <trkpt lat="45.31223" lon="6.1582">
        <ele>2650.3999023438</ele>
        <time>2020-02-08T13:35:41.000Z</time>
      </trkpt>
      <trkpt lat="45.31223" lon="6.15819">
        <ele>2650.8000488281</ele>
        <time>2020-02-08T13:35:44.000Z</time>
      </trkpt>
      <trkpt lat="45.31223" lon="6.15817">
        <ele>2651.3999023438</ele>
        <time>2020-02-08T13:35:48.000Z</time>
      </trkpt>
      <trkpt lat="45.31223" lon="6.15817">
        <ele>2651.6000976562</ele>
        <time>2020-02-08T13:35:49.000Z</time>
      </trkpt>
      <trkpt lat="45.31225" lon="6.15813">
        <ele>2652.6000976562</ele>
        <time>2020-02-08T13:35:56.000Z</time>
      </trkpt>
      <trkpt lat="45.31226" lon="6.15814">
        <ele>2653.8000488281</ele>
        <time>2020-02-08T13:36:01.000Z</time>
      </trkpt>
      <trkpt lat="45.31227" lon="6.15815">
        <ele>2654.6000976562</ele>
        <time>2020-02-08T13:36:06.000Z</time>
      </trkpt>
      <trkpt lat="45.31227" lon="6.15815">
        <ele>2654.8000488281</ele>
        <time>2020-02-08T13:36:07.000Z</time>
      </trkpt>
      <trkpt lat="45.31228" lon="6.15816">
        <ele>2655.3999023438</ele>
        <time>2020-02-08T13:36:11.000Z</time>
      </trkpt>
      <trkpt lat="45.31229" lon="6.15818">
        <ele>2655.8000488281</ele>
        <time>2020-02-08T13:36:14.000Z</time>
      </trkpt>
      <trkpt lat="45.3123" lon="6.1582">
        <ele>2656.1999511719</ele>
        <time>2020-02-08T13:36:17.000Z</time>
      </trkpt>
      <trkpt lat="45.31231" lon="6.15821">
        <ele>2657</ele>
        <time>2020-02-08T13:36:20.000Z</time>
      </trkpt>
      <trkpt lat="45.31231" lon="6.15822">
        <ele>2657.1999511719</ele>
        <time>2020-02-08T13:36:21.000Z</time>
      </trkpt>
      <trkpt lat="45.31231" lon="6.15822">
        <ele>2657.6000976562</ele>
        <time>2020-02-08T13:36:38.000Z</time>
      </trkpt>
      <trkpt lat="45.31231" lon="6.15822">
        <ele>2657.8000488281</ele>
        <time>2020-02-08T13:36:53.000Z</time>
      </trkpt>
      <trkpt lat="45.31232" lon="6.15826">
        <ele>2657.6000976562</ele>
        <time>2020-02-08T13:37:03.000Z</time>
      </trkpt>
      <trkpt lat="45.31233" lon="6.1583">
        <ele>2658</ele>
        <time>2020-02-08T13:37:06.000Z</time>
      </trkpt>
      <trkpt lat="45.31233" lon="6.15833">
        <ele>2658.8000488281</ele>
        <time>2020-02-08T13:37:09.000Z</time>
      </trkpt>
      <trkpt lat="45.31234" lon="6.15835">
        <ele>2659.1999511719</ele>
        <time>2020-02-08T13:37:12.000Z</time>
      </trkpt>
      <trkpt lat="45.31235" lon="6.15836">
        <ele>2660.1999511719</ele>
        <time>2020-02-08T13:37:15.000Z</time>
      </trkpt>
      <trkpt lat="45.31235" lon="6.15837">
        <ele>2660.3999023438</ele>
        <time>2020-02-08T13:37:16.000Z</time>
      </trkpt>
      <trkpt lat="45.31235" lon="6.15842">
        <ele>2661.1999511719</ele>
        <time>2020-02-08T13:37:21.000Z</time>
      </trkpt>
      <trkpt lat="45.31235" lon="6.15843">
        <ele>2661.6000976562</ele>
        <time>2020-02-08T13:37:23.000Z</time>
      </trkpt>
      <trkpt lat="45.31235" lon="6.15844">
        <ele>2662.1999511719</ele>
        <time>2020-02-08T13:37:26.000Z</time>
      </trkpt>
      <trkpt lat="45.31235" lon="6.15845">
        <ele>2662.6000976562</ele>
        <time>2020-02-08T13:37:28.000Z</time>
      </trkpt>
      <trkpt lat="45.31235" lon="6.15847">
        <ele>2663.6000976562</ele>
        <time>2020-02-08T13:37:31.000Z</time>
      </trkpt>
      <trkpt lat="45.31235" lon="6.15848">
        <ele>2663.8000488281</ele>
        <time>2020-02-08T13:37:32.000Z</time>
      </trkpt>
      <trkpt lat="45.31236" lon="6.15849">
        <ele>2664.8000488281</ele>
        <time>2020-02-08T13:37:36.000Z</time>
      </trkpt>
      <trkpt lat="45.31236" lon="6.15851">
        <ele>2665</ele>
        <time>2020-02-08T13:37:37.000Z</time>
      </trkpt>
      <trkpt lat="45.31236" lon="6.15854">
        <ele>2665.3999023438</ele>
        <time>2020-02-08T13:37:41.000Z</time>
      </trkpt>
      <trkpt lat="45.31236" lon="6.15856">
        <ele>2666</ele>
        <time>2020-02-08T13:37:44.000Z</time>
      </trkpt>
      <trkpt lat="45.31235" lon="6.15859">
        <ele>2666.8000488281</ele>
        <time>2020-02-08T13:37:47.000Z</time>
      </trkpt>
      <trkpt lat="45.31235" lon="6.15859">
        <ele>2667</ele>
        <time>2020-02-08T13:37:48.000Z</time>
      </trkpt>
      <trkpt lat="45.31235" lon="6.15859">
        <ele>2667.6000976562</ele>
        <time>2020-02-08T13:38:00.000Z</time>
      </trkpt>
      <trkpt lat="45.31235" lon="6.1586">
        <ele>2667.8000488281</ele>
        <time>2020-02-08T13:38:10.000Z</time>
      </trkpt>
      <trkpt lat="45.31235" lon="6.15862">
        <ele>2668</ele>
        <time>2020-02-08T13:38:14.000Z</time>
      </trkpt>
      <trkpt lat="45.31235" lon="6.15862">
        <ele>2668.1999511719</ele>
        <time>2020-02-08T13:38:15.000Z</time>
      </trkpt>
      <trkpt lat="45.31236" lon="6.15864">
        <ele>2669</ele>
        <time>2020-02-08T13:38:18.000Z</time>
      </trkpt>
      <trkpt lat="45.31236" lon="6.15865">
        <ele>2669.3999023438</ele>
        <time>2020-02-08T13:38:19.000Z</time>
      </trkpt>
      <trkpt lat="45.31236" lon="6.15867">
        <ele>2670.1999511719</ele>
        <time>2020-02-08T13:38:23.000Z</time>
      </trkpt>
      <trkpt lat="45.31236" lon="6.15867">
        <ele>2670.3999023438</ele>
        <time>2020-02-08T13:38:24.000Z</time>
      </trkpt>
      <trkpt lat="45.31235" lon="6.15868">
        <ele>2671.6000976562</ele>
        <time>2020-02-08T13:38:29.000Z</time>
      </trkpt>
      <trkpt lat="45.31235" lon="6.15868">
        <ele>2671.6000976562</ele>
        <time>2020-02-08T13:38:31.000Z</time>
      </trkpt>
      <trkpt lat="45.31237" lon="6.15868">
        <ele>2671.6000976562</ele>
        <time>2020-02-08T13:38:42.000Z</time>
      </trkpt>
      <trkpt lat="45.31237" lon="6.15868">
        <ele>2672.6000976562</ele>
        <time>2020-02-08T13:38:51.000Z</time>
      </trkpt>
      <trkpt lat="45.31237" lon="6.15868">
        <ele>2672.8000488281</ele>
        <time>2020-02-08T13:38:55.000Z</time>
      </trkpt>
      <trkpt lat="45.31238" lon="6.15868">
        <ele>2673.3999023438</ele>
        <time>2020-02-08T13:39:12.000Z</time>
      </trkpt>
      <trkpt lat="45.31241" lon="6.15866">
        <ele>2673.1999511719</ele>
        <time>2020-02-08T13:39:17.000Z</time>
      </trkpt>
      <trkpt lat="45.31242" lon="6.15865">
        <ele>2673.8000488281</ele>
        <time>2020-02-08T13:39:21.000Z</time>
      </trkpt>
      <trkpt lat="45.31243" lon="6.15865">
        <ele>2674.8000488281</ele>
        <time>2020-02-08T13:39:26.000Z</time>
      </trkpt>
      <trkpt lat="45.31243" lon="6.15864">
        <ele>2675</ele>
        <time>2020-02-08T13:39:27.000Z</time>
      </trkpt>
      <trkpt lat="45.31243" lon="6.15865">
        <ele>2675.1999511719</ele>
        <time>2020-02-08T13:39:32.000Z</time>
      </trkpt>
      <trkpt lat="45.31243" lon="6.15865">
        <ele>2676.1999511719</ele>
        <time>2020-02-08T13:39:34.000Z</time>
      </trkpt>
      <trkpt lat="45.31243" lon="6.15869">
        <ele>2677</ele>
        <time>2020-02-08T13:39:38.000Z</time>
      </trkpt>
      <trkpt lat="45.31243" lon="6.15875">
        <ele>2677.1999511719</ele>
        <time>2020-02-08T13:39:44.000Z</time>
      </trkpt>
      <trkpt lat="45.31243" lon="6.1588">
        <ele>2677.8000488281</ele>
        <time>2020-02-08T13:39:49.000Z</time>
      </trkpt>
      <trkpt lat="45.31243" lon="6.15881">
        <ele>2678</ele>
        <time>2020-02-08T13:39:50.000Z</time>
      </trkpt>
      <trkpt lat="45.31243" lon="6.15882">
        <ele>2678.3999023438</ele>
        <time>2020-02-08T13:39:52.000Z</time>
      </trkpt>
      <trkpt lat="45.31244" lon="6.15885">
        <ele>2679</ele>
        <time>2020-02-08T13:39:56.000Z</time>
      </trkpt>
      <trkpt lat="45.31244" lon="6.15889">
        <ele>2679.3999023438</ele>
        <time>2020-02-08T13:40:00.000Z</time>
      </trkpt>
      <trkpt lat="45.31244" lon="6.15893">
        <ele>2680.6000976562</ele>
        <time>2020-02-08T13:40:05.000Z</time>
      </trkpt>
      <trkpt lat="45.31243" lon="6.15899">
        <ele>2681.1999511719</ele>
        <time>2020-02-08T13:40:10.000Z</time>
      </trkpt>
      <trkpt lat="45.31242" lon="6.15902">
        <ele>2681.6000976562</ele>
        <time>2020-02-08T13:40:14.000Z</time>
      </trkpt>
      <trkpt lat="45.31241" lon="6.15905">
        <ele>2682</ele>
        <time>2020-02-08T13:40:16.000Z</time>
      </trkpt>
      <trkpt lat="45.31241" lon="6.15907">
        <ele>2682.6000976562</ele>
        <time>2020-02-08T13:40:21.000Z</time>
      </trkpt>
      <trkpt lat="45.31241" lon="6.15908">
        <ele>2683.8000488281</ele>
        <time>2020-02-08T13:40:27.000Z</time>
      </trkpt>
      <trkpt lat="45.31241" lon="6.15907">
        <ele>2684</ele>
        <time>2020-02-08T13:40:28.000Z</time>
      </trkpt>
      <trkpt lat="45.31241" lon="6.15907">
        <ele>2684.8000488281</ele>
        <time>2020-02-08T13:40:32.000Z</time>
      </trkpt>
      <trkpt lat="45.31241" lon="6.15907">
        <ele>2685.1999511719</ele>
        <time>2020-02-08T13:40:34.000Z</time>
      </trkpt>
      <trkpt lat="45.31241" lon="6.15908">
        <ele>2686</ele>
        <time>2020-02-08T13:40:39.000Z</time>
      </trkpt>
      <trkpt lat="45.31241" lon="6.15907">
        <ele>2687</ele>
        <time>2020-02-08T13:40:44.000Z</time>
      </trkpt>
      <trkpt lat="45.31241" lon="6.15907">
        <ele>2687.1999511719</ele>
        <time>2020-02-08T13:40:46.000Z</time>
      </trkpt>
      <trkpt lat="45.31242" lon="6.15908">
        <ele>2687.3999023438</ele>
        <time>2020-02-08T13:40:53.000Z</time>
      </trkpt>
      <trkpt lat="45.31242" lon="6.15908">
        <ele>2688.1999511719</ele>
        <time>2020-02-08T13:40:56.000Z</time>
      </trkpt>
      <trkpt lat="45.31242" lon="6.15908">
        <ele>2688.3999023438</ele>
        <time>2020-02-08T13:40:58.000Z</time>
      </trkpt>
      <trkpt lat="45.31242" lon="6.15908">
        <ele>2689</ele>
        <time>2020-02-08T13:41:03.000Z</time>
      </trkpt>
      <trkpt lat="45.31242" lon="6.15908">
        <ele>2689.3999023438</ele>
        <time>2020-02-08T13:41:08.000Z</time>
      </trkpt>
      <trkpt lat="45.31242" lon="6.15908">
        <ele>2690.3999023438</ele>
        <time>2020-02-08T13:41:13.000Z</time>
      </trkpt>
      <trkpt lat="45.31242" lon="6.15908">
        <ele>2691</ele>
        <time>2020-02-08T13:41:19.000Z</time>
      </trkpt>
      <trkpt lat="45.31242" lon="6.15909">
        <ele>2691.3999023438</ele>
        <time>2020-02-08T13:41:24.000Z</time>
      </trkpt>
      <trkpt lat="45.31242" lon="6.15908">
        <ele>2691.6000976562</ele>
        <time>2020-02-08T13:41:25.000Z</time>
      </trkpt>
      <trkpt lat="45.31242" lon="6.15908">
        <ele>2692.6000976562</ele>
        <time>2020-02-08T13:41:30.000Z</time>
      </trkpt>
      <trkpt lat="45.31243" lon="6.15909">
        <ele>2693.8000488281</ele>
        <time>2020-02-08T13:41:34.000Z</time>
      </trkpt>
      <trkpt lat="45.31243" lon="6.15909">
        <ele>2694.6000976562</ele>
        <time>2020-02-08T13:41:37.000Z</time>
      </trkpt>
      <trkpt lat="45.31243" lon="6.15909">
        <ele>2694.8000488281</ele>
        <time>2020-02-08T13:41:38.000Z</time>
      </trkpt>
      <trkpt lat="45.31243" lon="6.15909">
        <ele>2696</ele>
        <time>2020-02-08T13:41:41.000Z</time>
      </trkpt>
      <trkpt lat="45.31243" lon="6.15909">
        <ele>2695.8000488281</ele>
        <time>2020-02-08T13:41:44.000Z</time>
      </trkpt>
      <trkpt lat="45.31243" lon="6.1591">
        <ele>2696</ele>
        <time>2020-02-08T13:42:02.000Z</time>
      </trkpt>
      <trkpt lat="45.31246" lon="6.15918">
        <ele>2696.1999511719</ele>
        <time>2020-02-08T13:42:06.000Z</time>
      </trkpt>
      <trkpt lat="45.31247" lon="6.15924">
        <ele>2696.1999511719</ele>
        <time>2020-02-08T13:42:08.000Z</time>
      </trkpt>
      <trkpt lat="45.31248" lon="6.15929">
        <ele>2697</ele>
        <time>2020-02-08T13:42:12.000Z</time>
      </trkpt>
      <trkpt lat="45.31248" lon="6.15929">
        <ele>2697.1999511719</ele>
        <time>2020-02-08T13:42:14.000Z</time>
      </trkpt>
      <trkpt lat="45.31249" lon="6.15937">
        <ele>2697.6000976562</ele>
        <time>2020-02-08T13:42:19.000Z</time>
      </trkpt>
      <trkpt lat="45.31249" lon="6.15953">
        <ele>2697.8000488281</ele>
        <time>2020-02-08T13:42:26.000Z</time>
      </trkpt>
      <trkpt lat="45.3125" lon="6.15964">
        <ele>2696</ele>
        <time>2020-02-08T13:42:32.000Z</time>
      </trkpt>
      <trkpt lat="45.3125" lon="6.15971">
        <ele>2695.1999511719</ele>
        <time>2020-02-08T13:42:37.000Z</time>
      </trkpt>
      <trkpt lat="45.3125" lon="6.15974">
        <ele>2695</ele>
        <time>2020-02-08T13:42:39.000Z</time>
      </trkpt>
      <trkpt lat="45.31251" lon="6.15975">
        <ele>2694.8000488281</ele>
        <time>2020-02-08T13:42:40.000Z</time>
      </trkpt>
      <trkpt lat="45.31251" lon="6.15977">
        <ele>2694.8000488281</ele>
        <time>2020-02-08T13:42:43.000Z</time>
      </trkpt>
      <trkpt lat="45.31253" lon="6.15985">
        <ele>2695.8000488281</ele>
        <time>2020-02-08T13:42:48.000Z</time>
      </trkpt>
      <trkpt lat="45.31253" lon="6.15988">
        <ele>2696</ele>
        <time>2020-02-08T13:42:50.000Z</time>
      </trkpt>
      <trkpt lat="45.31254" lon="6.15993">
        <ele>2696</ele>
        <time>2020-02-08T13:42:53.000Z</time>
      </trkpt>
      <trkpt lat="45.31254" lon="6.15997">
        <ele>2696</ele>
        <time>2020-02-08T13:42:57.000Z</time>
      </trkpt>
      <trkpt lat="45.31255" lon="6.16003">
        <ele>2696</ele>
        <time>2020-02-08T13:43:02.000Z</time>
      </trkpt>
      <trkpt lat="45.31256" lon="6.16004">
        <ele>2696.1999511719</ele>
        <time>2020-02-08T13:43:03.000Z</time>
      </trkpt>
      <trkpt lat="45.31256" lon="6.1601">
        <ele>2696.6000976562</ele>
        <time>2020-02-08T13:43:09.000Z</time>
      </trkpt>
      <trkpt lat="45.31256" lon="6.16014">
        <ele>2697</ele>
        <time>2020-02-08T13:43:12.000Z</time>
      </trkpt>
      <trkpt lat="45.31256" lon="6.16018">
        <ele>2697.3999023438</ele>
        <time>2020-02-08T13:43:15.000Z</time>
      </trkpt>
      <trkpt lat="45.31255" lon="6.16024">
        <ele>2698</ele>
        <time>2020-02-08T13:43:20.000Z</time>
      </trkpt>
      <trkpt lat="45.31255" lon="6.16025">
        <ele>2698.1999511719</ele>
        <time>2020-02-08T13:43:21.000Z</time>
      </trkpt>
      <trkpt lat="45.31256" lon="6.16029">
        <ele>2698.6000976562</ele>
        <time>2020-02-08T13:43:25.000Z</time>
      </trkpt>
      <trkpt lat="45.31255" lon="6.16033">
        <ele>2699.1999511719</ele>
        <time>2020-02-08T13:43:28.000Z</time>
      </trkpt>
      <trkpt lat="45.31255" lon="6.16036">
        <ele>2699.6000976562</ele>
        <time>2020-02-08T13:43:31.000Z</time>
      </trkpt>
      <trkpt lat="45.31255" lon="6.16043">
        <ele>2699.8000488281</ele>
        <time>2020-02-08T13:43:36.000Z</time>
      </trkpt>
      <trkpt lat="45.31256" lon="6.16048">
        <ele>2699.8000488281</ele>
        <time>2020-02-08T13:43:40.000Z</time>
      </trkpt>
      <trkpt lat="45.31256" lon="6.16048">
        <ele>2700</ele>
        <time>2020-02-08T13:43:41.000Z</time>
      </trkpt>
      <trkpt lat="45.31256" lon="6.16054">
        <ele>2700.1999511719</ele>
        <time>2020-02-08T13:43:45.000Z</time>
      </trkpt>
      <trkpt lat="45.31256" lon="6.16057">
        <ele>2700.6000976562</ele>
        <time>2020-02-08T13:43:49.000Z</time>
      </trkpt>
      <trkpt lat="45.31256" lon="6.16057">
        <ele>2701.1999511719</ele>
        <time>2020-02-08T13:43:53.000Z</time>
      </trkpt>
      <trkpt lat="45.31256" lon="6.16057">
        <ele>2701.1999511719</ele>
        <time>2020-02-08T13:43:56.000Z</time>
      </trkpt>
      <trkpt lat="45.31256" lon="6.16058">
        <ele>2701</ele>
        <time>2020-02-08T13:44:12.000Z</time>
      </trkpt>
      <trkpt lat="45.31255" lon="6.16061">
        <ele>2701</ele>
        <time>2020-02-08T13:44:17.000Z</time>
      </trkpt>
      <trkpt lat="45.31255" lon="6.16066">
        <ele>2701.6000976562</ele>
        <time>2020-02-08T13:44:21.000Z</time>
      </trkpt>
      <trkpt lat="45.31255" lon="6.16069">
        <ele>2701.8000488281</ele>
        <time>2020-02-08T13:44:23.000Z</time>
      </trkpt>
      <trkpt lat="45.31255" lon="6.1607">
        <ele>2702.1999511719</ele>
        <time>2020-02-08T13:44:26.000Z</time>
      </trkpt>
      <trkpt lat="45.31255" lon="6.16072">
        <ele>2702.8000488281</ele>
        <time>2020-02-08T13:44:28.000Z</time>
      </trkpt>
      <trkpt lat="45.31255" lon="6.16074">
        <ele>2703.3999023438</ele>
        <time>2020-02-08T13:44:31.000Z</time>
      </trkpt>
      <trkpt lat="45.31256" lon="6.16075">
        <ele>2703.8000488281</ele>
        <time>2020-02-08T13:44:33.000Z</time>
      </trkpt>
      <trkpt lat="45.31256" lon="6.16077">
        <ele>2704.3999023438</ele>
        <time>2020-02-08T13:44:38.000Z</time>
      </trkpt>
      <trkpt lat="45.31257" lon="6.16085">
        <ele>2705</ele>
        <time>2020-02-08T13:44:44.000Z</time>
      </trkpt>
      <trkpt lat="45.31258" lon="6.16087">
        <ele>2705.3999023438</ele>
        <time>2020-02-08T13:44:47.000Z</time>
      </trkpt>
      <trkpt lat="45.31258" lon="6.16088">
        <ele>2705.8000488281</ele>
        <time>2020-02-08T13:44:49.000Z</time>
      </trkpt>
      <trkpt lat="45.31258" lon="6.16088">
        <ele>2706.6000976562</ele>
        <time>2020-02-08T13:44:54.000Z</time>
      </trkpt>
      <trkpt lat="45.31258" lon="6.16088">
        <ele>2706.8000488281</ele>
        <time>2020-02-08T13:45:03.000Z</time>
      </trkpt>
      <trkpt lat="45.31258" lon="6.16089">
        <ele>2707.1999511719</ele>
        <time>2020-02-08T13:45:16.000Z</time>
      </trkpt>
      <trkpt lat="45.3126" lon="6.16094">
        <ele>2707.6000976562</ele>
        <time>2020-02-08T13:45:21.000Z</time>
      </trkpt>
      <trkpt lat="45.31261" lon="6.16096">
        <ele>2708</ele>
        <time>2020-02-08T13:45:25.000Z</time>
      </trkpt>
      <trkpt lat="45.31262" lon="6.16097">
        <ele>2708</ele>
        <time>2020-02-08T13:45:27.000Z</time>
      </trkpt>
      <trkpt lat="45.31262" lon="6.16098">
        <ele>2708.1999511719</ele>
        <time>2020-02-08T13:45:30.000Z</time>
      </trkpt>
      <trkpt lat="45.31262" lon="6.16098">
        <ele>2708.8000488281</ele>
        <time>2020-02-08T13:45:34.000Z</time>
      </trkpt>
      <trkpt lat="45.31262" lon="6.16098">
        <ele>2709</ele>
        <time>2020-02-08T13:45:40.000Z</time>
      </trkpt>
      <trkpt lat="45.31262" lon="6.16098">
        <ele>2708.6000976562</ele>
        <time>2020-02-08T13:45:51.000Z</time>
      </trkpt>
      <trkpt lat="45.31262" lon="6.16098">
        <ele>2709.1999511719</ele>
        <time>2020-02-08T13:46:12.000Z</time>
      </trkpt>
      <trkpt lat="45.31262" lon="6.16098">
        <ele>2709</ele>
        <time>2020-02-08T13:46:27.000Z</time>
      </trkpt>
      <trkpt lat="45.31262" lon="6.16098">
        <ele>2709.1999511719</ele>
        <time>2020-02-08T13:46:41.000Z</time>
      </trkpt>
      <trkpt lat="45.31263" lon="6.16099">
        <ele>2709.1999511719</ele>
        <time>2020-02-08T13:46:58.000Z</time>
      </trkpt>
      <trkpt lat="45.31264" lon="6.16101">
        <ele>2709.3999023438</ele>
        <time>2020-02-08T13:47:02.000Z</time>
      </trkpt>
      <trkpt lat="45.31264" lon="6.16101">
        <ele>2709.1999511719</ele>
        <time>2020-02-08T13:47:21.000Z</time>
      </trkpt>
      <trkpt lat="45.31268" lon="6.16103">
        <ele>2709</ele>
        <time>2020-02-08T13:47:30.000Z</time>
      </trkpt>
      <trkpt lat="45.31272" lon="6.16105">
        <ele>2709.8000488281</ele>
        <time>2020-02-08T13:47:35.000Z</time>
      </trkpt>
      <trkpt lat="45.31272" lon="6.16105">
        <ele>2709.8000488281</ele>
        <time>2020-02-08T13:47:36.000Z</time>
      </trkpt>
      <trkpt lat="45.31274" lon="6.16105">
        <ele>2710.1999511719</ele>
        <time>2020-02-08T13:47:39.000Z</time>
      </trkpt>
      <trkpt lat="45.31276" lon="6.16105">
        <ele>2710.8000488281</ele>
        <time>2020-02-08T13:47:44.000Z</time>
      </trkpt>
      <trkpt lat="45.31277" lon="6.16105">
        <ele>2711.1999511719</ele>
        <time>2020-02-08T13:47:46.000Z</time>
      </trkpt>
      <trkpt lat="45.31277" lon="6.16105">
        <ele>2711.8000488281</ele>
        <time>2020-02-08T13:47:53.000Z</time>
      </trkpt>
      <trkpt lat="45.31277" lon="6.16105">
        <ele>2712.3999023438</ele>
        <time>2020-02-08T13:47:56.000Z</time>
      </trkpt>
      <trkpt lat="45.31277" lon="6.16105">
        <ele>2712.8000488281</ele>
        <time>2020-02-08T13:48:10.000Z</time>
      </trkpt>
      <trkpt lat="45.31278" lon="6.16105">
        <ele>2712.8000488281</ele>
        <time>2020-02-08T13:48:24.000Z</time>
      </trkpt>
      <trkpt lat="45.31279" lon="6.16105">
        <ele>2713</ele>
        <time>2020-02-08T13:48:26.000Z</time>
      </trkpt>
      <trkpt lat="45.31279" lon="6.16107">
        <ele>2713.6000976562</ele>
        <time>2020-02-08T13:48:30.000Z</time>
      </trkpt>
      <trkpt lat="45.31279" lon="6.16109">
        <ele>2714</ele>
        <time>2020-02-08T13:48:32.000Z</time>
      </trkpt>
      <trkpt lat="45.31279" lon="6.16114">
        <ele>2715.1999511719</ele>
        <time>2020-02-08T13:48:38.000Z</time>
      </trkpt>
      <trkpt lat="45.31278" lon="6.16118">
        <ele>2716.3999023438</ele>
        <time>2020-02-08T13:48:44.000Z</time>
      </trkpt>
      <trkpt lat="45.31277" lon="6.16121">
        <ele>2717.3999023438</ele>
        <time>2020-02-08T13:48:49.000Z</time>
      </trkpt>
      <trkpt lat="45.31277" lon="6.16122">
        <ele>2717.8000488281</ele>
        <time>2020-02-08T13:48:51.000Z</time>
      </trkpt>
      <trkpt lat="45.31275" lon="6.16124">
        <ele>2718.6000976562</ele>
        <time>2020-02-08T13:48:56.000Z</time>
      </trkpt>
      <trkpt lat="45.31275" lon="6.16125">
        <ele>2718.8000488281</ele>
        <time>2020-02-08T13:48:58.000Z</time>
      </trkpt>
      <trkpt lat="45.31275" lon="6.16125">
        <ele>2719.6000976562</ele>
        <time>2020-02-08T13:49:01.000Z</time>
      </trkpt>
      <trkpt lat="45.31275" lon="6.16125">
        <ele>2719.6000976562</ele>
        <time>2020-02-08T13:49:17.000Z</time>
      </trkpt>
      <trkpt lat="45.31273" lon="6.16129">
        <ele>2720.1999511719</ele>
        <time>2020-02-08T13:49:23.000Z</time>
      </trkpt>
      <trkpt lat="45.31273" lon="6.16131">
        <ele>2720.6000976562</ele>
        <time>2020-02-08T13:49:25.000Z</time>
      </trkpt>
      <trkpt lat="45.31272" lon="6.16132">
        <ele>2721.3999023438</ele>
        <time>2020-02-08T13:49:29.000Z</time>
      </trkpt>
      <trkpt lat="45.31271" lon="6.16133">
        <ele>2721.6000976562</ele>
        <time>2020-02-08T13:49:30.000Z</time>
      </trkpt>
      <trkpt lat="45.31269" lon="6.16137">
        <ele>2722.6000976562</ele>
        <time>2020-02-08T13:49:36.000Z</time>
      </trkpt>
      <trkpt lat="45.31268" lon="6.16139">
        <ele>2723.8000488281</ele>
        <time>2020-02-08T13:49:42.000Z</time>
      </trkpt>
      <trkpt lat="45.31268" lon="6.16139">
        <ele>2724.8000488281</ele>
        <time>2020-02-08T13:49:48.000Z</time>
      </trkpt>
      <trkpt lat="45.31268" lon="6.16139">
        <ele>2724.8000488281</ele>
        <time>2020-02-08T13:49:56.000Z</time>
      </trkpt>
      <trkpt lat="45.31268" lon="6.16139">
        <ele>2724.8000488281</ele>
        <time>2020-02-08T13:50:13.000Z</time>
      </trkpt>
      <trkpt lat="45.31268" lon="6.1614">
        <ele>2724.8000488281</ele>
        <time>2020-02-08T13:50:36.000Z</time>
      </trkpt>
      <trkpt lat="45.31272" lon="6.16141">
        <ele>2725</ele>
        <time>2020-02-08T13:50:45.000Z</time>
      </trkpt>
      <trkpt lat="45.31274" lon="6.16141">
        <ele>2725.6000976562</ele>
        <time>2020-02-08T13:50:49.000Z</time>
      </trkpt>
      <trkpt lat="45.31276" lon="6.16142">
        <ele>2725.8000488281</ele>
        <time>2020-02-08T13:50:51.000Z</time>
      </trkpt>
      <trkpt lat="45.31277" lon="6.16143">
        <ele>2726.8000488281</ele>
        <time>2020-02-08T13:50:55.000Z</time>
      </trkpt>
      <trkpt lat="45.31278" lon="6.16143">
        <ele>2727.8000488281</ele>
        <time>2020-02-08T13:51:05.000Z</time>
      </trkpt>
      <trkpt lat="45.31279" lon="6.16142">
        <ele>2727.8000488281</ele>
        <time>2020-02-08T13:51:06.000Z</time>
      </trkpt>
      <trkpt lat="45.3128" lon="6.16142">
        <ele>2728</ele>
        <time>2020-02-08T13:51:07.000Z</time>
      </trkpt>
      <trkpt lat="45.31281" lon="6.16142">
        <ele>2728.1999511719</ele>
        <time>2020-02-08T13:51:11.000Z</time>
      </trkpt>
      <trkpt lat="45.31282" lon="6.16142">
        <ele>2728.8000488281</ele>
        <time>2020-02-08T13:51:19.000Z</time>
      </trkpt>
      <trkpt lat="45.31282" lon="6.16142">
        <ele>2729</ele>
        <time>2020-02-08T13:51:21.000Z</time>
      </trkpt>
      <trkpt lat="45.31282" lon="6.16142">
        <ele>2728.8000488281</ele>
        <time>2020-02-08T13:51:32.000Z</time>
      </trkpt>
      <trkpt lat="45.31282" lon="6.16142">
        <ele>2728.6000976562</ele>
        <time>2020-02-08T13:51:51.000Z</time>
      </trkpt>
      <trkpt lat="45.31282" lon="6.16142">
        <ele>2729.1999511719</ele>
        <time>2020-02-08T13:52:03.000Z</time>
      </trkpt>
      <trkpt lat="45.31282" lon="6.16142">
        <ele>2729.3999023438</ele>
        <time>2020-02-08T13:52:11.000Z</time>
      </trkpt>
      <trkpt lat="45.31282" lon="6.16142">
        <ele>2729</ele>
        <time>2020-02-08T13:52:21.000Z</time>
      </trkpt>
      <trkpt lat="45.31282" lon="6.16142">
        <ele>2728.8000488281</ele>
        <time>2020-02-08T13:52:30.000Z</time>
      </trkpt>
      <trkpt lat="45.31282" lon="6.16142">
        <ele>2729.3999023438</ele>
        <time>2020-02-08T13:52:41.000Z</time>
      </trkpt>
      <trkpt lat="45.31282" lon="6.16142">
        <ele>2729.6000976562</ele>
        <time>2020-02-08T13:52:54.000Z</time>
      </trkpt>
      <trkpt lat="45.31282" lon="6.16142">
        <ele>2729.6000976562</ele>
        <time>2020-02-08T13:53:08.000Z</time>
      </trkpt>
      <trkpt lat="45.31282" lon="6.16142">
        <ele>2729</ele>
        <time>2020-02-08T13:53:24.000Z</time>
      </trkpt>
      <trkpt lat="45.31282" lon="6.16142">
        <ele>2728.1999511719</ele>
        <time>2020-02-08T13:53:36.000Z</time>
      </trkpt>
      <trkpt lat="45.31282" lon="6.16142">
        <ele>2729.3999023438</ele>
        <time>2020-02-08T13:53:45.000Z</time>
      </trkpt>
      <trkpt lat="45.31282" lon="6.16142">
        <ele>2727.8000488281</ele>
        <time>2020-02-08T13:53:48.000Z</time>
      </trkpt>
      <trkpt lat="45.31282" lon="6.16142">
        <ele>2726.8000488281</ele>
        <time>2020-02-08T13:53:51.000Z</time>
      </trkpt>
      <trkpt lat="45.31282" lon="6.16142">
        <ele>2727.8000488281</ele>
        <time>2020-02-08T13:53:54.000Z</time>
      </trkpt>
      <trkpt lat="45.31282" lon="6.16142">
        <ele>2729</ele>
        <time>2020-02-08T13:53:57.000Z</time>
      </trkpt>
      <trkpt lat="45.31282" lon="6.16142">
        <ele>2728.8000488281</ele>
        <time>2020-02-08T13:54:10.000Z</time>
      </trkpt>
      <trkpt lat="45.31282" lon="6.16142">
        <ele>2729</ele>
        <time>2020-02-08T13:54:25.000Z</time>
      </trkpt>
      <trkpt lat="45.31282" lon="6.16142">
        <ele>2729.1999511719</ele>
        <time>2020-02-08T13:54:37.000Z</time>
      </trkpt>
      <trkpt lat="45.31282" lon="6.16142">
        <ele>2729.1999511719</ele>
        <time>2020-02-08T13:54:47.000Z</time>
      </trkpt>
      <trkpt lat="45.31282" lon="6.16142">
        <ele>2729.3999023438</ele>
        <time>2020-02-08T13:55:03.000Z</time>
      </trkpt>
      <trkpt lat="45.31282" lon="6.16141">
        <ele>2729.6000976562</ele>
        <time>2020-02-08T13:55:14.000Z</time>
      </trkpt>
      <trkpt lat="45.31282" lon="6.16141">
        <ele>2729.1999511719</ele>
        <time>2020-02-08T13:55:27.000Z</time>
      </trkpt>
      <trkpt lat="45.31282" lon="6.16141">
        <ele>2729.1999511719</ele>
        <time>2020-02-08T13:55:40.000Z</time>
      </trkpt>
      <trkpt lat="45.31282" lon="6.16141">
        <ele>2729.1999511719</ele>
        <time>2020-02-08T13:55:50.000Z</time>
      </trkpt>
      <trkpt lat="45.31282" lon="6.16141">
        <ele>2729.3999023438</ele>
        <time>2020-02-08T13:56:03.000Z</time>
      </trkpt>
      <trkpt lat="45.31282" lon="6.16141">
        <ele>2729.6000976562</ele>
        <time>2020-02-08T13:56:19.000Z</time>
      </trkpt>
      <trkpt lat="45.31282" lon="6.16141">
        <ele>2729.6000976562</ele>
        <time>2020-02-08T13:56:31.000Z</time>
      </trkpt>
      <trkpt lat="45.31282" lon="6.16141">
        <ele>2729.8000488281</ele>
        <time>2020-02-08T13:56:48.000Z</time>
      </trkpt>
      <trkpt lat="45.31282" lon="6.16141">
        <ele>2730.1999511719</ele>
        <time>2020-02-08T13:56:56.000Z</time>
      </trkpt>
      <trkpt lat="45.31282" lon="6.16141">
        <ele>2730.1999511719</ele>
        <time>2020-02-08T13:57:02.000Z</time>
      </trkpt>
      <trkpt lat="45.31282" lon="6.16141">
        <ele>2730.1999511719</ele>
        <time>2020-02-08T13:57:15.000Z</time>
      </trkpt>
      <trkpt lat="45.31282" lon="6.16141">
        <ele>2729.8000488281</ele>
        <time>2020-02-08T13:57:32.000Z</time>
      </trkpt>
      <trkpt lat="45.31282" lon="6.16141">
        <ele>2729.6000976562</ele>
        <time>2020-02-08T13:57:39.000Z</time>
      </trkpt>
      <trkpt lat="45.31282" lon="6.16141">
        <ele>2729.8000488281</ele>
        <time>2020-02-08T13:57:47.000Z</time>
      </trkpt>
      <trkpt lat="45.31282" lon="6.16141">
        <ele>2729.6000976562</ele>
        <time>2020-02-08T13:58:05.000Z</time>
      </trkpt>
      <trkpt lat="45.31282" lon="6.16141">
        <ele>2729.8000488281</ele>
        <time>2020-02-08T13:58:22.000Z</time>
      </trkpt>
      <trkpt lat="45.31282" lon="6.1614">
        <ele>2730.6000976562</ele>
        <time>2020-02-08T13:58:31.000Z</time>
      </trkpt>
      <trkpt lat="45.31282" lon="6.1614">
        <ele>2730.3999023438</ele>
        <time>2020-02-08T13:58:41.000Z</time>
      </trkpt>
      <trkpt lat="45.31282" lon="6.1614">
        <ele>2729.3999023438</ele>
        <time>2020-02-08T13:58:53.000Z</time>
      </trkpt>
      <trkpt lat="45.31282" lon="6.1614">
        <ele>2729</ele>
        <time>2020-02-08T13:58:54.000Z</time>
      </trkpt>
      <trkpt lat="45.31282" lon="6.1614">
        <ele>2730.3999023438</ele>
        <time>2020-02-08T13:58:59.000Z</time>
      </trkpt>
      <trkpt lat="45.31282" lon="6.1614">
        <ele>2729.1999511719</ele>
        <time>2020-02-08T13:59:04.000Z</time>
      </trkpt>
      <trkpt lat="45.31282" lon="6.1614">
        <ele>2729.1999511719</ele>
        <time>2020-02-08T13:59:05.000Z</time>
      </trkpt>
      <trkpt lat="45.31282" lon="6.16141">
        <ele>2730.3999023438</ele>
        <time>2020-02-08T13:59:10.000Z</time>
      </trkpt>
      <trkpt lat="45.31282" lon="6.16141">
        <ele>2730</ele>
        <time>2020-02-08T13:59:19.000Z</time>
      </trkpt>
      <trkpt lat="45.31282" lon="6.16141">
        <ele>2730.6000976562</ele>
        <time>2020-02-08T13:59:28.000Z</time>
      </trkpt>
      <trkpt lat="45.31282" lon="6.16141">
        <ele>2729.6000976562</ele>
        <time>2020-02-08T13:59:44.000Z</time>
      </trkpt>
      <trkpt lat="45.31282" lon="6.1614">
        <ele>2729.6000976562</ele>
        <time>2020-02-08T14:00:00.000Z</time>
      </trkpt>
      <trkpt lat="45.31282" lon="6.16141">
        <ele>2729.3999023438</ele>
        <time>2020-02-08T14:00:07.000Z</time>
      </trkpt>
      <trkpt lat="45.31282" lon="6.16141">
        <ele>2729.3999023438</ele>
        <time>2020-02-08T14:00:17.000Z</time>
      </trkpt>
      <trkpt lat="45.31282" lon="6.16141">
        <ele>2729.8000488281</ele>
        <time>2020-02-08T14:00:27.000Z</time>
      </trkpt>
      <trkpt lat="45.31282" lon="6.16141">
        <ele>2730.3999023438</ele>
        <time>2020-02-08T14:00:33.000Z</time>
      </trkpt>
      <trkpt lat="45.31282" lon="6.16141">
        <ele>2730.1999511719</ele>
        <time>2020-02-08T14:00:38.000Z</time>
      </trkpt>
      <trkpt lat="45.31282" lon="6.16141">
        <ele>2729.8000488281</ele>
        <time>2020-02-08T14:00:52.000Z</time>
      </trkpt>
      <trkpt lat="45.31282" lon="6.16141">
        <ele>2729.6000976562</ele>
        <time>2020-02-08T14:00:59.000Z</time>
      </trkpt>
      <trkpt lat="45.31282" lon="6.16141">
        <ele>2729.1999511719</ele>
        <time>2020-02-08T14:01:00.000Z</time>
      </trkpt>
      <trkpt lat="45.31282" lon="6.16141">
        <ele>2730.3999023438</ele>
        <time>2020-02-08T14:01:07.000Z</time>
      </trkpt>
      <trkpt lat="45.31282" lon="6.16141">
        <ele>2730.6000976562</ele>
        <time>2020-02-08T14:01:09.000Z</time>
      </trkpt>
      <trkpt lat="45.31282" lon="6.16141">
        <ele>2729.8000488281</ele>
        <time>2020-02-08T14:01:19.000Z</time>
      </trkpt>
      <trkpt lat="45.31282" lon="6.16141">
        <ele>2729.1999511719</ele>
        <time>2020-02-08T14:01:20.000Z</time>
      </trkpt>
      <trkpt lat="45.31282" lon="6.16141">
        <ele>2728.1999511719</ele>
        <time>2020-02-08T14:01:22.000Z</time>
      </trkpt>
      <trkpt lat="45.31282" lon="6.16141">
        <ele>2729.3999023438</ele>
        <time>2020-02-08T14:01:26.000Z</time>
      </trkpt>
      <trkpt lat="45.31282" lon="6.16141">
        <ele>2730.8000488281</ele>
        <time>2020-02-08T14:01:28.000Z</time>
      </trkpt>
      <trkpt lat="45.31282" lon="6.16141">
        <ele>2731</ele>
        <time>2020-02-08T14:01:29.000Z</time>
      </trkpt>
      <trkpt lat="45.31282" lon="6.16141">
        <ele>2729.8000488281</ele>
        <time>2020-02-08T14:01:33.000Z</time>
      </trkpt>
      <trkpt lat="45.31282" lon="6.16141">
        <ele>2730</ele>
        <time>2020-02-08T14:01:39.000Z</time>
      </trkpt>
      <trkpt lat="45.31282" lon="6.16142">
        <ele>2729.8000488281</ele>
        <time>2020-02-08T14:01:51.000Z</time>
      </trkpt>
      <trkpt lat="45.31282" lon="6.16142">
        <ele>2730.3999023438</ele>
        <time>2020-02-08T14:02:00.000Z</time>
      </trkpt>
      <trkpt lat="45.31282" lon="6.16142">
        <ele>2730</ele>
        <time>2020-02-08T14:02:09.000Z</time>
      </trkpt>
      <trkpt lat="45.31282" lon="6.16142">
        <ele>2730</ele>
        <time>2020-02-08T14:02:25.000Z</time>
      </trkpt>
      <trkpt lat="45.31282" lon="6.16142">
        <ele>2730.1999511719</ele>
        <time>2020-02-08T14:02:38.000Z</time>
      </trkpt>
      <trkpt lat="45.31282" lon="6.16142">
        <ele>2730.8000488281</ele>
        <time>2020-02-08T14:02:41.000Z</time>
      </trkpt>
      <trkpt lat="45.31282" lon="6.16142">
        <ele>2730.3999023438</ele>
        <time>2020-02-08T14:02:51.000Z</time>
      </trkpt>
      <trkpt lat="45.31282" lon="6.16142">
        <ele>2730.1999511719</ele>
        <time>2020-02-08T14:03:04.000Z</time>
      </trkpt>
      <trkpt lat="45.31282" lon="6.16142">
        <ele>2730.1999511719</ele>
        <time>2020-02-08T14:03:19.000Z</time>
      </trkpt>
      <trkpt lat="45.31282" lon="6.16142">
        <ele>2730.3999023438</ele>
        <time>2020-02-08T14:03:39.000Z</time>
      </trkpt>
      <trkpt lat="45.31282" lon="6.16142">
        <ele>2730.3999023438</ele>
        <time>2020-02-08T14:03:58.000Z</time>
      </trkpt>
      <trkpt lat="45.31282" lon="6.16142">
        <ele>2730.6000976562</ele>
        <time>2020-02-08T14:04:16.000Z</time>
      </trkpt>
      <trkpt lat="45.31282" lon="6.1614">
        <ele>2730.6000976562</ele>
        <time>2020-02-08T14:04:21.000Z</time>
      </trkpt>
      <trkpt lat="45.31284" lon="6.16137">
        <ele>2730.6000976562</ele>
        <time>2020-02-08T14:04:23.000Z</time>
      </trkpt>
      <trkpt lat="45.31289" lon="6.16125">
        <ele>2729.3999023438</ele>
        <time>2020-02-08T14:04:27.000Z</time>
      </trkpt>
      <trkpt lat="45.31291" lon="6.16122">
        <ele>2729</ele>
        <time>2020-02-08T14:04:28.000Z</time>
      </trkpt>
      <trkpt lat="45.31292" lon="6.16121">
        <ele>2728</ele>
        <time>2020-02-08T14:04:30.000Z</time>
      </trkpt>
      <trkpt lat="45.31292" lon="6.16121">
        <ele>2726.1999511719</ele>
        <time>2020-02-08T14:04:31.000Z</time>
      </trkpt>
      <trkpt lat="45.31292" lon="6.1612">
        <ele>2725.6000976562</ele>
        <time>2020-02-08T14:04:32.000Z</time>
      </trkpt>
      <trkpt lat="45.3129" lon="6.16116">
        <ele>2725</ele>
        <time>2020-02-08T14:04:33.000Z</time>
      </trkpt>
      <trkpt lat="45.31288" lon="6.16113">
        <ele>2724.6000976562</ele>
        <time>2020-02-08T14:04:34.000Z</time>
      </trkpt>
      <trkpt lat="45.31276" lon="6.16112">
        <ele>2723.6000976562</ele>
        <time>2020-02-08T14:04:37.000Z</time>
      </trkpt>
      <trkpt lat="45.31271" lon="6.16111">
        <ele>2721.8000488281</ele>
        <time>2020-02-08T14:04:39.000Z</time>
      </trkpt>
      <trkpt lat="45.31269" lon="6.16108">
        <ele>2720.6000976562</ele>
        <time>2020-02-08T14:04:40.000Z</time>
      </trkpt>
      <trkpt lat="45.31269" lon="6.16103">
        <ele>2719.1999511719</ele>
        <time>2020-02-08T14:04:41.000Z</time>
      </trkpt>
      <trkpt lat="45.3127" lon="6.16096">
        <ele>2717.8000488281</ele>
        <time>2020-02-08T14:04:42.000Z</time>
      </trkpt>
      <trkpt lat="45.3127" lon="6.16089">
        <ele>2716.1999511719</ele>
        <time>2020-02-08T14:04:43.000Z</time>
      </trkpt>
      <trkpt lat="45.31268" lon="6.16084">
        <ele>2714.8000488281</ele>
        <time>2020-02-08T14:04:44.000Z</time>
      </trkpt>
      <trkpt lat="45.31266" lon="6.16078">
        <ele>2713.6000976562</ele>
        <time>2020-02-08T14:04:45.000Z</time>
      </trkpt>
      <trkpt lat="45.31265" lon="6.16072">
        <ele>2712.3999023438</ele>
        <time>2020-02-08T14:04:46.000Z</time>
      </trkpt>
      <trkpt lat="45.31265" lon="6.16066">
        <ele>2711.3999023438</ele>
        <time>2020-02-08T14:04:47.000Z</time>
      </trkpt>
      <trkpt lat="45.31263" lon="6.1606">
        <ele>2710</ele>
        <time>2020-02-08T14:04:48.000Z</time>
      </trkpt>
      <trkpt lat="45.31261" lon="6.16054">
        <ele>2708.6000976562</ele>
        <time>2020-02-08T14:04:49.000Z</time>
      </trkpt>
      <trkpt lat="45.31258" lon="6.16047">
        <ele>2707.3999023438</ele>
        <time>2020-02-08T14:04:50.000Z</time>
      </trkpt>
      <trkpt lat="45.31252" lon="6.16033">
        <ele>2705.8000488281</ele>
        <time>2020-02-08T14:04:52.000Z</time>
      </trkpt>
      <trkpt lat="45.31251" lon="6.16025">
        <ele>2705</ele>
        <time>2020-02-08T14:04:53.000Z</time>
      </trkpt>
      <trkpt lat="45.31252" lon="6.16018">
        <ele>2704.1999511719</ele>
        <time>2020-02-08T14:04:54.000Z</time>
      </trkpt>
      <trkpt lat="45.31254" lon="6.16011">
        <ele>2702.8000488281</ele>
        <time>2020-02-08T14:04:55.000Z</time>
      </trkpt>
      <trkpt lat="45.31256" lon="6.15998">
        <ele>2701.6000976562</ele>
        <time>2020-02-08T14:04:57.000Z</time>
      </trkpt>
      <trkpt lat="45.31256" lon="6.15991">
        <ele>2701.1999511719</ele>
        <time>2020-02-08T14:04:58.000Z</time>
      </trkpt>
      <trkpt lat="45.31253" lon="6.15982">
        <ele>2700.1999511719</ele>
        <time>2020-02-08T14:05:00.000Z</time>
      </trkpt>
      <trkpt lat="45.31252" lon="6.15978">
        <ele>2699.6000976562</ele>
        <time>2020-02-08T14:05:01.000Z</time>
      </trkpt>
      <trkpt lat="45.31251" lon="6.15976">
        <ele>2699</ele>
        <time>2020-02-08T14:05:02.000Z</time>
      </trkpt>
      <trkpt lat="45.31249" lon="6.15969">
        <ele>2698</ele>
        <time>2020-02-08T14:05:04.000Z</time>
      </trkpt>
      <trkpt lat="45.31249" lon="6.15963">
        <ele>2697.1999511719</ele>
        <time>2020-02-08T14:05:07.000Z</time>
      </trkpt>
      <trkpt lat="45.31249" lon="6.15962">
        <ele>2696.8000488281</ele>
        <time>2020-02-08T14:05:08.000Z</time>
      </trkpt>
      <trkpt lat="45.3125" lon="6.1596">
        <ele>2695.8000488281</ele>
        <time>2020-02-08T14:05:12.000Z</time>
      </trkpt>
      <trkpt lat="45.3125" lon="6.15959">
        <ele>2695.8000488281</ele>
        <time>2020-02-08T14:05:13.000Z</time>
      </trkpt>
      <trkpt lat="45.31251" lon="6.15954">
        <ele>2696.1999511719</ele>
        <time>2020-02-08T14:05:19.000Z</time>
      </trkpt>
      <trkpt lat="45.31251" lon="6.1595">
        <ele>2697</ele>
        <time>2020-02-08T14:05:24.000Z</time>
      </trkpt>
      <trkpt lat="45.31251" lon="6.1595">
        <ele>2697</ele>
        <time>2020-02-08T14:05:25.000Z</time>
      </trkpt>
      <trkpt lat="45.3125" lon="6.15947">
        <ele>2697.1999511719</ele>
        <time>2020-02-08T14:05:36.000Z</time>
      </trkpt>
      <trkpt lat="45.3125" lon="6.15947">
        <ele>2698</ele>
        <time>2020-02-08T14:05:43.000Z</time>
      </trkpt>
      <trkpt lat="45.3125" lon="6.15946">
        <ele>2698.1999511719</ele>
        <time>2020-02-08T14:05:48.000Z</time>
      </trkpt>
      <trkpt lat="45.3125" lon="6.15945">
        <ele>2698.1999511719</ele>
        <time>2020-02-08T14:05:57.000Z</time>
      </trkpt>
      <trkpt lat="45.31248" lon="6.15936">
        <ele>2698.3999023438</ele>
        <time>2020-02-08T14:06:01.000Z</time>
      </trkpt>
      <trkpt lat="45.31248" lon="6.15934">
        <ele>2698.1999511719</ele>
        <time>2020-02-08T14:06:04.000Z</time>
      </trkpt>
      <trkpt lat="45.31248" lon="6.15927">
        <ele>2697.1999511719</ele>
        <time>2020-02-08T14:06:08.000Z</time>
      </trkpt>
      <trkpt lat="45.31247" lon="6.15926">
        <ele>2696.6000976562</ele>
        <time>2020-02-08T14:06:10.000Z</time>
      </trkpt>
      <trkpt lat="45.31247" lon="6.15926">
        <ele>2696</ele>
        <time>2020-02-08T14:06:11.000Z</time>
      </trkpt>
      <trkpt lat="45.31246" lon="6.15923">
        <ele>2695.6000976562</ele>
        <time>2020-02-08T14:06:12.000Z</time>
      </trkpt>
      <trkpt lat="45.31246" lon="6.1591">
        <ele>2694.8000488281</ele>
        <time>2020-02-08T14:06:14.000Z</time>
      </trkpt>
      <trkpt lat="45.31248" lon="6.15904">
        <ele>2694.3999023438</ele>
        <time>2020-02-08T14:06:15.000Z</time>
      </trkpt>
      <trkpt lat="45.31249" lon="6.15896">
        <ele>2692.8000488281</ele>
        <time>2020-02-08T14:06:17.000Z</time>
      </trkpt>
      <trkpt lat="45.31249" lon="6.15893">
        <ele>2691.3999023438</ele>
        <time>2020-02-08T14:06:18.000Z</time>
      </trkpt>
      <trkpt lat="45.31247" lon="6.1589">
        <ele>2690.1999511719</ele>
        <time>2020-02-08T14:06:19.000Z</time>
      </trkpt>
      <trkpt lat="45.31244" lon="6.1589">
        <ele>2689.1999511719</ele>
        <time>2020-02-08T14:06:20.000Z</time>
      </trkpt>
      <trkpt lat="45.31242" lon="6.15889">
        <ele>2688</ele>
        <time>2020-02-08T14:06:21.000Z</time>
      </trkpt>
      <trkpt lat="45.31241" lon="6.15886">
        <ele>2686.8000488281</ele>
        <time>2020-02-08T14:06:22.000Z</time>
      </trkpt>
      <trkpt lat="45.31241" lon="6.15881">
        <ele>2685.6000976562</ele>
        <time>2020-02-08T14:06:23.000Z</time>
      </trkpt>
      <trkpt lat="45.31241" lon="6.15876">
        <ele>2684.3999023438</ele>
        <time>2020-02-08T14:06:24.000Z</time>
      </trkpt>
      <trkpt lat="45.31242" lon="6.15872">
        <ele>2683.1999511719</ele>
        <time>2020-02-08T14:06:25.000Z</time>
      </trkpt>
      <trkpt lat="45.31244" lon="6.15868">
        <ele>2681.6000976562</ele>
        <time>2020-02-08T14:06:27.000Z</time>
      </trkpt>
      <trkpt lat="45.31245" lon="6.15868">
        <ele>2679.8000488281</ele>
        <time>2020-02-08T14:06:29.000Z</time>
      </trkpt>
      <trkpt lat="45.31245" lon="6.15867">
        <ele>2678.8000488281</ele>
        <time>2020-02-08T14:06:30.000Z</time>
      </trkpt>
      <trkpt lat="45.31244" lon="6.15864">
        <ele>2677.1999511719</ele>
        <time>2020-02-08T14:06:31.000Z</time>
      </trkpt>
      <trkpt lat="45.31239" lon="6.15867">
        <ele>2676.3999023438</ele>
        <time>2020-02-08T14:06:33.000Z</time>
      </trkpt>
      <trkpt lat="45.31238" lon="6.15868">
        <ele>2676.1999511719</ele>
        <time>2020-02-08T14:06:34.000Z</time>
      </trkpt>
      <trkpt lat="45.31238" lon="6.15868">
        <ele>2675.1999511719</ele>
        <time>2020-02-08T14:06:36.000Z</time>
      </trkpt>
      <trkpt lat="45.31238" lon="6.15868">
        <ele>2674</ele>
        <time>2020-02-08T14:06:37.000Z</time>
      </trkpt>
      <trkpt lat="45.31238" lon="6.15868">
        <ele>2672.8000488281</ele>
        <time>2020-02-08T14:06:38.000Z</time>
      </trkpt>
      <trkpt lat="45.31238" lon="6.15868">
        <ele>2671</ele>
        <time>2020-02-08T14:06:40.000Z</time>
      </trkpt>
      <trkpt lat="45.31238" lon="6.15868">
        <ele>2670.3999023438</ele>
        <time>2020-02-08T14:06:41.000Z</time>
      </trkpt>
      <trkpt lat="45.31238" lon="6.15868">
        <ele>2670</ele>
        <time>2020-02-08T14:06:43.000Z</time>
      </trkpt>
      <trkpt lat="45.31237" lon="6.15867">
        <ele>2669.8000488281</ele>
        <time>2020-02-08T14:06:45.000Z</time>
      </trkpt>
      <trkpt lat="45.31236" lon="6.15863">
        <ele>2669.6000976562</ele>
        <time>2020-02-08T14:06:46.000Z</time>
      </trkpt>
      <trkpt lat="45.31231" lon="6.15855">
        <ele>2668.6000976562</ele>
        <time>2020-02-08T14:06:49.000Z</time>
      </trkpt>
      <trkpt lat="45.31224" lon="6.1586">
        <ele>2667.6000976562</ele>
        <time>2020-02-08T14:06:51.000Z</time>
      </trkpt>
      <trkpt lat="45.31221" lon="6.15856">
        <ele>2666.1999511719</ele>
        <time>2020-02-08T14:06:53.000Z</time>
      </trkpt>
      <trkpt lat="45.31218" lon="6.15852">
        <ele>2664.3999023438</ele>
        <time>2020-02-08T14:06:54.000Z</time>
      </trkpt>
      <trkpt lat="45.31216" lon="6.15853">
        <ele>2662</ele>
        <time>2020-02-08T14:06:55.000Z</time>
      </trkpt>
      <trkpt lat="45.31215" lon="6.15854">
        <ele>2657.8000488281</ele>
        <time>2020-02-08T14:06:56.000Z</time>
      </trkpt>
      <trkpt lat="45.31215" lon="6.15854">
        <ele>2656.6000976562</ele>
        <time>2020-02-08T14:06:57.000Z</time>
      </trkpt>
      <trkpt lat="45.31215" lon="6.15854">
        <ele>2654.3999023438</ele>
        <time>2020-02-08T14:06:59.000Z</time>
      </trkpt>
      <trkpt lat="45.31215" lon="6.15854">
        <ele>2653.1999511719</ele>
        <time>2020-02-08T14:07:00.000Z</time>
      </trkpt>
      <trkpt lat="45.31215" lon="6.15854">
        <ele>2652</ele>
        <time>2020-02-08T14:07:01.000Z</time>
      </trkpt>
      <trkpt lat="45.31215" lon="6.15854">
        <ele>2650.8000488281</ele>
        <time>2020-02-08T14:07:03.000Z</time>
      </trkpt>
      <trkpt lat="45.31214" lon="6.15854">
        <ele>2650.1999511719</ele>
        <time>2020-02-08T14:07:07.000Z</time>
      </trkpt>
      <trkpt lat="45.31212" lon="6.15851">
        <ele>2650</ele>
        <time>2020-02-08T14:07:08.000Z</time>
      </trkpt>
      <trkpt lat="45.31207" lon="6.1584">
        <ele>2649.6000976562</ele>
        <time>2020-02-08T14:07:10.000Z</time>
      </trkpt>
      <trkpt lat="45.31202" lon="6.1584">
        <ele>2649.3999023438</ele>
        <time>2020-02-08T14:07:12.000Z</time>
      </trkpt>
      <trkpt lat="45.31198" lon="6.15848">
        <ele>2648.1999511719</ele>
        <time>2020-02-08T14:07:14.000Z</time>
      </trkpt>
      <trkpt lat="45.31195" lon="6.15847">
        <ele>2647</ele>
        <time>2020-02-08T14:07:15.000Z</time>
      </trkpt>
      <trkpt lat="45.31192" lon="6.15843">
        <ele>2645.3999023438</ele>
        <time>2020-02-08T14:07:16.000Z</time>
      </trkpt>
      <trkpt lat="45.31191" lon="6.15839">
        <ele>2643.6000976562</ele>
        <time>2020-02-08T14:07:17.000Z</time>
      </trkpt>
      <trkpt lat="45.31188" lon="6.15836">
        <ele>2641.6000976562</ele>
        <time>2020-02-08T14:07:18.000Z</time>
      </trkpt>
      <trkpt lat="45.31184" lon="6.15835">
        <ele>2639.6000976562</ele>
        <time>2020-02-08T14:07:19.000Z</time>
      </trkpt>
      <trkpt lat="45.31181" lon="6.15839">
        <ele>2636</ele>
        <time>2020-02-08T14:07:20.000Z</time>
      </trkpt>
      <trkpt lat="45.31179" lon="6.15848">
        <ele>2634.8000488281</ele>
        <time>2020-02-08T14:07:21.000Z</time>
      </trkpt>
      <trkpt lat="45.31178" lon="6.15857">
        <ele>2633.6000976562</ele>
        <time>2020-02-08T14:07:22.000Z</time>
      </trkpt>
      <trkpt lat="45.31178" lon="6.15865">
        <ele>2632.1999511719</ele>
        <time>2020-02-08T14:07:23.000Z</time>
      </trkpt>
      <trkpt lat="45.31178" lon="6.15868">
        <ele>2630</ele>
        <time>2020-02-08T14:07:24.000Z</time>
      </trkpt>
      <trkpt lat="45.31177" lon="6.15871">
        <ele>2627.6000976562</ele>
        <time>2020-02-08T14:07:25.000Z</time>
      </trkpt>
      <trkpt lat="45.31176" lon="6.15872">
        <ele>2625.6000976562</ele>
        <time>2020-02-08T14:07:26.000Z</time>
      </trkpt>
      <trkpt lat="45.31175" lon="6.1587">
        <ele>2623.8000488281</ele>
        <time>2020-02-08T14:07:27.000Z</time>
      </trkpt>
      <trkpt lat="45.31173" lon="6.15867">
        <ele>2622.3999023438</ele>
        <time>2020-02-08T14:07:28.000Z</time>
      </trkpt>
      <trkpt lat="45.31171" lon="6.15865">
        <ele>2621.3999023438</ele>
        <time>2020-02-08T14:07:29.000Z</time>
      </trkpt>
      <trkpt lat="45.31167" lon="6.1586">
        <ele>2620</ele>
        <time>2020-02-08T14:07:31.000Z</time>
      </trkpt>
      <trkpt lat="45.31162" lon="6.15851">
        <ele>2618.8000488281</ele>
        <time>2020-02-08T14:07:33.000Z</time>
      </trkpt>
      <trkpt lat="45.31156" lon="6.15841">
        <ele>2617.6000976562</ele>
        <time>2020-02-08T14:07:35.000Z</time>
      </trkpt>
      <trkpt lat="45.31153" lon="6.15846">
        <ele>2616.1999511719</ele>
        <time>2020-02-08T14:07:37.000Z</time>
      </trkpt>
      <trkpt lat="45.31148" lon="6.15849">
        <ele>2614.6000976562</ele>
        <time>2020-02-08T14:07:39.000Z</time>
      </trkpt>
      <trkpt lat="45.31145" lon="6.1585">
        <ele>2613.8000488281</ele>
        <time>2020-02-08T14:07:40.000Z</time>
      </trkpt>
      <trkpt lat="45.31143" lon="6.15854">
        <ele>2612.3999023438</ele>
        <time>2020-02-08T14:07:41.000Z</time>
      </trkpt>
      <trkpt lat="45.31142" lon="6.15859">
        <ele>2610.8000488281</ele>
        <time>2020-02-08T14:07:42.000Z</time>
      </trkpt>
      <trkpt lat="45.31141" lon="6.15863">
        <ele>2609.3999023438</ele>
        <time>2020-02-08T14:07:43.000Z</time>
      </trkpt>
      <trkpt lat="45.31138" lon="6.15866">
        <ele>2606.8000488281</ele>
        <time>2020-02-08T14:07:44.000Z</time>
      </trkpt>
      <trkpt lat="45.31136" lon="6.15865">
        <ele>2604.8000488281</ele>
        <time>2020-02-08T14:07:45.000Z</time>
      </trkpt>
      <trkpt lat="45.31134" lon="6.15867">
        <ele>2602.6000976562</ele>
        <time>2020-02-08T14:07:46.000Z</time>
      </trkpt>
      <trkpt lat="45.31133" lon="6.15869">
        <ele>2600.6000976562</ele>
        <time>2020-02-08T14:07:47.000Z</time>
      </trkpt>
      <trkpt lat="45.31133" lon="6.15874">
        <ele>2598.8000488281</ele>
        <time>2020-02-08T14:07:48.000Z</time>
      </trkpt>
      <trkpt lat="45.31131" lon="6.15878">
        <ele>2597.3999023438</ele>
        <time>2020-02-08T14:07:49.000Z</time>
      </trkpt>
      <trkpt lat="45.31129" lon="6.15881">
        <ele>2596</ele>
        <time>2020-02-08T14:07:50.000Z</time>
      </trkpt>
      <trkpt lat="45.31126" lon="6.15883">
        <ele>2594.1999511719</ele>
        <time>2020-02-08T14:07:51.000Z</time>
      </trkpt>
      <trkpt lat="45.31124" lon="6.15886">
        <ele>2591.8000488281</ele>
        <time>2020-02-08T14:07:52.000Z</time>
      </trkpt>
      <trkpt lat="45.31123" lon="6.1589">
        <ele>2589.1999511719</ele>
        <time>2020-02-08T14:07:53.000Z</time>
      </trkpt>
      <trkpt lat="45.31121" lon="6.15894">
        <ele>2587.3999023438</ele>
        <time>2020-02-08T14:07:54.000Z</time>
      </trkpt>
      <trkpt lat="45.31118" lon="6.159">
        <ele>2585.8000488281</ele>
        <time>2020-02-08T14:07:55.000Z</time>
      </trkpt>
      <trkpt lat="45.31116" lon="6.15903">
        <ele>2584.1999511719</ele>
        <time>2020-02-08T14:07:56.000Z</time>
      </trkpt>
      <trkpt lat="45.31112" lon="6.15908">
        <ele>2581.8000488281</ele>
        <time>2020-02-08T14:07:57.000Z</time>
      </trkpt>
      <trkpt lat="45.3111" lon="6.15914">
        <ele>2579.1999511719</ele>
        <time>2020-02-08T14:07:58.000Z</time>
      </trkpt>
      <trkpt lat="45.31107" lon="6.1592">
        <ele>2576.8000488281</ele>
        <time>2020-02-08T14:07:59.000Z</time>
      </trkpt>
      <trkpt lat="45.31104" lon="6.15925">
        <ele>2574.8000488281</ele>
        <time>2020-02-08T14:08:00.000Z</time>
      </trkpt>
      <trkpt lat="45.311" lon="6.15927">
        <ele>2573</ele>
        <time>2020-02-08T14:08:01.000Z</time>
      </trkpt>
      <trkpt lat="45.31097" lon="6.15928">
        <ele>2570.8000488281</ele>
        <time>2020-02-08T14:08:02.000Z</time>
      </trkpt>
      <trkpt lat="45.31095" lon="6.15933">
        <ele>2568.3999023438</ele>
        <time>2020-02-08T14:08:03.000Z</time>
      </trkpt>
      <trkpt lat="45.31092" lon="6.15938">
        <ele>2566</ele>
        <time>2020-02-08T14:08:04.000Z</time>
      </trkpt>
      <trkpt lat="45.3109" lon="6.1594">
        <ele>2563.6000976562</ele>
        <time>2020-02-08T14:08:05.000Z</time>
      </trkpt>
      <trkpt lat="45.31088" lon="6.15943">
        <ele>2561.3999023438</ele>
        <time>2020-02-08T14:08:06.000Z</time>
      </trkpt>
      <trkpt lat="45.31085" lon="6.15948">
        <ele>2558.8000488281</ele>
        <time>2020-02-08T14:08:07.000Z</time>
      </trkpt>
      <trkpt lat="45.31081" lon="6.15949">
        <ele>2553.8000488281</ele>
        <time>2020-02-08T14:08:08.000Z</time>
      </trkpt>
      <trkpt lat="45.31076" lon="6.15948">
        <ele>2551.8000488281</ele>
        <time>2020-02-08T14:08:09.000Z</time>
      </trkpt>
      <trkpt lat="45.31074" lon="6.15946">
        <ele>2549.8000488281</ele>
        <time>2020-02-08T14:08:10.000Z</time>
      </trkpt>
      <trkpt lat="45.31074" lon="6.15946">
        <ele>2547.8000488281</ele>
        <time>2020-02-08T14:08:11.000Z</time>
      </trkpt>
      <trkpt lat="45.31074" lon="6.15946">
        <ele>2546</ele>
        <time>2020-02-08T14:08:12.000Z</time>
      </trkpt>
      <trkpt lat="45.31074" lon="6.15946">
        <ele>2545</ele>
        <time>2020-02-08T14:08:13.000Z</time>
      </trkpt>
      <trkpt lat="45.31074" lon="6.15946">
        <ele>2543.6000976562</ele>
        <time>2020-02-08T14:08:15.000Z</time>
      </trkpt>
      <trkpt lat="45.31074" lon="6.15946">
        <ele>2543.1999511719</ele>
        <time>2020-02-08T14:08:21.000Z</time>
      </trkpt>
      <trkpt lat="45.31064" lon="6.1595">
        <ele>2543.1999511719</ele>
        <time>2020-02-08T14:08:24.000Z</time>
      </trkpt>
      <trkpt lat="45.31057" lon="6.15955">
        <ele>2542.8000488281</ele>
        <time>2020-02-08T14:08:26.000Z</time>
      </trkpt>
      <trkpt lat="45.31052" lon="6.15953">
        <ele>2542.6000976562</ele>
        <time>2020-02-08T14:08:27.000Z</time>
      </trkpt>
      <trkpt lat="45.3104" lon="6.15951">
        <ele>2541.3999023438</ele>
        <time>2020-02-08T14:08:29.000Z</time>
      </trkpt>
      <trkpt lat="45.31029" lon="6.15959">
        <ele>2540.1999511719</ele>
        <time>2020-02-08T14:08:31.000Z</time>
      </trkpt>
      <trkpt lat="45.31022" lon="6.15962">
        <ele>2538</ele>
        <time>2020-02-08T14:08:32.000Z</time>
      </trkpt>
      <trkpt lat="45.31016" lon="6.15966">
        <ele>2536.3999023438</ele>
        <time>2020-02-08T14:08:33.000Z</time>
      </trkpt>
      <trkpt lat="45.3101" lon="6.15972">
        <ele>2534.6000976562</ele>
        <time>2020-02-08T14:08:34.000Z</time>
      </trkpt>
      <trkpt lat="45.31007" lon="6.15975">
        <ele>2532.8000488281</ele>
        <time>2020-02-08T14:08:35.000Z</time>
      </trkpt>
      <trkpt lat="45.31006" lon="6.15978">
        <ele>2531.1999511719</ele>
        <time>2020-02-08T14:08:36.000Z</time>
      </trkpt>
      <trkpt lat="45.31006" lon="6.15982">
        <ele>2529.6000976562</ele>
        <time>2020-02-08T14:08:37.000Z</time>
      </trkpt>
      <trkpt lat="45.31006" lon="6.15984">
        <ele>2527.8000488281</ele>
        <time>2020-02-08T14:08:38.000Z</time>
      </trkpt>
      <trkpt lat="45.31005" lon="6.15985">
        <ele>2526.1999511719</ele>
        <time>2020-02-08T14:08:39.000Z</time>
      </trkpt>
      <trkpt lat="45.31005" lon="6.15986">
        <ele>2524.8000488281</ele>
        <time>2020-02-08T14:08:40.000Z</time>
      </trkpt>
      <trkpt lat="45.31005" lon="6.15985">
        <ele>2523.1999511719</ele>
        <time>2020-02-08T14:08:42.000Z</time>
      </trkpt>
      <trkpt lat="45.31005" lon="6.15985">
        <ele>2522.6000976562</ele>
        <time>2020-02-08T14:08:43.000Z</time>
      </trkpt>
      <trkpt lat="45.31005" lon="6.15985">
        <ele>2522.1999511719</ele>
        <time>2020-02-08T14:08:45.000Z</time>
      </trkpt>
      <trkpt lat="45.31005" lon="6.15986">
        <ele>2521.8000488281</ele>
        <time>2020-02-08T14:08:53.000Z</time>
      </trkpt>
      <trkpt lat="45.31003" lon="6.15988">
        <ele>2521.8000488281</ele>
        <time>2020-02-08T14:08:54.000Z</time>
      </trkpt>
      <trkpt lat="45.30993" lon="6.15986">
        <ele>2521.1999511719</ele>
        <time>2020-02-08T14:08:57.000Z</time>
      </trkpt>
      <trkpt lat="45.3099" lon="6.15989">
        <ele>2520.8000488281</ele>
        <time>2020-02-08T14:08:58.000Z</time>
      </trkpt>
      <trkpt lat="45.30989" lon="6.15993">
        <ele>2520.3999023438</ele>
        <time>2020-02-08T14:08:59.000Z</time>
      </trkpt>
      <trkpt lat="45.30985" lon="6.16002">
        <ele>2519.8000488281</ele>
        <time>2020-02-08T14:09:01.000Z</time>
      </trkpt>
      <trkpt lat="45.30982" lon="6.15998">
        <ele>2518.8000488281</ele>
        <time>2020-02-08T14:09:02.000Z</time>
      </trkpt>
      <trkpt lat="45.3098" lon="6.15994">
        <ele>2517.3999023438</ele>
        <time>2020-02-08T14:09:03.000Z</time>
      </trkpt>
      <trkpt lat="45.30979" lon="6.15992">
        <ele>2515.8000488281</ele>
        <time>2020-02-08T14:09:04.000Z</time>
      </trkpt>
      <trkpt lat="45.30979" lon="6.15993">
        <ele>2514.3999023438</ele>
        <time>2020-02-08T14:09:05.000Z</time>
      </trkpt>
      <trkpt lat="45.30979" lon="6.15993">
        <ele>2513.1999511719</ele>
        <time>2020-02-08T14:09:06.000Z</time>
      </trkpt>
      <trkpt lat="45.30979" lon="6.15992">
        <ele>2512</ele>
        <time>2020-02-08T14:09:07.000Z</time>
      </trkpt>
      <trkpt lat="45.30977" lon="6.1599">
        <ele>2511</ele>
        <time>2020-02-08T14:09:08.000Z</time>
      </trkpt>
      <trkpt lat="45.30975" lon="6.15984">
        <ele>2509.8000488281</ele>
        <time>2020-02-08T14:09:10.000Z</time>
      </trkpt>
      <trkpt lat="45.30973" lon="6.15979">
        <ele>2508.3999023438</ele>
        <time>2020-02-08T14:09:13.000Z</time>
      </trkpt>
      <trkpt lat="45.3097" lon="6.15981">
        <ele>2508</ele>
        <time>2020-02-08T14:09:14.000Z</time>
      </trkpt>
      <trkpt lat="45.3097" lon="6.1599">
        <ele>2507.3999023438</ele>
        <time>2020-02-08T14:09:16.000Z</time>
      </trkpt>
      <trkpt lat="45.30971" lon="6.15993">
        <ele>2507.1999511719</ele>
        <time>2020-02-08T14:09:17.000Z</time>
      </trkpt>
      <trkpt lat="45.30968" lon="6.15996">
        <ele>2506.1999511719</ele>
        <time>2020-02-08T14:09:19.000Z</time>
      </trkpt>
      <trkpt lat="45.30966" lon="6.15997">
        <ele>2503.8000488281</ele>
        <time>2020-02-08T14:09:20.000Z</time>
      </trkpt>
      <trkpt lat="45.30965" lon="6.16002">
        <ele>2502.1999511719</ele>
        <time>2020-02-08T14:09:21.000Z</time>
      </trkpt>
      <trkpt lat="45.30965" lon="6.16006">
        <ele>2500.8000488281</ele>
        <time>2020-02-08T14:09:22.000Z</time>
      </trkpt>
      <trkpt lat="45.3096" lon="6.16008">
        <ele>2499.1999511719</ele>
        <time>2020-02-08T14:09:24.000Z</time>
      </trkpt>
      <trkpt lat="45.30957" lon="6.16009">
        <ele>2498</ele>
        <time>2020-02-08T14:09:25.000Z</time>
      </trkpt>
      <trkpt lat="45.30957" lon="6.16014">
        <ele>2496.1999511719</ele>
        <time>2020-02-08T14:09:26.000Z</time>
      </trkpt>
      <trkpt lat="45.30956" lon="6.16018">
        <ele>2494.3999023438</ele>
        <time>2020-02-08T14:09:27.000Z</time>
      </trkpt>
      <trkpt lat="45.30954" lon="6.16024">
        <ele>2493</ele>
        <time>2020-02-08T14:09:28.000Z</time>
      </trkpt>
      <trkpt lat="45.30951" lon="6.16025">
        <ele>2491.8000488281</ele>
        <time>2020-02-08T14:09:29.000Z</time>
      </trkpt>
      <trkpt lat="45.30949" lon="6.16023">
        <ele>2490.1999511719</ele>
        <time>2020-02-08T14:09:30.000Z</time>
      </trkpt>
      <trkpt lat="45.30947" lon="6.16027">
        <ele>2487.8000488281</ele>
        <time>2020-02-08T14:09:31.000Z</time>
      </trkpt>
      <trkpt lat="45.30947" lon="6.1603">
        <ele>2485.6000976562</ele>
        <time>2020-02-08T14:09:32.000Z</time>
      </trkpt>
      <trkpt lat="45.30947" lon="6.16034">
        <ele>2484</ele>
        <time>2020-02-08T14:09:33.000Z</time>
      </trkpt>
      <trkpt lat="45.30947" lon="6.16038">
        <ele>2482.8000488281</ele>
        <time>2020-02-08T14:09:34.000Z</time>
      </trkpt>
      <trkpt lat="45.30948" lon="6.16041">
        <ele>2481.3999023438</ele>
        <time>2020-02-08T14:09:35.000Z</time>
      </trkpt>
      <trkpt lat="45.30947" lon="6.16044">
        <ele>2479.6000976562</ele>
        <time>2020-02-08T14:09:36.000Z</time>
      </trkpt>
      <trkpt lat="45.30947" lon="6.16047">
        <ele>2477.6000976562</ele>
        <time>2020-02-08T14:09:37.000Z</time>
      </trkpt>
      <trkpt lat="45.30947" lon="6.16048">
        <ele>2476</ele>
        <time>2020-02-08T14:09:38.000Z</time>
      </trkpt>
      <trkpt lat="45.30947" lon="6.16047">
        <ele>2474.6000976562</ele>
        <time>2020-02-08T14:09:39.000Z</time>
      </trkpt>
      <trkpt lat="45.30947" lon="6.16047">
        <ele>2473.6000976562</ele>
        <time>2020-02-08T14:09:40.000Z</time>
      </trkpt>
      <trkpt lat="45.30947" lon="6.16047">
        <ele>2472.8000488281</ele>
        <time>2020-02-08T14:09:41.000Z</time>
      </trkpt>
      <trkpt lat="45.30947" lon="6.16047">
        <ele>2471.8000488281</ele>
        <time>2020-02-08T14:09:43.000Z</time>
      </trkpt>
      <trkpt lat="45.30945" lon="6.16049">
        <ele>2471</ele>
        <time>2020-02-08T14:09:45.000Z</time>
      </trkpt>
      <trkpt lat="45.30942" lon="6.16046">
        <ele>2470.8000488281</ele>
        <time>2020-02-08T14:09:46.000Z</time>
      </trkpt>
      <trkpt lat="45.30941" lon="6.16044">
        <ele>2470.3999023438</ele>
        <time>2020-02-08T14:09:47.000Z</time>
      </trkpt>
      <trkpt lat="45.3094" lon="6.16044">
        <ele>2469</ele>
        <time>2020-02-08T14:09:49.000Z</time>
      </trkpt>
      <trkpt lat="45.30937" lon="6.16046">
        <ele>2468.1999511719</ele>
        <time>2020-02-08T14:09:51.000Z</time>
      </trkpt>
      <trkpt lat="45.30934" lon="6.16053">
        <ele>2467.8000488281</ele>
        <time>2020-02-08T14:09:52.000Z</time>
      </trkpt>
      <trkpt lat="45.30932" lon="6.16069">
        <ele>2467.1999511719</ele>
        <time>2020-02-08T14:09:55.000Z</time>
      </trkpt>
      <trkpt lat="45.30929" lon="6.16071">
        <ele>2466.1999511719</ele>
        <time>2020-02-08T14:09:56.000Z</time>
      </trkpt>
      <trkpt lat="45.30926" lon="6.1607">
        <ele>2464.8000488281</ele>
        <time>2020-02-08T14:09:57.000Z</time>
      </trkpt>
      <trkpt lat="45.30924" lon="6.16065">
        <ele>2462.8000488281</ele>
        <time>2020-02-08T14:09:58.000Z</time>
      </trkpt>
      <trkpt lat="45.30922" lon="6.16061">
        <ele>2460.6000976562</ele>
        <time>2020-02-08T14:09:59.000Z</time>
      </trkpt>
      <trkpt lat="45.30918" lon="6.1606">
        <ele>2458.6000976562</ele>
        <time>2020-02-08T14:10:00.000Z</time>
      </trkpt>
      <trkpt lat="45.30915" lon="6.16062">
        <ele>2457</ele>
        <time>2020-02-08T14:10:01.000Z</time>
      </trkpt>
      <trkpt lat="45.30912" lon="6.16066">
        <ele>2455.8000488281</ele>
        <time>2020-02-08T14:10:02.000Z</time>
      </trkpt>
      <trkpt lat="45.30907" lon="6.16074">
        <ele>2454.8000488281</ele>
        <time>2020-02-08T14:10:03.000Z</time>
      </trkpt>
      <trkpt lat="45.30906" lon="6.1608">
        <ele>2453.8000488281</ele>
        <time>2020-02-08T14:10:04.000Z</time>
      </trkpt>
      <trkpt lat="45.30904" lon="6.16085">
        <ele>2452.3999023438</ele>
        <time>2020-02-08T14:10:05.000Z</time>
      </trkpt>
      <trkpt lat="45.30901" lon="6.16087">
        <ele>2450.8000488281</ele>
        <time>2020-02-08T14:10:06.000Z</time>
      </trkpt>
      <trkpt lat="45.30899" lon="6.16087">
        <ele>2448.8000488281</ele>
        <time>2020-02-08T14:10:08.000Z</time>
      </trkpt>
      <trkpt lat="45.30897" lon="6.16084">
        <ele>2444.1999511719</ele>
        <time>2020-02-08T14:10:09.000Z</time>
      </trkpt>
      <trkpt lat="45.30894" lon="6.16081">
        <ele>2442.3999023438</ele>
        <time>2020-02-08T14:10:10.000Z</time>
      </trkpt>
      <trkpt lat="45.30893" lon="6.16081">
        <ele>2441</ele>
        <time>2020-02-08T14:10:11.000Z</time>
      </trkpt>
      <trkpt lat="45.30891" lon="6.16086">
        <ele>2439.6000976562</ele>
        <time>2020-02-08T14:10:12.000Z</time>
      </trkpt>
      <trkpt lat="45.30889" lon="6.16091">
        <ele>2438.3999023438</ele>
        <time>2020-02-08T14:10:13.000Z</time>
      </trkpt>
      <trkpt lat="45.30887" lon="6.16094">
        <ele>2437</ele>
        <time>2020-02-08T14:10:14.000Z</time>
      </trkpt>
      <trkpt lat="45.30885" lon="6.16091">
        <ele>2435.1999511719</ele>
        <time>2020-02-08T14:10:15.000Z</time>
      </trkpt>
      <trkpt lat="45.30883" lon="6.16087">
        <ele>2433.1999511719</ele>
        <time>2020-02-08T14:10:16.000Z</time>
      </trkpt>
      <trkpt lat="45.30881" lon="6.16083">
        <ele>2431.1999511719</ele>
        <time>2020-02-08T14:10:17.000Z</time>
      </trkpt>
      <trkpt lat="45.30878" lon="6.16081">
        <ele>2429.8000488281</ele>
        <time>2020-02-08T14:10:18.000Z</time>
      </trkpt>
      <trkpt lat="45.30875" lon="6.16083">
        <ele>2428.8000488281</ele>
        <time>2020-02-08T14:10:19.000Z</time>
      </trkpt>
      <trkpt lat="45.30871" lon="6.16094">
        <ele>2426.6000976562</ele>
        <time>2020-02-08T14:10:21.000Z</time>
      </trkpt>
      <trkpt lat="45.3087" lon="6.16097">
        <ele>2425.1999511719</ele>
        <time>2020-02-08T14:10:22.000Z</time>
      </trkpt>
      <trkpt lat="45.30869" lon="6.16099">
        <ele>2423.6000976562</ele>
        <time>2020-02-08T14:10:23.000Z</time>
      </trkpt>
      <trkpt lat="45.30866" lon="6.16099">
        <ele>2421.6000976562</ele>
        <time>2020-02-08T14:10:24.000Z</time>
      </trkpt>
      <trkpt lat="45.30863" lon="6.16096">
        <ele>2419.3999023438</ele>
        <time>2020-02-08T14:10:25.000Z</time>
      </trkpt>
      <trkpt lat="45.3086" lon="6.16093">
        <ele>2417.3999023438</ele>
        <time>2020-02-08T14:10:26.000Z</time>
      </trkpt>
      <trkpt lat="45.30858" lon="6.16089">
        <ele>2415.1999511719</ele>
        <time>2020-02-08T14:10:27.000Z</time>
      </trkpt>
      <trkpt lat="45.30856" lon="6.16085">
        <ele>2413.6000976562</ele>
        <time>2020-02-08T14:10:28.000Z</time>
      </trkpt>
      <trkpt lat="45.30853" lon="6.16084">
        <ele>2412.1999511719</ele>
        <time>2020-02-08T14:10:29.000Z</time>
      </trkpt>
      <trkpt lat="45.30848" lon="6.16093">
        <ele>2410.1999511719</ele>
        <time>2020-02-08T14:10:31.000Z</time>
      </trkpt>
      <trkpt lat="45.30845" lon="6.16101">
        <ele>2409</ele>
        <time>2020-02-08T14:10:32.000Z</time>
      </trkpt>
      <trkpt lat="45.30843" lon="6.16108">
        <ele>2406.6000976562</ele>
        <time>2020-02-08T14:10:33.000Z</time>
      </trkpt>
      <trkpt lat="45.30841" lon="6.16114">
        <ele>2405</ele>
        <time>2020-02-08T14:10:34.000Z</time>
      </trkpt>
      <trkpt lat="45.30839" lon="6.16121">
        <ele>2402.8000488281</ele>
        <time>2020-02-08T14:10:35.000Z</time>
      </trkpt>
      <trkpt lat="45.30837" lon="6.1613">
        <ele>2400.8000488281</ele>
        <time>2020-02-08T14:10:36.000Z</time>
      </trkpt>
      <trkpt lat="45.30835" lon="6.16138">
        <ele>2398.6000976562</ele>
        <time>2020-02-08T14:10:37.000Z</time>
      </trkpt>
      <trkpt lat="45.30834" lon="6.16147">
        <ele>2396.6000976562</ele>
        <time>2020-02-08T14:10:38.000Z</time>
      </trkpt>
      <trkpt lat="45.30833" lon="6.16155">
        <ele>2394.3999023438</ele>
        <time>2020-02-08T14:10:39.000Z</time>
      </trkpt>
      <trkpt lat="45.30831" lon="6.16162">
        <ele>2392.3999023438</ele>
        <time>2020-02-08T14:10:40.000Z</time>
      </trkpt>
      <trkpt lat="45.3083" lon="6.1617">
        <ele>2390.3999023438</ele>
        <time>2020-02-08T14:10:41.000Z</time>
      </trkpt>
      <trkpt lat="45.3083" lon="6.16179">
        <ele>2388.8000488281</ele>
        <time>2020-02-08T14:10:42.000Z</time>
      </trkpt>
      <trkpt lat="45.3083" lon="6.16183">
        <ele>2387</ele>
        <time>2020-02-08T14:10:43.000Z</time>
      </trkpt>
      <trkpt lat="45.3083" lon="6.16187">
        <ele>2385.3999023438</ele>
        <time>2020-02-08T14:10:44.000Z</time>
      </trkpt>
      <trkpt lat="45.3083" lon="6.1619">
        <ele>2383.8000488281</ele>
        <time>2020-02-08T14:10:45.000Z</time>
      </trkpt>
      <trkpt lat="45.3083" lon="6.16193">
        <ele>2382.1999511719</ele>
        <time>2020-02-08T14:10:46.000Z</time>
      </trkpt>
      <trkpt lat="45.30829" lon="6.16195">
        <ele>2380.8000488281</ele>
        <time>2020-02-08T14:10:47.000Z</time>
      </trkpt>
      <trkpt lat="45.30825" lon="6.16199">
        <ele>2379.6000976562</ele>
        <time>2020-02-08T14:10:48.000Z</time>
      </trkpt>
      <trkpt lat="45.30819" lon="6.16201">
        <ele>2378.6000976562</ele>
        <time>2020-02-08T14:10:49.000Z</time>
      </trkpt>
      <trkpt lat="45.30814" lon="6.16211">
        <ele>2376.8000488281</ele>
        <time>2020-02-08T14:10:51.000Z</time>
      </trkpt>
      <trkpt lat="45.30815" lon="6.16221">
        <ele>2375.1999511719</ele>
        <time>2020-02-08T14:10:53.000Z</time>
      </trkpt>
      <trkpt lat="45.30814" lon="6.16227">
        <ele>2374.1999511719</ele>
        <time>2020-02-08T14:10:54.000Z</time>
      </trkpt>
      <trkpt lat="45.30812" lon="6.16231">
        <ele>2372.3999023438</ele>
        <time>2020-02-08T14:10:55.000Z</time>
      </trkpt>
      <trkpt lat="45.30808" lon="6.16232">
        <ele>2370.3999023438</ele>
        <time>2020-02-08T14:10:56.000Z</time>
      </trkpt>
      <trkpt lat="45.30806" lon="6.16235">
        <ele>2366.1999511719</ele>
        <time>2020-02-08T14:10:57.000Z</time>
      </trkpt>
      <trkpt lat="45.30806" lon="6.1624">
        <ele>2364.6000976562</ele>
        <time>2020-02-08T14:10:58.000Z</time>
      </trkpt>
      <trkpt lat="45.30808" lon="6.16246">
        <ele>2363.6000976562</ele>
        <time>2020-02-08T14:10:59.000Z</time>
      </trkpt>
      <trkpt lat="45.30807" lon="6.16253">
        <ele>2362.8000488281</ele>
        <time>2020-02-08T14:11:00.000Z</time>
      </trkpt>
      <trkpt lat="45.30806" lon="6.16258">
        <ele>2361.8000488281</ele>
        <time>2020-02-08T14:11:01.000Z</time>
      </trkpt>
      <trkpt lat="45.30801" lon="6.16261">
        <ele>2360.1999511719</ele>
        <time>2020-02-08T14:11:02.000Z</time>
      </trkpt>
      <trkpt lat="45.30798" lon="6.16263">
        <ele>2358.3999023438</ele>
        <time>2020-02-08T14:11:03.000Z</time>
      </trkpt>
      <trkpt lat="45.30796" lon="6.16264">
        <ele>2356.6000976562</ele>
        <time>2020-02-08T14:11:04.000Z</time>
      </trkpt>
      <trkpt lat="45.30793" lon="6.16268">
        <ele>2355</ele>
        <time>2020-02-08T14:11:05.000Z</time>
      </trkpt>
      <trkpt lat="45.30793" lon="6.16274">
        <ele>2353.6000976562</ele>
        <time>2020-02-08T14:11:06.000Z</time>
      </trkpt>
      <trkpt lat="45.30793" lon="6.1628">
        <ele>2352.6000976562</ele>
        <time>2020-02-08T14:11:07.000Z</time>
      </trkpt>
      <trkpt lat="45.30791" lon="6.16285">
        <ele>2351.6000976562</ele>
        <time>2020-02-08T14:11:08.000Z</time>
      </trkpt>
      <trkpt lat="45.30786" lon="6.16289">
        <ele>2350.3999023438</ele>
        <time>2020-02-08T14:11:09.000Z</time>
      </trkpt>
      <trkpt lat="45.30783" lon="6.16298">
        <ele>2349</ele>
        <time>2020-02-08T14:11:10.000Z</time>
      </trkpt>
      <trkpt lat="45.30783" lon="6.16306">
        <ele>2347.1999511719</ele>
        <time>2020-02-08T14:11:11.000Z</time>
      </trkpt>
      <trkpt lat="45.30783" lon="6.16312">
        <ele>2345.6000976562</ele>
        <time>2020-02-08T14:11:12.000Z</time>
      </trkpt>
      <trkpt lat="45.30781" lon="6.16323">
        <ele>2343.8000488281</ele>
        <time>2020-02-08T14:11:14.000Z</time>
      </trkpt>
      <trkpt lat="45.30778" lon="6.16325">
        <ele>2342.6000976562</ele>
        <time>2020-02-08T14:11:15.000Z</time>
      </trkpt>
      <trkpt lat="45.30774" lon="6.16329">
        <ele>2341</ele>
        <time>2020-02-08T14:11:16.000Z</time>
      </trkpt>
      <trkpt lat="45.30771" lon="6.16336">
        <ele>2339</ele>
        <time>2020-02-08T14:11:17.000Z</time>
      </trkpt>
      <trkpt lat="45.30771" lon="6.16343">
        <ele>2337.1999511719</ele>
        <time>2020-02-08T14:11:18.000Z</time>
      </trkpt>
      <trkpt lat="45.30772" lon="6.16349">
        <ele>2335.8000488281</ele>
        <time>2020-02-08T14:11:19.000Z</time>
      </trkpt>
      <trkpt lat="45.30769" lon="6.1636">
        <ele>2333</ele>
        <time>2020-02-08T14:11:21.000Z</time>
      </trkpt>
      <trkpt lat="45.30765" lon="6.16361">
        <ele>2331.3999023438</ele>
        <time>2020-02-08T14:11:22.000Z</time>
      </trkpt>
      <trkpt lat="45.3076" lon="6.16365">
        <ele>2329.6000976562</ele>
        <time>2020-02-08T14:11:23.000Z</time>
      </trkpt>
      <trkpt lat="45.30759" lon="6.16372">
        <ele>2327.8000488281</ele>
        <time>2020-02-08T14:11:24.000Z</time>
      </trkpt>
      <trkpt lat="45.30759" lon="6.16378">
        <ele>2326.6000976562</ele>
        <time>2020-02-08T14:11:25.000Z</time>
      </trkpt>
      <trkpt lat="45.30756" lon="6.16383">
        <ele>2325.6000976562</ele>
        <time>2020-02-08T14:11:26.000Z</time>
      </trkpt>
      <trkpt lat="45.30752" lon="6.16387">
        <ele>2324.8000488281</ele>
        <time>2020-02-08T14:11:27.000Z</time>
      </trkpt>
      <trkpt lat="45.30747" lon="6.16388">
        <ele>2323.3999023438</ele>
        <time>2020-02-08T14:11:28.000Z</time>
      </trkpt>
      <trkpt lat="45.30743" lon="6.16391">
        <ele>2321.3999023438</ele>
        <time>2020-02-08T14:11:29.000Z</time>
      </trkpt>
      <trkpt lat="45.30742" lon="6.16397">
        <ele>2319.6000976562</ele>
        <time>2020-02-08T14:11:30.000Z</time>
      </trkpt>
      <trkpt lat="45.30742" lon="6.16404">
        <ele>2318.1999511719</ele>
        <time>2020-02-08T14:11:31.000Z</time>
      </trkpt>
      <trkpt lat="45.30739" lon="6.1641">
        <ele>2317</ele>
        <time>2020-02-08T14:11:32.000Z</time>
      </trkpt>
      <trkpt lat="45.30735" lon="6.16414">
        <ele>2316</ele>
        <time>2020-02-08T14:11:33.000Z</time>
      </trkpt>
      <trkpt lat="45.30731" lon="6.16416">
        <ele>2314.6000976562</ele>
        <time>2020-02-08T14:11:34.000Z</time>
      </trkpt>
      <trkpt lat="45.30727" lon="6.16416">
        <ele>2312.6000976562</ele>
        <time>2020-02-08T14:11:35.000Z</time>
      </trkpt>
      <trkpt lat="45.30724" lon="6.16416">
        <ele>2310.8000488281</ele>
        <time>2020-02-08T14:11:36.000Z</time>
      </trkpt>
      <trkpt lat="45.30723" lon="6.16417">
        <ele>2309.3999023438</ele>
        <time>2020-02-08T14:11:37.000Z</time>
      </trkpt>
      <trkpt lat="45.30722" lon="6.16416">
        <ele>2308.3999023438</ele>
        <time>2020-02-08T14:11:38.000Z</time>
      </trkpt>
      <trkpt lat="45.30721" lon="6.16417">
        <ele>2306.6000976562</ele>
        <time>2020-02-08T14:11:40.000Z</time>
      </trkpt>
      <trkpt lat="45.30721" lon="6.16417">
        <ele>2305.6000976562</ele>
        <time>2020-02-08T14:11:46.000Z</time>
      </trkpt>
      <trkpt lat="45.30719" lon="6.16419">
        <ele>2305.1999511719</ele>
        <time>2020-02-08T14:11:50.000Z</time>
      </trkpt>
      <trkpt lat="45.30708" lon="6.16426">
        <ele>2304.8000488281</ele>
        <time>2020-02-08T14:11:54.000Z</time>
      </trkpt>
      <trkpt lat="45.30704" lon="6.16434">
        <ele>2304.3999023438</ele>
        <time>2020-02-08T14:11:56.000Z</time>
      </trkpt>
      <trkpt lat="45.30704" lon="6.16441">
        <ele>2304.1999511719</ele>
        <time>2020-02-08T14:11:57.000Z</time>
      </trkpt>
      <trkpt lat="45.30696" lon="6.1645">
        <ele>2303.6000976562</ele>
        <time>2020-02-08T14:11:59.000Z</time>
      </trkpt>
      <trkpt lat="45.30693" lon="6.16456">
        <ele>2303</ele>
        <time>2020-02-08T14:12:00.000Z</time>
      </trkpt>
      <trkpt lat="45.30693" lon="6.16462">
        <ele>2301.8000488281</ele>
        <time>2020-02-08T14:12:01.000Z</time>
      </trkpt>
      <trkpt lat="45.30691" lon="6.16468">
        <ele>2300.6000976562</ele>
        <time>2020-02-08T14:12:02.000Z</time>
      </trkpt>
      <trkpt lat="45.30689" lon="6.16474">
        <ele>2299.3999023438</ele>
        <time>2020-02-08T14:12:03.000Z</time>
      </trkpt>
      <trkpt lat="45.30686" lon="6.16481">
        <ele>2298</ele>
        <time>2020-02-08T14:12:04.000Z</time>
      </trkpt>
      <trkpt lat="45.30686" lon="6.16487">
        <ele>2296.3999023438</ele>
        <time>2020-02-08T14:12:05.000Z</time>
      </trkpt>
      <trkpt lat="45.30683" lon="6.16493">
        <ele>2294.6000976562</ele>
        <time>2020-02-08T14:12:06.000Z</time>
      </trkpt>
      <trkpt lat="45.30679" lon="6.16498">
        <ele>2293</ele>
        <time>2020-02-08T14:12:07.000Z</time>
      </trkpt>
      <trkpt lat="45.30674" lon="6.16502">
        <ele>2291.6000976562</ele>
        <time>2020-02-08T14:12:08.000Z</time>
      </trkpt>
      <trkpt lat="45.30671" lon="6.16509">
        <ele>2288</ele>
        <time>2020-02-08T14:12:09.000Z</time>
      </trkpt>
      <trkpt lat="45.3067" lon="6.16517">
        <ele>2286.1999511719</ele>
        <time>2020-02-08T14:12:10.000Z</time>
      </trkpt>
      <trkpt lat="45.30669" lon="6.16525">
        <ele>2284.8000488281</ele>
        <time>2020-02-08T14:12:11.000Z</time>
      </trkpt>
      <trkpt lat="45.30666" lon="6.16533">
        <ele>2283.3999023438</ele>
        <time>2020-02-08T14:12:12.000Z</time>
      </trkpt>
      <trkpt lat="45.30662" lon="6.16541">
        <ele>2281.6000976562</ele>
        <time>2020-02-08T14:12:13.000Z</time>
      </trkpt>
      <trkpt lat="45.30656" lon="6.16546">
        <ele>2279.3999023438</ele>
        <time>2020-02-08T14:12:14.000Z</time>
      </trkpt>
      <trkpt lat="45.3065" lon="6.16551">
        <ele>2277.3999023438</ele>
        <time>2020-02-08T14:12:15.000Z</time>
      </trkpt>
      <trkpt lat="45.30644" lon="6.16555">
        <ele>2275.8000488281</ele>
        <time>2020-02-08T14:12:16.000Z</time>
      </trkpt>
      <trkpt lat="45.30638" lon="6.16556">
        <ele>2274.1999511719</ele>
        <time>2020-02-08T14:12:17.000Z</time>
      </trkpt>
      <trkpt lat="45.30632" lon="6.16559">
        <ele>2272.8000488281</ele>
        <time>2020-02-08T14:12:18.000Z</time>
      </trkpt>
      <trkpt lat="45.30628" lon="6.16565">
        <ele>2271.3999023438</ele>
        <time>2020-02-08T14:12:19.000Z</time>
      </trkpt>
      <trkpt lat="45.30624" lon="6.16571">
        <ele>2270</ele>
        <time>2020-02-08T14:12:20.000Z</time>
      </trkpt>
      <trkpt lat="45.30621" lon="6.16578">
        <ele>2269</ele>
        <time>2020-02-08T14:12:21.000Z</time>
      </trkpt>
      <trkpt lat="45.30618" lon="6.16586">
        <ele>2267.6000976562</ele>
        <time>2020-02-08T14:12:22.000Z</time>
      </trkpt>
      <trkpt lat="45.30615" lon="6.16595">
        <ele>2266</ele>
        <time>2020-02-08T14:12:23.000Z</time>
      </trkpt>
      <trkpt lat="45.30611" lon="6.16602">
        <ele>2264.6000976562</ele>
        <time>2020-02-08T14:12:24.000Z</time>
      </trkpt>
      <trkpt lat="45.30606" lon="6.16608">
        <ele>2263</ele>
        <time>2020-02-08T14:12:25.000Z</time>
      </trkpt>
      <trkpt lat="45.30603" lon="6.16618">
        <ele>2261.1999511719</ele>
        <time>2020-02-08T14:12:26.000Z</time>
      </trkpt>
      <trkpt lat="45.30598" lon="6.16627">
        <ele>2259.1999511719</ele>
        <time>2020-02-08T14:12:27.000Z</time>
      </trkpt>
      <trkpt lat="45.30593" lon="6.16637">
        <ele>2257.3999023438</ele>
        <time>2020-02-08T14:12:28.000Z</time>
      </trkpt>
      <trkpt lat="45.3059" lon="6.16649">
        <ele>2256</ele>
        <time>2020-02-08T14:12:29.000Z</time>
      </trkpt>
      <trkpt lat="45.30585" lon="6.16661">
        <ele>2254</ele>
        <time>2020-02-08T14:12:30.000Z</time>
      </trkpt>
      <trkpt lat="45.3058" lon="6.16671">
        <ele>2252</ele>
        <time>2020-02-08T14:12:31.000Z</time>
      </trkpt>
      <trkpt lat="45.30576" lon="6.16681">
        <ele>2250</ele>
        <time>2020-02-08T14:12:32.000Z</time>
      </trkpt>
      <trkpt lat="45.30573" lon="6.16693">
        <ele>2245.8000488281</ele>
        <time>2020-02-08T14:12:33.000Z</time>
      </trkpt>
      <trkpt lat="45.30568" lon="6.16702">
        <ele>2243.1999511719</ele>
        <time>2020-02-08T14:12:34.000Z</time>
      </trkpt>
      <trkpt lat="45.30562" lon="6.16711">
        <ele>2240.6000976562</ele>
        <time>2020-02-08T14:12:35.000Z</time>
      </trkpt>
      <trkpt lat="45.30556" lon="6.16719">
        <ele>2237.6000976562</ele>
        <time>2020-02-08T14:12:36.000Z</time>
      </trkpt>
      <trkpt lat="45.30551" lon="6.16726">
        <ele>2235</ele>
        <time>2020-02-08T14:12:37.000Z</time>
      </trkpt>
      <trkpt lat="45.30545" lon="6.16734">
        <ele>2233.1999511719</ele>
        <time>2020-02-08T14:12:38.000Z</time>
      </trkpt>
      <trkpt lat="45.30542" lon="6.16746">
        <ele>2231.8000488281</ele>
        <time>2020-02-08T14:12:39.000Z</time>
      </trkpt>
      <trkpt lat="45.30538" lon="6.16757">
        <ele>2230.3999023438</ele>
        <time>2020-02-08T14:12:40.000Z</time>
      </trkpt>
      <trkpt lat="45.30534" lon="6.1677">
        <ele>2229.1999511719</ele>
        <time>2020-02-08T14:12:41.000Z</time>
      </trkpt>
      <trkpt lat="45.3053" lon="6.1678">
        <ele>2227.6000976562</ele>
        <time>2020-02-08T14:12:42.000Z</time>
      </trkpt>
      <trkpt lat="45.30526" lon="6.1679">
        <ele>2225.8000488281</ele>
        <time>2020-02-08T14:12:43.000Z</time>
      </trkpt>
      <trkpt lat="45.30524" lon="6.16797">
        <ele>2224</ele>
        <time>2020-02-08T14:12:44.000Z</time>
      </trkpt>
      <trkpt lat="45.30521" lon="6.16804">
        <ele>2222.3999023438</ele>
        <time>2020-02-08T14:12:45.000Z</time>
      </trkpt>
      <trkpt lat="45.30522" lon="6.1681">
        <ele>2221</ele>
        <time>2020-02-08T14:12:46.000Z</time>
      </trkpt>
      <trkpt lat="45.30523" lon="6.16818">
        <ele>2220</ele>
        <time>2020-02-08T14:12:47.000Z</time>
      </trkpt>
      <trkpt lat="45.30527" lon="6.16834">
        <ele>2218.1999511719</ele>
        <time>2020-02-08T14:12:49.000Z</time>
      </trkpt>
      <trkpt lat="45.30525" lon="6.16843">
        <ele>2217</ele>
        <time>2020-02-08T14:12:50.000Z</time>
      </trkpt>
      <trkpt lat="45.30525" lon="6.1685">
        <ele>2215.8000488281</ele>
        <time>2020-02-08T14:12:51.000Z</time>
      </trkpt>
      <trkpt lat="45.30524" lon="6.1686">
        <ele>2214.6000976562</ele>
        <time>2020-02-08T14:12:52.000Z</time>
      </trkpt>
      <trkpt lat="45.30521" lon="6.16868">
        <ele>2213.1999511719</ele>
        <time>2020-02-08T14:12:53.000Z</time>
      </trkpt>
      <trkpt lat="45.30517" lon="6.16875">
        <ele>2212</ele>
        <time>2020-02-08T14:12:54.000Z</time>
      </trkpt>
      <trkpt lat="45.30515" lon="6.16884">
        <ele>2210.6000976562</ele>
        <time>2020-02-08T14:12:55.000Z</time>
      </trkpt>
      <trkpt lat="45.30512" lon="6.16892">
        <ele>2209.3999023438</ele>
        <time>2020-02-08T14:12:56.000Z</time>
      </trkpt>
      <trkpt lat="45.30511" lon="6.16903">
        <ele>2207</ele>
        <time>2020-02-08T14:12:57.000Z</time>
      </trkpt>
      <trkpt lat="45.30507" lon="6.16913">
        <ele>2206</ele>
        <time>2020-02-08T14:12:58.000Z</time>
      </trkpt>
      <trkpt lat="45.30503" lon="6.16921">
        <ele>2204.8000488281</ele>
        <time>2020-02-08T14:12:59.000Z</time>
      </trkpt>
      <trkpt lat="45.30501" lon="6.16928">
        <ele>2203.3999023438</ele>
        <time>2020-02-08T14:13:00.000Z</time>
      </trkpt>
      <trkpt lat="45.305" lon="6.16938">
        <ele>2201.6000976562</ele>
        <time>2020-02-08T14:13:01.000Z</time>
      </trkpt>
      <trkpt lat="45.30497" lon="6.16947">
        <ele>2200.1999511719</ele>
        <time>2020-02-08T14:13:02.000Z</time>
      </trkpt>
      <trkpt lat="45.30494" lon="6.16956">
        <ele>2198.8000488281</ele>
        <time>2020-02-08T14:13:03.000Z</time>
      </trkpt>
      <trkpt lat="45.30494" lon="6.16964">
        <ele>2197.1999511719</ele>
        <time>2020-02-08T14:13:04.000Z</time>
      </trkpt>
      <trkpt lat="45.30492" lon="6.16973">
        <ele>2195.3999023438</ele>
        <time>2020-02-08T14:13:05.000Z</time>
      </trkpt>
      <trkpt lat="45.30491" lon="6.16982">
        <ele>2193.6000976562</ele>
        <time>2020-02-08T14:13:06.000Z</time>
      </trkpt>
      <trkpt lat="45.30489" lon="6.16991">
        <ele>2192</ele>
        <time>2020-02-08T14:13:07.000Z</time>
      </trkpt>
      <trkpt lat="45.30487" lon="6.17001">
        <ele>2190.1999511719</ele>
        <time>2020-02-08T14:13:08.000Z</time>
      </trkpt>
      <trkpt lat="45.30485" lon="6.17009">
        <ele>2188.3999023438</ele>
        <time>2020-02-08T14:13:09.000Z</time>
      </trkpt>
      <trkpt lat="45.30482" lon="6.17015">
        <ele>2186.6000976562</ele>
        <time>2020-02-08T14:13:10.000Z</time>
      </trkpt>
      <trkpt lat="45.30479" lon="6.17021">
        <ele>2185.1999511719</ele>
        <time>2020-02-08T14:13:11.000Z</time>
      </trkpt>
      <trkpt lat="45.30476" lon="6.17026">
        <ele>2184</ele>
        <time>2020-02-08T14:13:12.000Z</time>
      </trkpt>
      <trkpt lat="45.30473" lon="6.17031">
        <ele>2182.8000488281</ele>
        <time>2020-02-08T14:13:13.000Z</time>
      </trkpt>
      <trkpt lat="45.30467" lon="6.1704">
        <ele>2181.1999511719</ele>
        <time>2020-02-08T14:13:15.000Z</time>
      </trkpt>
      <trkpt lat="45.30462" lon="6.17048">
        <ele>2180</ele>
        <time>2020-02-08T14:13:17.000Z</time>
      </trkpt>
      <trkpt lat="45.30457" lon="6.17056">
        <ele>2179</ele>
        <time>2020-02-08T14:13:19.000Z</time>
      </trkpt>
      <trkpt lat="45.30455" lon="6.17059">
        <ele>2178.8000488281</ele>
        <time>2020-02-08T14:13:20.000Z</time>
      </trkpt>
      <trkpt lat="45.30453" lon="6.17068">
        <ele>2177.8000488281</ele>
        <time>2020-02-08T14:13:23.000Z</time>
      </trkpt>
      <trkpt lat="45.30453" lon="6.17069">
        <ele>2177.6000976562</ele>
        <time>2020-02-08T14:13:24.000Z</time>
      </trkpt>
      <trkpt lat="45.30446" lon="6.17091">
        <ele>2176.8000488281</ele>
        <time>2020-02-08T14:13:35.000Z</time>
      </trkpt>
      <trkpt lat="45.30442" lon="6.17106">
        <ele>2176.8000488281</ele>
        <time>2020-02-08T14:13:40.000Z</time>
      </trkpt>
      <trkpt lat="45.30422" lon="6.17002">
        <ele>2176.8000488281</ele>
        <time>2020-02-08T14:13:46.000Z</time>
      </trkpt>
      <trkpt lat="45.30446" lon="6.16928">
        <ele>2176.8000488281</ele>
        <time>2020-02-08T14:14:02.000Z</time>
      </trkpt>
      <trkpt lat="45.30464" lon="6.16917">
        <ele>2176.3999023438</ele>
        <time>2020-02-08T14:14:11.000Z</time>
      </trkpt>
      <trkpt lat="45.30461" lon="6.16925">
        <ele>2176.1999511719</ele>
        <time>2020-02-08T14:14:13.000Z</time>
      </trkpt>
      <trkpt lat="45.30458" lon="6.16928">
        <ele>2175.8000488281</ele>
        <time>2020-02-08T14:14:15.000Z</time>
      </trkpt>
      <trkpt lat="45.30461" lon="6.16926">
        <ele>2175.3999023438</ele>
        <time>2020-02-08T14:14:16.000Z</time>
      </trkpt>
      <trkpt lat="45.30471" lon="6.16918">
        <ele>2174.1999511719</ele>
        <time>2020-02-08T14:14:18.000Z</time>
      </trkpt>
      <trkpt lat="45.30482" lon="6.16908">
        <ele>2173</ele>
        <time>2020-02-08T14:14:20.000Z</time>
      </trkpt>
      <trkpt lat="45.30486" lon="6.16911">
        <ele>2171.8000488281</ele>
        <time>2020-02-08T14:14:22.000Z</time>
      </trkpt>
      <trkpt lat="45.30486" lon="6.16919">
        <ele>2171.1999511719</ele>
        <time>2020-02-08T14:14:23.000Z</time>
      </trkpt>
      <trkpt lat="45.3049" lon="6.16921">
        <ele>2170.6000976562</ele>
        <time>2020-02-08T14:14:24.000Z</time>
      </trkpt>
      <trkpt lat="45.30493" lon="6.16934">
        <ele>2168.8000488281</ele>
        <time>2020-02-08T14:14:26.000Z</time>
      </trkpt>
      <trkpt lat="45.30492" lon="6.16944">
        <ele>2167</ele>
        <time>2020-02-08T14:14:27.000Z</time>
      </trkpt>
      <trkpt lat="45.30491" lon="6.16954">
        <ele>2165.1999511719</ele>
        <time>2020-02-08T14:14:28.000Z</time>
      </trkpt>
      <trkpt lat="45.3049" lon="6.16965">
        <ele>2163.1999511719</ele>
        <time>2020-02-08T14:14:29.000Z</time>
      </trkpt>
      <trkpt lat="45.30489" lon="6.16976">
        <ele>2161</ele>
        <time>2020-02-08T14:14:30.000Z</time>
      </trkpt>
      <trkpt lat="45.30486" lon="6.16987">
        <ele>2158.6000976562</ele>
        <time>2020-02-08T14:14:31.000Z</time>
      </trkpt>
      <trkpt lat="45.30485" lon="6.16996">
        <ele>2156</ele>
        <time>2020-02-08T14:14:32.000Z</time>
      </trkpt>
      <trkpt lat="45.30481" lon="6.17007">
        <ele>2153.1999511719</ele>
        <time>2020-02-08T14:14:33.000Z</time>
      </trkpt>
      <trkpt lat="45.30478" lon="6.17018">
        <ele>2147.6000976562</ele>
        <time>2020-02-08T14:14:34.000Z</time>
      </trkpt>
      <trkpt lat="45.30477" lon="6.17025">
        <ele>2144.8000488281</ele>
        <time>2020-02-08T14:14:35.000Z</time>
      </trkpt>
      <trkpt lat="45.30477" lon="6.17035">
        <ele>2142.1999511719</ele>
        <time>2020-02-08T14:14:36.000Z</time>
      </trkpt>
      <trkpt lat="45.30474" lon="6.17046">
        <ele>2139.6000976562</ele>
        <time>2020-02-08T14:14:37.000Z</time>
      </trkpt>
      <trkpt lat="45.30473" lon="6.17058">
        <ele>2137.3999023438</ele>
        <time>2020-02-08T14:14:38.000Z</time>
      </trkpt>
      <trkpt lat="45.30472" lon="6.17068">
        <ele>2135</ele>
        <time>2020-02-08T14:14:39.000Z</time>
      </trkpt>
      <trkpt lat="45.30468" lon="6.17079">
        <ele>2132.6000976562</ele>
        <time>2020-02-08T14:14:40.000Z</time>
      </trkpt>
      <trkpt lat="45.30467" lon="6.17087">
        <ele>2130.1999511719</ele>
        <time>2020-02-08T14:14:41.000Z</time>
      </trkpt>
      <trkpt lat="45.30463" lon="6.17097">
        <ele>2128</ele>
        <time>2020-02-08T14:14:42.000Z</time>
      </trkpt>
      <trkpt lat="45.30462" lon="6.17105">
        <ele>2125.8000488281</ele>
        <time>2020-02-08T14:14:43.000Z</time>
      </trkpt>
      <trkpt lat="45.30463" lon="6.17112">
        <ele>2123.6000976562</ele>
        <time>2020-02-08T14:14:44.000Z</time>
      </trkpt>
      <trkpt lat="45.30462" lon="6.1712">
        <ele>2121.1999511719</ele>
        <time>2020-02-08T14:14:45.000Z</time>
      </trkpt>
      <trkpt lat="45.30465" lon="6.17129">
        <ele>2118.8000488281</ele>
        <time>2020-02-08T14:14:46.000Z</time>
      </trkpt>
      <trkpt lat="45.3047" lon="6.17138">
        <ele>2116.3999023438</ele>
        <time>2020-02-08T14:14:47.000Z</time>
      </trkpt>
      <trkpt lat="45.30469" lon="6.17148">
        <ele>2114</ele>
        <time>2020-02-08T14:14:48.000Z</time>
      </trkpt>
      <trkpt lat="45.30471" lon="6.17156">
        <ele>2111.6000976562</ele>
        <time>2020-02-08T14:14:49.000Z</time>
      </trkpt>
      <trkpt lat="45.30476" lon="6.17166">
        <ele>2109.1999511719</ele>
        <time>2020-02-08T14:14:50.000Z</time>
      </trkpt>
      <trkpt lat="45.30474" lon="6.17176">
        <ele>2106.8000488281</ele>
        <time>2020-02-08T14:14:51.000Z</time>
      </trkpt>
      <trkpt lat="45.3047" lon="6.17186">
        <ele>2104.3999023438</ele>
        <time>2020-02-08T14:14:52.000Z</time>
      </trkpt>
      <trkpt lat="45.30467" lon="6.17195">
        <ele>2102</ele>
        <time>2020-02-08T14:14:53.000Z</time>
      </trkpt>
      <trkpt lat="45.30468" lon="6.17203">
        <ele>2099</ele>
        <time>2020-02-08T14:14:54.000Z</time>
      </trkpt>
      <trkpt lat="45.30469" lon="6.17209">
        <ele>2095.8000488281</ele>
        <time>2020-02-08T14:14:55.000Z</time>
      </trkpt>
      <trkpt lat="45.3047" lon="6.17216">
        <ele>2093.1999511719</ele>
        <time>2020-02-08T14:14:56.000Z</time>
      </trkpt>
      <trkpt lat="45.30475" lon="6.17221">
        <ele>2091</ele>
        <time>2020-02-08T14:14:57.000Z</time>
      </trkpt>
      <trkpt lat="45.30479" lon="6.1723">
        <ele>2086.3999023438</ele>
        <time>2020-02-08T14:14:58.000Z</time>
      </trkpt>
      <trkpt lat="45.30484" lon="6.17235">
        <ele>2084.1999511719</ele>
        <time>2020-02-08T14:14:59.000Z</time>
      </trkpt>
      <trkpt lat="45.30486" lon="6.17244">
        <ele>2082.1999511719</ele>
        <time>2020-02-08T14:15:00.000Z</time>
      </trkpt>
      <trkpt lat="45.30488" lon="6.17254">
        <ele>2079.8000488281</ele>
        <time>2020-02-08T14:15:01.000Z</time>
      </trkpt>
      <trkpt lat="45.30488" lon="6.17265">
        <ele>2077.1999511719</ele>
        <time>2020-02-08T14:15:02.000Z</time>
      </trkpt>
      <trkpt lat="45.30485" lon="6.17275">
        <ele>2074.6000976562</ele>
        <time>2020-02-08T14:15:03.000Z</time>
      </trkpt>
      <trkpt lat="45.30481" lon="6.17287">
        <ele>2072</ele>
        <time>2020-02-08T14:15:04.000Z</time>
      </trkpt>
      <trkpt lat="45.30479" lon="6.17295">
        <ele>2069.3999023438</ele>
        <time>2020-02-08T14:15:05.000Z</time>
      </trkpt>
      <trkpt lat="45.30477" lon="6.17301">
        <ele>2066.6000976562</ele>
        <time>2020-02-08T14:15:06.000Z</time>
      </trkpt>
      <trkpt lat="45.30477" lon="6.17302">
        <ele>2063.8000488281</ele>
        <time>2020-02-08T14:15:07.000Z</time>
      </trkpt>
      <trkpt lat="45.30478" lon="6.17298">
        <ele>2061.6000976562</ele>
        <time>2020-02-08T14:15:08.000Z</time>
      </trkpt>
      <trkpt lat="45.3048" lon="6.17294">
        <ele>2059.8000488281</ele>
        <time>2020-02-08T14:15:09.000Z</time>
      </trkpt>
      <trkpt lat="45.30482" lon="6.1729">
        <ele>2058.6000976562</ele>
        <time>2020-02-08T14:15:10.000Z</time>
      </trkpt>
      <trkpt lat="45.30485" lon="6.17285">
        <ele>2057</ele>
        <time>2020-02-08T14:15:12.000Z</time>
      </trkpt>
      <trkpt lat="45.30489" lon="6.17278">
        <ele>2056.1999511719</ele>
        <time>2020-02-08T14:15:15.000Z</time>
      </trkpt>
      <trkpt lat="45.30495" lon="6.17261">
        <ele>2056.1999511719</ele>
        <time>2020-02-08T14:15:23.000Z</time>
      </trkpt>
      <trkpt lat="45.30494" lon="6.17253">
        <ele>2056</ele>
        <time>2020-02-08T14:15:26.000Z</time>
      </trkpt>
      <trkpt lat="45.30491" lon="6.1725">
        <ele>2056</ele>
        <time>2020-02-08T14:15:27.000Z</time>
      </trkpt>
      <trkpt lat="45.30488" lon="6.17248">
        <ele>2055.8000488281</ele>
        <time>2020-02-08T14:15:28.000Z</time>
      </trkpt>
      <trkpt lat="45.30478" lon="6.17247">
        <ele>2055.3999023438</ele>
        <time>2020-02-08T14:15:30.000Z</time>
      </trkpt>
      <trkpt lat="45.30472" lon="6.17245">
        <ele>2055</ele>
        <time>2020-02-08T14:15:31.000Z</time>
      </trkpt>
      <trkpt lat="45.30466" lon="6.17244">
        <ele>2054.6000976562</ele>
        <time>2020-02-08T14:15:32.000Z</time>
      </trkpt>
      <trkpt lat="45.30461" lon="6.17243">
        <ele>2054</ele>
        <time>2020-02-08T14:15:33.000Z</time>
      </trkpt>
      <trkpt lat="45.30457" lon="6.17244">
        <ele>2053.1999511719</ele>
        <time>2020-02-08T14:15:34.000Z</time>
      </trkpt>
      <trkpt lat="45.30455" lon="6.17249">
        <ele>2052.3999023438</ele>
        <time>2020-02-08T14:15:35.000Z</time>
      </trkpt>
      <trkpt lat="45.30452" lon="6.17258">
        <ele>2051.6000976562</ele>
        <time>2020-02-08T14:15:36.000Z</time>
      </trkpt>
      <trkpt lat="45.30453" lon="6.17269">
        <ele>2050.8000488281</ele>
        <time>2020-02-08T14:15:37.000Z</time>
      </trkpt>
      <trkpt lat="45.3045" lon="6.17281">
        <ele>2049.8000488281</ele>
        <time>2020-02-08T14:15:38.000Z</time>
      </trkpt>
      <trkpt lat="45.30446" lon="6.17291">
        <ele>2048.6000976562</ele>
        <time>2020-02-08T14:15:39.000Z</time>
      </trkpt>
      <trkpt lat="45.30444" lon="6.17301">
        <ele>2046.8000488281</ele>
        <time>2020-02-08T14:15:40.000Z</time>
      </trkpt>
      <trkpt lat="45.30442" lon="6.17314">
        <ele>2044.5999755859</ele>
        <time>2020-02-08T14:15:41.000Z</time>
      </trkpt>
      <trkpt lat="45.3044" lon="6.17325">
        <ele>2042</ele>
        <time>2020-02-08T14:15:42.000Z</time>
      </trkpt>
      <trkpt lat="45.30438" lon="6.17339">
        <ele>2039.5999755859</ele>
        <time>2020-02-08T14:15:43.000Z</time>
      </trkpt>
      <trkpt lat="45.30435" lon="6.17351">
        <ele>2037.1999511719</ele>
        <time>2020-02-08T14:15:44.000Z</time>
      </trkpt>
      <trkpt lat="45.3043" lon="6.17359">
        <ele>2034.8000488281</ele>
        <time>2020-02-08T14:15:45.000Z</time>
      </trkpt>
      <trkpt lat="45.30428" lon="6.17367">
        <ele>2029.1999511719</ele>
        <time>2020-02-08T14:15:46.000Z</time>
      </trkpt>
      <trkpt lat="45.30427" lon="6.17377">
        <ele>2026.1999511719</ele>
        <time>2020-02-08T14:15:47.000Z</time>
      </trkpt>
      <trkpt lat="45.30424" lon="6.17381">
        <ele>2023.4000244141</ele>
        <time>2020-02-08T14:15:48.000Z</time>
      </trkpt>
      <trkpt lat="45.30422" lon="6.17387">
        <ele>2021</ele>
        <time>2020-02-08T14:15:49.000Z</time>
      </trkpt>
      <trkpt lat="45.30421" lon="6.17395">
        <ele>2018.8000488281</ele>
        <time>2020-02-08T14:15:50.000Z</time>
      </trkpt>
      <trkpt lat="45.30418" lon="6.17402">
        <ele>2016.4000244141</ele>
        <time>2020-02-08T14:15:51.000Z</time>
      </trkpt>
      <trkpt lat="45.30416" lon="6.17412">
        <ele>2014.4000244141</ele>
        <time>2020-02-08T14:15:52.000Z</time>
      </trkpt>
      <trkpt lat="45.30413" lon="6.1742">
        <ele>2012.4000244141</ele>
        <time>2020-02-08T14:15:53.000Z</time>
      </trkpt>
      <trkpt lat="45.30408" lon="6.17425">
        <ele>2010.4000244141</ele>
        <time>2020-02-08T14:15:54.000Z</time>
      </trkpt>
      <trkpt lat="45.30403" lon="6.17429">
        <ele>2008.5999755859</ele>
        <time>2020-02-08T14:15:55.000Z</time>
      </trkpt>
      <trkpt lat="45.30401" lon="6.17438">
        <ele>2007</ele>
        <time>2020-02-08T14:15:56.000Z</time>
      </trkpt>
      <trkpt lat="45.30397" lon="6.17445">
        <ele>2005.1999511719</ele>
        <time>2020-02-08T14:15:57.000Z</time>
      </trkpt>
      <trkpt lat="45.30393" lon="6.17451">
        <ele>2003.4000244141</ele>
        <time>2020-02-08T14:15:58.000Z</time>
      </trkpt>
      <trkpt lat="45.3039" lon="6.17459">
        <ele>2001.5999755859</ele>
        <time>2020-02-08T14:15:59.000Z</time>
      </trkpt>
      <trkpt lat="45.30387" lon="6.17465">
        <ele>1999.8000488281</ele>
        <time>2020-02-08T14:16:00.000Z</time>
      </trkpt>
      <trkpt lat="45.30384" lon="6.1747">
        <ele>1998.1999511719</ele>
        <time>2020-02-08T14:16:01.000Z</time>
      </trkpt>
      <trkpt lat="45.30381" lon="6.17474">
        <ele>1997</ele>
        <time>2020-02-08T14:16:02.000Z</time>
      </trkpt>
      <trkpt lat="45.30379" lon="6.17478">
        <ele>1995.8000488281</ele>
        <time>2020-02-08T14:16:03.000Z</time>
      </trkpt>
      <trkpt lat="45.30376" lon="6.17483">
        <ele>1994.5999755859</ele>
        <time>2020-02-08T14:16:04.000Z</time>
      </trkpt>
      <trkpt lat="45.30374" lon="6.17488">
        <ele>1993.4000244141</ele>
        <time>2020-02-08T14:16:05.000Z</time>
      </trkpt>
      <trkpt lat="45.30371" lon="6.17495">
        <ele>1992.4000244141</ele>
        <time>2020-02-08T14:16:06.000Z</time>
      </trkpt>
      <trkpt lat="45.30367" lon="6.175">
        <ele>1991.4000244141</ele>
        <time>2020-02-08T14:16:07.000Z</time>
      </trkpt>
      <trkpt lat="45.30364" lon="6.17504">
        <ele>1990.5999755859</ele>
        <time>2020-02-08T14:16:08.000Z</time>
      </trkpt>
      <trkpt lat="45.30362" lon="6.17501">
        <ele>1987.8000488281</ele>
        <time>2020-02-08T14:16:10.000Z</time>
      </trkpt>
      <trkpt lat="45.30361" lon="6.17499">
        <ele>1986.5999755859</ele>
        <time>2020-02-08T14:16:11.000Z</time>
      </trkpt>
      <trkpt lat="45.30364" lon="6.17496">
        <ele>1985</ele>
        <time>2020-02-08T14:16:13.000Z</time>
      </trkpt>
      <trkpt lat="45.30367" lon="6.1749">
        <ele>1984.5999755859</ele>
        <time>2020-02-08T14:16:14.000Z</time>
      </trkpt>
      <trkpt lat="45.30367" lon="6.1749">
        <ele>1984</ele>
        <time>2020-02-08T14:16:18.000Z</time>
      </trkpt>
      <trkpt lat="45.30367" lon="6.1749">
        <ele>1983.5999755859</ele>
        <time>2020-02-08T14:16:26.000Z</time>
      </trkpt>
      <trkpt lat="45.30367" lon="6.1749">
        <ele>1983.5999755859</ele>
        <time>2020-02-08T14:16:37.000Z</time>
      </trkpt>
      <trkpt lat="45.30367" lon="6.1749">
        <ele>1983.5999755859</ele>
        <time>2020-02-08T14:16:48.000Z</time>
      </trkpt>
      <trkpt lat="45.30369" lon="6.17486">
        <ele>1983.5999755859</ele>
        <time>2020-02-08T14:17:06.000Z</time>
      </trkpt>
      <trkpt lat="45.30369" lon="6.17483">
        <ele>1983.5999755859</ele>
        <time>2020-02-08T14:17:10.000Z</time>
      </trkpt>
      <trkpt lat="45.30366" lon="6.17482">
        <ele>1983.4000244141</ele>
        <time>2020-02-08T14:17:12.000Z</time>
      </trkpt>
      <trkpt lat="45.30366" lon="6.17474">
        <ele>1983</ele>
        <time>2020-02-08T14:17:14.000Z</time>
      </trkpt>
      <trkpt lat="45.30366" lon="6.17474">
        <ele>1982.4000244141</ele>
        <time>2020-02-08T14:17:15.000Z</time>
      </trkpt>
      <trkpt lat="45.30366" lon="6.17474">
        <ele>1981</ele>
        <time>2020-02-08T14:17:17.000Z</time>
      </trkpt>
      <trkpt lat="45.30366" lon="6.17474">
        <ele>1980</ele>
        <time>2020-02-08T14:17:19.000Z</time>
      </trkpt>
      <trkpt lat="45.30366" lon="6.17475">
        <ele>1978.8000488281</ele>
        <time>2020-02-08T14:17:22.000Z</time>
      </trkpt>
      <trkpt lat="45.30366" lon="6.17481">
        <ele>1978.5999755859</ele>
        <time>2020-02-08T14:17:24.000Z</time>
      </trkpt>
      <trkpt lat="45.30364" lon="6.17487">
        <ele>1977.5999755859</ele>
        <time>2020-02-08T14:17:27.000Z</time>
      </trkpt>
      <trkpt lat="45.30365" lon="6.17485">
        <ele>1976.4000244141</ele>
        <time>2020-02-08T14:17:28.000Z</time>
      </trkpt>
      <trkpt lat="45.30365" lon="6.17485">
        <ele>1974.5999755859</ele>
        <time>2020-02-08T14:17:29.000Z</time>
      </trkpt>
      <trkpt lat="45.30365" lon="6.17485">
        <ele>1973</ele>
        <time>2020-02-08T14:17:30.000Z</time>
      </trkpt>
      <trkpt lat="45.30365" lon="6.17485">
        <ele>1971.5999755859</ele>
        <time>2020-02-08T14:17:31.000Z</time>
      </trkpt>
      <trkpt lat="45.30365" lon="6.17486">
        <ele>1970.4000244141</ele>
        <time>2020-02-08T14:17:33.000Z</time>
      </trkpt>
      <trkpt lat="45.30363" lon="6.17484">
        <ele>1970.1999511719</ele>
        <time>2020-02-08T14:17:34.000Z</time>
      </trkpt>
      <trkpt lat="45.30363" lon="6.17471">
        <ele>1969.4000244141</ele>
        <time>2020-02-08T14:17:37.000Z</time>
      </trkpt>
      <trkpt lat="45.30365" lon="6.17466">
        <ele>1968.8000488281</ele>
        <time>2020-02-08T14:17:38.000Z</time>
      </trkpt>
      <trkpt lat="45.30366" lon="6.17464">
        <ele>1968.1999511719</ele>
        <time>2020-02-08T14:17:39.000Z</time>
      </trkpt>
      <trkpt lat="45.30364" lon="6.17457">
        <ele>1967</ele>
        <time>2020-02-08T14:17:41.000Z</time>
      </trkpt>
      <trkpt lat="45.30362" lon="6.17451">
        <ele>1966.5999755859</ele>
        <time>2020-02-08T14:17:42.000Z</time>
      </trkpt>
      <trkpt lat="45.3036" lon="6.17444">
        <ele>1966.4000244141</ele>
        <time>2020-02-08T14:17:43.000Z</time>
      </trkpt>
      <trkpt lat="45.30354" lon="6.17428">
        <ele>1966</ele>
        <time>2020-02-08T14:17:45.000Z</time>
      </trkpt>
      <trkpt lat="45.30352" lon="6.17421">
        <ele>1964.5999755859</ele>
        <time>2020-02-08T14:17:46.000Z</time>
      </trkpt>
      <trkpt lat="45.30349" lon="6.17415">
        <ele>1963.5999755859</ele>
        <time>2020-02-08T14:17:47.000Z</time>
      </trkpt>
      <trkpt lat="45.30346" lon="6.17411">
        <ele>1962.5999755859</ele>
        <time>2020-02-08T14:17:48.000Z</time>
      </trkpt>
      <trkpt lat="45.30344" lon="6.17407">
        <ele>1961.5999755859</ele>
        <time>2020-02-08T14:17:49.000Z</time>
      </trkpt>
      <trkpt lat="45.30342" lon="6.17405">
        <ele>1960.5999755859</ele>
        <time>2020-02-08T14:17:50.000Z</time>
      </trkpt>
      <trkpt lat="45.3034" lon="6.17403">
        <ele>1959.5999755859</ele>
        <time>2020-02-08T14:17:51.000Z</time>
      </trkpt>
      <trkpt lat="45.30338" lon="6.17404">
        <ele>1958.8000488281</ele>
        <time>2020-02-08T14:17:52.000Z</time>
      </trkpt>
      <trkpt lat="45.30337" lon="6.17408">
        <ele>1958.1999511719</ele>
        <time>2020-02-08T14:17:53.000Z</time>
      </trkpt>
      <trkpt lat="45.30334" lon="6.17411">
        <ele>1957</ele>
        <time>2020-02-08T14:17:55.000Z</time>
      </trkpt>
      <trkpt lat="45.30331" lon="6.17412">
        <ele>1956.1999511719</ele>
        <time>2020-02-08T14:17:56.000Z</time>
      </trkpt>
      <trkpt lat="45.30328" lon="6.17415">
        <ele>1954.8000488281</ele>
        <time>2020-02-08T14:17:57.000Z</time>
      </trkpt>
      <trkpt lat="45.30325" lon="6.17419">
        <ele>1953.1999511719</ele>
        <time>2020-02-08T14:17:58.000Z</time>
      </trkpt>
      <trkpt lat="45.3032" lon="6.17416">
        <ele>1951.5999755859</ele>
        <time>2020-02-08T14:17:59.000Z</time>
      </trkpt>
      <trkpt lat="45.30315" lon="6.17413">
        <ele>1950</ele>
        <time>2020-02-08T14:18:00.000Z</time>
      </trkpt>
      <trkpt lat="45.3031" lon="6.17411">
        <ele>1947.8000488281</ele>
        <time>2020-02-08T14:18:01.000Z</time>
      </trkpt>
      <trkpt lat="45.30306" lon="6.17407">
        <ele>1945.1999511719</ele>
        <time>2020-02-08T14:18:02.000Z</time>
      </trkpt>
      <trkpt lat="45.30303" lon="6.17406">
        <ele>1942.5999755859</ele>
        <time>2020-02-08T14:18:03.000Z</time>
      </trkpt>
      <trkpt lat="45.303" lon="6.17405">
        <ele>1941</ele>
        <time>2020-02-08T14:18:04.000Z</time>
      </trkpt>
      <trkpt lat="45.30298" lon="6.17404">
        <ele>1939.8000488281</ele>
        <time>2020-02-08T14:18:05.000Z</time>
      </trkpt>
      <trkpt lat="45.30295" lon="6.174">
        <ele>1938.5999755859</ele>
        <time>2020-02-08T14:18:06.000Z</time>
      </trkpt>
      <trkpt lat="45.30292" lon="6.17397">
        <ele>1937.5999755859</ele>
        <time>2020-02-08T14:18:07.000Z</time>
      </trkpt>
      <trkpt lat="45.3029" lon="6.17392">
        <ele>1936.8000488281</ele>
        <time>2020-02-08T14:18:08.000Z</time>
      </trkpt>
      <trkpt lat="45.30287" lon="6.17387">
        <ele>1936.4000244141</ele>
        <time>2020-02-08T14:18:09.000Z</time>
      </trkpt>
      <trkpt lat="45.30282" lon="6.17376">
        <ele>1934.8000488281</ele>
        <time>2020-02-08T14:18:11.000Z</time>
      </trkpt>
      <trkpt lat="45.30277" lon="6.17366">
        <ele>1933.5999755859</ele>
        <time>2020-02-08T14:18:13.000Z</time>
      </trkpt>
      <trkpt lat="45.30271" lon="6.17356">
        <ele>1932.4000244141</ele>
        <time>2020-02-08T14:18:15.000Z</time>
      </trkpt>
      <trkpt lat="45.30264" lon="6.17348">
        <ele>1931</ele>
        <time>2020-02-08T14:18:18.000Z</time>
      </trkpt>
      <trkpt lat="45.30262" lon="6.17347">
        <ele>1930.5999755859</ele>
        <time>2020-02-08T14:18:19.000Z</time>
      </trkpt>
      <trkpt lat="45.30256" lon="6.17345">
        <ele>1930</ele>
        <time>2020-02-08T14:18:21.000Z</time>
      </trkpt>
      <trkpt lat="45.30252" lon="6.17343">
        <ele>1928.8000488281</ele>
        <time>2020-02-08T14:18:25.000Z</time>
      </trkpt>
      <trkpt lat="45.30253" lon="6.17341">
        <ele>1928.1999511719</ele>
        <time>2020-02-08T14:18:36.000Z</time>
      </trkpt>
      <trkpt lat="45.30253" lon="6.17346">
        <ele>1928.1999511719</ele>
        <time>2020-02-08T14:18:37.000Z</time>
      </trkpt>
      <trkpt lat="45.30251" lon="6.17357">
        <ele>1927.8000488281</ele>
        <time>2020-02-08T14:18:39.000Z</time>
      </trkpt>
      <trkpt lat="45.30249" lon="6.17365">
        <ele>1927.4000244141</ele>
        <time>2020-02-08T14:18:40.000Z</time>
      </trkpt>
      <trkpt lat="45.30251" lon="6.17374">
        <ele>1926.5999755859</ele>
        <time>2020-02-08T14:18:41.000Z</time>
      </trkpt>
      <trkpt lat="45.30257" lon="6.17381">
        <ele>1925.1999511719</ele>
        <time>2020-02-08T14:18:42.000Z</time>
      </trkpt>
      <trkpt lat="45.30257" lon="6.17387">
        <ele>1923.5999755859</ele>
        <time>2020-02-08T14:18:43.000Z</time>
      </trkpt>
      <trkpt lat="45.30256" lon="6.17393">
        <ele>1921.8000488281</ele>
        <time>2020-02-08T14:18:44.000Z</time>
      </trkpt>
      <trkpt lat="45.30252" lon="6.17397">
        <ele>1919.1999511719</ele>
        <time>2020-02-08T14:18:45.000Z</time>
      </trkpt>
      <trkpt lat="45.30247" lon="6.17397">
        <ele>1916.1999511719</ele>
        <time>2020-02-08T14:18:46.000Z</time>
      </trkpt>
      <trkpt lat="45.30241" lon="6.17394">
        <ele>1913.4000244141</ele>
        <time>2020-02-08T14:18:47.000Z</time>
      </trkpt>
      <trkpt lat="45.30237" lon="6.17392">
        <ele>1910.8000488281</ele>
        <time>2020-02-08T14:18:48.000Z</time>
      </trkpt>
      <trkpt lat="45.30232" lon="6.1739">
        <ele>1908.4000244141</ele>
        <time>2020-02-08T14:18:49.000Z</time>
      </trkpt>
      <trkpt lat="45.30228" lon="6.17387">
        <ele>1906</ele>
        <time>2020-02-08T14:18:50.000Z</time>
      </trkpt>
      <trkpt lat="45.30224" lon="6.17384">
        <ele>1904.1999511719</ele>
        <time>2020-02-08T14:18:51.000Z</time>
      </trkpt>
      <trkpt lat="45.30219" lon="6.17382">
        <ele>1902.5999755859</ele>
        <time>2020-02-08T14:18:52.000Z</time>
      </trkpt>
      <trkpt lat="45.30215" lon="6.17379">
        <ele>1901.4000244141</ele>
        <time>2020-02-08T14:18:53.000Z</time>
      </trkpt>
      <trkpt lat="45.30209" lon="6.17378">
        <ele>1900.1999511719</ele>
        <time>2020-02-08T14:18:54.000Z</time>
      </trkpt>
      <trkpt lat="45.30204" lon="6.1738">
        <ele>1899.1999511719</ele>
        <time>2020-02-08T14:18:55.000Z</time>
      </trkpt>
      <trkpt lat="45.30193" lon="6.17387">
        <ele>1897.4000244141</ele>
        <time>2020-02-08T14:18:57.000Z</time>
      </trkpt>
      <trkpt lat="45.30188" lon="6.17394">
        <ele>1895</ele>
        <time>2020-02-08T14:18:58.000Z</time>
      </trkpt>
      <trkpt lat="45.30186" lon="6.17403">
        <ele>1893.4000244141</ele>
        <time>2020-02-08T14:18:59.000Z</time>
      </trkpt>
      <trkpt lat="45.30182" lon="6.1741">
        <ele>1891.4000244141</ele>
        <time>2020-02-08T14:19:00.000Z</time>
      </trkpt>
      <trkpt lat="45.30179" lon="6.17419">
        <ele>1889</ele>
        <time>2020-02-08T14:19:01.000Z</time>
      </trkpt>
      <trkpt lat="45.30177" lon="6.17427">
        <ele>1886.1999511719</ele>
        <time>2020-02-08T14:19:02.000Z</time>
      </trkpt>
      <trkpt lat="45.30174" lon="6.17433">
        <ele>1883.5999755859</ele>
        <time>2020-02-08T14:19:03.000Z</time>
      </trkpt>
      <trkpt lat="45.30173" lon="6.17442">
        <ele>1881.4000244141</ele>
        <time>2020-02-08T14:19:04.000Z</time>
      </trkpt>
      <trkpt lat="45.30172" lon="6.1745">
        <ele>1879</ele>
        <time>2020-02-08T14:19:05.000Z</time>
      </trkpt>
      <trkpt lat="45.30169" lon="6.17454">
        <ele>1876.8000488281</ele>
        <time>2020-02-08T14:19:06.000Z</time>
      </trkpt>
      <trkpt lat="45.30169" lon="6.17454">
        <ele>1875</ele>
        <time>2020-02-08T14:19:07.000Z</time>
      </trkpt>
      <trkpt lat="45.30169" lon="6.17454">
        <ele>1873.4000244141</ele>
        <time>2020-02-08T14:19:08.000Z</time>
      </trkpt>
      <trkpt lat="45.30169" lon="6.17455">
        <ele>1872</ele>
        <time>2020-02-08T14:19:09.000Z</time>
      </trkpt>
      <trkpt lat="45.30168" lon="6.17456">
        <ele>1870.4000244141</ele>
        <time>2020-02-08T14:19:11.000Z</time>
      </trkpt>
      <trkpt lat="45.30168" lon="6.17456">
        <ele>1870</ele>
        <time>2020-02-08T14:19:12.000Z</time>
      </trkpt>
      <trkpt lat="45.30168" lon="6.17456">
        <ele>1869.4000244141</ele>
        <time>2020-02-08T14:19:15.000Z</time>
      </trkpt>
      <trkpt lat="45.30168" lon="6.17456">
        <ele>1869</ele>
        <time>2020-02-08T14:19:24.000Z</time>
      </trkpt>
      <trkpt lat="45.30159" lon="6.17465">
        <ele>1868.1999511719</ele>
        <time>2020-02-08T14:19:30.000Z</time>
      </trkpt>
      <trkpt lat="45.30156" lon="6.17469">
        <ele>1867</ele>
        <time>2020-02-08T14:19:33.000Z</time>
      </trkpt>
      <trkpt lat="45.30155" lon="6.17471">
        <ele>1866.5999755859</ele>
        <time>2020-02-08T14:19:34.000Z</time>
      </trkpt>
      <trkpt lat="45.30153" lon="6.17473">
        <ele>1866</ele>
        <time>2020-02-08T14:19:37.000Z</time>
      </trkpt>
      <trkpt lat="45.30148" lon="6.1748">
        <ele>1865.4000244141</ele>
        <time>2020-02-08T14:19:41.000Z</time>
      </trkpt>
      <trkpt lat="45.30148" lon="6.17482">
        <ele>1865.1999511719</ele>
        <time>2020-02-08T14:19:42.000Z</time>
      </trkpt>
      <trkpt lat="45.30148" lon="6.17482">
        <ele>1865</ele>
        <time>2020-02-08T14:19:44.000Z</time>
      </trkpt>
      <trkpt lat="45.30148" lon="6.17482">
        <ele>1864.8000488281</ele>
        <time>2020-02-08T14:19:45.000Z</time>
      </trkpt>
      <trkpt lat="45.30144" lon="6.17485">
        <ele>1865</ele>
        <time>2020-02-08T14:19:50.000Z</time>
      </trkpt>
      <trkpt lat="45.30135" lon="6.17488">
        <ele>1864.1999511719</ele>
        <time>2020-02-08T14:19:57.000Z</time>
      </trkpt>
      <trkpt lat="45.30134" lon="6.17488">
        <ele>1863.8000488281</ele>
        <time>2020-02-08T14:19:59.000Z</time>
      </trkpt>
      <trkpt lat="45.30132" lon="6.1749">
        <ele>1863.5999755859</ele>
        <time>2020-02-08T14:20:01.000Z</time>
      </trkpt>
      <trkpt lat="45.3013" lon="6.17494">
        <ele>1863.5999755859</ele>
        <time>2020-02-08T14:20:03.000Z</time>
      </trkpt>
      <trkpt lat="45.30115" lon="6.17508">
        <ele>1862.8000488281</ele>
        <time>2020-02-08T14:20:09.000Z</time>
      </trkpt>
      <trkpt lat="45.30112" lon="6.17513">
        <ele>1862</ele>
        <time>2020-02-08T14:20:10.000Z</time>
      </trkpt>
      <trkpt lat="45.30108" lon="6.17519">
        <ele>1861.5999755859</ele>
        <time>2020-02-08T14:20:11.000Z</time>
      </trkpt>
      <trkpt lat="45.30106" lon="6.17527">
        <ele>1861.1999511719</ele>
        <time>2020-02-08T14:20:12.000Z</time>
      </trkpt>
      <trkpt lat="45.30107" lon="6.17545">
        <ele>1860.1999511719</ele>
        <time>2020-02-08T14:20:14.000Z</time>
      </trkpt>
      <trkpt lat="45.30106" lon="6.17555">
        <ele>1859.1999511719</ele>
        <time>2020-02-08T14:20:15.000Z</time>
      </trkpt>
      <trkpt lat="45.30109" lon="6.17561">
        <ele>1858</ele>
        <time>2020-02-08T14:20:16.000Z</time>
      </trkpt>
      <trkpt lat="45.30109" lon="6.1757">
        <ele>1856.5999755859</ele>
        <time>2020-02-08T14:20:17.000Z</time>
      </trkpt>
      <trkpt lat="45.30106" lon="6.17578">
        <ele>1855</ele>
        <time>2020-02-08T14:20:18.000Z</time>
      </trkpt>
      <trkpt lat="45.30103" lon="6.17589">
        <ele>1853.1999511719</ele>
        <time>2020-02-08T14:20:19.000Z</time>
      </trkpt>
      <trkpt lat="45.30104" lon="6.17597">
        <ele>1851.1999511719</ele>
        <time>2020-02-08T14:20:20.000Z</time>
      </trkpt>
      <trkpt lat="45.30101" lon="6.17607">
        <ele>1849.1999511719</ele>
        <time>2020-02-08T14:20:21.000Z</time>
      </trkpt>
      <trkpt lat="45.30098" lon="6.17617">
        <ele>1847.4000244141</ele>
        <time>2020-02-08T14:20:22.000Z</time>
      </trkpt>
      <trkpt lat="45.30097" lon="6.17628">
        <ele>1845.5999755859</ele>
        <time>2020-02-08T14:20:23.000Z</time>
      </trkpt>
      <trkpt lat="45.30094" lon="6.17637">
        <ele>1843.4000244141</ele>
        <time>2020-02-08T14:20:24.000Z</time>
      </trkpt>
      <trkpt lat="45.3009" lon="6.17646">
        <ele>1841.1999511719</ele>
        <time>2020-02-08T14:20:25.000Z</time>
      </trkpt>
      <trkpt lat="45.30087" lon="6.17656">
        <ele>1839.1999511719</ele>
        <time>2020-02-08T14:20:26.000Z</time>
      </trkpt>
      <trkpt lat="45.30086" lon="6.17666">
        <ele>1837.1999511719</ele>
        <time>2020-02-08T14:20:27.000Z</time>
      </trkpt>
      <trkpt lat="45.30085" lon="6.17678">
        <ele>1835.4000244141</ele>
        <time>2020-02-08T14:20:28.000Z</time>
      </trkpt>
      <trkpt lat="45.30082" lon="6.17688">
        <ele>1833.5999755859</ele>
        <time>2020-02-08T14:20:29.000Z</time>
      </trkpt>
      <trkpt lat="45.3008" lon="6.17697">
        <ele>1831.8000488281</ele>
        <time>2020-02-08T14:20:30.000Z</time>
      </trkpt>
      <trkpt lat="45.30077" lon="6.17701">
        <ele>1830</ele>
        <time>2020-02-08T14:20:31.000Z</time>
      </trkpt>
      <trkpt lat="45.30073" lon="6.17705">
        <ele>1828.4000244141</ele>
        <time>2020-02-08T14:20:32.000Z</time>
      </trkpt>
      <trkpt lat="45.3007" lon="6.17708">
        <ele>1827</ele>
        <time>2020-02-08T14:20:33.000Z</time>
      </trkpt>
      <trkpt lat="45.30068" lon="6.17712">
        <ele>1824.8000488281</ele>
        <time>2020-02-08T14:20:34.000Z</time>
      </trkpt>
      <trkpt lat="45.30063" lon="6.17717">
        <ele>1823.4000244141</ele>
        <time>2020-02-08T14:20:36.000Z</time>
      </trkpt>
      <trkpt lat="45.30061" lon="6.17719">
        <ele>1823</ele>
        <time>2020-02-08T14:20:37.000Z</time>
      </trkpt>
      <trkpt lat="45.30057" lon="6.17723">
        <ele>1822</ele>
        <time>2020-02-08T14:20:39.000Z</time>
      </trkpt>
      <trkpt lat="45.30053" lon="6.17727">
        <ele>1821.4000244141</ele>
        <time>2020-02-08T14:20:43.000Z</time>
      </trkpt>
      <trkpt lat="45.30051" lon="6.17726">
        <ele>1821</ele>
        <time>2020-02-08T14:20:45.000Z</time>
      </trkpt>
      <trkpt lat="45.30052" lon="6.17727">
        <ele>1820.8000488281</ele>
        <time>2020-02-08T14:20:47.000Z</time>
      </trkpt>
      <trkpt lat="45.30054" lon="6.17727">
        <ele>1820.5999755859</ele>
        <time>2020-02-08T14:20:50.000Z</time>
      </trkpt>
      <trkpt lat="45.30055" lon="6.17727">
        <ele>1819.8000488281</ele>
        <time>2020-02-08T14:20:55.000Z</time>
      </trkpt>
      <trkpt lat="45.30055" lon="6.17727">
        <ele>1819.1999511719</ele>
        <time>2020-02-08T14:20:59.000Z</time>
      </trkpt>
      <trkpt lat="45.30055" lon="6.17727">
        <ele>1819.1999511719</ele>
        <time>2020-02-08T14:21:12.000Z</time>
      </trkpt>
      <trkpt lat="45.30055" lon="6.17728">
        <ele>1819.1999511719</ele>
        <time>2020-02-08T14:21:32.000Z</time>
      </trkpt>
      <trkpt lat="45.30055" lon="6.17728">
        <ele>1819.1999511719</ele>
        <time>2020-02-08T14:21:37.000Z</time>
      </trkpt>
      <trkpt lat="45.30055" lon="6.17728">
        <ele>1819.4000244141</ele>
        <time>2020-02-08T14:21:48.000Z</time>
      </trkpt>
      <trkpt lat="45.30057" lon="6.17728">
        <ele>1819.1999511719</ele>
        <time>2020-02-08T14:22:14.000Z</time>
      </trkpt>
      <trkpt lat="45.30057" lon="6.17728">
        <ele>1819.4000244141</ele>
        <time>2020-02-08T14:22:29.000Z</time>
      </trkpt>
      <trkpt lat="45.30057" lon="6.17728">
        <ele>1819.4000244141</ele>
        <time>2020-02-08T14:22:46.000Z</time>
      </trkpt>
      <trkpt lat="45.30059" lon="6.17733">
        <ele>1819.4000244141</ele>
        <time>2020-02-08T14:22:47.000Z</time>
      </trkpt>
      <trkpt lat="45.30059" lon="6.17748">
        <ele>1819.1999511719</ele>
        <time>2020-02-08T14:22:49.000Z</time>
      </trkpt>
      <trkpt lat="45.30058" lon="6.17761">
        <ele>1818.4000244141</ele>
        <time>2020-02-08T14:22:51.000Z</time>
      </trkpt>
      <trkpt lat="45.30057" lon="6.1777">
        <ele>1817.8000488281</ele>
        <time>2020-02-08T14:22:52.000Z</time>
      </trkpt>
      <trkpt lat="45.30056" lon="6.17777">
        <ele>1817.1999511719</ele>
        <time>2020-02-08T14:22:53.000Z</time>
      </trkpt>
      <trkpt lat="45.30055" lon="6.17784">
        <ele>1816.4000244141</ele>
        <time>2020-02-08T14:22:54.000Z</time>
      </trkpt>
      <trkpt lat="45.30055" lon="6.17792">
        <ele>1815.5999755859</ele>
        <time>2020-02-08T14:22:55.000Z</time>
      </trkpt>
      <trkpt lat="45.30059" lon="6.17799">
        <ele>1814.5999755859</ele>
        <time>2020-02-08T14:22:56.000Z</time>
      </trkpt>
      <trkpt lat="45.30062" lon="6.17808">
        <ele>1813.8000488281</ele>
        <time>2020-02-08T14:22:57.000Z</time>
      </trkpt>
      <trkpt lat="45.30062" lon="6.17819">
        <ele>1811.8000488281</ele>
        <time>2020-02-08T14:22:58.000Z</time>
      </trkpt>
      <trkpt lat="45.30061" lon="6.17829">
        <ele>1810.5999755859</ele>
        <time>2020-02-08T14:22:59.000Z</time>
      </trkpt>
      <trkpt lat="45.30059" lon="6.17836">
        <ele>1809</ele>
        <time>2020-02-08T14:23:00.000Z</time>
      </trkpt>
      <trkpt lat="45.30062" lon="6.17842">
        <ele>1807.4000244141</ele>
        <time>2020-02-08T14:23:01.000Z</time>
      </trkpt>
      <trkpt lat="45.30065" lon="6.17851">
        <ele>1806</ele>
        <time>2020-02-08T14:23:02.000Z</time>
      </trkpt>
      <trkpt lat="45.30065" lon="6.1786">
        <ele>1804.4000244141</ele>
        <time>2020-02-08T14:23:03.000Z</time>
      </trkpt>
      <trkpt lat="45.30064" lon="6.17869">
        <ele>1803</ele>
        <time>2020-02-08T14:23:04.000Z</time>
      </trkpt>
      <trkpt lat="45.30062" lon="6.17878">
        <ele>1801.4000244141</ele>
        <time>2020-02-08T14:23:05.000Z</time>
      </trkpt>
      <trkpt lat="45.3006" lon="6.17886">
        <ele>1799.8000488281</ele>
        <time>2020-02-08T14:23:06.000Z</time>
      </trkpt>
      <trkpt lat="45.30057" lon="6.17894">
        <ele>1798.1999511719</ele>
        <time>2020-02-08T14:23:07.000Z</time>
      </trkpt>
      <trkpt lat="45.30055" lon="6.17902">
        <ele>1796.4000244141</ele>
        <time>2020-02-08T14:23:08.000Z</time>
      </trkpt>
      <trkpt lat="45.30052" lon="6.17909">
        <ele>1794.8000488281</ele>
        <time>2020-02-08T14:23:09.000Z</time>
      </trkpt>
      <trkpt lat="45.30049" lon="6.17917">
        <ele>1793.1999511719</ele>
        <time>2020-02-08T14:23:10.000Z</time>
      </trkpt>
      <trkpt lat="45.30046" lon="6.17925">
        <ele>1792</ele>
        <time>2020-02-08T14:23:11.000Z</time>
      </trkpt>
      <trkpt lat="45.30044" lon="6.17933">
        <ele>1791</ele>
        <time>2020-02-08T14:23:12.000Z</time>
      </trkpt>
      <trkpt lat="45.30039" lon="6.17947">
        <ele>1789.1999511719</ele>
        <time>2020-02-08T14:23:14.000Z</time>
      </trkpt>
      <trkpt lat="45.30034" lon="6.1796">
        <ele>1787.5999755859</ele>
        <time>2020-02-08T14:23:16.000Z</time>
      </trkpt>
      <trkpt lat="45.30028" lon="6.17974">
        <ele>1786</ele>
        <time>2020-02-08T14:23:18.000Z</time>
      </trkpt>
      <trkpt lat="45.30026" lon="6.17978">
        <ele>1785.4000244141</ele>
        <time>2020-02-08T14:23:19.000Z</time>
      </trkpt>
      <trkpt lat="45.30024" lon="6.1798">
        <ele>1784.8000488281</ele>
        <time>2020-02-08T14:23:20.000Z</time>
      </trkpt>
      <trkpt lat="45.30023" lon="6.1798">
        <ele>1784</ele>
        <time>2020-02-08T14:23:21.000Z</time>
      </trkpt>
      <trkpt lat="45.30023" lon="6.17979">
        <ele>1782.5999755859</ele>
        <time>2020-02-08T14:23:22.000Z</time>
      </trkpt>
      <trkpt lat="45.30023" lon="6.17978">
        <ele>1781.5999755859</ele>
        <time>2020-02-08T14:23:25.000Z</time>
      </trkpt>
      <trkpt lat="45.30023" lon="6.17978">
        <ele>1781.4000244141</ele>
        <time>2020-02-08T14:23:26.000Z</time>
      </trkpt>
      <trkpt lat="45.30022" lon="6.17979">
        <ele>1781.1999511719</ele>
        <time>2020-02-08T14:23:29.000Z</time>
      </trkpt>
      <trkpt lat="45.30021" lon="6.17984">
        <ele>1781.1999511719</ele>
        <time>2020-02-08T14:23:31.000Z</time>
      </trkpt>
      <trkpt lat="45.30027" lon="6.17993">
        <ele>1781.1999511719</ele>
        <time>2020-02-08T14:23:33.000Z</time>
      </trkpt>
      <trkpt lat="45.30025" lon="6.18008">
        <ele>1780.5999755859</ele>
        <time>2020-02-08T14:23:35.000Z</time>
      </trkpt>
      <trkpt lat="45.30028" lon="6.18014">
        <ele>1779.4000244141</ele>
        <time>2020-02-08T14:23:36.000Z</time>
      </trkpt>
      <trkpt lat="45.30029" lon="6.18023">
        <ele>1778</ele>
        <time>2020-02-08T14:23:37.000Z</time>
      </trkpt>
      <trkpt lat="45.30026" lon="6.18032">
        <ele>1776.4000244141</ele>
        <time>2020-02-08T14:23:38.000Z</time>
      </trkpt>
      <trkpt lat="45.30022" lon="6.18041">
        <ele>1775</ele>
        <time>2020-02-08T14:23:39.000Z</time>
      </trkpt>
      <trkpt lat="45.30018" lon="6.18052">
        <ele>1773.1999511719</ele>
        <time>2020-02-08T14:23:40.000Z</time>
      </trkpt>
      <trkpt lat="45.30014" lon="6.18061">
        <ele>1771</ele>
        <time>2020-02-08T14:23:41.000Z</time>
      </trkpt>
      <trkpt lat="45.3001" lon="6.18069">
        <ele>1768.8000488281</ele>
        <time>2020-02-08T14:23:42.000Z</time>
      </trkpt>
      <trkpt lat="45.30006" lon="6.18077">
        <ele>1766.5999755859</ele>
        <time>2020-02-08T14:23:43.000Z</time>
      </trkpt>
      <trkpt lat="45.30003" lon="6.18084">
        <ele>1764.5999755859</ele>
        <time>2020-02-08T14:23:44.000Z</time>
      </trkpt>
      <trkpt lat="45.30005" lon="6.1809">
        <ele>1762.4000244141</ele>
        <time>2020-02-08T14:23:45.000Z</time>
      </trkpt>
      <trkpt lat="45.30007" lon="6.18097">
        <ele>1759.1999511719</ele>
        <time>2020-02-08T14:23:46.000Z</time>
      </trkpt>
      <trkpt lat="45.30009" lon="6.18104">
        <ele>1758.1999511719</ele>
        <time>2020-02-08T14:23:47.000Z</time>
      </trkpt>
      <trkpt lat="45.30011" lon="6.18113">
        <ele>1757</ele>
        <time>2020-02-08T14:23:48.000Z</time>
      </trkpt>
      <trkpt lat="45.30014" lon="6.18122">
        <ele>1755.4000244141</ele>
        <time>2020-02-08T14:23:49.000Z</time>
      </trkpt>
      <trkpt lat="45.30017" lon="6.1813">
        <ele>1753.8000488281</ele>
        <time>2020-02-08T14:23:50.000Z</time>
      </trkpt>
      <trkpt lat="45.30017" lon="6.18139">
        <ele>1752</ele>
        <time>2020-02-08T14:23:51.000Z</time>
      </trkpt>
      <trkpt lat="45.30017" lon="6.18149">
        <ele>1749.5999755859</ele>
        <time>2020-02-08T14:23:52.000Z</time>
      </trkpt>
      <trkpt lat="45.30016" lon="6.18157">
        <ele>1747</ele>
        <time>2020-02-08T14:23:53.000Z</time>
      </trkpt>
      <trkpt lat="45.30016" lon="6.18166">
        <ele>1744.5999755859</ele>
        <time>2020-02-08T14:23:54.000Z</time>
      </trkpt>
      <trkpt lat="45.30016" lon="6.18176">
        <ele>1742.4000244141</ele>
        <time>2020-02-08T14:23:55.000Z</time>
      </trkpt>
      <trkpt lat="45.30014" lon="6.18186">
        <ele>1740.4000244141</ele>
        <time>2020-02-08T14:23:56.000Z</time>
      </trkpt>
      <trkpt lat="45.30012" lon="6.18196">
        <ele>1738.1999511719</ele>
        <time>2020-02-08T14:23:57.000Z</time>
      </trkpt>
      <trkpt lat="45.30007" lon="6.18204">
        <ele>1736.1999511719</ele>
        <time>2020-02-08T14:23:58.000Z</time>
      </trkpt>
      <trkpt lat="45.30005" lon="6.18214">
        <ele>1734.1999511719</ele>
        <time>2020-02-08T14:23:59.000Z</time>
      </trkpt>
      <trkpt lat="45.30001" lon="6.18222">
        <ele>1732.1999511719</ele>
        <time>2020-02-08T14:24:00.000Z</time>
      </trkpt>
      <trkpt lat="45.29997" lon="6.18228">
        <ele>1730</ele>
        <time>2020-02-08T14:24:01.000Z</time>
      </trkpt>
      <trkpt lat="45.29993" lon="6.18237">
        <ele>1728</ele>
        <time>2020-02-08T14:24:02.000Z</time>
      </trkpt>
      <trkpt lat="45.29989" lon="6.18244">
        <ele>1726.1999511719</ele>
        <time>2020-02-08T14:24:03.000Z</time>
      </trkpt>
      <trkpt lat="45.29984" lon="6.18252">
        <ele>1724.4000244141</ele>
        <time>2020-02-08T14:24:04.000Z</time>
      </trkpt>
      <trkpt lat="45.29979" lon="6.1826">
        <ele>1722.8000488281</ele>
        <time>2020-02-08T14:24:05.000Z</time>
      </trkpt>
      <trkpt lat="45.29978" lon="6.1827">
        <ele>1721.1999511719</ele>
        <time>2020-02-08T14:24:06.000Z</time>
      </trkpt>
      <trkpt lat="45.29975" lon="6.18281">
        <ele>1719.8000488281</ele>
        <time>2020-02-08T14:24:07.000Z</time>
      </trkpt>
      <trkpt lat="45.29972" lon="6.18293">
        <ele>1718.4000244141</ele>
        <time>2020-02-08T14:24:08.000Z</time>
      </trkpt>
      <trkpt lat="45.29968" lon="6.18305">
        <ele>1717</ele>
        <time>2020-02-08T14:24:09.000Z</time>
      </trkpt>
      <trkpt lat="45.29966" lon="6.18319">
        <ele>1714.4000244141</ele>
        <time>2020-02-08T14:24:10.000Z</time>
      </trkpt>
      <trkpt lat="45.29963" lon="6.18332">
        <ele>1712.5999755859</ele>
        <time>2020-02-08T14:24:11.000Z</time>
      </trkpt>
      <trkpt lat="45.29963" lon="6.18347">
        <ele>1711</ele>
        <time>2020-02-08T14:24:12.000Z</time>
      </trkpt>
      <trkpt lat="45.2996" lon="6.18361">
        <ele>1709.1999511719</ele>
        <time>2020-02-08T14:24:13.000Z</time>
      </trkpt>
      <trkpt lat="45.2996" lon="6.18376">
        <ele>1707.1999511719</ele>
        <time>2020-02-08T14:24:14.000Z</time>
      </trkpt>
      <trkpt lat="45.29958" lon="6.18391">
        <ele>1705.1999511719</ele>
        <time>2020-02-08T14:24:15.000Z</time>
      </trkpt>
      <trkpt lat="45.29956" lon="6.18406">
        <ele>1703.1999511719</ele>
        <time>2020-02-08T14:24:16.000Z</time>
      </trkpt>
      <trkpt lat="45.29956" lon="6.1842">
        <ele>1701.1999511719</ele>
        <time>2020-02-08T14:24:17.000Z</time>
      </trkpt>
      <trkpt lat="45.29955" lon="6.18434">
        <ele>1699.4000244141</ele>
        <time>2020-02-08T14:24:18.000Z</time>
      </trkpt>
      <trkpt lat="45.29953" lon="6.18445">
        <ele>1697.4000244141</ele>
        <time>2020-02-08T14:24:19.000Z</time>
      </trkpt>
      <trkpt lat="45.29952" lon="6.18456">
        <ele>1695.5999755859</ele>
        <time>2020-02-08T14:24:20.000Z</time>
      </trkpt>
      <trkpt lat="45.29951" lon="6.18464">
        <ele>1693.8000488281</ele>
        <time>2020-02-08T14:24:21.000Z</time>
      </trkpt>
      <trkpt lat="45.29949" lon="6.18472">
        <ele>1692.4000244141</ele>
        <time>2020-02-08T14:24:22.000Z</time>
      </trkpt>
      <trkpt lat="45.29948" lon="6.18478">
        <ele>1691.1999511719</ele>
        <time>2020-02-08T14:24:23.000Z</time>
      </trkpt>
      <trkpt lat="45.29947" lon="6.18484">
        <ele>1690.1999511719</ele>
        <time>2020-02-08T14:24:24.000Z</time>
      </trkpt>
      <trkpt lat="45.29946" lon="6.18488">
        <ele>1689.4000244141</ele>
        <time>2020-02-08T14:24:25.000Z</time>
      </trkpt>
      <trkpt lat="45.29945" lon="6.18492">
        <ele>1688.8000488281</ele>
        <time>2020-02-08T14:24:26.000Z</time>
      </trkpt>
      <trkpt lat="45.29946" lon="6.18502">
        <ele>1687.5999755859</ele>
        <time>2020-02-08T14:24:29.000Z</time>
      </trkpt>
      <trkpt lat="45.29946" lon="6.18505">
        <ele>1686.5999755859</ele>
        <time>2020-02-08T14:24:34.000Z</time>
      </trkpt>
      <trkpt lat="45.29946" lon="6.18505">
        <ele>1686.5999755859</ele>
        <time>2020-02-08T14:24:39.000Z</time>
      </trkpt>
      <trkpt lat="45.29946" lon="6.18505">
        <ele>1686.5999755859</ele>
        <time>2020-02-08T14:24:48.000Z</time>
      </trkpt>
      <trkpt lat="45.29946" lon="6.18505">
        <ele>1686.4000244141</ele>
        <time>2020-02-08T14:25:03.000Z</time>
      </trkpt>
      <trkpt lat="45.29948" lon="6.18508">
        <ele>1686.4000244141</ele>
        <time>2020-02-08T14:25:07.000Z</time>
      </trkpt>
      <trkpt lat="45.29952" lon="6.18512">
        <ele>1686.4000244141</ele>
        <time>2020-02-08T14:25:08.000Z</time>
      </trkpt>
      <trkpt lat="45.29955" lon="6.18523">
        <ele>1686.1999511719</ele>
        <time>2020-02-08T14:25:10.000Z</time>
      </trkpt>
      <trkpt lat="45.29953" lon="6.18528">
        <ele>1686</ele>
        <time>2020-02-08T14:25:11.000Z</time>
      </trkpt>
      <trkpt lat="45.29958" lon="6.18543">
        <ele>1685</ele>
        <time>2020-02-08T14:25:13.000Z</time>
      </trkpt>
      <trkpt lat="45.29956" lon="6.18551">
        <ele>1684.1999511719</ele>
        <time>2020-02-08T14:25:14.000Z</time>
      </trkpt>
      <trkpt lat="45.29952" lon="6.18558">
        <ele>1683.1999511719</ele>
        <time>2020-02-08T14:25:15.000Z</time>
      </trkpt>
      <trkpt lat="45.29949" lon="6.18567">
        <ele>1682</ele>
        <time>2020-02-08T14:25:16.000Z</time>
      </trkpt>
      <trkpt lat="45.29944" lon="6.18575">
        <ele>1680.5999755859</ele>
        <time>2020-02-08T14:25:17.000Z</time>
      </trkpt>
      <trkpt lat="45.29939" lon="6.18584">
        <ele>1678.8000488281</ele>
        <time>2020-02-08T14:25:18.000Z</time>
      </trkpt>
      <trkpt lat="45.29935" lon="6.18594">
        <ele>1677.1999511719</ele>
        <time>2020-02-08T14:25:19.000Z</time>
      </trkpt>
      <trkpt lat="45.29933" lon="6.18605">
        <ele>1675.4000244141</ele>
        <time>2020-02-08T14:25:20.000Z</time>
      </trkpt>
      <trkpt lat="45.2993" lon="6.18612">
        <ele>1673.5999755859</ele>
        <time>2020-02-08T14:25:21.000Z</time>
      </trkpt>
      <trkpt lat="45.29926" lon="6.18617">
        <ele>1669.8000488281</ele>
        <time>2020-02-08T14:25:22.000Z</time>
      </trkpt>
      <trkpt lat="45.29924" lon="6.18622">
        <ele>1668.1999511719</ele>
        <time>2020-02-08T14:25:23.000Z</time>
      </trkpt>
      <trkpt lat="45.29922" lon="6.18626">
        <ele>1666.8000488281</ele>
        <time>2020-02-08T14:25:24.000Z</time>
      </trkpt>
      <trkpt lat="45.29921" lon="6.18632">
        <ele>1665.5999755859</ele>
        <time>2020-02-08T14:25:25.000Z</time>
      </trkpt>
      <trkpt lat="45.29919" lon="6.18643">
        <ele>1664.1999511719</ele>
        <time>2020-02-08T14:25:27.000Z</time>
      </trkpt>
      <trkpt lat="45.29919" lon="6.18651">
        <ele>1663.1999511719</ele>
        <time>2020-02-08T14:25:29.000Z</time>
      </trkpt>
      <trkpt lat="45.29919" lon="6.18653">
        <ele>1662.4000244141</ele>
        <time>2020-02-08T14:25:30.000Z</time>
      </trkpt>
      <trkpt lat="45.29919" lon="6.18655">
        <ele>1662</ele>
        <time>2020-02-08T14:25:31.000Z</time>
      </trkpt>
      <trkpt lat="45.29917" lon="6.18665">
        <ele>1661.4000244141</ele>
        <time>2020-02-08T14:25:34.000Z</time>
      </trkpt>
      <trkpt lat="45.29916" lon="6.18671">
        <ele>1661.1999511719</ele>
        <time>2020-02-08T14:25:35.000Z</time>
      </trkpt>
      <trkpt lat="45.29916" lon="6.18676">
        <ele>1661</ele>
        <time>2020-02-08T14:25:36.000Z</time>
      </trkpt>
      <trkpt lat="45.29913" lon="6.18686">
        <ele>1660</ele>
        <time>2020-02-08T14:25:39.000Z</time>
      </trkpt>
      <trkpt lat="45.29912" lon="6.18688">
        <ele>1659</ele>
        <time>2020-02-08T14:25:41.000Z</time>
      </trkpt>
      <trkpt lat="45.29913" lon="6.18688">
        <ele>1658</ele>
        <time>2020-02-08T14:25:45.000Z</time>
      </trkpt>
      <trkpt lat="45.29913" lon="6.18688">
        <ele>1657.8000488281</ele>
        <time>2020-02-08T14:25:46.000Z</time>
      </trkpt>
      <trkpt lat="45.29912" lon="6.18689">
        <ele>1657.8000488281</ele>
        <time>2020-02-08T14:25:47.000Z</time>
      </trkpt>
      <trkpt lat="45.29912" lon="6.18698">
        <ele>1657.5999755859</ele>
        <time>2020-02-08T14:25:49.000Z</time>
      </trkpt>
      <trkpt lat="45.2991" lon="6.18717">
        <ele>1656.8000488281</ele>
        <time>2020-02-08T14:25:53.000Z</time>
      </trkpt>
      <trkpt lat="45.29909" lon="6.18723">
        <ele>1656.4000244141</ele>
        <time>2020-02-08T14:25:54.000Z</time>
      </trkpt>
      <trkpt lat="45.29908" lon="6.18729">
        <ele>1655.4000244141</ele>
        <time>2020-02-08T14:25:57.000Z</time>
      </trkpt>
      <trkpt lat="45.29908" lon="6.18728">
        <ele>1654.1999511719</ele>
        <time>2020-02-08T14:26:00.000Z</time>
      </trkpt>
      <trkpt lat="45.29908" lon="6.18728">
        <ele>1653.5999755859</ele>
        <time>2020-02-08T14:26:04.000Z</time>
      </trkpt>
      <trkpt lat="45.29908" lon="6.18728">
        <ele>1653.4000244141</ele>
        <time>2020-02-08T14:26:20.000Z</time>
      </trkpt>
      <trkpt lat="45.29909" lon="6.18731">
        <ele>1653.1999511719</ele>
        <time>2020-02-08T14:26:37.000Z</time>
      </trkpt>
      <trkpt lat="45.29911" lon="6.18735">
        <ele>1653.1999511719</ele>
        <time>2020-02-08T14:26:38.000Z</time>
      </trkpt>
      <trkpt lat="45.29919" lon="6.18735">
        <ele>1653</ele>
        <time>2020-02-08T14:26:40.000Z</time>
      </trkpt>
      <trkpt lat="45.29931" lon="6.18744">
        <ele>1651.1999511719</ele>
        <time>2020-02-08T14:26:43.000Z</time>
      </trkpt>
      <trkpt lat="45.29936" lon="6.18745">
        <ele>1649.8000488281</ele>
        <time>2020-02-08T14:26:44.000Z</time>
      </trkpt>
      <trkpt lat="45.29941" lon="6.18748">
        <ele>1648.5999755859</ele>
        <time>2020-02-08T14:26:45.000Z</time>
      </trkpt>
      <trkpt lat="45.29946" lon="6.18752">
        <ele>1647.1999511719</ele>
        <time>2020-02-08T14:26:46.000Z</time>
      </trkpt>
      <trkpt lat="45.2995" lon="6.18756">
        <ele>1645.4000244141</ele>
        <time>2020-02-08T14:26:47.000Z</time>
      </trkpt>
      <trkpt lat="45.29953" lon="6.18761">
        <ele>1643.1999511719</ele>
        <time>2020-02-08T14:26:48.000Z</time>
      </trkpt>
      <trkpt lat="45.29953" lon="6.18767">
        <ele>1641.4000244141</ele>
        <time>2020-02-08T14:26:49.000Z</time>
      </trkpt>
      <trkpt lat="45.29955" lon="6.18771">
        <ele>1639.8000488281</ele>
        <time>2020-02-08T14:26:50.000Z</time>
      </trkpt>
      <trkpt lat="45.29959" lon="6.18772">
        <ele>1638</ele>
        <time>2020-02-08T14:26:51.000Z</time>
      </trkpt>
      <trkpt lat="45.29963" lon="6.18773">
        <ele>1636</ele>
        <time>2020-02-08T14:26:52.000Z</time>
      </trkpt>
      <trkpt lat="45.29965" lon="6.18775">
        <ele>1634.1999511719</ele>
        <time>2020-02-08T14:26:53.000Z</time>
      </trkpt>
      <trkpt lat="45.29966" lon="6.18776">
        <ele>1632.5999755859</ele>
        <time>2020-02-08T14:26:54.000Z</time>
      </trkpt>
      <trkpt lat="45.29968" lon="6.18782">
        <ele>1630.5999755859</ele>
        <time>2020-02-08T14:26:55.000Z</time>
      </trkpt>
      <trkpt lat="45.29971" lon="6.18783">
        <ele>1628.8000488281</ele>
        <time>2020-02-08T14:26:56.000Z</time>
      </trkpt>
      <trkpt lat="45.29973" lon="6.18785">
        <ele>1627.4000244141</ele>
        <time>2020-02-08T14:26:57.000Z</time>
      </trkpt>
      <trkpt lat="45.29973" lon="6.18789">
        <ele>1625.4000244141</ele>
        <time>2020-02-08T14:26:58.000Z</time>
      </trkpt>
      <trkpt lat="45.29971" lon="6.18795">
        <ele>1624.1999511719</ele>
        <time>2020-02-08T14:26:59.000Z</time>
      </trkpt>
      <trkpt lat="45.29969" lon="6.18802">
        <ele>1622.5999755859</ele>
        <time>2020-02-08T14:27:00.000Z</time>
      </trkpt>
      <trkpt lat="45.2997" lon="6.1881">
        <ele>1621.1999511719</ele>
        <time>2020-02-08T14:27:01.000Z</time>
      </trkpt>
      <trkpt lat="45.2997" lon="6.18814">
        <ele>1620</ele>
        <time>2020-02-08T14:27:02.000Z</time>
      </trkpt>
      <trkpt lat="45.29972" lon="6.18817">
        <ele>1618.8000488281</ele>
        <time>2020-02-08T14:27:03.000Z</time>
      </trkpt>
      <trkpt lat="45.29972" lon="6.18821">
        <ele>1617.5999755859</ele>
        <time>2020-02-08T14:27:04.000Z</time>
      </trkpt>
      <trkpt lat="45.29973" lon="6.18823">
        <ele>1616.1999511719</ele>
        <time>2020-02-08T14:27:05.000Z</time>
      </trkpt>
      <trkpt lat="45.29973" lon="6.18828">
        <ele>1614.4000244141</ele>
        <time>2020-02-08T14:27:06.000Z</time>
      </trkpt>
      <trkpt lat="45.29974" lon="6.18833">
        <ele>1612.1999511719</ele>
        <time>2020-02-08T14:27:07.000Z</time>
      </trkpt>
      <trkpt lat="45.29975" lon="6.18839">
        <ele>1610.1999511719</ele>
        <time>2020-02-08T14:27:08.000Z</time>
      </trkpt>
      <trkpt lat="45.29977" lon="6.18842">
        <ele>1608.4000244141</ele>
        <time>2020-02-08T14:27:09.000Z</time>
      </trkpt>
      <trkpt lat="45.29977" lon="6.18848">
        <ele>1607</ele>
        <time>2020-02-08T14:27:10.000Z</time>
      </trkpt>
      <trkpt lat="45.29978" lon="6.18855">
        <ele>1605.8000488281</ele>
        <time>2020-02-08T14:27:11.000Z</time>
      </trkpt>
      <trkpt lat="45.2998" lon="6.18862">
        <ele>1604.4000244141</ele>
        <time>2020-02-08T14:27:12.000Z</time>
      </trkpt>
      <trkpt lat="45.29982" lon="6.18878">
        <ele>1599</ele>
        <time>2020-02-08T14:27:15.000Z</time>
      </trkpt>
      <trkpt lat="45.29984" lon="6.18876">
        <ele>1597.5999755859</ele>
        <time>2020-02-08T14:27:16.000Z</time>
      </trkpt>
      <trkpt lat="45.29984" lon="6.18875">
        <ele>1596.4000244141</ele>
        <time>2020-02-08T14:27:17.000Z</time>
      </trkpt>
      <trkpt lat="45.29984" lon="6.18875">
        <ele>1595.1999511719</ele>
        <time>2020-02-08T14:27:18.000Z</time>
      </trkpt>
      <trkpt lat="45.29984" lon="6.18875">
        <ele>1594.1999511719</ele>
        <time>2020-02-08T14:27:20.000Z</time>
      </trkpt>
      <trkpt lat="45.29984" lon="6.18876">
        <ele>1593.1999511719</ele>
        <time>2020-02-08T14:27:34.000Z</time>
      </trkpt>
      <trkpt lat="45.29983" lon="6.18879">
        <ele>1593.1999511719</ele>
        <time>2020-02-08T14:27:36.000Z</time>
      </trkpt>
      <trkpt lat="45.29979" lon="6.18891">
        <ele>1593.1999511719</ele>
        <time>2020-02-08T14:27:39.000Z</time>
      </trkpt>
      <trkpt lat="45.29979" lon="6.18896">
        <ele>1593</ele>
        <time>2020-02-08T14:27:40.000Z</time>
      </trkpt>
      <trkpt lat="45.29976" lon="6.189">
        <ele>1592.8000488281</ele>
        <time>2020-02-08T14:27:41.000Z</time>
      </trkpt>
      <trkpt lat="45.29976" lon="6.18905">
        <ele>1592.4000244141</ele>
        <time>2020-02-08T14:27:42.000Z</time>
      </trkpt>
      <trkpt lat="45.29976" lon="6.1891">
        <ele>1592</ele>
        <time>2020-02-08T14:27:43.000Z</time>
      </trkpt>
      <trkpt lat="45.29978" lon="6.18916">
        <ele>1591</ele>
        <time>2020-02-08T14:27:45.000Z</time>
      </trkpt>
      <trkpt lat="45.29978" lon="6.18918">
        <ele>1590.5999755859</ele>
        <time>2020-02-08T14:27:46.000Z</time>
      </trkpt>
      <trkpt lat="45.29973" lon="6.18929">
        <ele>1590.4000244141</ele>
        <time>2020-02-08T14:27:50.000Z</time>
      </trkpt>
      <trkpt lat="45.29969" lon="6.18938">
        <ele>1589.5999755859</ele>
        <time>2020-02-08T14:27:53.000Z</time>
      </trkpt>
      <trkpt lat="45.29966" lon="6.18945">
        <ele>1589.1999511719</ele>
        <time>2020-02-08T14:27:55.000Z</time>
      </trkpt>
      <trkpt lat="45.29966" lon="6.18948">
        <ele>1589</ele>
        <time>2020-02-08T14:27:56.000Z</time>
      </trkpt>
      <trkpt lat="45.29961" lon="6.18961">
        <ele>1588.5999755859</ele>
        <time>2020-02-08T14:27:58.000Z</time>
      </trkpt>
      <trkpt lat="45.29955" lon="6.18966">
        <ele>1588.1999511719</ele>
        <time>2020-02-08T14:27:59.000Z</time>
      </trkpt>
      <trkpt lat="45.29943" lon="6.18979">
        <ele>1587.4000244141</ele>
        <time>2020-02-08T14:28:01.000Z</time>
      </trkpt>
      <trkpt lat="45.29938" lon="6.18986">
        <ele>1586.5999755859</ele>
        <time>2020-02-08T14:28:02.000Z</time>
      </trkpt>
      <trkpt lat="45.29934" lon="6.18993">
        <ele>1585.8000488281</ele>
        <time>2020-02-08T14:28:03.000Z</time>
      </trkpt>
      <trkpt lat="45.29925" lon="6.19007">
        <ele>1584</ele>
        <time>2020-02-08T14:28:05.000Z</time>
      </trkpt>
      <trkpt lat="45.29916" lon="6.19021">
        <ele>1582.4000244141</ele>
        <time>2020-02-08T14:28:07.000Z</time>
      </trkpt>
      <trkpt lat="45.29909" lon="6.19024">
        <ele>1581.8000488281</ele>
        <time>2020-02-08T14:28:08.000Z</time>
      </trkpt>
      <trkpt lat="45.29901" lon="6.19028">
        <ele>1581.1999511719</ele>
        <time>2020-02-08T14:28:09.000Z</time>
      </trkpt>
      <trkpt lat="45.29886" lon="6.19029">
        <ele>1579.4000244141</ele>
        <time>2020-02-08T14:28:11.000Z</time>
      </trkpt>
      <trkpt lat="45.29878" lon="6.19029">
        <ele>1578.8000488281</ele>
        <time>2020-02-08T14:28:12.000Z</time>
      </trkpt>
      <trkpt lat="45.29866" lon="6.19037">
        <ele>1578</ele>
        <time>2020-02-08T14:28:14.000Z</time>
      </trkpt>
      <trkpt lat="45.29854" lon="6.19044">
        <ele>1577.5999755859</ele>
        <time>2020-02-08T14:28:16.000Z</time>
      </trkpt>
      <trkpt lat="45.29845" lon="6.19047">
        <ele>1576.8000488281</ele>
        <time>2020-02-08T14:28:18.000Z</time>
      </trkpt>
      <trkpt lat="45.2984" lon="6.19048">
        <ele>1576.1999511719</ele>
        <time>2020-02-08T14:28:19.000Z</time>
      </trkpt>
      <trkpt lat="45.29836" lon="6.1905">
        <ele>1575.5999755859</ele>
        <time>2020-02-08T14:28:20.000Z</time>
      </trkpt>
      <trkpt lat="45.29832" lon="6.19051">
        <ele>1575.4000244141</ele>
        <time>2020-02-08T14:28:21.000Z</time>
      </trkpt>
      <trkpt lat="45.29817" lon="6.19059">
        <ele>1574.4000244141</ele>
        <time>2020-02-08T14:28:25.000Z</time>
      </trkpt>
      <trkpt lat="45.29806" lon="6.19075">
        <ele>1573.4000244141</ele>
        <time>2020-02-08T14:28:29.000Z</time>
      </trkpt>
      <trkpt lat="45.29801" lon="6.19078">
        <ele>1573.1999511719</ele>
        <time>2020-02-08T14:28:30.000Z</time>
      </trkpt>
      <trkpt lat="45.29792" lon="6.19087">
        <ele>1572.1999511719</ele>
        <time>2020-02-08T14:28:33.000Z</time>
      </trkpt>
      <trkpt lat="45.29787" lon="6.19093">
        <ele>1571.4000244141</ele>
        <time>2020-02-08T14:28:35.000Z</time>
      </trkpt>
      <trkpt lat="45.29783" lon="6.19094">
        <ele>1571</ele>
        <time>2020-02-08T14:28:36.000Z</time>
      </trkpt>
      <trkpt lat="45.29775" lon="6.19099">
        <ele>1570.5999755859</ele>
        <time>2020-02-08T14:28:38.000Z</time>
      </trkpt>
      <trkpt lat="45.2977" lon="6.19103">
        <ele>1570.4000244141</ele>
        <time>2020-02-08T14:28:39.000Z</time>
      </trkpt>
      <trkpt lat="45.29765" lon="6.19108">
        <ele>1570</ele>
        <time>2020-02-08T14:28:40.000Z</time>
      </trkpt>
      <trkpt lat="45.29757" lon="6.19119">
        <ele>1569</ele>
        <time>2020-02-08T14:28:42.000Z</time>
      </trkpt>
      <trkpt lat="45.29754" lon="6.19125">
        <ele>1568.1999511719</ele>
        <time>2020-02-08T14:28:43.000Z</time>
      </trkpt>
      <trkpt lat="45.29752" lon="6.19131">
        <ele>1567.4000244141</ele>
        <time>2020-02-08T14:28:44.000Z</time>
      </trkpt>
      <trkpt lat="45.2975" lon="6.19135">
        <ele>1566.4000244141</ele>
        <time>2020-02-08T14:28:45.000Z</time>
      </trkpt>
      <trkpt lat="45.29746" lon="6.1914">
        <ele>1565.4000244141</ele>
        <time>2020-02-08T14:28:46.000Z</time>
      </trkpt>
      <trkpt lat="45.29741" lon="6.19145">
        <ele>1564.5999755859</ele>
        <time>2020-02-08T14:28:47.000Z</time>
      </trkpt>
      <trkpt lat="45.29737" lon="6.19149">
        <ele>1563.8000488281</ele>
        <time>2020-02-08T14:28:48.000Z</time>
      </trkpt>
      <trkpt lat="45.2973" lon="6.19161">
        <ele>1562.5999755859</ele>
        <time>2020-02-08T14:28:50.000Z</time>
      </trkpt>
      <trkpt lat="45.29728" lon="6.19165">
        <ele>1562</ele>
        <time>2020-02-08T14:28:51.000Z</time>
      </trkpt>
      <trkpt lat="45.29727" lon="6.19168">
        <ele>1561.1999511719</ele>
        <time>2020-02-08T14:28:52.000Z</time>
      </trkpt>
      <trkpt lat="45.29725" lon="6.19176">
        <ele>1559.5999755859</ele>
        <time>2020-02-08T14:28:54.000Z</time>
      </trkpt>
      <trkpt lat="45.29725" lon="6.1918">
        <ele>1558.8000488281</ele>
        <time>2020-02-08T14:28:55.000Z</time>
      </trkpt>
      <trkpt lat="45.29724" lon="6.19186">
        <ele>1558.4000244141</ele>
        <time>2020-02-08T14:28:56.000Z</time>
      </trkpt>
      <trkpt lat="45.29719" lon="6.19207">
        <ele>1557</ele>
        <time>2020-02-08T14:28:59.000Z</time>
      </trkpt>
      <trkpt lat="45.29718" lon="6.19214">
        <ele>1556.4000244141</ele>
        <time>2020-02-08T14:29:00.000Z</time>
      </trkpt>
      <trkpt lat="45.29716" lon="6.19223">
        <ele>1555.8000488281</ele>
        <time>2020-02-08T14:29:01.000Z</time>
      </trkpt>
      <trkpt lat="45.29712" lon="6.19238">
        <ele>1554.4000244141</ele>
        <time>2020-02-08T14:29:03.000Z</time>
      </trkpt>
      <trkpt lat="45.29707" lon="6.19252">
        <ele>1553.4000244141</ele>
        <time>2020-02-08T14:29:05.000Z</time>
      </trkpt>
      <trkpt lat="45.29703" lon="6.1926">
        <ele>1552.1999511719</ele>
        <time>2020-02-08T14:29:07.000Z</time>
      </trkpt>
      <trkpt lat="45.29699" lon="6.19266">
        <ele>1550.8000488281</ele>
        <time>2020-02-08T14:29:10.000Z</time>
      </trkpt>
      <trkpt lat="45.29697" lon="6.19269">
        <ele>1550.5999755859</ele>
        <time>2020-02-08T14:29:11.000Z</time>
      </trkpt>
      <trkpt lat="45.29689" lon="6.19284">
        <ele>1550.4000244141</ele>
        <time>2020-02-08T14:29:14.000Z</time>
      </trkpt>
      <trkpt lat="45.29682" lon="6.19298">
        <ele>1549.5999755859</ele>
        <time>2020-02-08T14:29:17.000Z</time>
      </trkpt>
      <trkpt lat="45.29678" lon="6.19311">
        <ele>1548.1999511719</ele>
        <time>2020-02-08T14:29:20.000Z</time>
      </trkpt>
      <trkpt lat="45.29677" lon="6.1932">
        <ele>1546.5999755859</ele>
        <time>2020-02-08T14:29:23.000Z</time>
      </trkpt>
      <trkpt lat="45.29676" lon="6.19329">
        <ele>1546.4000244141</ele>
        <time>2020-02-08T14:29:25.000Z</time>
      </trkpt>
      <trkpt lat="45.29672" lon="6.19343">
        <ele>1545.5999755859</ele>
        <time>2020-02-08T14:29:29.000Z</time>
      </trkpt>
      <trkpt lat="45.29671" lon="6.19352">
        <ele>1545</ele>
        <time>2020-02-08T14:29:31.000Z</time>
      </trkpt>
      <trkpt lat="45.29668" lon="6.19358">
        <ele>1544.8000488281</ele>
        <time>2020-02-08T14:29:32.000Z</time>
      </trkpt>
      <trkpt lat="45.29665" lon="6.19364">
        <ele>1544.5999755859</ele>
        <time>2020-02-08T14:29:33.000Z</time>
      </trkpt>
      <trkpt lat="45.29662" lon="6.19371">
        <ele>1544</ele>
        <time>2020-02-08T14:29:35.000Z</time>
      </trkpt>
      <trkpt lat="45.2966" lon="6.19375">
        <ele>1543.5999755859</ele>
        <time>2020-02-08T14:29:36.000Z</time>
      </trkpt>
      <trkpt lat="45.29657" lon="6.19378">
        <ele>1543.1999511719</ele>
        <time>2020-02-08T14:29:37.000Z</time>
      </trkpt>
      <trkpt lat="45.29654" lon="6.19379">
        <ele>1542.4000244141</ele>
        <time>2020-02-08T14:29:39.000Z</time>
      </trkpt>
      <trkpt lat="45.29652" lon="6.19383">
        <ele>1542</ele>
        <time>2020-02-08T14:29:41.000Z</time>
      </trkpt>
      <trkpt lat="45.29648" lon="6.19388">
        <ele>1541.5999755859</ele>
        <time>2020-02-08T14:29:44.000Z</time>
      </trkpt>
      <trkpt lat="45.29648" lon="6.1939">
        <ele>1541.1999511719</ele>
        <time>2020-02-08T14:29:45.000Z</time>
      </trkpt>
      <trkpt lat="45.29669" lon="6.19391">
        <ele>1541</ele>
        <time>2020-02-08T14:29:47.000Z</time>
      </trkpt>
      <trkpt lat="45.29737" lon="6.19395">
        <ele>1540.8000488281</ele>
        <time>2020-02-08T14:29:49.000Z</time>
      </trkpt>
      <trkpt lat="45.29763" lon="6.19398">
        <ele>1540.5999755859</ele>
        <time>2020-02-08T14:29:50.000Z</time>
      </trkpt>
      <trkpt lat="45.29759" lon="6.19403">
        <ele>1540.1999511719</ele>
        <time>2020-02-08T14:29:51.000Z</time>
      </trkpt>
      <trkpt lat="45.29761" lon="6.1941">
        <ele>1539.5999755859</ele>
        <time>2020-02-08T14:29:52.000Z</time>
      </trkpt>
      <trkpt lat="45.29784" lon="6.19422">
        <ele>1537.5999755859</ele>
        <time>2020-02-08T14:29:54.000Z</time>
      </trkpt>
      <trkpt lat="45.29781" lon="6.19426">
        <ele>1536.4000244141</ele>
        <time>2020-02-08T14:29:55.000Z</time>
      </trkpt>
      <trkpt lat="45.29776" lon="6.1943">
        <ele>1535.4000244141</ele>
        <time>2020-02-08T14:29:56.000Z</time>
      </trkpt>
      <trkpt lat="45.29771" lon="6.19436">
        <ele>1534</ele>
        <time>2020-02-08T14:29:58.000Z</time>
      </trkpt>
      <trkpt lat="45.29811" lon="6.19446">
        <ele>1532.8000488281</ele>
        <time>2020-02-08T14:30:03.000Z</time>
      </trkpt>
      <trkpt lat="45.29814" lon="6.19449">
        <ele>1532.5999755859</ele>
        <time>2020-02-08T14:30:04.000Z</time>
      </trkpt>
      <trkpt lat="45.29823" lon="6.19459">
        <ele>1531.8000488281</ele>
        <time>2020-02-08T14:30:09.000Z</time>
      </trkpt>
      <trkpt lat="45.29817" lon="6.19476">
        <ele>1531.1999511719</ele>
        <time>2020-02-08T14:30:13.000Z</time>
      </trkpt>
      <trkpt lat="45.29813" lon="6.19484">
        <ele>1530.5999755859</ele>
        <time>2020-02-08T14:30:15.000Z</time>
      </trkpt>
      <trkpt lat="45.29811" lon="6.19489">
        <ele>1529.4000244141</ele>
        <time>2020-02-08T14:30:17.000Z</time>
      </trkpt>
      <trkpt lat="45.29802" lon="6.19504">
        <ele>1529.1999511719</ele>
        <time>2020-02-08T14:30:24.000Z</time>
      </trkpt>
      <trkpt lat="45.29791" lon="6.19526">
        <ele>1528.1999511719</ele>
        <time>2020-02-08T14:30:31.000Z</time>
      </trkpt>
      <trkpt lat="45.29785" lon="6.19543">
        <ele>1527</ele>
        <time>2020-02-08T14:30:36.000Z</time>
      </trkpt>
      <trkpt lat="45.29782" lon="6.19549">
        <ele>1526.5999755859</ele>
        <time>2020-02-08T14:30:38.000Z</time>
      </trkpt>
      <trkpt lat="45.29772" lon="6.19571">
        <ele>1526</ele>
        <time>2020-02-08T14:30:43.000Z</time>
      </trkpt>
      <trkpt lat="45.2977" lon="6.19576">
        <ele>1525.8000488281</ele>
        <time>2020-02-08T14:30:44.000Z</time>
      </trkpt>
      <trkpt lat="45.29765" lon="6.19588">
        <ele>1524.8000488281</ele>
        <time>2020-02-08T14:30:47.000Z</time>
      </trkpt>
      <trkpt lat="45.29761" lon="6.19598">
        <ele>1524.4000244141</ele>
        <time>2020-02-08T14:30:49.000Z</time>
      </trkpt>
      <trkpt lat="45.29747" lon="6.19616">
        <ele>1523.8000488281</ele>
        <time>2020-02-08T14:30:53.000Z</time>
      </trkpt>
      <trkpt lat="45.29743" lon="6.19621">
        <ele>1523.5999755859</ele>
        <time>2020-02-08T14:30:54.000Z</time>
      </trkpt>
      <trkpt lat="45.2973" lon="6.19631">
        <ele>1522.4000244141</ele>
        <time>2020-02-08T14:30:57.000Z</time>
      </trkpt>
      <trkpt lat="45.29731" lon="6.19631">
        <ele>1521.1999511719</ele>
        <time>2020-02-08T14:30:59.000Z</time>
      </trkpt>
      <trkpt lat="45.29731" lon="6.19631">
        <ele>1521</ele>
        <time>2020-02-08T14:31:05.000Z</time>
      </trkpt>
      <trkpt lat="45.29729" lon="6.19635">
        <ele>1520.8000488281</ele>
        <time>2020-02-08T14:31:08.000Z</time>
      </trkpt>
      <trkpt lat="45.29724" lon="6.19643">
        <ele>1520.8000488281</ele>
        <time>2020-02-08T14:31:10.000Z</time>
      </trkpt>
      <trkpt lat="45.29716" lon="6.19656">
        <ele>1520</ele>
        <time>2020-02-08T14:31:13.000Z</time>
      </trkpt>
      <trkpt lat="45.29712" lon="6.19663">
        <ele>1519.1999511719</ele>
        <time>2020-02-08T14:31:15.000Z</time>
      </trkpt>
      <trkpt lat="45.29709" lon="6.19666">
        <ele>1518.8000488281</ele>
        <time>2020-02-08T14:31:16.000Z</time>
      </trkpt>
      <trkpt lat="45.29705" lon="6.1967">
        <ele>1518.5999755859</ele>
        <time>2020-02-08T14:31:17.000Z</time>
      </trkpt>
      <trkpt lat="45.29695" lon="6.19681">
        <ele>1518</ele>
        <time>2020-02-08T14:31:19.000Z</time>
      </trkpt>
      <trkpt lat="45.29692" lon="6.19687">
        <ele>1517.8000488281</ele>
        <time>2020-02-08T14:31:20.000Z</time>
      </trkpt>
      <trkpt lat="45.29687" lon="6.19703">
        <ele>1515.8000488281</ele>
        <time>2020-02-08T14:31:23.000Z</time>
      </trkpt>
      <trkpt lat="45.29685" lon="6.19716">
        <ele>1514.8000488281</ele>
        <time>2020-02-08T14:31:25.000Z</time>
      </trkpt>
      <trkpt lat="45.29683" lon="6.19729">
        <ele>1513.5999755859</ele>
        <time>2020-02-08T14:31:28.000Z</time>
      </trkpt>
      <trkpt lat="45.29681" lon="6.19734">
        <ele>1512.4000244141</ele>
        <time>2020-02-08T14:31:31.000Z</time>
      </trkpt>
      <trkpt lat="45.29681" lon="6.19738">
        <ele>1512.1999511719</ele>
        <time>2020-02-08T14:31:32.000Z</time>
      </trkpt>
      <trkpt lat="45.29674" lon="6.19754">
        <ele>1511.8000488281</ele>
        <time>2020-02-08T14:31:37.000Z</time>
      </trkpt>
      <trkpt lat="45.29673" lon="6.19757">
        <ele>1511.1999511719</ele>
        <time>2020-02-08T14:31:40.000Z</time>
      </trkpt>
      <trkpt lat="45.29672" lon="6.19759">
        <ele>1509.5999755859</ele>
        <time>2020-02-08T14:31:43.000Z</time>
      </trkpt>
      <trkpt lat="45.29672" lon="6.19761">
        <ele>1509.1999511719</ele>
        <time>2020-02-08T14:31:44.000Z</time>
      </trkpt>
      <trkpt lat="45.29672" lon="6.19762">
        <ele>1508.8000488281</ele>
        <time>2020-02-08T14:31:45.000Z</time>
      </trkpt>
      <trkpt lat="45.29672" lon="6.19763">
        <ele>1508.4000244141</ele>
        <time>2020-02-08T14:31:46.000Z</time>
      </trkpt>
      <trkpt lat="45.29671" lon="6.19764">
        <ele>1507.5999755859</ele>
        <time>2020-02-08T14:31:50.000Z</time>
      </trkpt>
      <trkpt lat="45.2967" lon="6.19767">
        <ele>1507.5999755859</ele>
        <time>2020-02-08T14:31:51.000Z</time>
      </trkpt>
      <trkpt lat="45.29668" lon="6.19773">
        <ele>1507.4000244141</ele>
        <time>2020-02-08T14:31:52.000Z</time>
      </trkpt>
      <trkpt lat="45.29667" lon="6.19777">
        <ele>1507.1999511719</ele>
        <time>2020-02-08T14:31:53.000Z</time>
      </trkpt>
      <trkpt lat="45.2966" lon="6.19793">
        <ele>1506</ele>
        <time>2020-02-08T14:31:56.000Z</time>
      </trkpt>
      <trkpt lat="45.29661" lon="6.19798">
        <ele>1505.4000244141</ele>
        <time>2020-02-08T14:31:57.000Z</time>
      </trkpt>
      <trkpt lat="45.29661" lon="6.198">
        <ele>1505</ele>
        <time>2020-02-08T14:31:58.000Z</time>
      </trkpt>
      <trkpt lat="45.2966" lon="6.19802">
        <ele>1503.8000488281</ele>
        <time>2020-02-08T14:32:01.000Z</time>
      </trkpt>
      <trkpt lat="45.2966" lon="6.19802">
        <ele>1502.4000244141</ele>
        <time>2020-02-08T14:32:04.000Z</time>
      </trkpt>
      <trkpt lat="45.2966" lon="6.19802">
        <ele>1501.8000488281</ele>
        <time>2020-02-08T14:32:11.000Z</time>
      </trkpt>
      <trkpt lat="45.29659" lon="6.19803">
        <ele>1501.8000488281</ele>
        <time>2020-02-08T14:32:15.000Z</time>
      </trkpt>
      <trkpt lat="45.29658" lon="6.1981">
        <ele>1501.8000488281</ele>
        <time>2020-02-08T14:32:17.000Z</time>
      </trkpt>
      <trkpt lat="45.29657" lon="6.19818">
        <ele>1501.1999511719</ele>
        <time>2020-02-08T14:32:21.000Z</time>
      </trkpt>
      <trkpt lat="45.29656" lon="6.19819">
        <ele>1501</ele>
        <time>2020-02-08T14:32:22.000Z</time>
      </trkpt>
      <trkpt lat="45.29655" lon="6.19831">
        <ele>1500.1999511719</ele>
        <time>2020-02-08T14:32:25.000Z</time>
      </trkpt>
      <trkpt lat="45.29654" lon="6.1984">
        <ele>1499</ele>
        <time>2020-02-08T14:32:30.000Z</time>
      </trkpt>
      <trkpt lat="45.29654" lon="6.19842">
        <ele>1498.5999755859</ele>
        <time>2020-02-08T14:32:33.000Z</time>
      </trkpt>
      <trkpt lat="45.29651" lon="6.19845">
        <ele>1498.1999511719</ele>
        <time>2020-02-08T14:32:36.000Z</time>
      </trkpt>
      <trkpt lat="45.29649" lon="6.19843">
        <ele>1498</ele>
        <time>2020-02-08T14:32:37.000Z</time>
      </trkpt>
      <trkpt lat="45.29646" lon="6.19836">
        <ele>1497</ele>
        <time>2020-02-08T14:32:39.000Z</time>
      </trkpt>
      <trkpt lat="45.29646" lon="6.19832">
        <ele>1496.5999755859</ele>
        <time>2020-02-08T14:32:40.000Z</time>
      </trkpt>
      <trkpt lat="45.29646" lon="6.19831">
        <ele>1496.1999511719</ele>
        <time>2020-02-08T14:32:41.000Z</time>
      </trkpt>
      <trkpt lat="45.29647" lon="6.19831">
        <ele>1496</ele>
        <time>2020-02-08T14:32:42.000Z</time>
      </trkpt>
      <trkpt lat="45.29643" lon="6.19832">
        <ele>1495.5999755859</ele>
        <time>2020-02-08T14:32:43.000Z</time>
      </trkpt>
      <trkpt lat="45.29642" lon="6.19836">
        <ele>1495.4000244141</ele>
        <time>2020-02-08T14:32:44.000Z</time>
      </trkpt>
      <trkpt lat="45.29641" lon="6.19841">
        <ele>1495.1999511719</ele>
        <time>2020-02-08T14:32:45.000Z</time>
      </trkpt>
      <trkpt lat="45.29639" lon="6.19851">
        <ele>1494.1999511719</ele>
        <time>2020-02-08T14:32:48.000Z</time>
      </trkpt>
      <trkpt lat="45.29637" lon="6.19854">
        <ele>1492.8000488281</ele>
        <time>2020-02-08T14:32:50.000Z</time>
      </trkpt>
      <trkpt lat="45.29637" lon="6.19853">
        <ele>1491.1999511719</ele>
        <time>2020-02-08T14:32:52.000Z</time>
      </trkpt>
      <trkpt lat="45.29635" lon="6.19851">
        <ele>1490.1999511719</ele>
        <time>2020-02-08T14:32:54.000Z</time>
      </trkpt>
      <trkpt lat="45.29626" lon="6.19864">
        <ele>1489.4000244141</ele>
        <time>2020-02-08T14:32:57.000Z</time>
      </trkpt>
      <trkpt lat="45.29623" lon="6.19872">
        <ele>1487.5999755859</ele>
        <time>2020-02-08T14:32:59.000Z</time>
      </trkpt>
      <trkpt lat="45.29622" lon="6.19871">
        <ele>1486.8000488281</ele>
        <time>2020-02-08T14:33:00.000Z</time>
      </trkpt>
      <trkpt lat="45.29621" lon="6.19872">
        <ele>1486</ele>
        <time>2020-02-08T14:33:01.000Z</time>
      </trkpt>
      <trkpt lat="45.29618" lon="6.1987">
        <ele>1485</ele>
        <time>2020-02-08T14:33:02.000Z</time>
      </trkpt>
      <trkpt lat="45.29616" lon="6.19867">
        <ele>1484</ele>
        <time>2020-02-08T14:33:03.000Z</time>
      </trkpt>
      <trkpt lat="45.29613" lon="6.19863">
        <ele>1482.8000488281</ele>
        <time>2020-02-08T14:33:04.000Z</time>
      </trkpt>
      <trkpt lat="45.29606" lon="6.1987">
        <ele>1481.1999511719</ele>
        <time>2020-02-08T14:33:06.000Z</time>
      </trkpt>
      <trkpt lat="45.29603" lon="6.19888">
        <ele>1479.4000244141</ele>
        <time>2020-02-08T14:33:09.000Z</time>
      </trkpt>
      <trkpt lat="45.296" lon="6.19895">
        <ele>1478.4000244141</ele>
        <time>2020-02-08T14:33:10.000Z</time>
      </trkpt>
      <trkpt lat="45.29597" lon="6.19903">
        <ele>1477.1999511719</ele>
        <time>2020-02-08T14:33:11.000Z</time>
      </trkpt>
      <trkpt lat="45.29597" lon="6.19909">
        <ele>1476</ele>
        <time>2020-02-08T14:33:12.000Z</time>
      </trkpt>
      <trkpt lat="45.29595" lon="6.19915">
        <ele>1474.8000488281</ele>
        <time>2020-02-08T14:33:13.000Z</time>
      </trkpt>
      <trkpt lat="45.29596" lon="6.19919">
        <ele>1473.5999755859</ele>
        <time>2020-02-08T14:33:14.000Z</time>
      </trkpt>
      <trkpt lat="45.29596" lon="6.19925">
        <ele>1471.8000488281</ele>
        <time>2020-02-08T14:33:16.000Z</time>
      </trkpt>
      <trkpt lat="45.29597" lon="6.1994">
        <ele>1470.5999755859</ele>
        <time>2020-02-08T14:33:18.000Z</time>
      </trkpt>
      <trkpt lat="45.29597" lon="6.19949">
        <ele>1469.8000488281</ele>
        <time>2020-02-08T14:33:19.000Z</time>
      </trkpt>
      <trkpt lat="45.29596" lon="6.19956">
        <ele>1469</ele>
        <time>2020-02-08T14:33:20.000Z</time>
      </trkpt>
      <trkpt lat="45.29593" lon="6.19967">
        <ele>1467.4000244141</ele>
        <time>2020-02-08T14:33:22.000Z</time>
      </trkpt>
      <trkpt lat="45.29592" lon="6.19972">
        <ele>1465.5999755859</ele>
        <time>2020-02-08T14:33:23.000Z</time>
      </trkpt>
      <trkpt lat="45.29591" lon="6.19974">
        <ele>1464.4000244141</ele>
        <time>2020-02-08T14:33:24.000Z</time>
      </trkpt>
      <trkpt lat="45.2959" lon="6.19973">
        <ele>1463.4000244141</ele>
        <time>2020-02-08T14:33:25.000Z</time>
      </trkpt>
      <trkpt lat="45.2959" lon="6.19973">
        <ele>1462.5999755859</ele>
        <time>2020-02-08T14:33:26.000Z</time>
      </trkpt>
      <trkpt lat="45.2959" lon="6.19974">
        <ele>1461.8000488281</ele>
        <time>2020-02-08T14:33:27.000Z</time>
      </trkpt>
      <trkpt lat="45.29591" lon="6.19975">
        <ele>1461.1999511719</ele>
        <time>2020-02-08T14:33:28.000Z</time>
      </trkpt>
      <trkpt lat="45.29589" lon="6.19977">
        <ele>1460.4000244141</ele>
        <time>2020-02-08T14:33:30.000Z</time>
      </trkpt>
      <trkpt lat="45.29586" lon="6.19988">
        <ele>1459.1999511719</ele>
        <time>2020-02-08T14:33:34.000Z</time>
      </trkpt>
      <trkpt lat="45.29584" lon="6.19988">
        <ele>1458.8000488281</ele>
        <time>2020-02-08T14:33:35.000Z</time>
      </trkpt>
      <trkpt lat="45.29579" lon="6.19985">
        <ele>1458</ele>
        <time>2020-02-08T14:33:37.000Z</time>
      </trkpt>
      <trkpt lat="45.29579" lon="6.19984">
        <ele>1457.8000488281</ele>
        <time>2020-02-08T14:33:38.000Z</time>
      </trkpt>
      <trkpt lat="45.29579" lon="6.19983">
        <ele>1457.5999755859</ele>
        <time>2020-02-08T14:33:39.000Z</time>
      </trkpt>
      <trkpt lat="45.29575" lon="6.19976">
        <ele>1456.8000488281</ele>
        <time>2020-02-08T14:33:41.000Z</time>
      </trkpt>
      <trkpt lat="45.29572" lon="6.19978">
        <ele>1456.4000244141</ele>
        <time>2020-02-08T14:33:42.000Z</time>
      </trkpt>
      <trkpt lat="45.29569" lon="6.19985">
        <ele>1455.8000488281</ele>
        <time>2020-02-08T14:33:43.000Z</time>
      </trkpt>
      <trkpt lat="45.29566" lon="6.19992">
        <ele>1455.4000244141</ele>
        <time>2020-02-08T14:33:44.000Z</time>
      </trkpt>
      <trkpt lat="45.29563" lon="6.19999">
        <ele>1454.8000488281</ele>
        <time>2020-02-08T14:33:45.000Z</time>
      </trkpt>
      <trkpt lat="45.29558" lon="6.20014">
        <ele>1452.1999511719</ele>
        <time>2020-02-08T14:33:47.000Z</time>
      </trkpt>
      <trkpt lat="45.29558" lon="6.20018">
        <ele>1450.8000488281</ele>
        <time>2020-02-08T14:33:48.000Z</time>
      </trkpt>
      <trkpt lat="45.29556" lon="6.20022">
        <ele>1449.5999755859</ele>
        <time>2020-02-08T14:33:49.000Z</time>
      </trkpt>
      <trkpt lat="45.29555" lon="6.20028">
        <ele>1448.1999511719</ele>
        <time>2020-02-08T14:33:50.000Z</time>
      </trkpt>
      <trkpt lat="45.29554" lon="6.20035">
        <ele>1446.8000488281</ele>
        <time>2020-02-08T14:33:51.000Z</time>
      </trkpt>
      <trkpt lat="45.29554" lon="6.20042">
        <ele>1445.8000488281</ele>
        <time>2020-02-08T14:33:52.000Z</time>
      </trkpt>
      <trkpt lat="45.29554" lon="6.20047">
        <ele>1445</ele>
        <time>2020-02-08T14:33:53.000Z</time>
      </trkpt>
      <trkpt lat="45.29555" lon="6.20054">
        <ele>1444.4000244141</ele>
        <time>2020-02-08T14:33:54.000Z</time>
      </trkpt>
      <trkpt lat="45.29556" lon="6.20065">
        <ele>1442.5999755859</ele>
        <time>2020-02-08T14:33:56.000Z</time>
      </trkpt>
      <trkpt lat="45.29556" lon="6.20074">
        <ele>1440.8000488281</ele>
        <time>2020-02-08T14:33:58.000Z</time>
      </trkpt>
      <trkpt lat="45.29555" lon="6.20078">
        <ele>1439.4000244141</ele>
        <time>2020-02-08T14:34:00.000Z</time>
      </trkpt>
      <trkpt lat="45.29552" lon="6.2008">
        <ele>1438.1999511719</ele>
        <time>2020-02-08T14:34:02.000Z</time>
      </trkpt>
      <trkpt lat="45.29545" lon="6.20072">
        <ele>1436.8000488281</ele>
        <time>2020-02-08T14:34:05.000Z</time>
      </trkpt>
      <trkpt lat="45.29541" lon="6.20074">
        <ele>1435.8000488281</ele>
        <time>2020-02-08T14:34:08.000Z</time>
      </trkpt>
      <trkpt lat="45.29539" lon="6.20078">
        <ele>1435.4000244141</ele>
        <time>2020-02-08T14:34:09.000Z</time>
      </trkpt>
      <trkpt lat="45.29536" lon="6.20084">
        <ele>1434.8000488281</ele>
        <time>2020-02-08T14:34:10.000Z</time>
      </trkpt>
      <trkpt lat="45.29535" lon="6.20088">
        <ele>1433.5999755859</ele>
        <time>2020-02-08T14:34:11.000Z</time>
      </trkpt>
      <trkpt lat="45.29531" lon="6.20095">
        <ele>1431.8000488281</ele>
        <time>2020-02-08T14:34:13.000Z</time>
      </trkpt>
      <trkpt lat="45.29526" lon="6.201">
        <ele>1429.8000488281</ele>
        <time>2020-02-08T14:34:15.000Z</time>
      </trkpt>
      <trkpt lat="45.29524" lon="6.20103">
        <ele>1428.8000488281</ele>
        <time>2020-02-08T14:34:16.000Z</time>
      </trkpt>
      <trkpt lat="45.29522" lon="6.2011">
        <ele>1427</ele>
        <time>2020-02-08T14:34:18.000Z</time>
      </trkpt>
      <trkpt lat="45.29518" lon="6.20119">
        <ele>1426</ele>
        <time>2020-02-08T14:34:20.000Z</time>
      </trkpt>
      <trkpt lat="45.29515" lon="6.20128">
        <ele>1424.5999755859</ele>
        <time>2020-02-08T14:34:22.000Z</time>
      </trkpt>
      <trkpt lat="45.2951" lon="6.20141">
        <ele>1423</ele>
        <time>2020-02-08T14:34:24.000Z</time>
      </trkpt>
      <trkpt lat="45.29505" lon="6.20153">
        <ele>1422</ele>
        <time>2020-02-08T14:34:26.000Z</time>
      </trkpt>
      <trkpt lat="45.29502" lon="6.20165">
        <ele>1420.5999755859</ele>
        <time>2020-02-08T14:34:28.000Z</time>
      </trkpt>
      <trkpt lat="45.29502" lon="6.20171">
        <ele>1420</ele>
        <time>2020-02-08T14:34:29.000Z</time>
      </trkpt>
      <trkpt lat="45.29501" lon="6.20177">
        <ele>1419.5999755859</ele>
        <time>2020-02-08T14:34:30.000Z</time>
      </trkpt>
      <trkpt lat="45.29499" lon="6.20197">
        <ele>1418</ele>
        <time>2020-02-08T14:34:33.000Z</time>
      </trkpt>
      <trkpt lat="45.29497" lon="6.20212">
        <ele>1416.5999755859</ele>
        <time>2020-02-08T14:34:35.000Z</time>
      </trkpt>
      <trkpt lat="45.29495" lon="6.20225">
        <ele>1415.4000244141</ele>
        <time>2020-02-08T14:34:37.000Z</time>
      </trkpt>
      <trkpt lat="45.29494" lon="6.20231">
        <ele>1414.8000488281</ele>
        <time>2020-02-08T14:34:38.000Z</time>
      </trkpt>
      <trkpt lat="45.29494" lon="6.20235">
        <ele>1414.1999511719</ele>
        <time>2020-02-08T14:34:39.000Z</time>
      </trkpt>
      <trkpt lat="45.29494" lon="6.20245">
        <ele>1413.1999511719</ele>
        <time>2020-02-08T14:34:41.000Z</time>
      </trkpt>
      <trkpt lat="45.29494" lon="6.20249">
        <ele>1412.8000488281</ele>
        <time>2020-02-08T14:34:42.000Z</time>
      </trkpt>
      <trkpt lat="45.29493" lon="6.20256">
        <ele>1411.5999755859</ele>
        <time>2020-02-08T14:34:44.000Z</time>
      </trkpt>
      <trkpt lat="45.29492" lon="6.20271">
        <ele>1410.4000244141</ele>
        <time>2020-02-08T14:34:47.000Z</time>
      </trkpt>
      <trkpt lat="45.29494" lon="6.2028">
        <ele>1409.4000244141</ele>
        <time>2020-02-08T14:34:50.000Z</time>
      </trkpt>
      <trkpt lat="45.29494" lon="6.20279">
        <ele>1408.8000488281</ele>
        <time>2020-02-08T14:34:51.000Z</time>
      </trkpt>
      <trkpt lat="45.29494" lon="6.20279">
        <ele>1408.4000244141</ele>
        <time>2020-02-08T14:34:52.000Z</time>
      </trkpt>
      <trkpt lat="45.29494" lon="6.20279">
        <ele>1407.4000244141</ele>
        <time>2020-02-08T14:34:57.000Z</time>
      </trkpt>
      <trkpt lat="45.29494" lon="6.20279">
        <ele>1407.4000244141</ele>
        <time>2020-02-08T14:34:58.000Z</time>
      </trkpt>
      <trkpt lat="45.29495" lon="6.20286">
        <ele>1407.1999511719</ele>
        <time>2020-02-08T14:35:06.000Z</time>
      </trkpt>
      <trkpt lat="45.29496" lon="6.20285">
        <ele>1407.1999511719</ele>
        <time>2020-02-08T14:35:07.000Z</time>
      </trkpt>
      <trkpt lat="45.29493" lon="6.20289">
        <ele>1406.5999755859</ele>
        <time>2020-02-08T14:35:09.000Z</time>
      </trkpt>
      <trkpt lat="45.29492" lon="6.20294">
        <ele>1406.1999511719</ele>
        <time>2020-02-08T14:35:10.000Z</time>
      </trkpt>
      <trkpt lat="45.29491" lon="6.20294">
        <ele>1406</ele>
        <time>2020-02-08T14:35:11.000Z</time>
      </trkpt>
      <trkpt lat="45.29488" lon="6.20295">
        <ele>1405.1999511719</ele>
        <time>2020-02-08T14:35:13.000Z</time>
      </trkpt>
      <trkpt lat="45.29486" lon="6.20302">
        <ele>1403.8000488281</ele>
        <time>2020-02-08T14:35:15.000Z</time>
      </trkpt>
      <trkpt lat="45.29484" lon="6.20305">
        <ele>1402.8000488281</ele>
        <time>2020-02-08T14:35:18.000Z</time>
      </trkpt>
      <trkpt lat="45.29485" lon="6.20304">
        <ele>1401.5999755859</ele>
        <time>2020-02-08T14:35:20.000Z</time>
      </trkpt>
      <trkpt lat="45.29483" lon="6.20306">
        <ele>1400.5999755859</ele>
        <time>2020-02-08T14:35:22.000Z</time>
      </trkpt>
      <trkpt lat="45.29482" lon="6.20309">
        <ele>1399.8000488281</ele>
        <time>2020-02-08T14:35:23.000Z</time>
      </trkpt>
      <trkpt lat="45.29478" lon="6.20316">
        <ele>1398.8000488281</ele>
        <time>2020-02-08T14:35:25.000Z</time>
      </trkpt>
      <trkpt lat="45.29475" lon="6.20326">
        <ele>1397.8000488281</ele>
        <time>2020-02-08T14:35:27.000Z</time>
      </trkpt>
      <trkpt lat="45.29472" lon="6.20332">
        <ele>1397.5999755859</ele>
        <time>2020-02-08T14:35:28.000Z</time>
      </trkpt>
      <trkpt lat="45.29468" lon="6.20344">
        <ele>1397.1999511719</ele>
        <time>2020-02-08T14:35:30.000Z</time>
      </trkpt>
      <trkpt lat="45.29465" lon="6.20358">
        <ele>1396.4000244141</ele>
        <time>2020-02-08T14:35:32.000Z</time>
      </trkpt>
      <trkpt lat="45.2946" lon="6.20379">
        <ele>1395</ele>
        <time>2020-02-08T14:35:35.000Z</time>
      </trkpt>
      <trkpt lat="45.29457" lon="6.20387">
        <ele>1394.4000244141</ele>
        <time>2020-02-08T14:35:36.000Z</time>
      </trkpt>
      <trkpt lat="45.29456" lon="6.20395">
        <ele>1394</ele>
        <time>2020-02-08T14:35:37.000Z</time>
      </trkpt>
      <trkpt lat="45.29454" lon="6.20404">
        <ele>1393.4000244141</ele>
        <time>2020-02-08T14:35:38.000Z</time>
      </trkpt>
      <trkpt lat="45.29452" lon="6.20412">
        <ele>1393</ele>
        <time>2020-02-08T14:35:39.000Z</time>
      </trkpt>
      <trkpt lat="45.2945" lon="6.20421">
        <ele>1392.1999511719</ele>
        <time>2020-02-08T14:35:40.000Z</time>
      </trkpt>
      <trkpt lat="45.29448" lon="6.2043">
        <ele>1391.5999755859</ele>
        <time>2020-02-08T14:35:41.000Z</time>
      </trkpt>
      <trkpt lat="45.29444" lon="6.20437">
        <ele>1391</ele>
        <time>2020-02-08T14:35:42.000Z</time>
      </trkpt>
      <trkpt lat="45.29437" lon="6.20453">
        <ele>1389.8000488281</ele>
        <time>2020-02-08T14:35:44.000Z</time>
      </trkpt>
      <trkpt lat="45.29434" lon="6.20461">
        <ele>1389</ele>
        <time>2020-02-08T14:35:45.000Z</time>
      </trkpt>
      <trkpt lat="45.29432" lon="6.20468">
        <ele>1388.4000244141</ele>
        <time>2020-02-08T14:35:46.000Z</time>
      </trkpt>
      <trkpt lat="45.2943" lon="6.20475">
        <ele>1387.1999511719</ele>
        <time>2020-02-08T14:35:47.000Z</time>
      </trkpt>
      <trkpt lat="45.29426" lon="6.20488">
        <ele>1385.5999755859</ele>
        <time>2020-02-08T14:35:49.000Z</time>
      </trkpt>
      <trkpt lat="45.29424" lon="6.20492">
        <ele>1385</ele>
        <time>2020-02-08T14:35:50.000Z</time>
      </trkpt>
      <trkpt lat="45.29422" lon="6.20499">
        <ele>1384.4000244141</ele>
        <time>2020-02-08T14:35:51.000Z</time>
      </trkpt>
      <trkpt lat="45.29422" lon="6.20496">
        <ele>1383</ele>
        <time>2020-02-08T14:35:53.000Z</time>
      </trkpt>
      <trkpt lat="45.29422" lon="6.20496">
        <ele>1381.4000244141</ele>
        <time>2020-02-08T14:35:55.000Z</time>
      </trkpt>
      <trkpt lat="45.29422" lon="6.20496">
        <ele>1380.1999511719</ele>
        <time>2020-02-08T14:35:57.000Z</time>
      </trkpt>
      <trkpt lat="45.29422" lon="6.20496">
        <ele>1379.4000244141</ele>
        <time>2020-02-08T14:36:00.000Z</time>
      </trkpt>
      <trkpt lat="45.29422" lon="6.20496">
        <ele>1379</ele>
        <time>2020-02-08T14:36:06.000Z</time>
      </trkpt>
      <trkpt lat="45.29421" lon="6.20499">
        <ele>1379.8000488281</ele>
        <time>2020-02-08T14:36:10.000Z</time>
      </trkpt>
      <trkpt lat="45.2942" lon="6.20503">
        <ele>1380.5999755859</ele>
        <time>2020-02-08T14:36:11.000Z</time>
      </trkpt>
      <trkpt lat="45.2942" lon="6.20515">
        <ele>1380.4000244141</ele>
        <time>2020-02-08T14:36:14.000Z</time>
      </trkpt>
      <trkpt lat="45.29421" lon="6.20529">
        <ele>1379.1999511719</ele>
        <time>2020-02-08T14:36:17.000Z</time>
      </trkpt>
      <trkpt lat="45.2942" lon="6.20543">
        <ele>1378.1999511719</ele>
        <time>2020-02-08T14:36:20.000Z</time>
      </trkpt>
      <trkpt lat="45.29415" lon="6.20553">
        <ele>1377.4000244141</ele>
        <time>2020-02-08T14:36:22.000Z</time>
      </trkpt>
      <trkpt lat="45.29413" lon="6.20555">
        <ele>1377</ele>
        <time>2020-02-08T14:36:23.000Z</time>
      </trkpt>
      <trkpt lat="45.29408" lon="6.20551">
        <ele>1376</ele>
        <time>2020-02-08T14:36:25.000Z</time>
      </trkpt>
      <trkpt lat="45.29405" lon="6.20549">
        <ele>1375.4000244141</ele>
        <time>2020-02-08T14:36:26.000Z</time>
      </trkpt>
      <trkpt lat="45.29403" lon="6.20548">
        <ele>1375.1999511719</ele>
        <time>2020-02-08T14:36:27.000Z</time>
      </trkpt>
      <trkpt lat="45.29398" lon="6.20547">
        <ele>1374.8000488281</ele>
        <time>2020-02-08T14:36:29.000Z</time>
      </trkpt>
      <trkpt lat="45.29389" lon="6.20547">
        <ele>1373.4000244141</ele>
        <time>2020-02-08T14:36:32.000Z</time>
      </trkpt>
      <trkpt lat="45.29386" lon="6.20547">
        <ele>1373</ele>
        <time>2020-02-08T14:36:33.000Z</time>
      </trkpt>
      <trkpt lat="45.2938" lon="6.20545">
        <ele>1372.4000244141</ele>
        <time>2020-02-08T14:36:36.000Z</time>
      </trkpt>
      <trkpt lat="45.29384" lon="6.20537">
        <ele>1372</ele>
        <time>2020-02-08T14:36:40.000Z</time>
      </trkpt>
      <trkpt lat="45.29384" lon="6.20537">
        <ele>1372</ele>
        <time>2020-02-08T14:36:50.000Z</time>
      </trkpt>
      <trkpt lat="45.29384" lon="6.20537">
        <ele>1371.8000488281</ele>
        <time>2020-02-08T14:37:07.000Z</time>
      </trkpt>
      <trkpt lat="45.29386" lon="6.20537">
        <ele>1371.8000488281</ele>
        <time>2020-02-08T14:37:18.000Z</time>
      </trkpt>
      <trkpt lat="45.29392" lon="6.20542">
        <ele>1371.8000488281</ele>
        <time>2020-02-08T14:37:19.000Z</time>
      </trkpt>
      <trkpt lat="45.29392" lon="6.20554">
        <ele>1371.8000488281</ele>
        <time>2020-02-08T14:37:23.000Z</time>
      </trkpt>
      <trkpt lat="45.2939" lon="6.20558">
        <ele>1371.5999755859</ele>
        <time>2020-02-08T14:37:24.000Z</time>
      </trkpt>
      <trkpt lat="45.29388" lon="6.20569">
        <ele>1371.1999511719</ele>
        <time>2020-02-08T14:37:26.000Z</time>
      </trkpt>
      <trkpt lat="45.29386" lon="6.20578">
        <ele>1370.8000488281</ele>
        <time>2020-02-08T14:37:28.000Z</time>
      </trkpt>
      <trkpt lat="45.29385" lon="6.20588">
        <ele>1370</ele>
        <time>2020-02-08T14:37:30.000Z</time>
      </trkpt>
      <trkpt lat="45.29382" lon="6.20602">
        <ele>1369.1999511719</ele>
        <time>2020-02-08T14:37:33.000Z</time>
      </trkpt>
      <trkpt lat="45.2938" lon="6.20605">
        <ele>1368.8000488281</ele>
        <time>2020-02-08T14:37:34.000Z</time>
      </trkpt>
      <trkpt lat="45.29377" lon="6.20613">
        <ele>1368.1999511719</ele>
        <time>2020-02-08T14:37:36.000Z</time>
      </trkpt>
      <trkpt lat="45.29376" lon="6.20617">
        <ele>1367.8000488281</ele>
        <time>2020-02-08T14:37:37.000Z</time>
      </trkpt>
      <trkpt lat="45.29372" lon="6.20633">
        <ele>1366.5999755859</ele>
        <time>2020-02-08T14:37:41.000Z</time>
      </trkpt>
      <trkpt lat="45.29369" lon="6.2064">
        <ele>1366.1999511719</ele>
        <time>2020-02-08T14:37:42.000Z</time>
      </trkpt>
      <trkpt lat="45.29364" lon="6.20655">
        <ele>1365.4000244141</ele>
        <time>2020-02-08T14:37:44.000Z</time>
      </trkpt>
      <trkpt lat="45.29358" lon="6.20676">
        <ele>1363.4000244141</ele>
        <time>2020-02-08T14:37:47.000Z</time>
      </trkpt>
      <trkpt lat="45.29355" lon="6.20692">
        <ele>1362</ele>
        <time>2020-02-08T14:37:50.000Z</time>
      </trkpt>
      <trkpt lat="45.29353" lon="6.20705">
        <ele>1361</ele>
        <time>2020-02-08T14:37:53.000Z</time>
      </trkpt>
      <trkpt lat="45.29353" lon="6.20708">
        <ele>1360.8000488281</ele>
        <time>2020-02-08T14:37:54.000Z</time>
      </trkpt>
      <trkpt lat="45.29353" lon="6.20718">
        <ele>1360.4000244141</ele>
        <time>2020-02-08T14:37:58.000Z</time>
      </trkpt>
      <trkpt lat="45.29354" lon="6.20729">
        <ele>1359.8000488281</ele>
        <time>2020-02-08T14:38:03.000Z</time>
      </trkpt>
      <trkpt lat="45.29357" lon="6.20738">
        <ele>1359.8000488281</ele>
        <time>2020-02-08T14:38:05.000Z</time>
      </trkpt>
      <trkpt lat="45.2936" lon="6.20749">
        <ele>1359.1999511719</ele>
        <time>2020-02-08T14:38:07.000Z</time>
      </trkpt>
      <trkpt lat="45.29364" lon="6.2076">
        <ele>1358.5999755859</ele>
        <time>2020-02-08T14:38:09.000Z</time>
      </trkpt>
      <trkpt lat="45.29365" lon="6.20762">
        <ele>1358.1999511719</ele>
        <time>2020-02-08T14:38:10.000Z</time>
      </trkpt>
      <trkpt lat="45.29365" lon="6.20763">
        <ele>1356.8000488281</ele>
        <time>2020-02-08T14:38:11.000Z</time>
      </trkpt>
      <trkpt lat="45.29366" lon="6.20767">
        <ele>1355.8000488281</ele>
        <time>2020-02-08T14:38:13.000Z</time>
      </trkpt>
      <trkpt lat="45.29366" lon="6.2077">
        <ele>1355.4000244141</ele>
        <time>2020-02-08T14:38:14.000Z</time>
      </trkpt>
      <trkpt lat="45.29366" lon="6.20773">
        <ele>1355.1999511719</ele>
        <time>2020-02-08T14:38:15.000Z</time>
      </trkpt>
      <trkpt lat="45.29366" lon="6.2078">
        <ele>1355</ele>
        <time>2020-02-08T14:38:17.000Z</time>
      </trkpt>
      <trkpt lat="45.29368" lon="6.20785">
        <ele>1354.4000244141</ele>
        <time>2020-02-08T14:38:18.000Z</time>
      </trkpt>
      <trkpt lat="45.2937" lon="6.20789">
        <ele>1353.1999511719</ele>
        <time>2020-02-08T14:38:19.000Z</time>
      </trkpt>
      <trkpt lat="45.29371" lon="6.20795">
        <ele>1352.1999511719</ele>
        <time>2020-02-08T14:38:20.000Z</time>
      </trkpt>
      <trkpt lat="45.29371" lon="6.20805">
        <ele>1350.8000488281</ele>
        <time>2020-02-08T14:38:22.000Z</time>
      </trkpt>
      <trkpt lat="45.29371" lon="6.20815">
        <ele>1349.1999511719</ele>
        <time>2020-02-08T14:38:24.000Z</time>
      </trkpt>
      <trkpt lat="45.2937" lon="6.2082">
        <ele>1348</ele>
        <time>2020-02-08T14:38:25.000Z</time>
      </trkpt>
      <trkpt lat="45.29368" lon="6.20823">
        <ele>1346.5999755859</ele>
        <time>2020-02-08T14:38:26.000Z</time>
      </trkpt>
      <trkpt lat="45.29367" lon="6.20825">
        <ele>1345</ele>
        <time>2020-02-08T14:38:27.000Z</time>
      </trkpt>
      <trkpt lat="45.29365" lon="6.20828">
        <ele>1344</ele>
        <time>2020-02-08T14:38:28.000Z</time>
      </trkpt>
      <trkpt lat="45.29362" lon="6.20836">
        <ele>1342.5999755859</ele>
        <time>2020-02-08T14:38:31.000Z</time>
      </trkpt>
      <trkpt lat="45.29362" lon="6.20839">
        <ele>1342.4000244141</ele>
        <time>2020-02-08T14:38:32.000Z</time>
      </trkpt>
      <trkpt lat="45.29363" lon="6.20846">
        <ele>1341.5999755859</ele>
        <time>2020-02-08T14:38:34.000Z</time>
      </trkpt>
      <trkpt lat="45.29363" lon="6.2085">
        <ele>1340.4000244141</ele>
        <time>2020-02-08T14:38:35.000Z</time>
      </trkpt>
      <trkpt lat="45.29364" lon="6.20852">
        <ele>1339.8000488281</ele>
        <time>2020-02-08T14:38:36.000Z</time>
      </trkpt>
      <trkpt lat="45.29364" lon="6.20855">
        <ele>1339.4000244141</ele>
        <time>2020-02-08T14:38:37.000Z</time>
      </trkpt>
      <trkpt lat="45.29361" lon="6.20863">
        <ele>1337.8000488281</ele>
        <time>2020-02-08T14:38:39.000Z</time>
      </trkpt>
      <trkpt lat="45.2936" lon="6.20868">
        <ele>1337</ele>
        <time>2020-02-08T14:38:40.000Z</time>
      </trkpt>
      <trkpt lat="45.29359" lon="6.20873">
        <ele>1336.1999511719</ele>
        <time>2020-02-08T14:38:41.000Z</time>
      </trkpt>
      <trkpt lat="45.29357" lon="6.20885">
        <ele>1334.8000488281</ele>
        <time>2020-02-08T14:38:43.000Z</time>
      </trkpt>
      <trkpt lat="45.29356" lon="6.20891">
        <ele>1334.1999511719</ele>
        <time>2020-02-08T14:38:44.000Z</time>
      </trkpt>
      <trkpt lat="45.29356" lon="6.20898">
        <ele>1333.4000244141</ele>
        <time>2020-02-08T14:38:45.000Z</time>
      </trkpt>
      <trkpt lat="45.29355" lon="6.20905">
        <ele>1332.5999755859</ele>
        <time>2020-02-08T14:38:46.000Z</time>
      </trkpt>
      <trkpt lat="45.29354" lon="6.2091">
        <ele>1331.5999755859</ele>
        <time>2020-02-08T14:38:47.000Z</time>
      </trkpt>
      <trkpt lat="45.29353" lon="6.20923">
        <ele>1329.5999755859</ele>
        <time>2020-02-08T14:38:49.000Z</time>
      </trkpt>
      <trkpt lat="45.29352" lon="6.20928">
        <ele>1328</ele>
        <time>2020-02-08T14:38:51.000Z</time>
      </trkpt>
      <trkpt lat="45.29352" lon="6.20932">
        <ele>1326.8000488281</ele>
        <time>2020-02-08T14:38:53.000Z</time>
      </trkpt>
      <trkpt lat="45.29351" lon="6.20935">
        <ele>1325.8000488281</ele>
        <time>2020-02-08T14:38:55.000Z</time>
      </trkpt>
      <trkpt lat="45.2935" lon="6.20937">
        <ele>1325.4000244141</ele>
        <time>2020-02-08T14:38:56.000Z</time>
      </trkpt>
      <trkpt lat="45.2935" lon="6.2094">
        <ele>1324.1999511719</ele>
        <time>2020-02-08T14:38:58.000Z</time>
      </trkpt>
      <trkpt lat="45.29348" lon="6.20944">
        <ele>1323.1999511719</ele>
        <time>2020-02-08T14:39:00.000Z</time>
      </trkpt>
      <trkpt lat="45.29348" lon="6.20947">
        <ele>1322.5999755859</ele>
        <time>2020-02-08T14:39:01.000Z</time>
      </trkpt>
      <trkpt lat="45.29349" lon="6.20951">
        <ele>1322</ele>
        <time>2020-02-08T14:39:02.000Z</time>
      </trkpt>
      <trkpt lat="45.2935" lon="6.20956">
        <ele>1321</ele>
        <time>2020-02-08T14:39:04.000Z</time>
      </trkpt>
      <trkpt lat="45.2935" lon="6.20956">
        <ele>1320.4000244141</ele>
        <time>2020-02-08T14:39:05.000Z</time>
      </trkpt>
      <trkpt lat="45.2935" lon="6.20959">
        <ele>1319.8000488281</ele>
        <time>2020-02-08T14:39:06.000Z</time>
      </trkpt>
      <trkpt lat="45.2935" lon="6.20961">
        <ele>1318.8000488281</ele>
        <time>2020-02-08T14:39:07.000Z</time>
      </trkpt>
      <trkpt lat="45.2935" lon="6.20961">
        <ele>1317.5999755859</ele>
        <time>2020-02-08T14:39:08.000Z</time>
      </trkpt>
      <trkpt lat="45.29348" lon="6.20966">
        <ele>1316.4000244141</ele>
        <time>2020-02-08T14:39:10.000Z</time>
      </trkpt>
      <trkpt lat="45.29348" lon="6.20967">
        <ele>1316</ele>
        <time>2020-02-08T14:39:11.000Z</time>
      </trkpt>
      <trkpt lat="45.29348" lon="6.2097">
        <ele>1315.4000244141</ele>
        <time>2020-02-08T14:39:12.000Z</time>
      </trkpt>
      <trkpt lat="45.29349" lon="6.20973">
        <ele>1315</ele>
        <time>2020-02-08T14:39:13.000Z</time>
      </trkpt>
      <trkpt lat="45.29349" lon="6.20982">
        <ele>1313.8000488281</ele>
        <time>2020-02-08T14:39:15.000Z</time>
      </trkpt>
      <trkpt lat="45.29347" lon="6.20992">
        <ele>1312.1999511719</ele>
        <time>2020-02-08T14:39:18.000Z</time>
      </trkpt>
      <trkpt lat="45.29344" lon="6.20996">
        <ele>1310.1999511719</ele>
        <time>2020-02-08T14:39:20.000Z</time>
      </trkpt>
      <trkpt lat="45.29341" lon="6.21004">
        <ele>1308.4000244141</ele>
        <time>2020-02-08T14:39:22.000Z</time>
      </trkpt>
      <trkpt lat="45.29339" lon="6.21008">
        <ele>1306.8000488281</ele>
        <time>2020-02-08T14:39:23.000Z</time>
      </trkpt>
      <trkpt lat="45.29336" lon="6.21023">
        <ele>1305.4000244141</ele>
        <time>2020-02-08T14:39:25.000Z</time>
      </trkpt>
      <trkpt lat="45.29332" lon="6.21038">
        <ele>1303.5999755859</ele>
        <time>2020-02-08T14:39:27.000Z</time>
      </trkpt>
      <trkpt lat="45.2933" lon="6.21045">
        <ele>1302.4000244141</ele>
        <time>2020-02-08T14:39:28.000Z</time>
      </trkpt>
      <trkpt lat="45.29329" lon="6.21051">
        <ele>1301.4000244141</ele>
        <time>2020-02-08T14:39:29.000Z</time>
      </trkpt>
      <trkpt lat="45.29328" lon="6.21058">
        <ele>1300.1999511719</ele>
        <time>2020-02-08T14:39:30.000Z</time>
      </trkpt>
      <trkpt lat="45.29327" lon="6.21065">
        <ele>1299.1999511719</ele>
        <time>2020-02-08T14:39:31.000Z</time>
      </trkpt>
      <trkpt lat="45.29325" lon="6.21071">
        <ele>1298</ele>
        <time>2020-02-08T14:39:32.000Z</time>
      </trkpt>
      <trkpt lat="45.29324" lon="6.21077">
        <ele>1297</ele>
        <time>2020-02-08T14:39:33.000Z</time>
      </trkpt>
      <trkpt lat="45.29322" lon="6.21082">
        <ele>1295.8000488281</ele>
        <time>2020-02-08T14:39:34.000Z</time>
      </trkpt>
      <trkpt lat="45.29321" lon="6.21086">
        <ele>1294.5999755859</ele>
        <time>2020-02-08T14:39:35.000Z</time>
      </trkpt>
      <trkpt lat="45.29321" lon="6.21092">
        <ele>1293.1999511719</ele>
        <time>2020-02-08T14:39:36.000Z</time>
      </trkpt>
      <trkpt lat="45.2932" lon="6.21098">
        <ele>1292</ele>
        <time>2020-02-08T14:39:37.000Z</time>
      </trkpt>
      <trkpt lat="45.2932" lon="6.21103">
        <ele>1291.1999511719</ele>
        <time>2020-02-08T14:39:38.000Z</time>
      </trkpt>
      <trkpt lat="45.29319" lon="6.21108">
        <ele>1290.5999755859</ele>
        <time>2020-02-08T14:39:39.000Z</time>
      </trkpt>
      <trkpt lat="45.29318" lon="6.2112">
        <ele>1289</ele>
        <time>2020-02-08T14:39:41.000Z</time>
      </trkpt>
      <trkpt lat="45.29318" lon="6.21127">
        <ele>1288.1999511719</ele>
        <time>2020-02-08T14:39:42.000Z</time>
      </trkpt>
      <trkpt lat="45.29317" lon="6.21133">
        <ele>1287.1999511719</ele>
        <time>2020-02-08T14:39:43.000Z</time>
      </trkpt>
      <trkpt lat="45.29315" lon="6.21147">
        <ele>1285.4000244141</ele>
        <time>2020-02-08T14:39:45.000Z</time>
      </trkpt>
      <trkpt lat="45.29312" lon="6.2116">
        <ele>1282.1999511719</ele>
        <time>2020-02-08T14:39:47.000Z</time>
      </trkpt>
      <trkpt lat="45.2931" lon="6.21167">
        <ele>1281.1999511719</ele>
        <time>2020-02-08T14:39:48.000Z</time>
      </trkpt>
      <trkpt lat="45.29307" lon="6.21172">
        <ele>1280</ele>
        <time>2020-02-08T14:39:49.000Z</time>
      </trkpt>
      <trkpt lat="45.29306" lon="6.21177">
        <ele>1279</ele>
        <time>2020-02-08T14:39:50.000Z</time>
      </trkpt>
      <trkpt lat="45.29305" lon="6.21181">
        <ele>1278</ele>
        <time>2020-02-08T14:39:51.000Z</time>
      </trkpt>
      <trkpt lat="45.29305" lon="6.21187">
        <ele>1277</ele>
        <time>2020-02-08T14:39:52.000Z</time>
      </trkpt>
      <trkpt lat="45.29306" lon="6.212">
        <ele>1275.4000244141</ele>
        <time>2020-02-08T14:39:54.000Z</time>
      </trkpt>
      <trkpt lat="45.29305" lon="6.2121">
        <ele>1273.5999755859</ele>
        <time>2020-02-08T14:39:56.000Z</time>
      </trkpt>
      <trkpt lat="45.29304" lon="6.21214">
        <ele>1272.4000244141</ele>
        <time>2020-02-08T14:39:57.000Z</time>
      </trkpt>
      <trkpt lat="45.29304" lon="6.21219">
        <ele>1271.4000244141</ele>
        <time>2020-02-08T14:39:58.000Z</time>
      </trkpt>
      <trkpt lat="45.29301" lon="6.21232">
        <ele>1269.8000488281</ele>
        <time>2020-02-08T14:40:00.000Z</time>
      </trkpt>
      <trkpt lat="45.29296" lon="6.21243">
        <ele>1268.1999511719</ele>
        <time>2020-02-08T14:40:02.000Z</time>
      </trkpt>
      <trkpt lat="45.29289" lon="6.21251">
        <ele>1266.1999511719</ele>
        <time>2020-02-08T14:40:04.000Z</time>
      </trkpt>
      <trkpt lat="45.29283" lon="6.21259">
        <ele>1264.8000488281</ele>
        <time>2020-02-08T14:40:06.000Z</time>
      </trkpt>
      <trkpt lat="45.29281" lon="6.21263">
        <ele>1264.4000244141</ele>
        <time>2020-02-08T14:40:07.000Z</time>
      </trkpt>
      <trkpt lat="45.29278" lon="6.21271">
        <ele>1263.5999755859</ele>
        <time>2020-02-08T14:40:09.000Z</time>
      </trkpt>
      <trkpt lat="45.29277" lon="6.21276">
        <ele>1263.1999511719</ele>
        <time>2020-02-08T14:40:10.000Z</time>
      </trkpt>
      <trkpt lat="45.29274" lon="6.21283">
        <ele>1262.1999511719</ele>
        <time>2020-02-08T14:40:11.000Z</time>
      </trkpt>
      <trkpt lat="45.2927" lon="6.2129">
        <ele>1261.8000488281</ele>
        <time>2020-02-08T14:40:12.000Z</time>
      </trkpt>
      <trkpt lat="45.29268" lon="6.21297">
        <ele>1261.1999511719</ele>
        <time>2020-02-08T14:40:13.000Z</time>
      </trkpt>
      <trkpt lat="45.29265" lon="6.21302">
        <ele>1260.5999755859</ele>
        <time>2020-02-08T14:40:14.000Z</time>
      </trkpt>
      <trkpt lat="45.29261" lon="6.21307">
        <ele>1259.8000488281</ele>
        <time>2020-02-08T14:40:15.000Z</time>
      </trkpt>
      <trkpt lat="45.29258" lon="6.21311">
        <ele>1258.8000488281</ele>
        <time>2020-02-08T14:40:16.000Z</time>
      </trkpt>
      <trkpt lat="45.29255" lon="6.21315">
        <ele>1257.8000488281</ele>
        <time>2020-02-08T14:40:17.000Z</time>
      </trkpt>
      <trkpt lat="45.29253" lon="6.21318">
        <ele>1256.5999755859</ele>
        <time>2020-02-08T14:40:18.000Z</time>
      </trkpt>
      <trkpt lat="45.2925" lon="6.21324">
        <ele>1255</ele>
        <time>2020-02-08T14:40:20.000Z</time>
      </trkpt>
      <trkpt lat="45.29249" lon="6.21326">
        <ele>1253.4000244141</ele>
        <time>2020-02-08T14:40:22.000Z</time>
      </trkpt>
      <trkpt lat="45.29248" lon="6.21328">
        <ele>1251.8000488281</ele>
        <time>2020-02-08T14:40:24.000Z</time>
      </trkpt>
      <trkpt lat="45.29247" lon="6.21331">
        <ele>1250.5999755859</ele>
        <time>2020-02-08T14:40:26.000Z</time>
      </trkpt>
      <trkpt lat="45.29246" lon="6.21335">
        <ele>1249.8000488281</ele>
        <time>2020-02-08T14:40:28.000Z</time>
      </trkpt>
      <trkpt lat="45.29246" lon="6.21338">
        <ele>1249.5999755859</ele>
        <time>2020-02-08T14:40:29.000Z</time>
      </trkpt>
      <trkpt lat="45.29244" lon="6.2135">
        <ele>1248</ele>
        <time>2020-02-08T14:40:32.000Z</time>
      </trkpt>
      <trkpt lat="45.29242" lon="6.21356">
        <ele>1246.1999511719</ele>
        <time>2020-02-08T14:40:34.000Z</time>
      </trkpt>
      <trkpt lat="45.2924" lon="6.21358">
        <ele>1243.8000488281</ele>
        <time>2020-02-08T14:40:35.000Z</time>
      </trkpt>
      <trkpt lat="45.29239" lon="6.21359">
        <ele>1242.5999755859</ele>
        <time>2020-02-08T14:40:36.000Z</time>
      </trkpt>
      <trkpt lat="45.29237" lon="6.2136">
        <ele>1241.1999511719</ele>
        <time>2020-02-08T14:40:38.000Z</time>
      </trkpt>
      <trkpt lat="45.29234" lon="6.21364">
        <ele>1240</ele>
        <time>2020-02-08T14:40:41.000Z</time>
      </trkpt>
      <trkpt lat="45.29233" lon="6.21365">
        <ele>1239.4000244141</ele>
        <time>2020-02-08T14:40:42.000Z</time>
      </trkpt>
      <trkpt lat="45.29231" lon="6.21367">
        <ele>1238.5999755859</ele>
        <time>2020-02-08T14:40:44.000Z</time>
      </trkpt>
      <trkpt lat="45.2923" lon="6.21368">
        <ele>1237.4000244141</ele>
        <time>2020-02-08T14:40:49.000Z</time>
      </trkpt>
      <trkpt lat="45.29231" lon="6.2137">
        <ele>1236.8000488281</ele>
        <time>2020-02-08T14:40:55.000Z</time>
      </trkpt>
      <trkpt lat="45.29231" lon="6.2137">
        <ele>1236.1999511719</ele>
        <time>2020-02-08T14:40:58.000Z</time>
      </trkpt>
      <trkpt lat="45.29231" lon="6.2137">
        <ele>1235.1999511719</ele>
        <time>2020-02-08T14:41:01.000Z</time>
      </trkpt>
      <trkpt lat="45.29231" lon="6.2137">
        <ele>1234.8000488281</ele>
        <time>2020-02-08T14:41:04.000Z</time>
      </trkpt>
      <trkpt lat="45.29231" lon="6.2137">
        <ele>1234.1999511719</ele>
        <time>2020-02-08T14:41:15.000Z</time>
      </trkpt>
      <trkpt lat="45.29231" lon="6.2137">
        <ele>1234.1999511719</ele>
        <time>2020-02-08T14:41:16.000Z</time>
      </trkpt>
      <trkpt lat="45.29231" lon="6.2137">
        <ele>1233.4000244141</ele>
        <time>2020-02-08T14:41:24.000Z</time>
      </trkpt>
      <trkpt lat="45.29231" lon="6.2137">
        <ele>1233.1999511719</ele>
        <time>2020-02-08T14:41:26.000Z</time>
      </trkpt>
      <trkpt lat="45.29232" lon="6.21376">
        <ele>1232.8000488281</ele>
        <time>2020-02-08T14:41:29.000Z</time>
      </trkpt>
      <trkpt lat="45.29229" lon="6.21386">
        <ele>1232</ele>
        <time>2020-02-08T14:41:33.000Z</time>
      </trkpt>
      <trkpt lat="45.29228" lon="6.21391">
        <ele>1231.8000488281</ele>
        <time>2020-02-08T14:41:34.000Z</time>
      </trkpt>
      <trkpt lat="45.29227" lon="6.21398">
        <ele>1230.8000488281</ele>
        <time>2020-02-08T14:41:38.000Z</time>
      </trkpt>
      <trkpt lat="45.29227" lon="6.21398">
        <ele>1229.4000244141</ele>
        <time>2020-02-08T14:41:40.000Z</time>
      </trkpt>
      <trkpt lat="45.29227" lon="6.21398">
        <ele>1228</ele>
        <time>2020-02-08T14:41:43.000Z</time>
      </trkpt>
      <trkpt lat="45.29227" lon="6.21398">
        <ele>1226.8000488281</ele>
        <time>2020-02-08T14:41:45.000Z</time>
      </trkpt>
      <trkpt lat="45.29227" lon="6.21398">
        <ele>1225.4000244141</ele>
        <time>2020-02-08T14:41:47.000Z</time>
      </trkpt>
      <trkpt lat="45.29226" lon="6.21399">
        <ele>1225</ele>
        <time>2020-02-08T14:42:00.000Z</time>
      </trkpt>
      <trkpt lat="45.29226" lon="6.21399">
        <ele>1224.5999755859</ele>
        <time>2020-02-08T14:42:12.000Z</time>
      </trkpt>
      <trkpt lat="45.29226" lon="6.21399">
        <ele>1224.1999511719</ele>
        <time>2020-02-08T14:42:14.000Z</time>
      </trkpt>
      <trkpt lat="45.29226" lon="6.21399">
        <ele>1223.1999511719</ele>
        <time>2020-02-08T14:42:17.000Z</time>
      </trkpt>
      <trkpt lat="45.29226" lon="6.21399">
        <ele>1224.1999511719</ele>
        <time>2020-02-08T14:42:21.000Z</time>
      </trkpt>
      <trkpt lat="45.29226" lon="6.21399">
        <ele>1225.4000244141</ele>
        <time>2020-02-08T14:42:23.000Z</time>
      </trkpt>
      <trkpt lat="45.29226" lon="6.21399">
        <ele>1225.5999755859</ele>
        <time>2020-02-08T14:42:25.000Z</time>
      </trkpt>
      <trkpt lat="45.29226" lon="6.21399">
        <ele>1224.4000244141</ele>
        <time>2020-02-08T14:42:31.000Z</time>
      </trkpt>
      <trkpt lat="45.29225" lon="6.214">
        <ele>1223.5999755859</ele>
        <time>2020-02-08T14:42:33.000Z</time>
      </trkpt>
      <trkpt lat="45.29225" lon="6.214">
        <ele>1223.1999511719</ele>
        <time>2020-02-08T14:42:34.000Z</time>
      </trkpt>
      <trkpt lat="45.29225" lon="6.214">
        <ele>1222</ele>
        <time>2020-02-08T14:42:35.000Z</time>
      </trkpt>
      <trkpt lat="45.29225" lon="6.214">
        <ele>1220.8000488281</ele>
        <time>2020-02-08T14:42:38.000Z</time>
      </trkpt>
      <trkpt lat="45.29222" lon="6.21402">
        <ele>1220</ele>
        <time>2020-02-08T14:42:41.000Z</time>
      </trkpt>
      <trkpt lat="45.2922" lon="6.21405">
        <ele>1219.5999755859</ele>
        <time>2020-02-08T14:42:42.000Z</time>
      </trkpt>
      <trkpt lat="45.2922" lon="6.21405">
        <ele>1218.4000244141</ele>
        <time>2020-02-08T14:42:45.000Z</time>
      </trkpt>
      <trkpt lat="45.2922" lon="6.21405">
        <ele>1218.1999511719</ele>
        <time>2020-02-08T14:42:46.000Z</time>
      </trkpt>
      <trkpt lat="45.2922" lon="6.21405">
        <ele>1217.1999511719</ele>
        <time>2020-02-08T14:42:49.000Z</time>
      </trkpt>
      <trkpt lat="45.29217" lon="6.21412">
        <ele>1216.1999511719</ele>
        <time>2020-02-08T14:42:52.000Z</time>
      </trkpt>
      <trkpt lat="45.29216" lon="6.21414">
        <ele>1215</ele>
        <time>2020-02-08T14:42:55.000Z</time>
      </trkpt>
      <trkpt lat="45.29215" lon="6.21416">
        <ele>1213.8000488281</ele>
        <time>2020-02-08T14:42:58.000Z</time>
      </trkpt>
      <trkpt lat="45.29211" lon="6.2142">
        <ele>1212.5999755859</ele>
        <time>2020-02-08T14:43:01.000Z</time>
      </trkpt>
      <trkpt lat="45.29206" lon="6.21425">
        <ele>1211.8000488281</ele>
        <time>2020-02-08T14:43:03.000Z</time>
      </trkpt>
      <trkpt lat="45.29205" lon="6.21427">
        <ele>1211.4000244141</ele>
        <time>2020-02-08T14:43:04.000Z</time>
      </trkpt>
      <trkpt lat="45.29203" lon="6.21429">
        <ele>1210.1999511719</ele>
        <time>2020-02-08T14:43:08.000Z</time>
      </trkpt>
      <trkpt lat="45.29203" lon="6.21429">
        <ele>1209.8000488281</ele>
        <time>2020-02-08T14:43:10.000Z</time>
      </trkpt>
      <trkpt lat="45.29203" lon="6.21429">
        <ele>1208.8000488281</ele>
        <time>2020-02-08T14:43:13.000Z</time>
      </trkpt>
      <trkpt lat="45.292" lon="6.21433">
        <ele>1207.8000488281</ele>
        <time>2020-02-08T14:43:16.000Z</time>
      </trkpt>
      <trkpt lat="45.292" lon="6.21433">
        <ele>1206.5999755859</ele>
        <time>2020-02-08T14:43:20.000Z</time>
      </trkpt>
      <trkpt lat="45.29199" lon="6.21435">
        <ele>1206.4000244141</ele>
        <time>2020-02-08T14:43:21.000Z</time>
      </trkpt>
      <trkpt lat="45.29193" lon="6.21441">
        <ele>1205.4000244141</ele>
        <time>2020-02-08T14:43:25.000Z</time>
      </trkpt>
      <trkpt lat="45.29191" lon="6.21445">
        <ele>1204.5999755859</ele>
        <time>2020-02-08T14:43:27.000Z</time>
      </trkpt>
      <trkpt lat="45.2919" lon="6.21446">
        <ele>1204.1999511719</ele>
        <time>2020-02-08T14:43:28.000Z</time>
      </trkpt>
      <trkpt lat="45.29189" lon="6.21448">
        <ele>1203</ele>
        <time>2020-02-08T14:43:32.000Z</time>
      </trkpt>
      <trkpt lat="45.29189" lon="6.21448">
        <ele>1202.8000488281</ele>
        <time>2020-02-08T14:43:33.000Z</time>
      </trkpt>
      <trkpt lat="45.29187" lon="6.21452">
        <ele>1201.8000488281</ele>
        <time>2020-02-08T14:43:36.000Z</time>
      </trkpt>
      <trkpt lat="45.29185" lon="6.21456">
        <ele>1201</ele>
        <time>2020-02-08T14:43:38.000Z</time>
      </trkpt>
      <trkpt lat="45.29183" lon="6.21458">
        <ele>1200.5999755859</ele>
        <time>2020-02-08T14:43:39.000Z</time>
      </trkpt>
      <trkpt lat="45.29181" lon="6.21461">
        <ele>1199.8000488281</ele>
        <time>2020-02-08T14:43:43.000Z</time>
      </trkpt>
      <trkpt lat="45.29181" lon="6.21461">
        <ele>1199.4000244141</ele>
        <time>2020-02-08T14:43:45.000Z</time>
      </trkpt>
      <trkpt lat="45.29176" lon="6.21468">
        <ele>1198.4000244141</ele>
        <time>2020-02-08T14:43:48.000Z</time>
      </trkpt>
      <trkpt lat="45.29174" lon="6.2147">
        <ele>1198</ele>
        <time>2020-02-08T14:43:49.000Z</time>
      </trkpt>
      <trkpt lat="45.29169" lon="6.21478">
        <ele>1197</ele>
        <time>2020-02-08T14:43:53.000Z</time>
      </trkpt>
      <trkpt lat="45.29169" lon="6.21479">
        <ele>1196.8000488281</ele>
        <time>2020-02-08T14:43:55.000Z</time>
      </trkpt>
      <trkpt lat="45.29169" lon="6.21479">
        <ele>1196</ele>
        <time>2020-02-08T14:43:59.000Z</time>
      </trkpt>
      <trkpt lat="45.29166" lon="6.21484">
        <ele>1195</ele>
        <time>2020-02-08T14:44:02.000Z</time>
      </trkpt>
      <trkpt lat="45.29162" lon="6.2149">
        <ele>1193.8000488281</ele>
        <time>2020-02-08T14:44:05.000Z</time>
      </trkpt>
      <trkpt lat="45.29157" lon="6.21498">
        <ele>1192.5999755859</ele>
        <time>2020-02-08T14:44:08.000Z</time>
      </trkpt>
      <trkpt lat="45.29157" lon="6.21498">
        <ele>1192.1999511719</ele>
        <time>2020-02-08T14:44:09.000Z</time>
      </trkpt>
      <trkpt lat="45.29157" lon="6.21498">
        <ele>1191.4000244141</ele>
        <time>2020-02-08T14:44:11.000Z</time>
      </trkpt>
      <trkpt lat="45.29154" lon="6.21502">
        <ele>1190.4000244141</ele>
        <time>2020-02-08T14:44:15.000Z</time>
      </trkpt>
      <trkpt lat="45.29153" lon="6.21502">
        <ele>1190</ele>
        <time>2020-02-08T14:44:24.000Z</time>
      </trkpt>
      <trkpt lat="45.29153" lon="6.21502">
        <ele>1190.1999511719</ele>
        <time>2020-02-08T14:44:31.000Z</time>
      </trkpt>
      <trkpt lat="45.29153" lon="6.21502">
        <ele>1191.4000244141</ele>
        <time>2020-02-08T14:44:36.000Z</time>
      </trkpt>
      <trkpt lat="45.29153" lon="6.21502">
        <ele>1191.8000488281</ele>
        <time>2020-02-08T14:44:39.000Z</time>
      </trkpt>
      <trkpt lat="45.29153" lon="6.21502">
        <ele>1192.4000244141</ele>
        <time>2020-02-08T14:44:45.000Z</time>
      </trkpt>
      <trkpt lat="45.29149" lon="6.21508">
        <ele>1192.5999755859</ele>
        <time>2020-02-08T14:44:46.000Z</time>
      </trkpt>
      <trkpt lat="45.29133" lon="6.21521">
        <ele>1193</ele>
        <time>2020-02-08T14:44:52.000Z</time>
      </trkpt>
      <trkpt lat="45.2913" lon="6.21524">
        <ele>1193.5999755859</ele>
        <time>2020-02-08T14:44:55.000Z</time>
      </trkpt>
      <trkpt lat="45.29127" lon="6.21521">
        <ele>1194.5999755859</ele>
        <time>2020-02-08T14:45:00.000Z</time>
      </trkpt>
      <trkpt lat="45.29127" lon="6.21521">
        <ele>1194.8000488281</ele>
        <time>2020-02-08T14:45:01.000Z</time>
      </trkpt>
      <trkpt lat="45.29124" lon="6.21518">
        <ele>1195</ele>
        <time>2020-02-08T14:45:11.000Z</time>
      </trkpt>
      <trkpt lat="45.29122" lon="6.21517">
        <ele>1195.5999755859</ele>
        <time>2020-02-08T14:45:16.000Z</time>
      </trkpt>
      <trkpt lat="45.29123" lon="6.21516">
        <ele>1195.8000488281</ele>
        <time>2020-02-08T14:45:20.000Z</time>
      </trkpt>
      <trkpt lat="45.29123" lon="6.21516">
        <ele>1195.5999755859</ele>
        <time>2020-02-08T14:45:33.000Z</time>
      </trkpt>
      <trkpt lat="45.29123" lon="6.21516">
        <ele>1196.1999511719</ele>
        <time>2020-02-08T14:45:42.000Z</time>
      </trkpt>
      <trkpt lat="45.29117" lon="6.21523">
        <ele>1196.5999755859</ele>
        <time>2020-02-08T14:45:47.000Z</time>
      </trkpt>
      <trkpt lat="45.29116" lon="6.21526">
        <ele>1196.8000488281</ele>
        <time>2020-02-08T14:45:48.000Z</time>
      </trkpt>
      <trkpt lat="45.29115" lon="6.21527">
        <ele>1197.5999755859</ele>
        <time>2020-02-08T14:45:54.000Z</time>
      </trkpt>
      <trkpt lat="45.29115" lon="6.21527">
        <ele>1197.8000488281</ele>
        <time>2020-02-08T14:45:55.000Z</time>
      </trkpt>
      <trkpt lat="45.29113" lon="6.21528">
        <ele>1197.8000488281</ele>
        <time>2020-02-08T14:46:04.000Z</time>
      </trkpt>
      <trkpt lat="45.29112" lon="6.21527">
        <ele>1198</ele>
        <time>2020-02-08T14:46:15.000Z</time>
      </trkpt>
      <trkpt lat="45.29112" lon="6.21527">
        <ele>1198.8000488281</ele>
        <time>2020-02-08T14:46:22.000Z</time>
      </trkpt>
      <trkpt lat="45.29112" lon="6.21527">
        <ele>1199.1999511719</ele>
        <time>2020-02-08T14:46:27.000Z</time>
      </trkpt>
      <trkpt lat="45.29112" lon="6.21527">
        <ele>1199.5999755859</ele>
        <time>2020-02-08T14:46:37.000Z</time>
      </trkpt>
      <trkpt lat="45.29112" lon="6.21527">
        <ele>1199.8000488281</ele>
        <time>2020-02-08T14:46:38.000Z</time>
      </trkpt>
      <trkpt lat="45.29111" lon="6.2153">
        <ele>1200.5999755859</ele>
        <time>2020-02-08T14:46:44.000Z</time>
      </trkpt>
      <trkpt lat="45.29106" lon="6.21535">
        <ele>1201</ele>
        <time>2020-02-08T14:46:47.000Z</time>
      </trkpt>
      <trkpt lat="45.29104" lon="6.21539">
        <ele>1201.4000244141</ele>
        <time>2020-02-08T14:46:49.000Z</time>
      </trkpt>
      <trkpt lat="45.29102" lon="6.21539">
        <ele>1201.4000244141</ele>
        <time>2020-02-08T14:46:55.000Z</time>
      </trkpt>
      <trkpt lat="45.291" lon="6.21538">
        <ele>1202.1999511719</ele>
        <time>2020-02-08T14:47:01.000Z</time>
      </trkpt>
      <trkpt lat="45.291" lon="6.21538">
        <ele>1202.1999511719</ele>
        <time>2020-02-08T14:47:04.000Z</time>
      </trkpt>
      <trkpt lat="45.291" lon="6.21538">
        <ele>1202.1999511719</ele>
        <time>2020-02-08T14:47:12.000Z</time>
      </trkpt>
      <trkpt lat="45.29099" lon="6.21537">
        <ele>1203</ele>
        <time>2020-02-08T14:47:19.000Z</time>
      </trkpt>
      <trkpt lat="45.29098" lon="6.21536">
        <ele>1203.4000244141</ele>
        <time>2020-02-08T14:47:21.000Z</time>
      </trkpt>
      <trkpt lat="45.29093" lon="6.21535">
        <ele>1204.4000244141</ele>
        <time>2020-02-08T14:47:25.000Z</time>
      </trkpt>
      <trkpt lat="45.29089" lon="6.21529">
        <ele>1204.5999755859</ele>
        <time>2020-02-08T14:47:33.000Z</time>
      </trkpt>
      <trkpt lat="45.2909" lon="6.21529">
        <ele>1205.5999755859</ele>
        <time>2020-02-08T14:47:37.000Z</time>
      </trkpt>
      <trkpt lat="45.2909" lon="6.21529">
        <ele>1206.1999511719</ele>
        <time>2020-02-08T14:47:41.000Z</time>
      </trkpt>
      <trkpt lat="45.2909" lon="6.21529">
        <ele>1206.8000488281</ele>
        <time>2020-02-08T14:47:43.000Z</time>
      </trkpt>
      <trkpt lat="45.29087" lon="6.21532">
        <ele>1207.1999511719</ele>
        <time>2020-02-08T14:47:49.000Z</time>
      </trkpt>
      <trkpt lat="45.29078" lon="6.2153">
        <ele>1206.8000488281</ele>
        <time>2020-02-08T14:47:56.000Z</time>
      </trkpt>
      <trkpt lat="45.29074" lon="6.21527">
        <ele>1206.5999755859</ele>
        <time>2020-02-08T14:48:01.000Z</time>
      </trkpt>
      <trkpt lat="45.29067" lon="6.21525">
        <ele>1205.8000488281</ele>
        <time>2020-02-08T14:48:08.000Z</time>
      </trkpt>
      <trkpt lat="45.29067" lon="6.21525">
        <ele>1205.5999755859</ele>
        <time>2020-02-08T14:48:09.000Z</time>
      </trkpt>
      <trkpt lat="45.29063" lon="6.21524">
        <ele>1204.8000488281</ele>
        <time>2020-02-08T14:48:15.000Z</time>
      </trkpt>
      <trkpt lat="45.29063" lon="6.21524">
        <ele>1204.5999755859</ele>
        <time>2020-02-08T14:48:16.000Z</time>
      </trkpt>
      <trkpt lat="45.29062" lon="6.21525">
        <ele>1203.5999755859</ele>
        <time>2020-02-08T14:48:20.000Z</time>
      </trkpt>
      <trkpt lat="45.29062" lon="6.21525">
        <ele>1204.4000244141</ele>
        <time>2020-02-08T14:48:27.000Z</time>
      </trkpt>
      <trkpt lat="45.29062" lon="6.21525">
        <ele>1204.8000488281</ele>
        <time>2020-02-08T14:48:30.000Z</time>
      </trkpt>
      <trkpt lat="45.29062" lon="6.21525">
        <ele>1204.1999511719</ele>
        <time>2020-02-08T14:48:39.000Z</time>
      </trkpt>
      <trkpt lat="45.29062" lon="6.21525">
        <ele>1204.4000244141</ele>
        <time>2020-02-08T14:48:50.000Z</time>
      </trkpt>
      <trkpt lat="45.29063" lon="6.21531">
        <ele>1204.4000244141</ele>
        <time>2020-02-08T14:48:57.000Z</time>
      </trkpt>
      <trkpt lat="45.29062" lon="6.21532">
        <ele>1204.1999511719</ele>
        <time>2020-02-08T14:48:58.000Z</time>
      </trkpt>
      <trkpt lat="45.29062" lon="6.21537">
        <ele>1204</ele>
        <time>2020-02-08T14:49:02.000Z</time>
      </trkpt>
      <trkpt lat="45.29064" lon="6.21539">
        <ele>1203.5999755859</ele>
        <time>2020-02-08T14:49:06.000Z</time>
      </trkpt>
      <trkpt lat="45.29065" lon="6.2154">
        <ele>1203.5999755859</ele>
        <time>2020-02-08T14:49:10.000Z</time>
      </trkpt>
      <trkpt lat="45.29064" lon="6.2154">
        <ele>1203.4000244141</ele>
        <time>2020-02-08T14:49:15.000Z</time>
      </trkpt>
      <trkpt lat="45.29064" lon="6.21539">
        <ele>1202.8000488281</ele>
        <time>2020-02-08T14:49:20.000Z</time>
      </trkpt>
      <trkpt lat="45.29064" lon="6.21538">
        <ele>1202.5999755859</ele>
        <time>2020-02-08T14:49:22.000Z</time>
      </trkpt>
      <trkpt lat="45.29064" lon="6.21538">
        <ele>1202</ele>
        <time>2020-02-08T14:49:28.000Z</time>
      </trkpt>
      <trkpt lat="45.29063" lon="6.21538">
        <ele>1201.5999755859</ele>
        <time>2020-02-08T14:49:35.000Z</time>
      </trkpt>
      <trkpt lat="45.29058" lon="6.21534">
        <ele>1202.5999755859</ele>
        <time>2020-02-08T14:49:41.000Z</time>
      </trkpt>
      <trkpt lat="45.29052" lon="6.21535">
        <ele>1201.4000244141</ele>
        <time>2020-02-08T14:49:46.000Z</time>
      </trkpt>
      <trkpt lat="45.2905" lon="6.21535">
        <ele>1199.8000488281</ele>
        <time>2020-02-08T14:49:48.000Z</time>
      </trkpt>
      <trkpt lat="45.29048" lon="6.21536">
        <ele>1198.8000488281</ele>
        <time>2020-02-08T14:49:51.000Z</time>
      </trkpt>
      <trkpt lat="45.29046" lon="6.21535">
        <ele>1198</ele>
        <time>2020-02-08T14:49:57.000Z</time>
      </trkpt>
      <trkpt lat="45.29044" lon="6.21535">
        <ele>1197.8000488281</ele>
        <time>2020-02-08T14:50:06.000Z</time>
      </trkpt>
      <trkpt lat="45.29044" lon="6.21535">
        <ele>1197.8000488281</ele>
        <time>2020-02-08T14:50:07.000Z</time>
      </trkpt>
      <trkpt lat="45.29043" lon="6.21535">
        <ele>1197.5999755859</ele>
        <time>2020-02-08T14:50:15.000Z</time>
      </trkpt>
      <trkpt lat="45.29038" lon="6.21527">
        <ele>1197</ele>
        <time>2020-02-08T14:50:19.000Z</time>
      </trkpt>
      <trkpt lat="45.29036" lon="6.21526">
        <ele>1196.5999755859</ele>
        <time>2020-02-08T14:50:20.000Z</time>
      </trkpt>
      <trkpt lat="45.29034" lon="6.21526">
        <ele>1196</ele>
        <time>2020-02-08T14:50:21.000Z</time>
      </trkpt>
      <trkpt lat="45.29032" lon="6.21527">
        <ele>1195.4000244141</ele>
        <time>2020-02-08T14:50:22.000Z</time>
      </trkpt>
      <trkpt lat="45.2903" lon="6.21539">
        <ele>1194</ele>
        <time>2020-02-08T14:50:25.000Z</time>
      </trkpt>
      <trkpt lat="45.29028" lon="6.21547">
        <ele>1192.5999755859</ele>
        <time>2020-02-08T14:50:27.000Z</time>
      </trkpt>
      <trkpt lat="45.29023" lon="6.21551">
        <ele>1191</ele>
        <time>2020-02-08T14:50:29.000Z</time>
      </trkpt>
      <trkpt lat="45.29014" lon="6.21553">
        <ele>1189.5999755859</ele>
        <time>2020-02-08T14:50:31.000Z</time>
      </trkpt>
      <trkpt lat="45.29002" lon="6.21558">
        <ele>1187.8000488281</ele>
        <time>2020-02-08T14:50:33.000Z</time>
      </trkpt>
      <trkpt lat="45.28995" lon="6.21561">
        <ele>1187.1999511719</ele>
        <time>2020-02-08T14:50:34.000Z</time>
      </trkpt>
      <trkpt lat="45.28988" lon="6.21564">
        <ele>1186.5999755859</ele>
        <time>2020-02-08T14:50:35.000Z</time>
      </trkpt>
      <trkpt lat="45.28965" lon="6.2158">
        <ele>1185.5999755859</ele>
        <time>2020-02-08T14:50:39.000Z</time>
      </trkpt>
      <trkpt lat="45.2896" lon="6.21585">
        <ele>1185.4000244141</ele>
        <time>2020-02-08T14:50:40.000Z</time>
      </trkpt>
      <trkpt lat="45.28931" lon="6.21612">
        <ele>1184.8000488281</ele>
        <time>2020-02-08T14:50:46.000Z</time>
      </trkpt>
      <trkpt lat="45.28923" lon="6.21616">
        <ele>1185.1999511719</ele>
        <time>2020-02-08T14:50:50.000Z</time>
      </trkpt>
      <trkpt lat="45.28924" lon="6.2161">
        <ele>1184.8000488281</ele>
        <time>2020-02-08T14:50:56.000Z</time>
      </trkpt>
      <trkpt lat="45.28936" lon="6.21591">
        <ele>1184.5999755859</ele>
        <time>2020-02-08T14:51:02.000Z</time>
      </trkpt>
      <trkpt lat="45.28938" lon="6.21588">
        <ele>1184.4000244141</ele>
        <time>2020-02-08T14:51:03.000Z</time>
      </trkpt>
      <trkpt lat="45.28938" lon="6.21588">
        <ele>1184</ele>
        <time>2020-02-08T14:51:10.000Z</time>
      </trkpt>
      <trkpt lat="45.28938" lon="6.21588">
        <ele>1184.1999511719</ele>
        <time>2020-02-08T14:51:19.000Z</time>
      </trkpt>
      <trkpt lat="45.28938" lon="6.21588">
        <ele>1184.1999511719</ele>
        <time>2020-02-08T14:51:30.000Z</time>
      </trkpt>
      <trkpt lat="45.28947" lon="6.21574">
        <ele>1184</ele>
        <time>2020-02-08T14:51:36.000Z</time>
      </trkpt>
      <trkpt lat="45.28943" lon="6.21558">
        <ele>1183.5999755859</ele>
        <time>2020-02-08T14:51:41.000Z</time>
      </trkpt>
      <trkpt lat="45.2894" lon="6.21557">
        <ele>1183.4000244141</ele>
        <time>2020-02-08T14:51:42.000Z</time>
      </trkpt>
      <trkpt lat="45.28929" lon="6.21548">
        <ele>1182.4000244141</ele>
        <time>2020-02-08T14:51:47.000Z</time>
      </trkpt>
      <trkpt lat="45.28927" lon="6.21547">
        <ele>1182</ele>
        <time>2020-02-08T14:51:48.000Z</time>
      </trkpt>
      <trkpt lat="45.2892" lon="6.21545">
        <ele>1181.1999511719</ele>
        <time>2020-02-08T14:51:51.000Z</time>
      </trkpt>
      <trkpt lat="45.28913" lon="6.21545">
        <ele>1180.8000488281</ele>
        <time>2020-02-08T14:51:53.000Z</time>
      </trkpt>
      <trkpt lat="45.28902" lon="6.21541">
        <ele>1180</ele>
        <time>2020-02-08T14:51:55.000Z</time>
      </trkpt>
      <trkpt lat="45.28901" lon="6.21539">
        <ele>1179.5999755859</ele>
        <time>2020-02-08T14:51:56.000Z</time>
      </trkpt>
      <trkpt lat="45.289" lon="6.21538">
        <ele>1179</ele>
        <time>2020-02-08T14:51:57.000Z</time>
      </trkpt>
      <trkpt lat="45.28897" lon="6.21534">
        <ele>1178</ele>
        <time>2020-02-08T14:51:59.000Z</time>
      </trkpt>
      <trkpt lat="45.28898" lon="6.21532">
        <ele>1177.5999755859</ele>
        <time>2020-02-08T14:52:00.000Z</time>
      </trkpt>
      <trkpt lat="45.28898" lon="6.21532">
        <ele>1177</ele>
        <time>2020-02-08T14:52:02.000Z</time>
      </trkpt>
      <trkpt lat="45.289" lon="6.21531">
        <ele>1176.5999755859</ele>
        <time>2020-02-08T14:52:07.000Z</time>
      </trkpt>
      <trkpt lat="45.289" lon="6.21531">
        <ele>1176.1999511719</ele>
        <time>2020-02-08T14:52:13.000Z</time>
      </trkpt>
      <trkpt lat="45.289" lon="6.21531">
        <ele>1175.5999755859</ele>
        <time>2020-02-08T14:52:15.000Z</time>
      </trkpt>
      <trkpt lat="45.289" lon="6.21531">
        <ele>1176.5999755859</ele>
        <time>2020-02-08T14:52:20.000Z</time>
      </trkpt>
      <trkpt lat="45.289" lon="6.21531">
        <ele>1177.1999511719</ele>
        <time>2020-02-08T14:52:22.000Z</time>
      </trkpt>
      <trkpt lat="45.289" lon="6.21531">
        <ele>1176.5999755859</ele>
        <time>2020-02-08T14:52:31.000Z</time>
      </trkpt>
      <trkpt lat="45.28899" lon="6.2153">
        <ele>1176</ele>
        <time>2020-02-08T14:52:39.000Z</time>
      </trkpt>
      <trkpt lat="45.28899" lon="6.2153">
        <ele>1175.5999755859</ele>
        <time>2020-02-08T14:52:47.000Z</time>
      </trkpt>
      <trkpt lat="45.28899" lon="6.2153">
        <ele>1175.5999755859</ele>
        <time>2020-02-08T14:52:49.000Z</time>
      </trkpt>
      <trkpt lat="45.28899" lon="6.2153">
        <ele>1175.4000244141</ele>
        <time>2020-02-08T14:53:01.000Z</time>
      </trkpt>
      <trkpt lat="45.28899" lon="6.2153">
        <ele>1175.4000244141</ele>
        <time>2020-02-08T14:53:08.000Z</time>
      </trkpt>
      <trkpt lat="45.28899" lon="6.2153">
        <ele>1175.4000244141</ele>
        <time>2020-02-08T14:53:15.000Z</time>
      </trkpt>
      <trkpt lat="45.28899" lon="6.21529">
        <ele>1175.8000488281</ele>
        <time>2020-02-08T14:53:25.000Z</time>
      </trkpt>
    </trkseg>
  </trk>
</gpx>